<?xml version="1.0" encoding="UTF-8" standalone="no" ?>
<gpx xmlns="http://www.topografix.com/GPX/1/1" xmlns:xsi="http://www.w3.org/2001/XMLSchema-instance" xsi:schemaLocation="http://www.topografix.com/GPX/1/1 http://www.topografix.com/GPX/1/1/gpx.xsd" version="1.1" creator="VisuGPX - https://www.visugpx.com">
  <metadata>
    <name>Petite bosse crasseuse</name>
    <desc><![CDATA[Ca y est, les vtt commencent à être sales]]></desc>
  </metadata>
  <wpt lat="47.50585" lon="6.76626">
    <ele>398</ele>
    <name><![CDATA[Point de cheminement 1]]></name>
    <desc><![CDATA[]]></desc>
  </wpt>
  <wpt lat="47.49259" lon="6.75463">
    <ele>337</ele>
    <name><![CDATA[Point de cheminement 2]]></name>
    <desc><![CDATA[]]></desc>
  </wpt>
  <wpt lat="47.50926" lon="6.73628">
    <ele>357</ele>
    <name><![CDATA[Point de cheminement 3]]></name>
    <desc><![CDATA[]]></desc>
  </wpt>
  <wpt lat="47.51823" lon="6.74718">
    <ele>340</ele>
    <name><![CDATA[Point de cheminement 4]]></name>
    <desc><![CDATA[]]></desc>
  </wpt>
  <wpt lat="47.5281" lon="6.75692">
    <ele>361</ele>
    <name><![CDATA[Point de cheminement 5]]></name>
    <desc><![CDATA[]]></desc>
  </wpt>
  <wpt lat="47.53389" lon="6.75459">
    <ele>403</ele>
    <name><![CDATA[Point de cheminement 6]]></name>
    <desc><![CDATA[]]></desc>
  </wpt>
  <wpt lat="47.54414" lon="6.73498">
    <ele>399</ele>
    <name><![CDATA[Point de cheminement 7]]></name>
    <desc><![CDATA[]]></desc>
  </wpt>
  <wpt lat="47.53677" lon="6.70793">
    <ele>405</ele>
    <name><![CDATA[Point de cheminement 8]]></name>
    <desc><![CDATA[]]></desc>
  </wpt>
  <wpt lat="47.51756" lon="6.71023">
    <ele>399</ele>
    <name><![CDATA[Point de cheminement 9]]></name>
    <desc><![CDATA[]]></desc>
  </wpt>
  <wpt lat="47.50865" lon="6.73157">
    <ele>426</ele>
    <name><![CDATA[Point de cheminement 10]]></name>
    <desc><![CDATA[]]></desc>
  </wpt>
  <wpt lat="47.50196" lon="6.76009">
    <ele>372</ele>
    <name><![CDATA[Point de cheminement 11]]></name>
    <desc><![CDATA[]]></desc>
  </wpt>
  <wpt lat="47.51802" lon="6.77479">
    <ele>388</ele>
    <name><![CDATA[Point de cheminement 12]]></name>
    <desc><![CDATA[]]></desc>
  </wpt>
  <wpt lat="47.51805" lon="6.77485">
    <ele>388</ele>
    <name><![CDATA[Point de cheminement 13]]></name>
    <desc><![CDATA[]]></desc>
  </wpt>
  <trk>
    <name><![CDATA[Rue Antoine Coysevox]]></name>
    <desc><![CDATA[]]></desc>
    <trkseg>
      <trkpt lat="47.5191" lon="6.77452">
        <ele>386</ele>
        <time>2016-01-03T08:10:50.000Z</time>
      </trkpt>
      <trkpt lat="47.5191" lon="6.77452">
        <ele>386</ele>
        <time>2016-01-03T08:10:51.000Z</time>
      </trkpt>
      <trkpt lat="47.51903" lon="6.77452">
        <ele>386</ele>
        <time>2016-01-03T08:10:52.000Z</time>
      </trkpt>
      <trkpt lat="47.51893" lon="6.77448">
        <ele>386</ele>
        <time>2016-01-03T08:10:53.000Z</time>
      </trkpt>
      <trkpt lat="47.51885" lon="6.77446">
        <ele>386</ele>
        <time>2016-01-03T08:10:54.000Z</time>
      </trkpt>
      <trkpt lat="47.5188" lon="6.77445">
        <ele>386</ele>
        <time>2016-01-03T08:10:55.000Z</time>
      </trkpt>
      <trkpt lat="47.51875" lon="6.77442">
        <ele>386</ele>
        <time>2016-01-03T08:10:56.000Z</time>
      </trkpt>
      <trkpt lat="47.51871" lon="6.77442">
        <ele>386</ele>
        <time>2016-01-03T08:10:57.000Z</time>
      </trkpt>
      <trkpt lat="47.51865" lon="6.77441">
        <ele>386</ele>
        <time>2016-01-03T08:10:58.000Z</time>
      </trkpt>
      <trkpt lat="47.5186" lon="6.7744">
        <ele>386</ele>
        <time>2016-01-03T08:10:59.000Z</time>
      </trkpt>
      <trkpt lat="47.51846" lon="6.77437">
        <ele>386</ele>
        <time>2016-01-03T08:11:00.000Z</time>
      </trkpt>
      <trkpt lat="47.51844" lon="6.77436">
        <ele>386</ele>
        <time>2016-01-03T08:11:01.000Z</time>
      </trkpt>
      <trkpt lat="47.51838" lon="6.77436">
        <ele>386</ele>
        <time>2016-01-03T08:11:02.000Z</time>
      </trkpt>
      <trkpt lat="47.51834" lon="6.77436">
        <ele>386</ele>
        <time>2016-01-03T08:12:27.000Z</time>
      </trkpt>
      <trkpt lat="47.51831" lon="6.77436">
        <ele>387</ele>
        <time>2016-01-03T08:12:28.000Z</time>
      </trkpt>
      <trkpt lat="47.51829" lon="6.77436">
        <ele>387</ele>
        <time>2016-01-03T08:12:34.000Z</time>
      </trkpt>
      <trkpt lat="47.51802" lon="6.7743">
        <ele>387</ele>
        <time>2016-01-03T08:12:35.000Z</time>
      </trkpt>
      <trkpt lat="47.51799" lon="6.77433">
        <ele>387</ele>
        <time>2016-01-03T08:12:37.000Z</time>
      </trkpt>
      <trkpt lat="47.51798" lon="6.77434">
        <ele>387</ele>
        <time>2016-01-03T08:12:38.000Z</time>
      </trkpt>
      <trkpt lat="47.51799" lon="6.7744">
        <ele>387</ele>
        <time>2016-01-03T08:13:40.000Z</time>
      </trkpt>
      <trkpt lat="47.51799" lon="6.7744">
        <ele>387</ele>
        <time>2016-01-03T08:13:41.000Z</time>
      </trkpt>
      <trkpt lat="47.518" lon="6.77441">
        <ele>387</ele>
        <time>2016-01-03T08:13:50.000Z</time>
      </trkpt>
      <trkpt lat="47.51802" lon="6.77446">
        <ele>387</ele>
        <time>2016-01-03T08:13:51.000Z</time>
      </trkpt>
      <trkpt lat="47.51803" lon="6.77452">
        <ele>388</ele>
        <time>2016-01-03T08:13:56.000Z</time>
      </trkpt>
      <trkpt lat="47.51803" lon="6.77453">
        <ele>388</ele>
        <time>2016-01-03T08:13:57.000Z</time>
      </trkpt>
      <trkpt lat="47.51805" lon="6.77453">
        <ele>388</ele>
        <time>2016-01-03T08:17:10.000Z</time>
      </trkpt>
      <trkpt lat="47.51807" lon="6.77458">
        <ele>388</ele>
        <time>2016-01-03T08:17:11.000Z</time>
      </trkpt>
      <trkpt lat="47.51811" lon="6.77458">
        <ele>387</ele>
        <time>2016-01-03T08:17:13.000Z</time>
      </trkpt>
      <trkpt lat="47.51812" lon="6.77459">
        <ele>387</ele>
        <time>2016-01-03T08:17:14.000Z</time>
      </trkpt>
      <trkpt lat="47.51813" lon="6.77463">
        <ele>387</ele>
        <time>2016-01-03T08:17:15.000Z</time>
      </trkpt>
      <trkpt lat="47.51814" lon="6.77467">
        <ele>388</ele>
        <time>2016-01-03T08:17:16.000Z</time>
      </trkpt>
      <trkpt lat="47.51813" lon="6.77471">
        <ele>388</ele>
        <time>2016-01-03T08:17:17.000Z</time>
      </trkpt>
      <trkpt lat="47.51812" lon="6.77475">
        <ele>388</ele>
        <time>2016-01-03T08:17:18.000Z</time>
      </trkpt>
      <trkpt lat="47.51807" lon="6.77479">
        <ele>388</ele>
        <time>2016-01-03T08:17:20.000Z</time>
      </trkpt>
      <trkpt lat="47.51805" lon="6.7748">
        <ele>388</ele>
        <time>2016-01-03T08:17:21.000Z</time>
      </trkpt>
      <trkpt lat="47.51802" lon="6.7748">
        <ele>388</ele>
        <time>2016-01-03T08:17:22.000Z</time>
      </trkpt>
      <trkpt lat="47.51799" lon="6.7748">
        <ele>388</ele>
        <time>2016-01-03T08:17:23.000Z</time>
      </trkpt>
      <trkpt lat="47.51796" lon="6.77479">
        <ele>388</ele>
        <time>2016-01-03T08:17:24.000Z</time>
      </trkpt>
      <trkpt lat="47.51794" lon="6.77478">
        <ele>388</ele>
        <time>2016-01-03T08:17:25.000Z</time>
      </trkpt>
      <trkpt lat="47.51791" lon="6.77477">
        <ele>388</ele>
        <time>2016-01-03T08:17:26.000Z</time>
      </trkpt>
      <trkpt lat="47.51789" lon="6.77476">
        <ele>388</ele>
        <time>2016-01-03T08:17:27.000Z</time>
      </trkpt>
      <trkpt lat="47.51787" lon="6.77475">
        <ele>388</ele>
        <time>2016-01-03T08:17:28.000Z</time>
      </trkpt>
      <trkpt lat="47.51784" lon="6.77474">
        <ele>388</ele>
        <time>2016-01-03T08:17:29.000Z</time>
      </trkpt>
      <trkpt lat="47.51781" lon="6.77474">
        <ele>388</ele>
        <time>2016-01-03T08:17:30.000Z</time>
      </trkpt>
      <trkpt lat="47.51778" lon="6.77473">
        <ele>388</ele>
        <time>2016-01-03T08:17:31.000Z</time>
      </trkpt>
      <trkpt lat="47.51774" lon="6.77473">
        <ele>388</ele>
        <time>2016-01-03T08:17:32.000Z</time>
      </trkpt>
      <trkpt lat="47.51771" lon="6.77473">
        <ele>388</ele>
        <time>2016-01-03T08:17:33.000Z</time>
      </trkpt>
      <trkpt lat="47.51767" lon="6.77473">
        <ele>388</ele>
        <time>2016-01-03T08:17:34.000Z</time>
      </trkpt>
      <trkpt lat="47.51764" lon="6.77472">
        <ele>388</ele>
        <time>2016-01-03T08:17:35.000Z</time>
      </trkpt>
      <trkpt lat="47.51761" lon="6.77472">
        <ele>388</ele>
        <time>2016-01-03T08:17:36.000Z</time>
      </trkpt>
      <trkpt lat="47.51758" lon="6.77471">
        <ele>388</ele>
        <time>2016-01-03T08:17:37.000Z</time>
      </trkpt>
      <trkpt lat="47.51755" lon="6.77471">
        <ele>388</ele>
        <time>2016-01-03T08:17:38.000Z</time>
      </trkpt>
      <trkpt lat="47.51752" lon="6.77471">
        <ele>388</ele>
        <time>2016-01-03T08:17:39.000Z</time>
      </trkpt>
      <trkpt lat="47.51749" lon="6.7747">
        <ele>389</ele>
        <time>2016-01-03T08:17:40.000Z</time>
      </trkpt>
      <trkpt lat="47.51746" lon="6.7747">
        <ele>389</ele>
        <time>2016-01-03T08:17:41.000Z</time>
      </trkpt>
      <trkpt lat="47.51743" lon="6.77469">
        <ele>389</ele>
        <time>2016-01-03T08:17:42.000Z</time>
      </trkpt>
      <trkpt lat="47.51741" lon="6.7747">
        <ele>389</ele>
        <time>2016-01-03T08:17:43.000Z</time>
      </trkpt>
      <trkpt lat="47.51738" lon="6.7747">
        <ele>389</ele>
        <time>2016-01-03T08:17:44.000Z</time>
      </trkpt>
      <trkpt lat="47.51736" lon="6.77472">
        <ele>389</ele>
        <time>2016-01-03T08:17:45.000Z</time>
      </trkpt>
      <trkpt lat="47.51733" lon="6.77476">
        <ele>389</ele>
        <time>2016-01-03T08:17:46.000Z</time>
      </trkpt>
      <trkpt lat="47.51731" lon="6.7748">
        <ele>389</ele>
        <time>2016-01-03T08:17:47.000Z</time>
      </trkpt>
      <trkpt lat="47.51728" lon="6.77485">
        <ele>389</ele>
        <time>2016-01-03T08:17:48.000Z</time>
      </trkpt>
      <trkpt lat="47.51727" lon="6.77491">
        <ele>389</ele>
        <time>2016-01-03T08:17:49.000Z</time>
      </trkpt>
      <trkpt lat="47.51726" lon="6.77496">
        <ele>389</ele>
        <time>2016-01-03T08:17:50.000Z</time>
      </trkpt>
      <trkpt lat="47.51725" lon="6.77502">
        <ele>390</ele>
        <time>2016-01-03T08:17:51.000Z</time>
      </trkpt>
      <trkpt lat="47.51725" lon="6.77508">
        <ele>390</ele>
        <time>2016-01-03T08:17:52.000Z</time>
      </trkpt>
      <trkpt lat="47.51724" lon="6.77514">
        <ele>390</ele>
        <time>2016-01-03T08:17:53.000Z</time>
      </trkpt>
      <trkpt lat="47.51724" lon="6.77519">
        <ele>390</ele>
        <time>2016-01-03T08:17:54.000Z</time>
      </trkpt>
      <trkpt lat="47.51723" lon="6.77525">
        <ele>390</ele>
        <time>2016-01-03T08:17:55.000Z</time>
      </trkpt>
      <trkpt lat="47.51722" lon="6.7753">
        <ele>390</ele>
        <time>2016-01-03T08:17:56.000Z</time>
      </trkpt>
      <trkpt lat="47.51721" lon="6.77536">
        <ele>390</ele>
        <time>2016-01-03T08:17:57.000Z</time>
      </trkpt>
      <trkpt lat="47.5172" lon="6.7754">
        <ele>390</ele>
        <time>2016-01-03T08:17:58.000Z</time>
      </trkpt>
      <trkpt lat="47.51718" lon="6.77544">
        <ele>390</ele>
        <time>2016-01-03T08:17:59.000Z</time>
      </trkpt>
      <trkpt lat="47.51716" lon="6.77547">
        <ele>390</ele>
        <time>2016-01-03T08:18:00.000Z</time>
      </trkpt>
      <trkpt lat="47.51713" lon="6.77548">
        <ele>390</ele>
        <time>2016-01-03T08:18:01.000Z</time>
      </trkpt>
      <trkpt lat="47.51709" lon="6.77547">
        <ele>390</ele>
        <time>2016-01-03T08:18:02.000Z</time>
      </trkpt>
      <trkpt lat="47.51705" lon="6.77545">
        <ele>390</ele>
        <time>2016-01-03T08:18:03.000Z</time>
      </trkpt>
      <trkpt lat="47.51701" lon="6.77541">
        <ele>390</ele>
        <time>2016-01-03T08:18:04.000Z</time>
      </trkpt>
      <trkpt lat="47.51697" lon="6.77537">
        <ele>390</ele>
        <time>2016-01-03T08:18:05.000Z</time>
      </trkpt>
      <trkpt lat="47.51693" lon="6.77533">
        <ele>390</ele>
        <time>2016-01-03T08:18:06.000Z</time>
      </trkpt>
      <trkpt lat="47.51689" lon="6.77523">
        <ele>390</ele>
        <time>2016-01-03T08:18:07.000Z</time>
      </trkpt>
      <trkpt lat="47.51685" lon="6.77519">
        <ele>390</ele>
        <time>2016-01-03T08:18:08.000Z</time>
      </trkpt>
      <trkpt lat="47.51681" lon="6.77515">
        <ele>390</ele>
        <time>2016-01-03T08:18:09.000Z</time>
      </trkpt>
      <trkpt lat="47.51678" lon="6.7751">
        <ele>389</ele>
        <time>2016-01-03T08:18:10.000Z</time>
      </trkpt>
      <trkpt lat="47.51674" lon="6.77505">
        <ele>389</ele>
        <time>2016-01-03T08:18:11.000Z</time>
      </trkpt>
      <trkpt lat="47.5167" lon="6.77501">
        <ele>389</ele>
        <time>2016-01-03T08:18:12.000Z</time>
      </trkpt>
      <trkpt lat="47.51666" lon="6.77496">
        <ele>389</ele>
        <time>2016-01-03T08:18:13.000Z</time>
      </trkpt>
      <trkpt lat="47.51662" lon="6.77492">
        <ele>388</ele>
        <time>2016-01-03T08:18:14.000Z</time>
      </trkpt>
      <trkpt lat="47.51658" lon="6.77487">
        <ele>387</ele>
        <time>2016-01-03T08:18:15.000Z</time>
      </trkpt>
      <trkpt lat="47.51654" lon="6.77482">
        <ele>387</ele>
        <time>2016-01-03T08:18:16.000Z</time>
      </trkpt>
      <trkpt lat="47.5165" lon="6.77477">
        <ele>387</ele>
        <time>2016-01-03T08:18:17.000Z</time>
      </trkpt>
      <trkpt lat="47.51647" lon="6.77471">
        <ele>386</ele>
        <time>2016-01-03T08:18:18.000Z</time>
      </trkpt>
      <trkpt lat="47.51643" lon="6.77466">
        <ele>386</ele>
        <time>2016-01-03T08:18:19.000Z</time>
      </trkpt>
      <trkpt lat="47.51639" lon="6.77461">
        <ele>386</ele>
        <time>2016-01-03T08:18:20.000Z</time>
      </trkpt>
      <trkpt lat="47.51635" lon="6.77456">
        <ele>386</ele>
        <time>2016-01-03T08:18:21.000Z</time>
      </trkpt>
      <trkpt lat="47.51631" lon="6.77451">
        <ele>386</ele>
        <time>2016-01-03T08:18:22.000Z</time>
      </trkpt>
      <trkpt lat="47.51627" lon="6.77446">
        <ele>386</ele>
        <time>2016-01-03T08:18:23.000Z</time>
      </trkpt>
      <trkpt lat="47.51623" lon="6.77441">
        <ele>385</ele>
        <time>2016-01-03T08:18:24.000Z</time>
      </trkpt>
      <trkpt lat="47.51618" lon="6.77437">
        <ele>385</ele>
        <time>2016-01-03T08:18:25.000Z</time>
      </trkpt>
      <trkpt lat="47.51614" lon="6.77432">
        <ele>385</ele>
        <time>2016-01-03T08:18:26.000Z</time>
      </trkpt>
      <trkpt lat="47.5161" lon="6.77427">
        <ele>385</ele>
        <time>2016-01-03T08:18:27.000Z</time>
      </trkpt>
      <trkpt lat="47.51605" lon="6.77422">
        <ele>385</ele>
        <time>2016-01-03T08:18:28.000Z</time>
      </trkpt>
      <trkpt lat="47.51601" lon="6.77416">
        <ele>383</ele>
        <time>2016-01-03T08:18:29.000Z</time>
      </trkpt>
      <trkpt lat="47.51597" lon="6.77409">
        <ele>383</ele>
        <time>2016-01-03T08:18:30.000Z</time>
      </trkpt>
      <trkpt lat="47.51592" lon="6.77403">
        <ele>383</ele>
        <time>2016-01-03T08:18:31.000Z</time>
      </trkpt>
      <trkpt lat="47.51587" lon="6.77398">
        <ele>383</ele>
        <time>2016-01-03T08:18:32.000Z</time>
      </trkpt>
      <trkpt lat="47.51583" lon="6.77392">
        <ele>382</ele>
        <time>2016-01-03T08:18:33.000Z</time>
      </trkpt>
      <trkpt lat="47.51578" lon="6.77387">
        <ele>381</ele>
        <time>2016-01-03T08:18:34.000Z</time>
      </trkpt>
      <trkpt lat="47.51573" lon="6.77382">
        <ele>381</ele>
        <time>2016-01-03T08:18:35.000Z</time>
      </trkpt>
      <trkpt lat="47.51569" lon="6.77376">
        <ele>381</ele>
        <time>2016-01-03T08:18:36.000Z</time>
      </trkpt>
      <trkpt lat="47.51564" lon="6.77371">
        <ele>381</ele>
        <time>2016-01-03T08:18:37.000Z</time>
      </trkpt>
      <trkpt lat="47.51558" lon="6.77365">
        <ele>381</ele>
        <time>2016-01-03T08:18:38.000Z</time>
      </trkpt>
      <trkpt lat="47.51552" lon="6.77359">
        <ele>381</ele>
        <time>2016-01-03T08:18:39.000Z</time>
      </trkpt>
      <trkpt lat="47.51546" lon="6.77352">
        <ele>380</ele>
        <time>2016-01-03T08:18:40.000Z</time>
      </trkpt>
      <trkpt lat="47.51541" lon="6.77346">
        <ele>380</ele>
        <time>2016-01-03T08:18:41.000Z</time>
      </trkpt>
      <trkpt lat="47.5153" lon="6.7734">
        <ele>380</ele>
        <time>2016-01-03T08:18:42.000Z</time>
      </trkpt>
      <trkpt lat="47.51519" lon="6.77334">
        <ele>379</ele>
        <time>2016-01-03T08:18:43.000Z</time>
      </trkpt>
      <trkpt lat="47.51517" lon="6.77327">
        <ele>378</ele>
        <time>2016-01-03T08:18:44.000Z</time>
      </trkpt>
      <trkpt lat="47.5151" lon="6.77319">
        <ele>378</ele>
        <time>2016-01-03T08:18:45.000Z</time>
      </trkpt>
      <trkpt lat="47.51504" lon="6.77311">
        <ele>378</ele>
        <time>2016-01-03T08:18:46.000Z</time>
      </trkpt>
      <trkpt lat="47.51498" lon="6.77301">
        <ele>377</ele>
        <time>2016-01-03T08:18:47.000Z</time>
      </trkpt>
      <trkpt lat="47.51493" lon="6.7729">
        <ele>377</ele>
        <time>2016-01-03T08:18:48.000Z</time>
      </trkpt>
      <trkpt lat="47.51491" lon="6.77279">
        <ele>377</ele>
        <time>2016-01-03T08:18:49.000Z</time>
      </trkpt>
      <trkpt lat="47.51489" lon="6.77267">
        <ele>376</ele>
        <time>2016-01-03T08:18:50.000Z</time>
      </trkpt>
      <trkpt lat="47.51488" lon="6.77255">
        <ele>376</ele>
        <time>2016-01-03T08:18:51.000Z</time>
      </trkpt>
      <trkpt lat="47.51486" lon="6.77244">
        <ele>376</ele>
        <time>2016-01-03T08:18:52.000Z</time>
      </trkpt>
      <trkpt lat="47.51486" lon="6.77233">
        <ele>375</ele>
        <time>2016-01-03T08:18:53.000Z</time>
      </trkpt>
      <trkpt lat="47.51486" lon="6.77222">
        <ele>375</ele>
        <time>2016-01-03T08:18:54.000Z</time>
      </trkpt>
      <trkpt lat="47.51485" lon="6.77211">
        <ele>375</ele>
        <time>2016-01-03T08:18:55.000Z</time>
      </trkpt>
      <trkpt lat="47.51482" lon="6.77203">
        <ele>375</ele>
        <time>2016-01-03T08:18:56.000Z</time>
      </trkpt>
      <trkpt lat="47.51478" lon="6.772">
        <ele>375</ele>
        <time>2016-01-03T08:18:57.000Z</time>
      </trkpt>
      <trkpt lat="47.51473" lon="6.77197">
        <ele>375</ele>
        <time>2016-01-03T08:18:58.000Z</time>
      </trkpt>
      <trkpt lat="47.51466" lon="6.772">
        <ele>375</ele>
        <time>2016-01-03T08:18:59.000Z</time>
      </trkpt>
      <trkpt lat="47.5146" lon="6.77203">
        <ele>375</ele>
        <time>2016-01-03T08:19:00.000Z</time>
      </trkpt>
      <trkpt lat="47.51453" lon="6.77206">
        <ele>375</ele>
        <time>2016-01-03T08:19:01.000Z</time>
      </trkpt>
      <trkpt lat="47.51447" lon="6.77208">
        <ele>375</ele>
        <time>2016-01-03T08:19:02.000Z</time>
      </trkpt>
      <trkpt lat="47.51442" lon="6.77211">
        <ele>375</ele>
        <time>2016-01-03T08:19:03.000Z</time>
      </trkpt>
      <trkpt lat="47.51436" lon="6.77214">
        <ele>375</ele>
        <time>2016-01-03T08:19:04.000Z</time>
      </trkpt>
      <trkpt lat="47.51431" lon="6.77217">
        <ele>375</ele>
        <time>2016-01-03T08:19:05.000Z</time>
      </trkpt>
      <trkpt lat="47.51426" lon="6.7722">
        <ele>375</ele>
        <time>2016-01-03T08:19:06.000Z</time>
      </trkpt>
      <trkpt lat="47.51421" lon="6.77222">
        <ele>375</ele>
        <time>2016-01-03T08:19:07.000Z</time>
      </trkpt>
      <trkpt lat="47.51418" lon="6.77223">
        <ele>375</ele>
        <time>2016-01-03T08:19:08.000Z</time>
      </trkpt>
      <trkpt lat="47.51414" lon="6.77224">
        <ele>376</ele>
        <time>2016-01-03T08:19:09.000Z</time>
      </trkpt>
      <trkpt lat="47.51412" lon="6.77225">
        <ele>376</ele>
        <time>2016-01-03T08:19:10.000Z</time>
      </trkpt>
      <trkpt lat="47.51409" lon="6.77226">
        <ele>376</ele>
        <time>2016-01-03T08:19:11.000Z</time>
      </trkpt>
      <trkpt lat="47.51407" lon="6.77228">
        <ele>376</ele>
        <time>2016-01-03T08:19:12.000Z</time>
      </trkpt>
      <trkpt lat="47.51405" lon="6.77229">
        <ele>376</ele>
        <time>2016-01-03T08:19:13.000Z</time>
      </trkpt>
      <trkpt lat="47.51402" lon="6.77231">
        <ele>376</ele>
        <time>2016-01-03T08:19:14.000Z</time>
      </trkpt>
      <trkpt lat="47.514" lon="6.77233">
        <ele>376</ele>
        <time>2016-01-03T08:19:15.000Z</time>
      </trkpt>
      <trkpt lat="47.51396" lon="6.77234">
        <ele>376</ele>
        <time>2016-01-03T08:19:16.000Z</time>
      </trkpt>
      <trkpt lat="47.51394" lon="6.77236">
        <ele>376</ele>
        <time>2016-01-03T08:19:17.000Z</time>
      </trkpt>
      <trkpt lat="47.51391" lon="6.77238">
        <ele>376</ele>
        <time>2016-01-03T08:19:18.000Z</time>
      </trkpt>
      <trkpt lat="47.51388" lon="6.77239">
        <ele>376</ele>
        <time>2016-01-03T08:19:19.000Z</time>
      </trkpt>
      <trkpt lat="47.51385" lon="6.77241">
        <ele>376</ele>
        <time>2016-01-03T08:19:20.000Z</time>
      </trkpt>
      <trkpt lat="47.51383" lon="6.77243">
        <ele>376</ele>
        <time>2016-01-03T08:19:21.000Z</time>
      </trkpt>
      <trkpt lat="47.5138" lon="6.77245">
        <ele>376</ele>
        <time>2016-01-03T08:19:22.000Z</time>
      </trkpt>
      <trkpt lat="47.51377" lon="6.77246">
        <ele>376</ele>
        <time>2016-01-03T08:19:23.000Z</time>
      </trkpt>
      <trkpt lat="47.51374" lon="6.77248">
        <ele>376</ele>
        <time>2016-01-03T08:19:24.000Z</time>
      </trkpt>
      <trkpt lat="47.51372" lon="6.77249">
        <ele>376</ele>
        <time>2016-01-03T08:19:25.000Z</time>
      </trkpt>
      <trkpt lat="47.5137" lon="6.77251">
        <ele>377</ele>
        <time>2016-01-03T08:19:26.000Z</time>
      </trkpt>
      <trkpt lat="47.51368" lon="6.77253">
        <ele>378</ele>
        <time>2016-01-03T08:19:27.000Z</time>
      </trkpt>
      <trkpt lat="47.51366" lon="6.77255">
        <ele>378</ele>
        <time>2016-01-03T08:19:28.000Z</time>
      </trkpt>
      <trkpt lat="47.51364" lon="6.77257">
        <ele>378</ele>
        <time>2016-01-03T08:19:29.000Z</time>
      </trkpt>
      <trkpt lat="47.51362" lon="6.77258">
        <ele>378</ele>
        <time>2016-01-03T08:19:30.000Z</time>
      </trkpt>
      <trkpt lat="47.5136" lon="6.7726">
        <ele>378</ele>
        <time>2016-01-03T08:19:31.000Z</time>
      </trkpt>
      <trkpt lat="47.51357" lon="6.77262">
        <ele>378</ele>
        <time>2016-01-03T08:19:32.000Z</time>
      </trkpt>
      <trkpt lat="47.51356" lon="6.77264">
        <ele>378</ele>
        <time>2016-01-03T08:19:33.000Z</time>
      </trkpt>
      <trkpt lat="47.51352" lon="6.77267">
        <ele>378</ele>
        <time>2016-01-03T08:19:35.000Z</time>
      </trkpt>
      <trkpt lat="47.5135" lon="6.77268">
        <ele>378</ele>
        <time>2016-01-03T08:19:36.000Z</time>
      </trkpt>
      <trkpt lat="47.51347" lon="6.77272">
        <ele>378</ele>
        <time>2016-01-03T08:19:38.000Z</time>
      </trkpt>
      <trkpt lat="47.51345" lon="6.77274">
        <ele>378</ele>
        <time>2016-01-03T08:19:39.000Z</time>
      </trkpt>
      <trkpt lat="47.51343" lon="6.77276">
        <ele>378</ele>
        <time>2016-01-03T08:19:40.000Z</time>
      </trkpt>
      <trkpt lat="47.51341" lon="6.77278">
        <ele>378</ele>
        <time>2016-01-03T08:19:41.000Z</time>
      </trkpt>
      <trkpt lat="47.51338" lon="6.77279">
        <ele>378</ele>
        <time>2016-01-03T08:19:42.000Z</time>
      </trkpt>
      <trkpt lat="47.51336" lon="6.7728">
        <ele>378</ele>
        <time>2016-01-03T08:19:43.000Z</time>
      </trkpt>
      <trkpt lat="47.51333" lon="6.7728">
        <ele>377</ele>
        <time>2016-01-03T08:19:44.000Z</time>
      </trkpt>
      <trkpt lat="47.51331" lon="6.7728">
        <ele>377</ele>
        <time>2016-01-03T08:19:45.000Z</time>
      </trkpt>
      <trkpt lat="47.51328" lon="6.7728">
        <ele>377</ele>
        <time>2016-01-03T08:19:46.000Z</time>
      </trkpt>
      <trkpt lat="47.51326" lon="6.7728">
        <ele>377</ele>
        <time>2016-01-03T08:19:47.000Z</time>
      </trkpt>
      <trkpt lat="47.51323" lon="6.77279">
        <ele>377</ele>
        <time>2016-01-03T08:19:48.000Z</time>
      </trkpt>
      <trkpt lat="47.5132" lon="6.77278">
        <ele>377</ele>
        <time>2016-01-03T08:19:49.000Z</time>
      </trkpt>
      <trkpt lat="47.51318" lon="6.77278">
        <ele>377</ele>
        <time>2016-01-03T08:19:50.000Z</time>
      </trkpt>
      <trkpt lat="47.51315" lon="6.77277">
        <ele>377</ele>
        <time>2016-01-03T08:19:51.000Z</time>
      </trkpt>
      <trkpt lat="47.51312" lon="6.77276">
        <ele>377</ele>
        <time>2016-01-03T08:19:52.000Z</time>
      </trkpt>
      <trkpt lat="47.5131" lon="6.77275">
        <ele>377</ele>
        <time>2016-01-03T08:19:53.000Z</time>
      </trkpt>
      <trkpt lat="47.51307" lon="6.77274">
        <ele>377</ele>
        <time>2016-01-03T08:19:54.000Z</time>
      </trkpt>
      <trkpt lat="47.51304" lon="6.77273">
        <ele>377</ele>
        <time>2016-01-03T08:19:55.000Z</time>
      </trkpt>
      <trkpt lat="47.51301" lon="6.77272">
        <ele>377</ele>
        <time>2016-01-03T08:19:56.000Z</time>
      </trkpt>
      <trkpt lat="47.51298" lon="6.77271">
        <ele>377</ele>
        <time>2016-01-03T08:19:57.000Z</time>
      </trkpt>
      <trkpt lat="47.51295" lon="6.7727">
        <ele>377</ele>
        <time>2016-01-03T08:19:58.000Z</time>
      </trkpt>
      <trkpt lat="47.51292" lon="6.77268">
        <ele>377</ele>
        <time>2016-01-03T08:19:59.000Z</time>
      </trkpt>
      <trkpt lat="47.51289" lon="6.77267">
        <ele>377</ele>
        <time>2016-01-03T08:20:00.000Z</time>
      </trkpt>
      <trkpt lat="47.51286" lon="6.77265">
        <ele>377</ele>
        <time>2016-01-03T08:20:01.000Z</time>
      </trkpt>
      <trkpt lat="47.51283" lon="6.77263">
        <ele>377</ele>
        <time>2016-01-03T08:20:02.000Z</time>
      </trkpt>
      <trkpt lat="47.51281" lon="6.77261">
        <ele>377</ele>
        <time>2016-01-03T08:20:03.000Z</time>
      </trkpt>
      <trkpt lat="47.51278" lon="6.77259">
        <ele>377</ele>
        <time>2016-01-03T08:20:04.000Z</time>
      </trkpt>
      <trkpt lat="47.51275" lon="6.77257">
        <ele>377</ele>
        <time>2016-01-03T08:20:05.000Z</time>
      </trkpt>
      <trkpt lat="47.51271" lon="6.77255">
        <ele>378</ele>
        <time>2016-01-03T08:20:06.000Z</time>
      </trkpt>
      <trkpt lat="47.51268" lon="6.77252">
        <ele>378</ele>
        <time>2016-01-03T08:20:07.000Z</time>
      </trkpt>
      <trkpt lat="47.51265" lon="6.77249">
        <ele>378</ele>
        <time>2016-01-03T08:20:08.000Z</time>
      </trkpt>
      <trkpt lat="47.51263" lon="6.77246">
        <ele>378</ele>
        <time>2016-01-03T08:20:09.000Z</time>
      </trkpt>
      <trkpt lat="47.5126" lon="6.77242">
        <ele>378</ele>
        <time>2016-01-03T08:20:10.000Z</time>
      </trkpt>
      <trkpt lat="47.51257" lon="6.77239">
        <ele>378</ele>
        <time>2016-01-03T08:20:11.000Z</time>
      </trkpt>
      <trkpt lat="47.51255" lon="6.77236">
        <ele>378</ele>
        <time>2016-01-03T08:20:12.000Z</time>
      </trkpt>
      <trkpt lat="47.51252" lon="6.77231">
        <ele>378</ele>
        <time>2016-01-03T08:20:13.000Z</time>
      </trkpt>
      <trkpt lat="47.5125" lon="6.77226">
        <ele>377</ele>
        <time>2016-01-03T08:20:14.000Z</time>
      </trkpt>
      <trkpt lat="47.51247" lon="6.77221">
        <ele>376</ele>
        <time>2016-01-03T08:20:15.000Z</time>
      </trkpt>
      <trkpt lat="47.51245" lon="6.77215">
        <ele>376</ele>
        <time>2016-01-03T08:20:16.000Z</time>
      </trkpt>
      <trkpt lat="47.51243" lon="6.7721">
        <ele>376</ele>
        <time>2016-01-03T08:20:17.000Z</time>
      </trkpt>
      <trkpt lat="47.5124" lon="6.77205">
        <ele>376</ele>
        <time>2016-01-03T08:20:18.000Z</time>
      </trkpt>
      <trkpt lat="47.51236" lon="6.77199">
        <ele>376</ele>
        <time>2016-01-03T08:20:19.000Z</time>
      </trkpt>
      <trkpt lat="47.51233" lon="6.77193">
        <ele>376</ele>
        <time>2016-01-03T08:20:20.000Z</time>
      </trkpt>
      <trkpt lat="47.51231" lon="6.77188">
        <ele>376</ele>
        <time>2016-01-03T08:20:21.000Z</time>
      </trkpt>
      <trkpt lat="47.51228" lon="6.77182">
        <ele>377</ele>
        <time>2016-01-03T08:20:22.000Z</time>
      </trkpt>
      <trkpt lat="47.51225" lon="6.77177">
        <ele>377</ele>
        <time>2016-01-03T08:20:23.000Z</time>
      </trkpt>
      <trkpt lat="47.51222" lon="6.77171">
        <ele>377</ele>
        <time>2016-01-03T08:20:24.000Z</time>
      </trkpt>
      <trkpt lat="47.5122" lon="6.77165">
        <ele>378</ele>
        <time>2016-01-03T08:20:25.000Z</time>
      </trkpt>
      <trkpt lat="47.51216" lon="6.77158">
        <ele>378</ele>
        <time>2016-01-03T08:20:26.000Z</time>
      </trkpt>
      <trkpt lat="47.51213" lon="6.77152">
        <ele>378</ele>
        <time>2016-01-03T08:20:27.000Z</time>
      </trkpt>
      <trkpt lat="47.51209" lon="6.77146">
        <ele>378</ele>
        <time>2016-01-03T08:20:28.000Z</time>
      </trkpt>
      <trkpt lat="47.51205" lon="6.77139">
        <ele>378</ele>
        <time>2016-01-03T08:20:29.000Z</time>
      </trkpt>
      <trkpt lat="47.51202" lon="6.77131">
        <ele>378</ele>
        <time>2016-01-03T08:20:30.000Z</time>
      </trkpt>
      <trkpt lat="47.51198" lon="6.77123">
        <ele>378</ele>
        <time>2016-01-03T08:20:31.000Z</time>
      </trkpt>
      <trkpt lat="47.51194" lon="6.77115">
        <ele>378</ele>
        <time>2016-01-03T08:20:32.000Z</time>
      </trkpt>
      <trkpt lat="47.5119" lon="6.77108">
        <ele>378</ele>
        <time>2016-01-03T08:20:33.000Z</time>
      </trkpt>
      <trkpt lat="47.51185" lon="6.771">
        <ele>378</ele>
        <time>2016-01-03T08:20:34.000Z</time>
      </trkpt>
      <trkpt lat="47.51181" lon="6.77091">
        <ele>378</ele>
        <time>2016-01-03T08:20:35.000Z</time>
      </trkpt>
      <trkpt lat="47.51176" lon="6.77083">
        <ele>377</ele>
        <time>2016-01-03T08:20:36.000Z</time>
      </trkpt>
      <trkpt lat="47.51171" lon="6.77076">
        <ele>377</ele>
        <time>2016-01-03T08:20:37.000Z</time>
      </trkpt>
      <trkpt lat="47.51166" lon="6.77068">
        <ele>377</ele>
        <time>2016-01-03T08:20:38.000Z</time>
      </trkpt>
      <trkpt lat="47.5116" lon="6.77062">
        <ele>376</ele>
        <time>2016-01-03T08:20:39.000Z</time>
      </trkpt>
      <trkpt lat="47.51154" lon="6.77056">
        <ele>376</ele>
        <time>2016-01-03T08:20:40.000Z</time>
      </trkpt>
      <trkpt lat="47.51149" lon="6.7705">
        <ele>376</ele>
        <time>2016-01-03T08:20:41.000Z</time>
      </trkpt>
      <trkpt lat="47.51143" lon="6.77044">
        <ele>376</ele>
        <time>2016-01-03T08:20:42.000Z</time>
      </trkpt>
      <trkpt lat="47.51137" lon="6.77039">
        <ele>375</ele>
        <time>2016-01-03T08:20:43.000Z</time>
      </trkpt>
      <trkpt lat="47.51131" lon="6.77034">
        <ele>375</ele>
        <time>2016-01-03T08:20:44.000Z</time>
      </trkpt>
      <trkpt lat="47.51125" lon="6.77028">
        <ele>375</ele>
        <time>2016-01-03T08:20:45.000Z</time>
      </trkpt>
      <trkpt lat="47.5112" lon="6.77023">
        <ele>375</ele>
        <time>2016-01-03T08:20:46.000Z</time>
      </trkpt>
      <trkpt lat="47.51114" lon="6.77018">
        <ele>375</ele>
        <time>2016-01-03T08:20:47.000Z</time>
      </trkpt>
      <trkpt lat="47.51107" lon="6.77013">
        <ele>375</ele>
        <time>2016-01-03T08:20:48.000Z</time>
      </trkpt>
      <trkpt lat="47.51101" lon="6.77009">
        <ele>375</ele>
        <time>2016-01-03T08:20:49.000Z</time>
      </trkpt>
      <trkpt lat="47.51094" lon="6.77006">
        <ele>375</ele>
        <time>2016-01-03T08:20:50.000Z</time>
      </trkpt>
      <trkpt lat="47.51087" lon="6.77002">
        <ele>375</ele>
        <time>2016-01-03T08:20:51.000Z</time>
      </trkpt>
      <trkpt lat="47.51081" lon="6.77001">
        <ele>375</ele>
        <time>2016-01-03T08:20:52.000Z</time>
      </trkpt>
      <trkpt lat="47.51076" lon="6.76997">
        <ele>375</ele>
        <time>2016-01-03T08:20:53.000Z</time>
      </trkpt>
      <trkpt lat="47.51069" lon="6.76992">
        <ele>375</ele>
        <time>2016-01-03T08:20:54.000Z</time>
      </trkpt>
      <trkpt lat="47.51064" lon="6.76988">
        <ele>375</ele>
        <time>2016-01-03T08:20:55.000Z</time>
      </trkpt>
      <trkpt lat="47.51057" lon="6.76984">
        <ele>375</ele>
        <time>2016-01-03T08:20:56.000Z</time>
      </trkpt>
      <trkpt lat="47.5105" lon="6.7698">
        <ele>375</ele>
        <time>2016-01-03T08:20:57.000Z</time>
      </trkpt>
      <trkpt lat="47.51044" lon="6.76975">
        <ele>375</ele>
        <time>2016-01-03T08:20:58.000Z</time>
      </trkpt>
      <trkpt lat="47.51038" lon="6.76969">
        <ele>375</ele>
        <time>2016-01-03T08:20:59.000Z</time>
      </trkpt>
      <trkpt lat="47.51032" lon="6.76963">
        <ele>375</ele>
        <time>2016-01-03T08:21:00.000Z</time>
      </trkpt>
      <trkpt lat="47.51027" lon="6.76959">
        <ele>375</ele>
        <time>2016-01-03T08:21:01.000Z</time>
      </trkpt>
      <trkpt lat="47.51022" lon="6.76955">
        <ele>375</ele>
        <time>2016-01-03T08:21:02.000Z</time>
      </trkpt>
      <trkpt lat="47.51017" lon="6.76951">
        <ele>375</ele>
        <time>2016-01-03T08:21:03.000Z</time>
      </trkpt>
      <trkpt lat="47.51012" lon="6.76947">
        <ele>375</ele>
        <time>2016-01-03T08:21:04.000Z</time>
      </trkpt>
      <trkpt lat="47.51007" lon="6.76944">
        <ele>375</ele>
        <time>2016-01-03T08:21:05.000Z</time>
      </trkpt>
      <trkpt lat="47.51003" lon="6.76941">
        <ele>375</ele>
        <time>2016-01-03T08:21:06.000Z</time>
      </trkpt>
      <trkpt lat="47.50998" lon="6.76938">
        <ele>374</ele>
        <time>2016-01-03T08:21:07.000Z</time>
      </trkpt>
      <trkpt lat="47.50994" lon="6.76933">
        <ele>375</ele>
        <time>2016-01-03T08:21:08.000Z</time>
      </trkpt>
      <trkpt lat="47.50992" lon="6.76926">
        <ele>375</ele>
        <time>2016-01-03T08:21:09.000Z</time>
      </trkpt>
      <trkpt lat="47.50991" lon="6.76918">
        <ele>375</ele>
        <time>2016-01-03T08:21:10.000Z</time>
      </trkpt>
      <trkpt lat="47.50989" lon="6.76911">
        <ele>377</ele>
        <time>2016-01-03T08:21:11.000Z</time>
      </trkpt>
      <trkpt lat="47.50985" lon="6.76907">
        <ele>377</ele>
        <time>2016-01-03T08:21:12.000Z</time>
      </trkpt>
      <trkpt lat="47.50981" lon="6.76904">
        <ele>377</ele>
        <time>2016-01-03T08:21:13.000Z</time>
      </trkpt>
      <trkpt lat="47.50977" lon="6.76904">
        <ele>377</ele>
        <time>2016-01-03T08:21:14.000Z</time>
      </trkpt>
      <trkpt lat="47.50974" lon="6.76904">
        <ele>377</ele>
        <time>2016-01-03T08:21:15.000Z</time>
      </trkpt>
      <trkpt lat="47.5097" lon="6.76903">
        <ele>377</ele>
        <time>2016-01-03T08:21:16.000Z</time>
      </trkpt>
      <trkpt lat="47.50966" lon="6.76902">
        <ele>377</ele>
        <time>2016-01-03T08:21:17.000Z</time>
      </trkpt>
      <trkpt lat="47.50962" lon="6.769">
        <ele>377</ele>
        <time>2016-01-03T08:21:18.000Z</time>
      </trkpt>
      <trkpt lat="47.50959" lon="6.76897">
        <ele>377</ele>
        <time>2016-01-03T08:21:19.000Z</time>
      </trkpt>
      <trkpt lat="47.50956" lon="6.76894">
        <ele>377</ele>
        <time>2016-01-03T08:21:20.000Z</time>
      </trkpt>
      <trkpt lat="47.50952" lon="6.76891">
        <ele>378</ele>
        <time>2016-01-03T08:21:21.000Z</time>
      </trkpt>
      <trkpt lat="47.50949" lon="6.76887">
        <ele>378</ele>
        <time>2016-01-03T08:21:22.000Z</time>
      </trkpt>
      <trkpt lat="47.50945" lon="6.76885">
        <ele>378</ele>
        <time>2016-01-03T08:21:23.000Z</time>
      </trkpt>
      <trkpt lat="47.50942" lon="6.76881">
        <ele>378</ele>
        <time>2016-01-03T08:21:24.000Z</time>
      </trkpt>
      <trkpt lat="47.5094" lon="6.76878">
        <ele>378</ele>
        <time>2016-01-03T08:21:25.000Z</time>
      </trkpt>
      <trkpt lat="47.50937" lon="6.76874">
        <ele>378</ele>
        <time>2016-01-03T08:21:26.000Z</time>
      </trkpt>
      <trkpt lat="47.50934" lon="6.7687">
        <ele>378</ele>
        <time>2016-01-03T08:21:27.000Z</time>
      </trkpt>
      <trkpt lat="47.50931" lon="6.76866">
        <ele>378</ele>
        <time>2016-01-03T08:21:28.000Z</time>
      </trkpt>
      <trkpt lat="47.50928" lon="6.76862">
        <ele>378</ele>
        <time>2016-01-03T08:21:29.000Z</time>
      </trkpt>
      <trkpt lat="47.50925" lon="6.76858">
        <ele>378</ele>
        <time>2016-01-03T08:21:30.000Z</time>
      </trkpt>
      <trkpt lat="47.50923" lon="6.76854">
        <ele>379</ele>
        <time>2016-01-03T08:21:31.000Z</time>
      </trkpt>
      <trkpt lat="47.5092" lon="6.7685">
        <ele>379</ele>
        <time>2016-01-03T08:21:32.000Z</time>
      </trkpt>
      <trkpt lat="47.50917" lon="6.76846">
        <ele>379</ele>
        <time>2016-01-03T08:21:33.000Z</time>
      </trkpt>
      <trkpt lat="47.50915" lon="6.76841">
        <ele>380</ele>
        <time>2016-01-03T08:21:34.000Z</time>
      </trkpt>
      <trkpt lat="47.50913" lon="6.76836">
        <ele>380</ele>
        <time>2016-01-03T08:21:35.000Z</time>
      </trkpt>
      <trkpt lat="47.50911" lon="6.76832">
        <ele>380</ele>
        <time>2016-01-03T08:21:36.000Z</time>
      </trkpt>
      <trkpt lat="47.50908" lon="6.76825">
        <ele>381</ele>
        <time>2016-01-03T08:21:37.000Z</time>
      </trkpt>
      <trkpt lat="47.50907" lon="6.7682">
        <ele>381</ele>
        <time>2016-01-03T08:21:38.000Z</time>
      </trkpt>
      <trkpt lat="47.50904" lon="6.76815">
        <ele>381</ele>
        <time>2016-01-03T08:21:39.000Z</time>
      </trkpt>
      <trkpt lat="47.50902" lon="6.7681">
        <ele>381</ele>
        <time>2016-01-03T08:21:40.000Z</time>
      </trkpt>
      <trkpt lat="47.509" lon="6.76806">
        <ele>381</ele>
        <time>2016-01-03T08:21:41.000Z</time>
      </trkpt>
      <trkpt lat="47.50898" lon="6.76801">
        <ele>381</ele>
        <time>2016-01-03T08:21:42.000Z</time>
      </trkpt>
      <trkpt lat="47.50896" lon="6.76795">
        <ele>381</ele>
        <time>2016-01-03T08:21:43.000Z</time>
      </trkpt>
      <trkpt lat="47.50894" lon="6.7679">
        <ele>381</ele>
        <time>2016-01-03T08:21:44.000Z</time>
      </trkpt>
      <trkpt lat="47.50893" lon="6.76785">
        <ele>381</ele>
        <time>2016-01-03T08:21:45.000Z</time>
      </trkpt>
      <trkpt lat="47.50891" lon="6.76781">
        <ele>381</ele>
        <time>2016-01-03T08:21:46.000Z</time>
      </trkpt>
      <trkpt lat="47.50889" lon="6.76776">
        <ele>381</ele>
        <time>2016-01-03T08:21:47.000Z</time>
      </trkpt>
      <trkpt lat="47.50887" lon="6.76772">
        <ele>381</ele>
        <time>2016-01-03T08:21:48.000Z</time>
      </trkpt>
      <trkpt lat="47.50886" lon="6.76767">
        <ele>381</ele>
        <time>2016-01-03T08:21:49.000Z</time>
      </trkpt>
      <trkpt lat="47.50884" lon="6.76763">
        <ele>381</ele>
        <time>2016-01-03T08:21:50.000Z</time>
      </trkpt>
      <trkpt lat="47.50883" lon="6.76758">
        <ele>381</ele>
        <time>2016-01-03T08:21:51.000Z</time>
      </trkpt>
      <trkpt lat="47.50882" lon="6.76753">
        <ele>381</ele>
        <time>2016-01-03T08:21:52.000Z</time>
      </trkpt>
      <trkpt lat="47.50881" lon="6.76748">
        <ele>382</ele>
        <time>2016-01-03T08:21:53.000Z</time>
      </trkpt>
      <trkpt lat="47.50879" lon="6.76743">
        <ele>383</ele>
        <time>2016-01-03T08:21:54.000Z</time>
      </trkpt>
      <trkpt lat="47.50877" lon="6.76739">
        <ele>383</ele>
        <time>2016-01-03T08:21:55.000Z</time>
      </trkpt>
      <trkpt lat="47.50876" lon="6.76734">
        <ele>383</ele>
        <time>2016-01-03T08:21:56.000Z</time>
      </trkpt>
      <trkpt lat="47.50874" lon="6.76729">
        <ele>383</ele>
        <time>2016-01-03T08:21:57.000Z</time>
      </trkpt>
      <trkpt lat="47.50873" lon="6.76725">
        <ele>383</ele>
        <time>2016-01-03T08:21:58.000Z</time>
      </trkpt>
      <trkpt lat="47.50871" lon="6.7672">
        <ele>383</ele>
        <time>2016-01-03T08:21:59.000Z</time>
      </trkpt>
      <trkpt lat="47.50869" lon="6.76716">
        <ele>383</ele>
        <time>2016-01-03T08:22:00.000Z</time>
      </trkpt>
      <trkpt lat="47.50868" lon="6.76711">
        <ele>384</ele>
        <time>2016-01-03T08:22:01.000Z</time>
      </trkpt>
      <trkpt lat="47.50866" lon="6.76707">
        <ele>384</ele>
        <time>2016-01-03T08:22:02.000Z</time>
      </trkpt>
      <trkpt lat="47.50864" lon="6.76703">
        <ele>384</ele>
        <time>2016-01-03T08:22:03.000Z</time>
      </trkpt>
      <trkpt lat="47.50862" lon="6.76698">
        <ele>384</ele>
        <time>2016-01-03T08:22:04.000Z</time>
      </trkpt>
      <trkpt lat="47.50861" lon="6.76694">
        <ele>384</ele>
        <time>2016-01-03T08:22:05.000Z</time>
      </trkpt>
      <trkpt lat="47.50859" lon="6.7669">
        <ele>385</ele>
        <time>2016-01-03T08:22:06.000Z</time>
      </trkpt>
      <trkpt lat="47.50858" lon="6.76685">
        <ele>385</ele>
        <time>2016-01-03T08:22:07.000Z</time>
      </trkpt>
      <trkpt lat="47.50856" lon="6.76681">
        <ele>385</ele>
        <time>2016-01-03T08:22:08.000Z</time>
      </trkpt>
      <trkpt lat="47.50854" lon="6.76677">
        <ele>385</ele>
        <time>2016-01-03T08:22:09.000Z</time>
      </trkpt>
      <trkpt lat="47.50853" lon="6.76674">
        <ele>386</ele>
        <time>2016-01-03T08:22:10.000Z</time>
      </trkpt>
      <trkpt lat="47.50851" lon="6.7667">
        <ele>386</ele>
        <time>2016-01-03T08:22:11.000Z</time>
      </trkpt>
      <trkpt lat="47.5085" lon="6.76666">
        <ele>387</ele>
        <time>2016-01-03T08:22:12.000Z</time>
      </trkpt>
      <trkpt lat="47.50848" lon="6.76662">
        <ele>387</ele>
        <time>2016-01-03T08:22:13.000Z</time>
      </trkpt>
      <trkpt lat="47.50846" lon="6.76658">
        <ele>387</ele>
        <time>2016-01-03T08:22:14.000Z</time>
      </trkpt>
      <trkpt lat="47.50844" lon="6.76654">
        <ele>387</ele>
        <time>2016-01-03T08:22:15.000Z</time>
      </trkpt>
      <trkpt lat="47.50843" lon="6.76651">
        <ele>387</ele>
        <time>2016-01-03T08:22:16.000Z</time>
      </trkpt>
      <trkpt lat="47.50841" lon="6.76647">
        <ele>387</ele>
        <time>2016-01-03T08:22:17.000Z</time>
      </trkpt>
      <trkpt lat="47.5084" lon="6.76643">
        <ele>387</ele>
        <time>2016-01-03T08:22:18.000Z</time>
      </trkpt>
      <trkpt lat="47.50838" lon="6.7664">
        <ele>387</ele>
        <time>2016-01-03T08:22:19.000Z</time>
      </trkpt>
      <trkpt lat="47.50836" lon="6.76637">
        <ele>387</ele>
        <time>2016-01-03T08:22:20.000Z</time>
      </trkpt>
      <trkpt lat="47.50835" lon="6.76633">
        <ele>387</ele>
        <time>2016-01-03T08:22:21.000Z</time>
      </trkpt>
      <trkpt lat="47.50833" lon="6.7663">
        <ele>387</ele>
        <time>2016-01-03T08:22:22.000Z</time>
      </trkpt>
      <trkpt lat="47.50832" lon="6.76626">
        <ele>390</ele>
        <time>2016-01-03T08:22:23.000Z</time>
      </trkpt>
      <trkpt lat="47.50831" lon="6.76623">
        <ele>390</ele>
        <time>2016-01-03T08:22:24.000Z</time>
      </trkpt>
      <trkpt lat="47.50829" lon="6.76619">
        <ele>390</ele>
        <time>2016-01-03T08:22:25.000Z</time>
      </trkpt>
      <trkpt lat="47.50828" lon="6.76616">
        <ele>390</ele>
        <time>2016-01-03T08:22:26.000Z</time>
      </trkpt>
      <trkpt lat="47.50827" lon="6.76612">
        <ele>390</ele>
        <time>2016-01-03T08:22:27.000Z</time>
      </trkpt>
      <trkpt lat="47.50826" lon="6.76609">
        <ele>390</ele>
        <time>2016-01-03T08:22:28.000Z</time>
      </trkpt>
      <trkpt lat="47.50825" lon="6.76605">
        <ele>390</ele>
        <time>2016-01-03T08:22:29.000Z</time>
      </trkpt>
      <trkpt lat="47.50824" lon="6.76602">
        <ele>390</ele>
        <time>2016-01-03T08:22:30.000Z</time>
      </trkpt>
      <trkpt lat="47.50823" lon="6.76598">
        <ele>390</ele>
        <time>2016-01-03T08:22:31.000Z</time>
      </trkpt>
      <trkpt lat="47.5082" lon="6.76593">
        <ele>390</ele>
        <time>2016-01-03T08:22:33.000Z</time>
      </trkpt>
      <trkpt lat="47.50819" lon="6.76593">
        <ele>390</ele>
        <time>2016-01-03T08:22:34.000Z</time>
      </trkpt>
      <trkpt lat="47.50816" lon="6.76596">
        <ele>390</ele>
        <time>2016-01-03T08:22:36.000Z</time>
      </trkpt>
      <trkpt lat="47.50813" lon="6.76598">
        <ele>390</ele>
        <time>2016-01-03T08:22:37.000Z</time>
      </trkpt>
      <trkpt lat="47.50809" lon="6.76598">
        <ele>390</ele>
        <time>2016-01-03T08:22:39.000Z</time>
      </trkpt>
      <trkpt lat="47.50808" lon="6.76596">
        <ele>390</ele>
        <time>2016-01-03T08:22:40.000Z</time>
      </trkpt>
      <trkpt lat="47.50806" lon="6.76591">
        <ele>390</ele>
        <time>2016-01-03T08:22:42.000Z</time>
      </trkpt>
      <trkpt lat="47.50805" lon="6.76588">
        <ele>390</ele>
        <time>2016-01-03T08:22:43.000Z</time>
      </trkpt>
      <trkpt lat="47.50802" lon="6.76585">
        <ele>391</ele>
        <time>2016-01-03T08:22:45.000Z</time>
      </trkpt>
      <trkpt lat="47.508" lon="6.76586">
        <ele>391</ele>
        <time>2016-01-03T08:22:46.000Z</time>
      </trkpt>
      <trkpt lat="47.50796" lon="6.76587">
        <ele>391</ele>
        <time>2016-01-03T08:22:48.000Z</time>
      </trkpt>
      <trkpt lat="47.50795" lon="6.76588">
        <ele>391</ele>
        <time>2016-01-03T08:22:49.000Z</time>
      </trkpt>
      <trkpt lat="47.50791" lon="6.7659">
        <ele>391</ele>
        <time>2016-01-03T08:23:05.000Z</time>
      </trkpt>
      <trkpt lat="47.5079" lon="6.7659">
        <ele>391</ele>
        <time>2016-01-03T08:23:06.000Z</time>
      </trkpt>
      <trkpt lat="47.50785" lon="6.7659">
        <ele>391</ele>
        <time>2016-01-03T08:23:08.000Z</time>
      </trkpt>
      <trkpt lat="47.50783" lon="6.76591">
        <ele>391</ele>
        <time>2016-01-03T08:23:09.000Z</time>
      </trkpt>
      <trkpt lat="47.5078" lon="6.76591">
        <ele>392</ele>
        <time>2016-01-03T08:23:10.000Z</time>
      </trkpt>
      <trkpt lat="47.50777" lon="6.76592">
        <ele>392</ele>
        <time>2016-01-03T08:23:11.000Z</time>
      </trkpt>
      <trkpt lat="47.50775" lon="6.76593">
        <ele>392</ele>
        <time>2016-01-03T08:23:12.000Z</time>
      </trkpt>
      <trkpt lat="47.50772" lon="6.76593">
        <ele>392</ele>
        <time>2016-01-03T08:23:13.000Z</time>
      </trkpt>
      <trkpt lat="47.50769" lon="6.76593">
        <ele>392</ele>
        <time>2016-01-03T08:23:14.000Z</time>
      </trkpt>
      <trkpt lat="47.50767" lon="6.76594">
        <ele>392</ele>
        <time>2016-01-03T08:23:15.000Z</time>
      </trkpt>
      <trkpt lat="47.50764" lon="6.76594">
        <ele>392</ele>
        <time>2016-01-03T08:23:16.000Z</time>
      </trkpt>
      <trkpt lat="47.50761" lon="6.76594">
        <ele>392</ele>
        <time>2016-01-03T08:23:17.000Z</time>
      </trkpt>
      <trkpt lat="47.50758" lon="6.76594">
        <ele>393</ele>
        <time>2016-01-03T08:23:18.000Z</time>
      </trkpt>
      <trkpt lat="47.50755" lon="6.76593">
        <ele>393</ele>
        <time>2016-01-03T08:23:19.000Z</time>
      </trkpt>
      <trkpt lat="47.50753" lon="6.76593">
        <ele>393</ele>
        <time>2016-01-03T08:23:20.000Z</time>
      </trkpt>
      <trkpt lat="47.5075" lon="6.76593">
        <ele>394</ele>
        <time>2016-01-03T08:23:21.000Z</time>
      </trkpt>
      <trkpt lat="47.50747" lon="6.76592">
        <ele>394</ele>
        <time>2016-01-03T08:23:22.000Z</time>
      </trkpt>
      <trkpt lat="47.50744" lon="6.76592">
        <ele>394</ele>
        <time>2016-01-03T08:23:23.000Z</time>
      </trkpt>
      <trkpt lat="47.50741" lon="6.76591">
        <ele>394</ele>
        <time>2016-01-03T08:23:24.000Z</time>
      </trkpt>
      <trkpt lat="47.50738" lon="6.76591">
        <ele>394</ele>
        <time>2016-01-03T08:23:25.000Z</time>
      </trkpt>
      <trkpt lat="47.50735" lon="6.7659">
        <ele>394</ele>
        <time>2016-01-03T08:23:26.000Z</time>
      </trkpt>
      <trkpt lat="47.50732" lon="6.76589">
        <ele>394</ele>
        <time>2016-01-03T08:23:27.000Z</time>
      </trkpt>
      <trkpt lat="47.50729" lon="6.76589">
        <ele>394</ele>
        <time>2016-01-03T08:23:28.000Z</time>
      </trkpt>
      <trkpt lat="47.50726" lon="6.76588">
        <ele>394</ele>
        <time>2016-01-03T08:23:29.000Z</time>
      </trkpt>
      <trkpt lat="47.50722" lon="6.76587">
        <ele>394</ele>
        <time>2016-01-03T08:23:30.000Z</time>
      </trkpt>
      <trkpt lat="47.50719" lon="6.76586">
        <ele>394</ele>
        <time>2016-01-03T08:23:31.000Z</time>
      </trkpt>
      <trkpt lat="47.50716" lon="6.76585">
        <ele>395</ele>
        <time>2016-01-03T08:23:32.000Z</time>
      </trkpt>
      <trkpt lat="47.50713" lon="6.76585">
        <ele>395</ele>
        <time>2016-01-03T08:23:33.000Z</time>
      </trkpt>
      <trkpt lat="47.50709" lon="6.76584">
        <ele>395</ele>
        <time>2016-01-03T08:23:34.000Z</time>
      </trkpt>
      <trkpt lat="47.50706" lon="6.76583">
        <ele>395</ele>
        <time>2016-01-03T08:23:35.000Z</time>
      </trkpt>
      <trkpt lat="47.50703" lon="6.76582">
        <ele>395</ele>
        <time>2016-01-03T08:23:36.000Z</time>
      </trkpt>
      <trkpt lat="47.507" lon="6.76581">
        <ele>395</ele>
        <time>2016-01-03T08:23:37.000Z</time>
      </trkpt>
      <trkpt lat="47.50697" lon="6.76581">
        <ele>396</ele>
        <time>2016-01-03T08:23:38.000Z</time>
      </trkpt>
      <trkpt lat="47.50694" lon="6.76581">
        <ele>396</ele>
        <time>2016-01-03T08:23:39.000Z</time>
      </trkpt>
      <trkpt lat="47.50691" lon="6.76582">
        <ele>396</ele>
        <time>2016-01-03T08:23:40.000Z</time>
      </trkpt>
      <trkpt lat="47.50688" lon="6.76582">
        <ele>396</ele>
        <time>2016-01-03T08:23:41.000Z</time>
      </trkpt>
      <trkpt lat="47.50685" lon="6.76582">
        <ele>396</ele>
        <time>2016-01-03T08:23:42.000Z</time>
      </trkpt>
      <trkpt lat="47.50682" lon="6.76583">
        <ele>396</ele>
        <time>2016-01-03T08:23:43.000Z</time>
      </trkpt>
      <trkpt lat="47.50679" lon="6.76583">
        <ele>396</ele>
        <time>2016-01-03T08:23:44.000Z</time>
      </trkpt>
      <trkpt lat="47.50676" lon="6.76584">
        <ele>396</ele>
        <time>2016-01-03T08:23:45.000Z</time>
      </trkpt>
      <trkpt lat="47.50673" lon="6.76585">
        <ele>396</ele>
        <time>2016-01-03T08:23:46.000Z</time>
      </trkpt>
      <trkpt lat="47.5067" lon="6.76585">
        <ele>397</ele>
        <time>2016-01-03T08:23:47.000Z</time>
      </trkpt>
      <trkpt lat="47.50667" lon="6.76586">
        <ele>397</ele>
        <time>2016-01-03T08:23:48.000Z</time>
      </trkpt>
      <trkpt lat="47.50664" lon="6.76588">
        <ele>397</ele>
        <time>2016-01-03T08:23:49.000Z</time>
      </trkpt>
      <trkpt lat="47.50661" lon="6.76589">
        <ele>397</ele>
        <time>2016-01-03T08:23:50.000Z</time>
      </trkpt>
      <trkpt lat="47.50658" lon="6.7659">
        <ele>397</ele>
        <time>2016-01-03T08:23:51.000Z</time>
      </trkpt>
      <trkpt lat="47.50655" lon="6.76591">
        <ele>397</ele>
        <time>2016-01-03T08:23:52.000Z</time>
      </trkpt>
      <trkpt lat="47.50652" lon="6.76592">
        <ele>397</ele>
        <time>2016-01-03T08:23:53.000Z</time>
      </trkpt>
      <trkpt lat="47.5065" lon="6.76593">
        <ele>397</ele>
        <time>2016-01-03T08:23:54.000Z</time>
      </trkpt>
      <trkpt lat="47.50647" lon="6.76594">
        <ele>397</ele>
        <time>2016-01-03T08:23:55.000Z</time>
      </trkpt>
      <trkpt lat="47.50645" lon="6.76596">
        <ele>397</ele>
        <time>2016-01-03T08:23:56.000Z</time>
      </trkpt>
      <trkpt lat="47.50642" lon="6.76597">
        <ele>397</ele>
        <time>2016-01-03T08:23:57.000Z</time>
      </trkpt>
      <trkpt lat="47.5064" lon="6.76598">
        <ele>397</ele>
        <time>2016-01-03T08:23:58.000Z</time>
      </trkpt>
      <trkpt lat="47.50637" lon="6.766">
        <ele>397</ele>
        <time>2016-01-03T08:23:59.000Z</time>
      </trkpt>
      <trkpt lat="47.50634" lon="6.76602">
        <ele>397</ele>
        <time>2016-01-03T08:24:00.000Z</time>
      </trkpt>
      <trkpt lat="47.50632" lon="6.76604">
        <ele>397</ele>
        <time>2016-01-03T08:24:01.000Z</time>
      </trkpt>
      <trkpt lat="47.50629" lon="6.76606">
        <ele>397</ele>
        <time>2016-01-03T08:24:02.000Z</time>
      </trkpt>
      <trkpt lat="47.50627" lon="6.76608">
        <ele>397</ele>
        <time>2016-01-03T08:24:03.000Z</time>
      </trkpt>
      <trkpt lat="47.50624" lon="6.7661">
        <ele>397</ele>
        <time>2016-01-03T08:24:04.000Z</time>
      </trkpt>
      <trkpt lat="47.50622" lon="6.76612">
        <ele>397</ele>
        <time>2016-01-03T08:24:05.000Z</time>
      </trkpt>
      <trkpt lat="47.50619" lon="6.76613">
        <ele>397</ele>
        <time>2016-01-03T08:24:06.000Z</time>
      </trkpt>
      <trkpt lat="47.50616" lon="6.76615">
        <ele>397</ele>
        <time>2016-01-03T08:24:07.000Z</time>
      </trkpt>
      <trkpt lat="47.50613" lon="6.76616">
        <ele>398</ele>
        <time>2016-01-03T08:24:08.000Z</time>
      </trkpt>
      <trkpt lat="47.5061" lon="6.76617">
        <ele>398</ele>
        <time>2016-01-03T08:24:09.000Z</time>
      </trkpt>
      <trkpt lat="47.50607" lon="6.76618">
        <ele>398</ele>
        <time>2016-01-03T08:24:10.000Z</time>
      </trkpt>
      <trkpt lat="47.50604" lon="6.76619">
        <ele>398</ele>
        <time>2016-01-03T08:24:11.000Z</time>
      </trkpt>
      <trkpt lat="47.50602" lon="6.7662">
        <ele>398</ele>
        <time>2016-01-03T08:24:12.000Z</time>
      </trkpt>
      <trkpt lat="47.50599" lon="6.76621">
        <ele>398</ele>
        <time>2016-01-03T08:24:13.000Z</time>
      </trkpt>
      <trkpt lat="47.50596" lon="6.76622">
        <ele>398</ele>
        <time>2016-01-03T08:24:14.000Z</time>
      </trkpt>
      <trkpt lat="47.50593" lon="6.76623">
        <ele>398</ele>
        <time>2016-01-03T08:24:15.000Z</time>
      </trkpt>
      <trkpt lat="47.50591" lon="6.76624">
        <ele>398</ele>
        <time>2016-01-03T08:24:16.000Z</time>
      </trkpt>
      <trkpt lat="47.50588" lon="6.76625">
        <ele>398</ele>
        <time>2016-01-03T08:24:17.000Z</time>
      </trkpt>
      <trkpt lat="47.50585" lon="6.76626">
        <ele>398</ele>
        <time>2016-01-03T08:24:18.000Z</time>
      </trkpt>
      <trkpt lat="47.50582" lon="6.76627">
        <ele>399</ele>
        <time>2016-01-03T08:24:19.000Z</time>
      </trkpt>
      <trkpt lat="47.5058" lon="6.76627">
        <ele>399</ele>
        <time>2016-01-03T08:24:20.000Z</time>
      </trkpt>
      <trkpt lat="47.50577" lon="6.76628">
        <ele>399</ele>
        <time>2016-01-03T08:24:21.000Z</time>
      </trkpt>
      <trkpt lat="47.50575" lon="6.76628">
        <ele>399</ele>
        <time>2016-01-03T08:24:22.000Z</time>
      </trkpt>
      <trkpt lat="47.50572" lon="6.76629">
        <ele>399</ele>
        <time>2016-01-03T08:24:23.000Z</time>
      </trkpt>
      <trkpt lat="47.5057" lon="6.76629">
        <ele>399</ele>
        <time>2016-01-03T08:24:24.000Z</time>
      </trkpt>
      <trkpt lat="47.50567" lon="6.76629">
        <ele>399</ele>
        <time>2016-01-03T08:24:25.000Z</time>
      </trkpt>
      <trkpt lat="47.50564" lon="6.7663">
        <ele>399</ele>
        <time>2016-01-03T08:24:26.000Z</time>
      </trkpt>
      <trkpt lat="47.50561" lon="6.7663">
        <ele>399</ele>
        <time>2016-01-03T08:24:27.000Z</time>
      </trkpt>
      <trkpt lat="47.50558" lon="6.76631">
        <ele>399</ele>
        <time>2016-01-03T08:24:28.000Z</time>
      </trkpt>
      <trkpt lat="47.50555" lon="6.76633">
        <ele>399</ele>
        <time>2016-01-03T08:24:29.000Z</time>
      </trkpt>
      <trkpt lat="47.50552" lon="6.76634">
        <ele>399</ele>
        <time>2016-01-03T08:24:30.000Z</time>
      </trkpt>
      <trkpt lat="47.50549" lon="6.76635">
        <ele>399</ele>
        <time>2016-01-03T08:24:31.000Z</time>
      </trkpt>
      <trkpt lat="47.50546" lon="6.76635">
        <ele>399</ele>
        <time>2016-01-03T08:24:32.000Z</time>
      </trkpt>
      <trkpt lat="47.50543" lon="6.76637">
        <ele>399</ele>
        <time>2016-01-03T08:24:33.000Z</time>
      </trkpt>
      <trkpt lat="47.50541" lon="6.76638">
        <ele>399</ele>
        <time>2016-01-03T08:24:34.000Z</time>
      </trkpt>
      <trkpt lat="47.50538" lon="6.76639">
        <ele>399</ele>
        <time>2016-01-03T08:24:35.000Z</time>
      </trkpt>
      <trkpt lat="47.50534" lon="6.7664">
        <ele>399</ele>
        <time>2016-01-03T08:24:36.000Z</time>
      </trkpt>
      <trkpt lat="47.50531" lon="6.76641">
        <ele>399</ele>
        <time>2016-01-03T08:24:37.000Z</time>
      </trkpt>
      <trkpt lat="47.50527" lon="6.76642">
        <ele>399</ele>
        <time>2016-01-03T08:24:38.000Z</time>
      </trkpt>
      <trkpt lat="47.50523" lon="6.76643">
        <ele>399</ele>
        <time>2016-01-03T08:24:39.000Z</time>
      </trkpt>
      <trkpt lat="47.5052" lon="6.76644">
        <ele>399</ele>
        <time>2016-01-03T08:24:40.000Z</time>
      </trkpt>
      <trkpt lat="47.50516" lon="6.76646">
        <ele>399</ele>
        <time>2016-01-03T08:24:41.000Z</time>
      </trkpt>
      <trkpt lat="47.50512" lon="6.76648">
        <ele>399</ele>
        <time>2016-01-03T08:24:42.000Z</time>
      </trkpt>
      <trkpt lat="47.50508" lon="6.76649">
        <ele>399</ele>
        <time>2016-01-03T08:24:43.000Z</time>
      </trkpt>
      <trkpt lat="47.50504" lon="6.7665">
        <ele>399</ele>
        <time>2016-01-03T08:24:44.000Z</time>
      </trkpt>
      <trkpt lat="47.505" lon="6.76651">
        <ele>399</ele>
        <time>2016-01-03T08:24:45.000Z</time>
      </trkpt>
      <trkpt lat="47.50496" lon="6.76652">
        <ele>399</ele>
        <time>2016-01-03T08:24:46.000Z</time>
      </trkpt>
      <trkpt lat="47.50492" lon="6.76653">
        <ele>399</ele>
        <time>2016-01-03T08:24:47.000Z</time>
      </trkpt>
      <trkpt lat="47.50487" lon="6.76654">
        <ele>399</ele>
        <time>2016-01-03T08:24:48.000Z</time>
      </trkpt>
      <trkpt lat="47.50482" lon="6.76656">
        <ele>399</ele>
        <time>2016-01-03T08:24:49.000Z</time>
      </trkpt>
      <trkpt lat="47.50478" lon="6.76658">
        <ele>399</ele>
        <time>2016-01-03T08:24:50.000Z</time>
      </trkpt>
      <trkpt lat="47.50473" lon="6.7666">
        <ele>398</ele>
        <time>2016-01-03T08:24:51.000Z</time>
      </trkpt>
      <trkpt lat="47.5047" lon="6.76662">
        <ele>398</ele>
        <time>2016-01-03T08:24:52.000Z</time>
      </trkpt>
      <trkpt lat="47.50465" lon="6.76664">
        <ele>398</ele>
        <time>2016-01-03T08:24:53.000Z</time>
      </trkpt>
      <trkpt lat="47.50461" lon="6.76666">
        <ele>398</ele>
        <time>2016-01-03T08:24:54.000Z</time>
      </trkpt>
      <trkpt lat="47.50456" lon="6.76668">
        <ele>397</ele>
        <time>2016-01-03T08:24:55.000Z</time>
      </trkpt>
      <trkpt lat="47.50452" lon="6.7667">
        <ele>397</ele>
        <time>2016-01-03T08:24:56.000Z</time>
      </trkpt>
      <trkpt lat="47.50447" lon="6.76672">
        <ele>397</ele>
        <time>2016-01-03T08:24:57.000Z</time>
      </trkpt>
      <trkpt lat="47.50443" lon="6.76675">
        <ele>397</ele>
        <time>2016-01-03T08:24:58.000Z</time>
      </trkpt>
      <trkpt lat="47.50439" lon="6.76676">
        <ele>397</ele>
        <time>2016-01-03T08:24:59.000Z</time>
      </trkpt>
      <trkpt lat="47.50435" lon="6.76678">
        <ele>397</ele>
        <time>2016-01-03T08:25:00.000Z</time>
      </trkpt>
      <trkpt lat="47.50431" lon="6.76679">
        <ele>397</ele>
        <time>2016-01-03T08:25:01.000Z</time>
      </trkpt>
      <trkpt lat="47.50426" lon="6.7668">
        <ele>397</ele>
        <time>2016-01-03T08:25:02.000Z</time>
      </trkpt>
      <trkpt lat="47.50422" lon="6.76682">
        <ele>397</ele>
        <time>2016-01-03T08:25:03.000Z</time>
      </trkpt>
      <trkpt lat="47.50417" lon="6.76684">
        <ele>397</ele>
        <time>2016-01-03T08:25:04.000Z</time>
      </trkpt>
      <trkpt lat="47.50413" lon="6.76685">
        <ele>397</ele>
        <time>2016-01-03T08:25:05.000Z</time>
      </trkpt>
      <trkpt lat="47.50409" lon="6.76686">
        <ele>397</ele>
        <time>2016-01-03T08:25:06.000Z</time>
      </trkpt>
      <trkpt lat="47.50406" lon="6.76689">
        <ele>397</ele>
        <time>2016-01-03T08:25:07.000Z</time>
      </trkpt>
      <trkpt lat="47.50402" lon="6.76691">
        <ele>397</ele>
        <time>2016-01-03T08:25:08.000Z</time>
      </trkpt>
      <trkpt lat="47.50398" lon="6.76692">
        <ele>397</ele>
        <time>2016-01-03T08:25:09.000Z</time>
      </trkpt>
      <trkpt lat="47.50394" lon="6.76693">
        <ele>397</ele>
        <time>2016-01-03T08:25:10.000Z</time>
      </trkpt>
      <trkpt lat="47.5039" lon="6.76695">
        <ele>397</ele>
        <time>2016-01-03T08:25:11.000Z</time>
      </trkpt>
      <trkpt lat="47.50386" lon="6.76697">
        <ele>397</ele>
        <time>2016-01-03T08:25:12.000Z</time>
      </trkpt>
      <trkpt lat="47.50382" lon="6.767">
        <ele>397</ele>
        <time>2016-01-03T08:25:13.000Z</time>
      </trkpt>
      <trkpt lat="47.50379" lon="6.76702">
        <ele>397</ele>
        <time>2016-01-03T08:25:14.000Z</time>
      </trkpt>
      <trkpt lat="47.50375" lon="6.76704">
        <ele>397</ele>
        <time>2016-01-03T08:25:15.000Z</time>
      </trkpt>
      <trkpt lat="47.50371" lon="6.76705">
        <ele>397</ele>
        <time>2016-01-03T08:25:16.000Z</time>
      </trkpt>
      <trkpt lat="47.50367" lon="6.76707">
        <ele>397</ele>
        <time>2016-01-03T08:25:17.000Z</time>
      </trkpt>
      <trkpt lat="47.50364" lon="6.76708">
        <ele>397</ele>
        <time>2016-01-03T08:25:18.000Z</time>
      </trkpt>
      <trkpt lat="47.5036" lon="6.76709">
        <ele>398</ele>
        <time>2016-01-03T08:25:19.000Z</time>
      </trkpt>
      <trkpt lat="47.50356" lon="6.7671">
        <ele>398</ele>
        <time>2016-01-03T08:25:20.000Z</time>
      </trkpt>
      <trkpt lat="47.50352" lon="6.76711">
        <ele>398</ele>
        <time>2016-01-03T08:25:21.000Z</time>
      </trkpt>
      <trkpt lat="47.50349" lon="6.76712">
        <ele>398</ele>
        <time>2016-01-03T08:25:22.000Z</time>
      </trkpt>
      <trkpt lat="47.50345" lon="6.76713">
        <ele>398</ele>
        <time>2016-01-03T08:25:23.000Z</time>
      </trkpt>
      <trkpt lat="47.50341" lon="6.76715">
        <ele>398</ele>
        <time>2016-01-03T08:25:24.000Z</time>
      </trkpt>
      <trkpt lat="47.50338" lon="6.76717">
        <ele>398</ele>
        <time>2016-01-03T08:25:25.000Z</time>
      </trkpt>
      <trkpt lat="47.50334" lon="6.76718">
        <ele>398</ele>
        <time>2016-01-03T08:25:26.000Z</time>
      </trkpt>
      <trkpt lat="47.5033" lon="6.76719">
        <ele>398</ele>
        <time>2016-01-03T08:25:27.000Z</time>
      </trkpt>
      <trkpt lat="47.50327" lon="6.76721">
        <ele>398</ele>
        <time>2016-01-03T08:25:28.000Z</time>
      </trkpt>
      <trkpt lat="47.50323" lon="6.76722">
        <ele>398</ele>
        <time>2016-01-03T08:25:29.000Z</time>
      </trkpt>
      <trkpt lat="47.5032" lon="6.76723">
        <ele>398</ele>
        <time>2016-01-03T08:25:30.000Z</time>
      </trkpt>
      <trkpt lat="47.50317" lon="6.76725">
        <ele>398</ele>
        <time>2016-01-03T08:25:31.000Z</time>
      </trkpt>
      <trkpt lat="47.50314" lon="6.76727">
        <ele>398</ele>
        <time>2016-01-03T08:25:32.000Z</time>
      </trkpt>
      <trkpt lat="47.50311" lon="6.76729">
        <ele>398</ele>
        <time>2016-01-03T08:25:33.000Z</time>
      </trkpt>
      <trkpt lat="47.50308" lon="6.7673">
        <ele>398</ele>
        <time>2016-01-03T08:25:34.000Z</time>
      </trkpt>
      <trkpt lat="47.50304" lon="6.76731">
        <ele>398</ele>
        <time>2016-01-03T08:25:35.000Z</time>
      </trkpt>
      <trkpt lat="47.503" lon="6.76732">
        <ele>399</ele>
        <time>2016-01-03T08:25:36.000Z</time>
      </trkpt>
      <trkpt lat="47.50296" lon="6.76733">
        <ele>399</ele>
        <time>2016-01-03T08:25:37.000Z</time>
      </trkpt>
      <trkpt lat="47.50292" lon="6.76733">
        <ele>399</ele>
        <time>2016-01-03T08:25:38.000Z</time>
      </trkpt>
      <trkpt lat="47.50289" lon="6.76734">
        <ele>399</ele>
        <time>2016-01-03T08:25:39.000Z</time>
      </trkpt>
      <trkpt lat="47.50285" lon="6.76735">
        <ele>399</ele>
        <time>2016-01-03T08:25:40.000Z</time>
      </trkpt>
      <trkpt lat="47.50281" lon="6.76736">
        <ele>399</ele>
        <time>2016-01-03T08:25:41.000Z</time>
      </trkpt>
      <trkpt lat="47.50278" lon="6.76737">
        <ele>399</ele>
        <time>2016-01-03T08:25:42.000Z</time>
      </trkpt>
      <trkpt lat="47.50274" lon="6.76739">
        <ele>399</ele>
        <time>2016-01-03T08:25:43.000Z</time>
      </trkpt>
      <trkpt lat="47.50271" lon="6.7674">
        <ele>399</ele>
        <time>2016-01-03T08:25:44.000Z</time>
      </trkpt>
      <trkpt lat="47.50268" lon="6.76741">
        <ele>399</ele>
        <time>2016-01-03T08:25:45.000Z</time>
      </trkpt>
      <trkpt lat="47.50265" lon="6.76742">
        <ele>399</ele>
        <time>2016-01-03T08:25:46.000Z</time>
      </trkpt>
      <trkpt lat="47.50262" lon="6.76743">
        <ele>399</ele>
        <time>2016-01-03T08:25:47.000Z</time>
      </trkpt>
      <trkpt lat="47.50259" lon="6.76744">
        <ele>399</ele>
        <time>2016-01-03T08:25:48.000Z</time>
      </trkpt>
      <trkpt lat="47.50256" lon="6.76745">
        <ele>400</ele>
        <time>2016-01-03T08:25:49.000Z</time>
      </trkpt>
      <trkpt lat="47.50253" lon="6.76745">
        <ele>400</ele>
        <time>2016-01-03T08:25:50.000Z</time>
      </trkpt>
      <trkpt lat="47.5025" lon="6.76745">
        <ele>400</ele>
        <time>2016-01-03T08:25:51.000Z</time>
      </trkpt>
      <trkpt lat="47.50248" lon="6.76745">
        <ele>400</ele>
        <time>2016-01-03T08:25:52.000Z</time>
      </trkpt>
      <trkpt lat="47.50245" lon="6.76744">
        <ele>401</ele>
        <time>2016-01-03T08:25:53.000Z</time>
      </trkpt>
      <trkpt lat="47.50243" lon="6.76742">
        <ele>401</ele>
        <time>2016-01-03T08:25:54.000Z</time>
      </trkpt>
      <trkpt lat="47.50242" lon="6.76739">
        <ele>401</ele>
        <time>2016-01-03T08:25:55.000Z</time>
      </trkpt>
      <trkpt lat="47.50241" lon="6.76736">
        <ele>401</ele>
        <time>2016-01-03T08:25:56.000Z</time>
      </trkpt>
      <trkpt lat="47.5024" lon="6.76733">
        <ele>401</ele>
        <time>2016-01-03T08:25:57.000Z</time>
      </trkpt>
      <trkpt lat="47.50239" lon="6.7673">
        <ele>401</ele>
        <time>2016-01-03T08:25:58.000Z</time>
      </trkpt>
      <trkpt lat="47.50237" lon="6.76727">
        <ele>401</ele>
        <time>2016-01-03T08:25:59.000Z</time>
      </trkpt>
      <trkpt lat="47.50236" lon="6.76725">
        <ele>401</ele>
        <time>2016-01-03T08:26:00.000Z</time>
      </trkpt>
      <trkpt lat="47.50234" lon="6.76721">
        <ele>402</ele>
        <time>2016-01-03T08:26:01.000Z</time>
      </trkpt>
      <trkpt lat="47.50233" lon="6.76718">
        <ele>402</ele>
        <time>2016-01-03T08:26:02.000Z</time>
      </trkpt>
      <trkpt lat="47.50231" lon="6.76715">
        <ele>402</ele>
        <time>2016-01-03T08:26:03.000Z</time>
      </trkpt>
      <trkpt lat="47.5023" lon="6.76712">
        <ele>402</ele>
        <time>2016-01-03T08:26:04.000Z</time>
      </trkpt>
      <trkpt lat="47.50228" lon="6.76709">
        <ele>402</ele>
        <time>2016-01-03T08:26:05.000Z</time>
      </trkpt>
      <trkpt lat="47.50227" lon="6.76705">
        <ele>402</ele>
        <time>2016-01-03T08:26:06.000Z</time>
      </trkpt>
      <trkpt lat="47.50226" lon="6.76702">
        <ele>402</ele>
        <time>2016-01-03T08:26:07.000Z</time>
      </trkpt>
      <trkpt lat="47.50224" lon="6.76698">
        <ele>402</ele>
        <time>2016-01-03T08:26:08.000Z</time>
      </trkpt>
      <trkpt lat="47.50223" lon="6.76694">
        <ele>402</ele>
        <time>2016-01-03T08:26:09.000Z</time>
      </trkpt>
      <trkpt lat="47.50221" lon="6.7669">
        <ele>402</ele>
        <time>2016-01-03T08:26:10.000Z</time>
      </trkpt>
      <trkpt lat="47.5022" lon="6.76685">
        <ele>402</ele>
        <time>2016-01-03T08:26:11.000Z</time>
      </trkpt>
      <trkpt lat="47.50219" lon="6.76681">
        <ele>402</ele>
        <time>2016-01-03T08:26:12.000Z</time>
      </trkpt>
      <trkpt lat="47.50217" lon="6.76677">
        <ele>402</ele>
        <time>2016-01-03T08:26:13.000Z</time>
      </trkpt>
      <trkpt lat="47.50216" lon="6.76673">
        <ele>402</ele>
        <time>2016-01-03T08:26:14.000Z</time>
      </trkpt>
      <trkpt lat="47.50215" lon="6.76668">
        <ele>402</ele>
        <time>2016-01-03T08:26:15.000Z</time>
      </trkpt>
      <trkpt lat="47.50213" lon="6.76664">
        <ele>402</ele>
        <time>2016-01-03T08:26:16.000Z</time>
      </trkpt>
      <trkpt lat="47.50212" lon="6.7666">
        <ele>402</ele>
        <time>2016-01-03T08:26:17.000Z</time>
      </trkpt>
      <trkpt lat="47.50211" lon="6.76656">
        <ele>402</ele>
        <time>2016-01-03T08:26:18.000Z</time>
      </trkpt>
      <trkpt lat="47.5021" lon="6.76652">
        <ele>402</ele>
        <time>2016-01-03T08:26:19.000Z</time>
      </trkpt>
      <trkpt lat="47.50208" lon="6.76648">
        <ele>402</ele>
        <time>2016-01-03T08:26:20.000Z</time>
      </trkpt>
      <trkpt lat="47.50207" lon="6.76645">
        <ele>402</ele>
        <time>2016-01-03T08:26:21.000Z</time>
      </trkpt>
      <trkpt lat="47.50206" lon="6.76641">
        <ele>402</ele>
        <time>2016-01-03T08:26:22.000Z</time>
      </trkpt>
      <trkpt lat="47.50205" lon="6.76638">
        <ele>402</ele>
        <time>2016-01-03T08:26:23.000Z</time>
      </trkpt>
      <trkpt lat="47.50203" lon="6.76634">
        <ele>402</ele>
        <time>2016-01-03T08:26:24.000Z</time>
      </trkpt>
      <trkpt lat="47.50202" lon="6.76629">
        <ele>402</ele>
        <time>2016-01-03T08:26:25.000Z</time>
      </trkpt>
      <trkpt lat="47.502" lon="6.76625">
        <ele>402</ele>
        <time>2016-01-03T08:26:26.000Z</time>
      </trkpt>
      <trkpt lat="47.50199" lon="6.7662">
        <ele>402</ele>
        <time>2016-01-03T08:26:27.000Z</time>
      </trkpt>
      <trkpt lat="47.50197" lon="6.76616">
        <ele>403</ele>
        <time>2016-01-03T08:26:28.000Z</time>
      </trkpt>
      <trkpt lat="47.50196" lon="6.76611">
        <ele>403</ele>
        <time>2016-01-03T08:26:29.000Z</time>
      </trkpt>
      <trkpt lat="47.50196" lon="6.76607">
        <ele>403</ele>
        <time>2016-01-03T08:26:30.000Z</time>
      </trkpt>
      <trkpt lat="47.50196" lon="6.76603">
        <ele>403</ele>
        <time>2016-01-03T08:26:31.000Z</time>
      </trkpt>
      <trkpt lat="47.50196" lon="6.76599">
        <ele>403</ele>
        <time>2016-01-03T08:26:32.000Z</time>
      </trkpt>
      <trkpt lat="47.50197" lon="6.76593">
        <ele>403</ele>
        <time>2016-01-03T08:26:34.000Z</time>
      </trkpt>
      <trkpt lat="47.50197" lon="6.7659">
        <ele>403</ele>
        <time>2016-01-03T08:26:35.000Z</time>
      </trkpt>
      <trkpt lat="47.50196" lon="6.76585">
        <ele>403</ele>
        <time>2016-01-03T08:26:37.000Z</time>
      </trkpt>
      <trkpt lat="47.50196" lon="6.76583">
        <ele>403</ele>
        <time>2016-01-03T08:26:38.000Z</time>
      </trkpt>
      <trkpt lat="47.50196" lon="6.76578">
        <ele>402</ele>
        <time>2016-01-03T08:26:42.000Z</time>
      </trkpt>
      <trkpt lat="47.50198" lon="6.76577">
        <ele>402</ele>
        <time>2016-01-03T08:26:43.000Z</time>
      </trkpt>
      <trkpt lat="47.50201" lon="6.76574">
        <ele>402</ele>
        <time>2016-01-03T08:26:45.000Z</time>
      </trkpt>
      <trkpt lat="47.50203" lon="6.76572">
        <ele>402</ele>
        <time>2016-01-03T08:26:46.000Z</time>
      </trkpt>
      <trkpt lat="47.50205" lon="6.76569">
        <ele>402</ele>
        <time>2016-01-03T08:26:47.000Z</time>
      </trkpt>
      <trkpt lat="47.50206" lon="6.76566">
        <ele>401</ele>
        <time>2016-01-03T08:26:48.000Z</time>
      </trkpt>
      <trkpt lat="47.50206" lon="6.76561">
        <ele>401</ele>
        <time>2016-01-03T08:26:50.000Z</time>
      </trkpt>
      <trkpt lat="47.50206" lon="6.76557">
        <ele>401</ele>
        <time>2016-01-03T08:26:51.000Z</time>
      </trkpt>
      <trkpt lat="47.50206" lon="6.76553">
        <ele>401</ele>
        <time>2016-01-03T08:26:52.000Z</time>
      </trkpt>
      <trkpt lat="47.50207" lon="6.76549">
        <ele>401</ele>
        <time>2016-01-03T08:26:53.000Z</time>
      </trkpt>
      <trkpt lat="47.50208" lon="6.76546">
        <ele>401</ele>
        <time>2016-01-03T08:26:54.000Z</time>
      </trkpt>
      <trkpt lat="47.5021" lon="6.76543">
        <ele>401</ele>
        <time>2016-01-03T08:26:55.000Z</time>
      </trkpt>
      <trkpt lat="47.50213" lon="6.76539">
        <ele>400</ele>
        <time>2016-01-03T08:26:57.000Z</time>
      </trkpt>
      <trkpt lat="47.50213" lon="6.76536">
        <ele>400</ele>
        <time>2016-01-03T08:26:58.000Z</time>
      </trkpt>
      <trkpt lat="47.50213" lon="6.76533">
        <ele>400</ele>
        <time>2016-01-03T08:26:59.000Z</time>
      </trkpt>
      <trkpt lat="47.50212" lon="6.76529">
        <ele>400</ele>
        <time>2016-01-03T08:27:00.000Z</time>
      </trkpt>
      <trkpt lat="47.50211" lon="6.76524">
        <ele>400</ele>
        <time>2016-01-03T08:27:01.000Z</time>
      </trkpt>
      <trkpt lat="47.50209" lon="6.76518">
        <ele>400</ele>
        <time>2016-01-03T08:27:02.000Z</time>
      </trkpt>
      <trkpt lat="47.50207" lon="6.76513">
        <ele>400</ele>
        <time>2016-01-03T08:27:03.000Z</time>
      </trkpt>
      <trkpt lat="47.50205" lon="6.76506">
        <ele>401</ele>
        <time>2016-01-03T08:27:04.000Z</time>
      </trkpt>
      <trkpt lat="47.50202" lon="6.765">
        <ele>397</ele>
        <time>2016-01-03T08:27:05.000Z</time>
      </trkpt>
      <trkpt lat="47.502" lon="6.76493">
        <ele>398</ele>
        <time>2016-01-03T08:27:06.000Z</time>
      </trkpt>
      <trkpt lat="47.50198" lon="6.76488">
        <ele>398</ele>
        <time>2016-01-03T08:27:07.000Z</time>
      </trkpt>
      <trkpt lat="47.50196" lon="6.76482">
        <ele>398</ele>
        <time>2016-01-03T08:27:08.000Z</time>
      </trkpt>
      <trkpt lat="47.50194" lon="6.76476">
        <ele>398</ele>
        <time>2016-01-03T08:27:09.000Z</time>
      </trkpt>
      <trkpt lat="47.50191" lon="6.76469">
        <ele>397</ele>
        <time>2016-01-03T08:27:10.000Z</time>
      </trkpt>
      <trkpt lat="47.50186" lon="6.76448">
        <ele>397</ele>
        <time>2016-01-03T08:27:11.000Z</time>
      </trkpt>
      <trkpt lat="47.50184" lon="6.76439">
        <ele>397</ele>
        <time>2016-01-03T08:27:12.000Z</time>
      </trkpt>
      <trkpt lat="47.5018" lon="6.76431">
        <ele>397</ele>
        <time>2016-01-03T08:27:13.000Z</time>
      </trkpt>
      <trkpt lat="47.50177" lon="6.76424">
        <ele>397</ele>
        <time>2016-01-03T08:27:14.000Z</time>
      </trkpt>
      <trkpt lat="47.50174" lon="6.76415">
        <ele>396</ele>
        <time>2016-01-03T08:27:15.000Z</time>
      </trkpt>
      <trkpt lat="47.5017" lon="6.76405">
        <ele>395</ele>
        <time>2016-01-03T08:27:16.000Z</time>
      </trkpt>
      <trkpt lat="47.50166" lon="6.76396">
        <ele>400</ele>
        <time>2016-01-03T08:27:17.000Z</time>
      </trkpt>
      <trkpt lat="47.50163" lon="6.76387">
        <ele>400</ele>
        <time>2016-01-03T08:27:18.000Z</time>
      </trkpt>
      <trkpt lat="47.50161" lon="6.76377">
        <ele>400</ele>
        <time>2016-01-03T08:27:19.000Z</time>
      </trkpt>
      <trkpt lat="47.50157" lon="6.76366">
        <ele>399</ele>
        <time>2016-01-03T08:27:20.000Z</time>
      </trkpt>
      <trkpt lat="47.50154" lon="6.76354">
        <ele>398</ele>
        <time>2016-01-03T08:27:21.000Z</time>
      </trkpt>
      <trkpt lat="47.5015" lon="6.76345">
        <ele>398</ele>
        <time>2016-01-03T08:27:22.000Z</time>
      </trkpt>
      <trkpt lat="47.50146" lon="6.76337">
        <ele>398</ele>
        <time>2016-01-03T08:27:23.000Z</time>
      </trkpt>
      <trkpt lat="47.50144" lon="6.76329">
        <ele>395</ele>
        <time>2016-01-03T08:27:24.000Z</time>
      </trkpt>
      <trkpt lat="47.50142" lon="6.76321">
        <ele>396</ele>
        <time>2016-01-03T08:27:25.000Z</time>
      </trkpt>
      <trkpt lat="47.50139" lon="6.76314">
        <ele>396</ele>
        <time>2016-01-03T08:27:26.000Z</time>
      </trkpt>
      <trkpt lat="47.50137" lon="6.76304">
        <ele>396</ele>
        <time>2016-01-03T08:27:27.000Z</time>
      </trkpt>
      <trkpt lat="47.50134" lon="6.76296">
        <ele>396</ele>
        <time>2016-01-03T08:27:28.000Z</time>
      </trkpt>
      <trkpt lat="47.50133" lon="6.76287">
        <ele>396</ele>
        <time>2016-01-03T08:27:29.000Z</time>
      </trkpt>
      <trkpt lat="47.50131" lon="6.76275">
        <ele>396</ele>
        <time>2016-01-03T08:27:30.000Z</time>
      </trkpt>
      <trkpt lat="47.50129" lon="6.76265">
        <ele>396</ele>
        <time>2016-01-03T08:27:31.000Z</time>
      </trkpt>
      <trkpt lat="47.50128" lon="6.76255">
        <ele>396</ele>
        <time>2016-01-03T08:27:32.000Z</time>
      </trkpt>
      <trkpt lat="47.50127" lon="6.76245">
        <ele>392</ele>
        <time>2016-01-03T08:27:33.000Z</time>
      </trkpt>
      <trkpt lat="47.50125" lon="6.76234">
        <ele>392</ele>
        <time>2016-01-03T08:27:34.000Z</time>
      </trkpt>
      <trkpt lat="47.50124" lon="6.76228">
        <ele>391</ele>
        <time>2016-01-03T08:27:35.000Z</time>
      </trkpt>
      <trkpt lat="47.50122" lon="6.7622">
        <ele>391</ele>
        <time>2016-01-03T08:27:36.000Z</time>
      </trkpt>
      <trkpt lat="47.5012" lon="6.76206">
        <ele>391</ele>
        <time>2016-01-03T08:27:37.000Z</time>
      </trkpt>
      <trkpt lat="47.50118" lon="6.76195">
        <ele>391</ele>
        <time>2016-01-03T08:27:38.000Z</time>
      </trkpt>
      <trkpt lat="47.50116" lon="6.76186">
        <ele>391</ele>
        <time>2016-01-03T08:27:39.000Z</time>
      </trkpt>
      <trkpt lat="47.50114" lon="6.76175">
        <ele>391</ele>
        <time>2016-01-03T08:27:40.000Z</time>
      </trkpt>
      <trkpt lat="47.50112" lon="6.76162">
        <ele>387</ele>
        <time>2016-01-03T08:27:41.000Z</time>
      </trkpt>
      <trkpt lat="47.50111" lon="6.76152">
        <ele>387</ele>
        <time>2016-01-03T08:27:42.000Z</time>
      </trkpt>
      <trkpt lat="47.50109" lon="6.76142">
        <ele>387</ele>
        <time>2016-01-03T08:27:43.000Z</time>
      </trkpt>
      <trkpt lat="47.50106" lon="6.76129">
        <ele>386</ele>
        <time>2016-01-03T08:27:44.000Z</time>
      </trkpt>
      <trkpt lat="47.50104" lon="6.76111">
        <ele>386</ele>
        <time>2016-01-03T08:27:45.000Z</time>
      </trkpt>
      <trkpt lat="47.50101" lon="6.76096">
        <ele>386</ele>
        <time>2016-01-03T08:27:46.000Z</time>
      </trkpt>
      <trkpt lat="47.50099" lon="6.76084">
        <ele>386</ele>
        <time>2016-01-03T08:27:47.000Z</time>
      </trkpt>
      <trkpt lat="47.50097" lon="6.76069">
        <ele>383</ele>
        <time>2016-01-03T08:27:48.000Z</time>
      </trkpt>
      <trkpt lat="47.50094" lon="6.76053">
        <ele>381</ele>
        <time>2016-01-03T08:27:49.000Z</time>
      </trkpt>
      <trkpt lat="47.50091" lon="6.76036">
        <ele>380</ele>
        <time>2016-01-03T08:27:50.000Z</time>
      </trkpt>
      <trkpt lat="47.5009" lon="6.76026">
        <ele>380</ele>
        <time>2016-01-03T08:27:51.000Z</time>
      </trkpt>
      <trkpt lat="47.50088" lon="6.76017">
        <ele>380</ele>
        <time>2016-01-03T08:27:52.000Z</time>
      </trkpt>
      <trkpt lat="47.50082" lon="6.76008">
        <ele>382</ele>
        <time>2016-01-03T08:27:53.000Z</time>
      </trkpt>
      <trkpt lat="47.50077" lon="6.76">
        <ele>380</ele>
        <time>2016-01-03T08:27:54.000Z</time>
      </trkpt>
      <trkpt lat="47.50073" lon="6.7599">
        <ele>379</ele>
        <time>2016-01-03T08:27:55.000Z</time>
      </trkpt>
      <trkpt lat="47.50068" lon="6.75982">
        <ele>379</ele>
        <time>2016-01-03T08:27:56.000Z</time>
      </trkpt>
      <trkpt lat="47.50063" lon="6.75971">
        <ele>379</ele>
        <time>2016-01-03T08:27:57.000Z</time>
      </trkpt>
      <trkpt lat="47.50059" lon="6.75961">
        <ele>379</ele>
        <time>2016-01-03T08:27:58.000Z</time>
      </trkpt>
      <trkpt lat="47.50054" lon="6.75951">
        <ele>378</ele>
        <time>2016-01-03T08:27:59.000Z</time>
      </trkpt>
      <trkpt lat="47.50049" lon="6.75941">
        <ele>378</ele>
        <time>2016-01-03T08:28:00.000Z</time>
      </trkpt>
      <trkpt lat="47.50045" lon="6.75934">
        <ele>378</ele>
        <time>2016-01-03T08:28:01.000Z</time>
      </trkpt>
      <trkpt lat="47.50041" lon="6.75928">
        <ele>378</ele>
        <time>2016-01-03T08:28:02.000Z</time>
      </trkpt>
      <trkpt lat="47.50036" lon="6.75919">
        <ele>378</ele>
        <time>2016-01-03T08:28:03.000Z</time>
      </trkpt>
      <trkpt lat="47.5003" lon="6.75908">
        <ele>376</ele>
        <time>2016-01-03T08:28:04.000Z</time>
      </trkpt>
      <trkpt lat="47.50025" lon="6.759">
        <ele>377</ele>
        <time>2016-01-03T08:28:05.000Z</time>
      </trkpt>
      <trkpt lat="47.50019" lon="6.7589">
        <ele>377</ele>
        <time>2016-01-03T08:28:06.000Z</time>
      </trkpt>
      <trkpt lat="47.50014" lon="6.7588">
        <ele>377</ele>
        <time>2016-01-03T08:28:07.000Z</time>
      </trkpt>
      <trkpt lat="47.50008" lon="6.75872">
        <ele>377</ele>
        <time>2016-01-03T08:28:08.000Z</time>
      </trkpt>
      <trkpt lat="47.50004" lon="6.75864">
        <ele>377</ele>
        <time>2016-01-03T08:28:09.000Z</time>
      </trkpt>
      <trkpt lat="47.5" lon="6.75855">
        <ele>377</ele>
        <time>2016-01-03T08:28:10.000Z</time>
      </trkpt>
      <trkpt lat="47.49995" lon="6.75847">
        <ele>378</ele>
        <time>2016-01-03T08:28:11.000Z</time>
      </trkpt>
      <trkpt lat="47.49988" lon="6.75839">
        <ele>378</ele>
        <time>2016-01-03T08:28:12.000Z</time>
      </trkpt>
      <trkpt lat="47.49983" lon="6.7583">
        <ele>376</ele>
        <time>2016-01-03T08:28:13.000Z</time>
      </trkpt>
      <trkpt lat="47.49977" lon="6.75821">
        <ele>375</ele>
        <time>2016-01-03T08:28:14.000Z</time>
      </trkpt>
      <trkpt lat="47.49973" lon="6.75813">
        <ele>375</ele>
        <time>2016-01-03T08:28:15.000Z</time>
      </trkpt>
      <trkpt lat="47.49969" lon="6.75806">
        <ele>374</ele>
        <time>2016-01-03T08:28:16.000Z</time>
      </trkpt>
      <trkpt lat="47.49962" lon="6.75795">
        <ele>374</ele>
        <time>2016-01-03T08:28:17.000Z</time>
      </trkpt>
      <trkpt lat="47.49956" lon="6.75787">
        <ele>374</ele>
        <time>2016-01-03T08:28:18.000Z</time>
      </trkpt>
      <trkpt lat="47.49952" lon="6.75777">
        <ele>373</ele>
        <time>2016-01-03T08:28:19.000Z</time>
      </trkpt>
      <trkpt lat="47.49945" lon="6.75768">
        <ele>373</ele>
        <time>2016-01-03T08:28:20.000Z</time>
      </trkpt>
      <trkpt lat="47.49937" lon="6.7576">
        <ele>372</ele>
        <time>2016-01-03T08:28:21.000Z</time>
      </trkpt>
      <trkpt lat="47.49932" lon="6.7575">
        <ele>370</ele>
        <time>2016-01-03T08:28:22.000Z</time>
      </trkpt>
      <trkpt lat="47.49925" lon="6.75742">
        <ele>370</ele>
        <time>2016-01-03T08:28:23.000Z</time>
      </trkpt>
      <trkpt lat="47.4992" lon="6.75737">
        <ele>370</ele>
        <time>2016-01-03T08:28:24.000Z</time>
      </trkpt>
      <trkpt lat="47.49915" lon="6.75731">
        <ele>366</ele>
        <time>2016-01-03T08:28:25.000Z</time>
      </trkpt>
      <trkpt lat="47.49908" lon="6.75732">
        <ele>366</ele>
        <time>2016-01-03T08:28:26.000Z</time>
      </trkpt>
      <trkpt lat="47.49903" lon="6.75733">
        <ele>365</ele>
        <time>2016-01-03T08:28:27.000Z</time>
      </trkpt>
      <trkpt lat="47.49897" lon="6.75734">
        <ele>365</ele>
        <time>2016-01-03T08:28:28.000Z</time>
      </trkpt>
      <trkpt lat="47.49892" lon="6.75733">
        <ele>364</ele>
        <time>2016-01-03T08:28:29.000Z</time>
      </trkpt>
      <trkpt lat="47.49884" lon="6.75732">
        <ele>364</ele>
        <time>2016-01-03T08:28:30.000Z</time>
      </trkpt>
      <trkpt lat="47.49873" lon="6.75735">
        <ele>363</ele>
        <time>2016-01-03T08:28:31.000Z</time>
      </trkpt>
      <trkpt lat="47.49864" lon="6.75737">
        <ele>362</ele>
        <time>2016-01-03T08:28:32.000Z</time>
      </trkpt>
      <trkpt lat="47.49856" lon="6.75739">
        <ele>361</ele>
        <time>2016-01-03T08:28:33.000Z</time>
      </trkpt>
      <trkpt lat="47.49847" lon="6.75739">
        <ele>361</ele>
        <time>2016-01-03T08:28:34.000Z</time>
      </trkpt>
      <trkpt lat="47.49838" lon="6.75742">
        <ele>360</ele>
        <time>2016-01-03T08:28:35.000Z</time>
      </trkpt>
      <trkpt lat="47.49829" lon="6.75745">
        <ele>357</ele>
        <time>2016-01-03T08:28:36.000Z</time>
      </trkpt>
      <trkpt lat="47.49818" lon="6.75748">
        <ele>355</ele>
        <time>2016-01-03T08:28:37.000Z</time>
      </trkpt>
      <trkpt lat="47.49808" lon="6.7575">
        <ele>354</ele>
        <time>2016-01-03T08:28:38.000Z</time>
      </trkpt>
      <trkpt lat="47.49794" lon="6.75754">
        <ele>359</ele>
        <time>2016-01-03T08:28:39.000Z</time>
      </trkpt>
      <trkpt lat="47.49784" lon="6.75756">
        <ele>358</ele>
        <time>2016-01-03T08:28:40.000Z</time>
      </trkpt>
      <trkpt lat="47.49775" lon="6.75758">
        <ele>357</ele>
        <time>2016-01-03T08:28:41.000Z</time>
      </trkpt>
      <trkpt lat="47.49767" lon="6.75758">
        <ele>356</ele>
        <time>2016-01-03T08:28:42.000Z</time>
      </trkpt>
      <trkpt lat="47.4976" lon="6.75763">
        <ele>356</ele>
        <time>2016-01-03T08:28:43.000Z</time>
      </trkpt>
      <trkpt lat="47.4975" lon="6.75764">
        <ele>353</ele>
        <time>2016-01-03T08:28:44.000Z</time>
      </trkpt>
      <trkpt lat="47.49741" lon="6.75767">
        <ele>353</ele>
        <time>2016-01-03T08:28:45.000Z</time>
      </trkpt>
      <trkpt lat="47.49733" lon="6.75766">
        <ele>353</ele>
        <time>2016-01-03T08:28:46.000Z</time>
      </trkpt>
      <trkpt lat="47.49723" lon="6.7577">
        <ele>354</ele>
        <time>2016-01-03T08:28:47.000Z</time>
      </trkpt>
      <trkpt lat="47.49716" lon="6.75774">
        <ele>354</ele>
        <time>2016-01-03T08:28:48.000Z</time>
      </trkpt>
      <trkpt lat="47.49708" lon="6.75776">
        <ele>353</ele>
        <time>2016-01-03T08:28:49.000Z</time>
      </trkpt>
      <trkpt lat="47.49701" lon="6.75778">
        <ele>353</ele>
        <time>2016-01-03T08:28:50.000Z</time>
      </trkpt>
      <trkpt lat="47.49694" lon="6.75778">
        <ele>353</ele>
        <time>2016-01-03T08:28:51.000Z</time>
      </trkpt>
      <trkpt lat="47.49687" lon="6.75779">
        <ele>352</ele>
        <time>2016-01-03T08:28:52.000Z</time>
      </trkpt>
      <trkpt lat="47.4968" lon="6.75781">
        <ele>352</ele>
        <time>2016-01-03T08:28:53.000Z</time>
      </trkpt>
      <trkpt lat="47.49673" lon="6.75781">
        <ele>352</ele>
        <time>2016-01-03T08:28:54.000Z</time>
      </trkpt>
      <trkpt lat="47.49667" lon="6.75781">
        <ele>347</ele>
        <time>2016-01-03T08:28:55.000Z</time>
      </trkpt>
      <trkpt lat="47.4966" lon="6.75781">
        <ele>347</ele>
        <time>2016-01-03T08:28:56.000Z</time>
      </trkpt>
      <trkpt lat="47.49654" lon="6.75782">
        <ele>347</ele>
        <time>2016-01-03T08:28:57.000Z</time>
      </trkpt>
      <trkpt lat="47.49649" lon="6.7578">
        <ele>346</ele>
        <time>2016-01-03T08:28:58.000Z</time>
      </trkpt>
      <trkpt lat="47.49644" lon="6.75779">
        <ele>346</ele>
        <time>2016-01-03T08:28:59.000Z</time>
      </trkpt>
      <trkpt lat="47.49635" lon="6.75776">
        <ele>346</ele>
        <time>2016-01-03T08:29:00.000Z</time>
      </trkpt>
      <trkpt lat="47.49629" lon="6.75775">
        <ele>345</ele>
        <time>2016-01-03T08:29:01.000Z</time>
      </trkpt>
      <trkpt lat="47.49624" lon="6.75777">
        <ele>345</ele>
        <time>2016-01-03T08:29:02.000Z</time>
      </trkpt>
      <trkpt lat="47.49619" lon="6.75777">
        <ele>345</ele>
        <time>2016-01-03T08:29:03.000Z</time>
      </trkpt>
      <trkpt lat="47.49614" lon="6.75778">
        <ele>344</ele>
        <time>2016-01-03T08:29:04.000Z</time>
      </trkpt>
      <trkpt lat="47.49607" lon="6.75779">
        <ele>344</ele>
        <time>2016-01-03T08:29:05.000Z</time>
      </trkpt>
      <trkpt lat="47.49601" lon="6.7578">
        <ele>344</ele>
        <time>2016-01-03T08:29:06.000Z</time>
      </trkpt>
      <trkpt lat="47.49596" lon="6.75779">
        <ele>343</ele>
        <time>2016-01-03T08:29:07.000Z</time>
      </trkpt>
      <trkpt lat="47.49589" lon="6.75778">
        <ele>342</ele>
        <time>2016-01-03T08:29:08.000Z</time>
      </trkpt>
      <trkpt lat="47.49582" lon="6.75775">
        <ele>336</ele>
        <time>2016-01-03T08:29:09.000Z</time>
      </trkpt>
      <trkpt lat="47.49576" lon="6.75772">
        <ele>336</ele>
        <time>2016-01-03T08:29:10.000Z</time>
      </trkpt>
      <trkpt lat="47.4957" lon="6.7577">
        <ele>336</ele>
        <time>2016-01-03T08:29:11.000Z</time>
      </trkpt>
      <trkpt lat="47.49566" lon="6.75767">
        <ele>335</ele>
        <time>2016-01-03T08:29:12.000Z</time>
      </trkpt>
      <trkpt lat="47.49563" lon="6.75764">
        <ele>335</ele>
        <time>2016-01-03T08:29:13.000Z</time>
      </trkpt>
      <trkpt lat="47.49562" lon="6.75758">
        <ele>335</ele>
        <time>2016-01-03T08:29:15.000Z</time>
      </trkpt>
      <trkpt lat="47.49564" lon="6.75755">
        <ele>335</ele>
        <time>2016-01-03T08:29:16.000Z</time>
      </trkpt>
      <trkpt lat="47.49567" lon="6.75752">
        <ele>335</ele>
        <time>2016-01-03T08:29:17.000Z</time>
      </trkpt>
      <trkpt lat="47.4957" lon="6.75751">
        <ele>335</ele>
        <time>2016-01-03T08:29:18.000Z</time>
      </trkpt>
      <trkpt lat="47.49573" lon="6.75749">
        <ele>331</ele>
        <time>2016-01-03T08:29:19.000Z</time>
      </trkpt>
      <trkpt lat="47.49577" lon="6.75748">
        <ele>332</ele>
        <time>2016-01-03T08:29:20.000Z</time>
      </trkpt>
      <trkpt lat="47.4958" lon="6.75745">
        <ele>332</ele>
        <time>2016-01-03T08:29:21.000Z</time>
      </trkpt>
      <trkpt lat="47.49584" lon="6.75742">
        <ele>333</ele>
        <time>2016-01-03T08:29:22.000Z</time>
      </trkpt>
      <trkpt lat="47.49587" lon="6.75738">
        <ele>333</ele>
        <time>2016-01-03T08:29:23.000Z</time>
      </trkpt>
      <trkpt lat="47.49591" lon="6.7573">
        <ele>332</ele>
        <time>2016-01-03T08:29:24.000Z</time>
      </trkpt>
      <trkpt lat="47.49594" lon="6.75725">
        <ele>332</ele>
        <time>2016-01-03T08:29:25.000Z</time>
      </trkpt>
      <trkpt lat="47.49597" lon="6.75718">
        <ele>331</ele>
        <time>2016-01-03T08:29:26.000Z</time>
      </trkpt>
      <trkpt lat="47.496" lon="6.75713">
        <ele>331</ele>
        <time>2016-01-03T08:29:27.000Z</time>
      </trkpt>
      <trkpt lat="47.49602" lon="6.75706">
        <ele>330</ele>
        <time>2016-01-03T08:29:28.000Z</time>
      </trkpt>
      <trkpt lat="47.49602" lon="6.75698">
        <ele>329</ele>
        <time>2016-01-03T08:29:29.000Z</time>
      </trkpt>
      <trkpt lat="47.496" lon="6.75693">
        <ele>329</ele>
        <time>2016-01-03T08:29:30.000Z</time>
      </trkpt>
      <trkpt lat="47.49596" lon="6.75687">
        <ele>327</ele>
        <time>2016-01-03T08:29:31.000Z</time>
      </trkpt>
      <trkpt lat="47.49593" lon="6.75682">
        <ele>326</ele>
        <time>2016-01-03T08:29:32.000Z</time>
      </trkpt>
      <trkpt lat="47.49589" lon="6.75676">
        <ele>325</ele>
        <time>2016-01-03T08:29:33.000Z</time>
      </trkpt>
      <trkpt lat="47.49585" lon="6.75671">
        <ele>323</ele>
        <time>2016-01-03T08:29:34.000Z</time>
      </trkpt>
      <trkpt lat="47.4958" lon="6.75668">
        <ele>322</ele>
        <time>2016-01-03T08:29:35.000Z</time>
      </trkpt>
      <trkpt lat="47.49574" lon="6.75669">
        <ele>322</ele>
        <time>2016-01-03T08:29:36.000Z</time>
      </trkpt>
      <trkpt lat="47.4957" lon="6.75673">
        <ele>323</ele>
        <time>2016-01-03T08:29:37.000Z</time>
      </trkpt>
      <trkpt lat="47.49566" lon="6.75678">
        <ele>323</ele>
        <time>2016-01-03T08:29:38.000Z</time>
      </trkpt>
      <trkpt lat="47.49562" lon="6.75683">
        <ele>324</ele>
        <time>2016-01-03T08:29:39.000Z</time>
      </trkpt>
      <trkpt lat="47.49558" lon="6.75689">
        <ele>324</ele>
        <time>2016-01-03T08:29:40.000Z</time>
      </trkpt>
      <trkpt lat="47.49555" lon="6.75694">
        <ele>324</ele>
        <time>2016-01-03T08:29:41.000Z</time>
      </trkpt>
      <trkpt lat="47.49551" lon="6.75699">
        <ele>325</ele>
        <time>2016-01-03T08:29:42.000Z</time>
      </trkpt>
      <trkpt lat="47.49547" lon="6.75704">
        <ele>325</ele>
        <time>2016-01-03T08:29:43.000Z</time>
      </trkpt>
      <trkpt lat="47.49542" lon="6.75709">
        <ele>325</ele>
        <time>2016-01-03T08:29:44.000Z</time>
      </trkpt>
      <trkpt lat="47.49538" lon="6.75713">
        <ele>325</ele>
        <time>2016-01-03T08:29:45.000Z</time>
      </trkpt>
      <trkpt lat="47.49533" lon="6.75717">
        <ele>325</ele>
        <time>2016-01-03T08:29:46.000Z</time>
      </trkpt>
      <trkpt lat="47.49528" lon="6.7572">
        <ele>325</ele>
        <time>2016-01-03T08:29:47.000Z</time>
      </trkpt>
      <trkpt lat="47.49524" lon="6.75724">
        <ele>325</ele>
        <time>2016-01-03T08:29:48.000Z</time>
      </trkpt>
      <trkpt lat="47.49519" lon="6.75727">
        <ele>325</ele>
        <time>2016-01-03T08:29:49.000Z</time>
      </trkpt>
      <trkpt lat="47.49514" lon="6.7573">
        <ele>325</ele>
        <time>2016-01-03T08:29:50.000Z</time>
      </trkpt>
      <trkpt lat="47.49509" lon="6.75733">
        <ele>325</ele>
        <time>2016-01-03T08:29:51.000Z</time>
      </trkpt>
      <trkpt lat="47.49504" lon="6.75735">
        <ele>325</ele>
        <time>2016-01-03T08:29:52.000Z</time>
      </trkpt>
      <trkpt lat="47.495" lon="6.75738">
        <ele>324</ele>
        <time>2016-01-03T08:29:53.000Z</time>
      </trkpt>
      <trkpt lat="47.49495" lon="6.7574">
        <ele>323</ele>
        <time>2016-01-03T08:29:54.000Z</time>
      </trkpt>
      <trkpt lat="47.49489" lon="6.7574">
        <ele>323</ele>
        <time>2016-01-03T08:29:55.000Z</time>
      </trkpt>
      <trkpt lat="47.49484" lon="6.75739">
        <ele>322</ele>
        <time>2016-01-03T08:29:56.000Z</time>
      </trkpt>
      <trkpt lat="47.49481" lon="6.75731">
        <ele>322</ele>
        <time>2016-01-03T08:29:57.000Z</time>
      </trkpt>
      <trkpt lat="47.49478" lon="6.75723">
        <ele>322</ele>
        <time>2016-01-03T08:29:58.000Z</time>
      </trkpt>
      <trkpt lat="47.49477" lon="6.75716">
        <ele>321</ele>
        <time>2016-01-03T08:29:59.000Z</time>
      </trkpt>
      <trkpt lat="47.49475" lon="6.7571">
        <ele>321</ele>
        <time>2016-01-03T08:30:00.000Z</time>
      </trkpt>
      <trkpt lat="47.49472" lon="6.75703">
        <ele>321</ele>
        <time>2016-01-03T08:30:01.000Z</time>
      </trkpt>
      <trkpt lat="47.49469" lon="6.75698">
        <ele>321</ele>
        <time>2016-01-03T08:30:02.000Z</time>
      </trkpt>
      <trkpt lat="47.49464" lon="6.75693">
        <ele>321</ele>
        <time>2016-01-03T08:30:03.000Z</time>
      </trkpt>
      <trkpt lat="47.4946" lon="6.75691">
        <ele>321</ele>
        <time>2016-01-03T08:30:04.000Z</time>
      </trkpt>
      <trkpt lat="47.49456" lon="6.75693">
        <ele>321</ele>
        <time>2016-01-03T08:30:05.000Z</time>
      </trkpt>
      <trkpt lat="47.49452" lon="6.75696">
        <ele>321</ele>
        <time>2016-01-03T08:30:06.000Z</time>
      </trkpt>
      <trkpt lat="47.49447" lon="6.75697">
        <ele>321</ele>
        <time>2016-01-03T08:30:07.000Z</time>
      </trkpt>
      <trkpt lat="47.49444" lon="6.75692">
        <ele>321</ele>
        <time>2016-01-03T08:30:08.000Z</time>
      </trkpt>
      <trkpt lat="47.49442" lon="6.75687">
        <ele>320</ele>
        <time>2016-01-03T08:30:09.000Z</time>
      </trkpt>
      <trkpt lat="47.4944" lon="6.75681">
        <ele>320</ele>
        <time>2016-01-03T08:30:10.000Z</time>
      </trkpt>
      <trkpt lat="47.49438" lon="6.75675">
        <ele>320</ele>
        <time>2016-01-03T08:30:11.000Z</time>
      </trkpt>
      <trkpt lat="47.49436" lon="6.7567">
        <ele>320</ele>
        <time>2016-01-03T08:30:12.000Z</time>
      </trkpt>
      <trkpt lat="47.49434" lon="6.75664">
        <ele>320</ele>
        <time>2016-01-03T08:30:13.000Z</time>
      </trkpt>
      <trkpt lat="47.49431" lon="6.75661">
        <ele>320</ele>
        <time>2016-01-03T08:30:14.000Z</time>
      </trkpt>
      <trkpt lat="47.49428" lon="6.7566">
        <ele>320</ele>
        <time>2016-01-03T08:30:15.000Z</time>
      </trkpt>
      <trkpt lat="47.49424" lon="6.75662">
        <ele>319</ele>
        <time>2016-01-03T08:30:16.000Z</time>
      </trkpt>
      <trkpt lat="47.49418" lon="6.75674">
        <ele>319</ele>
        <time>2016-01-03T08:30:17.000Z</time>
      </trkpt>
      <trkpt lat="47.49414" lon="6.75678">
        <ele>319</ele>
        <time>2016-01-03T08:30:18.000Z</time>
      </trkpt>
      <trkpt lat="47.4941" lon="6.75681">
        <ele>319</ele>
        <time>2016-01-03T08:30:19.000Z</time>
      </trkpt>
      <trkpt lat="47.49406" lon="6.75684">
        <ele>319</ele>
        <time>2016-01-03T08:30:20.000Z</time>
      </trkpt>
      <trkpt lat="47.49402" lon="6.75687">
        <ele>319</ele>
        <time>2016-01-03T08:30:21.000Z</time>
      </trkpt>
      <trkpt lat="47.49397" lon="6.7569">
        <ele>319</ele>
        <time>2016-01-03T08:30:22.000Z</time>
      </trkpt>
      <trkpt lat="47.49393" lon="6.75693">
        <ele>319</ele>
        <time>2016-01-03T08:30:23.000Z</time>
      </trkpt>
      <trkpt lat="47.49388" lon="6.75697">
        <ele>319</ele>
        <time>2016-01-03T08:30:24.000Z</time>
      </trkpt>
      <trkpt lat="47.49384" lon="6.757">
        <ele>319</ele>
        <time>2016-01-03T08:30:25.000Z</time>
      </trkpt>
      <trkpt lat="47.4938" lon="6.75703">
        <ele>319</ele>
        <time>2016-01-03T08:30:26.000Z</time>
      </trkpt>
      <trkpt lat="47.49376" lon="6.75705">
        <ele>319</ele>
        <time>2016-01-03T08:30:27.000Z</time>
      </trkpt>
      <trkpt lat="47.49373" lon="6.75707">
        <ele>319</ele>
        <time>2016-01-03T08:30:28.000Z</time>
      </trkpt>
      <trkpt lat="47.4937" lon="6.75709">
        <ele>319</ele>
        <time>2016-01-03T08:30:29.000Z</time>
      </trkpt>
      <trkpt lat="47.49367" lon="6.75712">
        <ele>319</ele>
        <time>2016-01-03T08:30:30.000Z</time>
      </trkpt>
      <trkpt lat="47.49363" lon="6.75716">
        <ele>319</ele>
        <time>2016-01-03T08:30:32.000Z</time>
      </trkpt>
      <trkpt lat="47.49362" lon="6.75718">
        <ele>319</ele>
        <time>2016-01-03T08:30:33.000Z</time>
      </trkpt>
      <trkpt lat="47.4936" lon="6.75719">
        <ele>319</ele>
        <time>2016-01-03T08:30:34.000Z</time>
      </trkpt>
      <trkpt lat="47.49357" lon="6.75721">
        <ele>319</ele>
        <time>2016-01-03T08:30:35.000Z</time>
      </trkpt>
      <trkpt lat="47.49354" lon="6.75721">
        <ele>319</ele>
        <time>2016-01-03T08:30:36.000Z</time>
      </trkpt>
      <trkpt lat="47.49351" lon="6.75722">
        <ele>319</ele>
        <time>2016-01-03T08:30:37.000Z</time>
      </trkpt>
      <trkpt lat="47.49348" lon="6.75723">
        <ele>319</ele>
        <time>2016-01-03T08:30:38.000Z</time>
      </trkpt>
      <trkpt lat="47.49344" lon="6.75724">
        <ele>318</ele>
        <time>2016-01-03T08:30:39.000Z</time>
      </trkpt>
      <trkpt lat="47.49335" lon="6.75732">
        <ele>318</ele>
        <time>2016-01-03T08:30:40.000Z</time>
      </trkpt>
      <trkpt lat="47.49329" lon="6.75736">
        <ele>319</ele>
        <time>2016-01-03T08:30:41.000Z</time>
      </trkpt>
      <trkpt lat="47.49324" lon="6.75741">
        <ele>319</ele>
        <time>2016-01-03T08:30:42.000Z</time>
      </trkpt>
      <trkpt lat="47.4932" lon="6.75743">
        <ele>319</ele>
        <time>2016-01-03T08:30:43.000Z</time>
      </trkpt>
      <trkpt lat="47.49315" lon="6.75746">
        <ele>319</ele>
        <time>2016-01-03T08:30:44.000Z</time>
      </trkpt>
      <trkpt lat="47.49311" lon="6.75754">
        <ele>318</ele>
        <time>2016-01-03T08:30:45.000Z</time>
      </trkpt>
      <trkpt lat="47.49308" lon="6.75761">
        <ele>318</ele>
        <time>2016-01-03T08:30:46.000Z</time>
      </trkpt>
      <trkpt lat="47.49304" lon="6.75767">
        <ele>318</ele>
        <time>2016-01-03T08:30:47.000Z</time>
      </trkpt>
      <trkpt lat="47.493" lon="6.75774">
        <ele>318</ele>
        <time>2016-01-03T08:30:48.000Z</time>
      </trkpt>
      <trkpt lat="47.49295" lon="6.75779">
        <ele>318</ele>
        <time>2016-01-03T08:30:49.000Z</time>
      </trkpt>
      <trkpt lat="47.49291" lon="6.75783">
        <ele>318</ele>
        <time>2016-01-03T08:30:50.000Z</time>
      </trkpt>
      <trkpt lat="47.49287" lon="6.75789">
        <ele>318</ele>
        <time>2016-01-03T08:30:51.000Z</time>
      </trkpt>
      <trkpt lat="47.49283" lon="6.75796">
        <ele>318</ele>
        <time>2016-01-03T08:30:52.000Z</time>
      </trkpt>
      <trkpt lat="47.49279" lon="6.75802">
        <ele>317</ele>
        <time>2016-01-03T08:30:53.000Z</time>
      </trkpt>
      <trkpt lat="47.49274" lon="6.75808">
        <ele>317</ele>
        <time>2016-01-03T08:30:54.000Z</time>
      </trkpt>
      <trkpt lat="47.4927" lon="6.75813">
        <ele>317</ele>
        <time>2016-01-03T08:30:55.000Z</time>
      </trkpt>
      <trkpt lat="47.49267" lon="6.75819">
        <ele>316</ele>
        <time>2016-01-03T08:30:56.000Z</time>
      </trkpt>
      <trkpt lat="47.49263" lon="6.75826">
        <ele>315</ele>
        <time>2016-01-03T08:30:57.000Z</time>
      </trkpt>
      <trkpt lat="47.49259" lon="6.75832">
        <ele>315</ele>
        <time>2016-01-03T08:30:58.000Z</time>
      </trkpt>
      <trkpt lat="47.49256" lon="6.7584">
        <ele>315</ele>
        <time>2016-01-03T08:30:59.000Z</time>
      </trkpt>
      <trkpt lat="47.49251" lon="6.75847">
        <ele>316</ele>
        <time>2016-01-03T08:31:00.000Z</time>
      </trkpt>
      <trkpt lat="47.49249" lon="6.75854">
        <ele>316</ele>
        <time>2016-01-03T08:31:01.000Z</time>
      </trkpt>
      <trkpt lat="47.49245" lon="6.75861">
        <ele>317</ele>
        <time>2016-01-03T08:31:02.000Z</time>
      </trkpt>
      <trkpt lat="47.49242" lon="6.75868">
        <ele>318</ele>
        <time>2016-01-03T08:31:03.000Z</time>
      </trkpt>
      <trkpt lat="47.49239" lon="6.75874">
        <ele>318</ele>
        <time>2016-01-03T08:31:04.000Z</time>
      </trkpt>
      <trkpt lat="47.49236" lon="6.7588">
        <ele>318</ele>
        <time>2016-01-03T08:31:05.000Z</time>
      </trkpt>
      <trkpt lat="47.49233" lon="6.75886">
        <ele>318</ele>
        <time>2016-01-03T08:31:06.000Z</time>
      </trkpt>
      <trkpt lat="47.4923" lon="6.75893">
        <ele>318</ele>
        <time>2016-01-03T08:31:07.000Z</time>
      </trkpt>
      <trkpt lat="47.49228" lon="6.75899">
        <ele>318</ele>
        <time>2016-01-03T08:31:08.000Z</time>
      </trkpt>
      <trkpt lat="47.49225" lon="6.75906">
        <ele>318</ele>
        <time>2016-01-03T08:31:09.000Z</time>
      </trkpt>
      <trkpt lat="47.49221" lon="6.75913">
        <ele>319</ele>
        <time>2016-01-03T08:31:10.000Z</time>
      </trkpt>
      <trkpt lat="47.49217" lon="6.75919">
        <ele>319</ele>
        <time>2016-01-03T08:31:11.000Z</time>
      </trkpt>
      <trkpt lat="47.49212" lon="6.75925">
        <ele>320</ele>
        <time>2016-01-03T08:31:12.000Z</time>
      </trkpt>
      <trkpt lat="47.49209" lon="6.75932">
        <ele>320</ele>
        <time>2016-01-03T08:31:13.000Z</time>
      </trkpt>
      <trkpt lat="47.49206" lon="6.75939">
        <ele>320</ele>
        <time>2016-01-03T08:31:13.999Z</time>
      </trkpt>
      <trkpt lat="47.49199" lon="6.75946">
        <ele>320</ele>
        <time>2016-01-03T08:31:15.000Z</time>
      </trkpt>
      <trkpt lat="47.49196" lon="6.75952">
        <ele>320</ele>
        <time>2016-01-03T08:31:16.000Z</time>
      </trkpt>
      <trkpt lat="47.49194" lon="6.75959">
        <ele>320</ele>
        <time>2016-01-03T08:31:17.000Z</time>
      </trkpt>
      <trkpt lat="47.49191" lon="6.75964">
        <ele>320</ele>
        <time>2016-01-03T08:31:18.000Z</time>
      </trkpt>
      <trkpt lat="47.49188" lon="6.75969">
        <ele>320</ele>
        <time>2016-01-03T08:31:19.000Z</time>
      </trkpt>
      <trkpt lat="47.49186" lon="6.75976">
        <ele>320</ele>
        <time>2016-01-03T08:31:20.000Z</time>
      </trkpt>
      <trkpt lat="47.49182" lon="6.75983">
        <ele>320</ele>
        <time>2016-01-03T08:31:21.000Z</time>
      </trkpt>
      <trkpt lat="47.49179" lon="6.7599">
        <ele>320</ele>
        <time>2016-01-03T08:31:22.000Z</time>
      </trkpt>
      <trkpt lat="47.49176" lon="6.75996">
        <ele>320</ele>
        <time>2016-01-03T08:31:23.000Z</time>
      </trkpt>
      <trkpt lat="47.49173" lon="6.76003">
        <ele>320</ele>
        <time>2016-01-03T08:31:24.000Z</time>
      </trkpt>
      <trkpt lat="47.49171" lon="6.7601">
        <ele>320</ele>
        <time>2016-01-03T08:31:25.000Z</time>
      </trkpt>
      <trkpt lat="47.49168" lon="6.76018">
        <ele>320</ele>
        <time>2016-01-03T08:31:26.000Z</time>
      </trkpt>
      <trkpt lat="47.49165" lon="6.76027">
        <ele>322</ele>
        <time>2016-01-03T08:31:27.000Z</time>
      </trkpt>
      <trkpt lat="47.49162" lon="6.76034">
        <ele>322</ele>
        <time>2016-01-03T08:31:28.000Z</time>
      </trkpt>
      <trkpt lat="47.4916" lon="6.76041">
        <ele>322</ele>
        <time>2016-01-03T08:31:29.000Z</time>
      </trkpt>
      <trkpt lat="47.49157" lon="6.76048">
        <ele>322</ele>
        <time>2016-01-03T08:31:30.000Z</time>
      </trkpt>
      <trkpt lat="47.49155" lon="6.76056">
        <ele>322</ele>
        <time>2016-01-03T08:31:31.000Z</time>
      </trkpt>
      <trkpt lat="47.49152" lon="6.76063">
        <ele>322</ele>
        <time>2016-01-03T08:31:32.000Z</time>
      </trkpt>
      <trkpt lat="47.49149" lon="6.76071">
        <ele>322</ele>
        <time>2016-01-03T08:31:33.000Z</time>
      </trkpt>
      <trkpt lat="47.49147" lon="6.76078">
        <ele>322</ele>
        <time>2016-01-03T08:31:34.000Z</time>
      </trkpt>
      <trkpt lat="47.49145" lon="6.76086">
        <ele>321</ele>
        <time>2016-01-03T08:31:35.000Z</time>
      </trkpt>
      <trkpt lat="47.49143" lon="6.76093">
        <ele>321</ele>
        <time>2016-01-03T08:31:36.000Z</time>
      </trkpt>
      <trkpt lat="47.49141" lon="6.76101">
        <ele>321</ele>
        <time>2016-01-03T08:31:37.000Z</time>
      </trkpt>
      <trkpt lat="47.49139" lon="6.76108">
        <ele>322</ele>
        <time>2016-01-03T08:31:38.000Z</time>
      </trkpt>
      <trkpt lat="47.49137" lon="6.76116">
        <ele>322</ele>
        <time>2016-01-03T08:31:39.000Z</time>
      </trkpt>
      <trkpt lat="47.49135" lon="6.76124">
        <ele>322</ele>
        <time>2016-01-03T08:31:40.000Z</time>
      </trkpt>
      <trkpt lat="47.49133" lon="6.76132">
        <ele>322</ele>
        <time>2016-01-03T08:31:41.000Z</time>
      </trkpt>
      <trkpt lat="47.49132" lon="6.7614">
        <ele>322</ele>
        <time>2016-01-03T08:31:42.000Z</time>
      </trkpt>
      <trkpt lat="47.49131" lon="6.76148">
        <ele>322</ele>
        <time>2016-01-03T08:31:43.000Z</time>
      </trkpt>
      <trkpt lat="47.49131" lon="6.76155">
        <ele>322</ele>
        <time>2016-01-03T08:31:44.000Z</time>
      </trkpt>
      <trkpt lat="47.49132" lon="6.76163">
        <ele>322</ele>
        <time>2016-01-03T08:31:45.000Z</time>
      </trkpt>
      <trkpt lat="47.49131" lon="6.7617">
        <ele>321</ele>
        <time>2016-01-03T08:31:46.000Z</time>
      </trkpt>
      <trkpt lat="47.4913" lon="6.76178">
        <ele>321</ele>
        <time>2016-01-03T08:31:47.000Z</time>
      </trkpt>
      <trkpt lat="47.49129" lon="6.76184">
        <ele>321</ele>
        <time>2016-01-03T08:31:48.000Z</time>
      </trkpt>
      <trkpt lat="47.49129" lon="6.76192">
        <ele>321</ele>
        <time>2016-01-03T08:31:49.000Z</time>
      </trkpt>
      <trkpt lat="47.49129" lon="6.76198">
        <ele>321</ele>
        <time>2016-01-03T08:31:50.000Z</time>
      </trkpt>
      <trkpt lat="47.49129" lon="6.76204">
        <ele>321</ele>
        <time>2016-01-03T08:31:51.000Z</time>
      </trkpt>
      <trkpt lat="47.4913" lon="6.76211">
        <ele>321</ele>
        <time>2016-01-03T08:31:52.000Z</time>
      </trkpt>
      <trkpt lat="47.49129" lon="6.76217">
        <ele>321</ele>
        <time>2016-01-03T08:31:53.000Z</time>
      </trkpt>
      <trkpt lat="47.49129" lon="6.76224">
        <ele>321</ele>
        <time>2016-01-03T08:31:54.000Z</time>
      </trkpt>
      <trkpt lat="47.4913" lon="6.7623">
        <ele>321</ele>
        <time>2016-01-03T08:31:55.000Z</time>
      </trkpt>
      <trkpt lat="47.4913" lon="6.76236">
        <ele>321</ele>
        <time>2016-01-03T08:31:56.000Z</time>
      </trkpt>
      <trkpt lat="47.4913" lon="6.76242">
        <ele>320</ele>
        <time>2016-01-03T08:31:57.000Z</time>
      </trkpt>
      <trkpt lat="47.49131" lon="6.76249">
        <ele>320</ele>
        <time>2016-01-03T08:31:58.000Z</time>
      </trkpt>
      <trkpt lat="47.49132" lon="6.76254">
        <ele>319</ele>
        <time>2016-01-03T08:31:59.000Z</time>
      </trkpt>
      <trkpt lat="47.49133" lon="6.76259">
        <ele>319</ele>
        <time>2016-01-03T08:32:00.000Z</time>
      </trkpt>
      <trkpt lat="47.49134" lon="6.76266">
        <ele>319</ele>
        <time>2016-01-03T08:32:01.000Z</time>
      </trkpt>
      <trkpt lat="47.49135" lon="6.76272">
        <ele>319</ele>
        <time>2016-01-03T08:32:02.000Z</time>
      </trkpt>
      <trkpt lat="47.49135" lon="6.76278">
        <ele>319</ele>
        <time>2016-01-03T08:32:03.000Z</time>
      </trkpt>
      <trkpt lat="47.49133" lon="6.76287">
        <ele>319</ele>
        <time>2016-01-03T08:32:04.000Z</time>
      </trkpt>
      <trkpt lat="47.49131" lon="6.76294">
        <ele>319</ele>
        <time>2016-01-03T08:32:05.000Z</time>
      </trkpt>
      <trkpt lat="47.49132" lon="6.76299">
        <ele>319</ele>
        <time>2016-01-03T08:32:06.000Z</time>
      </trkpt>
      <trkpt lat="47.49133" lon="6.76309">
        <ele>319</ele>
        <time>2016-01-03T08:32:07.000Z</time>
      </trkpt>
      <trkpt lat="47.49134" lon="6.76315">
        <ele>319</ele>
        <time>2016-01-03T08:32:08.000Z</time>
      </trkpt>
      <trkpt lat="47.49135" lon="6.76322">
        <ele>318</ele>
        <time>2016-01-03T08:32:09.000Z</time>
      </trkpt>
      <trkpt lat="47.49135" lon="6.76331">
        <ele>318</ele>
        <time>2016-01-03T08:32:10.000Z</time>
      </trkpt>
      <trkpt lat="47.49135" lon="6.7634">
        <ele>317</ele>
        <time>2016-01-03T08:32:11.000Z</time>
      </trkpt>
      <trkpt lat="47.49135" lon="6.76347">
        <ele>317</ele>
        <time>2016-01-03T08:32:12.000Z</time>
      </trkpt>
      <trkpt lat="47.49135" lon="6.76357">
        <ele>317</ele>
        <time>2016-01-03T08:32:13.000Z</time>
      </trkpt>
      <trkpt lat="47.49134" lon="6.76364">
        <ele>317</ele>
        <time>2016-01-03T08:32:14.000Z</time>
      </trkpt>
      <trkpt lat="47.49134" lon="6.7637">
        <ele>317</ele>
        <time>2016-01-03T08:32:15.000Z</time>
      </trkpt>
      <trkpt lat="47.49132" lon="6.76379">
        <ele>317</ele>
        <time>2016-01-03T08:32:16.000Z</time>
      </trkpt>
      <trkpt lat="47.49132" lon="6.76388">
        <ele>317</ele>
        <time>2016-01-03T08:32:17.000Z</time>
      </trkpt>
      <trkpt lat="47.49132" lon="6.76395">
        <ele>317</ele>
        <time>2016-01-03T08:32:18.000Z</time>
      </trkpt>
      <trkpt lat="47.49131" lon="6.76404">
        <ele>317</ele>
        <time>2016-01-03T08:32:19.000Z</time>
      </trkpt>
      <trkpt lat="47.49131" lon="6.76412">
        <ele>317</ele>
        <time>2016-01-03T08:32:20.000Z</time>
      </trkpt>
      <trkpt lat="47.49131" lon="6.76421">
        <ele>317</ele>
        <time>2016-01-03T08:32:21.000Z</time>
      </trkpt>
      <trkpt lat="47.4913" lon="6.7643">
        <ele>317</ele>
        <time>2016-01-03T08:32:22.000Z</time>
      </trkpt>
      <trkpt lat="47.49131" lon="6.76439">
        <ele>317</ele>
        <time>2016-01-03T08:32:23.000Z</time>
      </trkpt>
      <trkpt lat="47.49132" lon="6.76448">
        <ele>317</ele>
        <time>2016-01-03T08:32:24.000Z</time>
      </trkpt>
      <trkpt lat="47.49131" lon="6.76458">
        <ele>317</ele>
        <time>2016-01-03T08:32:25.000Z</time>
      </trkpt>
      <trkpt lat="47.4913" lon="6.76466">
        <ele>317</ele>
        <time>2016-01-03T08:32:26.000Z</time>
      </trkpt>
      <trkpt lat="47.4913" lon="6.76474">
        <ele>317</ele>
        <time>2016-01-03T08:32:27.000Z</time>
      </trkpt>
      <trkpt lat="47.49129" lon="6.76483">
        <ele>317</ele>
        <time>2016-01-03T08:32:28.000Z</time>
      </trkpt>
      <trkpt lat="47.49129" lon="6.7649">
        <ele>317</ele>
        <time>2016-01-03T08:32:29.000Z</time>
      </trkpt>
      <trkpt lat="47.49128" lon="6.76499">
        <ele>317</ele>
        <time>2016-01-03T08:32:30.000Z</time>
      </trkpt>
      <trkpt lat="47.4913" lon="6.76505">
        <ele>316</ele>
        <time>2016-01-03T08:32:31.000Z</time>
      </trkpt>
      <trkpt lat="47.4913" lon="6.76513">
        <ele>316</ele>
        <time>2016-01-03T08:32:32.000Z</time>
      </trkpt>
      <trkpt lat="47.49133" lon="6.76516">
        <ele>316</ele>
        <time>2016-01-03T08:32:33.000Z</time>
      </trkpt>
      <trkpt lat="47.49141" lon="6.76513">
        <ele>315</ele>
        <time>2016-01-03T08:32:34.000Z</time>
      </trkpt>
      <trkpt lat="47.49147" lon="6.76514">
        <ele>315</ele>
        <time>2016-01-03T08:32:35.000Z</time>
      </trkpt>
      <trkpt lat="47.49152" lon="6.76513">
        <ele>315</ele>
        <time>2016-01-03T08:32:36.000Z</time>
      </trkpt>
      <trkpt lat="47.49156" lon="6.76508">
        <ele>314</ele>
        <time>2016-01-03T08:32:37.000Z</time>
      </trkpt>
      <trkpt lat="47.49161" lon="6.76506">
        <ele>314</ele>
        <time>2016-01-03T08:32:38.000Z</time>
      </trkpt>
      <trkpt lat="47.49165" lon="6.76503">
        <ele>313</ele>
        <time>2016-01-03T08:32:39.000Z</time>
      </trkpt>
      <trkpt lat="47.49168" lon="6.765">
        <ele>313</ele>
        <time>2016-01-03T08:32:40.000Z</time>
      </trkpt>
      <trkpt lat="47.49172" lon="6.76497">
        <ele>314</ele>
        <time>2016-01-03T08:32:41.000Z</time>
      </trkpt>
      <trkpt lat="47.49175" lon="6.76494">
        <ele>315</ele>
        <time>2016-01-03T08:32:42.000Z</time>
      </trkpt>
      <trkpt lat="47.49176" lon="6.76491">
        <ele>315</ele>
        <time>2016-01-03T08:32:43.000Z</time>
      </trkpt>
      <trkpt lat="47.49176" lon="6.76485">
        <ele>315</ele>
        <time>2016-01-03T08:32:45.000Z</time>
      </trkpt>
      <trkpt lat="47.49174" lon="6.76483">
        <ele>315</ele>
        <time>2016-01-03T08:32:46.000Z</time>
      </trkpt>
      <trkpt lat="47.49171" lon="6.76481">
        <ele>315</ele>
        <time>2016-01-03T08:32:48.000Z</time>
      </trkpt>
      <trkpt lat="47.4917" lon="6.7648">
        <ele>316</ele>
        <time>2016-01-03T08:32:49.000Z</time>
      </trkpt>
      <trkpt lat="47.49172" lon="6.76484">
        <ele>315</ele>
        <time>2016-01-03T08:35:02.000Z</time>
      </trkpt>
      <trkpt lat="47.49173" lon="6.76484">
        <ele>315</ele>
        <time>2016-01-03T08:35:03.000Z</time>
      </trkpt>
      <trkpt lat="47.49177" lon="6.76487">
        <ele>315</ele>
        <time>2016-01-03T08:35:06.000Z</time>
      </trkpt>
      <trkpt lat="47.49178" lon="6.76489">
        <ele>315</ele>
        <time>2016-01-03T08:35:07.000Z</time>
      </trkpt>
      <trkpt lat="47.49179" lon="6.76492">
        <ele>315</ele>
        <time>2016-01-03T08:35:08.000Z</time>
      </trkpt>
      <trkpt lat="47.4918" lon="6.76496">
        <ele>315</ele>
        <time>2016-01-03T08:35:09.000Z</time>
      </trkpt>
      <trkpt lat="47.49179" lon="6.76499">
        <ele>315</ele>
        <time>2016-01-03T08:35:10.000Z</time>
      </trkpt>
      <trkpt lat="47.49178" lon="6.76502">
        <ele>314</ele>
        <time>2016-01-03T08:35:11.000Z</time>
      </trkpt>
      <trkpt lat="47.49175" lon="6.76504">
        <ele>314</ele>
        <time>2016-01-03T08:35:12.000Z</time>
      </trkpt>
      <trkpt lat="47.49172" lon="6.76506">
        <ele>314</ele>
        <time>2016-01-03T08:35:13.000Z</time>
      </trkpt>
      <trkpt lat="47.49168" lon="6.76508">
        <ele>314</ele>
        <time>2016-01-03T08:35:14.000Z</time>
      </trkpt>
      <trkpt lat="47.49159" lon="6.76513">
        <ele>314</ele>
        <time>2016-01-03T08:35:15.000Z</time>
      </trkpt>
      <trkpt lat="47.49155" lon="6.76516">
        <ele>315</ele>
        <time>2016-01-03T08:35:16.000Z</time>
      </trkpt>
      <trkpt lat="47.4915" lon="6.76519">
        <ele>315</ele>
        <time>2016-01-03T08:35:17.000Z</time>
      </trkpt>
      <trkpt lat="47.49145" lon="6.76522">
        <ele>315</ele>
        <time>2016-01-03T08:35:18.000Z</time>
      </trkpt>
      <trkpt lat="47.4914" lon="6.76522">
        <ele>315</ele>
        <time>2016-01-03T08:35:19.000Z</time>
      </trkpt>
      <trkpt lat="47.49135" lon="6.76522">
        <ele>316</ele>
        <time>2016-01-03T08:35:20.000Z</time>
      </trkpt>
      <trkpt lat="47.49131" lon="6.76521">
        <ele>316</ele>
        <time>2016-01-03T08:35:21.000Z</time>
      </trkpt>
      <trkpt lat="47.49128" lon="6.76518">
        <ele>316</ele>
        <time>2016-01-03T08:35:22.000Z</time>
      </trkpt>
      <trkpt lat="47.49124" lon="6.76516">
        <ele>316</ele>
        <time>2016-01-03T08:35:23.000Z</time>
      </trkpt>
      <trkpt lat="47.49123" lon="6.76509">
        <ele>316</ele>
        <time>2016-01-03T08:35:24.000Z</time>
      </trkpt>
      <trkpt lat="47.49122" lon="6.76503">
        <ele>316</ele>
        <time>2016-01-03T08:35:25.000Z</time>
      </trkpt>
      <trkpt lat="47.49122" lon="6.76497">
        <ele>317</ele>
        <time>2016-01-03T08:35:26.000Z</time>
      </trkpt>
      <trkpt lat="47.49122" lon="6.76492">
        <ele>317</ele>
        <time>2016-01-03T08:35:27.000Z</time>
      </trkpt>
      <trkpt lat="47.49123" lon="6.76486">
        <ele>317</ele>
        <time>2016-01-03T08:35:28.000Z</time>
      </trkpt>
      <trkpt lat="47.49123" lon="6.76481">
        <ele>317</ele>
        <time>2016-01-03T08:35:29.000Z</time>
      </trkpt>
      <trkpt lat="47.49123" lon="6.76475">
        <ele>317</ele>
        <time>2016-01-03T08:35:30.000Z</time>
      </trkpt>
      <trkpt lat="47.49123" lon="6.7647">
        <ele>317</ele>
        <time>2016-01-03T08:35:31.000Z</time>
      </trkpt>
      <trkpt lat="47.49123" lon="6.76465">
        <ele>317</ele>
        <time>2016-01-03T08:35:32.000Z</time>
      </trkpt>
      <trkpt lat="47.49124" lon="6.76461">
        <ele>317</ele>
        <time>2016-01-03T08:35:33.000Z</time>
      </trkpt>
      <trkpt lat="47.49124" lon="6.76456">
        <ele>317</ele>
        <time>2016-01-03T08:35:34.000Z</time>
      </trkpt>
      <trkpt lat="47.49124" lon="6.76452">
        <ele>317</ele>
        <time>2016-01-03T08:35:35.000Z</time>
      </trkpt>
      <trkpt lat="47.49125" lon="6.76448">
        <ele>317</ele>
        <time>2016-01-03T08:35:36.000Z</time>
      </trkpt>
      <trkpt lat="47.49125" lon="6.76444">
        <ele>317</ele>
        <time>2016-01-03T08:35:37.000Z</time>
      </trkpt>
      <trkpt lat="47.49125" lon="6.7644">
        <ele>317</ele>
        <time>2016-01-03T08:35:38.000Z</time>
      </trkpt>
      <trkpt lat="47.49124" lon="6.76434">
        <ele>317</ele>
        <time>2016-01-03T08:35:40.000Z</time>
      </trkpt>
      <trkpt lat="47.49123" lon="6.76431">
        <ele>317</ele>
        <time>2016-01-03T08:35:41.000Z</time>
      </trkpt>
      <trkpt lat="47.49121" lon="6.76427">
        <ele>317</ele>
        <time>2016-01-03T08:35:43.000Z</time>
      </trkpt>
      <trkpt lat="47.49119" lon="6.76427">
        <ele>317</ele>
        <time>2016-01-03T08:35:44.000Z</time>
      </trkpt>
      <trkpt lat="47.49116" lon="6.76426">
        <ele>318</ele>
        <time>2016-01-03T08:35:45.000Z</time>
      </trkpt>
      <trkpt lat="47.49114" lon="6.76427">
        <ele>318</ele>
        <time>2016-01-03T08:35:46.000Z</time>
      </trkpt>
      <trkpt lat="47.49111" lon="6.76427">
        <ele>318</ele>
        <time>2016-01-03T08:35:47.000Z</time>
      </trkpt>
      <trkpt lat="47.49108" lon="6.76426">
        <ele>318</ele>
        <time>2016-01-03T08:35:48.000Z</time>
      </trkpt>
      <trkpt lat="47.49105" lon="6.76425">
        <ele>318</ele>
        <time>2016-01-03T08:35:49.000Z</time>
      </trkpt>
      <trkpt lat="47.49103" lon="6.76421">
        <ele>319</ele>
        <time>2016-01-03T08:35:50.000Z</time>
      </trkpt>
      <trkpt lat="47.49102" lon="6.76417">
        <ele>319</ele>
        <time>2016-01-03T08:35:51.000Z</time>
      </trkpt>
      <trkpt lat="47.49102" lon="6.76412">
        <ele>319</ele>
        <time>2016-01-03T08:35:52.000Z</time>
      </trkpt>
      <trkpt lat="47.49103" lon="6.76407">
        <ele>319</ele>
        <time>2016-01-03T08:35:53.000Z</time>
      </trkpt>
      <trkpt lat="47.49103" lon="6.76403">
        <ele>319</ele>
        <time>2016-01-03T08:35:54.000Z</time>
      </trkpt>
      <trkpt lat="47.49102" lon="6.76399">
        <ele>319</ele>
        <time>2016-01-03T08:35:55.000Z</time>
      </trkpt>
      <trkpt lat="47.49102" lon="6.76395">
        <ele>319</ele>
        <time>2016-01-03T08:35:56.000Z</time>
      </trkpt>
      <trkpt lat="47.49101" lon="6.76391">
        <ele>319</ele>
        <time>2016-01-03T08:35:57.000Z</time>
      </trkpt>
      <trkpt lat="47.49101" lon="6.76387">
        <ele>319</ele>
        <time>2016-01-03T08:35:58.000Z</time>
      </trkpt>
      <trkpt lat="47.49101" lon="6.76381">
        <ele>319</ele>
        <time>2016-01-03T08:36:00.000Z</time>
      </trkpt>
      <trkpt lat="47.49101" lon="6.76378">
        <ele>319</ele>
        <time>2016-01-03T08:36:01.000Z</time>
      </trkpt>
      <trkpt lat="47.49101" lon="6.76371">
        <ele>319</ele>
        <time>2016-01-03T08:36:03.000Z</time>
      </trkpt>
      <trkpt lat="47.49101" lon="6.76367">
        <ele>319</ele>
        <time>2016-01-03T08:36:04.000Z</time>
      </trkpt>
      <trkpt lat="47.491" lon="6.76363">
        <ele>319</ele>
        <time>2016-01-03T08:36:05.000Z</time>
      </trkpt>
      <trkpt lat="47.491" lon="6.76358">
        <ele>319</ele>
        <time>2016-01-03T08:36:06.000Z</time>
      </trkpt>
      <trkpt lat="47.49099" lon="6.76352">
        <ele>320</ele>
        <time>2016-01-03T08:36:07.000Z</time>
      </trkpt>
      <trkpt lat="47.49099" lon="6.76349">
        <ele>320</ele>
        <time>2016-01-03T08:36:08.000Z</time>
      </trkpt>
      <trkpt lat="47.49101" lon="6.76343">
        <ele>320</ele>
        <time>2016-01-03T08:36:10.000Z</time>
      </trkpt>
      <trkpt lat="47.49101" lon="6.76341">
        <ele>320</ele>
        <time>2016-01-03T08:36:11.000Z</time>
      </trkpt>
      <trkpt lat="47.49102" lon="6.76335">
        <ele>320</ele>
        <time>2016-01-03T08:36:13.000Z</time>
      </trkpt>
      <trkpt lat="47.49102" lon="6.76332">
        <ele>321</ele>
        <time>2016-01-03T08:36:14.000Z</time>
      </trkpt>
      <trkpt lat="47.49102" lon="6.76327">
        <ele>321</ele>
        <time>2016-01-03T08:36:15.000Z</time>
      </trkpt>
      <trkpt lat="47.49102" lon="6.76323">
        <ele>321</ele>
        <time>2016-01-03T08:36:16.000Z</time>
      </trkpt>
      <trkpt lat="47.49101" lon="6.76318">
        <ele>321</ele>
        <time>2016-01-03T08:36:17.000Z</time>
      </trkpt>
      <trkpt lat="47.49101" lon="6.76313">
        <ele>321</ele>
        <time>2016-01-03T08:36:18.000Z</time>
      </trkpt>
      <trkpt lat="47.491" lon="6.76309">
        <ele>321</ele>
        <time>2016-01-03T08:36:19.000Z</time>
      </trkpt>
      <trkpt lat="47.491" lon="6.76305">
        <ele>321</ele>
        <time>2016-01-03T08:36:20.000Z</time>
      </trkpt>
      <trkpt lat="47.491" lon="6.763">
        <ele>321</ele>
        <time>2016-01-03T08:36:21.000Z</time>
      </trkpt>
      <trkpt lat="47.49099" lon="6.76296">
        <ele>321</ele>
        <time>2016-01-03T08:36:22.000Z</time>
      </trkpt>
      <trkpt lat="47.49099" lon="6.7629">
        <ele>321</ele>
        <time>2016-01-03T08:36:23.000Z</time>
      </trkpt>
      <trkpt lat="47.49098" lon="6.76284">
        <ele>321</ele>
        <time>2016-01-03T08:36:24.000Z</time>
      </trkpt>
      <trkpt lat="47.49098" lon="6.76277">
        <ele>321</ele>
        <time>2016-01-03T08:36:25.000Z</time>
      </trkpt>
      <trkpt lat="47.49097" lon="6.76271">
        <ele>322</ele>
        <time>2016-01-03T08:36:26.000Z</time>
      </trkpt>
      <trkpt lat="47.49096" lon="6.76266">
        <ele>322</ele>
        <time>2016-01-03T08:36:27.000Z</time>
      </trkpt>
      <trkpt lat="47.49096" lon="6.76261">
        <ele>322</ele>
        <time>2016-01-03T08:36:28.000Z</time>
      </trkpt>
      <trkpt lat="47.49096" lon="6.76255">
        <ele>323</ele>
        <time>2016-01-03T08:36:29.000Z</time>
      </trkpt>
      <trkpt lat="47.49096" lon="6.76249">
        <ele>323</ele>
        <time>2016-01-03T08:36:30.000Z</time>
      </trkpt>
      <trkpt lat="47.49095" lon="6.76243">
        <ele>323</ele>
        <time>2016-01-03T08:36:31.000Z</time>
      </trkpt>
      <trkpt lat="47.49095" lon="6.76238">
        <ele>323</ele>
        <time>2016-01-03T08:36:32.000Z</time>
      </trkpt>
      <trkpt lat="47.49095" lon="6.76232">
        <ele>323</ele>
        <time>2016-01-03T08:36:33.000Z</time>
      </trkpt>
      <trkpt lat="47.49094" lon="6.76228">
        <ele>323</ele>
        <time>2016-01-03T08:36:34.000Z</time>
      </trkpt>
      <trkpt lat="47.49094" lon="6.76224">
        <ele>322</ele>
        <time>2016-01-03T08:36:35.000Z</time>
      </trkpt>
      <trkpt lat="47.49094" lon="6.7622">
        <ele>322</ele>
        <time>2016-01-03T08:36:36.000Z</time>
      </trkpt>
      <trkpt lat="47.49094" lon="6.76216">
        <ele>322</ele>
        <time>2016-01-03T08:36:37.000Z</time>
      </trkpt>
      <trkpt lat="47.49095" lon="6.76211">
        <ele>322</ele>
        <time>2016-01-03T08:36:38.000Z</time>
      </trkpt>
      <trkpt lat="47.49096" lon="6.76206">
        <ele>322</ele>
        <time>2016-01-03T08:36:39.000Z</time>
      </trkpt>
      <trkpt lat="47.49098" lon="6.76201">
        <ele>322</ele>
        <time>2016-01-03T08:36:40.000Z</time>
      </trkpt>
      <trkpt lat="47.491" lon="6.76196">
        <ele>322</ele>
        <time>2016-01-03T08:36:41.000Z</time>
      </trkpt>
      <trkpt lat="47.49101" lon="6.76192">
        <ele>322</ele>
        <time>2016-01-03T08:36:42.000Z</time>
      </trkpt>
      <trkpt lat="47.49102" lon="6.76187">
        <ele>322</ele>
        <time>2016-01-03T08:36:43.000Z</time>
      </trkpt>
      <trkpt lat="47.49102" lon="6.76182">
        <ele>322</ele>
        <time>2016-01-03T08:36:44.000Z</time>
      </trkpt>
      <trkpt lat="47.49102" lon="6.76176">
        <ele>322</ele>
        <time>2016-01-03T08:36:45.000Z</time>
      </trkpt>
      <trkpt lat="47.49101" lon="6.7617">
        <ele>322</ele>
        <time>2016-01-03T08:36:46.000Z</time>
      </trkpt>
      <trkpt lat="47.491" lon="6.76164">
        <ele>323</ele>
        <time>2016-01-03T08:36:47.000Z</time>
      </trkpt>
      <trkpt lat="47.491" lon="6.76158">
        <ele>323</ele>
        <time>2016-01-03T08:36:48.000Z</time>
      </trkpt>
      <trkpt lat="47.491" lon="6.76153">
        <ele>323</ele>
        <time>2016-01-03T08:36:49.000Z</time>
      </trkpt>
      <trkpt lat="47.491" lon="6.76148">
        <ele>323</ele>
        <time>2016-01-03T08:36:50.000Z</time>
      </trkpt>
      <trkpt lat="47.491" lon="6.76144">
        <ele>323</ele>
        <time>2016-01-03T08:36:51.000Z</time>
      </trkpt>
      <trkpt lat="47.491" lon="6.7614">
        <ele>323</ele>
        <time>2016-01-03T08:36:52.000Z</time>
      </trkpt>
      <trkpt lat="47.49099" lon="6.76136">
        <ele>323</ele>
        <time>2016-01-03T08:36:53.000Z</time>
      </trkpt>
      <trkpt lat="47.49099" lon="6.76132">
        <ele>323</ele>
        <time>2016-01-03T08:36:54.000Z</time>
      </trkpt>
      <trkpt lat="47.49098" lon="6.76128">
        <ele>323</ele>
        <time>2016-01-03T08:36:55.000Z</time>
      </trkpt>
      <trkpt lat="47.49098" lon="6.76122">
        <ele>323</ele>
        <time>2016-01-03T08:36:56.000Z</time>
      </trkpt>
      <trkpt lat="47.49098" lon="6.76118">
        <ele>324</ele>
        <time>2016-01-03T08:36:57.000Z</time>
      </trkpt>
      <trkpt lat="47.49098" lon="6.76114">
        <ele>324</ele>
        <time>2016-01-03T08:36:58.000Z</time>
      </trkpt>
      <trkpt lat="47.49097" lon="6.76109">
        <ele>324</ele>
        <time>2016-01-03T08:36:59.000Z</time>
      </trkpt>
      <trkpt lat="47.49098" lon="6.76105">
        <ele>324</ele>
        <time>2016-01-03T08:37:00.000Z</time>
      </trkpt>
      <trkpt lat="47.49098" lon="6.761">
        <ele>325</ele>
        <time>2016-01-03T08:37:01.000Z</time>
      </trkpt>
      <trkpt lat="47.49098" lon="6.76096">
        <ele>325</ele>
        <time>2016-01-03T08:37:02.000Z</time>
      </trkpt>
      <trkpt lat="47.49098" lon="6.76091">
        <ele>325</ele>
        <time>2016-01-03T08:37:03.000Z</time>
      </trkpt>
      <trkpt lat="47.49098" lon="6.76087">
        <ele>325</ele>
        <time>2016-01-03T08:37:04.000Z</time>
      </trkpt>
      <trkpt lat="47.49099" lon="6.76082">
        <ele>326</ele>
        <time>2016-01-03T08:37:05.000Z</time>
      </trkpt>
      <trkpt lat="47.49099" lon="6.76078">
        <ele>326</ele>
        <time>2016-01-03T08:37:06.000Z</time>
      </trkpt>
      <trkpt lat="47.49099" lon="6.76074">
        <ele>326</ele>
        <time>2016-01-03T08:37:07.000Z</time>
      </trkpt>
      <trkpt lat="47.491" lon="6.7607">
        <ele>326</ele>
        <time>2016-01-03T08:37:08.000Z</time>
      </trkpt>
      <trkpt lat="47.49101" lon="6.76066">
        <ele>326</ele>
        <time>2016-01-03T08:37:09.000Z</time>
      </trkpt>
      <trkpt lat="47.49102" lon="6.76061">
        <ele>326</ele>
        <time>2016-01-03T08:37:10.000Z</time>
      </trkpt>
      <trkpt lat="47.49104" lon="6.76057">
        <ele>326</ele>
        <time>2016-01-03T08:37:11.000Z</time>
      </trkpt>
      <trkpt lat="47.49106" lon="6.76053">
        <ele>326</ele>
        <time>2016-01-03T08:37:12.000Z</time>
      </trkpt>
      <trkpt lat="47.49107" lon="6.76049">
        <ele>326</ele>
        <time>2016-01-03T08:37:13.000Z</time>
      </trkpt>
      <trkpt lat="47.49109" lon="6.76045">
        <ele>326</ele>
        <time>2016-01-03T08:37:14.000Z</time>
      </trkpt>
      <trkpt lat="47.4911" lon="6.76041">
        <ele>326</ele>
        <time>2016-01-03T08:37:15.000Z</time>
      </trkpt>
      <trkpt lat="47.49111" lon="6.76036">
        <ele>326</ele>
        <time>2016-01-03T08:37:16.000Z</time>
      </trkpt>
      <trkpt lat="47.49112" lon="6.76032">
        <ele>326</ele>
        <time>2016-01-03T08:37:17.000Z</time>
      </trkpt>
      <trkpt lat="47.49113" lon="6.76028">
        <ele>326</ele>
        <time>2016-01-03T08:37:18.000Z</time>
      </trkpt>
      <trkpt lat="47.49114" lon="6.76024">
        <ele>326</ele>
        <time>2016-01-03T08:37:19.000Z</time>
      </trkpt>
      <trkpt lat="47.49114" lon="6.7602">
        <ele>326</ele>
        <time>2016-01-03T08:37:20.000Z</time>
      </trkpt>
      <trkpt lat="47.49115" lon="6.76015">
        <ele>326</ele>
        <time>2016-01-03T08:37:21.000Z</time>
      </trkpt>
      <trkpt lat="47.49116" lon="6.7601">
        <ele>326</ele>
        <time>2016-01-03T08:37:22.000Z</time>
      </trkpt>
      <trkpt lat="47.49117" lon="6.76005">
        <ele>326</ele>
        <time>2016-01-03T08:37:23.000Z</time>
      </trkpt>
      <trkpt lat="47.49118" lon="6.76001">
        <ele>326</ele>
        <time>2016-01-03T08:37:24.000Z</time>
      </trkpt>
      <trkpt lat="47.49119" lon="6.75996">
        <ele>328</ele>
        <time>2016-01-03T08:37:25.000Z</time>
      </trkpt>
      <trkpt lat="47.4912" lon="6.75991">
        <ele>328</ele>
        <time>2016-01-03T08:37:26.000Z</time>
      </trkpt>
      <trkpt lat="47.49121" lon="6.75986">
        <ele>328</ele>
        <time>2016-01-03T08:37:27.000Z</time>
      </trkpt>
      <trkpt lat="47.49122" lon="6.75981">
        <ele>328</ele>
        <time>2016-01-03T08:37:28.000Z</time>
      </trkpt>
      <trkpt lat="47.49123" lon="6.75975">
        <ele>328</ele>
        <time>2016-01-03T08:37:29.000Z</time>
      </trkpt>
      <trkpt lat="47.49124" lon="6.7597">
        <ele>328</ele>
        <time>2016-01-03T08:37:30.000Z</time>
      </trkpt>
      <trkpt lat="47.49125" lon="6.75965">
        <ele>328</ele>
        <time>2016-01-03T08:37:31.000Z</time>
      </trkpt>
      <trkpt lat="47.49126" lon="6.7596">
        <ele>328</ele>
        <time>2016-01-03T08:37:32.000Z</time>
      </trkpt>
      <trkpt lat="47.49128" lon="6.75956">
        <ele>328</ele>
        <time>2016-01-03T08:37:33.000Z</time>
      </trkpt>
      <trkpt lat="47.49129" lon="6.75953">
        <ele>328</ele>
        <time>2016-01-03T08:37:34.000Z</time>
      </trkpt>
      <trkpt lat="47.4913" lon="6.75949">
        <ele>328</ele>
        <time>2016-01-03T08:37:35.000Z</time>
      </trkpt>
      <trkpt lat="47.49131" lon="6.75946">
        <ele>328</ele>
        <time>2016-01-03T08:37:36.000Z</time>
      </trkpt>
      <trkpt lat="47.49132" lon="6.75942">
        <ele>328</ele>
        <time>2016-01-03T08:37:37.000Z</time>
      </trkpt>
      <trkpt lat="47.49133" lon="6.75939">
        <ele>328</ele>
        <time>2016-01-03T08:37:38.000Z</time>
      </trkpt>
      <trkpt lat="47.49134" lon="6.75935">
        <ele>328</ele>
        <time>2016-01-03T08:37:39.000Z</time>
      </trkpt>
      <trkpt lat="47.49135" lon="6.75931">
        <ele>328</ele>
        <time>2016-01-03T08:37:40.000Z</time>
      </trkpt>
      <trkpt lat="47.49136" lon="6.75927">
        <ele>328</ele>
        <time>2016-01-03T08:37:41.000Z</time>
      </trkpt>
      <trkpt lat="47.49137" lon="6.75923">
        <ele>328</ele>
        <time>2016-01-03T08:37:42.000Z</time>
      </trkpt>
      <trkpt lat="47.49138" lon="6.75919">
        <ele>327</ele>
        <time>2016-01-03T08:37:43.000Z</time>
      </trkpt>
      <trkpt lat="47.49139" lon="6.75914">
        <ele>330</ele>
        <time>2016-01-03T08:37:44.000Z</time>
      </trkpt>
      <trkpt lat="47.4914" lon="6.75909">
        <ele>330</ele>
        <time>2016-01-03T08:37:45.000Z</time>
      </trkpt>
      <trkpt lat="47.49141" lon="6.75905">
        <ele>330</ele>
        <time>2016-01-03T08:37:46.000Z</time>
      </trkpt>
      <trkpt lat="47.49142" lon="6.759">
        <ele>330</ele>
        <time>2016-01-03T08:37:47.000Z</time>
      </trkpt>
      <trkpt lat="47.49143" lon="6.75895">
        <ele>330</ele>
        <time>2016-01-03T08:37:48.000Z</time>
      </trkpt>
      <trkpt lat="47.49144" lon="6.7589">
        <ele>331</ele>
        <time>2016-01-03T08:37:49.000Z</time>
      </trkpt>
      <trkpt lat="47.49145" lon="6.75885">
        <ele>331</ele>
        <time>2016-01-03T08:37:50.000Z</time>
      </trkpt>
      <trkpt lat="47.49146" lon="6.7588">
        <ele>331</ele>
        <time>2016-01-03T08:37:51.000Z</time>
      </trkpt>
      <trkpt lat="47.49147" lon="6.75876">
        <ele>331</ele>
        <time>2016-01-03T08:37:52.000Z</time>
      </trkpt>
      <trkpt lat="47.49149" lon="6.75871">
        <ele>331</ele>
        <time>2016-01-03T08:37:53.000Z</time>
      </trkpt>
      <trkpt lat="47.4915" lon="6.75866">
        <ele>331</ele>
        <time>2016-01-03T08:37:54.000Z</time>
      </trkpt>
      <trkpt lat="47.49151" lon="6.75861">
        <ele>331</ele>
        <time>2016-01-03T08:37:55.000Z</time>
      </trkpt>
      <trkpt lat="47.49153" lon="6.75855">
        <ele>330</ele>
        <time>2016-01-03T08:37:56.000Z</time>
      </trkpt>
      <trkpt lat="47.49154" lon="6.7585">
        <ele>330</ele>
        <time>2016-01-03T08:37:57.000Z</time>
      </trkpt>
      <trkpt lat="47.49156" lon="6.75845">
        <ele>329</ele>
        <time>2016-01-03T08:37:58.000Z</time>
      </trkpt>
      <trkpt lat="47.49158" lon="6.7584">
        <ele>328</ele>
        <time>2016-01-03T08:37:59.000Z</time>
      </trkpt>
      <trkpt lat="47.4916" lon="6.75835">
        <ele>328</ele>
        <time>2016-01-03T08:38:00.000Z</time>
      </trkpt>
      <trkpt lat="47.49162" lon="6.75829">
        <ele>329</ele>
        <time>2016-01-03T08:38:01.000Z</time>
      </trkpt>
      <trkpt lat="47.49164" lon="6.75823">
        <ele>331</ele>
        <time>2016-01-03T08:38:02.000Z</time>
      </trkpt>
      <trkpt lat="47.49167" lon="6.75816">
        <ele>332</ele>
        <time>2016-01-03T08:38:03.000Z</time>
      </trkpt>
      <trkpt lat="47.49168" lon="6.7581">
        <ele>325</ele>
        <time>2016-01-03T08:38:04.000Z</time>
      </trkpt>
      <trkpt lat="47.4917" lon="6.75804">
        <ele>325</ele>
        <time>2016-01-03T08:38:05.000Z</time>
      </trkpt>
      <trkpt lat="47.49171" lon="6.75798">
        <ele>325</ele>
        <time>2016-01-03T08:38:06.000Z</time>
      </trkpt>
      <trkpt lat="47.49173" lon="6.75791">
        <ele>326</ele>
        <time>2016-01-03T08:38:07.000Z</time>
      </trkpt>
      <trkpt lat="47.49175" lon="6.75785">
        <ele>326</ele>
        <time>2016-01-03T08:38:08.000Z</time>
      </trkpt>
      <trkpt lat="47.49176" lon="6.75779">
        <ele>327</ele>
        <time>2016-01-03T08:38:09.000Z</time>
      </trkpt>
      <trkpt lat="47.49178" lon="6.75773">
        <ele>328</ele>
        <time>2016-01-03T08:38:10.000Z</time>
      </trkpt>
      <trkpt lat="47.49179" lon="6.75766">
        <ele>328</ele>
        <time>2016-01-03T08:38:11.000Z</time>
      </trkpt>
      <trkpt lat="47.4918" lon="6.7576">
        <ele>329</ele>
        <time>2016-01-03T08:38:12.000Z</time>
      </trkpt>
      <trkpt lat="47.49182" lon="6.75753">
        <ele>330</ele>
        <time>2016-01-03T08:38:13.000Z</time>
      </trkpt>
      <trkpt lat="47.49184" lon="6.75746">
        <ele>333</ele>
        <time>2016-01-03T08:38:14.000Z</time>
      </trkpt>
      <trkpt lat="47.49186" lon="6.7574">
        <ele>333</ele>
        <time>2016-01-03T08:38:15.000Z</time>
      </trkpt>
      <trkpt lat="47.49188" lon="6.75734">
        <ele>333</ele>
        <time>2016-01-03T08:38:16.000Z</time>
      </trkpt>
      <trkpt lat="47.4919" lon="6.75728">
        <ele>332</ele>
        <time>2016-01-03T08:38:17.000Z</time>
      </trkpt>
      <trkpt lat="47.49191" lon="6.75723">
        <ele>332</ele>
        <time>2016-01-03T08:38:18.000Z</time>
      </trkpt>
      <trkpt lat="47.49192" lon="6.75718">
        <ele>333</ele>
        <time>2016-01-03T08:38:19.000Z</time>
      </trkpt>
      <trkpt lat="47.49194" lon="6.75714">
        <ele>333</ele>
        <time>2016-01-03T08:38:20.000Z</time>
      </trkpt>
      <trkpt lat="47.49195" lon="6.7571">
        <ele>333</ele>
        <time>2016-01-03T08:38:21.000Z</time>
      </trkpt>
      <trkpt lat="47.49196" lon="6.75707">
        <ele>333</ele>
        <time>2016-01-03T08:38:22.000Z</time>
      </trkpt>
      <trkpt lat="47.49198" lon="6.75703">
        <ele>333</ele>
        <time>2016-01-03T08:38:23.000Z</time>
      </trkpt>
      <trkpt lat="47.49199" lon="6.75698">
        <ele>333</ele>
        <time>2016-01-03T08:38:24.000Z</time>
      </trkpt>
      <trkpt lat="47.492" lon="6.75694">
        <ele>333</ele>
        <time>2016-01-03T08:38:25.000Z</time>
      </trkpt>
      <trkpt lat="47.49201" lon="6.75689">
        <ele>333</ele>
        <time>2016-01-03T08:38:26.000Z</time>
      </trkpt>
      <trkpt lat="47.49201" lon="6.75684">
        <ele>334</ele>
        <time>2016-01-03T08:38:27.000Z</time>
      </trkpt>
      <trkpt lat="47.49202" lon="6.75679">
        <ele>334</ele>
        <time>2016-01-03T08:38:28.000Z</time>
      </trkpt>
      <trkpt lat="47.49203" lon="6.75675">
        <ele>334</ele>
        <time>2016-01-03T08:38:29.000Z</time>
      </trkpt>
      <trkpt lat="47.49203" lon="6.7567">
        <ele>334</ele>
        <time>2016-01-03T08:38:30.000Z</time>
      </trkpt>
      <trkpt lat="47.49205" lon="6.75665">
        <ele>339</ele>
        <time>2016-01-03T08:38:31.000Z</time>
      </trkpt>
      <trkpt lat="47.49206" lon="6.7566">
        <ele>339</ele>
        <time>2016-01-03T08:38:32.000Z</time>
      </trkpt>
      <trkpt lat="47.49208" lon="6.75656">
        <ele>339</ele>
        <time>2016-01-03T08:38:33.000Z</time>
      </trkpt>
      <trkpt lat="47.49209" lon="6.75651">
        <ele>338</ele>
        <time>2016-01-03T08:38:34.000Z</time>
      </trkpt>
      <trkpt lat="47.49211" lon="6.75647">
        <ele>338</ele>
        <time>2016-01-03T08:38:35.000Z</time>
      </trkpt>
      <trkpt lat="47.49213" lon="6.75643">
        <ele>338</ele>
        <time>2016-01-03T08:38:36.000Z</time>
      </trkpt>
      <trkpt lat="47.49214" lon="6.75639">
        <ele>338</ele>
        <time>2016-01-03T08:38:37.000Z</time>
      </trkpt>
      <trkpt lat="47.49216" lon="6.75635">
        <ele>338</ele>
        <time>2016-01-03T08:38:38.000Z</time>
      </trkpt>
      <trkpt lat="47.49218" lon="6.75631">
        <ele>338</ele>
        <time>2016-01-03T08:38:39.000Z</time>
      </trkpt>
      <trkpt lat="47.49219" lon="6.75626">
        <ele>338</ele>
        <time>2016-01-03T08:38:40.000Z</time>
      </trkpt>
      <trkpt lat="47.49221" lon="6.75621">
        <ele>338</ele>
        <time>2016-01-03T08:38:41.000Z</time>
      </trkpt>
      <trkpt lat="47.49223" lon="6.75616">
        <ele>338</ele>
        <time>2016-01-03T08:38:42.000Z</time>
      </trkpt>
      <trkpt lat="47.49225" lon="6.75612">
        <ele>338</ele>
        <time>2016-01-03T08:38:43.000Z</time>
      </trkpt>
      <trkpt lat="47.49227" lon="6.75608">
        <ele>338</ele>
        <time>2016-01-03T08:38:44.000Z</time>
      </trkpt>
      <trkpt lat="47.49228" lon="6.75604">
        <ele>338</ele>
        <time>2016-01-03T08:38:45.000Z</time>
      </trkpt>
      <trkpt lat="47.4923" lon="6.75599">
        <ele>338</ele>
        <time>2016-01-03T08:38:46.000Z</time>
      </trkpt>
      <trkpt lat="47.49231" lon="6.75594">
        <ele>337</ele>
        <time>2016-01-03T08:38:47.000Z</time>
      </trkpt>
      <trkpt lat="47.49233" lon="6.75589">
        <ele>337</ele>
        <time>2016-01-03T08:38:48.000Z</time>
      </trkpt>
      <trkpt lat="47.49234" lon="6.75584">
        <ele>336</ele>
        <time>2016-01-03T08:38:49.000Z</time>
      </trkpt>
      <trkpt lat="47.49236" lon="6.75578">
        <ele>339</ele>
        <time>2016-01-03T08:38:50.000Z</time>
      </trkpt>
      <trkpt lat="47.49239" lon="6.75573">
        <ele>340</ele>
        <time>2016-01-03T08:38:51.000Z</time>
      </trkpt>
      <trkpt lat="47.4924" lon="6.75567">
        <ele>340</ele>
        <time>2016-01-03T08:38:52.000Z</time>
      </trkpt>
      <trkpt lat="47.49242" lon="6.75562">
        <ele>341</ele>
        <time>2016-01-03T08:38:53.000Z</time>
      </trkpt>
      <trkpt lat="47.49244" lon="6.75557">
        <ele>342</ele>
        <time>2016-01-03T08:38:54.000Z</time>
      </trkpt>
      <trkpt lat="47.49245" lon="6.75552">
        <ele>342</ele>
        <time>2016-01-03T08:38:55.000Z</time>
      </trkpt>
      <trkpt lat="47.49246" lon="6.75548">
        <ele>343</ele>
        <time>2016-01-03T08:38:56.000Z</time>
      </trkpt>
      <trkpt lat="47.49247" lon="6.75545">
        <ele>343</ele>
        <time>2016-01-03T08:38:57.000Z</time>
      </trkpt>
      <trkpt lat="47.49247" lon="6.75541">
        <ele>343</ele>
        <time>2016-01-03T08:38:58.000Z</time>
      </trkpt>
      <trkpt lat="47.49248" lon="6.75538">
        <ele>343</ele>
        <time>2016-01-03T08:38:59.000Z</time>
      </trkpt>
      <trkpt lat="47.49248" lon="6.75534">
        <ele>343</ele>
        <time>2016-01-03T08:39:00.000Z</time>
      </trkpt>
      <trkpt lat="47.49249" lon="6.7553">
        <ele>343</ele>
        <time>2016-01-03T08:39:01.000Z</time>
      </trkpt>
      <trkpt lat="47.4925" lon="6.75525">
        <ele>343</ele>
        <time>2016-01-03T08:39:02.000Z</time>
      </trkpt>
      <trkpt lat="47.49251" lon="6.75522">
        <ele>334</ele>
        <time>2016-01-03T08:39:03.000Z</time>
      </trkpt>
      <trkpt lat="47.49253" lon="6.75518">
        <ele>334</ele>
        <time>2016-01-03T08:39:04.000Z</time>
      </trkpt>
      <trkpt lat="47.49254" lon="6.75515">
        <ele>335</ele>
        <time>2016-01-03T08:39:05.000Z</time>
      </trkpt>
      <trkpt lat="47.49255" lon="6.7551">
        <ele>335</ele>
        <time>2016-01-03T08:39:06.000Z</time>
      </trkpt>
      <trkpt lat="47.49256" lon="6.75506">
        <ele>336</ele>
        <time>2016-01-03T08:39:07.000Z</time>
      </trkpt>
      <trkpt lat="47.49256" lon="6.75501">
        <ele>337</ele>
        <time>2016-01-03T08:39:08.000Z</time>
      </trkpt>
      <trkpt lat="47.49257" lon="6.75495">
        <ele>338</ele>
        <time>2016-01-03T08:39:09.000Z</time>
      </trkpt>
      <trkpt lat="47.49257" lon="6.75491">
        <ele>337</ele>
        <time>2016-01-03T08:39:10.000Z</time>
      </trkpt>
      <trkpt lat="47.49257" lon="6.75486">
        <ele>337</ele>
        <time>2016-01-03T08:39:11.000Z</time>
      </trkpt>
      <trkpt lat="47.49258" lon="6.75481">
        <ele>337</ele>
        <time>2016-01-03T08:39:12.000Z</time>
      </trkpt>
      <trkpt lat="47.49259" lon="6.75477">
        <ele>337</ele>
        <time>2016-01-03T08:39:13.000Z</time>
      </trkpt>
      <trkpt lat="47.49259" lon="6.75472">
        <ele>337</ele>
        <time>2016-01-03T08:39:14.000Z</time>
      </trkpt>
      <trkpt lat="47.49259" lon="6.75467">
        <ele>337</ele>
        <time>2016-01-03T08:39:15.000Z</time>
      </trkpt>
      <trkpt lat="47.49259" lon="6.75463">
        <ele>337</ele>
        <time>2016-01-03T08:39:16.000Z</time>
      </trkpt>
      <trkpt lat="47.49259" lon="6.75459">
        <ele>337</ele>
        <time>2016-01-03T08:39:17.000Z</time>
      </trkpt>
      <trkpt lat="47.49258" lon="6.75455">
        <ele>337</ele>
        <time>2016-01-03T08:39:18.000Z</time>
      </trkpt>
      <trkpt lat="47.49258" lon="6.75452">
        <ele>337</ele>
        <time>2016-01-03T08:39:19.000Z</time>
      </trkpt>
      <trkpt lat="47.49258" lon="6.75448">
        <ele>338</ele>
        <time>2016-01-03T08:39:20.000Z</time>
      </trkpt>
      <trkpt lat="47.49258" lon="6.75445">
        <ele>338</ele>
        <time>2016-01-03T08:39:21.000Z</time>
      </trkpt>
      <trkpt lat="47.49258" lon="6.75442">
        <ele>338</ele>
        <time>2016-01-03T08:39:22.000Z</time>
      </trkpt>
      <trkpt lat="47.49259" lon="6.75438">
        <ele>339</ele>
        <time>2016-01-03T08:39:23.000Z</time>
      </trkpt>
      <trkpt lat="47.4926" lon="6.75435">
        <ele>339</ele>
        <time>2016-01-03T08:39:24.000Z</time>
      </trkpt>
      <trkpt lat="47.49261" lon="6.75432">
        <ele>339</ele>
        <time>2016-01-03T08:39:25.000Z</time>
      </trkpt>
      <trkpt lat="47.49263" lon="6.75429">
        <ele>339</ele>
        <time>2016-01-03T08:39:26.000Z</time>
      </trkpt>
      <trkpt lat="47.49264" lon="6.75425">
        <ele>340</ele>
        <time>2016-01-03T08:39:27.000Z</time>
      </trkpt>
      <trkpt lat="47.49265" lon="6.75421">
        <ele>340</ele>
        <time>2016-01-03T08:39:28.000Z</time>
      </trkpt>
      <trkpt lat="47.49267" lon="6.75416">
        <ele>341</ele>
        <time>2016-01-03T08:39:29.000Z</time>
      </trkpt>
      <trkpt lat="47.49268" lon="6.75411">
        <ele>341</ele>
        <time>2016-01-03T08:39:30.000Z</time>
      </trkpt>
      <trkpt lat="47.4927" lon="6.75407">
        <ele>341</ele>
        <time>2016-01-03T08:39:31.000Z</time>
      </trkpt>
      <trkpt lat="47.49271" lon="6.75403">
        <ele>340</ele>
        <time>2016-01-03T08:39:32.000Z</time>
      </trkpt>
      <trkpt lat="47.49272" lon="6.75399">
        <ele>340</ele>
        <time>2016-01-03T08:39:33.000Z</time>
      </trkpt>
      <trkpt lat="47.49273" lon="6.75395">
        <ele>340</ele>
        <time>2016-01-03T08:39:34.000Z</time>
      </trkpt>
      <trkpt lat="47.49275" lon="6.7539">
        <ele>340</ele>
        <time>2016-01-03T08:39:35.000Z</time>
      </trkpt>
      <trkpt lat="47.49276" lon="6.75386">
        <ele>340</ele>
        <time>2016-01-03T08:39:36.000Z</time>
      </trkpt>
      <trkpt lat="47.49277" lon="6.75381">
        <ele>339</ele>
        <time>2016-01-03T08:39:37.000Z</time>
      </trkpt>
      <trkpt lat="47.49278" lon="6.75377">
        <ele>339</ele>
        <time>2016-01-03T08:39:38.000Z</time>
      </trkpt>
      <trkpt lat="47.49279" lon="6.75374">
        <ele>339</ele>
        <time>2016-01-03T08:39:39.000Z</time>
      </trkpt>
      <trkpt lat="47.49279" lon="6.7537">
        <ele>340</ele>
        <time>2016-01-03T08:39:40.000Z</time>
      </trkpt>
      <trkpt lat="47.4928" lon="6.75365">
        <ele>340</ele>
        <time>2016-01-03T08:39:41.000Z</time>
      </trkpt>
      <trkpt lat="47.4928" lon="6.7536">
        <ele>340</ele>
        <time>2016-01-03T08:39:42.000Z</time>
      </trkpt>
      <trkpt lat="47.4928" lon="6.75356">
        <ele>340</ele>
        <time>2016-01-03T08:39:43.000Z</time>
      </trkpt>
      <trkpt lat="47.4928" lon="6.75351">
        <ele>340</ele>
        <time>2016-01-03T08:39:44.000Z</time>
      </trkpt>
      <trkpt lat="47.4928" lon="6.75346">
        <ele>340</ele>
        <time>2016-01-03T08:39:45.000Z</time>
      </trkpt>
      <trkpt lat="47.49279" lon="6.75343">
        <ele>340</ele>
        <time>2016-01-03T08:39:46.000Z</time>
      </trkpt>
      <trkpt lat="47.49279" lon="6.75339">
        <ele>341</ele>
        <time>2016-01-03T08:39:47.000Z</time>
      </trkpt>
      <trkpt lat="47.49279" lon="6.75335">
        <ele>341</ele>
        <time>2016-01-03T08:39:48.000Z</time>
      </trkpt>
      <trkpt lat="47.49279" lon="6.75331">
        <ele>341</ele>
        <time>2016-01-03T08:39:49.000Z</time>
      </trkpt>
      <trkpt lat="47.4928" lon="6.75327">
        <ele>341</ele>
        <time>2016-01-03T08:39:50.000Z</time>
      </trkpt>
      <trkpt lat="47.4928" lon="6.75323">
        <ele>341</ele>
        <time>2016-01-03T08:39:51.000Z</time>
      </trkpt>
      <trkpt lat="47.4928" lon="6.75319">
        <ele>341</ele>
        <time>2016-01-03T08:39:52.000Z</time>
      </trkpt>
      <trkpt lat="47.49281" lon="6.75315">
        <ele>341</ele>
        <time>2016-01-03T08:39:53.000Z</time>
      </trkpt>
      <trkpt lat="47.49281" lon="6.7531">
        <ele>341</ele>
        <time>2016-01-03T08:39:54.000Z</time>
      </trkpt>
      <trkpt lat="47.49282" lon="6.75306">
        <ele>341</ele>
        <time>2016-01-03T08:39:55.000Z</time>
      </trkpt>
      <trkpt lat="47.49282" lon="6.75303">
        <ele>341</ele>
        <time>2016-01-03T08:39:56.000Z</time>
      </trkpt>
      <trkpt lat="47.49283" lon="6.75299">
        <ele>341</ele>
        <time>2016-01-03T08:39:57.000Z</time>
      </trkpt>
      <trkpt lat="47.49284" lon="6.75294">
        <ele>341</ele>
        <time>2016-01-03T08:39:58.000Z</time>
      </trkpt>
      <trkpt lat="47.49284" lon="6.75289">
        <ele>341</ele>
        <time>2016-01-03T08:39:59.000Z</time>
      </trkpt>
      <trkpt lat="47.49285" lon="6.75285">
        <ele>341</ele>
        <time>2016-01-03T08:40:00.000Z</time>
      </trkpt>
      <trkpt lat="47.49285" lon="6.7528">
        <ele>341</ele>
        <time>2016-01-03T08:40:01.000Z</time>
      </trkpt>
      <trkpt lat="47.49284" lon="6.75276">
        <ele>341</ele>
        <time>2016-01-03T08:40:02.000Z</time>
      </trkpt>
      <trkpt lat="47.49284" lon="6.75273">
        <ele>341</ele>
        <time>2016-01-03T08:40:03.000Z</time>
      </trkpt>
      <trkpt lat="47.49283" lon="6.7527">
        <ele>341</ele>
        <time>2016-01-03T08:40:04.000Z</time>
      </trkpt>
      <trkpt lat="47.49281" lon="6.75266">
        <ele>341</ele>
        <time>2016-01-03T08:40:05.000Z</time>
      </trkpt>
      <trkpt lat="47.4928" lon="6.75262">
        <ele>342</ele>
        <time>2016-01-03T08:40:06.000Z</time>
      </trkpt>
      <trkpt lat="47.49279" lon="6.75258">
        <ele>342</ele>
        <time>2016-01-03T08:40:07.000Z</time>
      </trkpt>
      <trkpt lat="47.49278" lon="6.75253">
        <ele>342</ele>
        <time>2016-01-03T08:40:08.000Z</time>
      </trkpt>
      <trkpt lat="47.49278" lon="6.75249">
        <ele>344</ele>
        <time>2016-01-03T08:40:09.000Z</time>
      </trkpt>
      <trkpt lat="47.49278" lon="6.75245">
        <ele>344</ele>
        <time>2016-01-03T08:40:10.000Z</time>
      </trkpt>
      <trkpt lat="47.49277" lon="6.75241">
        <ele>344</ele>
        <time>2016-01-03T08:40:11.000Z</time>
      </trkpt>
      <trkpt lat="47.49277" lon="6.75237">
        <ele>344</ele>
        <time>2016-01-03T08:40:12.000Z</time>
      </trkpt>
      <trkpt lat="47.49277" lon="6.75231">
        <ele>344</ele>
        <time>2016-01-03T08:40:14.000Z</time>
      </trkpt>
      <trkpt lat="47.49278" lon="6.75227">
        <ele>344</ele>
        <time>2016-01-03T08:40:15.000Z</time>
      </trkpt>
      <trkpt lat="47.49278" lon="6.75223">
        <ele>344</ele>
        <time>2016-01-03T08:40:16.000Z</time>
      </trkpt>
      <trkpt lat="47.49279" lon="6.75219">
        <ele>344</ele>
        <time>2016-01-03T08:40:17.000Z</time>
      </trkpt>
      <trkpt lat="47.49279" lon="6.75214">
        <ele>344</ele>
        <time>2016-01-03T08:40:18.000Z</time>
      </trkpt>
      <trkpt lat="47.4928" lon="6.7521">
        <ele>344</ele>
        <time>2016-01-03T08:40:19.000Z</time>
      </trkpt>
      <trkpt lat="47.4928" lon="6.75205">
        <ele>344</ele>
        <time>2016-01-03T08:40:20.000Z</time>
      </trkpt>
      <trkpt lat="47.4928" lon="6.752">
        <ele>345</ele>
        <time>2016-01-03T08:40:21.000Z</time>
      </trkpt>
      <trkpt lat="47.49279" lon="6.75195">
        <ele>345</ele>
        <time>2016-01-03T08:40:22.000Z</time>
      </trkpt>
      <trkpt lat="47.49279" lon="6.7519">
        <ele>345</ele>
        <time>2016-01-03T08:40:23.000Z</time>
      </trkpt>
      <trkpt lat="47.4928" lon="6.75185">
        <ele>345</ele>
        <time>2016-01-03T08:40:24.000Z</time>
      </trkpt>
      <trkpt lat="47.4928" lon="6.7518">
        <ele>345</ele>
        <time>2016-01-03T08:40:25.000Z</time>
      </trkpt>
      <trkpt lat="47.4928" lon="6.75174">
        <ele>346</ele>
        <time>2016-01-03T08:40:26.000Z</time>
      </trkpt>
      <trkpt lat="47.49281" lon="6.75168">
        <ele>346</ele>
        <time>2016-01-03T08:40:27.000Z</time>
      </trkpt>
      <trkpt lat="47.49281" lon="6.75161">
        <ele>348</ele>
        <time>2016-01-03T08:40:28.000Z</time>
      </trkpt>
      <trkpt lat="47.49282" lon="6.75155">
        <ele>348</ele>
        <time>2016-01-03T08:40:29.000Z</time>
      </trkpt>
      <trkpt lat="47.49283" lon="6.75148">
        <ele>348</ele>
        <time>2016-01-03T08:40:30.000Z</time>
      </trkpt>
      <trkpt lat="47.49284" lon="6.75142">
        <ele>348</ele>
        <time>2016-01-03T08:40:31.000Z</time>
      </trkpt>
      <trkpt lat="47.49285" lon="6.75137">
        <ele>348</ele>
        <time>2016-01-03T08:40:32.000Z</time>
      </trkpt>
      <trkpt lat="47.49286" lon="6.75131">
        <ele>348</ele>
        <time>2016-01-03T08:40:33.000Z</time>
      </trkpt>
      <trkpt lat="47.49287" lon="6.75127">
        <ele>348</ele>
        <time>2016-01-03T08:40:34.000Z</time>
      </trkpt>
      <trkpt lat="47.49288" lon="6.75122">
        <ele>347</ele>
        <time>2016-01-03T08:40:35.000Z</time>
      </trkpt>
      <trkpt lat="47.49289" lon="6.75117">
        <ele>347</ele>
        <time>2016-01-03T08:40:36.000Z</time>
      </trkpt>
      <trkpt lat="47.49289" lon="6.75112">
        <ele>348</ele>
        <time>2016-01-03T08:40:37.000Z</time>
      </trkpt>
      <trkpt lat="47.4929" lon="6.75107">
        <ele>348</ele>
        <time>2016-01-03T08:40:38.000Z</time>
      </trkpt>
      <trkpt lat="47.49291" lon="6.75101">
        <ele>348</ele>
        <time>2016-01-03T08:40:39.000Z</time>
      </trkpt>
      <trkpt lat="47.49293" lon="6.75096">
        <ele>347</ele>
        <time>2016-01-03T08:40:40.000Z</time>
      </trkpt>
      <trkpt lat="47.49296" lon="6.7509">
        <ele>347</ele>
        <time>2016-01-03T08:40:41.000Z</time>
      </trkpt>
      <trkpt lat="47.493" lon="6.75085">
        <ele>346</ele>
        <time>2016-01-03T08:40:42.000Z</time>
      </trkpt>
      <trkpt lat="47.49305" lon="6.7508">
        <ele>347</ele>
        <time>2016-01-03T08:40:43.000Z</time>
      </trkpt>
      <trkpt lat="47.4931" lon="6.75075">
        <ele>346</ele>
        <time>2016-01-03T08:40:44.000Z</time>
      </trkpt>
      <trkpt lat="47.49315" lon="6.7507">
        <ele>346</ele>
        <time>2016-01-03T08:40:45.000Z</time>
      </trkpt>
      <trkpt lat="47.49319" lon="6.75065">
        <ele>346</ele>
        <time>2016-01-03T08:40:46.000Z</time>
      </trkpt>
      <trkpt lat="47.49322" lon="6.75059">
        <ele>346</ele>
        <time>2016-01-03T08:40:47.000Z</time>
      </trkpt>
      <trkpt lat="47.49324" lon="6.75054">
        <ele>347</ele>
        <time>2016-01-03T08:40:48.000Z</time>
      </trkpt>
      <trkpt lat="47.49325" lon="6.75049">
        <ele>347</ele>
        <time>2016-01-03T08:40:49.000Z</time>
      </trkpt>
      <trkpt lat="47.49326" lon="6.75043">
        <ele>347</ele>
        <time>2016-01-03T08:40:50.000Z</time>
      </trkpt>
      <trkpt lat="47.49326" lon="6.75038">
        <ele>347</ele>
        <time>2016-01-03T08:40:51.000Z</time>
      </trkpt>
      <trkpt lat="47.49326" lon="6.75034">
        <ele>347</ele>
        <time>2016-01-03T08:40:52.000Z</time>
      </trkpt>
      <trkpt lat="47.49327" lon="6.7503">
        <ele>347</ele>
        <time>2016-01-03T08:40:53.000Z</time>
      </trkpt>
      <trkpt lat="47.49327" lon="6.75027">
        <ele>347</ele>
        <time>2016-01-03T08:40:54.000Z</time>
      </trkpt>
      <trkpt lat="47.49327" lon="6.75023">
        <ele>347</ele>
        <time>2016-01-03T08:40:55.000Z</time>
      </trkpt>
      <trkpt lat="47.49327" lon="6.75019">
        <ele>347</ele>
        <time>2016-01-03T08:40:56.000Z</time>
      </trkpt>
      <trkpt lat="47.49327" lon="6.75016">
        <ele>347</ele>
        <time>2016-01-03T08:40:57.000Z</time>
      </trkpt>
      <trkpt lat="47.49326" lon="6.7501">
        <ele>346</ele>
        <time>2016-01-03T08:40:59.000Z</time>
      </trkpt>
      <trkpt lat="47.49326" lon="6.75007">
        <ele>346</ele>
        <time>2016-01-03T08:41:00.000Z</time>
      </trkpt>
      <trkpt lat="47.49325" lon="6.75001">
        <ele>345</ele>
        <time>2016-01-03T08:41:02.000Z</time>
      </trkpt>
      <trkpt lat="47.49325" lon="6.74998">
        <ele>347</ele>
        <time>2016-01-03T08:41:03.000Z</time>
      </trkpt>
      <trkpt lat="47.49325" lon="6.74992">
        <ele>348</ele>
        <time>2016-01-03T08:41:05.000Z</time>
      </trkpt>
      <trkpt lat="47.49325" lon="6.74989">
        <ele>348</ele>
        <time>2016-01-03T08:41:06.000Z</time>
      </trkpt>
      <trkpt lat="47.49325" lon="6.74983">
        <ele>349</ele>
        <time>2016-01-03T08:41:08.000Z</time>
      </trkpt>
      <trkpt lat="47.49325" lon="6.74981">
        <ele>350</ele>
        <time>2016-01-03T08:41:09.000Z</time>
      </trkpt>
      <trkpt lat="47.49325" lon="6.74974">
        <ele>351</ele>
        <time>2016-01-03T08:41:11.000Z</time>
      </trkpt>
      <trkpt lat="47.49325" lon="6.74971">
        <ele>351</ele>
        <time>2016-01-03T08:41:12.000Z</time>
      </trkpt>
      <trkpt lat="47.49325" lon="6.74965">
        <ele>352</ele>
        <time>2016-01-03T08:41:14.000Z</time>
      </trkpt>
      <trkpt lat="47.49324" lon="6.74962">
        <ele>352</ele>
        <time>2016-01-03T08:41:15.000Z</time>
      </trkpt>
      <trkpt lat="47.49323" lon="6.74956">
        <ele>353</ele>
        <time>2016-01-03T08:41:17.000Z</time>
      </trkpt>
      <trkpt lat="47.49323" lon="6.74952">
        <ele>353</ele>
        <time>2016-01-03T08:41:18.000Z</time>
      </trkpt>
      <trkpt lat="47.49322" lon="6.74947">
        <ele>353</ele>
        <time>2016-01-03T08:41:20.000Z</time>
      </trkpt>
      <trkpt lat="47.49321" lon="6.74945">
        <ele>353</ele>
        <time>2016-01-03T08:41:21.000Z</time>
      </trkpt>
      <trkpt lat="47.4932" lon="6.74939">
        <ele>353</ele>
        <time>2016-01-03T08:41:24.000Z</time>
      </trkpt>
      <trkpt lat="47.4932" lon="6.74938">
        <ele>353</ele>
        <time>2016-01-03T08:41:25.000Z</time>
      </trkpt>
      <trkpt lat="47.49321" lon="6.74932">
        <ele>352</ele>
        <time>2016-01-03T08:41:28.000Z</time>
      </trkpt>
      <trkpt lat="47.49322" lon="6.74928">
        <ele>352</ele>
        <time>2016-01-03T08:41:29.000Z</time>
      </trkpt>
      <trkpt lat="47.49324" lon="6.74925">
        <ele>351</ele>
        <time>2016-01-03T08:41:30.000Z</time>
      </trkpt>
      <trkpt lat="47.49325" lon="6.74921">
        <ele>350</ele>
        <time>2016-01-03T08:41:31.000Z</time>
      </trkpt>
      <trkpt lat="47.49327" lon="6.74918">
        <ele>350</ele>
        <time>2016-01-03T08:41:32.000Z</time>
      </trkpt>
      <trkpt lat="47.49327" lon="6.74915">
        <ele>351</ele>
        <time>2016-01-03T08:41:33.000Z</time>
      </trkpt>
      <trkpt lat="47.49328" lon="6.7491">
        <ele>351</ele>
        <time>2016-01-03T08:41:37.000Z</time>
      </trkpt>
      <trkpt lat="47.49328" lon="6.74908">
        <ele>352</ele>
        <time>2016-01-03T08:41:38.000Z</time>
      </trkpt>
      <trkpt lat="47.49329" lon="6.74903">
        <ele>353</ele>
        <time>2016-01-03T08:41:41.000Z</time>
      </trkpt>
      <trkpt lat="47.4933" lon="6.749">
        <ele>353</ele>
        <time>2016-01-03T08:41:42.000Z</time>
      </trkpt>
      <trkpt lat="47.49332" lon="6.74897">
        <ele>354</ele>
        <time>2016-01-03T08:41:43.000Z</time>
      </trkpt>
      <trkpt lat="47.49333" lon="6.74895">
        <ele>354</ele>
        <time>2016-01-03T08:41:44.000Z</time>
      </trkpt>
      <trkpt lat="47.49336" lon="6.7489">
        <ele>344</ele>
        <time>2016-01-03T08:41:46.000Z</time>
      </trkpt>
      <trkpt lat="47.49337" lon="6.74889">
        <ele>344</ele>
        <time>2016-01-03T08:41:47.000Z</time>
      </trkpt>
      <trkpt lat="47.49341" lon="6.74885">
        <ele>344</ele>
        <time>2016-01-03T08:41:49.000Z</time>
      </trkpt>
      <trkpt lat="47.49343" lon="6.74883">
        <ele>344</ele>
        <time>2016-01-03T08:41:50.000Z</time>
      </trkpt>
      <trkpt lat="47.49345" lon="6.74881">
        <ele>343</ele>
        <time>2016-01-03T08:41:51.000Z</time>
      </trkpt>
      <trkpt lat="47.49347" lon="6.74879">
        <ele>343</ele>
        <time>2016-01-03T08:41:52.000Z</time>
      </trkpt>
      <trkpt lat="47.49349" lon="6.74875">
        <ele>343</ele>
        <time>2016-01-03T08:41:54.000Z</time>
      </trkpt>
      <trkpt lat="47.4935" lon="6.74871">
        <ele>343</ele>
        <time>2016-01-03T08:41:55.000Z</time>
      </trkpt>
      <trkpt lat="47.49352" lon="6.74868">
        <ele>343</ele>
        <time>2016-01-03T08:41:56.000Z</time>
      </trkpt>
      <trkpt lat="47.49353" lon="6.74864">
        <ele>343</ele>
        <time>2016-01-03T08:41:57.000Z</time>
      </trkpt>
      <trkpt lat="47.49354" lon="6.7486">
        <ele>343</ele>
        <time>2016-01-03T08:41:58.000Z</time>
      </trkpt>
      <trkpt lat="47.49356" lon="6.74856">
        <ele>343</ele>
        <time>2016-01-03T08:41:59.000Z</time>
      </trkpt>
      <trkpt lat="47.49358" lon="6.74852">
        <ele>343</ele>
        <time>2016-01-03T08:42:00.000Z</time>
      </trkpt>
      <trkpt lat="47.4936" lon="6.74847">
        <ele>343</ele>
        <time>2016-01-03T08:42:01.000Z</time>
      </trkpt>
      <trkpt lat="47.49361" lon="6.74843">
        <ele>343</ele>
        <time>2016-01-03T08:42:02.000Z</time>
      </trkpt>
      <trkpt lat="47.49363" lon="6.74839">
        <ele>343</ele>
        <time>2016-01-03T08:42:03.000Z</time>
      </trkpt>
      <trkpt lat="47.49365" lon="6.74835">
        <ele>343</ele>
        <time>2016-01-03T08:42:04.000Z</time>
      </trkpt>
      <trkpt lat="47.49366" lon="6.7483">
        <ele>344</ele>
        <time>2016-01-03T08:42:05.000Z</time>
      </trkpt>
      <trkpt lat="47.49368" lon="6.74826">
        <ele>344</ele>
        <time>2016-01-03T08:42:06.000Z</time>
      </trkpt>
      <trkpt lat="47.49369" lon="6.74821">
        <ele>344</ele>
        <time>2016-01-03T08:42:07.000Z</time>
      </trkpt>
      <trkpt lat="47.4937" lon="6.74816">
        <ele>344</ele>
        <time>2016-01-03T08:42:08.000Z</time>
      </trkpt>
      <trkpt lat="47.49371" lon="6.74812">
        <ele>344</ele>
        <time>2016-01-03T08:42:09.000Z</time>
      </trkpt>
      <trkpt lat="47.49372" lon="6.74807">
        <ele>344</ele>
        <time>2016-01-03T08:42:10.000Z</time>
      </trkpt>
      <trkpt lat="47.49373" lon="6.74803">
        <ele>344</ele>
        <time>2016-01-03T08:42:11.000Z</time>
      </trkpt>
      <trkpt lat="47.49373" lon="6.74798">
        <ele>344</ele>
        <time>2016-01-03T08:42:12.000Z</time>
      </trkpt>
      <trkpt lat="47.49374" lon="6.74793">
        <ele>344</ele>
        <time>2016-01-03T08:42:13.000Z</time>
      </trkpt>
      <trkpt lat="47.49375" lon="6.74787">
        <ele>344</ele>
        <time>2016-01-03T08:42:14.000Z</time>
      </trkpt>
      <trkpt lat="47.49376" lon="6.74782">
        <ele>345</ele>
        <time>2016-01-03T08:42:15.000Z</time>
      </trkpt>
      <trkpt lat="47.49376" lon="6.74777">
        <ele>345</ele>
        <time>2016-01-03T08:42:16.000Z</time>
      </trkpt>
      <trkpt lat="47.49377" lon="6.74772">
        <ele>345</ele>
        <time>2016-01-03T08:42:17.000Z</time>
      </trkpt>
      <trkpt lat="47.49378" lon="6.74767">
        <ele>345</ele>
        <time>2016-01-03T08:42:18.000Z</time>
      </trkpt>
      <trkpt lat="47.49378" lon="6.74762">
        <ele>345</ele>
        <time>2016-01-03T08:42:19.000Z</time>
      </trkpt>
      <trkpt lat="47.49379" lon="6.74758">
        <ele>345</ele>
        <time>2016-01-03T08:42:20.000Z</time>
      </trkpt>
      <trkpt lat="47.4938" lon="6.74753">
        <ele>345</ele>
        <time>2016-01-03T08:42:21.000Z</time>
      </trkpt>
      <trkpt lat="47.4938" lon="6.74749">
        <ele>347</ele>
        <time>2016-01-03T08:42:22.000Z</time>
      </trkpt>
      <trkpt lat="47.49381" lon="6.74744">
        <ele>347</ele>
        <time>2016-01-03T08:42:23.000Z</time>
      </trkpt>
      <trkpt lat="47.49381" lon="6.7474">
        <ele>347</ele>
        <time>2016-01-03T08:42:24.000Z</time>
      </trkpt>
      <trkpt lat="47.49381" lon="6.74735">
        <ele>347</ele>
        <time>2016-01-03T08:42:25.000Z</time>
      </trkpt>
      <trkpt lat="47.49381" lon="6.7473">
        <ele>347</ele>
        <time>2016-01-03T08:42:26.000Z</time>
      </trkpt>
      <trkpt lat="47.49381" lon="6.74726">
        <ele>348</ele>
        <time>2016-01-03T08:42:27.000Z</time>
      </trkpt>
      <trkpt lat="47.49381" lon="6.74721">
        <ele>348</ele>
        <time>2016-01-03T08:42:28.000Z</time>
      </trkpt>
      <trkpt lat="47.49381" lon="6.74718">
        <ele>348</ele>
        <time>2016-01-03T08:42:29.000Z</time>
      </trkpt>
      <trkpt lat="47.49381" lon="6.74712">
        <ele>348</ele>
        <time>2016-01-03T08:42:31.000Z</time>
      </trkpt>
      <trkpt lat="47.49381" lon="6.74708">
        <ele>348</ele>
        <time>2016-01-03T08:42:32.000Z</time>
      </trkpt>
      <trkpt lat="47.49381" lon="6.74705">
        <ele>348</ele>
        <time>2016-01-03T08:42:33.000Z</time>
      </trkpt>
      <trkpt lat="47.4938" lon="6.74701">
        <ele>348</ele>
        <time>2016-01-03T08:42:34.000Z</time>
      </trkpt>
      <trkpt lat="47.4938" lon="6.74697">
        <ele>348</ele>
        <time>2016-01-03T08:42:35.000Z</time>
      </trkpt>
      <trkpt lat="47.4938" lon="6.74693">
        <ele>348</ele>
        <time>2016-01-03T08:42:36.000Z</time>
      </trkpt>
      <trkpt lat="47.4938" lon="6.74688">
        <ele>348</ele>
        <time>2016-01-03T08:42:37.000Z</time>
      </trkpt>
      <trkpt lat="47.4938" lon="6.74684">
        <ele>348</ele>
        <time>2016-01-03T08:42:38.000Z</time>
      </trkpt>
      <trkpt lat="47.4938" lon="6.74678">
        <ele>348</ele>
        <time>2016-01-03T08:42:39.000Z</time>
      </trkpt>
      <trkpt lat="47.49381" lon="6.74673">
        <ele>348</ele>
        <time>2016-01-03T08:42:40.000Z</time>
      </trkpt>
      <trkpt lat="47.49382" lon="6.74668">
        <ele>348</ele>
        <time>2016-01-03T08:42:41.000Z</time>
      </trkpt>
      <trkpt lat="47.49383" lon="6.74664">
        <ele>349</ele>
        <time>2016-01-03T08:42:42.000Z</time>
      </trkpt>
      <trkpt lat="47.49384" lon="6.74661">
        <ele>349</ele>
        <time>2016-01-03T08:42:43.000Z</time>
      </trkpt>
      <trkpt lat="47.49385" lon="6.74657">
        <ele>349</ele>
        <time>2016-01-03T08:42:44.000Z</time>
      </trkpt>
      <trkpt lat="47.49386" lon="6.74652">
        <ele>349</ele>
        <time>2016-01-03T08:42:45.000Z</time>
      </trkpt>
      <trkpt lat="47.49387" lon="6.74648">
        <ele>349</ele>
        <time>2016-01-03T08:42:46.000Z</time>
      </trkpt>
      <trkpt lat="47.49387" lon="6.74645">
        <ele>349</ele>
        <time>2016-01-03T08:42:47.000Z</time>
      </trkpt>
      <trkpt lat="47.49388" lon="6.74642">
        <ele>349</ele>
        <time>2016-01-03T08:42:48.000Z</time>
      </trkpt>
      <trkpt lat="47.49391" lon="6.74637">
        <ele>349</ele>
        <time>2016-01-03T08:42:50.000Z</time>
      </trkpt>
      <trkpt lat="47.49392" lon="6.74633">
        <ele>349</ele>
        <time>2016-01-03T08:42:51.000Z</time>
      </trkpt>
      <trkpt lat="47.49392" lon="6.74628">
        <ele>349</ele>
        <time>2016-01-03T08:42:52.000Z</time>
      </trkpt>
      <trkpt lat="47.49393" lon="6.74623">
        <ele>349</ele>
        <time>2016-01-03T08:42:53.000Z</time>
      </trkpt>
      <trkpt lat="47.49393" lon="6.74619">
        <ele>349</ele>
        <time>2016-01-03T08:42:54.000Z</time>
      </trkpt>
      <trkpt lat="47.49394" lon="6.74614">
        <ele>348</ele>
        <time>2016-01-03T08:42:55.000Z</time>
      </trkpt>
      <trkpt lat="47.49394" lon="6.74609">
        <ele>348</ele>
        <time>2016-01-03T08:42:56.000Z</time>
      </trkpt>
      <trkpt lat="47.49394" lon="6.74605">
        <ele>348</ele>
        <time>2016-01-03T08:42:57.000Z</time>
      </trkpt>
      <trkpt lat="47.49394" lon="6.746">
        <ele>348</ele>
        <time>2016-01-03T08:42:58.000Z</time>
      </trkpt>
      <trkpt lat="47.49394" lon="6.74595">
        <ele>348</ele>
        <time>2016-01-03T08:42:59.000Z</time>
      </trkpt>
      <trkpt lat="47.49393" lon="6.7459">
        <ele>348</ele>
        <time>2016-01-03T08:43:00.000Z</time>
      </trkpt>
      <trkpt lat="47.49393" lon="6.74584">
        <ele>348</ele>
        <time>2016-01-03T08:43:01.000Z</time>
      </trkpt>
      <trkpt lat="47.49393" lon="6.74579">
        <ele>349</ele>
        <time>2016-01-03T08:43:02.000Z</time>
      </trkpt>
      <trkpt lat="47.49393" lon="6.74573">
        <ele>349</ele>
        <time>2016-01-03T08:43:03.000Z</time>
      </trkpt>
      <trkpt lat="47.49393" lon="6.74568">
        <ele>350</ele>
        <time>2016-01-03T08:43:04.000Z</time>
      </trkpt>
      <trkpt lat="47.49394" lon="6.74563">
        <ele>350</ele>
        <time>2016-01-03T08:43:05.000Z</time>
      </trkpt>
      <trkpt lat="47.49394" lon="6.74558">
        <ele>350</ele>
        <time>2016-01-03T08:43:06.000Z</time>
      </trkpt>
      <trkpt lat="47.49395" lon="6.74553">
        <ele>350</ele>
        <time>2016-01-03T08:43:07.000Z</time>
      </trkpt>
      <trkpt lat="47.49395" lon="6.74549">
        <ele>351</ele>
        <time>2016-01-03T08:43:08.000Z</time>
      </trkpt>
      <trkpt lat="47.49395" lon="6.74546">
        <ele>351</ele>
        <time>2016-01-03T08:43:09.000Z</time>
      </trkpt>
      <trkpt lat="47.49396" lon="6.74539">
        <ele>351</ele>
        <time>2016-01-03T08:43:11.000Z</time>
      </trkpt>
      <trkpt lat="47.49395" lon="6.74535">
        <ele>351</ele>
        <time>2016-01-03T08:43:12.000Z</time>
      </trkpt>
      <trkpt lat="47.49395" lon="6.7453">
        <ele>351</ele>
        <time>2016-01-03T08:43:13.000Z</time>
      </trkpt>
      <trkpt lat="47.49394" lon="6.74526">
        <ele>351</ele>
        <time>2016-01-03T08:43:14.000Z</time>
      </trkpt>
      <trkpt lat="47.49394" lon="6.74522">
        <ele>351</ele>
        <time>2016-01-03T08:43:15.000Z</time>
      </trkpt>
      <trkpt lat="47.49393" lon="6.74519">
        <ele>351</ele>
        <time>2016-01-03T08:43:16.000Z</time>
      </trkpt>
      <trkpt lat="47.49392" lon="6.74516">
        <ele>351</ele>
        <time>2016-01-03T08:43:17.000Z</time>
      </trkpt>
      <trkpt lat="47.49392" lon="6.74512">
        <ele>351</ele>
        <time>2016-01-03T08:43:18.000Z</time>
      </trkpt>
      <trkpt lat="47.49391" lon="6.74508">
        <ele>351</ele>
        <time>2016-01-03T08:43:19.000Z</time>
      </trkpt>
      <trkpt lat="47.49391" lon="6.74504">
        <ele>351</ele>
        <time>2016-01-03T08:43:20.000Z</time>
      </trkpt>
      <trkpt lat="47.49391" lon="6.74498">
        <ele>352</ele>
        <time>2016-01-03T08:43:22.000Z</time>
      </trkpt>
      <trkpt lat="47.49391" lon="6.74494">
        <ele>352</ele>
        <time>2016-01-03T08:43:23.000Z</time>
      </trkpt>
      <trkpt lat="47.49391" lon="6.74491">
        <ele>353</ele>
        <time>2016-01-03T08:43:24.000Z</time>
      </trkpt>
      <trkpt lat="47.49391" lon="6.74487">
        <ele>353</ele>
        <time>2016-01-03T08:43:25.000Z</time>
      </trkpt>
      <trkpt lat="47.4939" lon="6.74484">
        <ele>353</ele>
        <time>2016-01-03T08:43:26.000Z</time>
      </trkpt>
      <trkpt lat="47.4939" lon="6.7448">
        <ele>353</ele>
        <time>2016-01-03T08:43:27.000Z</time>
      </trkpt>
      <trkpt lat="47.49389" lon="6.74476">
        <ele>353</ele>
        <time>2016-01-03T08:43:28.000Z</time>
      </trkpt>
      <trkpt lat="47.49388" lon="6.74473">
        <ele>353</ele>
        <time>2016-01-03T08:43:29.000Z</time>
      </trkpt>
      <trkpt lat="47.49388" lon="6.74469">
        <ele>353</ele>
        <time>2016-01-03T08:43:30.000Z</time>
      </trkpt>
      <trkpt lat="47.49387" lon="6.74466">
        <ele>354</ele>
        <time>2016-01-03T08:43:31.000Z</time>
      </trkpt>
      <trkpt lat="47.49387" lon="6.74462">
        <ele>354</ele>
        <time>2016-01-03T08:43:32.000Z</time>
      </trkpt>
      <trkpt lat="47.49387" lon="6.74459">
        <ele>354</ele>
        <time>2016-01-03T08:43:33.000Z</time>
      </trkpt>
      <trkpt lat="47.49387" lon="6.74455">
        <ele>354</ele>
        <time>2016-01-03T08:43:34.000Z</time>
      </trkpt>
      <trkpt lat="47.49387" lon="6.74451">
        <ele>354</ele>
        <time>2016-01-03T08:43:35.000Z</time>
      </trkpt>
      <trkpt lat="47.49387" lon="6.74448">
        <ele>353</ele>
        <time>2016-01-03T08:43:36.000Z</time>
      </trkpt>
      <trkpt lat="47.49388" lon="6.74444">
        <ele>353</ele>
        <time>2016-01-03T08:43:37.000Z</time>
      </trkpt>
      <trkpt lat="47.49388" lon="6.7444">
        <ele>353</ele>
        <time>2016-01-03T08:43:38.000Z</time>
      </trkpt>
      <trkpt lat="47.49389" lon="6.74436">
        <ele>353</ele>
        <time>2016-01-03T08:43:39.000Z</time>
      </trkpt>
      <trkpt lat="47.49389" lon="6.74432">
        <ele>353</ele>
        <time>2016-01-03T08:43:40.000Z</time>
      </trkpt>
      <trkpt lat="47.4939" lon="6.74427">
        <ele>353</ele>
        <time>2016-01-03T08:43:41.000Z</time>
      </trkpt>
      <trkpt lat="47.4939" lon="6.74423">
        <ele>353</ele>
        <time>2016-01-03T08:43:42.000Z</time>
      </trkpt>
      <trkpt lat="47.4939" lon="6.74418">
        <ele>352</ele>
        <time>2016-01-03T08:43:43.000Z</time>
      </trkpt>
      <trkpt lat="47.49389" lon="6.74414">
        <ele>353</ele>
        <time>2016-01-03T08:43:44.000Z</time>
      </trkpt>
      <trkpt lat="47.49389" lon="6.7441">
        <ele>353</ele>
        <time>2016-01-03T08:43:45.000Z</time>
      </trkpt>
      <trkpt lat="47.49389" lon="6.74407">
        <ele>353</ele>
        <time>2016-01-03T08:43:46.000Z</time>
      </trkpt>
      <trkpt lat="47.49388" lon="6.74403">
        <ele>353</ele>
        <time>2016-01-03T08:43:47.000Z</time>
      </trkpt>
      <trkpt lat="47.49388" lon="6.74397">
        <ele>353</ele>
        <time>2016-01-03T08:43:49.000Z</time>
      </trkpt>
      <trkpt lat="47.49389" lon="6.74395">
        <ele>354</ele>
        <time>2016-01-03T08:43:50.000Z</time>
      </trkpt>
      <trkpt lat="47.49389" lon="6.74389">
        <ele>354</ele>
        <time>2016-01-03T08:43:52.000Z</time>
      </trkpt>
      <trkpt lat="47.49389" lon="6.74386">
        <ele>354</ele>
        <time>2016-01-03T08:43:53.000Z</time>
      </trkpt>
      <trkpt lat="47.49389" lon="6.74382">
        <ele>354</ele>
        <time>2016-01-03T08:43:54.000Z</time>
      </trkpt>
      <trkpt lat="47.49389" lon="6.74379">
        <ele>354</ele>
        <time>2016-01-03T08:43:55.000Z</time>
      </trkpt>
      <trkpt lat="47.49389" lon="6.74375">
        <ele>354</ele>
        <time>2016-01-03T08:43:56.000Z</time>
      </trkpt>
      <trkpt lat="47.4939" lon="6.7437">
        <ele>354</ele>
        <time>2016-01-03T08:43:57.000Z</time>
      </trkpt>
      <trkpt lat="47.4939" lon="6.74365">
        <ele>354</ele>
        <time>2016-01-03T08:43:58.000Z</time>
      </trkpt>
      <trkpt lat="47.4939" lon="6.7436">
        <ele>354</ele>
        <time>2016-01-03T08:43:59.000Z</time>
      </trkpt>
      <trkpt lat="47.4939" lon="6.74357">
        <ele>353</ele>
        <time>2016-01-03T08:44:00.000Z</time>
      </trkpt>
      <trkpt lat="47.49391" lon="6.74353">
        <ele>353</ele>
        <time>2016-01-03T08:44:01.000Z</time>
      </trkpt>
      <trkpt lat="47.49391" lon="6.74347">
        <ele>353</ele>
        <time>2016-01-03T08:44:03.000Z</time>
      </trkpt>
      <trkpt lat="47.49391" lon="6.74344">
        <ele>353</ele>
        <time>2016-01-03T08:44:04.000Z</time>
      </trkpt>
      <trkpt lat="47.4939" lon="6.7434">
        <ele>353</ele>
        <time>2016-01-03T08:44:05.000Z</time>
      </trkpt>
      <trkpt lat="47.4939" lon="6.74335">
        <ele>353</ele>
        <time>2016-01-03T08:44:06.000Z</time>
      </trkpt>
      <trkpt lat="47.4939" lon="6.74331">
        <ele>353</ele>
        <time>2016-01-03T08:44:07.000Z</time>
      </trkpt>
      <trkpt lat="47.4939" lon="6.74326">
        <ele>353</ele>
        <time>2016-01-03T08:44:08.000Z</time>
      </trkpt>
      <trkpt lat="47.4939" lon="6.74321">
        <ele>353</ele>
        <time>2016-01-03T08:44:09.000Z</time>
      </trkpt>
      <trkpt lat="47.49391" lon="6.74315">
        <ele>354</ele>
        <time>2016-01-03T08:44:10.000Z</time>
      </trkpt>
      <trkpt lat="47.49391" lon="6.7431">
        <ele>354</ele>
        <time>2016-01-03T08:44:11.000Z</time>
      </trkpt>
      <trkpt lat="47.49392" lon="6.74304">
        <ele>354</ele>
        <time>2016-01-03T08:44:12.000Z</time>
      </trkpt>
      <trkpt lat="47.49393" lon="6.74298">
        <ele>354</ele>
        <time>2016-01-03T08:44:13.000Z</time>
      </trkpt>
      <trkpt lat="47.49395" lon="6.74292">
        <ele>354</ele>
        <time>2016-01-03T08:44:14.000Z</time>
      </trkpt>
      <trkpt lat="47.49396" lon="6.74286">
        <ele>354</ele>
        <time>2016-01-03T08:44:15.000Z</time>
      </trkpt>
      <trkpt lat="47.49398" lon="6.7428">
        <ele>353</ele>
        <time>2016-01-03T08:44:16.000Z</time>
      </trkpt>
      <trkpt lat="47.49399" lon="6.74263">
        <ele>352</ele>
        <time>2016-01-03T08:44:17.000Z</time>
      </trkpt>
      <trkpt lat="47.49401" lon="6.74255">
        <ele>350</ele>
        <time>2016-01-03T08:44:18.000Z</time>
      </trkpt>
      <trkpt lat="47.49402" lon="6.74249">
        <ele>350</ele>
        <time>2016-01-03T08:44:19.000Z</time>
      </trkpt>
      <trkpt lat="47.49403" lon="6.74245">
        <ele>350</ele>
        <time>2016-01-03T08:44:20.000Z</time>
      </trkpt>
      <trkpt lat="47.49404" lon="6.7424">
        <ele>351</ele>
        <time>2016-01-03T08:44:21.000Z</time>
      </trkpt>
      <trkpt lat="47.49405" lon="6.74235">
        <ele>351</ele>
        <time>2016-01-03T08:44:22.000Z</time>
      </trkpt>
      <trkpt lat="47.49408" lon="6.7423">
        <ele>352</ele>
        <time>2016-01-03T08:44:23.000Z</time>
      </trkpt>
      <trkpt lat="47.49408" lon="6.74226">
        <ele>352</ele>
        <time>2016-01-03T08:44:24.000Z</time>
      </trkpt>
      <trkpt lat="47.4941" lon="6.74222">
        <ele>352</ele>
        <time>2016-01-03T08:44:26.000Z</time>
      </trkpt>
      <trkpt lat="47.49412" lon="6.74219">
        <ele>353</ele>
        <time>2016-01-03T08:44:27.000Z</time>
      </trkpt>
      <trkpt lat="47.49412" lon="6.74215">
        <ele>353</ele>
        <time>2016-01-03T08:44:28.000Z</time>
      </trkpt>
      <trkpt lat="47.49412" lon="6.74212">
        <ele>353</ele>
        <time>2016-01-03T08:44:29.000Z</time>
      </trkpt>
      <trkpt lat="47.49411" lon="6.74208">
        <ele>353</ele>
        <time>2016-01-03T08:44:30.000Z</time>
      </trkpt>
      <trkpt lat="47.49411" lon="6.74204">
        <ele>353</ele>
        <time>2016-01-03T08:44:31.000Z</time>
      </trkpt>
      <trkpt lat="47.49411" lon="6.742">
        <ele>353</ele>
        <time>2016-01-03T08:44:32.000Z</time>
      </trkpt>
      <trkpt lat="47.49411" lon="6.74195">
        <ele>353</ele>
        <time>2016-01-03T08:44:33.000Z</time>
      </trkpt>
      <trkpt lat="47.49411" lon="6.74191">
        <ele>352</ele>
        <time>2016-01-03T08:44:34.000Z</time>
      </trkpt>
      <trkpt lat="47.49411" lon="6.74187">
        <ele>352</ele>
        <time>2016-01-03T08:44:35.000Z</time>
      </trkpt>
      <trkpt lat="47.49411" lon="6.74181">
        <ele>351</ele>
        <time>2016-01-03T08:44:36.000Z</time>
      </trkpt>
      <trkpt lat="47.49411" lon="6.74176">
        <ele>349</ele>
        <time>2016-01-03T08:44:37.000Z</time>
      </trkpt>
      <trkpt lat="47.49411" lon="6.7417">
        <ele>348</ele>
        <time>2016-01-03T08:44:38.000Z</time>
      </trkpt>
      <trkpt lat="47.49411" lon="6.74165">
        <ele>348</ele>
        <time>2016-01-03T08:44:39.000Z</time>
      </trkpt>
      <trkpt lat="47.49411" lon="6.74159">
        <ele>349</ele>
        <time>2016-01-03T08:44:40.000Z</time>
      </trkpt>
      <trkpt lat="47.49411" lon="6.74154">
        <ele>351</ele>
        <time>2016-01-03T08:44:41.000Z</time>
      </trkpt>
      <trkpt lat="47.49411" lon="6.74148">
        <ele>352</ele>
        <time>2016-01-03T08:44:42.000Z</time>
      </trkpt>
      <trkpt lat="47.4941" lon="6.74144">
        <ele>352</ele>
        <time>2016-01-03T08:44:43.000Z</time>
      </trkpt>
      <trkpt lat="47.4941" lon="6.74138">
        <ele>353</ele>
        <time>2016-01-03T08:44:45.000Z</time>
      </trkpt>
      <trkpt lat="47.49409" lon="6.74136">
        <ele>353</ele>
        <time>2016-01-03T08:44:46.000Z</time>
      </trkpt>
      <trkpt lat="47.49407" lon="6.7413">
        <ele>354</ele>
        <time>2016-01-03T08:44:48.000Z</time>
      </trkpt>
      <trkpt lat="47.49406" lon="6.74127">
        <ele>354</ele>
        <time>2016-01-03T08:44:49.000Z</time>
      </trkpt>
      <trkpt lat="47.49406" lon="6.74123">
        <ele>354</ele>
        <time>2016-01-03T08:44:50.000Z</time>
      </trkpt>
      <trkpt lat="47.49405" lon="6.7412">
        <ele>354</ele>
        <time>2016-01-03T08:44:51.000Z</time>
      </trkpt>
      <trkpt lat="47.49404" lon="6.74114">
        <ele>354</ele>
        <time>2016-01-03T08:44:53.000Z</time>
      </trkpt>
      <trkpt lat="47.49403" lon="6.74111">
        <ele>354</ele>
        <time>2016-01-03T08:44:54.000Z</time>
      </trkpt>
      <trkpt lat="47.49402" lon="6.74105">
        <ele>354</ele>
        <time>2016-01-03T08:44:56.000Z</time>
      </trkpt>
      <trkpt lat="47.49402" lon="6.74102">
        <ele>353</ele>
        <time>2016-01-03T08:44:57.000Z</time>
      </trkpt>
      <trkpt lat="47.49401" lon="6.74096">
        <ele>353</ele>
        <time>2016-01-03T08:44:59.000Z</time>
      </trkpt>
      <trkpt lat="47.494" lon="6.74093">
        <ele>353</ele>
        <time>2016-01-03T08:45:00.000Z</time>
      </trkpt>
      <trkpt lat="47.49399" lon="6.74088">
        <ele>353</ele>
        <time>2016-01-03T08:45:02.000Z</time>
      </trkpt>
      <trkpt lat="47.49398" lon="6.74086">
        <ele>353</ele>
        <time>2016-01-03T08:45:03.000Z</time>
      </trkpt>
      <trkpt lat="47.49397" lon="6.7408">
        <ele>353</ele>
        <time>2016-01-03T08:45:06.000Z</time>
      </trkpt>
      <trkpt lat="47.49397" lon="6.74078">
        <ele>353</ele>
        <time>2016-01-03T08:45:07.000Z</time>
      </trkpt>
      <trkpt lat="47.49398" lon="6.74075">
        <ele>353</ele>
        <time>2016-01-03T08:45:08.000Z</time>
      </trkpt>
      <trkpt lat="47.49399" lon="6.74071">
        <ele>353</ele>
        <time>2016-01-03T08:45:09.000Z</time>
      </trkpt>
      <trkpt lat="47.49401" lon="6.74066">
        <ele>353</ele>
        <time>2016-01-03T08:45:10.000Z</time>
      </trkpt>
      <trkpt lat="47.49403" lon="6.7406">
        <ele>353</ele>
        <time>2016-01-03T08:45:11.000Z</time>
      </trkpt>
      <trkpt lat="47.49404" lon="6.74054">
        <ele>353</ele>
        <time>2016-01-03T08:45:12.000Z</time>
      </trkpt>
      <trkpt lat="47.49405" lon="6.74049">
        <ele>353</ele>
        <time>2016-01-03T08:45:13.000Z</time>
      </trkpt>
      <trkpt lat="47.49406" lon="6.74044">
        <ele>354</ele>
        <time>2016-01-03T08:45:14.000Z</time>
      </trkpt>
      <trkpt lat="47.49407" lon="6.7404">
        <ele>354</ele>
        <time>2016-01-03T08:45:15.000Z</time>
      </trkpt>
      <trkpt lat="47.49407" lon="6.74036">
        <ele>354</ele>
        <time>2016-01-03T08:45:16.000Z</time>
      </trkpt>
      <trkpt lat="47.49408" lon="6.74032">
        <ele>353</ele>
        <time>2016-01-03T08:45:17.000Z</time>
      </trkpt>
      <trkpt lat="47.49409" lon="6.74028">
        <ele>353</ele>
        <time>2016-01-03T08:45:18.000Z</time>
      </trkpt>
      <trkpt lat="47.49409" lon="6.74024">
        <ele>353</ele>
        <time>2016-01-03T08:45:19.000Z</time>
      </trkpt>
      <trkpt lat="47.4941" lon="6.7402">
        <ele>353</ele>
        <time>2016-01-03T08:45:20.000Z</time>
      </trkpt>
      <trkpt lat="47.4941" lon="6.74015">
        <ele>352</ele>
        <time>2016-01-03T08:45:21.000Z</time>
      </trkpt>
      <trkpt lat="47.4941" lon="6.7401">
        <ele>352</ele>
        <time>2016-01-03T08:45:22.000Z</time>
      </trkpt>
      <trkpt lat="47.4941" lon="6.74005">
        <ele>351</ele>
        <time>2016-01-03T08:45:23.000Z</time>
      </trkpt>
      <trkpt lat="47.4941" lon="6.74">
        <ele>350</ele>
        <time>2016-01-03T08:45:24.000Z</time>
      </trkpt>
      <trkpt lat="47.4941" lon="6.73994">
        <ele>350</ele>
        <time>2016-01-03T08:45:25.000Z</time>
      </trkpt>
      <trkpt lat="47.49411" lon="6.73988">
        <ele>351</ele>
        <time>2016-01-03T08:45:26.000Z</time>
      </trkpt>
      <trkpt lat="47.49412" lon="6.73982">
        <ele>351</ele>
        <time>2016-01-03T08:45:27.000Z</time>
      </trkpt>
      <trkpt lat="47.49413" lon="6.73976">
        <ele>352</ele>
        <time>2016-01-03T08:45:28.000Z</time>
      </trkpt>
      <trkpt lat="47.49413" lon="6.7397">
        <ele>352</ele>
        <time>2016-01-03T08:45:29.000Z</time>
      </trkpt>
      <trkpt lat="47.49413" lon="6.73964">
        <ele>352</ele>
        <time>2016-01-03T08:45:30.000Z</time>
      </trkpt>
      <trkpt lat="47.49413" lon="6.73959">
        <ele>352</ele>
        <time>2016-01-03T08:45:31.000Z</time>
      </trkpt>
      <trkpt lat="47.49413" lon="6.73953">
        <ele>351</ele>
        <time>2016-01-03T08:45:32.000Z</time>
      </trkpt>
      <trkpt lat="47.49412" lon="6.73948">
        <ele>351</ele>
        <time>2016-01-03T08:45:33.000Z</time>
      </trkpt>
      <trkpt lat="47.49412" lon="6.73943">
        <ele>351</ele>
        <time>2016-01-03T08:45:34.000Z</time>
      </trkpt>
      <trkpt lat="47.49412" lon="6.73937">
        <ele>350</ele>
        <time>2016-01-03T08:45:35.000Z</time>
      </trkpt>
      <trkpt lat="47.49411" lon="6.73931">
        <ele>350</ele>
        <time>2016-01-03T08:45:36.000Z</time>
      </trkpt>
      <trkpt lat="47.4941" lon="6.73925">
        <ele>349</ele>
        <time>2016-01-03T08:45:37.000Z</time>
      </trkpt>
      <trkpt lat="47.49409" lon="6.73918">
        <ele>348</ele>
        <time>2016-01-03T08:45:38.000Z</time>
      </trkpt>
      <trkpt lat="47.49408" lon="6.73911">
        <ele>348</ele>
        <time>2016-01-03T08:45:39.000Z</time>
      </trkpt>
      <trkpt lat="47.49408" lon="6.73904">
        <ele>348</ele>
        <time>2016-01-03T08:45:40.000Z</time>
      </trkpt>
      <trkpt lat="47.49408" lon="6.73898">
        <ele>349</ele>
        <time>2016-01-03T08:45:41.000Z</time>
      </trkpt>
      <trkpt lat="47.49408" lon="6.73892">
        <ele>349</ele>
        <time>2016-01-03T08:45:42.000Z</time>
      </trkpt>
      <trkpt lat="47.49409" lon="6.73887">
        <ele>349</ele>
        <time>2016-01-03T08:45:43.000Z</time>
      </trkpt>
      <trkpt lat="47.49409" lon="6.73882">
        <ele>349</ele>
        <time>2016-01-03T08:45:44.000Z</time>
      </trkpt>
      <trkpt lat="47.4941" lon="6.73876">
        <ele>349</ele>
        <time>2016-01-03T08:45:45.000Z</time>
      </trkpt>
      <trkpt lat="47.49411" lon="6.73871">
        <ele>349</ele>
        <time>2016-01-03T08:45:46.000Z</time>
      </trkpt>
      <trkpt lat="47.49411" lon="6.73866">
        <ele>348</ele>
        <time>2016-01-03T08:45:47.000Z</time>
      </trkpt>
      <trkpt lat="47.49412" lon="6.73862">
        <ele>348</ele>
        <time>2016-01-03T08:45:48.000Z</time>
      </trkpt>
      <trkpt lat="47.49413" lon="6.73859">
        <ele>348</ele>
        <time>2016-01-03T08:45:49.000Z</time>
      </trkpt>
      <trkpt lat="47.49413" lon="6.73855">
        <ele>348</ele>
        <time>2016-01-03T08:45:50.000Z</time>
      </trkpt>
      <trkpt lat="47.49414" lon="6.73851">
        <ele>347</ele>
        <time>2016-01-03T08:45:51.000Z</time>
      </trkpt>
      <trkpt lat="47.49415" lon="6.73847">
        <ele>347</ele>
        <time>2016-01-03T08:45:52.000Z</time>
      </trkpt>
      <trkpt lat="47.49415" lon="6.73841">
        <ele>346</ele>
        <time>2016-01-03T08:45:53.000Z</time>
      </trkpt>
      <trkpt lat="47.49415" lon="6.73835">
        <ele>345</ele>
        <time>2016-01-03T08:45:54.000Z</time>
      </trkpt>
      <trkpt lat="47.49416" lon="6.7383">
        <ele>345</ele>
        <time>2016-01-03T08:45:55.000Z</time>
      </trkpt>
      <trkpt lat="47.49417" lon="6.73824">
        <ele>342</ele>
        <time>2016-01-03T08:45:56.000Z</time>
      </trkpt>
      <trkpt lat="47.49418" lon="6.73818">
        <ele>342</ele>
        <time>2016-01-03T08:45:57.000Z</time>
      </trkpt>
      <trkpt lat="47.4942" lon="6.73812">
        <ele>341</ele>
        <time>2016-01-03T08:45:58.000Z</time>
      </trkpt>
      <trkpt lat="47.49422" lon="6.73805">
        <ele>341</ele>
        <time>2016-01-03T08:45:59.000Z</time>
      </trkpt>
      <trkpt lat="47.49425" lon="6.73797">
        <ele>340</ele>
        <time>2016-01-03T08:46:00.000Z</time>
      </trkpt>
      <trkpt lat="47.49428" lon="6.7379">
        <ele>340</ele>
        <time>2016-01-03T08:46:01.000Z</time>
      </trkpt>
      <trkpt lat="47.49431" lon="6.73782">
        <ele>340</ele>
        <time>2016-01-03T08:46:02.000Z</time>
      </trkpt>
      <trkpt lat="47.49435" lon="6.73776">
        <ele>340</ele>
        <time>2016-01-03T08:46:03.000Z</time>
      </trkpt>
      <trkpt lat="47.49438" lon="6.73769">
        <ele>340</ele>
        <time>2016-01-03T08:46:04.000Z</time>
      </trkpt>
      <trkpt lat="47.49441" lon="6.73763">
        <ele>340</ele>
        <time>2016-01-03T08:46:05.000Z</time>
      </trkpt>
      <trkpt lat="47.49444" lon="6.73757">
        <ele>340</ele>
        <time>2016-01-03T08:46:06.000Z</time>
      </trkpt>
      <trkpt lat="47.49448" lon="6.73751">
        <ele>339</ele>
        <time>2016-01-03T08:46:07.000Z</time>
      </trkpt>
      <trkpt lat="47.49451" lon="6.73745">
        <ele>339</ele>
        <time>2016-01-03T08:46:08.000Z</time>
      </trkpt>
      <trkpt lat="47.49455" lon="6.73739">
        <ele>339</ele>
        <time>2016-01-03T08:46:09.000Z</time>
      </trkpt>
      <trkpt lat="47.49458" lon="6.73733">
        <ele>338</ele>
        <time>2016-01-03T08:46:10.000Z</time>
      </trkpt>
      <trkpt lat="47.4946" lon="6.73726">
        <ele>338</ele>
        <time>2016-01-03T08:46:11.000Z</time>
      </trkpt>
      <trkpt lat="47.49463" lon="6.73719">
        <ele>338</ele>
        <time>2016-01-03T08:46:12.000Z</time>
      </trkpt>
      <trkpt lat="47.49467" lon="6.73706">
        <ele>338</ele>
        <time>2016-01-03T08:46:13.000Z</time>
      </trkpt>
      <trkpt lat="47.4947" lon="6.737">
        <ele>337</ele>
        <time>2016-01-03T08:46:14.000Z</time>
      </trkpt>
      <trkpt lat="47.49473" lon="6.73694">
        <ele>337</ele>
        <time>2016-01-03T08:46:15.000Z</time>
      </trkpt>
      <trkpt lat="47.49476" lon="6.73688">
        <ele>337</ele>
        <time>2016-01-03T08:46:16.000Z</time>
      </trkpt>
      <trkpt lat="47.49479" lon="6.73683">
        <ele>336</ele>
        <time>2016-01-03T08:46:17.000Z</time>
      </trkpt>
      <trkpt lat="47.49481" lon="6.73677">
        <ele>336</ele>
        <time>2016-01-03T08:46:18.000Z</time>
      </trkpt>
      <trkpt lat="47.49483" lon="6.73672">
        <ele>335</ele>
        <time>2016-01-03T08:46:19.000Z</time>
      </trkpt>
      <trkpt lat="47.49486" lon="6.73667">
        <ele>335</ele>
        <time>2016-01-03T08:46:20.000Z</time>
      </trkpt>
      <trkpt lat="47.49488" lon="6.73661">
        <ele>334</ele>
        <time>2016-01-03T08:46:21.000Z</time>
      </trkpt>
      <trkpt lat="47.49491" lon="6.73656">
        <ele>335</ele>
        <time>2016-01-03T08:46:22.000Z</time>
      </trkpt>
      <trkpt lat="47.49493" lon="6.73651">
        <ele>335</ele>
        <time>2016-01-03T08:46:23.000Z</time>
      </trkpt>
      <trkpt lat="47.49495" lon="6.73646">
        <ele>335</ele>
        <time>2016-01-03T08:46:24.000Z</time>
      </trkpt>
      <trkpt lat="47.49498" lon="6.73641">
        <ele>336</ele>
        <time>2016-01-03T08:46:25.000Z</time>
      </trkpt>
      <trkpt lat="47.495" lon="6.73637">
        <ele>336</ele>
        <time>2016-01-03T08:46:26.000Z</time>
      </trkpt>
      <trkpt lat="47.49502" lon="6.73632">
        <ele>332</ele>
        <time>2016-01-03T08:46:27.000Z</time>
      </trkpt>
      <trkpt lat="47.49505" lon="6.73628">
        <ele>332</ele>
        <time>2016-01-03T08:46:28.000Z</time>
      </trkpt>
      <trkpt lat="47.49508" lon="6.73624">
        <ele>332</ele>
        <time>2016-01-03T08:46:29.000Z</time>
      </trkpt>
      <trkpt lat="47.49511" lon="6.7362">
        <ele>332</ele>
        <time>2016-01-03T08:46:30.000Z</time>
      </trkpt>
      <trkpt lat="47.49513" lon="6.73616">
        <ele>332</ele>
        <time>2016-01-03T08:46:31.000Z</time>
      </trkpt>
      <trkpt lat="47.49516" lon="6.73612">
        <ele>332</ele>
        <time>2016-01-03T08:46:32.000Z</time>
      </trkpt>
      <trkpt lat="47.49519" lon="6.73608">
        <ele>332</ele>
        <time>2016-01-03T08:46:33.000Z</time>
      </trkpt>
      <trkpt lat="47.49522" lon="6.73605">
        <ele>332</ele>
        <time>2016-01-03T08:46:34.000Z</time>
      </trkpt>
      <trkpt lat="47.49525" lon="6.73601">
        <ele>332</ele>
        <time>2016-01-03T08:46:35.000Z</time>
      </trkpt>
      <trkpt lat="47.49528" lon="6.73598">
        <ele>332</ele>
        <time>2016-01-03T08:46:36.000Z</time>
      </trkpt>
      <trkpt lat="47.49531" lon="6.73594">
        <ele>332</ele>
        <time>2016-01-03T08:46:37.000Z</time>
      </trkpt>
      <trkpt lat="47.49535" lon="6.7359">
        <ele>332</ele>
        <time>2016-01-03T08:46:38.000Z</time>
      </trkpt>
      <trkpt lat="47.49538" lon="6.73586">
        <ele>332</ele>
        <time>2016-01-03T08:46:39.001Z</time>
      </trkpt>
      <trkpt lat="47.49541" lon="6.73583">
        <ele>333</ele>
        <time>2016-01-03T08:46:40.000Z</time>
      </trkpt>
      <trkpt lat="47.49545" lon="6.73577">
        <ele>333</ele>
        <time>2016-01-03T08:46:41.000Z</time>
      </trkpt>
      <trkpt lat="47.49549" lon="6.73572">
        <ele>333</ele>
        <time>2016-01-03T08:46:42.000Z</time>
      </trkpt>
      <trkpt lat="47.49552" lon="6.73571">
        <ele>333</ele>
        <time>2016-01-03T08:46:43.000Z</time>
      </trkpt>
      <trkpt lat="47.49556" lon="6.73567">
        <ele>333</ele>
        <time>2016-01-03T08:46:44.000Z</time>
      </trkpt>
      <trkpt lat="47.49559" lon="6.73564">
        <ele>333</ele>
        <time>2016-01-03T08:46:45.001Z</time>
      </trkpt>
      <trkpt lat="47.49563" lon="6.7356">
        <ele>333</ele>
        <time>2016-01-03T08:46:46.000Z</time>
      </trkpt>
      <trkpt lat="47.49566" lon="6.73557">
        <ele>333</ele>
        <time>2016-01-03T08:46:47.000Z</time>
      </trkpt>
      <trkpt lat="47.4957" lon="6.73554">
        <ele>333</ele>
        <time>2016-01-03T08:46:48.000Z</time>
      </trkpt>
      <trkpt lat="47.49574" lon="6.73552">
        <ele>333</ele>
        <time>2016-01-03T08:46:49.000Z</time>
      </trkpt>
      <trkpt lat="47.49577" lon="6.73549">
        <ele>333</ele>
        <time>2016-01-03T08:46:50.000Z</time>
      </trkpt>
      <trkpt lat="47.4958" lon="6.73546">
        <ele>333</ele>
        <time>2016-01-03T08:46:51.000Z</time>
      </trkpt>
      <trkpt lat="47.49584" lon="6.73543">
        <ele>331</ele>
        <time>2016-01-03T08:46:52.000Z</time>
      </trkpt>
      <trkpt lat="47.49587" lon="6.7354">
        <ele>332</ele>
        <time>2016-01-03T08:46:53.000Z</time>
      </trkpt>
      <trkpt lat="47.4959" lon="6.73538">
        <ele>332</ele>
        <time>2016-01-03T08:46:54.000Z</time>
      </trkpt>
      <trkpt lat="47.49593" lon="6.73534">
        <ele>332</ele>
        <time>2016-01-03T08:46:55.000Z</time>
      </trkpt>
      <trkpt lat="47.49596" lon="6.73531">
        <ele>332</ele>
        <time>2016-01-03T08:46:56.000Z</time>
      </trkpt>
      <trkpt lat="47.496" lon="6.73528">
        <ele>332</ele>
        <time>2016-01-03T08:46:57.000Z</time>
      </trkpt>
      <trkpt lat="47.49603" lon="6.73525">
        <ele>332</ele>
        <time>2016-01-03T08:46:58.000Z</time>
      </trkpt>
      <trkpt lat="47.49606" lon="6.73521">
        <ele>332</ele>
        <time>2016-01-03T08:46:59.000Z</time>
      </trkpt>
      <trkpt lat="47.4961" lon="6.73518">
        <ele>332</ele>
        <time>2016-01-03T08:47:00.000Z</time>
      </trkpt>
      <trkpt lat="47.49613" lon="6.73514">
        <ele>332</ele>
        <time>2016-01-03T08:47:01.000Z</time>
      </trkpt>
      <trkpt lat="47.49616" lon="6.73511">
        <ele>332</ele>
        <time>2016-01-03T08:47:02.000Z</time>
      </trkpt>
      <trkpt lat="47.49618" lon="6.73507">
        <ele>332</ele>
        <time>2016-01-03T08:47:03.000Z</time>
      </trkpt>
      <trkpt lat="47.49621" lon="6.73504">
        <ele>332</ele>
        <time>2016-01-03T08:47:04.000Z</time>
      </trkpt>
      <trkpt lat="47.49624" lon="6.735">
        <ele>332</ele>
        <time>2016-01-03T08:47:05.000Z</time>
      </trkpt>
      <trkpt lat="47.49627" lon="6.73496">
        <ele>333</ele>
        <time>2016-01-03T08:47:06.000Z</time>
      </trkpt>
      <trkpt lat="47.4963" lon="6.73492">
        <ele>333</ele>
        <time>2016-01-03T08:47:07.000Z</time>
      </trkpt>
      <trkpt lat="47.49633" lon="6.73488">
        <ele>333</ele>
        <time>2016-01-03T08:47:08.000Z</time>
      </trkpt>
      <trkpt lat="47.49636" lon="6.73484">
        <ele>333</ele>
        <time>2016-01-03T08:47:09.000Z</time>
      </trkpt>
      <trkpt lat="47.49639" lon="6.7348">
        <ele>333</ele>
        <time>2016-01-03T08:47:10.000Z</time>
      </trkpt>
      <trkpt lat="47.49642" lon="6.73475">
        <ele>333</ele>
        <time>2016-01-03T08:47:11.000Z</time>
      </trkpt>
      <trkpt lat="47.49645" lon="6.73471">
        <ele>334</ele>
        <time>2016-01-03T08:47:12.000Z</time>
      </trkpt>
      <trkpt lat="47.49647" lon="6.73467">
        <ele>334</ele>
        <time>2016-01-03T08:47:13.000Z</time>
      </trkpt>
      <trkpt lat="47.4965" lon="6.73463">
        <ele>334</ele>
        <time>2016-01-03T08:47:14.000Z</time>
      </trkpt>
      <trkpt lat="47.49653" lon="6.73458">
        <ele>334</ele>
        <time>2016-01-03T08:47:15.000Z</time>
      </trkpt>
      <trkpt lat="47.49655" lon="6.73454">
        <ele>334</ele>
        <time>2016-01-03T08:47:16.000Z</time>
      </trkpt>
      <trkpt lat="47.49658" lon="6.7345">
        <ele>334</ele>
        <time>2016-01-03T08:47:17.000Z</time>
      </trkpt>
      <trkpt lat="47.49661" lon="6.73446">
        <ele>334</ele>
        <time>2016-01-03T08:47:18.000Z</time>
      </trkpt>
      <trkpt lat="47.49664" lon="6.73442">
        <ele>334</ele>
        <time>2016-01-03T08:47:19.000Z</time>
      </trkpt>
      <trkpt lat="47.49667" lon="6.73438">
        <ele>333</ele>
        <time>2016-01-03T08:47:20.000Z</time>
      </trkpt>
      <trkpt lat="47.4967" lon="6.73434">
        <ele>333</ele>
        <time>2016-01-03T08:47:21.000Z</time>
      </trkpt>
      <trkpt lat="47.49672" lon="6.7343">
        <ele>334</ele>
        <time>2016-01-03T08:47:22.000Z</time>
      </trkpt>
      <trkpt lat="47.49675" lon="6.73426">
        <ele>334</ele>
        <time>2016-01-03T08:47:23.000Z</time>
      </trkpt>
      <trkpt lat="47.49678" lon="6.73422">
        <ele>334</ele>
        <time>2016-01-03T08:47:24.000Z</time>
      </trkpt>
      <trkpt lat="47.49681" lon="6.73418">
        <ele>334</ele>
        <time>2016-01-03T08:47:25.000Z</time>
      </trkpt>
      <trkpt lat="47.49683" lon="6.73414">
        <ele>334</ele>
        <time>2016-01-03T08:47:26.000Z</time>
      </trkpt>
      <trkpt lat="47.49686" lon="6.73409">
        <ele>334</ele>
        <time>2016-01-03T08:47:27.000Z</time>
      </trkpt>
      <trkpt lat="47.49689" lon="6.73405">
        <ele>334</ele>
        <time>2016-01-03T08:47:28.000Z</time>
      </trkpt>
      <trkpt lat="47.49692" lon="6.73401">
        <ele>334</ele>
        <time>2016-01-03T08:47:29.000Z</time>
      </trkpt>
      <trkpt lat="47.49694" lon="6.73397">
        <ele>334</ele>
        <time>2016-01-03T08:47:30.000Z</time>
      </trkpt>
      <trkpt lat="47.49697" lon="6.73393">
        <ele>334</ele>
        <time>2016-01-03T08:47:31.000Z</time>
      </trkpt>
      <trkpt lat="47.497" lon="6.73389">
        <ele>334</ele>
        <time>2016-01-03T08:47:32.000Z</time>
      </trkpt>
      <trkpt lat="47.49703" lon="6.73385">
        <ele>334</ele>
        <time>2016-01-03T08:47:33.000Z</time>
      </trkpt>
      <trkpt lat="47.49706" lon="6.73381">
        <ele>334</ele>
        <time>2016-01-03T08:47:34.000Z</time>
      </trkpt>
      <trkpt lat="47.49709" lon="6.73378">
        <ele>334</ele>
        <time>2016-01-03T08:47:35.000Z</time>
      </trkpt>
      <trkpt lat="47.49711" lon="6.73374">
        <ele>334</ele>
        <time>2016-01-03T08:47:36.000Z</time>
      </trkpt>
      <trkpt lat="47.49714" lon="6.7337">
        <ele>334</ele>
        <time>2016-01-03T08:47:37.001Z</time>
      </trkpt>
      <trkpt lat="47.49717" lon="6.73366">
        <ele>334</ele>
        <time>2016-01-03T08:47:38.000Z</time>
      </trkpt>
      <trkpt lat="47.4972" lon="6.73362">
        <ele>334</ele>
        <time>2016-01-03T08:47:39.000Z</time>
      </trkpt>
      <trkpt lat="47.49723" lon="6.73357">
        <ele>334</ele>
        <time>2016-01-03T08:47:40.000Z</time>
      </trkpt>
      <trkpt lat="47.49726" lon="6.73353">
        <ele>334</ele>
        <time>2016-01-03T08:47:41.000Z</time>
      </trkpt>
      <trkpt lat="47.49728" lon="6.73349">
        <ele>333</ele>
        <time>2016-01-03T08:47:42.000Z</time>
      </trkpt>
      <trkpt lat="47.49731" lon="6.73345">
        <ele>333</ele>
        <time>2016-01-03T08:47:43.000Z</time>
      </trkpt>
      <trkpt lat="47.49734" lon="6.7334">
        <ele>333</ele>
        <time>2016-01-03T08:47:44.000Z</time>
      </trkpt>
      <trkpt lat="47.49737" lon="6.73336">
        <ele>333</ele>
        <time>2016-01-03T08:47:45.000Z</time>
      </trkpt>
      <trkpt lat="47.4974" lon="6.73332">
        <ele>334</ele>
        <time>2016-01-03T08:47:46.000Z</time>
      </trkpt>
      <trkpt lat="47.49743" lon="6.73328">
        <ele>333</ele>
        <time>2016-01-03T08:47:47.000Z</time>
      </trkpt>
      <trkpt lat="47.49746" lon="6.73323">
        <ele>334</ele>
        <time>2016-01-03T08:47:48.000Z</time>
      </trkpt>
      <trkpt lat="47.49748" lon="6.73319">
        <ele>334</ele>
        <time>2016-01-03T08:47:49.000Z</time>
      </trkpt>
      <trkpt lat="47.49751" lon="6.73315">
        <ele>333</ele>
        <time>2016-01-03T08:47:50.000Z</time>
      </trkpt>
      <trkpt lat="47.49754" lon="6.7331">
        <ele>333</ele>
        <time>2016-01-03T08:47:51.000Z</time>
      </trkpt>
      <trkpt lat="47.49757" lon="6.73306">
        <ele>334</ele>
        <time>2016-01-03T08:47:52.000Z</time>
      </trkpt>
      <trkpt lat="47.4976" lon="6.73302">
        <ele>334</ele>
        <time>2016-01-03T08:47:53.000Z</time>
      </trkpt>
      <trkpt lat="47.49763" lon="6.73297">
        <ele>334</ele>
        <time>2016-01-03T08:47:54.000Z</time>
      </trkpt>
      <trkpt lat="47.49766" lon="6.73293">
        <ele>334</ele>
        <time>2016-01-03T08:47:55.000Z</time>
      </trkpt>
      <trkpt lat="47.49768" lon="6.73289">
        <ele>334</ele>
        <time>2016-01-03T08:47:56.000Z</time>
      </trkpt>
      <trkpt lat="47.49771" lon="6.73284">
        <ele>334</ele>
        <time>2016-01-03T08:47:57.000Z</time>
      </trkpt>
      <trkpt lat="47.49774" lon="6.7328">
        <ele>335</ele>
        <time>2016-01-03T08:47:58.000Z</time>
      </trkpt>
      <trkpt lat="47.49776" lon="6.73275">
        <ele>335</ele>
        <time>2016-01-03T08:47:59.000Z</time>
      </trkpt>
      <trkpt lat="47.49778" lon="6.7327">
        <ele>335</ele>
        <time>2016-01-03T08:48:00.000Z</time>
      </trkpt>
      <trkpt lat="47.49781" lon="6.73265">
        <ele>335</ele>
        <time>2016-01-03T08:48:01.000Z</time>
      </trkpt>
      <trkpt lat="47.49783" lon="6.73261">
        <ele>335</ele>
        <time>2016-01-03T08:48:02.000Z</time>
      </trkpt>
      <trkpt lat="47.49786" lon="6.73256">
        <ele>335</ele>
        <time>2016-01-03T08:48:03.000Z</time>
      </trkpt>
      <trkpt lat="47.49788" lon="6.73251">
        <ele>335</ele>
        <time>2016-01-03T08:48:04.000Z</time>
      </trkpt>
      <trkpt lat="47.4979" lon="6.73246">
        <ele>337</ele>
        <time>2016-01-03T08:48:05.000Z</time>
      </trkpt>
      <trkpt lat="47.49792" lon="6.73241">
        <ele>337</ele>
        <time>2016-01-03T08:48:06.000Z</time>
      </trkpt>
      <trkpt lat="47.49794" lon="6.73236">
        <ele>337</ele>
        <time>2016-01-03T08:48:07.000Z</time>
      </trkpt>
      <trkpt lat="47.49796" lon="6.73231">
        <ele>337</ele>
        <time>2016-01-03T08:48:08.000Z</time>
      </trkpt>
      <trkpt lat="47.49798" lon="6.73226">
        <ele>337</ele>
        <time>2016-01-03T08:48:09.000Z</time>
      </trkpt>
      <trkpt lat="47.49799" lon="6.73221">
        <ele>337</ele>
        <time>2016-01-03T08:48:10.002Z</time>
      </trkpt>
      <trkpt lat="47.49801" lon="6.73216">
        <ele>337</ele>
        <time>2016-01-03T08:48:11.001Z</time>
      </trkpt>
      <trkpt lat="47.49803" lon="6.7321">
        <ele>337</ele>
        <time>2016-01-03T08:48:12.000Z</time>
      </trkpt>
      <trkpt lat="47.49805" lon="6.73205">
        <ele>337</ele>
        <time>2016-01-03T08:48:13.000Z</time>
      </trkpt>
      <trkpt lat="47.49806" lon="6.73199">
        <ele>337</ele>
        <time>2016-01-03T08:48:14.000Z</time>
      </trkpt>
      <trkpt lat="47.49808" lon="6.73194">
        <ele>337</ele>
        <time>2016-01-03T08:48:15.000Z</time>
      </trkpt>
      <trkpt lat="47.4981" lon="6.73189">
        <ele>337</ele>
        <time>2016-01-03T08:48:16.000Z</time>
      </trkpt>
      <trkpt lat="47.49812" lon="6.73184">
        <ele>337</ele>
        <time>2016-01-03T08:48:17.000Z</time>
      </trkpt>
      <trkpt lat="47.49813" lon="6.73179">
        <ele>337</ele>
        <time>2016-01-03T08:48:18.000Z</time>
      </trkpt>
      <trkpt lat="47.49815" lon="6.73173">
        <ele>337</ele>
        <time>2016-01-03T08:48:19.000Z</time>
      </trkpt>
      <trkpt lat="47.49816" lon="6.73168">
        <ele>337</ele>
        <time>2016-01-03T08:48:20.000Z</time>
      </trkpt>
      <trkpt lat="47.49818" lon="6.73163">
        <ele>338</ele>
        <time>2016-01-03T08:48:21.000Z</time>
      </trkpt>
      <trkpt lat="47.49819" lon="6.73159">
        <ele>338</ele>
        <time>2016-01-03T08:48:22.000Z</time>
      </trkpt>
      <trkpt lat="47.4982" lon="6.73154">
        <ele>338</ele>
        <time>2016-01-03T08:48:23.000Z</time>
      </trkpt>
      <trkpt lat="47.49821" lon="6.73149">
        <ele>338</ele>
        <time>2016-01-03T08:48:24.000Z</time>
      </trkpt>
      <trkpt lat="47.49823" lon="6.73143">
        <ele>339</ele>
        <time>2016-01-03T08:48:25.000Z</time>
      </trkpt>
      <trkpt lat="47.49824" lon="6.73137">
        <ele>339</ele>
        <time>2016-01-03T08:48:26.000Z</time>
      </trkpt>
      <trkpt lat="47.49825" lon="6.73132">
        <ele>339</ele>
        <time>2016-01-03T08:48:27.001Z</time>
      </trkpt>
      <trkpt lat="47.49827" lon="6.73126">
        <ele>339</ele>
        <time>2016-01-03T08:48:28.000Z</time>
      </trkpt>
      <trkpt lat="47.49828" lon="6.73121">
        <ele>339</ele>
        <time>2016-01-03T08:48:29.000Z</time>
      </trkpt>
      <trkpt lat="47.49829" lon="6.73116">
        <ele>339</ele>
        <time>2016-01-03T08:48:30.000Z</time>
      </trkpt>
      <trkpt lat="47.4983" lon="6.73111">
        <ele>339</ele>
        <time>2016-01-03T08:48:31.000Z</time>
      </trkpt>
      <trkpt lat="47.49831" lon="6.73106">
        <ele>339</ele>
        <time>2016-01-03T08:48:32.000Z</time>
      </trkpt>
      <trkpt lat="47.49833" lon="6.73102">
        <ele>340</ele>
        <time>2016-01-03T08:48:33.000Z</time>
      </trkpt>
      <trkpt lat="47.49834" lon="6.73097">
        <ele>339</ele>
        <time>2016-01-03T08:48:34.000Z</time>
      </trkpt>
      <trkpt lat="47.49835" lon="6.73093">
        <ele>339</ele>
        <time>2016-01-03T08:48:35.000Z</time>
      </trkpt>
      <trkpt lat="47.49836" lon="6.73088">
        <ele>340</ele>
        <time>2016-01-03T08:48:36.000Z</time>
      </trkpt>
      <trkpt lat="47.49838" lon="6.73084">
        <ele>340</ele>
        <time>2016-01-03T08:48:37.000Z</time>
      </trkpt>
      <trkpt lat="47.49839" lon="6.73079">
        <ele>340</ele>
        <time>2016-01-03T08:48:38.000Z</time>
      </trkpt>
      <trkpt lat="47.4984" lon="6.73074">
        <ele>340</ele>
        <time>2016-01-03T08:48:39.000Z</time>
      </trkpt>
      <trkpt lat="47.49842" lon="6.73069">
        <ele>340</ele>
        <time>2016-01-03T08:48:40.000Z</time>
      </trkpt>
      <trkpt lat="47.49843" lon="6.73064">
        <ele>340</ele>
        <time>2016-01-03T08:48:41.000Z</time>
      </trkpt>
      <trkpt lat="47.49845" lon="6.7306">
        <ele>340</ele>
        <time>2016-01-03T08:48:42.000Z</time>
      </trkpt>
      <trkpt lat="47.49847" lon="6.73055">
        <ele>340</ele>
        <time>2016-01-03T08:48:43.000Z</time>
      </trkpt>
      <trkpt lat="47.49848" lon="6.73051">
        <ele>340</ele>
        <time>2016-01-03T08:48:44.000Z</time>
      </trkpt>
      <trkpt lat="47.4985" lon="6.73046">
        <ele>340</ele>
        <time>2016-01-03T08:48:45.000Z</time>
      </trkpt>
      <trkpt lat="47.49852" lon="6.73042">
        <ele>340</ele>
        <time>2016-01-03T08:48:46.000Z</time>
      </trkpt>
      <trkpt lat="47.49855" lon="6.73038">
        <ele>340</ele>
        <time>2016-01-03T08:48:47.000Z</time>
      </trkpt>
      <trkpt lat="47.49857" lon="6.73034">
        <ele>340</ele>
        <time>2016-01-03T08:48:48.000Z</time>
      </trkpt>
      <trkpt lat="47.49859" lon="6.73029">
        <ele>341</ele>
        <time>2016-01-03T08:48:49.000Z</time>
      </trkpt>
      <trkpt lat="47.49861" lon="6.73025">
        <ele>341</ele>
        <time>2016-01-03T08:48:50.000Z</time>
      </trkpt>
      <trkpt lat="47.49865" lon="6.73015">
        <ele>341</ele>
        <time>2016-01-03T08:48:52.000Z</time>
      </trkpt>
      <trkpt lat="47.49867" lon="6.73011">
        <ele>341</ele>
        <time>2016-01-03T08:48:53.000Z</time>
      </trkpt>
      <trkpt lat="47.49869" lon="6.73007">
        <ele>341</ele>
        <time>2016-01-03T08:48:54.000Z</time>
      </trkpt>
      <trkpt lat="47.4987" lon="6.73003">
        <ele>341</ele>
        <time>2016-01-03T08:48:55.000Z</time>
      </trkpt>
      <trkpt lat="47.49872" lon="6.72998">
        <ele>342</ele>
        <time>2016-01-03T08:48:56.000Z</time>
      </trkpt>
      <trkpt lat="47.49874" lon="6.72994">
        <ele>342</ele>
        <time>2016-01-03T08:48:57.000Z</time>
      </trkpt>
      <trkpt lat="47.49875" lon="6.72989">
        <ele>342</ele>
        <time>2016-01-03T08:48:58.000Z</time>
      </trkpt>
      <trkpt lat="47.49877" lon="6.72984">
        <ele>342</ele>
        <time>2016-01-03T08:48:59.000Z</time>
      </trkpt>
      <trkpt lat="47.49879" lon="6.72979">
        <ele>342</ele>
        <time>2016-01-03T08:49:00.000Z</time>
      </trkpt>
      <trkpt lat="47.49881" lon="6.72974">
        <ele>342</ele>
        <time>2016-01-03T08:49:01.000Z</time>
      </trkpt>
      <trkpt lat="47.49884" lon="6.72969">
        <ele>342</ele>
        <time>2016-01-03T08:49:02.000Z</time>
      </trkpt>
      <trkpt lat="47.49886" lon="6.72964">
        <ele>342</ele>
        <time>2016-01-03T08:49:03.000Z</time>
      </trkpt>
      <trkpt lat="47.49888" lon="6.72959">
        <ele>342</ele>
        <time>2016-01-03T08:49:04.000Z</time>
      </trkpt>
      <trkpt lat="47.4989" lon="6.72954">
        <ele>342</ele>
        <time>2016-01-03T08:49:05.000Z</time>
      </trkpt>
      <trkpt lat="47.49893" lon="6.7295">
        <ele>342</ele>
        <time>2016-01-03T08:49:06.000Z</time>
      </trkpt>
      <trkpt lat="47.49896" lon="6.72945">
        <ele>342</ele>
        <time>2016-01-03T08:49:07.000Z</time>
      </trkpt>
      <trkpt lat="47.499" lon="6.72944">
        <ele>342</ele>
        <time>2016-01-03T08:49:08.000Z</time>
      </trkpt>
      <trkpt lat="47.49904" lon="6.72942">
        <ele>342</ele>
        <time>2016-01-03T08:49:09.000Z</time>
      </trkpt>
      <trkpt lat="47.49908" lon="6.72944">
        <ele>341</ele>
        <time>2016-01-03T08:49:10.000Z</time>
      </trkpt>
      <trkpt lat="47.49915" lon="6.7295">
        <ele>341</ele>
        <time>2016-01-03T08:49:11.000Z</time>
      </trkpt>
      <trkpt lat="47.4992" lon="6.72952">
        <ele>339</ele>
        <time>2016-01-03T08:49:12.000Z</time>
      </trkpt>
      <trkpt lat="47.49926" lon="6.72954">
        <ele>339</ele>
        <time>2016-01-03T08:49:13.000Z</time>
      </trkpt>
      <trkpt lat="47.49931" lon="6.72956">
        <ele>339</ele>
        <time>2016-01-03T08:49:14.000Z</time>
      </trkpt>
      <trkpt lat="47.49937" lon="6.7296">
        <ele>339</ele>
        <time>2016-01-03T08:49:15.000Z</time>
      </trkpt>
      <trkpt lat="47.49942" lon="6.72963">
        <ele>339</ele>
        <time>2016-01-03T08:49:15.999Z</time>
      </trkpt>
      <trkpt lat="47.49948" lon="6.72965">
        <ele>339</ele>
        <time>2016-01-03T08:49:17.000Z</time>
      </trkpt>
      <trkpt lat="47.49954" lon="6.72965">
        <ele>339</ele>
        <time>2016-01-03T08:49:18.000Z</time>
      </trkpt>
      <trkpt lat="47.4996" lon="6.72965">
        <ele>339</ele>
        <time>2016-01-03T08:49:19.000Z</time>
      </trkpt>
      <trkpt lat="47.49965" lon="6.72965">
        <ele>339</ele>
        <time>2016-01-03T08:49:20.000Z</time>
      </trkpt>
      <trkpt lat="47.49971" lon="6.72969">
        <ele>338</ele>
        <time>2016-01-03T08:49:21.000Z</time>
      </trkpt>
      <trkpt lat="47.49975" lon="6.72974">
        <ele>338</ele>
        <time>2016-01-03T08:49:22.000Z</time>
      </trkpt>
      <trkpt lat="47.4998" lon="6.72979">
        <ele>338</ele>
        <time>2016-01-03T08:49:23.000Z</time>
      </trkpt>
      <trkpt lat="47.49983" lon="6.72985">
        <ele>338</ele>
        <time>2016-01-03T08:49:24.000Z</time>
      </trkpt>
      <trkpt lat="47.49987" lon="6.7299">
        <ele>338</ele>
        <time>2016-01-03T08:49:25.000Z</time>
      </trkpt>
      <trkpt lat="47.49991" lon="6.72995">
        <ele>338</ele>
        <time>2016-01-03T08:49:26.000Z</time>
      </trkpt>
      <trkpt lat="47.49995" lon="6.73001">
        <ele>337</ele>
        <time>2016-01-03T08:49:27.000Z</time>
      </trkpt>
      <trkpt lat="47.49998" lon="6.73007">
        <ele>337</ele>
        <time>2016-01-03T08:49:28.000Z</time>
      </trkpt>
      <trkpt lat="47.50002" lon="6.73013">
        <ele>337</ele>
        <time>2016-01-03T08:49:29.000Z</time>
      </trkpt>
      <trkpt lat="47.50005" lon="6.73019">
        <ele>337</ele>
        <time>2016-01-03T08:49:30.000Z</time>
      </trkpt>
      <trkpt lat="47.5001" lon="6.73024">
        <ele>337</ele>
        <time>2016-01-03T08:49:31.000Z</time>
      </trkpt>
      <trkpt lat="47.50014" lon="6.73029">
        <ele>337</ele>
        <time>2016-01-03T08:49:32.000Z</time>
      </trkpt>
      <trkpt lat="47.50017" lon="6.73035">
        <ele>337</ele>
        <time>2016-01-03T08:49:33.001Z</time>
      </trkpt>
      <trkpt lat="47.50022" lon="6.73039">
        <ele>337</ele>
        <time>2016-01-03T08:49:34.000Z</time>
      </trkpt>
      <trkpt lat="47.50026" lon="6.73043">
        <ele>337</ele>
        <time>2016-01-03T08:49:35.000Z</time>
      </trkpt>
      <trkpt lat="47.5003" lon="6.73048">
        <ele>337</ele>
        <time>2016-01-03T08:49:36.000Z</time>
      </trkpt>
      <trkpt lat="47.50034" lon="6.73051">
        <ele>337</ele>
        <time>2016-01-03T08:49:37.000Z</time>
      </trkpt>
      <trkpt lat="47.50038" lon="6.73057">
        <ele>337</ele>
        <time>2016-01-03T08:49:38.000Z</time>
      </trkpt>
      <trkpt lat="47.50042" lon="6.7306">
        <ele>337</ele>
        <time>2016-01-03T08:49:39.000Z</time>
      </trkpt>
      <trkpt lat="47.50047" lon="6.73064">
        <ele>337</ele>
        <time>2016-01-03T08:49:40.000Z</time>
      </trkpt>
      <trkpt lat="47.5005" lon="6.73068">
        <ele>337</ele>
        <time>2016-01-03T08:49:41.000Z</time>
      </trkpt>
      <trkpt lat="47.50055" lon="6.73072">
        <ele>337</ele>
        <time>2016-01-03T08:49:42.000Z</time>
      </trkpt>
      <trkpt lat="47.50059" lon="6.73076">
        <ele>337</ele>
        <time>2016-01-03T08:49:43.000Z</time>
      </trkpt>
      <trkpt lat="47.50063" lon="6.7308">
        <ele>337</ele>
        <time>2016-01-03T08:49:44.000Z</time>
      </trkpt>
      <trkpt lat="47.50067" lon="6.73084">
        <ele>337</ele>
        <time>2016-01-03T08:49:45.000Z</time>
      </trkpt>
      <trkpt lat="47.50071" lon="6.7309">
        <ele>338</ele>
        <time>2016-01-03T08:49:46.000Z</time>
      </trkpt>
      <trkpt lat="47.50076" lon="6.73094">
        <ele>338</ele>
        <time>2016-01-03T08:49:47.002Z</time>
      </trkpt>
      <trkpt lat="47.50081" lon="6.73098">
        <ele>338</ele>
        <time>2016-01-03T08:49:48.000Z</time>
      </trkpt>
      <trkpt lat="47.50083" lon="6.73104">
        <ele>338</ele>
        <time>2016-01-03T08:49:49.000Z</time>
      </trkpt>
      <trkpt lat="47.50087" lon="6.73108">
        <ele>339</ele>
        <time>2016-01-03T08:49:50.000Z</time>
      </trkpt>
      <trkpt lat="47.50092" lon="6.73111">
        <ele>339</ele>
        <time>2016-01-03T08:49:51.001Z</time>
      </trkpt>
      <trkpt lat="47.50095" lon="6.73115">
        <ele>339</ele>
        <time>2016-01-03T08:49:52.000Z</time>
      </trkpt>
      <trkpt lat="47.501" lon="6.73117">
        <ele>339</ele>
        <time>2016-01-03T08:49:53.000Z</time>
      </trkpt>
      <trkpt lat="47.50105" lon="6.73121">
        <ele>339</ele>
        <time>2016-01-03T08:49:54.000Z</time>
      </trkpt>
      <trkpt lat="47.50109" lon="6.73121">
        <ele>339</ele>
        <time>2016-01-03T08:49:55.000Z</time>
      </trkpt>
      <trkpt lat="47.50114" lon="6.73122">
        <ele>339</ele>
        <time>2016-01-03T08:49:56.000Z</time>
      </trkpt>
      <trkpt lat="47.50118" lon="6.73122">
        <ele>339</ele>
        <time>2016-01-03T08:49:57.000Z</time>
      </trkpt>
      <trkpt lat="47.50123" lon="6.73123">
        <ele>339</ele>
        <time>2016-01-03T08:49:58.000Z</time>
      </trkpt>
      <trkpt lat="47.50127" lon="6.73123">
        <ele>340</ele>
        <time>2016-01-03T08:49:59.000Z</time>
      </trkpt>
      <trkpt lat="47.50131" lon="6.73122">
        <ele>340</ele>
        <time>2016-01-03T08:50:00.000Z</time>
      </trkpt>
      <trkpt lat="47.50135" lon="6.73122">
        <ele>340</ele>
        <time>2016-01-03T08:50:01.000Z</time>
      </trkpt>
      <trkpt lat="47.50139" lon="6.73123">
        <ele>340</ele>
        <time>2016-01-03T08:50:02.000Z</time>
      </trkpt>
      <trkpt lat="47.50143" lon="6.73123">
        <ele>340</ele>
        <time>2016-01-03T08:50:03.000Z</time>
      </trkpt>
      <trkpt lat="47.50147" lon="6.73122">
        <ele>340</ele>
        <time>2016-01-03T08:50:04.000Z</time>
      </trkpt>
      <trkpt lat="47.5015" lon="6.73122">
        <ele>340</ele>
        <time>2016-01-03T08:50:05.000Z</time>
      </trkpt>
      <trkpt lat="47.50154" lon="6.73122">
        <ele>340</ele>
        <time>2016-01-03T08:50:06.000Z</time>
      </trkpt>
      <trkpt lat="47.50157" lon="6.73122">
        <ele>340</ele>
        <time>2016-01-03T08:50:07.000Z</time>
      </trkpt>
      <trkpt lat="47.50161" lon="6.73122">
        <ele>340</ele>
        <time>2016-01-03T08:50:08.000Z</time>
      </trkpt>
      <trkpt lat="47.50164" lon="6.73123">
        <ele>340</ele>
        <time>2016-01-03T08:50:09.000Z</time>
      </trkpt>
      <trkpt lat="47.50167" lon="6.73125">
        <ele>341</ele>
        <time>2016-01-03T08:50:10.000Z</time>
      </trkpt>
      <trkpt lat="47.5017" lon="6.73128">
        <ele>341</ele>
        <time>2016-01-03T08:50:11.000Z</time>
      </trkpt>
      <trkpt lat="47.50172" lon="6.73131">
        <ele>341</ele>
        <time>2016-01-03T08:50:12.000Z</time>
      </trkpt>
      <trkpt lat="47.50175" lon="6.73134">
        <ele>341</ele>
        <time>2016-01-03T08:50:13.000Z</time>
      </trkpt>
      <trkpt lat="47.50178" lon="6.73136">
        <ele>341</ele>
        <time>2016-01-03T08:50:14.001Z</time>
      </trkpt>
      <trkpt lat="47.5018" lon="6.73137">
        <ele>341</ele>
        <time>2016-01-03T08:50:15.000Z</time>
      </trkpt>
      <trkpt lat="47.50183" lon="6.73138">
        <ele>341</ele>
        <time>2016-01-03T08:50:16.000Z</time>
      </trkpt>
      <trkpt lat="47.50186" lon="6.73137">
        <ele>341</ele>
        <time>2016-01-03T08:50:17.000Z</time>
      </trkpt>
      <trkpt lat="47.50189" lon="6.73137">
        <ele>341</ele>
        <time>2016-01-03T08:50:17.999Z</time>
      </trkpt>
      <trkpt lat="47.50192" lon="6.73136">
        <ele>341</ele>
        <time>2016-01-03T08:50:19.000Z</time>
      </trkpt>
      <trkpt lat="47.50196" lon="6.73136">
        <ele>341</ele>
        <time>2016-01-03T08:50:20.000Z</time>
      </trkpt>
      <trkpt lat="47.50199" lon="6.73137">
        <ele>341</ele>
        <time>2016-01-03T08:50:21.000Z</time>
      </trkpt>
      <trkpt lat="47.50203" lon="6.73138">
        <ele>341</ele>
        <time>2016-01-03T08:50:22.001Z</time>
      </trkpt>
      <trkpt lat="47.50205" lon="6.73142">
        <ele>341</ele>
        <time>2016-01-03T08:50:23.000Z</time>
      </trkpt>
      <trkpt lat="47.50208" lon="6.73145">
        <ele>341</ele>
        <time>2016-01-03T08:50:24.000Z</time>
      </trkpt>
      <trkpt lat="47.5021" lon="6.73149">
        <ele>341</ele>
        <time>2016-01-03T08:50:25.000Z</time>
      </trkpt>
      <trkpt lat="47.50212" lon="6.73153">
        <ele>341</ele>
        <time>2016-01-03T08:50:26.000Z</time>
      </trkpt>
      <trkpt lat="47.50215" lon="6.73157">
        <ele>342</ele>
        <time>2016-01-03T08:50:27.000Z</time>
      </trkpt>
      <trkpt lat="47.50217" lon="6.73161">
        <ele>342</ele>
        <time>2016-01-03T08:50:28.000Z</time>
      </trkpt>
      <trkpt lat="47.5022" lon="6.73165">
        <ele>342</ele>
        <time>2016-01-03T08:50:29.000Z</time>
      </trkpt>
      <trkpt lat="47.50223" lon="6.73168">
        <ele>343</ele>
        <time>2016-01-03T08:50:30.000Z</time>
      </trkpt>
      <trkpt lat="47.50226" lon="6.73171">
        <ele>343</ele>
        <time>2016-01-03T08:50:31.000Z</time>
      </trkpt>
      <trkpt lat="47.50229" lon="6.73175">
        <ele>343</ele>
        <time>2016-01-03T08:50:32.000Z</time>
      </trkpt>
      <trkpt lat="47.50231" lon="6.73178">
        <ele>343</ele>
        <time>2016-01-03T08:50:33.000Z</time>
      </trkpt>
      <trkpt lat="47.50234" lon="6.73181">
        <ele>343</ele>
        <time>2016-01-03T08:50:34.000Z</time>
      </trkpt>
      <trkpt lat="47.50238" lon="6.73184">
        <ele>343</ele>
        <time>2016-01-03T08:50:35.000Z</time>
      </trkpt>
      <trkpt lat="47.50241" lon="6.73186">
        <ele>343</ele>
        <time>2016-01-03T08:50:36.000Z</time>
      </trkpt>
      <trkpt lat="47.50244" lon="6.73188">
        <ele>343</ele>
        <time>2016-01-03T08:50:37.000Z</time>
      </trkpt>
      <trkpt lat="47.50247" lon="6.73191">
        <ele>344</ele>
        <time>2016-01-03T08:50:38.000Z</time>
      </trkpt>
      <trkpt lat="47.50251" lon="6.73194">
        <ele>345</ele>
        <time>2016-01-03T08:50:39.000Z</time>
      </trkpt>
      <trkpt lat="47.50254" lon="6.73197">
        <ele>345</ele>
        <time>2016-01-03T08:50:40.000Z</time>
      </trkpt>
      <trkpt lat="47.50259" lon="6.73201">
        <ele>345</ele>
        <time>2016-01-03T08:50:41.000Z</time>
      </trkpt>
      <trkpt lat="47.50261" lon="6.73206">
        <ele>346</ele>
        <time>2016-01-03T08:50:42.000Z</time>
      </trkpt>
      <trkpt lat="47.50264" lon="6.73211">
        <ele>346</ele>
        <time>2016-01-03T08:50:42.999Z</time>
      </trkpt>
      <trkpt lat="47.50268" lon="6.73214">
        <ele>346</ele>
        <time>2016-01-03T08:50:44.000Z</time>
      </trkpt>
      <trkpt lat="47.50271" lon="6.73218">
        <ele>346</ele>
        <time>2016-01-03T08:50:45.000Z</time>
      </trkpt>
      <trkpt lat="47.50274" lon="6.73222">
        <ele>346</ele>
        <time>2016-01-03T08:50:46.000Z</time>
      </trkpt>
      <trkpt lat="47.50278" lon="6.73225">
        <ele>347</ele>
        <time>2016-01-03T08:50:47.000Z</time>
      </trkpt>
      <trkpt lat="47.50282" lon="6.73228">
        <ele>347</ele>
        <time>2016-01-03T08:50:48.000Z</time>
      </trkpt>
      <trkpt lat="47.50286" lon="6.7323">
        <ele>347</ele>
        <time>2016-01-03T08:50:49.000Z</time>
      </trkpt>
      <trkpt lat="47.50289" lon="6.73234">
        <ele>347</ele>
        <time>2016-01-03T08:50:50.000Z</time>
      </trkpt>
      <trkpt lat="47.50292" lon="6.73238">
        <ele>347</ele>
        <time>2016-01-03T08:50:51.000Z</time>
      </trkpt>
      <trkpt lat="47.50295" lon="6.73242">
        <ele>347</ele>
        <time>2016-01-03T08:50:51.999Z</time>
      </trkpt>
      <trkpt lat="47.50299" lon="6.73244">
        <ele>347</ele>
        <time>2016-01-03T08:50:53.000Z</time>
      </trkpt>
      <trkpt lat="47.50302" lon="6.73247">
        <ele>347</ele>
        <time>2016-01-03T08:50:53.999Z</time>
      </trkpt>
      <trkpt lat="47.50306" lon="6.7325">
        <ele>351</ele>
        <time>2016-01-03T08:50:55.000Z</time>
      </trkpt>
      <trkpt lat="47.50309" lon="6.73253">
        <ele>351</ele>
        <time>2016-01-03T08:50:55.999Z</time>
      </trkpt>
      <trkpt lat="47.50312" lon="6.73256">
        <ele>351</ele>
        <time>2016-01-03T08:50:57.000Z</time>
      </trkpt>
      <trkpt lat="47.50315" lon="6.73259">
        <ele>351</ele>
        <time>2016-01-03T08:50:58.000Z</time>
      </trkpt>
      <trkpt lat="47.50318" lon="6.73262">
        <ele>351</ele>
        <time>2016-01-03T08:50:59.000Z</time>
      </trkpt>
      <trkpt lat="47.50321" lon="6.73265">
        <ele>351</ele>
        <time>2016-01-03T08:51:00.000Z</time>
      </trkpt>
      <trkpt lat="47.50325" lon="6.73268">
        <ele>351</ele>
        <time>2016-01-03T08:51:01.000Z</time>
      </trkpt>
      <trkpt lat="47.50328" lon="6.73271">
        <ele>351</ele>
        <time>2016-01-03T08:51:02.000Z</time>
      </trkpt>
      <trkpt lat="47.50331" lon="6.73273">
        <ele>351</ele>
        <time>2016-01-03T08:51:03.000Z</time>
      </trkpt>
      <trkpt lat="47.50334" lon="6.73275">
        <ele>352</ele>
        <time>2016-01-03T08:51:04.000Z</time>
      </trkpt>
      <trkpt lat="47.50336" lon="6.73278">
        <ele>352</ele>
        <time>2016-01-03T08:51:05.000Z</time>
      </trkpt>
      <trkpt lat="47.50339" lon="6.7328">
        <ele>353</ele>
        <time>2016-01-03T08:51:06.000Z</time>
      </trkpt>
      <trkpt lat="47.50342" lon="6.73284">
        <ele>353</ele>
        <time>2016-01-03T08:51:07.000Z</time>
      </trkpt>
      <trkpt lat="47.50345" lon="6.73284">
        <ele>353</ele>
        <time>2016-01-03T08:51:08.000Z</time>
      </trkpt>
      <trkpt lat="47.50348" lon="6.73286">
        <ele>353</ele>
        <time>2016-01-03T08:51:09.000Z</time>
      </trkpt>
      <trkpt lat="47.50351" lon="6.73288">
        <ele>353</ele>
        <time>2016-01-03T08:51:10.000Z</time>
      </trkpt>
      <trkpt lat="47.50353" lon="6.73289">
        <ele>354</ele>
        <time>2016-01-03T08:51:11.000Z</time>
      </trkpt>
      <trkpt lat="47.50356" lon="6.73291">
        <ele>354</ele>
        <time>2016-01-03T08:51:12.000Z</time>
      </trkpt>
      <trkpt lat="47.50359" lon="6.73293">
        <ele>354</ele>
        <time>2016-01-03T08:51:13.000Z</time>
      </trkpt>
      <trkpt lat="47.50361" lon="6.73296">
        <ele>354</ele>
        <time>2016-01-03T08:51:14.000Z</time>
      </trkpt>
      <trkpt lat="47.50364" lon="6.73299">
        <ele>354</ele>
        <time>2016-01-03T08:51:15.000Z</time>
      </trkpt>
      <trkpt lat="47.50367" lon="6.73301">
        <ele>354</ele>
        <time>2016-01-03T08:51:16.000Z</time>
      </trkpt>
      <trkpt lat="47.5037" lon="6.73303">
        <ele>354</ele>
        <time>2016-01-03T08:51:17.000Z</time>
      </trkpt>
      <trkpt lat="47.50373" lon="6.73304">
        <ele>355</ele>
        <time>2016-01-03T08:51:18.000Z</time>
      </trkpt>
      <trkpt lat="47.50376" lon="6.73305">
        <ele>355</ele>
        <time>2016-01-03T08:51:19.000Z</time>
      </trkpt>
      <trkpt lat="47.50379" lon="6.73306">
        <ele>355</ele>
        <time>2016-01-03T08:51:20.000Z</time>
      </trkpt>
      <trkpt lat="47.50382" lon="6.73308">
        <ele>355</ele>
        <time>2016-01-03T08:51:21.000Z</time>
      </trkpt>
      <trkpt lat="47.50386" lon="6.73309">
        <ele>355</ele>
        <time>2016-01-03T08:51:22.000Z</time>
      </trkpt>
      <trkpt lat="47.5039" lon="6.73311">
        <ele>355</ele>
        <time>2016-01-03T08:51:23.000Z</time>
      </trkpt>
      <trkpt lat="47.50393" lon="6.73312">
        <ele>355</ele>
        <time>2016-01-03T08:51:24.000Z</time>
      </trkpt>
      <trkpt lat="47.50396" lon="6.73314">
        <ele>355</ele>
        <time>2016-01-03T08:51:25.000Z</time>
      </trkpt>
      <trkpt lat="47.50399" lon="6.73317">
        <ele>356</ele>
        <time>2016-01-03T08:51:26.000Z</time>
      </trkpt>
      <trkpt lat="47.50402" lon="6.73319">
        <ele>356</ele>
        <time>2016-01-03T08:51:27.001Z</time>
      </trkpt>
      <trkpt lat="47.50404" lon="6.73321">
        <ele>356</ele>
        <time>2016-01-03T08:51:28.000Z</time>
      </trkpt>
      <trkpt lat="47.50406" lon="6.73323">
        <ele>356</ele>
        <time>2016-01-03T08:51:29.000Z</time>
      </trkpt>
      <trkpt lat="47.50409" lon="6.73324">
        <ele>357</ele>
        <time>2016-01-03T08:51:30.000Z</time>
      </trkpt>
      <trkpt lat="47.50412" lon="6.73325">
        <ele>357</ele>
        <time>2016-01-03T08:51:31.000Z</time>
      </trkpt>
      <trkpt lat="47.50415" lon="6.73326">
        <ele>357</ele>
        <time>2016-01-03T08:51:32.000Z</time>
      </trkpt>
      <trkpt lat="47.50419" lon="6.73328">
        <ele>358</ele>
        <time>2016-01-03T08:51:33.000Z</time>
      </trkpt>
      <trkpt lat="47.50422" lon="6.7333">
        <ele>358</ele>
        <time>2016-01-03T08:51:34.000Z</time>
      </trkpt>
      <trkpt lat="47.50425" lon="6.73332">
        <ele>358</ele>
        <time>2016-01-03T08:51:35.000Z</time>
      </trkpt>
      <trkpt lat="47.50427" lon="6.73334">
        <ele>359</ele>
        <time>2016-01-03T08:51:36.000Z</time>
      </trkpt>
      <trkpt lat="47.5043" lon="6.73335">
        <ele>360</ele>
        <time>2016-01-03T08:51:37.000Z</time>
      </trkpt>
      <trkpt lat="47.50432" lon="6.73338">
        <ele>360</ele>
        <time>2016-01-03T08:51:37.998Z</time>
      </trkpt>
      <trkpt lat="47.50436" lon="6.7334">
        <ele>360</ele>
        <time>2016-01-03T08:51:39.000Z</time>
      </trkpt>
      <trkpt lat="47.50439" lon="6.73343">
        <ele>361</ele>
        <time>2016-01-03T08:51:40.000Z</time>
      </trkpt>
      <trkpt lat="47.50442" lon="6.73346">
        <ele>361</ele>
        <time>2016-01-03T08:51:41.000Z</time>
      </trkpt>
      <trkpt lat="47.50445" lon="6.73349">
        <ele>361</ele>
        <time>2016-01-03T08:51:41.999Z</time>
      </trkpt>
      <trkpt lat="47.50447" lon="6.73352">
        <ele>361</ele>
        <time>2016-01-03T08:51:43.000Z</time>
      </trkpt>
      <trkpt lat="47.5045" lon="6.73356">
        <ele>362</ele>
        <time>2016-01-03T08:51:44.000Z</time>
      </trkpt>
      <trkpt lat="47.50453" lon="6.73359">
        <ele>362</ele>
        <time>2016-01-03T08:51:45.000Z</time>
      </trkpt>
      <trkpt lat="47.50455" lon="6.73362">
        <ele>362</ele>
        <time>2016-01-03T08:51:46.000Z</time>
      </trkpt>
      <trkpt lat="47.50458" lon="6.73366">
        <ele>362</ele>
        <time>2016-01-03T08:51:47.000Z</time>
      </trkpt>
      <trkpt lat="47.5046" lon="6.7337">
        <ele>362</ele>
        <time>2016-01-03T08:51:48.000Z</time>
      </trkpt>
      <trkpt lat="47.50462" lon="6.73374">
        <ele>362</ele>
        <time>2016-01-03T08:51:49.000Z</time>
      </trkpt>
      <trkpt lat="47.50464" lon="6.73378">
        <ele>362</ele>
        <time>2016-01-03T08:51:50.000Z</time>
      </trkpt>
      <trkpt lat="47.50466" lon="6.73381">
        <ele>363</ele>
        <time>2016-01-03T08:51:51.000Z</time>
      </trkpt>
      <trkpt lat="47.50468" lon="6.73385">
        <ele>363</ele>
        <time>2016-01-03T08:51:52.001Z</time>
      </trkpt>
      <trkpt lat="47.5047" lon="6.73388">
        <ele>363</ele>
        <time>2016-01-03T08:51:53.000Z</time>
      </trkpt>
      <trkpt lat="47.50472" lon="6.73391">
        <ele>363</ele>
        <time>2016-01-03T08:51:54.000Z</time>
      </trkpt>
      <trkpt lat="47.50473" lon="6.73394">
        <ele>363</ele>
        <time>2016-01-03T08:51:55.000Z</time>
      </trkpt>
      <trkpt lat="47.50475" lon="6.73396">
        <ele>363</ele>
        <time>2016-01-03T08:51:56.000Z</time>
      </trkpt>
      <trkpt lat="47.50478" lon="6.73399">
        <ele>363</ele>
        <time>2016-01-03T08:51:57.000Z</time>
      </trkpt>
      <trkpt lat="47.5048" lon="6.73402">
        <ele>363</ele>
        <time>2016-01-03T08:51:58.000Z</time>
      </trkpt>
      <trkpt lat="47.50483" lon="6.73405">
        <ele>364</ele>
        <time>2016-01-03T08:51:59.000Z</time>
      </trkpt>
      <trkpt lat="47.50487" lon="6.73408">
        <ele>364</ele>
        <time>2016-01-03T08:52:00.000Z</time>
      </trkpt>
      <trkpt lat="47.50489" lon="6.73411">
        <ele>364</ele>
        <time>2016-01-03T08:52:01.000Z</time>
      </trkpt>
      <trkpt lat="47.50492" lon="6.73414">
        <ele>364</ele>
        <time>2016-01-03T08:52:02.000Z</time>
      </trkpt>
      <trkpt lat="47.50495" lon="6.73417">
        <ele>366</ele>
        <time>2016-01-03T08:52:03.000Z</time>
      </trkpt>
      <trkpt lat="47.50497" lon="6.7342">
        <ele>366</ele>
        <time>2016-01-03T08:52:04.000Z</time>
      </trkpt>
      <trkpt lat="47.50499" lon="6.73424">
        <ele>367</ele>
        <time>2016-01-03T08:52:05.000Z</time>
      </trkpt>
      <trkpt lat="47.50501" lon="6.73427">
        <ele>368</ele>
        <time>2016-01-03T08:52:06.000Z</time>
      </trkpt>
      <trkpt lat="47.50503" lon="6.73429">
        <ele>369</ele>
        <time>2016-01-03T08:52:07.000Z</time>
      </trkpt>
      <trkpt lat="47.50507" lon="6.73433">
        <ele>370</ele>
        <time>2016-01-03T08:52:09.000Z</time>
      </trkpt>
      <trkpt lat="47.50509" lon="6.73433">
        <ele>371</ele>
        <time>2016-01-03T08:52:10.000Z</time>
      </trkpt>
      <trkpt lat="47.50512" lon="6.73437">
        <ele>371</ele>
        <time>2016-01-03T08:52:12.000Z</time>
      </trkpt>
      <trkpt lat="47.50515" lon="6.7344">
        <ele>372</ele>
        <time>2016-01-03T08:52:13.000Z</time>
      </trkpt>
      <trkpt lat="47.50517" lon="6.73444">
        <ele>373</ele>
        <time>2016-01-03T08:52:14.000Z</time>
      </trkpt>
      <trkpt lat="47.5052" lon="6.73448">
        <ele>373</ele>
        <time>2016-01-03T08:52:15.000Z</time>
      </trkpt>
      <trkpt lat="47.50522" lon="6.73451">
        <ele>374</ele>
        <time>2016-01-03T08:52:16.000Z</time>
      </trkpt>
      <trkpt lat="47.50525" lon="6.73455">
        <ele>374</ele>
        <time>2016-01-03T08:52:17.000Z</time>
      </trkpt>
      <trkpt lat="47.50527" lon="6.73459">
        <ele>374</ele>
        <time>2016-01-03T08:52:18.000Z</time>
      </trkpt>
      <trkpt lat="47.5053" lon="6.73463">
        <ele>375</ele>
        <time>2016-01-03T08:52:19.000Z</time>
      </trkpt>
      <trkpt lat="47.50532" lon="6.73468">
        <ele>375</ele>
        <time>2016-01-03T08:52:20.000Z</time>
      </trkpt>
      <trkpt lat="47.50535" lon="6.73472">
        <ele>375</ele>
        <time>2016-01-03T08:52:21.000Z</time>
      </trkpt>
      <trkpt lat="47.50538" lon="6.73476">
        <ele>375</ele>
        <time>2016-01-03T08:52:22.000Z</time>
      </trkpt>
      <trkpt lat="47.50541" lon="6.7348">
        <ele>376</ele>
        <time>2016-01-03T08:52:23.000Z</time>
      </trkpt>
      <trkpt lat="47.50544" lon="6.73484">
        <ele>376</ele>
        <time>2016-01-03T08:52:24.000Z</time>
      </trkpt>
      <trkpt lat="47.50547" lon="6.73488">
        <ele>376</ele>
        <time>2016-01-03T08:52:25.000Z</time>
      </trkpt>
      <trkpt lat="47.50549" lon="6.73492">
        <ele>376</ele>
        <time>2016-01-03T08:52:26.000Z</time>
      </trkpt>
      <trkpt lat="47.50552" lon="6.73497">
        <ele>376</ele>
        <time>2016-01-03T08:52:27.000Z</time>
      </trkpt>
      <trkpt lat="47.50554" lon="6.735">
        <ele>381</ele>
        <time>2016-01-03T08:52:28.000Z</time>
      </trkpt>
      <trkpt lat="47.50556" lon="6.73504">
        <ele>381</ele>
        <time>2016-01-03T08:52:29.000Z</time>
      </trkpt>
      <trkpt lat="47.50558" lon="6.73507">
        <ele>381</ele>
        <time>2016-01-03T08:52:30.000Z</time>
      </trkpt>
      <trkpt lat="47.50561" lon="6.7351">
        <ele>381</ele>
        <time>2016-01-03T08:52:31.000Z</time>
      </trkpt>
      <trkpt lat="47.50563" lon="6.73512">
        <ele>381</ele>
        <time>2016-01-03T08:52:32.000Z</time>
      </trkpt>
      <trkpt lat="47.50566" lon="6.73514">
        <ele>380</ele>
        <time>2016-01-03T08:52:33.000Z</time>
      </trkpt>
      <trkpt lat="47.50569" lon="6.73517">
        <ele>380</ele>
        <time>2016-01-03T08:52:34.000Z</time>
      </trkpt>
      <trkpt lat="47.50572" lon="6.7352">
        <ele>381</ele>
        <time>2016-01-03T08:52:35.000Z</time>
      </trkpt>
      <trkpt lat="47.50574" lon="6.73523">
        <ele>381</ele>
        <time>2016-01-03T08:52:36.000Z</time>
      </trkpt>
      <trkpt lat="47.50575" lon="6.73527">
        <ele>381</ele>
        <time>2016-01-03T08:52:37.000Z</time>
      </trkpt>
      <trkpt lat="47.50577" lon="6.73531">
        <ele>381</ele>
        <time>2016-01-03T08:52:38.000Z</time>
      </trkpt>
      <trkpt lat="47.50579" lon="6.73535">
        <ele>382</ele>
        <time>2016-01-03T08:52:39.000Z</time>
      </trkpt>
      <trkpt lat="47.50583" lon="6.73539">
        <ele>382</ele>
        <time>2016-01-03T08:52:40.000Z</time>
      </trkpt>
      <trkpt lat="47.50586" lon="6.73542">
        <ele>379</ele>
        <time>2016-01-03T08:52:41.000Z</time>
      </trkpt>
      <trkpt lat="47.50589" lon="6.73544">
        <ele>379</ele>
        <time>2016-01-03T08:52:42.000Z</time>
      </trkpt>
      <trkpt lat="47.50592" lon="6.73546">
        <ele>379</ele>
        <time>2016-01-03T08:52:43.000Z</time>
      </trkpt>
      <trkpt lat="47.50594" lon="6.73548">
        <ele>379</ele>
        <time>2016-01-03T08:52:44.000Z</time>
      </trkpt>
      <trkpt lat="47.50596" lon="6.73551">
        <ele>379</ele>
        <time>2016-01-03T08:52:45.000Z</time>
      </trkpt>
      <trkpt lat="47.50598" lon="6.73554">
        <ele>379</ele>
        <time>2016-01-03T08:52:46.000Z</time>
      </trkpt>
      <trkpt lat="47.506" lon="6.73558">
        <ele>379</ele>
        <time>2016-01-03T08:52:47.000Z</time>
      </trkpt>
      <trkpt lat="47.50601" lon="6.73561">
        <ele>379</ele>
        <time>2016-01-03T08:52:48.000Z</time>
      </trkpt>
      <trkpt lat="47.50603" lon="6.73564">
        <ele>379</ele>
        <time>2016-01-03T08:52:49.000Z</time>
      </trkpt>
      <trkpt lat="47.50605" lon="6.73567">
        <ele>379</ele>
        <time>2016-01-03T08:52:50.000Z</time>
      </trkpt>
      <trkpt lat="47.50608" lon="6.73571">
        <ele>379</ele>
        <time>2016-01-03T08:52:51.000Z</time>
      </trkpt>
      <trkpt lat="47.50611" lon="6.73575">
        <ele>379</ele>
        <time>2016-01-03T08:52:52.000Z</time>
      </trkpt>
      <trkpt lat="47.50614" lon="6.7358">
        <ele>379</ele>
        <time>2016-01-03T08:52:53.000Z</time>
      </trkpt>
      <trkpt lat="47.50618" lon="6.73585">
        <ele>376</ele>
        <time>2016-01-03T08:52:54.000Z</time>
      </trkpt>
      <trkpt lat="47.50626" lon="6.73593">
        <ele>375</ele>
        <time>2016-01-03T08:52:55.000Z</time>
      </trkpt>
      <trkpt lat="47.50631" lon="6.73598">
        <ele>374</ele>
        <time>2016-01-03T08:52:56.000Z</time>
      </trkpt>
      <trkpt lat="47.50636" lon="6.73603">
        <ele>374</ele>
        <time>2016-01-03T08:52:57.000Z</time>
      </trkpt>
      <trkpt lat="47.50642" lon="6.73601">
        <ele>373</ele>
        <time>2016-01-03T08:52:58.000Z</time>
      </trkpt>
      <trkpt lat="47.50649" lon="6.73599">
        <ele>373</ele>
        <time>2016-01-03T08:52:59.000Z</time>
      </trkpt>
      <trkpt lat="47.50654" lon="6.73594">
        <ele>372</ele>
        <time>2016-01-03T08:53:00.000Z</time>
      </trkpt>
      <trkpt lat="47.50659" lon="6.73589">
        <ele>372</ele>
        <time>2016-01-03T08:53:01.000Z</time>
      </trkpt>
      <trkpt lat="47.50664" lon="6.73584">
        <ele>371</ele>
        <time>2016-01-03T08:53:02.000Z</time>
      </trkpt>
      <trkpt lat="47.50669" lon="6.73582">
        <ele>371</ele>
        <time>2016-01-03T08:53:03.000Z</time>
      </trkpt>
      <trkpt lat="47.50674" lon="6.73578">
        <ele>371</ele>
        <time>2016-01-03T08:53:04.000Z</time>
      </trkpt>
      <trkpt lat="47.5068" lon="6.73575">
        <ele>371</ele>
        <time>2016-01-03T08:53:05.000Z</time>
      </trkpt>
      <trkpt lat="47.50686" lon="6.73573">
        <ele>371</ele>
        <time>2016-01-03T08:53:06.000Z</time>
      </trkpt>
      <trkpt lat="47.50691" lon="6.7357">
        <ele>371</ele>
        <time>2016-01-03T08:53:07.000Z</time>
      </trkpt>
      <trkpt lat="47.50696" lon="6.73568">
        <ele>371</ele>
        <time>2016-01-03T08:53:08.000Z</time>
      </trkpt>
      <trkpt lat="47.50701" lon="6.73566">
        <ele>371</ele>
        <time>2016-01-03T08:53:09.000Z</time>
      </trkpt>
      <trkpt lat="47.50705" lon="6.73563">
        <ele>371</ele>
        <time>2016-01-03T08:53:10.000Z</time>
      </trkpt>
      <trkpt lat="47.5071" lon="6.73561">
        <ele>371</ele>
        <time>2016-01-03T08:53:11.000Z</time>
      </trkpt>
      <trkpt lat="47.50714" lon="6.73558">
        <ele>370</ele>
        <time>2016-01-03T08:53:12.000Z</time>
      </trkpt>
      <trkpt lat="47.50717" lon="6.73556">
        <ele>370</ele>
        <time>2016-01-03T08:53:13.000Z</time>
      </trkpt>
      <trkpt lat="47.50721" lon="6.73554">
        <ele>370</ele>
        <time>2016-01-03T08:53:14.000Z</time>
      </trkpt>
      <trkpt lat="47.50725" lon="6.73552">
        <ele>370</ele>
        <time>2016-01-03T08:53:15.000Z</time>
      </trkpt>
      <trkpt lat="47.50729" lon="6.73551">
        <ele>370</ele>
        <time>2016-01-03T08:53:16.000Z</time>
      </trkpt>
      <trkpt lat="47.50733" lon="6.73549">
        <ele>370</ele>
        <time>2016-01-03T08:53:17.000Z</time>
      </trkpt>
      <trkpt lat="47.50736" lon="6.73547">
        <ele>370</ele>
        <time>2016-01-03T08:53:18.000Z</time>
      </trkpt>
      <trkpt lat="47.5074" lon="6.73545">
        <ele>370</ele>
        <time>2016-01-03T08:53:19.000Z</time>
      </trkpt>
      <trkpt lat="47.50743" lon="6.73543">
        <ele>370</ele>
        <time>2016-01-03T08:53:20.000Z</time>
      </trkpt>
      <trkpt lat="47.50746" lon="6.73541">
        <ele>370</ele>
        <time>2016-01-03T08:53:21.000Z</time>
      </trkpt>
      <trkpt lat="47.50749" lon="6.73539">
        <ele>370</ele>
        <time>2016-01-03T08:53:22.000Z</time>
      </trkpt>
      <trkpt lat="47.50753" lon="6.73538">
        <ele>365</ele>
        <time>2016-01-03T08:53:23.000Z</time>
      </trkpt>
      <trkpt lat="47.50756" lon="6.73536">
        <ele>365</ele>
        <time>2016-01-03T08:53:24.000Z</time>
      </trkpt>
      <trkpt lat="47.50759" lon="6.73534">
        <ele>365</ele>
        <time>2016-01-03T08:53:25.001Z</time>
      </trkpt>
      <trkpt lat="47.50763" lon="6.73533">
        <ele>365</ele>
        <time>2016-01-03T08:53:26.000Z</time>
      </trkpt>
      <trkpt lat="47.50766" lon="6.73531">
        <ele>365</ele>
        <time>2016-01-03T08:53:27.000Z</time>
      </trkpt>
      <trkpt lat="47.50769" lon="6.73529">
        <ele>365</ele>
        <time>2016-01-03T08:53:28.000Z</time>
      </trkpt>
      <trkpt lat="47.50773" lon="6.73527">
        <ele>365</ele>
        <time>2016-01-03T08:53:29.000Z</time>
      </trkpt>
      <trkpt lat="47.50776" lon="6.73526">
        <ele>365</ele>
        <time>2016-01-03T08:53:30.000Z</time>
      </trkpt>
      <trkpt lat="47.5078" lon="6.73524">
        <ele>365</ele>
        <time>2016-01-03T08:53:31.016Z</time>
      </trkpt>
      <trkpt lat="47.50783" lon="6.73522">
        <ele>365</ele>
        <time>2016-01-03T08:53:32.000Z</time>
      </trkpt>
      <trkpt lat="47.50787" lon="6.73521">
        <ele>365</ele>
        <time>2016-01-03T08:53:33.000Z</time>
      </trkpt>
      <trkpt lat="47.50791" lon="6.73521">
        <ele>365</ele>
        <time>2016-01-03T08:53:34.000Z</time>
      </trkpt>
      <trkpt lat="47.50796" lon="6.7352">
        <ele>365</ele>
        <time>2016-01-03T08:53:35.000Z</time>
      </trkpt>
      <trkpt lat="47.508" lon="6.73519">
        <ele>364</ele>
        <time>2016-01-03T08:53:36.000Z</time>
      </trkpt>
      <trkpt lat="47.50803" lon="6.73519">
        <ele>364</ele>
        <time>2016-01-03T08:53:37.000Z</time>
      </trkpt>
      <trkpt lat="47.50807" lon="6.73518">
        <ele>364</ele>
        <time>2016-01-03T08:53:38.000Z</time>
      </trkpt>
      <trkpt lat="47.50811" lon="6.73517">
        <ele>364</ele>
        <time>2016-01-03T08:53:39.000Z</time>
      </trkpt>
      <trkpt lat="47.50816" lon="6.73517">
        <ele>364</ele>
        <time>2016-01-03T08:53:40.000Z</time>
      </trkpt>
      <trkpt lat="47.5082" lon="6.73517">
        <ele>364</ele>
        <time>2016-01-03T08:53:41.000Z</time>
      </trkpt>
      <trkpt lat="47.50824" lon="6.73518">
        <ele>364</ele>
        <time>2016-01-03T08:53:42.000Z</time>
      </trkpt>
      <trkpt lat="47.50828" lon="6.73519">
        <ele>364</ele>
        <time>2016-01-03T08:53:43.000Z</time>
      </trkpt>
      <trkpt lat="47.50832" lon="6.7352">
        <ele>364</ele>
        <time>2016-01-03T08:53:44.000Z</time>
      </trkpt>
      <trkpt lat="47.50836" lon="6.73521">
        <ele>363</ele>
        <time>2016-01-03T08:53:45.000Z</time>
      </trkpt>
      <trkpt lat="47.5084" lon="6.73522">
        <ele>363</ele>
        <time>2016-01-03T08:53:46.000Z</time>
      </trkpt>
      <trkpt lat="47.50844" lon="6.73524">
        <ele>362</ele>
        <time>2016-01-03T08:53:47.000Z</time>
      </trkpt>
      <trkpt lat="47.50847" lon="6.73526">
        <ele>362</ele>
        <time>2016-01-03T08:53:48.000Z</time>
      </trkpt>
      <trkpt lat="47.50851" lon="6.73528">
        <ele>362</ele>
        <time>2016-01-03T08:53:49.000Z</time>
      </trkpt>
      <trkpt lat="47.50854" lon="6.73531">
        <ele>362</ele>
        <time>2016-01-03T08:53:50.000Z</time>
      </trkpt>
      <trkpt lat="47.50857" lon="6.73534">
        <ele>362</ele>
        <time>2016-01-03T08:53:51.000Z</time>
      </trkpt>
      <trkpt lat="47.5086" lon="6.73537">
        <ele>362</ele>
        <time>2016-01-03T08:53:52.000Z</time>
      </trkpt>
      <trkpt lat="47.50862" lon="6.73541">
        <ele>361</ele>
        <time>2016-01-03T08:53:53.000Z</time>
      </trkpt>
      <trkpt lat="47.50865" lon="6.73546">
        <ele>361</ele>
        <time>2016-01-03T08:53:54.000Z</time>
      </trkpt>
      <trkpt lat="47.50867" lon="6.73551">
        <ele>361</ele>
        <time>2016-01-03T08:53:55.000Z</time>
      </trkpt>
      <trkpt lat="47.50869" lon="6.73556">
        <ele>361</ele>
        <time>2016-01-03T08:53:56.000Z</time>
      </trkpt>
      <trkpt lat="47.50871" lon="6.7356">
        <ele>361</ele>
        <time>2016-01-03T08:53:57.000Z</time>
      </trkpt>
      <trkpt lat="47.50873" lon="6.73564">
        <ele>360</ele>
        <time>2016-01-03T08:53:58.000Z</time>
      </trkpt>
      <trkpt lat="47.50875" lon="6.73568">
        <ele>360</ele>
        <time>2016-01-03T08:53:59.000Z</time>
      </trkpt>
      <trkpt lat="47.50877" lon="6.73573">
        <ele>360</ele>
        <time>2016-01-03T08:54:00.000Z</time>
      </trkpt>
      <trkpt lat="47.50879" lon="6.73578">
        <ele>360</ele>
        <time>2016-01-03T08:54:01.000Z</time>
      </trkpt>
      <trkpt lat="47.50881" lon="6.73583">
        <ele>360</ele>
        <time>2016-01-03T08:54:02.000Z</time>
      </trkpt>
      <trkpt lat="47.50884" lon="6.73588">
        <ele>357</ele>
        <time>2016-01-03T08:54:03.000Z</time>
      </trkpt>
      <trkpt lat="47.50889" lon="6.73596">
        <ele>357</ele>
        <time>2016-01-03T08:54:04.000Z</time>
      </trkpt>
      <trkpt lat="47.50891" lon="6.736">
        <ele>357</ele>
        <time>2016-01-03T08:54:05.000Z</time>
      </trkpt>
      <trkpt lat="47.50893" lon="6.73604">
        <ele>357</ele>
        <time>2016-01-03T08:54:06.000Z</time>
      </trkpt>
      <trkpt lat="47.50896" lon="6.73608">
        <ele>357</ele>
        <time>2016-01-03T08:54:07.000Z</time>
      </trkpt>
      <trkpt lat="47.50898" lon="6.73613">
        <ele>357</ele>
        <time>2016-01-03T08:54:08.000Z</time>
      </trkpt>
      <trkpt lat="47.50899" lon="6.73617">
        <ele>357</ele>
        <time>2016-01-03T08:54:10.000Z</time>
      </trkpt>
      <trkpt lat="47.50901" lon="6.7362">
        <ele>357</ele>
        <time>2016-01-03T08:54:11.000Z</time>
      </trkpt>
      <trkpt lat="47.50904" lon="6.73622">
        <ele>357</ele>
        <time>2016-01-03T08:54:12.000Z</time>
      </trkpt>
      <trkpt lat="47.50907" lon="6.73624">
        <ele>357</ele>
        <time>2016-01-03T08:54:13.000Z</time>
      </trkpt>
      <trkpt lat="47.50909" lon="6.73625">
        <ele>356</ele>
        <time>2016-01-03T08:54:14.000Z</time>
      </trkpt>
      <trkpt lat="47.50912" lon="6.73626">
        <ele>356</ele>
        <time>2016-01-03T08:54:15.000Z</time>
      </trkpt>
      <trkpt lat="47.50915" lon="6.73626">
        <ele>356</ele>
        <time>2016-01-03T08:54:16.000Z</time>
      </trkpt>
      <trkpt lat="47.50919" lon="6.73627">
        <ele>357</ele>
        <time>2016-01-03T08:54:17.000Z</time>
      </trkpt>
      <trkpt lat="47.50922" lon="6.73627">
        <ele>357</ele>
        <time>2016-01-03T08:54:17.998Z</time>
      </trkpt>
      <trkpt lat="47.50926" lon="6.73628">
        <ele>357</ele>
        <time>2016-01-03T08:54:19.000Z</time>
      </trkpt>
      <trkpt lat="47.5093" lon="6.73628">
        <ele>357</ele>
        <time>2016-01-03T08:54:20.000Z</time>
      </trkpt>
      <trkpt lat="47.50934" lon="6.73629">
        <ele>357</ele>
        <time>2016-01-03T08:54:21.000Z</time>
      </trkpt>
      <trkpt lat="47.50939" lon="6.7363">
        <ele>357</ele>
        <time>2016-01-03T08:54:22.000Z</time>
      </trkpt>
      <trkpt lat="47.50943" lon="6.73631">
        <ele>357</ele>
        <time>2016-01-03T08:54:23.000Z</time>
      </trkpt>
      <trkpt lat="47.50948" lon="6.73634">
        <ele>357</ele>
        <time>2016-01-03T08:54:24.001Z</time>
      </trkpt>
      <trkpt lat="47.50951" lon="6.73637">
        <ele>357</ele>
        <time>2016-01-03T08:54:25.002Z</time>
      </trkpt>
      <trkpt lat="47.50955" lon="6.73639">
        <ele>357</ele>
        <time>2016-01-03T08:54:26.000Z</time>
      </trkpt>
      <trkpt lat="47.50958" lon="6.73643">
        <ele>358</ele>
        <time>2016-01-03T08:54:27.000Z</time>
      </trkpt>
      <trkpt lat="47.50961" lon="6.73645">
        <ele>358</ele>
        <time>2016-01-03T08:54:28.000Z</time>
      </trkpt>
      <trkpt lat="47.50965" lon="6.73647">
        <ele>358</ele>
        <time>2016-01-03T08:54:29.000Z</time>
      </trkpt>
      <trkpt lat="47.50968" lon="6.73649">
        <ele>358</ele>
        <time>2016-01-03T08:54:30.000Z</time>
      </trkpt>
      <trkpt lat="47.50971" lon="6.73651">
        <ele>358</ele>
        <time>2016-01-03T08:54:31.000Z</time>
      </trkpt>
      <trkpt lat="47.50973" lon="6.73652">
        <ele>358</ele>
        <time>2016-01-03T08:54:32.000Z</time>
      </trkpt>
      <trkpt lat="47.50976" lon="6.73652">
        <ele>358</ele>
        <time>2016-01-03T08:54:33.000Z</time>
      </trkpt>
      <trkpt lat="47.50978" lon="6.73654">
        <ele>359</ele>
        <time>2016-01-03T08:54:34.000Z</time>
      </trkpt>
      <trkpt lat="47.50981" lon="6.73655">
        <ele>359</ele>
        <time>2016-01-03T08:54:35.000Z</time>
      </trkpt>
      <trkpt lat="47.50984" lon="6.73656">
        <ele>359</ele>
        <time>2016-01-03T08:54:36.000Z</time>
      </trkpt>
      <trkpt lat="47.50986" lon="6.73657">
        <ele>359</ele>
        <time>2016-01-03T08:54:37.000Z</time>
      </trkpt>
      <trkpt lat="47.50988" lon="6.73658">
        <ele>359</ele>
        <time>2016-01-03T08:54:38.000Z</time>
      </trkpt>
      <trkpt lat="47.50991" lon="6.73658">
        <ele>360</ele>
        <time>2016-01-03T08:54:39.000Z</time>
      </trkpt>
      <trkpt lat="47.50993" lon="6.73659">
        <ele>360</ele>
        <time>2016-01-03T08:54:40.000Z</time>
      </trkpt>
      <trkpt lat="47.50996" lon="6.7366">
        <ele>360</ele>
        <time>2016-01-03T08:54:41.000Z</time>
      </trkpt>
      <trkpt lat="47.50999" lon="6.73661">
        <ele>360</ele>
        <time>2016-01-03T08:54:42.000Z</time>
      </trkpt>
      <trkpt lat="47.51002" lon="6.73662">
        <ele>362</ele>
        <time>2016-01-03T08:54:43.000Z</time>
      </trkpt>
      <trkpt lat="47.51004" lon="6.73663">
        <ele>362</ele>
        <time>2016-01-03T08:54:44.000Z</time>
      </trkpt>
      <trkpt lat="47.51007" lon="6.73664">
        <ele>362</ele>
        <time>2016-01-03T08:54:45.000Z</time>
      </trkpt>
      <trkpt lat="47.51009" lon="6.73665">
        <ele>363</ele>
        <time>2016-01-03T08:54:46.000Z</time>
      </trkpt>
      <trkpt lat="47.51014" lon="6.73667">
        <ele>363</ele>
        <time>2016-01-03T08:54:48.000Z</time>
      </trkpt>
      <trkpt lat="47.51015" lon="6.73667">
        <ele>366</ele>
        <time>2016-01-03T08:54:49.000Z</time>
      </trkpt>
      <trkpt lat="47.51019" lon="6.73665">
        <ele>364</ele>
        <time>2016-01-03T08:54:52.000Z</time>
      </trkpt>
      <trkpt lat="47.51021" lon="6.73666">
        <ele>364</ele>
        <time>2016-01-03T08:54:53.000Z</time>
      </trkpt>
      <trkpt lat="47.51022" lon="6.73666">
        <ele>364</ele>
        <time>2016-01-03T08:54:53.999Z</time>
      </trkpt>
      <trkpt lat="47.51025" lon="6.7367">
        <ele>368</ele>
        <time>2016-01-03T08:54:55.000Z</time>
      </trkpt>
      <trkpt lat="47.51027" lon="6.73672">
        <ele>368</ele>
        <time>2016-01-03T08:54:56.000Z</time>
      </trkpt>
      <trkpt lat="47.51028" lon="6.73674">
        <ele>369</ele>
        <time>2016-01-03T08:54:57.000Z</time>
      </trkpt>
      <trkpt lat="47.51032" lon="6.73676">
        <ele>369</ele>
        <time>2016-01-03T08:54:59.000Z</time>
      </trkpt>
      <trkpt lat="47.51034" lon="6.73677">
        <ele>369</ele>
        <time>2016-01-03T08:55:00.001Z</time>
      </trkpt>
      <trkpt lat="47.51037" lon="6.73679">
        <ele>370</ele>
        <time>2016-01-03T08:55:02.000Z</time>
      </trkpt>
      <trkpt lat="47.51038" lon="6.73679">
        <ele>370</ele>
        <time>2016-01-03T08:55:03.000Z</time>
      </trkpt>
      <trkpt lat="47.51042" lon="6.73679">
        <ele>370</ele>
        <time>2016-01-03T08:55:07.000Z</time>
      </trkpt>
      <trkpt lat="47.51044" lon="6.7368">
        <ele>371</ele>
        <time>2016-01-03T08:55:08.000Z</time>
      </trkpt>
      <trkpt lat="47.51047" lon="6.73683">
        <ele>371</ele>
        <time>2016-01-03T08:55:10.000Z</time>
      </trkpt>
      <trkpt lat="47.51048" lon="6.73684">
        <ele>371</ele>
        <time>2016-01-03T08:55:11.000Z</time>
      </trkpt>
      <trkpt lat="47.51052" lon="6.73686">
        <ele>372</ele>
        <time>2016-01-03T08:55:13.000Z</time>
      </trkpt>
      <trkpt lat="47.51053" lon="6.73686">
        <ele>372</ele>
        <time>2016-01-03T08:55:14.000Z</time>
      </trkpt>
      <trkpt lat="47.51057" lon="6.73686">
        <ele>372</ele>
        <time>2016-01-03T08:55:16.000Z</time>
      </trkpt>
      <trkpt lat="47.51058" lon="6.73686">
        <ele>372</ele>
        <time>2016-01-03T08:55:17.000Z</time>
      </trkpt>
      <trkpt lat="47.51062" lon="6.73687">
        <ele>372</ele>
        <time>2016-01-03T08:55:20.000Z</time>
      </trkpt>
      <trkpt lat="47.51063" lon="6.73687">
        <ele>372</ele>
        <time>2016-01-03T08:55:21.000Z</time>
      </trkpt>
      <trkpt lat="47.51067" lon="6.73687">
        <ele>373</ele>
        <time>2016-01-03T08:55:24.000Z</time>
      </trkpt>
      <trkpt lat="47.51068" lon="6.73687">
        <ele>373</ele>
        <time>2016-01-03T08:55:25.000Z</time>
      </trkpt>
      <trkpt lat="47.51072" lon="6.73691">
        <ele>373</ele>
        <time>2016-01-03T08:55:27.000Z</time>
      </trkpt>
      <trkpt lat="47.51074" lon="6.73692">
        <ele>373</ele>
        <time>2016-01-03T08:55:28.000Z</time>
      </trkpt>
      <trkpt lat="47.51077" lon="6.73694">
        <ele>373</ele>
        <time>2016-01-03T08:55:30.000Z</time>
      </trkpt>
      <trkpt lat="47.51078" lon="6.73696">
        <ele>373</ele>
        <time>2016-01-03T08:55:31.000Z</time>
      </trkpt>
      <trkpt lat="47.51081" lon="6.737">
        <ele>374</ele>
        <time>2016-01-03T08:55:33.000Z</time>
      </trkpt>
      <trkpt lat="47.51082" lon="6.73702">
        <ele>374</ele>
        <time>2016-01-03T08:55:34.000Z</time>
      </trkpt>
      <trkpt lat="47.51083" lon="6.73706">
        <ele>381</ele>
        <time>2016-01-03T08:55:36.000Z</time>
      </trkpt>
      <trkpt lat="47.51084" lon="6.73708">
        <ele>382</ele>
        <time>2016-01-03T08:55:37.000Z</time>
      </trkpt>
      <trkpt lat="47.51087" lon="6.73712">
        <ele>382</ele>
        <time>2016-01-03T08:55:39.000Z</time>
      </trkpt>
      <trkpt lat="47.51089" lon="6.73714">
        <ele>382</ele>
        <time>2016-01-03T08:55:40.000Z</time>
      </trkpt>
      <trkpt lat="47.51091" lon="6.73719">
        <ele>382</ele>
        <time>2016-01-03T08:55:42.000Z</time>
      </trkpt>
      <trkpt lat="47.51093" lon="6.73721">
        <ele>382</ele>
        <time>2016-01-03T08:55:43.000Z</time>
      </trkpt>
      <trkpt lat="47.51095" lon="6.73725">
        <ele>383</ele>
        <time>2016-01-03T08:55:45.000Z</time>
      </trkpt>
      <trkpt lat="47.51097" lon="6.73727">
        <ele>383</ele>
        <time>2016-01-03T08:55:46.000Z</time>
      </trkpt>
      <trkpt lat="47.511" lon="6.7373">
        <ele>383</ele>
        <time>2016-01-03T08:55:48.000Z</time>
      </trkpt>
      <trkpt lat="47.51101" lon="6.7373">
        <ele>383</ele>
        <time>2016-01-03T08:55:49.000Z</time>
      </trkpt>
      <trkpt lat="47.51105" lon="6.73732">
        <ele>383</ele>
        <time>2016-01-03T08:55:52.000Z</time>
      </trkpt>
      <trkpt lat="47.51106" lon="6.73733">
        <ele>383</ele>
        <time>2016-01-03T08:55:53.000Z</time>
      </trkpt>
      <trkpt lat="47.5111" lon="6.73737">
        <ele>383</ele>
        <time>2016-01-03T08:55:56.000Z</time>
      </trkpt>
      <trkpt lat="47.51111" lon="6.73738">
        <ele>383</ele>
        <time>2016-01-03T08:55:57.000Z</time>
      </trkpt>
      <trkpt lat="47.51114" lon="6.7374">
        <ele>384</ele>
        <time>2016-01-03T08:55:59.000Z</time>
      </trkpt>
      <trkpt lat="47.51116" lon="6.73741">
        <ele>384</ele>
        <time>2016-01-03T08:56:00.000Z</time>
      </trkpt>
      <trkpt lat="47.51119" lon="6.73743">
        <ele>384</ele>
        <time>2016-01-03T08:56:02.000Z</time>
      </trkpt>
      <trkpt lat="47.5112" lon="6.73745">
        <ele>384</ele>
        <time>2016-01-03T08:56:03.000Z</time>
      </trkpt>
      <trkpt lat="47.51123" lon="6.73749">
        <ele>384</ele>
        <time>2016-01-03T08:56:05.000Z</time>
      </trkpt>
      <trkpt lat="47.51125" lon="6.73751">
        <ele>387</ele>
        <time>2016-01-03T08:56:06.000Z</time>
      </trkpt>
      <trkpt lat="47.51127" lon="6.73753">
        <ele>387</ele>
        <time>2016-01-03T08:56:07.000Z</time>
      </trkpt>
      <trkpt lat="47.51129" lon="6.73754">
        <ele>387</ele>
        <time>2016-01-03T08:56:08.000Z</time>
      </trkpt>
      <trkpt lat="47.51133" lon="6.73757">
        <ele>388</ele>
        <time>2016-01-03T08:56:10.000Z</time>
      </trkpt>
      <trkpt lat="47.51135" lon="6.73758">
        <ele>388</ele>
        <time>2016-01-03T08:56:11.000Z</time>
      </trkpt>
      <trkpt lat="47.51138" lon="6.73762">
        <ele>388</ele>
        <time>2016-01-03T08:56:14.000Z</time>
      </trkpt>
      <trkpt lat="47.5114" lon="6.73763">
        <ele>388</ele>
        <time>2016-01-03T08:56:15.000Z</time>
      </trkpt>
      <trkpt lat="47.51144" lon="6.73764">
        <ele>388</ele>
        <time>2016-01-03T08:56:17.000Z</time>
      </trkpt>
      <trkpt lat="47.51145" lon="6.73764">
        <ele>388</ele>
        <time>2016-01-03T08:56:18.000Z</time>
      </trkpt>
      <trkpt lat="47.51147" lon="6.73765">
        <ele>388</ele>
        <time>2016-01-03T08:56:20.000Z</time>
      </trkpt>
      <trkpt lat="47.51149" lon="6.73767">
        <ele>388</ele>
        <time>2016-01-03T08:56:21.000Z</time>
      </trkpt>
      <trkpt lat="47.51153" lon="6.73769">
        <ele>388</ele>
        <time>2016-01-03T08:56:23.000Z</time>
      </trkpt>
      <trkpt lat="47.51155" lon="6.73771">
        <ele>388</ele>
        <time>2016-01-03T08:56:24.000Z</time>
      </trkpt>
      <trkpt lat="47.51157" lon="6.73774">
        <ele>389</ele>
        <time>2016-01-03T08:56:26.000Z</time>
      </trkpt>
      <trkpt lat="47.51159" lon="6.73775">
        <ele>389</ele>
        <time>2016-01-03T08:56:27.000Z</time>
      </trkpt>
      <trkpt lat="47.51162" lon="6.73779">
        <ele>389</ele>
        <time>2016-01-03T08:56:29.000Z</time>
      </trkpt>
      <trkpt lat="47.51164" lon="6.7378">
        <ele>389</ele>
        <time>2016-01-03T08:56:30.000Z</time>
      </trkpt>
      <trkpt lat="47.51168" lon="6.73783">
        <ele>393</ele>
        <time>2016-01-03T08:56:32.000Z</time>
      </trkpt>
      <trkpt lat="47.5117" lon="6.73785">
        <ele>393</ele>
        <time>2016-01-03T08:56:33.000Z</time>
      </trkpt>
      <trkpt lat="47.51173" lon="6.73789">
        <ele>393</ele>
        <time>2016-01-03T08:56:35.000Z</time>
      </trkpt>
      <trkpt lat="47.51174" lon="6.7379">
        <ele>393</ele>
        <time>2016-01-03T08:56:36.000Z</time>
      </trkpt>
      <trkpt lat="47.51178" lon="6.73792">
        <ele>393</ele>
        <time>2016-01-03T08:56:38.000Z</time>
      </trkpt>
      <trkpt lat="47.5118" lon="6.73794">
        <ele>394</ele>
        <time>2016-01-03T08:56:39.000Z</time>
      </trkpt>
      <trkpt lat="47.51183" lon="6.73797">
        <ele>394</ele>
        <time>2016-01-03T08:56:41.000Z</time>
      </trkpt>
      <trkpt lat="47.51185" lon="6.73798">
        <ele>394</ele>
        <time>2016-01-03T08:56:42.000Z</time>
      </trkpt>
      <trkpt lat="47.51188" lon="6.738">
        <ele>394</ele>
        <time>2016-01-03T08:56:43.000Z</time>
      </trkpt>
      <trkpt lat="47.5119" lon="6.738">
        <ele>394</ele>
        <time>2016-01-03T08:56:44.000Z</time>
      </trkpt>
      <trkpt lat="47.51193" lon="6.738">
        <ele>394</ele>
        <time>2016-01-03T08:56:46.000Z</time>
      </trkpt>
      <trkpt lat="47.51195" lon="6.738">
        <ele>394</ele>
        <time>2016-01-03T08:56:47.000Z</time>
      </trkpt>
      <trkpt lat="47.51198" lon="6.73801">
        <ele>394</ele>
        <time>2016-01-03T08:56:49.000Z</time>
      </trkpt>
      <trkpt lat="47.51199" lon="6.73802">
        <ele>394</ele>
        <time>2016-01-03T08:56:50.000Z</time>
      </trkpt>
      <trkpt lat="47.51203" lon="6.73804">
        <ele>395</ele>
        <time>2016-01-03T08:56:52.000Z</time>
      </trkpt>
      <trkpt lat="47.51205" lon="6.73806">
        <ele>395</ele>
        <time>2016-01-03T08:56:53.000Z</time>
      </trkpt>
      <trkpt lat="47.51209" lon="6.73809">
        <ele>395</ele>
        <time>2016-01-03T08:56:55.000Z</time>
      </trkpt>
      <trkpt lat="47.5121" lon="6.73811">
        <ele>395</ele>
        <time>2016-01-03T08:56:56.000Z</time>
      </trkpt>
      <trkpt lat="47.51213" lon="6.73813">
        <ele>395</ele>
        <time>2016-01-03T08:56:58.000Z</time>
      </trkpt>
      <trkpt lat="47.51214" lon="6.73814">
        <ele>395</ele>
        <time>2016-01-03T08:56:59.000Z</time>
      </trkpt>
      <trkpt lat="47.51218" lon="6.73816">
        <ele>396</ele>
        <time>2016-01-03T08:57:01.000Z</time>
      </trkpt>
      <trkpt lat="47.5122" lon="6.73816">
        <ele>396</ele>
        <time>2016-01-03T08:57:02.000Z</time>
      </trkpt>
      <trkpt lat="47.51223" lon="6.73816">
        <ele>396</ele>
        <time>2016-01-03T08:57:04.000Z</time>
      </trkpt>
      <trkpt lat="47.51225" lon="6.73816">
        <ele>396</ele>
        <time>2016-01-03T08:57:05.000Z</time>
      </trkpt>
      <trkpt lat="47.51229" lon="6.73818">
        <ele>396</ele>
        <time>2016-01-03T08:57:07.000Z</time>
      </trkpt>
      <trkpt lat="47.51231" lon="6.73819">
        <ele>397</ele>
        <time>2016-01-03T08:57:08.000Z</time>
      </trkpt>
      <trkpt lat="47.51235" lon="6.73821">
        <ele>397</ele>
        <time>2016-01-03T08:57:10.000Z</time>
      </trkpt>
      <trkpt lat="47.51237" lon="6.73822">
        <ele>397</ele>
        <time>2016-01-03T08:57:11.000Z</time>
      </trkpt>
      <trkpt lat="47.51241" lon="6.73825">
        <ele>397</ele>
        <time>2016-01-03T08:57:13.000Z</time>
      </trkpt>
      <trkpt lat="47.51242" lon="6.73826">
        <ele>398</ele>
        <time>2016-01-03T08:57:14.000Z</time>
      </trkpt>
      <trkpt lat="47.51245" lon="6.73827">
        <ele>398</ele>
        <time>2016-01-03T08:57:16.000Z</time>
      </trkpt>
      <trkpt lat="47.51247" lon="6.73827">
        <ele>398</ele>
        <time>2016-01-03T08:57:17.000Z</time>
      </trkpt>
      <trkpt lat="47.5125" lon="6.7383">
        <ele>400</ele>
        <time>2016-01-03T08:57:19.000Z</time>
      </trkpt>
      <trkpt lat="47.51252" lon="6.73831">
        <ele>400</ele>
        <time>2016-01-03T08:57:20.000Z</time>
      </trkpt>
      <trkpt lat="47.51255" lon="6.73834">
        <ele>400</ele>
        <time>2016-01-03T08:57:22.000Z</time>
      </trkpt>
      <trkpt lat="47.51257" lon="6.73836">
        <ele>400</ele>
        <time>2016-01-03T08:57:23.000Z</time>
      </trkpt>
      <trkpt lat="47.51259" lon="6.73839">
        <ele>400</ele>
        <time>2016-01-03T08:57:25.000Z</time>
      </trkpt>
      <trkpt lat="47.5126" lon="6.7384">
        <ele>400</ele>
        <time>2016-01-03T08:57:26.000Z</time>
      </trkpt>
      <trkpt lat="47.51263" lon="6.73841">
        <ele>401</ele>
        <time>2016-01-03T08:57:28.000Z</time>
      </trkpt>
      <trkpt lat="47.51265" lon="6.73841">
        <ele>401</ele>
        <time>2016-01-03T08:57:29.000Z</time>
      </trkpt>
      <trkpt lat="47.51269" lon="6.73843">
        <ele>401</ele>
        <time>2016-01-03T08:57:31.000Z</time>
      </trkpt>
      <trkpt lat="47.51272" lon="6.73844">
        <ele>401</ele>
        <time>2016-01-03T08:57:32.000Z</time>
      </trkpt>
      <trkpt lat="47.51274" lon="6.73845">
        <ele>402</ele>
        <time>2016-01-03T08:57:33.000Z</time>
      </trkpt>
      <trkpt lat="47.51276" lon="6.73848">
        <ele>402</ele>
        <time>2016-01-03T08:57:34.000Z</time>
      </trkpt>
      <trkpt lat="47.51278" lon="6.7385">
        <ele>402</ele>
        <time>2016-01-03T08:57:35.000Z</time>
      </trkpt>
      <trkpt lat="47.5128" lon="6.73852">
        <ele>402</ele>
        <time>2016-01-03T08:57:36.000Z</time>
      </trkpt>
      <trkpt lat="47.51281" lon="6.73854">
        <ele>402</ele>
        <time>2016-01-03T08:57:37.000Z</time>
      </trkpt>
      <trkpt lat="47.51283" lon="6.73855">
        <ele>402</ele>
        <time>2016-01-03T08:57:38.000Z</time>
      </trkpt>
      <trkpt lat="47.51286" lon="6.73857">
        <ele>402</ele>
        <time>2016-01-03T08:57:39.000Z</time>
      </trkpt>
      <trkpt lat="47.51288" lon="6.73859">
        <ele>402</ele>
        <time>2016-01-03T08:57:40.000Z</time>
      </trkpt>
      <trkpt lat="47.51292" lon="6.73862">
        <ele>402</ele>
        <time>2016-01-03T08:57:42.000Z</time>
      </trkpt>
      <trkpt lat="47.51293" lon="6.73862">
        <ele>403</ele>
        <time>2016-01-03T08:57:43.000Z</time>
      </trkpt>
      <trkpt lat="47.51298" lon="6.7386">
        <ele>403</ele>
        <time>2016-01-03T08:57:46.000Z</time>
      </trkpt>
      <trkpt lat="47.51299" lon="6.73859">
        <ele>403</ele>
        <time>2016-01-03T08:57:47.000Z</time>
      </trkpt>
      <trkpt lat="47.51302" lon="6.73855">
        <ele>403</ele>
        <time>2016-01-03T08:57:51.000Z</time>
      </trkpt>
      <trkpt lat="47.51302" lon="6.73854">
        <ele>403</ele>
        <time>2016-01-03T08:57:52.000Z</time>
      </trkpt>
      <trkpt lat="47.51305" lon="6.7385">
        <ele>403</ele>
        <time>2016-01-03T08:57:57.000Z</time>
      </trkpt>
      <trkpt lat="47.51306" lon="6.73849">
        <ele>403</ele>
        <time>2016-01-03T08:57:58.000Z</time>
      </trkpt>
      <trkpt lat="47.51307" lon="6.73845">
        <ele>403</ele>
        <time>2016-01-03T08:58:01.000Z</time>
      </trkpt>
      <trkpt lat="47.51308" lon="6.73843">
        <ele>403</ele>
        <time>2016-01-03T08:58:02.000Z</time>
      </trkpt>
      <trkpt lat="47.5131" lon="6.73838">
        <ele>404</ele>
        <time>2016-01-03T08:58:05.000Z</time>
      </trkpt>
      <trkpt lat="47.51311" lon="6.73837">
        <ele>404</ele>
        <time>2016-01-03T08:58:06.000Z</time>
      </trkpt>
      <trkpt lat="47.51315" lon="6.73835">
        <ele>404</ele>
        <time>2016-01-03T08:58:11.000Z</time>
      </trkpt>
      <trkpt lat="47.51316" lon="6.73835">
        <ele>404</ele>
        <time>2016-01-03T08:58:12.000Z</time>
      </trkpt>
      <trkpt lat="47.51319" lon="6.73833">
        <ele>405</ele>
        <time>2016-01-03T08:59:13.000Z</time>
      </trkpt>
      <trkpt lat="47.51319" lon="6.73831">
        <ele>405</ele>
        <time>2016-01-03T08:59:14.000Z</time>
      </trkpt>
      <trkpt lat="47.51322" lon="6.73826">
        <ele>405</ele>
        <time>2016-01-03T08:59:17.000Z</time>
      </trkpt>
      <trkpt lat="47.51324" lon="6.73825">
        <ele>405</ele>
        <time>2016-01-03T08:59:18.000Z</time>
      </trkpt>
      <trkpt lat="47.51326" lon="6.73821">
        <ele>405</ele>
        <time>2016-01-03T08:59:20.000Z</time>
      </trkpt>
      <trkpt lat="47.51328" lon="6.73818">
        <ele>405</ele>
        <time>2016-01-03T08:59:21.000Z</time>
      </trkpt>
      <trkpt lat="47.5133" lon="6.73815">
        <ele>405</ele>
        <time>2016-01-03T08:59:23.000Z</time>
      </trkpt>
      <trkpt lat="47.51331" lon="6.73812">
        <ele>405</ele>
        <time>2016-01-03T08:59:24.000Z</time>
      </trkpt>
      <trkpt lat="47.51332" lon="6.73808">
        <ele>405</ele>
        <time>2016-01-03T08:59:26.000Z</time>
      </trkpt>
      <trkpt lat="47.51332" lon="6.73805">
        <ele>405</ele>
        <time>2016-01-03T08:59:27.000Z</time>
      </trkpt>
      <trkpt lat="47.51331" lon="6.738">
        <ele>405</ele>
        <time>2016-01-03T08:59:29.000Z</time>
      </trkpt>
      <trkpt lat="47.51331" lon="6.73797">
        <ele>405</ele>
        <time>2016-01-03T08:59:30.000Z</time>
      </trkpt>
      <trkpt lat="47.51332" lon="6.73791">
        <ele>405</ele>
        <time>2016-01-03T08:59:32.000Z</time>
      </trkpt>
      <trkpt lat="47.51333" lon="6.73788">
        <ele>405</ele>
        <time>2016-01-03T08:59:33.000Z</time>
      </trkpt>
      <trkpt lat="47.51334" lon="6.73782">
        <ele>408</ele>
        <time>2016-01-03T08:59:35.000Z</time>
      </trkpt>
      <trkpt lat="47.51335" lon="6.7378">
        <ele>408</ele>
        <time>2016-01-03T08:59:36.000Z</time>
      </trkpt>
      <trkpt lat="47.51337" lon="6.73778">
        <ele>408</ele>
        <time>2016-01-03T08:59:37.000Z</time>
      </trkpt>
      <trkpt lat="47.51339" lon="6.73775">
        <ele>408</ele>
        <time>2016-01-03T08:59:38.000Z</time>
      </trkpt>
      <trkpt lat="47.51341" lon="6.73773">
        <ele>408</ele>
        <time>2016-01-03T08:59:39.000Z</time>
      </trkpt>
      <trkpt lat="47.51342" lon="6.73771">
        <ele>408</ele>
        <time>2016-01-03T08:59:40.000Z</time>
      </trkpt>
      <trkpt lat="47.51345" lon="6.73766">
        <ele>408</ele>
        <time>2016-01-03T08:59:42.000Z</time>
      </trkpt>
      <trkpt lat="47.51346" lon="6.73765">
        <ele>408</ele>
        <time>2016-01-03T08:59:43.000Z</time>
      </trkpt>
      <trkpt lat="47.51348" lon="6.7376">
        <ele>408</ele>
        <time>2016-01-03T08:59:46.000Z</time>
      </trkpt>
      <trkpt lat="47.51348" lon="6.73758">
        <ele>408</ele>
        <time>2016-01-03T08:59:47.000Z</time>
      </trkpt>
      <trkpt lat="47.5135" lon="6.73754">
        <ele>408</ele>
        <time>2016-01-03T08:59:49.000Z</time>
      </trkpt>
      <trkpt lat="47.51352" lon="6.73752">
        <ele>408</ele>
        <time>2016-01-03T08:59:50.000Z</time>
      </trkpt>
      <trkpt lat="47.51353" lon="6.73749">
        <ele>409</ele>
        <time>2016-01-03T08:59:51.000Z</time>
      </trkpt>
      <trkpt lat="47.51355" lon="6.73747">
        <ele>409</ele>
        <time>2016-01-03T08:59:52.000Z</time>
      </trkpt>
      <trkpt lat="47.51357" lon="6.73742">
        <ele>409</ele>
        <time>2016-01-03T08:59:54.000Z</time>
      </trkpt>
      <trkpt lat="47.51358" lon="6.7374">
        <ele>409</ele>
        <time>2016-01-03T08:59:55.000Z</time>
      </trkpt>
      <trkpt lat="47.5136" lon="6.73736">
        <ele>410</ele>
        <time>2016-01-03T08:59:57.000Z</time>
      </trkpt>
      <trkpt lat="47.51361" lon="6.73734">
        <ele>410</ele>
        <time>2016-01-03T08:59:58.000Z</time>
      </trkpt>
      <trkpt lat="47.51363" lon="6.73728">
        <ele>410</ele>
        <time>2016-01-03T09:00:01.000Z</time>
      </trkpt>
      <trkpt lat="47.51363" lon="6.73727">
        <ele>410</ele>
        <time>2016-01-03T09:00:02.000Z</time>
      </trkpt>
      <trkpt lat="47.51362" lon="6.73722">
        <ele>410</ele>
        <time>2016-01-03T09:00:05.000Z</time>
      </trkpt>
      <trkpt lat="47.51362" lon="6.7372">
        <ele>410</ele>
        <time>2016-01-03T09:00:06.000Z</time>
      </trkpt>
      <trkpt lat="47.51364" lon="6.73715">
        <ele>410</ele>
        <time>2016-01-03T09:00:10.000Z</time>
      </trkpt>
      <trkpt lat="47.51365" lon="6.73714">
        <ele>410</ele>
        <time>2016-01-03T09:00:11.000Z</time>
      </trkpt>
      <trkpt lat="47.51367" lon="6.73711">
        <ele>410</ele>
        <time>2016-01-03T09:00:13.000Z</time>
      </trkpt>
      <trkpt lat="47.51368" lon="6.73708">
        <ele>410</ele>
        <time>2016-01-03T09:00:14.000Z</time>
      </trkpt>
      <trkpt lat="47.5137" lon="6.73703">
        <ele>410</ele>
        <time>2016-01-03T09:00:16.000Z</time>
      </trkpt>
      <trkpt lat="47.51371" lon="6.737">
        <ele>410</ele>
        <time>2016-01-03T09:00:17.000Z</time>
      </trkpt>
      <trkpt lat="47.51374" lon="6.73696">
        <ele>410</ele>
        <time>2016-01-03T09:00:20.000Z</time>
      </trkpt>
      <trkpt lat="47.51375" lon="6.73695">
        <ele>410</ele>
        <time>2016-01-03T09:00:21.000Z</time>
      </trkpt>
      <trkpt lat="47.51377" lon="6.73691">
        <ele>411</ele>
        <time>2016-01-03T09:00:23.000Z</time>
      </trkpt>
      <trkpt lat="47.51379" lon="6.73689">
        <ele>411</ele>
        <time>2016-01-03T09:00:24.000Z</time>
      </trkpt>
      <trkpt lat="47.51383" lon="6.73686">
        <ele>411</ele>
        <time>2016-01-03T09:00:26.000Z</time>
      </trkpt>
      <trkpt lat="47.51384" lon="6.73685">
        <ele>411</ele>
        <time>2016-01-03T09:00:27.000Z</time>
      </trkpt>
      <trkpt lat="47.51387" lon="6.73683">
        <ele>411</ele>
        <time>2016-01-03T09:00:29.000Z</time>
      </trkpt>
      <trkpt lat="47.51389" lon="6.73682">
        <ele>411</ele>
        <time>2016-01-03T09:00:30.000Z</time>
      </trkpt>
      <trkpt lat="47.51391" lon="6.73679">
        <ele>411</ele>
        <time>2016-01-03T09:00:33.000Z</time>
      </trkpt>
      <trkpt lat="47.51392" lon="6.73676">
        <ele>411</ele>
        <time>2016-01-03T09:00:34.000Z</time>
      </trkpt>
      <trkpt lat="47.51393" lon="6.73672">
        <ele>411</ele>
        <time>2016-01-03T09:00:36.000Z</time>
      </trkpt>
      <trkpt lat="47.51395" lon="6.73669">
        <ele>411</ele>
        <time>2016-01-03T09:00:37.000Z</time>
      </trkpt>
      <trkpt lat="47.51396" lon="6.73666">
        <ele>413</ele>
        <time>2016-01-03T09:00:38.000Z</time>
      </trkpt>
      <trkpt lat="47.51397" lon="6.73663">
        <ele>413</ele>
        <time>2016-01-03T09:00:39.000Z</time>
      </trkpt>
      <trkpt lat="47.51398" lon="6.7366">
        <ele>413</ele>
        <time>2016-01-03T09:00:40.000Z</time>
      </trkpt>
      <trkpt lat="47.51398" lon="6.73656">
        <ele>413</ele>
        <time>2016-01-03T09:00:41.000Z</time>
      </trkpt>
      <trkpt lat="47.514" lon="6.73652">
        <ele>413</ele>
        <time>2016-01-03T09:00:43.000Z</time>
      </trkpt>
      <trkpt lat="47.51401" lon="6.73649">
        <ele>413</ele>
        <time>2016-01-03T09:00:44.000Z</time>
      </trkpt>
      <trkpt lat="47.51401" lon="6.73646">
        <ele>413</ele>
        <time>2016-01-03T09:00:45.000Z</time>
      </trkpt>
      <trkpt lat="47.51401" lon="6.73642">
        <ele>413</ele>
        <time>2016-01-03T09:00:46.000Z</time>
      </trkpt>
      <trkpt lat="47.51401" lon="6.73637">
        <ele>413</ele>
        <time>2016-01-03T09:00:47.000Z</time>
      </trkpt>
      <trkpt lat="47.51402" lon="6.73633">
        <ele>413</ele>
        <time>2016-01-03T09:00:48.000Z</time>
      </trkpt>
      <trkpt lat="47.51402" lon="6.73629">
        <ele>413</ele>
        <time>2016-01-03T09:00:49.000Z</time>
      </trkpt>
      <trkpt lat="47.51403" lon="6.73625">
        <ele>413</ele>
        <time>2016-01-03T09:00:50.000Z</time>
      </trkpt>
      <trkpt lat="47.51403" lon="6.7362">
        <ele>413</ele>
        <time>2016-01-03T09:00:51.000Z</time>
      </trkpt>
      <trkpt lat="47.51403" lon="6.73616">
        <ele>413</ele>
        <time>2016-01-03T09:00:52.000Z</time>
      </trkpt>
      <trkpt lat="47.51404" lon="6.73612">
        <ele>413</ele>
        <time>2016-01-03T09:00:53.000Z</time>
      </trkpt>
      <trkpt lat="47.51404" lon="6.73608">
        <ele>414</ele>
        <time>2016-01-03T09:00:54.000Z</time>
      </trkpt>
      <trkpt lat="47.51404" lon="6.73604">
        <ele>414</ele>
        <time>2016-01-03T09:00:55.000Z</time>
      </trkpt>
      <trkpt lat="47.51405" lon="6.73601">
        <ele>414</ele>
        <time>2016-01-03T09:00:56.000Z</time>
      </trkpt>
      <trkpt lat="47.51406" lon="6.73597">
        <ele>414</ele>
        <time>2016-01-03T09:00:57.000Z</time>
      </trkpt>
      <trkpt lat="47.51407" lon="6.73594">
        <ele>414</ele>
        <time>2016-01-03T09:00:58.000Z</time>
      </trkpt>
      <trkpt lat="47.51408" lon="6.7359">
        <ele>415</ele>
        <time>2016-01-03T09:00:59.000Z</time>
      </trkpt>
      <trkpt lat="47.51409" lon="6.73586">
        <ele>415</ele>
        <time>2016-01-03T09:01:00.000Z</time>
      </trkpt>
      <trkpt lat="47.51409" lon="6.73582">
        <ele>416</ele>
        <time>2016-01-03T09:01:01.000Z</time>
      </trkpt>
      <trkpt lat="47.5141" lon="6.73579">
        <ele>416</ele>
        <time>2016-01-03T09:01:02.000Z</time>
      </trkpt>
      <trkpt lat="47.51411" lon="6.73575">
        <ele>416</ele>
        <time>2016-01-03T09:01:03.000Z</time>
      </trkpt>
      <trkpt lat="47.51411" lon="6.73572">
        <ele>415</ele>
        <time>2016-01-03T09:01:04.000Z</time>
      </trkpt>
      <trkpt lat="47.51412" lon="6.73568">
        <ele>415</ele>
        <time>2016-01-03T09:01:05.000Z</time>
      </trkpt>
      <trkpt lat="47.51412" lon="6.73565">
        <ele>415</ele>
        <time>2016-01-03T09:01:06.000Z</time>
      </trkpt>
      <trkpt lat="47.51413" lon="6.73561">
        <ele>415</ele>
        <time>2016-01-03T09:01:07.000Z</time>
      </trkpt>
      <trkpt lat="47.51414" lon="6.73557">
        <ele>415</ele>
        <time>2016-01-03T09:01:08.000Z</time>
      </trkpt>
      <trkpt lat="47.51414" lon="6.73553">
        <ele>415</ele>
        <time>2016-01-03T09:01:09.000Z</time>
      </trkpt>
      <trkpt lat="47.51415" lon="6.73549">
        <ele>415</ele>
        <time>2016-01-03T09:01:10.000Z</time>
      </trkpt>
      <trkpt lat="47.51416" lon="6.73546">
        <ele>415</ele>
        <time>2016-01-03T09:01:11.000Z</time>
      </trkpt>
      <trkpt lat="47.51417" lon="6.73542">
        <ele>419</ele>
        <time>2016-01-03T09:01:12.000Z</time>
      </trkpt>
      <trkpt lat="47.51418" lon="6.73538">
        <ele>419</ele>
        <time>2016-01-03T09:01:13.012Z</time>
      </trkpt>
      <trkpt lat="47.51418" lon="6.73534">
        <ele>419</ele>
        <time>2016-01-03T09:01:14.000Z</time>
      </trkpt>
      <trkpt lat="47.51418" lon="6.7353">
        <ele>419</ele>
        <time>2016-01-03T09:01:15.000Z</time>
      </trkpt>
      <trkpt lat="47.51419" lon="6.73525">
        <ele>419</ele>
        <time>2016-01-03T09:01:16.000Z</time>
      </trkpt>
      <trkpt lat="47.51419" lon="6.73521">
        <ele>419</ele>
        <time>2016-01-03T09:01:17.000Z</time>
      </trkpt>
      <trkpt lat="47.51419" lon="6.73517">
        <ele>419</ele>
        <time>2016-01-03T09:01:18.000Z</time>
      </trkpt>
      <trkpt lat="47.5142" lon="6.73514">
        <ele>419</ele>
        <time>2016-01-03T09:01:19.000Z</time>
      </trkpt>
      <trkpt lat="47.5142" lon="6.7351">
        <ele>419</ele>
        <time>2016-01-03T09:01:20.000Z</time>
      </trkpt>
      <trkpt lat="47.51421" lon="6.73505">
        <ele>419</ele>
        <time>2016-01-03T09:01:22.000Z</time>
      </trkpt>
      <trkpt lat="47.51421" lon="6.73504">
        <ele>419</ele>
        <time>2016-01-03T09:01:23.000Z</time>
      </trkpt>
      <trkpt lat="47.51423" lon="6.73499">
        <ele>419</ele>
        <time>2016-01-03T09:01:27.000Z</time>
      </trkpt>
      <trkpt lat="47.51424" lon="6.73498">
        <ele>419</ele>
        <time>2016-01-03T09:01:28.000Z</time>
      </trkpt>
      <trkpt lat="47.51428" lon="6.735">
        <ele>420</ele>
        <time>2016-01-03T09:01:30.000Z</time>
      </trkpt>
      <trkpt lat="47.5143" lon="6.73501">
        <ele>419</ele>
        <time>2016-01-03T09:01:31.000Z</time>
      </trkpt>
      <trkpt lat="47.51433" lon="6.73502">
        <ele>419</ele>
        <time>2016-01-03T09:01:32.000Z</time>
      </trkpt>
      <trkpt lat="47.51435" lon="6.73502">
        <ele>420</ele>
        <time>2016-01-03T09:01:33.000Z</time>
      </trkpt>
      <trkpt lat="47.51439" lon="6.73503">
        <ele>420</ele>
        <time>2016-01-03T09:01:35.000Z</time>
      </trkpt>
      <trkpt lat="47.51441" lon="6.73504">
        <ele>420</ele>
        <time>2016-01-03T09:01:36.000Z</time>
      </trkpt>
      <trkpt lat="47.51444" lon="6.73506">
        <ele>420</ele>
        <time>2016-01-03T09:01:38.000Z</time>
      </trkpt>
      <trkpt lat="47.51446" lon="6.73506">
        <ele>420</ele>
        <time>2016-01-03T09:01:39.000Z</time>
      </trkpt>
      <trkpt lat="47.51449" lon="6.73507">
        <ele>421</ele>
        <time>2016-01-03T09:01:41.000Z</time>
      </trkpt>
      <trkpt lat="47.5145" lon="6.73508">
        <ele>421</ele>
        <time>2016-01-03T09:01:42.000Z</time>
      </trkpt>
      <trkpt lat="47.51453" lon="6.73509">
        <ele>421</ele>
        <time>2016-01-03T09:01:44.000Z</time>
      </trkpt>
      <trkpt lat="47.51455" lon="6.7351">
        <ele>421</ele>
        <time>2016-01-03T09:01:45.000Z</time>
      </trkpt>
      <trkpt lat="47.51457" lon="6.73511">
        <ele>421</ele>
        <time>2016-01-03T09:01:46.000Z</time>
      </trkpt>
      <trkpt lat="47.51459" lon="6.73512">
        <ele>421</ele>
        <time>2016-01-03T09:01:47.000Z</time>
      </trkpt>
      <trkpt lat="47.51461" lon="6.73513">
        <ele>421</ele>
        <time>2016-01-03T09:01:48.000Z</time>
      </trkpt>
      <trkpt lat="47.51464" lon="6.73513">
        <ele>421</ele>
        <time>2016-01-03T09:01:49.000Z</time>
      </trkpt>
      <trkpt lat="47.51466" lon="6.73512">
        <ele>422</ele>
        <time>2016-01-03T09:01:50.000Z</time>
      </trkpt>
      <trkpt lat="47.51468" lon="6.73512">
        <ele>422</ele>
        <time>2016-01-03T09:01:50.999Z</time>
      </trkpt>
      <trkpt lat="47.51473" lon="6.73512">
        <ele>422</ele>
        <time>2016-01-03T09:01:53.000Z</time>
      </trkpt>
      <trkpt lat="47.51474" lon="6.73513">
        <ele>422</ele>
        <time>2016-01-03T09:01:54.000Z</time>
      </trkpt>
      <trkpt lat="47.51478" lon="6.73514">
        <ele>422</ele>
        <time>2016-01-03T09:01:56.000Z</time>
      </trkpt>
      <trkpt lat="47.5148" lon="6.73515">
        <ele>423</ele>
        <time>2016-01-03T09:01:57.000Z</time>
      </trkpt>
      <trkpt lat="47.51483" lon="6.73516">
        <ele>423</ele>
        <time>2016-01-03T09:01:59.000Z</time>
      </trkpt>
      <trkpt lat="47.51484" lon="6.73516">
        <ele>423</ele>
        <time>2016-01-03T09:02:00.001Z</time>
      </trkpt>
      <trkpt lat="47.51488" lon="6.73515">
        <ele>423</ele>
        <time>2016-01-03T09:02:02.000Z</time>
      </trkpt>
      <trkpt lat="47.51489" lon="6.73515">
        <ele>423</ele>
        <time>2016-01-03T09:02:03.000Z</time>
      </trkpt>
      <trkpt lat="47.51493" lon="6.73513">
        <ele>424</ele>
        <time>2016-01-03T09:02:05.000Z</time>
      </trkpt>
      <trkpt lat="47.51495" lon="6.73513">
        <ele>424</ele>
        <time>2016-01-03T09:02:05.998Z</time>
      </trkpt>
      <trkpt lat="47.51498" lon="6.73513">
        <ele>424</ele>
        <time>2016-01-03T09:02:08.000Z</time>
      </trkpt>
      <trkpt lat="47.515" lon="6.73513">
        <ele>426</ele>
        <time>2016-01-03T09:02:09.000Z</time>
      </trkpt>
      <trkpt lat="47.51504" lon="6.73514">
        <ele>426</ele>
        <time>2016-01-03T09:02:11.000Z</time>
      </trkpt>
      <trkpt lat="47.51505" lon="6.73514">
        <ele>426</ele>
        <time>2016-01-03T09:02:12.000Z</time>
      </trkpt>
      <trkpt lat="47.51509" lon="6.73516">
        <ele>427</ele>
        <time>2016-01-03T09:02:15.000Z</time>
      </trkpt>
      <trkpt lat="47.51511" lon="6.73516">
        <ele>427</ele>
        <time>2016-01-03T09:02:16.000Z</time>
      </trkpt>
      <trkpt lat="47.51515" lon="6.73518">
        <ele>427</ele>
        <time>2016-01-03T09:02:18.000Z</time>
      </trkpt>
      <trkpt lat="47.51517" lon="6.73519">
        <ele>427</ele>
        <time>2016-01-03T09:02:19.000Z</time>
      </trkpt>
      <trkpt lat="47.5152" lon="6.7352">
        <ele>427</ele>
        <time>2016-01-03T09:02:20.000Z</time>
      </trkpt>
      <trkpt lat="47.51522" lon="6.73521">
        <ele>427</ele>
        <time>2016-01-03T09:02:21.000Z</time>
      </trkpt>
      <trkpt lat="47.51526" lon="6.73524">
        <ele>427</ele>
        <time>2016-01-03T09:02:23.001Z</time>
      </trkpt>
      <trkpt lat="47.51528" lon="6.73523">
        <ele>427</ele>
        <time>2016-01-03T09:02:24.000Z</time>
      </trkpt>
      <trkpt lat="47.51532" lon="6.73524">
        <ele>427</ele>
        <time>2016-01-03T09:02:26.000Z</time>
      </trkpt>
      <trkpt lat="47.51534" lon="6.73524">
        <ele>427</ele>
        <time>2016-01-03T09:02:27.000Z</time>
      </trkpt>
      <trkpt lat="47.51537" lon="6.73526">
        <ele>427</ele>
        <time>2016-01-03T09:02:30.000Z</time>
      </trkpt>
      <trkpt lat="47.51538" lon="6.73527">
        <ele>427</ele>
        <time>2016-01-03T09:02:30.999Z</time>
      </trkpt>
      <trkpt lat="47.51542" lon="6.73529">
        <ele>427</ele>
        <time>2016-01-03T09:02:35.000Z</time>
      </trkpt>
      <trkpt lat="47.51543" lon="6.73529">
        <ele>427</ele>
        <time>2016-01-03T09:02:36.000Z</time>
      </trkpt>
      <trkpt lat="47.51547" lon="6.73531">
        <ele>428</ele>
        <time>2016-01-03T09:02:39.000Z</time>
      </trkpt>
      <trkpt lat="47.51549" lon="6.73532">
        <ele>428</ele>
        <time>2016-01-03T09:02:40.000Z</time>
      </trkpt>
      <trkpt lat="47.51552" lon="6.73535">
        <ele>428</ele>
        <time>2016-01-03T09:02:42.000Z</time>
      </trkpt>
      <trkpt lat="47.51554" lon="6.73536">
        <ele>428</ele>
        <time>2016-01-03T09:02:42.999Z</time>
      </trkpt>
      <trkpt lat="47.51558" lon="6.73537">
        <ele>428</ele>
        <time>2016-01-03T09:02:46.000Z</time>
      </trkpt>
      <trkpt lat="47.51559" lon="6.73537">
        <ele>428</ele>
        <time>2016-01-03T09:02:47.000Z</time>
      </trkpt>
      <trkpt lat="47.51561" lon="6.73538">
        <ele>428</ele>
        <time>2016-01-03T09:02:49.000Z</time>
      </trkpt>
      <trkpt lat="47.51563" lon="6.73539">
        <ele>428</ele>
        <time>2016-01-03T09:02:50.000Z</time>
      </trkpt>
      <trkpt lat="47.51566" lon="6.7354">
        <ele>428</ele>
        <time>2016-01-03T09:02:52.000Z</time>
      </trkpt>
      <trkpt lat="47.51567" lon="6.7354">
        <ele>428</ele>
        <time>2016-01-03T09:02:53.000Z</time>
      </trkpt>
      <trkpt lat="47.51571" lon="6.7354">
        <ele>428</ele>
        <time>2016-01-03T09:02:55.000Z</time>
      </trkpt>
      <trkpt lat="47.51573" lon="6.7354">
        <ele>428</ele>
        <time>2016-01-03T09:02:56.000Z</time>
      </trkpt>
      <trkpt lat="47.51576" lon="6.73541">
        <ele>428</ele>
        <time>2016-01-03T09:02:58.000Z</time>
      </trkpt>
      <trkpt lat="47.51578" lon="6.73542">
        <ele>428</ele>
        <time>2016-01-03T09:02:59.000Z</time>
      </trkpt>
      <trkpt lat="47.51581" lon="6.73542">
        <ele>428</ele>
        <time>2016-01-03T09:03:00.000Z</time>
      </trkpt>
      <trkpt lat="47.51583" lon="6.73543">
        <ele>428</ele>
        <time>2016-01-03T09:03:01.000Z</time>
      </trkpt>
      <trkpt lat="47.51585" lon="6.73544">
        <ele>428</ele>
        <time>2016-01-03T09:03:02.000Z</time>
      </trkpt>
      <trkpt lat="47.51588" lon="6.73544">
        <ele>428</ele>
        <time>2016-01-03T09:03:03.000Z</time>
      </trkpt>
      <trkpt lat="47.5159" lon="6.73545">
        <ele>428</ele>
        <time>2016-01-03T09:03:04.000Z</time>
      </trkpt>
      <trkpt lat="47.51593" lon="6.73546">
        <ele>428</ele>
        <time>2016-01-03T09:03:05.001Z</time>
      </trkpt>
      <trkpt lat="47.51595" lon="6.73548">
        <ele>428</ele>
        <time>2016-01-03T09:03:06.000Z</time>
      </trkpt>
      <trkpt lat="47.51598" lon="6.7355">
        <ele>428</ele>
        <time>2016-01-03T09:03:07.000Z</time>
      </trkpt>
      <trkpt lat="47.516" lon="6.73551">
        <ele>428</ele>
        <time>2016-01-03T09:03:08.000Z</time>
      </trkpt>
      <trkpt lat="47.51602" lon="6.73553">
        <ele>428</ele>
        <time>2016-01-03T09:03:09.000Z</time>
      </trkpt>
      <trkpt lat="47.51605" lon="6.73556">
        <ele>428</ele>
        <time>2016-01-03T09:03:11.000Z</time>
      </trkpt>
      <trkpt lat="47.51608" lon="6.73557">
        <ele>428</ele>
        <time>2016-01-03T09:03:12.000Z</time>
      </trkpt>
      <trkpt lat="47.51612" lon="6.73556">
        <ele>428</ele>
        <time>2016-01-03T09:03:14.000Z</time>
      </trkpt>
      <trkpt lat="47.51614" lon="6.73555">
        <ele>427</ele>
        <time>2016-01-03T09:03:15.000Z</time>
      </trkpt>
      <trkpt lat="47.51616" lon="6.73554">
        <ele>427</ele>
        <time>2016-01-03T09:03:16.000Z</time>
      </trkpt>
      <trkpt lat="47.51618" lon="6.73554">
        <ele>427</ele>
        <time>2016-01-03T09:03:17.000Z</time>
      </trkpt>
      <trkpt lat="47.51621" lon="6.73555">
        <ele>427</ele>
        <time>2016-01-03T09:03:18.000Z</time>
      </trkpt>
      <trkpt lat="47.51623" lon="6.73557">
        <ele>427</ele>
        <time>2016-01-03T09:03:19.000Z</time>
      </trkpt>
      <trkpt lat="47.51625" lon="6.73558">
        <ele>427</ele>
        <time>2016-01-03T09:03:20.000Z</time>
      </trkpt>
      <trkpt lat="47.51627" lon="6.7356">
        <ele>427</ele>
        <time>2016-01-03T09:03:21.000Z</time>
      </trkpt>
      <trkpt lat="47.51629" lon="6.73561">
        <ele>427</ele>
        <time>2016-01-03T09:03:22.000Z</time>
      </trkpt>
      <trkpt lat="47.51632" lon="6.73563">
        <ele>427</ele>
        <time>2016-01-03T09:03:23.000Z</time>
      </trkpt>
      <trkpt lat="47.51635" lon="6.73564">
        <ele>426</ele>
        <time>2016-01-03T09:03:24.000Z</time>
      </trkpt>
      <trkpt lat="47.51639" lon="6.73565">
        <ele>426</ele>
        <time>2016-01-03T09:03:25.000Z</time>
      </trkpt>
      <trkpt lat="47.51642" lon="6.73567">
        <ele>426</ele>
        <time>2016-01-03T09:03:26.000Z</time>
      </trkpt>
      <trkpt lat="47.51646" lon="6.73568">
        <ele>426</ele>
        <time>2016-01-03T09:03:27.000Z</time>
      </trkpt>
      <trkpt lat="47.51649" lon="6.73569">
        <ele>426</ele>
        <time>2016-01-03T09:03:28.000Z</time>
      </trkpt>
      <trkpt lat="47.51652" lon="6.73571">
        <ele>425</ele>
        <time>2016-01-03T09:03:29.000Z</time>
      </trkpt>
      <trkpt lat="47.51655" lon="6.73573">
        <ele>425</ele>
        <time>2016-01-03T09:03:30.000Z</time>
      </trkpt>
      <trkpt lat="47.51659" lon="6.73574">
        <ele>425</ele>
        <time>2016-01-03T09:03:31.000Z</time>
      </trkpt>
      <trkpt lat="47.51662" lon="6.73576">
        <ele>424</ele>
        <time>2016-01-03T09:03:32.000Z</time>
      </trkpt>
      <trkpt lat="47.51666" lon="6.73577">
        <ele>424</ele>
        <time>2016-01-03T09:03:33.000Z</time>
      </trkpt>
      <trkpt lat="47.5167" lon="6.73578">
        <ele>423</ele>
        <time>2016-01-03T09:03:34.000Z</time>
      </trkpt>
      <trkpt lat="47.51673" lon="6.73579">
        <ele>422</ele>
        <time>2016-01-03T09:03:35.000Z</time>
      </trkpt>
      <trkpt lat="47.51677" lon="6.73582">
        <ele>422</ele>
        <time>2016-01-03T09:03:36.000Z</time>
      </trkpt>
      <trkpt lat="47.5168" lon="6.73584">
        <ele>422</ele>
        <time>2016-01-03T09:03:37.000Z</time>
      </trkpt>
      <trkpt lat="47.51684" lon="6.73589">
        <ele>421</ele>
        <time>2016-01-03T09:03:38.000Z</time>
      </trkpt>
      <trkpt lat="47.51688" lon="6.73592">
        <ele>421</ele>
        <time>2016-01-03T09:03:39.000Z</time>
      </trkpt>
      <trkpt lat="47.51692" lon="6.73595">
        <ele>421</ele>
        <time>2016-01-03T09:03:40.000Z</time>
      </trkpt>
      <trkpt lat="47.51696" lon="6.73597">
        <ele>420</ele>
        <time>2016-01-03T09:03:41.000Z</time>
      </trkpt>
      <trkpt lat="47.517" lon="6.736">
        <ele>420</ele>
        <time>2016-01-03T09:03:42.000Z</time>
      </trkpt>
      <trkpt lat="47.51704" lon="6.736">
        <ele>420</ele>
        <time>2016-01-03T09:03:43.000Z</time>
      </trkpt>
      <trkpt lat="47.51708" lon="6.73603">
        <ele>420</ele>
        <time>2016-01-03T09:03:43.999Z</time>
      </trkpt>
      <trkpt lat="47.51712" lon="6.73601">
        <ele>419</ele>
        <time>2016-01-03T09:03:45.000Z</time>
      </trkpt>
      <trkpt lat="47.51716" lon="6.736">
        <ele>419</ele>
        <time>2016-01-03T09:03:46.000Z</time>
      </trkpt>
      <trkpt lat="47.51723" lon="6.73594">
        <ele>419</ele>
        <time>2016-01-03T09:03:47.000Z</time>
      </trkpt>
      <trkpt lat="47.51728" lon="6.73593">
        <ele>419</ele>
        <time>2016-01-03T09:03:48.000Z</time>
      </trkpt>
      <trkpt lat="47.51734" lon="6.73592">
        <ele>418</ele>
        <time>2016-01-03T09:03:49.000Z</time>
      </trkpt>
      <trkpt lat="47.5174" lon="6.73595">
        <ele>418</ele>
        <time>2016-01-03T09:03:50.000Z</time>
      </trkpt>
      <trkpt lat="47.51745" lon="6.73598">
        <ele>418</ele>
        <time>2016-01-03T09:03:51.000Z</time>
      </trkpt>
      <trkpt lat="47.51748" lon="6.736">
        <ele>418</ele>
        <time>2016-01-03T09:03:52.000Z</time>
      </trkpt>
      <trkpt lat="47.51752" lon="6.73603">
        <ele>414</ele>
        <time>2016-01-03T09:03:53.000Z</time>
      </trkpt>
      <trkpt lat="47.51754" lon="6.73605">
        <ele>414</ele>
        <time>2016-01-03T09:03:54.000Z</time>
      </trkpt>
      <trkpt lat="47.51755" lon="6.73608">
        <ele>413</ele>
        <time>2016-01-03T09:03:55.000Z</time>
      </trkpt>
      <trkpt lat="47.51757" lon="6.73612">
        <ele>413</ele>
        <time>2016-01-03T09:03:56.000Z</time>
      </trkpt>
      <trkpt lat="47.51758" lon="6.73616">
        <ele>413</ele>
        <time>2016-01-03T09:03:57.000Z</time>
      </trkpt>
      <trkpt lat="47.51761" lon="6.73621">
        <ele>413</ele>
        <time>2016-01-03T09:03:58.000Z</time>
      </trkpt>
      <trkpt lat="47.51763" lon="6.73625">
        <ele>413</ele>
        <time>2016-01-03T09:03:59.001Z</time>
      </trkpt>
      <trkpt lat="47.51765" lon="6.7363">
        <ele>412</ele>
        <time>2016-01-03T09:04:00.000Z</time>
      </trkpt>
      <trkpt lat="47.51766" lon="6.73635">
        <ele>412</ele>
        <time>2016-01-03T09:04:01.000Z</time>
      </trkpt>
      <trkpt lat="47.51766" lon="6.73641">
        <ele>413</ele>
        <time>2016-01-03T09:04:02.000Z</time>
      </trkpt>
      <trkpt lat="47.51765" lon="6.73647">
        <ele>413</ele>
        <time>2016-01-03T09:04:03.000Z</time>
      </trkpt>
      <trkpt lat="47.51764" lon="6.73652">
        <ele>413</ele>
        <time>2016-01-03T09:04:04.000Z</time>
      </trkpt>
      <trkpt lat="47.51762" lon="6.73657">
        <ele>414</ele>
        <time>2016-01-03T09:04:05.000Z</time>
      </trkpt>
      <trkpt lat="47.51761" lon="6.73662">
        <ele>414</ele>
        <time>2016-01-03T09:04:06.000Z</time>
      </trkpt>
      <trkpt lat="47.5176" lon="6.73666">
        <ele>414</ele>
        <time>2016-01-03T09:04:07.000Z</time>
      </trkpt>
      <trkpt lat="47.51759" lon="6.73671">
        <ele>414</ele>
        <time>2016-01-03T09:04:08.000Z</time>
      </trkpt>
      <trkpt lat="47.51758" lon="6.73677">
        <ele>414</ele>
        <time>2016-01-03T09:04:09.000Z</time>
      </trkpt>
      <trkpt lat="47.51757" lon="6.73682">
        <ele>414</ele>
        <time>2016-01-03T09:04:10.000Z</time>
      </trkpt>
      <trkpt lat="47.51756" lon="6.73687">
        <ele>413</ele>
        <time>2016-01-03T09:04:11.000Z</time>
      </trkpt>
      <trkpt lat="47.51755" lon="6.73693">
        <ele>413</ele>
        <time>2016-01-03T09:04:12.000Z</time>
      </trkpt>
      <trkpt lat="47.51753" lon="6.73698">
        <ele>413</ele>
        <time>2016-01-03T09:04:13.000Z</time>
      </trkpt>
      <trkpt lat="47.51752" lon="6.73704">
        <ele>413</ele>
        <time>2016-01-03T09:04:14.000Z</time>
      </trkpt>
      <trkpt lat="47.51751" lon="6.73709">
        <ele>413</ele>
        <time>2016-01-03T09:04:15.000Z</time>
      </trkpt>
      <trkpt lat="47.51749" lon="6.73715">
        <ele>416</ele>
        <time>2016-01-03T09:04:16.000Z</time>
      </trkpt>
      <trkpt lat="47.51748" lon="6.7372">
        <ele>416</ele>
        <time>2016-01-03T09:04:17.000Z</time>
      </trkpt>
      <trkpt lat="47.51747" lon="6.73726">
        <ele>416</ele>
        <time>2016-01-03T09:04:18.000Z</time>
      </trkpt>
      <trkpt lat="47.51746" lon="6.73733">
        <ele>416</ele>
        <time>2016-01-03T09:04:19.000Z</time>
      </trkpt>
      <trkpt lat="47.51747" lon="6.73739">
        <ele>415</ele>
        <time>2016-01-03T09:04:20.000Z</time>
      </trkpt>
      <trkpt lat="47.51747" lon="6.73745">
        <ele>415</ele>
        <time>2016-01-03T09:04:21.000Z</time>
      </trkpt>
      <trkpt lat="47.51752" lon="6.73752">
        <ele>413</ele>
        <time>2016-01-03T09:04:22.000Z</time>
      </trkpt>
      <trkpt lat="47.51754" lon="6.73759">
        <ele>412</ele>
        <time>2016-01-03T09:04:23.000Z</time>
      </trkpt>
      <trkpt lat="47.51756" lon="6.73767">
        <ele>412</ele>
        <time>2016-01-03T09:04:24.000Z</time>
      </trkpt>
      <trkpt lat="47.51758" lon="6.73775">
        <ele>411</ele>
        <time>2016-01-03T09:04:25.000Z</time>
      </trkpt>
      <trkpt lat="47.51759" lon="6.73784">
        <ele>411</ele>
        <time>2016-01-03T09:04:26.000Z</time>
      </trkpt>
      <trkpt lat="47.5176" lon="6.73792">
        <ele>410</ele>
        <time>2016-01-03T09:04:27.000Z</time>
      </trkpt>
      <trkpt lat="47.51761" lon="6.738">
        <ele>410</ele>
        <time>2016-01-03T09:04:28.000Z</time>
      </trkpt>
      <trkpt lat="47.51762" lon="6.73808">
        <ele>410</ele>
        <time>2016-01-03T09:04:29.000Z</time>
      </trkpt>
      <trkpt lat="47.51762" lon="6.73818">
        <ele>409</ele>
        <time>2016-01-03T09:04:30.000Z</time>
      </trkpt>
      <trkpt lat="47.51761" lon="6.73827">
        <ele>409</ele>
        <time>2016-01-03T09:04:31.000Z</time>
      </trkpt>
      <trkpt lat="47.5176" lon="6.73837">
        <ele>408</ele>
        <time>2016-01-03T09:04:32.000Z</time>
      </trkpt>
      <trkpt lat="47.51759" lon="6.73846">
        <ele>407</ele>
        <time>2016-01-03T09:04:33.000Z</time>
      </trkpt>
      <trkpt lat="47.51757" lon="6.73855">
        <ele>407</ele>
        <time>2016-01-03T09:04:34.000Z</time>
      </trkpt>
      <trkpt lat="47.51755" lon="6.73863">
        <ele>406</ele>
        <time>2016-01-03T09:04:35.000Z</time>
      </trkpt>
      <trkpt lat="47.51753" lon="6.73874">
        <ele>405</ele>
        <time>2016-01-03T09:04:36.000Z</time>
      </trkpt>
      <trkpt lat="47.5175" lon="6.73883">
        <ele>404</ele>
        <time>2016-01-03T09:04:37.000Z</time>
      </trkpt>
      <trkpt lat="47.51748" lon="6.73892">
        <ele>404</ele>
        <time>2016-01-03T09:04:38.000Z</time>
      </trkpt>
      <trkpt lat="47.51747" lon="6.73901">
        <ele>403</ele>
        <time>2016-01-03T09:04:39.000Z</time>
      </trkpt>
      <trkpt lat="47.51743" lon="6.73914">
        <ele>403</ele>
        <time>2016-01-03T09:04:40.000Z</time>
      </trkpt>
      <trkpt lat="47.51741" lon="6.73924">
        <ele>400</ele>
        <time>2016-01-03T09:04:41.000Z</time>
      </trkpt>
      <trkpt lat="47.51737" lon="6.73935">
        <ele>399</ele>
        <time>2016-01-03T09:04:42.000Z</time>
      </trkpt>
      <trkpt lat="47.51733" lon="6.73946">
        <ele>398</ele>
        <time>2016-01-03T09:04:43.000Z</time>
      </trkpt>
      <trkpt lat="47.51731" lon="6.73958">
        <ele>397</ele>
        <time>2016-01-03T09:04:44.000Z</time>
      </trkpt>
      <trkpt lat="47.51727" lon="6.73968">
        <ele>397</ele>
        <time>2016-01-03T09:04:45.000Z</time>
      </trkpt>
      <trkpt lat="47.51725" lon="6.73977">
        <ele>397</ele>
        <time>2016-01-03T09:04:46.000Z</time>
      </trkpt>
      <trkpt lat="47.51722" lon="6.73984">
        <ele>396</ele>
        <time>2016-01-03T09:04:47.000Z</time>
      </trkpt>
      <trkpt lat="47.51719" lon="6.73986">
        <ele>396</ele>
        <time>2016-01-03T09:04:48.000Z</time>
      </trkpt>
      <trkpt lat="47.51715" lon="6.73994">
        <ele>396</ele>
        <time>2016-01-03T09:04:49.000Z</time>
      </trkpt>
      <trkpt lat="47.51711" lon="6.74003">
        <ele>393</ele>
        <time>2016-01-03T09:04:50.000Z</time>
      </trkpt>
      <trkpt lat="47.51707" lon="6.74011">
        <ele>393</ele>
        <time>2016-01-03T09:04:51.000Z</time>
      </trkpt>
      <trkpt lat="47.51704" lon="6.74018">
        <ele>393</ele>
        <time>2016-01-03T09:04:52.000Z</time>
      </trkpt>
      <trkpt lat="47.517" lon="6.74026">
        <ele>392</ele>
        <time>2016-01-03T09:04:53.000Z</time>
      </trkpt>
      <trkpt lat="47.51695" lon="6.74036">
        <ele>392</ele>
        <time>2016-01-03T09:04:54.000Z</time>
      </trkpt>
      <trkpt lat="47.51691" lon="6.74044">
        <ele>392</ele>
        <time>2016-01-03T09:04:55.000Z</time>
      </trkpt>
      <trkpt lat="47.51688" lon="6.74051">
        <ele>392</ele>
        <time>2016-01-03T09:04:56.000Z</time>
      </trkpt>
      <trkpt lat="47.51685" lon="6.74058">
        <ele>391</ele>
        <time>2016-01-03T09:04:57.000Z</time>
      </trkpt>
      <trkpt lat="47.51682" lon="6.74065">
        <ele>391</ele>
        <time>2016-01-03T09:04:58.000Z</time>
      </trkpt>
      <trkpt lat="47.51675" lon="6.74078">
        <ele>389</ele>
        <time>2016-01-03T09:04:59.000Z</time>
      </trkpt>
      <trkpt lat="47.51671" lon="6.7409">
        <ele>388</ele>
        <time>2016-01-03T09:05:00.000Z</time>
      </trkpt>
      <trkpt lat="47.51668" lon="6.74098">
        <ele>387</ele>
        <time>2016-01-03T09:05:01.000Z</time>
      </trkpt>
      <trkpt lat="47.51668" lon="6.741">
        <ele>387</ele>
        <time>2016-01-03T09:05:02.000Z</time>
      </trkpt>
      <trkpt lat="47.51667" lon="6.74105">
        <ele>387</ele>
        <time>2016-01-03T09:05:03.000Z</time>
      </trkpt>
      <trkpt lat="47.51667" lon="6.7411">
        <ele>387</ele>
        <time>2016-01-03T09:05:04.000Z</time>
      </trkpt>
      <trkpt lat="47.51663" lon="6.7412">
        <ele>382</ele>
        <time>2016-01-03T09:05:05.000Z</time>
      </trkpt>
      <trkpt lat="47.5166" lon="6.74128">
        <ele>381</ele>
        <time>2016-01-03T09:05:06.000Z</time>
      </trkpt>
      <trkpt lat="47.51659" lon="6.74137">
        <ele>380</ele>
        <time>2016-01-03T09:05:07.000Z</time>
      </trkpt>
      <trkpt lat="47.51656" lon="6.74145">
        <ele>380</ele>
        <time>2016-01-03T09:05:08.000Z</time>
      </trkpt>
      <trkpt lat="47.51655" lon="6.74151">
        <ele>379</ele>
        <time>2016-01-03T09:05:09.000Z</time>
      </trkpt>
      <trkpt lat="47.51654" lon="6.74156">
        <ele>379</ele>
        <time>2016-01-03T09:05:10.000Z</time>
      </trkpt>
      <trkpt lat="47.51654" lon="6.74161">
        <ele>379</ele>
        <time>2016-01-03T09:05:11.000Z</time>
      </trkpt>
      <trkpt lat="47.51653" lon="6.74167">
        <ele>376</ele>
        <time>2016-01-03T09:05:12.000Z</time>
      </trkpt>
      <trkpt lat="47.51651" lon="6.74176">
        <ele>375</ele>
        <time>2016-01-03T09:05:13.000Z</time>
      </trkpt>
      <trkpt lat="47.5165" lon="6.74184">
        <ele>375</ele>
        <time>2016-01-03T09:05:14.000Z</time>
      </trkpt>
      <trkpt lat="47.51649" lon="6.74192">
        <ele>375</ele>
        <time>2016-01-03T09:05:15.000Z</time>
      </trkpt>
      <trkpt lat="47.51648" lon="6.74203">
        <ele>374</ele>
        <time>2016-01-03T09:05:16.000Z</time>
      </trkpt>
      <trkpt lat="47.51647" lon="6.74213">
        <ele>374</ele>
        <time>2016-01-03T09:05:17.000Z</time>
      </trkpt>
      <trkpt lat="47.51647" lon="6.74222">
        <ele>374</ele>
        <time>2016-01-03T09:05:18.000Z</time>
      </trkpt>
      <trkpt lat="47.51644" lon="6.7423">
        <ele>374</ele>
        <time>2016-01-03T09:05:19.000Z</time>
      </trkpt>
      <trkpt lat="47.51644" lon="6.74238">
        <ele>374</ele>
        <time>2016-01-03T09:05:20.000Z</time>
      </trkpt>
      <trkpt lat="47.51644" lon="6.74242">
        <ele>373</ele>
        <time>2016-01-03T09:05:21.000Z</time>
      </trkpt>
      <trkpt lat="47.51643" lon="6.74247">
        <ele>373</ele>
        <time>2016-01-03T09:05:22.000Z</time>
      </trkpt>
      <trkpt lat="47.51641" lon="6.74255">
        <ele>372</ele>
        <time>2016-01-03T09:05:23.000Z</time>
      </trkpt>
      <trkpt lat="47.51641" lon="6.74264">
        <ele>372</ele>
        <time>2016-01-03T09:05:24.000Z</time>
      </trkpt>
      <trkpt lat="47.5164" lon="6.74273">
        <ele>372</ele>
        <time>2016-01-03T09:05:25.000Z</time>
      </trkpt>
      <trkpt lat="47.51639" lon="6.74281">
        <ele>371</ele>
        <time>2016-01-03T09:05:26.000Z</time>
      </trkpt>
      <trkpt lat="47.51637" lon="6.7429">
        <ele>371</ele>
        <time>2016-01-03T09:05:27.000Z</time>
      </trkpt>
      <trkpt lat="47.51636" lon="6.74299">
        <ele>371</ele>
        <time>2016-01-03T09:05:28.000Z</time>
      </trkpt>
      <trkpt lat="47.51635" lon="6.74308">
        <ele>371</ele>
        <time>2016-01-03T09:05:29.000Z</time>
      </trkpt>
      <trkpt lat="47.51634" lon="6.74317">
        <ele>371</ele>
        <time>2016-01-03T09:05:30.000Z</time>
      </trkpt>
      <trkpt lat="47.51633" lon="6.74323">
        <ele>371</ele>
        <time>2016-01-03T09:05:31.000Z</time>
      </trkpt>
      <trkpt lat="47.51633" lon="6.74331">
        <ele>371</ele>
        <time>2016-01-03T09:05:32.000Z</time>
      </trkpt>
      <trkpt lat="47.51632" lon="6.74342">
        <ele>370</ele>
        <time>2016-01-03T09:05:33.000Z</time>
      </trkpt>
      <trkpt lat="47.51632" lon="6.7435">
        <ele>370</ele>
        <time>2016-01-03T09:05:34.000Z</time>
      </trkpt>
      <trkpt lat="47.51631" lon="6.74353">
        <ele>370</ele>
        <time>2016-01-03T09:05:35.000Z</time>
      </trkpt>
      <trkpt lat="47.51631" lon="6.74357">
        <ele>370</ele>
        <time>2016-01-03T09:05:36.000Z</time>
      </trkpt>
      <trkpt lat="47.51631" lon="6.7436">
        <ele>369</ele>
        <time>2016-01-03T09:05:37.000Z</time>
      </trkpt>
      <trkpt lat="47.51631" lon="6.74364">
        <ele>369</ele>
        <time>2016-01-03T09:05:38.000Z</time>
      </trkpt>
      <trkpt lat="47.51631" lon="6.7437">
        <ele>369</ele>
        <time>2016-01-03T09:05:40.000Z</time>
      </trkpt>
      <trkpt lat="47.51631" lon="6.74374">
        <ele>369</ele>
        <time>2016-01-03T09:05:41.000Z</time>
      </trkpt>
      <trkpt lat="47.51632" lon="6.74377">
        <ele>369</ele>
        <time>2016-01-03T09:05:42.000Z</time>
      </trkpt>
      <trkpt lat="47.51633" lon="6.74381">
        <ele>369</ele>
        <time>2016-01-03T09:05:43.000Z</time>
      </trkpt>
      <trkpt lat="47.51635" lon="6.74386">
        <ele>369</ele>
        <time>2016-01-03T09:05:45.000Z</time>
      </trkpt>
      <trkpt lat="47.51636" lon="6.74389">
        <ele>369</ele>
        <time>2016-01-03T09:05:46.000Z</time>
      </trkpt>
      <trkpt lat="47.51637" lon="6.74395">
        <ele>369</ele>
        <time>2016-01-03T09:05:50.000Z</time>
      </trkpt>
      <trkpt lat="47.51637" lon="6.74397">
        <ele>369</ele>
        <time>2016-01-03T09:05:51.000Z</time>
      </trkpt>
      <trkpt lat="47.51637" lon="6.74402">
        <ele>369</ele>
        <time>2016-01-03T09:05:53.000Z</time>
      </trkpt>
      <trkpt lat="47.51637" lon="6.74405">
        <ele>369</ele>
        <time>2016-01-03T09:05:54.000Z</time>
      </trkpt>
      <trkpt lat="47.51637" lon="6.7441">
        <ele>369</ele>
        <time>2016-01-03T09:05:56.000Z</time>
      </trkpt>
      <trkpt lat="47.51637" lon="6.74413">
        <ele>369</ele>
        <time>2016-01-03T09:05:57.000Z</time>
      </trkpt>
      <trkpt lat="47.51636" lon="6.74416">
        <ele>369</ele>
        <time>2016-01-03T09:05:58.000Z</time>
      </trkpt>
      <trkpt lat="47.51635" lon="6.74419">
        <ele>368</ele>
        <time>2016-01-03T09:05:59.000Z</time>
      </trkpt>
      <trkpt lat="47.51634" lon="6.74422">
        <ele>368</ele>
        <time>2016-01-03T09:06:00.000Z</time>
      </trkpt>
      <trkpt lat="47.51634" lon="6.74426">
        <ele>368</ele>
        <time>2016-01-03T09:06:01.000Z</time>
      </trkpt>
      <trkpt lat="47.51631" lon="6.74431">
        <ele>368</ele>
        <time>2016-01-03T09:06:03.000Z</time>
      </trkpt>
      <trkpt lat="47.51629" lon="6.74434">
        <ele>367</ele>
        <time>2016-01-03T09:06:04.000Z</time>
      </trkpt>
      <trkpt lat="47.51626" lon="6.74438">
        <ele>367</ele>
        <time>2016-01-03T09:06:05.000Z</time>
      </trkpt>
      <trkpt lat="47.51624" lon="6.74443">
        <ele>367</ele>
        <time>2016-01-03T09:06:06.000Z</time>
      </trkpt>
      <trkpt lat="47.51623" lon="6.74449">
        <ele>367</ele>
        <time>2016-01-03T09:06:07.000Z</time>
      </trkpt>
      <trkpt lat="47.51622" lon="6.74455">
        <ele>367</ele>
        <time>2016-01-03T09:06:08.000Z</time>
      </trkpt>
      <trkpt lat="47.51622" lon="6.74461">
        <ele>367</ele>
        <time>2016-01-03T09:06:09.000Z</time>
      </trkpt>
      <trkpt lat="47.51621" lon="6.74467">
        <ele>366</ele>
        <time>2016-01-03T09:06:10.000Z</time>
      </trkpt>
      <trkpt lat="47.51621" lon="6.7448">
        <ele>366</ele>
        <time>2016-01-03T09:06:11.000Z</time>
      </trkpt>
      <trkpt lat="47.51621" lon="6.74487">
        <ele>366</ele>
        <time>2016-01-03T09:06:12.000Z</time>
      </trkpt>
      <trkpt lat="47.51621" lon="6.74494">
        <ele>366</ele>
        <time>2016-01-03T09:06:13.000Z</time>
      </trkpt>
      <trkpt lat="47.5162" lon="6.74501">
        <ele>364</ele>
        <time>2016-01-03T09:06:14.000Z</time>
      </trkpt>
      <trkpt lat="47.51619" lon="6.74508">
        <ele>364</ele>
        <time>2016-01-03T09:06:15.000Z</time>
      </trkpt>
      <trkpt lat="47.51621" lon="6.74517">
        <ele>364</ele>
        <time>2016-01-03T09:06:16.000Z</time>
      </trkpt>
      <trkpt lat="47.51621" lon="6.74526">
        <ele>363</ele>
        <time>2016-01-03T09:06:17.000Z</time>
      </trkpt>
      <trkpt lat="47.51622" lon="6.74536">
        <ele>363</ele>
        <time>2016-01-03T09:06:18.000Z</time>
      </trkpt>
      <trkpt lat="47.51623" lon="6.74545">
        <ele>363</ele>
        <time>2016-01-03T09:06:19.000Z</time>
      </trkpt>
      <trkpt lat="47.51625" lon="6.74556">
        <ele>363</ele>
        <time>2016-01-03T09:06:20.000Z</time>
      </trkpt>
      <trkpt lat="47.51631" lon="6.74567">
        <ele>363</ele>
        <time>2016-01-03T09:06:21.000Z</time>
      </trkpt>
      <trkpt lat="47.51636" lon="6.74577">
        <ele>363</ele>
        <time>2016-01-03T09:06:22.000Z</time>
      </trkpt>
      <trkpt lat="47.51637" lon="6.74588">
        <ele>358</ele>
        <time>2016-01-03T09:06:23.000Z</time>
      </trkpt>
      <trkpt lat="47.51639" lon="6.74597">
        <ele>358</ele>
        <time>2016-01-03T09:06:24.000Z</time>
      </trkpt>
      <trkpt lat="47.51642" lon="6.74607">
        <ele>357</ele>
        <time>2016-01-03T09:06:25.000Z</time>
      </trkpt>
      <trkpt lat="47.51648" lon="6.74616">
        <ele>357</ele>
        <time>2016-01-03T09:06:26.000Z</time>
      </trkpt>
      <trkpt lat="47.51655" lon="6.74631">
        <ele>355</ele>
        <time>2016-01-03T09:06:27.000Z</time>
      </trkpt>
      <trkpt lat="47.5166" lon="6.74644">
        <ele>354</ele>
        <time>2016-01-03T09:06:28.000Z</time>
      </trkpt>
      <trkpt lat="47.51665" lon="6.74651">
        <ele>353</ele>
        <time>2016-01-03T09:06:29.000Z</time>
      </trkpt>
      <trkpt lat="47.51671" lon="6.74655">
        <ele>353</ele>
        <time>2016-01-03T09:06:30.000Z</time>
      </trkpt>
      <trkpt lat="47.51677" lon="6.74655">
        <ele>353</ele>
        <time>2016-01-03T09:06:31.000Z</time>
      </trkpt>
      <trkpt lat="47.51688" lon="6.74654">
        <ele>354</ele>
        <time>2016-01-03T09:06:32.000Z</time>
      </trkpt>
      <trkpt lat="47.51695" lon="6.74656">
        <ele>354</ele>
        <time>2016-01-03T09:06:33.000Z</time>
      </trkpt>
      <trkpt lat="47.51703" lon="6.74657">
        <ele>354</ele>
        <time>2016-01-03T09:06:34.000Z</time>
      </trkpt>
      <trkpt lat="47.51711" lon="6.74659">
        <ele>353</ele>
        <time>2016-01-03T09:06:35.000Z</time>
      </trkpt>
      <trkpt lat="47.51718" lon="6.74661">
        <ele>353</ele>
        <time>2016-01-03T09:06:36.000Z</time>
      </trkpt>
      <trkpt lat="47.51723" lon="6.74662">
        <ele>352</ele>
        <time>2016-01-03T09:06:37.000Z</time>
      </trkpt>
      <trkpt lat="47.51729" lon="6.74664">
        <ele>351</ele>
        <time>2016-01-03T09:06:38.000Z</time>
      </trkpt>
      <trkpt lat="47.51733" lon="6.74664">
        <ele>351</ele>
        <time>2016-01-03T09:06:39.000Z</time>
      </trkpt>
      <trkpt lat="47.51737" lon="6.74665">
        <ele>350</ele>
        <time>2016-01-03T09:06:40.000Z</time>
      </trkpt>
      <trkpt lat="47.5174" lon="6.74666">
        <ele>349</ele>
        <time>2016-01-03T09:06:41.000Z</time>
      </trkpt>
      <trkpt lat="47.51742" lon="6.74666">
        <ele>349</ele>
        <time>2016-01-03T09:06:42.000Z</time>
      </trkpt>
      <trkpt lat="47.51747" lon="6.74667">
        <ele>346</ele>
        <time>2016-01-03T09:06:44.000Z</time>
      </trkpt>
      <trkpt lat="47.51748" lon="6.74668">
        <ele>346</ele>
        <time>2016-01-03T09:06:45.000Z</time>
      </trkpt>
      <trkpt lat="47.51752" lon="6.74667">
        <ele>346</ele>
        <time>2016-01-03T09:06:49.000Z</time>
      </trkpt>
      <trkpt lat="47.51753" lon="6.74667">
        <ele>346</ele>
        <time>2016-01-03T09:06:50.000Z</time>
      </trkpt>
      <trkpt lat="47.51757" lon="6.74668">
        <ele>345</ele>
        <time>2016-01-03T09:06:54.000Z</time>
      </trkpt>
      <trkpt lat="47.51758" lon="6.74669">
        <ele>345</ele>
        <time>2016-01-03T09:06:55.000Z</time>
      </trkpt>
      <trkpt lat="47.51762" lon="6.7467">
        <ele>344</ele>
        <time>2016-01-03T09:06:58.000Z</time>
      </trkpt>
      <trkpt lat="47.51764" lon="6.7467">
        <ele>344</ele>
        <time>2016-01-03T09:06:59.000Z</time>
      </trkpt>
      <trkpt lat="47.51767" lon="6.7467">
        <ele>344</ele>
        <time>2016-01-03T09:07:01.000Z</time>
      </trkpt>
      <trkpt lat="47.51769" lon="6.7467">
        <ele>344</ele>
        <time>2016-01-03T09:07:02.000Z</time>
      </trkpt>
      <trkpt lat="47.51772" lon="6.7467">
        <ele>343</ele>
        <time>2016-01-03T09:07:04.000Z</time>
      </trkpt>
      <trkpt lat="47.51774" lon="6.74671">
        <ele>343</ele>
        <time>2016-01-03T09:07:05.000Z</time>
      </trkpt>
      <trkpt lat="47.51778" lon="6.74671">
        <ele>343</ele>
        <time>2016-01-03T09:07:06.999Z</time>
      </trkpt>
      <trkpt lat="47.5178" lon="6.74672">
        <ele>343</ele>
        <time>2016-01-03T09:07:08.000Z</time>
      </trkpt>
      <trkpt lat="47.51784" lon="6.74673">
        <ele>342</ele>
        <time>2016-01-03T09:07:10.000Z</time>
      </trkpt>
      <trkpt lat="47.51786" lon="6.74673">
        <ele>342</ele>
        <time>2016-01-03T09:07:11.000Z</time>
      </trkpt>
      <trkpt lat="47.51789" lon="6.74674">
        <ele>342</ele>
        <time>2016-01-03T09:07:13.000Z</time>
      </trkpt>
      <trkpt lat="47.5179" lon="6.74675">
        <ele>342</ele>
        <time>2016-01-03T09:07:14.000Z</time>
      </trkpt>
      <trkpt lat="47.51794" lon="6.74675">
        <ele>342</ele>
        <time>2016-01-03T09:07:16.000Z</time>
      </trkpt>
      <trkpt lat="47.51796" lon="6.74676">
        <ele>342</ele>
        <time>2016-01-03T09:07:17.000Z</time>
      </trkpt>
      <trkpt lat="47.51799" lon="6.74677">
        <ele>342</ele>
        <time>2016-01-03T09:07:19.000Z</time>
      </trkpt>
      <trkpt lat="47.51801" lon="6.74677">
        <ele>342</ele>
        <time>2016-01-03T09:07:20.000Z</time>
      </trkpt>
      <trkpt lat="47.51805" lon="6.74679">
        <ele>341</ele>
        <time>2016-01-03T09:07:23.000Z</time>
      </trkpt>
      <trkpt lat="47.51806" lon="6.7468">
        <ele>341</ele>
        <time>2016-01-03T09:07:24.000Z</time>
      </trkpt>
      <trkpt lat="47.51809" lon="6.74681">
        <ele>341</ele>
        <time>2016-01-03T09:07:26.000Z</time>
      </trkpt>
      <trkpt lat="47.51811" lon="6.74682">
        <ele>341</ele>
        <time>2016-01-03T09:07:27.000Z</time>
      </trkpt>
      <trkpt lat="47.51814" lon="6.74687">
        <ele>341</ele>
        <time>2016-01-03T09:07:29.000Z</time>
      </trkpt>
      <trkpt lat="47.51815" lon="6.7469">
        <ele>341</ele>
        <time>2016-01-03T09:07:30.000Z</time>
      </trkpt>
      <trkpt lat="47.51816" lon="6.74692">
        <ele>341</ele>
        <time>2016-01-03T09:07:31.000Z</time>
      </trkpt>
      <trkpt lat="47.51815" lon="6.74697">
        <ele>341</ele>
        <time>2016-01-03T09:07:32.000Z</time>
      </trkpt>
      <trkpt lat="47.51815" lon="6.747">
        <ele>341</ele>
        <time>2016-01-03T09:07:33.000Z</time>
      </trkpt>
      <trkpt lat="47.51814" lon="6.74704">
        <ele>341</ele>
        <time>2016-01-03T09:07:34.000Z</time>
      </trkpt>
      <trkpt lat="47.51814" lon="6.7471">
        <ele>341</ele>
        <time>2016-01-03T09:07:36.000Z</time>
      </trkpt>
      <trkpt lat="47.51814" lon="6.74713">
        <ele>341</ele>
        <time>2016-01-03T09:07:37.000Z</time>
      </trkpt>
      <trkpt lat="47.51816" lon="6.74717">
        <ele>341</ele>
        <time>2016-01-03T09:07:39.000Z</time>
      </trkpt>
      <trkpt lat="47.51817" lon="6.74718">
        <ele>341</ele>
        <time>2016-01-03T09:07:40.000Z</time>
      </trkpt>
      <trkpt lat="47.51821" lon="6.74719">
        <ele>340</ele>
        <time>2016-01-03T09:07:43.000Z</time>
      </trkpt>
      <trkpt lat="47.51823" lon="6.74719">
        <ele>340</ele>
        <time>2016-01-03T09:07:44.000Z</time>
      </trkpt>
      <trkpt lat="47.51827" lon="6.74719">
        <ele>340</ele>
        <time>2016-01-03T09:07:47.000Z</time>
      </trkpt>
      <trkpt lat="47.51828" lon="6.74719">
        <ele>340</ele>
        <time>2016-01-03T09:07:48.000Z</time>
      </trkpt>
      <trkpt lat="47.51825" lon="6.74717">
        <ele>340</ele>
        <time>2016-01-03T09:07:54.000Z</time>
      </trkpt>
      <trkpt lat="47.51823" lon="6.74718">
        <ele>340</ele>
        <time>2016-01-03T09:07:55.000Z</time>
      </trkpt>
      <trkpt lat="47.5182" lon="6.74722">
        <ele>340</ele>
        <time>2016-01-03T09:09:21.000Z</time>
      </trkpt>
      <trkpt lat="47.5182" lon="6.74722">
        <ele>340</ele>
        <time>2016-01-03T09:09:22.000Z</time>
      </trkpt>
      <trkpt lat="47.51817" lon="6.74721">
        <ele>341</ele>
        <time>2016-01-03T09:09:35.000Z</time>
      </trkpt>
      <trkpt lat="47.51815" lon="6.7472">
        <ele>341</ele>
        <time>2016-01-03T09:09:36.000Z</time>
      </trkpt>
      <trkpt lat="47.51813" lon="6.74721">
        <ele>341</ele>
        <time>2016-01-03T09:09:37.000Z</time>
      </trkpt>
      <trkpt lat="47.5181" lon="6.74724">
        <ele>341</ele>
        <time>2016-01-03T09:09:38.000Z</time>
      </trkpt>
      <trkpt lat="47.51809" lon="6.74728">
        <ele>341</ele>
        <time>2016-01-03T09:09:39.000Z</time>
      </trkpt>
      <trkpt lat="47.51808" lon="6.74735">
        <ele>340</ele>
        <time>2016-01-03T09:09:40.000Z</time>
      </trkpt>
      <trkpt lat="47.51808" lon="6.74749">
        <ele>340</ele>
        <time>2016-01-03T09:09:41.000Z</time>
      </trkpt>
      <trkpt lat="47.51809" lon="6.74755">
        <ele>337</ele>
        <time>2016-01-03T09:09:42.000Z</time>
      </trkpt>
      <trkpt lat="47.51808" lon="6.74763">
        <ele>337</ele>
        <time>2016-01-03T09:09:43.000Z</time>
      </trkpt>
      <trkpt lat="47.51805" lon="6.7477">
        <ele>337</ele>
        <time>2016-01-03T09:09:44.000Z</time>
      </trkpt>
      <trkpt lat="47.51802" lon="6.74779">
        <ele>337</ele>
        <time>2016-01-03T09:09:45.000Z</time>
      </trkpt>
      <trkpt lat="47.51798" lon="6.74787">
        <ele>337</ele>
        <time>2016-01-03T09:09:46.000Z</time>
      </trkpt>
      <trkpt lat="47.51794" lon="6.74795">
        <ele>336</ele>
        <time>2016-01-03T09:09:47.000Z</time>
      </trkpt>
      <trkpt lat="47.5179" lon="6.74802">
        <ele>336</ele>
        <time>2016-01-03T09:09:48.000Z</time>
      </trkpt>
      <trkpt lat="47.51787" lon="6.74809">
        <ele>336</ele>
        <time>2016-01-03T09:09:49.000Z</time>
      </trkpt>
      <trkpt lat="47.51786" lon="6.74817">
        <ele>336</ele>
        <time>2016-01-03T09:09:50.000Z</time>
      </trkpt>
      <trkpt lat="47.51786" lon="6.74825">
        <ele>335</ele>
        <time>2016-01-03T09:09:51.000Z</time>
      </trkpt>
      <trkpt lat="47.51789" lon="6.74833">
        <ele>335</ele>
        <time>2016-01-03T09:09:52.000Z</time>
      </trkpt>
      <trkpt lat="47.51794" lon="6.7484">
        <ele>331</ele>
        <time>2016-01-03T09:09:53.000Z</time>
      </trkpt>
      <trkpt lat="47.518" lon="6.74845">
        <ele>331</ele>
        <time>2016-01-03T09:09:54.000Z</time>
      </trkpt>
      <trkpt lat="47.51805" lon="6.7485">
        <ele>331</ele>
        <time>2016-01-03T09:09:55.000Z</time>
      </trkpt>
      <trkpt lat="47.5181" lon="6.74854">
        <ele>331</ele>
        <time>2016-01-03T09:09:56.000Z</time>
      </trkpt>
      <trkpt lat="47.51817" lon="6.74859">
        <ele>331</ele>
        <time>2016-01-03T09:09:57.000Z</time>
      </trkpt>
      <trkpt lat="47.51824" lon="6.74864">
        <ele>331</ele>
        <time>2016-01-03T09:09:58.000Z</time>
      </trkpt>
      <trkpt lat="47.51831" lon="6.7487">
        <ele>330</ele>
        <time>2016-01-03T09:09:59.000Z</time>
      </trkpt>
      <trkpt lat="47.51838" lon="6.74877">
        <ele>330</ele>
        <time>2016-01-03T09:10:00.000Z</time>
      </trkpt>
      <trkpt lat="47.51843" lon="6.74883">
        <ele>329</ele>
        <time>2016-01-03T09:10:01.000Z</time>
      </trkpt>
      <trkpt lat="47.5185" lon="6.74889">
        <ele>329</ele>
        <time>2016-01-03T09:10:02.000Z</time>
      </trkpt>
      <trkpt lat="47.51856" lon="6.74893">
        <ele>329</ele>
        <time>2016-01-03T09:10:03.000Z</time>
      </trkpt>
      <trkpt lat="47.51863" lon="6.74897">
        <ele>329</ele>
        <time>2016-01-03T09:10:04.000Z</time>
      </trkpt>
      <trkpt lat="47.51868" lon="6.749">
        <ele>329</ele>
        <time>2016-01-03T09:10:05.000Z</time>
      </trkpt>
      <trkpt lat="47.51875" lon="6.74904">
        <ele>329</ele>
        <time>2016-01-03T09:10:06.000Z</time>
      </trkpt>
      <trkpt lat="47.51882" lon="6.74907">
        <ele>329</ele>
        <time>2016-01-03T09:10:07.000Z</time>
      </trkpt>
      <trkpt lat="47.51887" lon="6.74911">
        <ele>329</ele>
        <time>2016-01-03T09:10:08.000Z</time>
      </trkpt>
      <trkpt lat="47.51891" lon="6.74914">
        <ele>329</ele>
        <time>2016-01-03T09:10:09.000Z</time>
      </trkpt>
      <trkpt lat="47.51896" lon="6.7492">
        <ele>328</ele>
        <time>2016-01-03T09:10:10.000Z</time>
      </trkpt>
      <trkpt lat="47.519" lon="6.74925">
        <ele>328</ele>
        <time>2016-01-03T09:10:11.000Z</time>
      </trkpt>
      <trkpt lat="47.51904" lon="6.74929">
        <ele>328</ele>
        <time>2016-01-03T09:10:12.000Z</time>
      </trkpt>
      <trkpt lat="47.51908" lon="6.74931">
        <ele>328</ele>
        <time>2016-01-03T09:10:13.000Z</time>
      </trkpt>
      <trkpt lat="47.51911" lon="6.74935">
        <ele>328</ele>
        <time>2016-01-03T09:10:14.000Z</time>
      </trkpt>
      <trkpt lat="47.51913" lon="6.74941">
        <ele>328</ele>
        <time>2016-01-03T09:10:15.000Z</time>
      </trkpt>
      <trkpt lat="47.51916" lon="6.74952">
        <ele>328</ele>
        <time>2016-01-03T09:10:16.000Z</time>
      </trkpt>
      <trkpt lat="47.51916" lon="6.74958">
        <ele>328</ele>
        <time>2016-01-03T09:10:17.000Z</time>
      </trkpt>
      <trkpt lat="47.51917" lon="6.74965">
        <ele>331</ele>
        <time>2016-01-03T09:10:18.000Z</time>
      </trkpt>
      <trkpt lat="47.51918" lon="6.74972">
        <ele>331</ele>
        <time>2016-01-03T09:10:19.000Z</time>
      </trkpt>
      <trkpt lat="47.5192" lon="6.74978">
        <ele>331</ele>
        <time>2016-01-03T09:10:20.000Z</time>
      </trkpt>
      <trkpt lat="47.51923" lon="6.74985">
        <ele>330</ele>
        <time>2016-01-03T09:10:21.000Z</time>
      </trkpt>
      <trkpt lat="47.51925" lon="6.74989">
        <ele>330</ele>
        <time>2016-01-03T09:10:22.000Z</time>
      </trkpt>
      <trkpt lat="47.51929" lon="6.74995">
        <ele>330</ele>
        <time>2016-01-03T09:10:23.000Z</time>
      </trkpt>
      <trkpt lat="47.51932" lon="6.75">
        <ele>330</ele>
        <time>2016-01-03T09:10:24.000Z</time>
      </trkpt>
      <trkpt lat="47.51935" lon="6.75003">
        <ele>331</ele>
        <time>2016-01-03T09:10:25.000Z</time>
      </trkpt>
      <trkpt lat="47.51938" lon="6.75008">
        <ele>331</ele>
        <time>2016-01-03T09:10:26.000Z</time>
      </trkpt>
      <trkpt lat="47.51942" lon="6.75012">
        <ele>332</ele>
        <time>2016-01-03T09:10:27.000Z</time>
      </trkpt>
      <trkpt lat="47.51945" lon="6.75015">
        <ele>332</ele>
        <time>2016-01-03T09:10:28.000Z</time>
      </trkpt>
      <trkpt lat="47.51949" lon="6.75018">
        <ele>332</ele>
        <time>2016-01-03T09:10:29.000Z</time>
      </trkpt>
      <trkpt lat="47.51952" lon="6.7502">
        <ele>333</ele>
        <time>2016-01-03T09:10:30.000Z</time>
      </trkpt>
      <trkpt lat="47.51955" lon="6.75022">
        <ele>333</ele>
        <time>2016-01-03T09:10:31.000Z</time>
      </trkpt>
      <trkpt lat="47.51958" lon="6.75023">
        <ele>333</ele>
        <time>2016-01-03T09:10:32.000Z</time>
      </trkpt>
      <trkpt lat="47.5196" lon="6.75025">
        <ele>333</ele>
        <time>2016-01-03T09:10:33.000Z</time>
      </trkpt>
      <trkpt lat="47.51963" lon="6.75026">
        <ele>333</ele>
        <time>2016-01-03T09:10:34.000Z</time>
      </trkpt>
      <trkpt lat="47.51965" lon="6.75027">
        <ele>333</ele>
        <time>2016-01-03T09:10:35.000Z</time>
      </trkpt>
      <trkpt lat="47.51969" lon="6.75028">
        <ele>333</ele>
        <time>2016-01-03T09:10:37.000Z</time>
      </trkpt>
      <trkpt lat="47.51971" lon="6.75029">
        <ele>333</ele>
        <time>2016-01-03T09:10:38.000Z</time>
      </trkpt>
      <trkpt lat="47.51974" lon="6.75031">
        <ele>334</ele>
        <time>2016-01-03T09:10:40.000Z</time>
      </trkpt>
      <trkpt lat="47.51975" lon="6.75032">
        <ele>334</ele>
        <time>2016-01-03T09:10:41.000Z</time>
      </trkpt>
      <trkpt lat="47.51979" lon="6.75034">
        <ele>334</ele>
        <time>2016-01-03T09:10:43.000Z</time>
      </trkpt>
      <trkpt lat="47.51981" lon="6.75034">
        <ele>334</ele>
        <time>2016-01-03T09:10:44.000Z</time>
      </trkpt>
      <trkpt lat="47.51985" lon="6.75035">
        <ele>334</ele>
        <time>2016-01-03T09:10:46.000Z</time>
      </trkpt>
      <trkpt lat="47.51987" lon="6.75036">
        <ele>334</ele>
        <time>2016-01-03T09:10:47.000Z</time>
      </trkpt>
      <trkpt lat="47.5199" lon="6.75038">
        <ele>334</ele>
        <time>2016-01-03T09:10:49.000Z</time>
      </trkpt>
      <trkpt lat="47.51992" lon="6.75039">
        <ele>334</ele>
        <time>2016-01-03T09:10:50.000Z</time>
      </trkpt>
      <trkpt lat="47.51995" lon="6.75041">
        <ele>334</ele>
        <time>2016-01-03T09:10:52.000Z</time>
      </trkpt>
      <trkpt lat="47.51997" lon="6.75042">
        <ele>334</ele>
        <time>2016-01-03T09:10:53.000Z</time>
      </trkpt>
      <trkpt lat="47.52" lon="6.75044">
        <ele>340</ele>
        <time>2016-01-03T09:10:55.000Z</time>
      </trkpt>
      <trkpt lat="47.52002" lon="6.75045">
        <ele>340</ele>
        <time>2016-01-03T09:10:56.000Z</time>
      </trkpt>
      <trkpt lat="47.52006" lon="6.75046">
        <ele>340</ele>
        <time>2016-01-03T09:10:58.000Z</time>
      </trkpt>
      <trkpt lat="47.52008" lon="6.75048">
        <ele>340</ele>
        <time>2016-01-03T09:10:59.000Z</time>
      </trkpt>
      <trkpt lat="47.52012" lon="6.75051">
        <ele>340</ele>
        <time>2016-01-03T09:11:01.000Z</time>
      </trkpt>
      <trkpt lat="47.52014" lon="6.75052">
        <ele>340</ele>
        <time>2016-01-03T09:11:02.000Z</time>
      </trkpt>
      <trkpt lat="47.52017" lon="6.75054">
        <ele>340</ele>
        <time>2016-01-03T09:11:04.000Z</time>
      </trkpt>
      <trkpt lat="47.52019" lon="6.75055">
        <ele>340</ele>
        <time>2016-01-03T09:11:05.000Z</time>
      </trkpt>
      <trkpt lat="47.52023" lon="6.75057">
        <ele>340</ele>
        <time>2016-01-03T09:11:07.000Z</time>
      </trkpt>
      <trkpt lat="47.52025" lon="6.75058">
        <ele>340</ele>
        <time>2016-01-03T09:11:08.000Z</time>
      </trkpt>
      <trkpt lat="47.52029" lon="6.7506">
        <ele>340</ele>
        <time>2016-01-03T09:11:10.000Z</time>
      </trkpt>
      <trkpt lat="47.52031" lon="6.75061">
        <ele>341</ele>
        <time>2016-01-03T09:11:11.000Z</time>
      </trkpt>
      <trkpt lat="47.52034" lon="6.75063">
        <ele>341</ele>
        <time>2016-01-03T09:11:13.000Z</time>
      </trkpt>
      <trkpt lat="47.52036" lon="6.75064">
        <ele>341</ele>
        <time>2016-01-03T09:11:14.000Z</time>
      </trkpt>
      <trkpt lat="47.5204" lon="6.75066">
        <ele>341</ele>
        <time>2016-01-03T09:11:16.000Z</time>
      </trkpt>
      <trkpt lat="47.52042" lon="6.75067">
        <ele>341</ele>
        <time>2016-01-03T09:11:17.000Z</time>
      </trkpt>
      <trkpt lat="47.52045" lon="6.75069">
        <ele>342</ele>
        <time>2016-01-03T09:11:19.000Z</time>
      </trkpt>
      <trkpt lat="47.52047" lon="6.75069">
        <ele>342</ele>
        <time>2016-01-03T09:11:20.000Z</time>
      </trkpt>
      <trkpt lat="47.5205" lon="6.75071">
        <ele>342</ele>
        <time>2016-01-03T09:11:22.000Z</time>
      </trkpt>
      <trkpt lat="47.52051" lon="6.75072">
        <ele>342</ele>
        <time>2016-01-03T09:11:23.000Z</time>
      </trkpt>
      <trkpt lat="47.52055" lon="6.75073">
        <ele>343</ele>
        <time>2016-01-03T09:11:25.000Z</time>
      </trkpt>
      <trkpt lat="47.52056" lon="6.75074">
        <ele>343</ele>
        <time>2016-01-03T09:11:26.000Z</time>
      </trkpt>
      <trkpt lat="47.52059" lon="6.75076">
        <ele>343</ele>
        <time>2016-01-03T09:11:28.000Z</time>
      </trkpt>
      <trkpt lat="47.52061" lon="6.75077">
        <ele>343</ele>
        <time>2016-01-03T09:11:29.000Z</time>
      </trkpt>
      <trkpt lat="47.52064" lon="6.75078">
        <ele>343</ele>
        <time>2016-01-03T09:11:31.000Z</time>
      </trkpt>
      <trkpt lat="47.52065" lon="6.75078">
        <ele>344</ele>
        <time>2016-01-03T09:11:32.000Z</time>
      </trkpt>
      <trkpt lat="47.52069" lon="6.75079">
        <ele>344</ele>
        <time>2016-01-03T09:11:34.000Z</time>
      </trkpt>
      <trkpt lat="47.5207" lon="6.75079">
        <ele>344</ele>
        <time>2016-01-03T09:11:35.000Z</time>
      </trkpt>
      <trkpt lat="47.52073" lon="6.7508">
        <ele>344</ele>
        <time>2016-01-03T09:11:37.000Z</time>
      </trkpt>
      <trkpt lat="47.52075" lon="6.7508">
        <ele>345</ele>
        <time>2016-01-03T09:11:38.000Z</time>
      </trkpt>
      <trkpt lat="47.52078" lon="6.7508">
        <ele>345</ele>
        <time>2016-01-03T09:11:40.000Z</time>
      </trkpt>
      <trkpt lat="47.5208" lon="6.7508">
        <ele>345</ele>
        <time>2016-01-03T09:11:41.000Z</time>
      </trkpt>
      <trkpt lat="47.52083" lon="6.75079">
        <ele>347</ele>
        <time>2016-01-03T09:11:44.000Z</time>
      </trkpt>
      <trkpt lat="47.52085" lon="6.7508">
        <ele>347</ele>
        <time>2016-01-03T09:11:45.000Z</time>
      </trkpt>
      <trkpt lat="47.52088" lon="6.7508">
        <ele>348</ele>
        <time>2016-01-03T09:11:47.000Z</time>
      </trkpt>
      <trkpt lat="47.52089" lon="6.75081">
        <ele>348</ele>
        <time>2016-01-03T09:11:48.000Z</time>
      </trkpt>
      <trkpt lat="47.52092" lon="6.75081">
        <ele>348</ele>
        <time>2016-01-03T09:11:50.000Z</time>
      </trkpt>
      <trkpt lat="47.52094" lon="6.75081">
        <ele>349</ele>
        <time>2016-01-03T09:11:51.000Z</time>
      </trkpt>
      <trkpt lat="47.52098" lon="6.7508">
        <ele>350</ele>
        <time>2016-01-03T09:11:54.000Z</time>
      </trkpt>
      <trkpt lat="47.52099" lon="6.7508">
        <ele>350</ele>
        <time>2016-01-03T09:11:55.000Z</time>
      </trkpt>
      <trkpt lat="47.52102" lon="6.75079">
        <ele>350</ele>
        <time>2016-01-03T09:11:57.000Z</time>
      </trkpt>
      <trkpt lat="47.52104" lon="6.75079">
        <ele>351</ele>
        <time>2016-01-03T09:11:58.000Z</time>
      </trkpt>
      <trkpt lat="47.52107" lon="6.7508">
        <ele>351</ele>
        <time>2016-01-03T09:12:00.000Z</time>
      </trkpt>
      <trkpt lat="47.52109" lon="6.75081">
        <ele>351</ele>
        <time>2016-01-03T09:12:01.000Z</time>
      </trkpt>
      <trkpt lat="47.52112" lon="6.75081">
        <ele>352</ele>
        <time>2016-01-03T09:12:03.000Z</time>
      </trkpt>
      <trkpt lat="47.52113" lon="6.75081">
        <ele>352</ele>
        <time>2016-01-03T09:12:04.000Z</time>
      </trkpt>
      <trkpt lat="47.52116" lon="6.75081">
        <ele>352</ele>
        <time>2016-01-03T09:12:06.000Z</time>
      </trkpt>
      <trkpt lat="47.52118" lon="6.75082">
        <ele>352</ele>
        <time>2016-01-03T09:12:07.000Z</time>
      </trkpt>
      <trkpt lat="47.52122" lon="6.75082">
        <ele>353</ele>
        <time>2016-01-03T09:12:09.000Z</time>
      </trkpt>
      <trkpt lat="47.52123" lon="6.75083">
        <ele>353</ele>
        <time>2016-01-03T09:12:10.000Z</time>
      </trkpt>
      <trkpt lat="47.52126" lon="6.75082">
        <ele>353</ele>
        <time>2016-01-03T09:12:12.000Z</time>
      </trkpt>
      <trkpt lat="47.52128" lon="6.75082">
        <ele>354</ele>
        <time>2016-01-03T09:12:13.000Z</time>
      </trkpt>
      <trkpt lat="47.52132" lon="6.75082">
        <ele>354</ele>
        <time>2016-01-03T09:12:15.000Z</time>
      </trkpt>
      <trkpt lat="47.52134" lon="6.75082">
        <ele>354</ele>
        <time>2016-01-03T09:12:16.000Z</time>
      </trkpt>
      <trkpt lat="47.52137" lon="6.75083">
        <ele>355</ele>
        <time>2016-01-03T09:12:18.000Z</time>
      </trkpt>
      <trkpt lat="47.52139" lon="6.75083">
        <ele>355</ele>
        <time>2016-01-03T09:12:19.001Z</time>
      </trkpt>
      <trkpt lat="47.52142" lon="6.75084">
        <ele>353</ele>
        <time>2016-01-03T09:12:21.000Z</time>
      </trkpt>
      <trkpt lat="47.52143" lon="6.75084">
        <ele>353</ele>
        <time>2016-01-03T09:12:22.000Z</time>
      </trkpt>
      <trkpt lat="47.52147" lon="6.75085">
        <ele>353</ele>
        <time>2016-01-03T09:12:24.000Z</time>
      </trkpt>
      <trkpt lat="47.52148" lon="6.75085">
        <ele>354</ele>
        <time>2016-01-03T09:12:25.000Z</time>
      </trkpt>
      <trkpt lat="47.52152" lon="6.75086">
        <ele>354</ele>
        <time>2016-01-03T09:12:27.000Z</time>
      </trkpt>
      <trkpt lat="47.52153" lon="6.75086">
        <ele>355</ele>
        <time>2016-01-03T09:12:28.000Z</time>
      </trkpt>
      <trkpt lat="47.52157" lon="6.75086">
        <ele>355</ele>
        <time>2016-01-03T09:12:30.000Z</time>
      </trkpt>
      <trkpt lat="47.52158" lon="6.75087">
        <ele>356</ele>
        <time>2016-01-03T09:12:31.000Z</time>
      </trkpt>
      <trkpt lat="47.52162" lon="6.75087">
        <ele>356</ele>
        <time>2016-01-03T09:12:33.000Z</time>
      </trkpt>
      <trkpt lat="47.52164" lon="6.75087">
        <ele>357</ele>
        <time>2016-01-03T09:12:34.000Z</time>
      </trkpt>
      <trkpt lat="47.52167" lon="6.75086">
        <ele>358</ele>
        <time>2016-01-03T09:12:36.000Z</time>
      </trkpt>
      <trkpt lat="47.52169" lon="6.75086">
        <ele>358</ele>
        <time>2016-01-03T09:12:37.000Z</time>
      </trkpt>
      <trkpt lat="47.52172" lon="6.75085">
        <ele>358</ele>
        <time>2016-01-03T09:12:39.000Z</time>
      </trkpt>
      <trkpt lat="47.52174" lon="6.75084">
        <ele>358</ele>
        <time>2016-01-03T09:12:40.000Z</time>
      </trkpt>
      <trkpt lat="47.52178" lon="6.75084">
        <ele>359</ele>
        <time>2016-01-03T09:12:42.000Z</time>
      </trkpt>
      <trkpt lat="47.5218" lon="6.75083">
        <ele>361</ele>
        <time>2016-01-03T09:12:43.000Z</time>
      </trkpt>
      <trkpt lat="47.52183" lon="6.75083">
        <ele>361</ele>
        <time>2016-01-03T09:12:45.000Z</time>
      </trkpt>
      <trkpt lat="47.52185" lon="6.75082">
        <ele>361</ele>
        <time>2016-01-03T09:12:46.000Z</time>
      </trkpt>
      <trkpt lat="47.52188" lon="6.75082">
        <ele>362</ele>
        <time>2016-01-03T09:12:48.000Z</time>
      </trkpt>
      <trkpt lat="47.52189" lon="6.75081">
        <ele>362</ele>
        <time>2016-01-03T09:12:49.000Z</time>
      </trkpt>
      <trkpt lat="47.52193" lon="6.7508">
        <ele>362</ele>
        <time>2016-01-03T09:12:51.000Z</time>
      </trkpt>
      <trkpt lat="47.52195" lon="6.7508">
        <ele>362</ele>
        <time>2016-01-03T09:12:52.000Z</time>
      </trkpt>
      <trkpt lat="47.52198" lon="6.7508">
        <ele>363</ele>
        <time>2016-01-03T09:12:54.000Z</time>
      </trkpt>
      <trkpt lat="47.522" lon="6.75081">
        <ele>363</ele>
        <time>2016-01-03T09:12:55.000Z</time>
      </trkpt>
      <trkpt lat="47.52204" lon="6.75081">
        <ele>363</ele>
        <time>2016-01-03T09:12:57.000Z</time>
      </trkpt>
      <trkpt lat="47.52205" lon="6.75081">
        <ele>363</ele>
        <time>2016-01-03T09:12:58.000Z</time>
      </trkpt>
      <trkpt lat="47.52209" lon="6.7508">
        <ele>364</ele>
        <time>2016-01-03T09:13:00.000Z</time>
      </trkpt>
      <trkpt lat="47.5221" lon="6.75079">
        <ele>364</ele>
        <time>2016-01-03T09:13:01.000Z</time>
      </trkpt>
      <trkpt lat="47.52213" lon="6.75078">
        <ele>364</ele>
        <time>2016-01-03T09:13:03.000Z</time>
      </trkpt>
      <trkpt lat="47.52215" lon="6.75078">
        <ele>364</ele>
        <time>2016-01-03T09:13:04.000Z</time>
      </trkpt>
      <trkpt lat="47.52218" lon="6.75077">
        <ele>364</ele>
        <time>2016-01-03T09:13:06.000Z</time>
      </trkpt>
      <trkpt lat="47.5222" lon="6.75076">
        <ele>364</ele>
        <time>2016-01-03T09:13:07.000Z</time>
      </trkpt>
      <trkpt lat="47.52223" lon="6.75075">
        <ele>365</ele>
        <time>2016-01-03T09:13:09.000Z</time>
      </trkpt>
      <trkpt lat="47.52225" lon="6.75075">
        <ele>365</ele>
        <time>2016-01-03T09:13:10.000Z</time>
      </trkpt>
      <trkpt lat="47.52229" lon="6.75074">
        <ele>365</ele>
        <time>2016-01-03T09:13:12.000Z</time>
      </trkpt>
      <trkpt lat="47.52231" lon="6.75074">
        <ele>365</ele>
        <time>2016-01-03T09:13:13.000Z</time>
      </trkpt>
      <trkpt lat="47.52234" lon="6.75072">
        <ele>365</ele>
        <time>2016-01-03T09:13:15.000Z</time>
      </trkpt>
      <trkpt lat="47.52236" lon="6.75071">
        <ele>365</ele>
        <time>2016-01-03T09:13:16.000Z</time>
      </trkpt>
      <trkpt lat="47.52239" lon="6.75069">
        <ele>365</ele>
        <time>2016-01-03T09:13:18.000Z</time>
      </trkpt>
      <trkpt lat="47.5224" lon="6.75069">
        <ele>365</ele>
        <time>2016-01-03T09:13:19.000Z</time>
      </trkpt>
      <trkpt lat="47.52243" lon="6.75066">
        <ele>365</ele>
        <time>2016-01-03T09:13:21.000Z</time>
      </trkpt>
      <trkpt lat="47.52244" lon="6.75063">
        <ele>365</ele>
        <time>2016-01-03T09:13:22.000Z</time>
      </trkpt>
      <trkpt lat="47.52244" lon="6.75057">
        <ele>365</ele>
        <time>2016-01-03T09:13:24.000Z</time>
      </trkpt>
      <trkpt lat="47.52245" lon="6.75055">
        <ele>366</ele>
        <time>2016-01-03T09:13:24.999Z</time>
      </trkpt>
      <trkpt lat="47.52243" lon="6.75049">
        <ele>366</ele>
        <time>2016-01-03T09:13:27.000Z</time>
      </trkpt>
      <trkpt lat="47.52242" lon="6.75045">
        <ele>366</ele>
        <time>2016-01-03T09:13:28.000Z</time>
      </trkpt>
      <trkpt lat="47.52241" lon="6.75041">
        <ele>366</ele>
        <time>2016-01-03T09:13:29.000Z</time>
      </trkpt>
      <trkpt lat="47.5224" lon="6.75037">
        <ele>366</ele>
        <time>2016-01-03T09:13:30.000Z</time>
      </trkpt>
      <trkpt lat="47.5224" lon="6.75033">
        <ele>366</ele>
        <time>2016-01-03T09:13:31.000Z</time>
      </trkpt>
      <trkpt lat="47.52239" lon="6.75029">
        <ele>366</ele>
        <time>2016-01-03T09:13:32.001Z</time>
      </trkpt>
      <trkpt lat="47.52238" lon="6.75025">
        <ele>367</ele>
        <time>2016-01-03T09:13:33.000Z</time>
      </trkpt>
      <trkpt lat="47.52238" lon="6.75021">
        <ele>367</ele>
        <time>2016-01-03T09:13:34.000Z</time>
      </trkpt>
      <trkpt lat="47.52238" lon="6.75016">
        <ele>367</ele>
        <time>2016-01-03T09:13:35.000Z</time>
      </trkpt>
      <trkpt lat="47.52237" lon="6.75012">
        <ele>368</ele>
        <time>2016-01-03T09:13:36.000Z</time>
      </trkpt>
      <trkpt lat="47.52236" lon="6.75009">
        <ele>368</ele>
        <time>2016-01-03T09:13:37.000Z</time>
      </trkpt>
      <trkpt lat="47.52235" lon="6.75005">
        <ele>368</ele>
        <time>2016-01-03T09:13:38.000Z</time>
      </trkpt>
      <trkpt lat="47.52234" lon="6.75001">
        <ele>368</ele>
        <time>2016-01-03T09:13:39.000Z</time>
      </trkpt>
      <trkpt lat="47.52234" lon="6.74997">
        <ele>369</ele>
        <time>2016-01-03T09:13:40.000Z</time>
      </trkpt>
      <trkpt lat="47.52233" lon="6.74992">
        <ele>369</ele>
        <time>2016-01-03T09:13:41.000Z</time>
      </trkpt>
      <trkpt lat="47.52232" lon="6.74987">
        <ele>369</ele>
        <time>2016-01-03T09:13:42.000Z</time>
      </trkpt>
      <trkpt lat="47.52232" lon="6.74983">
        <ele>369</ele>
        <time>2016-01-03T09:13:43.000Z</time>
      </trkpt>
      <trkpt lat="47.52232" lon="6.74978">
        <ele>368</ele>
        <time>2016-01-03T09:13:44.000Z</time>
      </trkpt>
      <trkpt lat="47.52231" lon="6.74973">
        <ele>368</ele>
        <time>2016-01-03T09:13:45.000Z</time>
      </trkpt>
      <trkpt lat="47.52232" lon="6.74968">
        <ele>368</ele>
        <time>2016-01-03T09:13:46.000Z</time>
      </trkpt>
      <trkpt lat="47.52232" lon="6.74963">
        <ele>368</ele>
        <time>2016-01-03T09:13:47.000Z</time>
      </trkpt>
      <trkpt lat="47.52232" lon="6.74958">
        <ele>368</ele>
        <time>2016-01-03T09:13:48.000Z</time>
      </trkpt>
      <trkpt lat="47.52232" lon="6.74952">
        <ele>368</ele>
        <time>2016-01-03T09:13:49.000Z</time>
      </trkpt>
      <trkpt lat="47.52232" lon="6.74947">
        <ele>368</ele>
        <time>2016-01-03T09:13:50.000Z</time>
      </trkpt>
      <trkpt lat="47.52232" lon="6.74941">
        <ele>368</ele>
        <time>2016-01-03T09:13:51.000Z</time>
      </trkpt>
      <trkpt lat="47.52232" lon="6.74936">
        <ele>369</ele>
        <time>2016-01-03T09:13:52.000Z</time>
      </trkpt>
      <trkpt lat="47.52233" lon="6.74931">
        <ele>369</ele>
        <time>2016-01-03T09:13:53.000Z</time>
      </trkpt>
      <trkpt lat="47.52234" lon="6.74925">
        <ele>369</ele>
        <time>2016-01-03T09:13:54.000Z</time>
      </trkpt>
      <trkpt lat="47.52234" lon="6.7492">
        <ele>369</ele>
        <time>2016-01-03T09:13:55.000Z</time>
      </trkpt>
      <trkpt lat="47.52234" lon="6.74914">
        <ele>369</ele>
        <time>2016-01-03T09:13:56.000Z</time>
      </trkpt>
      <trkpt lat="47.52234" lon="6.74909">
        <ele>369</ele>
        <time>2016-01-03T09:13:57.000Z</time>
      </trkpt>
      <trkpt lat="47.52234" lon="6.74903">
        <ele>368</ele>
        <time>2016-01-03T09:13:58.000Z</time>
      </trkpt>
      <trkpt lat="47.52235" lon="6.74898">
        <ele>368</ele>
        <time>2016-01-03T09:13:59.000Z</time>
      </trkpt>
      <trkpt lat="47.52235" lon="6.74892">
        <ele>368</ele>
        <time>2016-01-03T09:14:00.000Z</time>
      </trkpt>
      <trkpt lat="47.52236" lon="6.74886">
        <ele>368</ele>
        <time>2016-01-03T09:14:01.000Z</time>
      </trkpt>
      <trkpt lat="47.52236" lon="6.74881">
        <ele>367</ele>
        <time>2016-01-03T09:14:02.000Z</time>
      </trkpt>
      <trkpt lat="47.52237" lon="6.74875">
        <ele>367</ele>
        <time>2016-01-03T09:14:03.000Z</time>
      </trkpt>
      <trkpt lat="47.52238" lon="6.7487">
        <ele>367</ele>
        <time>2016-01-03T09:14:04.000Z</time>
      </trkpt>
      <trkpt lat="47.52238" lon="6.74864">
        <ele>367</ele>
        <time>2016-01-03T09:14:05.000Z</time>
      </trkpt>
      <trkpt lat="47.52239" lon="6.74859">
        <ele>367</ele>
        <time>2016-01-03T09:14:06.000Z</time>
      </trkpt>
      <trkpt lat="47.52239" lon="6.74853">
        <ele>367</ele>
        <time>2016-01-03T09:14:07.000Z</time>
      </trkpt>
      <trkpt lat="47.5224" lon="6.74847">
        <ele>368</ele>
        <time>2016-01-03T09:14:08.000Z</time>
      </trkpt>
      <trkpt lat="47.52241" lon="6.74842">
        <ele>368</ele>
        <time>2016-01-03T09:14:08.999Z</time>
      </trkpt>
      <trkpt lat="47.52242" lon="6.74836">
        <ele>368</ele>
        <time>2016-01-03T09:14:10.000Z</time>
      </trkpt>
      <trkpt lat="47.52244" lon="6.74829">
        <ele>368</ele>
        <time>2016-01-03T09:14:11.000Z</time>
      </trkpt>
      <trkpt lat="47.52245" lon="6.74823">
        <ele>367</ele>
        <time>2016-01-03T09:14:12.000Z</time>
      </trkpt>
      <trkpt lat="47.52246" lon="6.74817">
        <ele>367</ele>
        <time>2016-01-03T09:14:13.000Z</time>
      </trkpt>
      <trkpt lat="47.52247" lon="6.74811">
        <ele>366</ele>
        <time>2016-01-03T09:14:14.000Z</time>
      </trkpt>
      <trkpt lat="47.52248" lon="6.74805">
        <ele>366</ele>
        <time>2016-01-03T09:14:15.000Z</time>
      </trkpt>
      <trkpt lat="47.52249" lon="6.74798">
        <ele>366</ele>
        <time>2016-01-03T09:14:16.000Z</time>
      </trkpt>
      <trkpt lat="47.52249" lon="6.74791">
        <ele>366</ele>
        <time>2016-01-03T09:14:17.000Z</time>
      </trkpt>
      <trkpt lat="47.52251" lon="6.74785">
        <ele>369</ele>
        <time>2016-01-03T09:14:18.000Z</time>
      </trkpt>
      <trkpt lat="47.52253" lon="6.74778">
        <ele>369</ele>
        <time>2016-01-03T09:14:19.000Z</time>
      </trkpt>
      <trkpt lat="47.52255" lon="6.74772">
        <ele>368</ele>
        <time>2016-01-03T09:14:20.000Z</time>
      </trkpt>
      <trkpt lat="47.52256" lon="6.74766">
        <ele>368</ele>
        <time>2016-01-03T09:14:21.000Z</time>
      </trkpt>
      <trkpt lat="47.52258" lon="6.7476">
        <ele>368</ele>
        <time>2016-01-03T09:14:22.000Z</time>
      </trkpt>
      <trkpt lat="47.5226" lon="6.74754">
        <ele>368</ele>
        <time>2016-01-03T09:14:23.000Z</time>
      </trkpt>
      <trkpt lat="47.52262" lon="6.74747">
        <ele>366</ele>
        <time>2016-01-03T09:14:23.999Z</time>
      </trkpt>
      <trkpt lat="47.52263" lon="6.74739">
        <ele>366</ele>
        <time>2016-01-03T09:14:25.000Z</time>
      </trkpt>
      <trkpt lat="47.52265" lon="6.74732">
        <ele>366</ele>
        <time>2016-01-03T09:14:26.000Z</time>
      </trkpt>
      <trkpt lat="47.52268" lon="6.74726">
        <ele>366</ele>
        <time>2016-01-03T09:14:27.000Z</time>
      </trkpt>
      <trkpt lat="47.5227" lon="6.74719">
        <ele>366</ele>
        <time>2016-01-03T09:14:28.000Z</time>
      </trkpt>
      <trkpt lat="47.52274" lon="6.7471">
        <ele>365</ele>
        <time>2016-01-03T09:14:29.000Z</time>
      </trkpt>
      <trkpt lat="47.52276" lon="6.74703">
        <ele>365</ele>
        <time>2016-01-03T09:14:30.000Z</time>
      </trkpt>
      <trkpt lat="47.52278" lon="6.74695">
        <ele>365</ele>
        <time>2016-01-03T09:14:31.000Z</time>
      </trkpt>
      <trkpt lat="47.52279" lon="6.74687">
        <ele>365</ele>
        <time>2016-01-03T09:14:32.000Z</time>
      </trkpt>
      <trkpt lat="47.52281" lon="6.74683">
        <ele>365</ele>
        <time>2016-01-03T09:14:33.000Z</time>
      </trkpt>
      <trkpt lat="47.52284" lon="6.74677">
        <ele>365</ele>
        <time>2016-01-03T09:14:34.000Z</time>
      </trkpt>
      <trkpt lat="47.52289" lon="6.74673">
        <ele>365</ele>
        <time>2016-01-03T09:14:35.000Z</time>
      </trkpt>
      <trkpt lat="47.52293" lon="6.74671">
        <ele>365</ele>
        <time>2016-01-03T09:14:36.000Z</time>
      </trkpt>
      <trkpt lat="47.52299" lon="6.74673">
        <ele>365</ele>
        <time>2016-01-03T09:14:37.000Z</time>
      </trkpt>
      <trkpt lat="47.52303" lon="6.74674">
        <ele>365</ele>
        <time>2016-01-03T09:14:38.001Z</time>
      </trkpt>
      <trkpt lat="47.52308" lon="6.74676">
        <ele>365</ele>
        <time>2016-01-03T09:14:39.000Z</time>
      </trkpt>
      <trkpt lat="47.52313" lon="6.74681">
        <ele>365</ele>
        <time>2016-01-03T09:14:40.000Z</time>
      </trkpt>
      <trkpt lat="47.52317" lon="6.74684">
        <ele>365</ele>
        <time>2016-01-03T09:14:41.000Z</time>
      </trkpt>
      <trkpt lat="47.52321" lon="6.74686">
        <ele>365</ele>
        <time>2016-01-03T09:14:42.000Z</time>
      </trkpt>
      <trkpt lat="47.52326" lon="6.74687">
        <ele>365</ele>
        <time>2016-01-03T09:14:43.000Z</time>
      </trkpt>
      <trkpt lat="47.52329" lon="6.74689">
        <ele>365</ele>
        <time>2016-01-03T09:14:44.000Z</time>
      </trkpt>
      <trkpt lat="47.52333" lon="6.74691">
        <ele>365</ele>
        <time>2016-01-03T09:14:45.000Z</time>
      </trkpt>
      <trkpt lat="47.52337" lon="6.74692">
        <ele>366</ele>
        <time>2016-01-03T09:14:46.000Z</time>
      </trkpt>
      <trkpt lat="47.52341" lon="6.74694">
        <ele>366</ele>
        <time>2016-01-03T09:14:47.000Z</time>
      </trkpt>
      <trkpt lat="47.52344" lon="6.74695">
        <ele>366</ele>
        <time>2016-01-03T09:14:48.000Z</time>
      </trkpt>
      <trkpt lat="47.52348" lon="6.74697">
        <ele>367</ele>
        <time>2016-01-03T09:14:49.000Z</time>
      </trkpt>
      <trkpt lat="47.52352" lon="6.74698">
        <ele>367</ele>
        <time>2016-01-03T09:14:50.000Z</time>
      </trkpt>
      <trkpt lat="47.52355" lon="6.747">
        <ele>367</ele>
        <time>2016-01-03T09:14:51.000Z</time>
      </trkpt>
      <trkpt lat="47.52359" lon="6.74702">
        <ele>367</ele>
        <time>2016-01-03T09:14:52.000Z</time>
      </trkpt>
      <trkpt lat="47.52362" lon="6.74704">
        <ele>367</ele>
        <time>2016-01-03T09:14:53.000Z</time>
      </trkpt>
      <trkpt lat="47.52366" lon="6.74707">
        <ele>367</ele>
        <time>2016-01-03T09:14:54.000Z</time>
      </trkpt>
      <trkpt lat="47.52369" lon="6.74708">
        <ele>367</ele>
        <time>2016-01-03T09:14:55.000Z</time>
      </trkpt>
      <trkpt lat="47.52372" lon="6.7471">
        <ele>367</ele>
        <time>2016-01-03T09:14:56.000Z</time>
      </trkpt>
      <trkpt lat="47.52375" lon="6.74711">
        <ele>367</ele>
        <time>2016-01-03T09:14:57.000Z</time>
      </trkpt>
      <trkpt lat="47.52378" lon="6.74712">
        <ele>367</ele>
        <time>2016-01-03T09:14:58.000Z</time>
      </trkpt>
      <trkpt lat="47.5238" lon="6.74714">
        <ele>367</ele>
        <time>2016-01-03T09:14:59.000Z</time>
      </trkpt>
      <trkpt lat="47.52383" lon="6.74716">
        <ele>368</ele>
        <time>2016-01-03T09:15:00.000Z</time>
      </trkpt>
      <trkpt lat="47.52386" lon="6.74718">
        <ele>368</ele>
        <time>2016-01-03T09:15:01.000Z</time>
      </trkpt>
      <trkpt lat="47.52388" lon="6.7472">
        <ele>368</ele>
        <time>2016-01-03T09:15:02.000Z</time>
      </trkpt>
      <trkpt lat="47.52391" lon="6.74722">
        <ele>368</ele>
        <time>2016-01-03T09:15:03.000Z</time>
      </trkpt>
      <trkpt lat="47.52393" lon="6.74724">
        <ele>368</ele>
        <time>2016-01-03T09:15:04.000Z</time>
      </trkpt>
      <trkpt lat="47.52396" lon="6.74725">
        <ele>368</ele>
        <time>2016-01-03T09:15:05.000Z</time>
      </trkpt>
      <trkpt lat="47.52399" lon="6.74727">
        <ele>368</ele>
        <time>2016-01-03T09:15:06.000Z</time>
      </trkpt>
      <trkpt lat="47.52401" lon="6.74729">
        <ele>368</ele>
        <time>2016-01-03T09:15:07.000Z</time>
      </trkpt>
      <trkpt lat="47.52404" lon="6.74731">
        <ele>369</ele>
        <time>2016-01-03T09:15:08.000Z</time>
      </trkpt>
      <trkpt lat="47.52407" lon="6.74733">
        <ele>369</ele>
        <time>2016-01-03T09:15:09.000Z</time>
      </trkpt>
      <trkpt lat="47.5241" lon="6.74735">
        <ele>369</ele>
        <time>2016-01-03T09:15:10.000Z</time>
      </trkpt>
      <trkpt lat="47.52413" lon="6.74738">
        <ele>369</ele>
        <time>2016-01-03T09:15:11.000Z</time>
      </trkpt>
      <trkpt lat="47.52415" lon="6.7474">
        <ele>370</ele>
        <time>2016-01-03T09:15:12.000Z</time>
      </trkpt>
      <trkpt lat="47.52418" lon="6.74743">
        <ele>370</ele>
        <time>2016-01-03T09:15:13.000Z</time>
      </trkpt>
      <trkpt lat="47.52421" lon="6.74746">
        <ele>371</ele>
        <time>2016-01-03T09:15:14.000Z</time>
      </trkpt>
      <trkpt lat="47.52424" lon="6.74748">
        <ele>371</ele>
        <time>2016-01-03T09:15:15.000Z</time>
      </trkpt>
      <trkpt lat="47.52426" lon="6.7475">
        <ele>372</ele>
        <time>2016-01-03T09:15:16.000Z</time>
      </trkpt>
      <trkpt lat="47.52429" lon="6.74752">
        <ele>372</ele>
        <time>2016-01-03T09:15:17.000Z</time>
      </trkpt>
      <trkpt lat="47.52432" lon="6.74755">
        <ele>372</ele>
        <time>2016-01-03T09:15:18.000Z</time>
      </trkpt>
      <trkpt lat="47.52435" lon="6.74756">
        <ele>372</ele>
        <time>2016-01-03T09:15:19.000Z</time>
      </trkpt>
      <trkpt lat="47.52438" lon="6.74758">
        <ele>373</ele>
        <time>2016-01-03T09:15:20.000Z</time>
      </trkpt>
      <trkpt lat="47.52441" lon="6.74759">
        <ele>373</ele>
        <time>2016-01-03T09:15:21.000Z</time>
      </trkpt>
      <trkpt lat="47.52444" lon="6.7476">
        <ele>373</ele>
        <time>2016-01-03T09:15:22.000Z</time>
      </trkpt>
      <trkpt lat="47.52447" lon="6.74761">
        <ele>373</ele>
        <time>2016-01-03T09:15:23.000Z</time>
      </trkpt>
      <trkpt lat="47.5245" lon="6.74762">
        <ele>373</ele>
        <time>2016-01-03T09:15:24.000Z</time>
      </trkpt>
      <trkpt lat="47.52453" lon="6.74763">
        <ele>373</ele>
        <time>2016-01-03T09:15:25.000Z</time>
      </trkpt>
      <trkpt lat="47.52455" lon="6.74764">
        <ele>373</ele>
        <time>2016-01-03T09:15:26.000Z</time>
      </trkpt>
      <trkpt lat="47.52458" lon="6.74765">
        <ele>373</ele>
        <time>2016-01-03T09:15:27.000Z</time>
      </trkpt>
      <trkpt lat="47.52461" lon="6.74766">
        <ele>373</ele>
        <time>2016-01-03T09:15:28.000Z</time>
      </trkpt>
      <trkpt lat="47.52464" lon="6.74767">
        <ele>373</ele>
        <time>2016-01-03T09:15:29.000Z</time>
      </trkpt>
      <trkpt lat="47.52466" lon="6.74769">
        <ele>373</ele>
        <time>2016-01-03T09:15:30.000Z</time>
      </trkpt>
      <trkpt lat="47.52469" lon="6.7477">
        <ele>373</ele>
        <time>2016-01-03T09:15:31.000Z</time>
      </trkpt>
      <trkpt lat="47.52472" lon="6.74771">
        <ele>373</ele>
        <time>2016-01-03T09:15:32.000Z</time>
      </trkpt>
      <trkpt lat="47.52474" lon="6.74772">
        <ele>373</ele>
        <time>2016-01-03T09:15:33.000Z</time>
      </trkpt>
      <trkpt lat="47.52477" lon="6.74773">
        <ele>373</ele>
        <time>2016-01-03T09:15:34.000Z</time>
      </trkpt>
      <trkpt lat="47.5248" lon="6.74774">
        <ele>373</ele>
        <time>2016-01-03T09:15:35.000Z</time>
      </trkpt>
      <trkpt lat="47.52482" lon="6.74775">
        <ele>373</ele>
        <time>2016-01-03T09:15:36.000Z</time>
      </trkpt>
      <trkpt lat="47.52485" lon="6.74776">
        <ele>373</ele>
        <time>2016-01-03T09:15:37.000Z</time>
      </trkpt>
      <trkpt lat="47.52488" lon="6.74778">
        <ele>373</ele>
        <time>2016-01-03T09:15:38.000Z</time>
      </trkpt>
      <trkpt lat="47.5249" lon="6.74779">
        <ele>373</ele>
        <time>2016-01-03T09:15:39.000Z</time>
      </trkpt>
      <trkpt lat="47.52493" lon="6.7478">
        <ele>374</ele>
        <time>2016-01-03T09:15:40.000Z</time>
      </trkpt>
      <trkpt lat="47.52495" lon="6.74781">
        <ele>374</ele>
        <time>2016-01-03T09:15:41.000Z</time>
      </trkpt>
      <trkpt lat="47.52498" lon="6.74783">
        <ele>374</ele>
        <time>2016-01-03T09:15:42.000Z</time>
      </trkpt>
      <trkpt lat="47.52501" lon="6.74784">
        <ele>376</ele>
        <time>2016-01-03T09:15:43.000Z</time>
      </trkpt>
      <trkpt lat="47.52504" lon="6.74786">
        <ele>376</ele>
        <time>2016-01-03T09:15:44.000Z</time>
      </trkpt>
      <trkpt lat="47.52506" lon="6.74787">
        <ele>376</ele>
        <time>2016-01-03T09:15:45.000Z</time>
      </trkpt>
      <trkpt lat="47.52509" lon="6.74788">
        <ele>376</ele>
        <time>2016-01-03T09:15:46.000Z</time>
      </trkpt>
      <trkpt lat="47.52511" lon="6.74789">
        <ele>376</ele>
        <time>2016-01-03T09:15:47.000Z</time>
      </trkpt>
      <trkpt lat="47.52513" lon="6.7479">
        <ele>377</ele>
        <time>2016-01-03T09:15:48.000Z</time>
      </trkpt>
      <trkpt lat="47.52515" lon="6.74792">
        <ele>377</ele>
        <time>2016-01-03T09:15:49.000Z</time>
      </trkpt>
      <trkpt lat="47.52519" lon="6.74795">
        <ele>377</ele>
        <time>2016-01-03T09:15:51.000Z</time>
      </trkpt>
      <trkpt lat="47.5252" lon="6.74798">
        <ele>377</ele>
        <time>2016-01-03T09:15:52.000Z</time>
      </trkpt>
      <trkpt lat="47.52521" lon="6.74801">
        <ele>377</ele>
        <time>2016-01-03T09:15:53.000Z</time>
      </trkpt>
      <trkpt lat="47.52523" lon="6.74805">
        <ele>377</ele>
        <time>2016-01-03T09:15:54.000Z</time>
      </trkpt>
      <trkpt lat="47.52525" lon="6.7481">
        <ele>377</ele>
        <time>2016-01-03T09:15:55.000Z</time>
      </trkpt>
      <trkpt lat="47.52525" lon="6.74813">
        <ele>377</ele>
        <time>2016-01-03T09:15:56.000Z</time>
      </trkpt>
      <trkpt lat="47.52525" lon="6.74817">
        <ele>378</ele>
        <time>2016-01-03T09:15:57.000Z</time>
      </trkpt>
      <trkpt lat="47.52523" lon="6.7482">
        <ele>378</ele>
        <time>2016-01-03T09:15:58.000Z</time>
      </trkpt>
      <trkpt lat="47.52522" lon="6.74823">
        <ele>378</ele>
        <time>2016-01-03T09:15:59.000Z</time>
      </trkpt>
      <trkpt lat="47.52521" lon="6.74826">
        <ele>378</ele>
        <time>2016-01-03T09:16:00.000Z</time>
      </trkpt>
      <trkpt lat="47.5252" lon="6.74829">
        <ele>378</ele>
        <time>2016-01-03T09:16:01.000Z</time>
      </trkpt>
      <trkpt lat="47.5252" lon="6.74833">
        <ele>378</ele>
        <time>2016-01-03T09:16:02.000Z</time>
      </trkpt>
      <trkpt lat="47.52519" lon="6.74836">
        <ele>380</ele>
        <time>2016-01-03T09:16:03.000Z</time>
      </trkpt>
      <trkpt lat="47.52518" lon="6.74839">
        <ele>380</ele>
        <time>2016-01-03T09:16:04.000Z</time>
      </trkpt>
      <trkpt lat="47.52518" lon="6.74842">
        <ele>380</ele>
        <time>2016-01-03T09:16:04.999Z</time>
      </trkpt>
      <trkpt lat="47.52517" lon="6.74846">
        <ele>380</ele>
        <time>2016-01-03T09:16:06.000Z</time>
      </trkpt>
      <trkpt lat="47.52516" lon="6.74849">
        <ele>380</ele>
        <time>2016-01-03T09:16:07.000Z</time>
      </trkpt>
      <trkpt lat="47.52515" lon="6.74853">
        <ele>380</ele>
        <time>2016-01-03T09:16:08.000Z</time>
      </trkpt>
      <trkpt lat="47.52514" lon="6.74856">
        <ele>380</ele>
        <time>2016-01-03T09:16:09.000Z</time>
      </trkpt>
      <trkpt lat="47.52513" lon="6.7486">
        <ele>380</ele>
        <time>2016-01-03T09:16:10.000Z</time>
      </trkpt>
      <trkpt lat="47.52512" lon="6.74863">
        <ele>381</ele>
        <time>2016-01-03T09:16:11.000Z</time>
      </trkpt>
      <trkpt lat="47.52512" lon="6.74867">
        <ele>381</ele>
        <time>2016-01-03T09:16:12.000Z</time>
      </trkpt>
      <trkpt lat="47.52511" lon="6.74871">
        <ele>381</ele>
        <time>2016-01-03T09:16:13.000Z</time>
      </trkpt>
      <trkpt lat="47.5251" lon="6.74875">
        <ele>381</ele>
        <time>2016-01-03T09:16:14.000Z</time>
      </trkpt>
      <trkpt lat="47.5251" lon="6.74879">
        <ele>381</ele>
        <time>2016-01-03T09:16:15.000Z</time>
      </trkpt>
      <trkpt lat="47.52509" lon="6.74883">
        <ele>381</ele>
        <time>2016-01-03T09:16:16.000Z</time>
      </trkpt>
      <trkpt lat="47.52509" lon="6.74886">
        <ele>381</ele>
        <time>2016-01-03T09:16:17.000Z</time>
      </trkpt>
      <trkpt lat="47.52509" lon="6.7489">
        <ele>381</ele>
        <time>2016-01-03T09:16:18.000Z</time>
      </trkpt>
      <trkpt lat="47.52508" lon="6.74893">
        <ele>381</ele>
        <time>2016-01-03T09:16:19.000Z</time>
      </trkpt>
      <trkpt lat="47.52507" lon="6.74896">
        <ele>381</ele>
        <time>2016-01-03T09:16:20.000Z</time>
      </trkpt>
      <trkpt lat="47.52506" lon="6.749">
        <ele>381</ele>
        <time>2016-01-03T09:16:21.000Z</time>
      </trkpt>
      <trkpt lat="47.52506" lon="6.74903">
        <ele>381</ele>
        <time>2016-01-03T09:16:22.000Z</time>
      </trkpt>
      <trkpt lat="47.52505" lon="6.74906">
        <ele>381</ele>
        <time>2016-01-03T09:16:23.000Z</time>
      </trkpt>
      <trkpt lat="47.52505" lon="6.74909">
        <ele>381</ele>
        <time>2016-01-03T09:16:24.000Z</time>
      </trkpt>
      <trkpt lat="47.52504" lon="6.74913">
        <ele>381</ele>
        <time>2016-01-03T09:16:25.000Z</time>
      </trkpt>
      <trkpt lat="47.52504" lon="6.74916">
        <ele>381</ele>
        <time>2016-01-03T09:16:26.000Z</time>
      </trkpt>
      <trkpt lat="47.52504" lon="6.7492">
        <ele>382</ele>
        <time>2016-01-03T09:16:27.000Z</time>
      </trkpt>
      <trkpt lat="47.52504" lon="6.74923">
        <ele>382</ele>
        <time>2016-01-03T09:16:28.000Z</time>
      </trkpt>
      <trkpt lat="47.52504" lon="6.74927">
        <ele>382</ele>
        <time>2016-01-03T09:16:29.000Z</time>
      </trkpt>
      <trkpt lat="47.52504" lon="6.74931">
        <ele>383</ele>
        <time>2016-01-03T09:16:30.000Z</time>
      </trkpt>
      <trkpt lat="47.52503" lon="6.74934">
        <ele>383</ele>
        <time>2016-01-03T09:16:31.000Z</time>
      </trkpt>
      <trkpt lat="47.52503" lon="6.74938">
        <ele>383</ele>
        <time>2016-01-03T09:16:32.000Z</time>
      </trkpt>
      <trkpt lat="47.52503" lon="6.74941">
        <ele>383</ele>
        <time>2016-01-03T09:16:33.000Z</time>
      </trkpt>
      <trkpt lat="47.52503" lon="6.74945">
        <ele>384</ele>
        <time>2016-01-03T09:16:34.000Z</time>
      </trkpt>
      <trkpt lat="47.52503" lon="6.74949">
        <ele>384</ele>
        <time>2016-01-03T09:16:35.000Z</time>
      </trkpt>
      <trkpt lat="47.52503" lon="6.74952">
        <ele>384</ele>
        <time>2016-01-03T09:16:36.000Z</time>
      </trkpt>
      <trkpt lat="47.52503" lon="6.74956">
        <ele>384</ele>
        <time>2016-01-03T09:16:37.001Z</time>
      </trkpt>
      <trkpt lat="47.52504" lon="6.7496">
        <ele>384</ele>
        <time>2016-01-03T09:16:38.000Z</time>
      </trkpt>
      <trkpt lat="47.52505" lon="6.74963">
        <ele>384</ele>
        <time>2016-01-03T09:16:39.000Z</time>
      </trkpt>
      <trkpt lat="47.52505" lon="6.74967">
        <ele>384</ele>
        <time>2016-01-03T09:16:40.000Z</time>
      </trkpt>
      <trkpt lat="47.52506" lon="6.74973">
        <ele>384</ele>
        <time>2016-01-03T09:16:42.000Z</time>
      </trkpt>
      <trkpt lat="47.52507" lon="6.74975">
        <ele>384</ele>
        <time>2016-01-03T09:16:43.000Z</time>
      </trkpt>
      <trkpt lat="47.52509" lon="6.74979">
        <ele>384</ele>
        <time>2016-01-03T09:16:46.000Z</time>
      </trkpt>
      <trkpt lat="47.5251" lon="6.74981">
        <ele>384</ele>
        <time>2016-01-03T09:16:47.000Z</time>
      </trkpt>
      <trkpt lat="47.52513" lon="6.74983">
        <ele>384</ele>
        <time>2016-01-03T09:16:49.000Z</time>
      </trkpt>
      <trkpt lat="47.52515" lon="6.74983">
        <ele>385</ele>
        <time>2016-01-03T09:16:50.000Z</time>
      </trkpt>
      <trkpt lat="47.52518" lon="6.74984">
        <ele>385</ele>
        <time>2016-01-03T09:16:52.000Z</time>
      </trkpt>
      <trkpt lat="47.5252" lon="6.74985">
        <ele>385</ele>
        <time>2016-01-03T09:16:53.000Z</time>
      </trkpt>
      <trkpt lat="47.52524" lon="6.74985">
        <ele>385</ele>
        <time>2016-01-03T09:16:55.000Z</time>
      </trkpt>
      <trkpt lat="47.52526" lon="6.74985">
        <ele>385</ele>
        <time>2016-01-03T09:16:56.000Z</time>
      </trkpt>
      <trkpt lat="47.52529" lon="6.74986">
        <ele>385</ele>
        <time>2016-01-03T09:16:58.000Z</time>
      </trkpt>
      <trkpt lat="47.52531" lon="6.74987">
        <ele>385</ele>
        <time>2016-01-03T09:16:59.000Z</time>
      </trkpt>
      <trkpt lat="47.52535" lon="6.74987">
        <ele>385</ele>
        <time>2016-01-03T09:17:00.999Z</time>
      </trkpt>
      <trkpt lat="47.52537" lon="6.74988">
        <ele>385</ele>
        <time>2016-01-03T09:17:02.000Z</time>
      </trkpt>
      <trkpt lat="47.5254" lon="6.74988">
        <ele>385</ele>
        <time>2016-01-03T09:17:04.000Z</time>
      </trkpt>
      <trkpt lat="47.52542" lon="6.74988">
        <ele>385</ele>
        <time>2016-01-03T09:17:05.000Z</time>
      </trkpt>
      <trkpt lat="47.52546" lon="6.74988">
        <ele>385</ele>
        <time>2016-01-03T09:17:07.000Z</time>
      </trkpt>
      <trkpt lat="47.52548" lon="6.74988">
        <ele>386</ele>
        <time>2016-01-03T09:17:08.000Z</time>
      </trkpt>
      <trkpt lat="47.52551" lon="6.74988">
        <ele>386</ele>
        <time>2016-01-03T09:17:10.000Z</time>
      </trkpt>
      <trkpt lat="47.52553" lon="6.74988">
        <ele>386</ele>
        <time>2016-01-03T09:17:11.000Z</time>
      </trkpt>
      <trkpt lat="47.52557" lon="6.74989">
        <ele>386</ele>
        <time>2016-01-03T09:17:13.000Z</time>
      </trkpt>
      <trkpt lat="47.52559" lon="6.7499">
        <ele>386</ele>
        <time>2016-01-03T09:17:14.000Z</time>
      </trkpt>
      <trkpt lat="47.52562" lon="6.74992">
        <ele>386</ele>
        <time>2016-01-03T09:17:16.000Z</time>
      </trkpt>
      <trkpt lat="47.52564" lon="6.74993">
        <ele>386</ele>
        <time>2016-01-03T09:17:17.000Z</time>
      </trkpt>
      <trkpt lat="47.52567" lon="6.74994">
        <ele>386</ele>
        <time>2016-01-03T09:17:19.000Z</time>
      </trkpt>
      <trkpt lat="47.52568" lon="6.74995">
        <ele>387</ele>
        <time>2016-01-03T09:17:20.000Z</time>
      </trkpt>
      <trkpt lat="47.52571" lon="6.74997">
        <ele>387</ele>
        <time>2016-01-03T09:17:22.000Z</time>
      </trkpt>
      <trkpt lat="47.52573" lon="6.74998">
        <ele>387</ele>
        <time>2016-01-03T09:17:23.000Z</time>
      </trkpt>
      <trkpt lat="47.52576" lon="6.75">
        <ele>387</ele>
        <time>2016-01-03T09:17:24.999Z</time>
      </trkpt>
      <trkpt lat="47.52577" lon="6.75002">
        <ele>387</ele>
        <time>2016-01-03T09:17:26.000Z</time>
      </trkpt>
      <trkpt lat="47.52579" lon="6.75008">
        <ele>387</ele>
        <time>2016-01-03T09:17:28.000Z</time>
      </trkpt>
      <trkpt lat="47.52579" lon="6.75011">
        <ele>387</ele>
        <time>2016-01-03T09:17:29.000Z</time>
      </trkpt>
      <trkpt lat="47.52579" lon="6.75015">
        <ele>387</ele>
        <time>2016-01-03T09:17:30.000Z</time>
      </trkpt>
      <trkpt lat="47.52579" lon="6.75019">
        <ele>387</ele>
        <time>2016-01-03T09:17:31.000Z</time>
      </trkpt>
      <trkpt lat="47.52579" lon="6.75024">
        <ele>386</ele>
        <time>2016-01-03T09:17:32.000Z</time>
      </trkpt>
      <trkpt lat="47.52579" lon="6.75028">
        <ele>386</ele>
        <time>2016-01-03T09:17:33.000Z</time>
      </trkpt>
      <trkpt lat="47.52579" lon="6.75033">
        <ele>386</ele>
        <time>2016-01-03T09:17:34.000Z</time>
      </trkpt>
      <trkpt lat="47.5258" lon="6.75037">
        <ele>386</ele>
        <time>2016-01-03T09:17:35.000Z</time>
      </trkpt>
      <trkpt lat="47.5258" lon="6.75042">
        <ele>386</ele>
        <time>2016-01-03T09:17:36.000Z</time>
      </trkpt>
      <trkpt lat="47.5258" lon="6.75047">
        <ele>386</ele>
        <time>2016-01-03T09:17:37.000Z</time>
      </trkpt>
      <trkpt lat="47.52579" lon="6.75052">
        <ele>386</ele>
        <time>2016-01-03T09:17:38.000Z</time>
      </trkpt>
      <trkpt lat="47.52579" lon="6.75058">
        <ele>386</ele>
        <time>2016-01-03T09:17:39.000Z</time>
      </trkpt>
      <trkpt lat="47.52579" lon="6.75063">
        <ele>386</ele>
        <time>2016-01-03T09:17:40.001Z</time>
      </trkpt>
      <trkpt lat="47.52579" lon="6.75069">
        <ele>386</ele>
        <time>2016-01-03T09:17:41.000Z</time>
      </trkpt>
      <trkpt lat="47.52579" lon="6.75074">
        <ele>386</ele>
        <time>2016-01-03T09:17:42.000Z</time>
      </trkpt>
      <trkpt lat="47.5258" lon="6.75079">
        <ele>386</ele>
        <time>2016-01-03T09:17:43.000Z</time>
      </trkpt>
      <trkpt lat="47.5258" lon="6.75083">
        <ele>386</ele>
        <time>2016-01-03T09:17:44.000Z</time>
      </trkpt>
      <trkpt lat="47.52581" lon="6.75087">
        <ele>386</ele>
        <time>2016-01-03T09:17:45.000Z</time>
      </trkpt>
      <trkpt lat="47.52582" lon="6.75091">
        <ele>385</ele>
        <time>2016-01-03T09:17:46.000Z</time>
      </trkpt>
      <trkpt lat="47.52583" lon="6.75095">
        <ele>385</ele>
        <time>2016-01-03T09:17:47.000Z</time>
      </trkpt>
      <trkpt lat="47.52583" lon="6.75098">
        <ele>385</ele>
        <time>2016-01-03T09:17:48.000Z</time>
      </trkpt>
      <trkpt lat="47.52584" lon="6.75102">
        <ele>387</ele>
        <time>2016-01-03T09:17:49.000Z</time>
      </trkpt>
      <trkpt lat="47.52585" lon="6.75106">
        <ele>387</ele>
        <time>2016-01-03T09:17:50.000Z</time>
      </trkpt>
      <trkpt lat="47.52587" lon="6.75111">
        <ele>387</ele>
        <time>2016-01-03T09:17:51.000Z</time>
      </trkpt>
      <trkpt lat="47.52589" lon="6.75115">
        <ele>387</ele>
        <time>2016-01-03T09:17:52.000Z</time>
      </trkpt>
      <trkpt lat="47.52592" lon="6.75118">
        <ele>387</ele>
        <time>2016-01-03T09:17:53.000Z</time>
      </trkpt>
      <trkpt lat="47.52602" lon="6.75117">
        <ele>387</ele>
        <time>2016-01-03T09:17:54.000Z</time>
      </trkpt>
      <trkpt lat="47.52606" lon="6.7512">
        <ele>388</ele>
        <time>2016-01-03T09:17:55.000Z</time>
      </trkpt>
      <trkpt lat="47.5261" lon="6.75122">
        <ele>388</ele>
        <time>2016-01-03T09:17:56.000Z</time>
      </trkpt>
      <trkpt lat="47.52612" lon="6.75122">
        <ele>388</ele>
        <time>2016-01-03T09:17:57.000Z</time>
      </trkpt>
      <trkpt lat="47.52616" lon="6.75125">
        <ele>388</ele>
        <time>2016-01-03T09:17:58.000Z</time>
      </trkpt>
      <trkpt lat="47.5262" lon="6.75125">
        <ele>388</ele>
        <time>2016-01-03T09:18:01.000Z</time>
      </trkpt>
      <trkpt lat="47.52621" lon="6.75126">
        <ele>388</ele>
        <time>2016-01-03T09:18:02.000Z</time>
      </trkpt>
      <trkpt lat="47.52624" lon="6.75126">
        <ele>388</ele>
        <time>2016-01-03T09:18:03.000Z</time>
      </trkpt>
      <trkpt lat="47.52627" lon="6.75127">
        <ele>388</ele>
        <time>2016-01-03T09:18:04.000Z</time>
      </trkpt>
      <trkpt lat="47.52629" lon="6.75127">
        <ele>388</ele>
        <time>2016-01-03T09:18:05.000Z</time>
      </trkpt>
      <trkpt lat="47.52632" lon="6.75127">
        <ele>389</ele>
        <time>2016-01-03T09:18:06.000Z</time>
      </trkpt>
      <trkpt lat="47.52634" lon="6.75127">
        <ele>389</ele>
        <time>2016-01-03T09:18:07.000Z</time>
      </trkpt>
      <trkpt lat="47.52637" lon="6.75128">
        <ele>389</ele>
        <time>2016-01-03T09:18:08.000Z</time>
      </trkpt>
      <trkpt lat="47.5264" lon="6.7513">
        <ele>389</ele>
        <time>2016-01-03T09:18:09.000Z</time>
      </trkpt>
      <trkpt lat="47.52643" lon="6.75131">
        <ele>389</ele>
        <time>2016-01-03T09:18:10.000Z</time>
      </trkpt>
      <trkpt lat="47.52647" lon="6.75132">
        <ele>389</ele>
        <time>2016-01-03T09:18:11.000Z</time>
      </trkpt>
      <trkpt lat="47.5265" lon="6.75133">
        <ele>389</ele>
        <time>2016-01-03T09:18:12.000Z</time>
      </trkpt>
      <trkpt lat="47.52653" lon="6.75135">
        <ele>389</ele>
        <time>2016-01-03T09:18:13.000Z</time>
      </trkpt>
      <trkpt lat="47.52657" lon="6.75136">
        <ele>389</ele>
        <time>2016-01-03T09:18:14.000Z</time>
      </trkpt>
      <trkpt lat="47.5266" lon="6.75137">
        <ele>389</ele>
        <time>2016-01-03T09:18:15.000Z</time>
      </trkpt>
      <trkpt lat="47.52663" lon="6.75139">
        <ele>390</ele>
        <time>2016-01-03T09:18:16.000Z</time>
      </trkpt>
      <trkpt lat="47.52666" lon="6.7514">
        <ele>390</ele>
        <time>2016-01-03T09:18:17.000Z</time>
      </trkpt>
      <trkpt lat="47.52669" lon="6.75141">
        <ele>395</ele>
        <time>2016-01-03T09:18:18.000Z</time>
      </trkpt>
      <trkpt lat="47.52673" lon="6.75143">
        <ele>395</ele>
        <time>2016-01-03T09:18:20.000Z</time>
      </trkpt>
      <trkpt lat="47.52675" lon="6.75144">
        <ele>395</ele>
        <time>2016-01-03T09:18:21.000Z</time>
      </trkpt>
      <trkpt lat="47.52677" lon="6.75146">
        <ele>395</ele>
        <time>2016-01-03T09:18:22.000Z</time>
      </trkpt>
      <trkpt lat="47.5268" lon="6.75147">
        <ele>396</ele>
        <time>2016-01-03T09:18:23.000Z</time>
      </trkpt>
      <trkpt lat="47.52683" lon="6.75148">
        <ele>396</ele>
        <time>2016-01-03T09:18:24.000Z</time>
      </trkpt>
      <trkpt lat="47.52687" lon="6.75149">
        <ele>396</ele>
        <time>2016-01-03T09:18:25.000Z</time>
      </trkpt>
      <trkpt lat="47.52691" lon="6.75151">
        <ele>396</ele>
        <time>2016-01-03T09:18:26.000Z</time>
      </trkpt>
      <trkpt lat="47.52694" lon="6.75152">
        <ele>397</ele>
        <time>2016-01-03T09:18:27.000Z</time>
      </trkpt>
      <trkpt lat="47.52697" lon="6.75154">
        <ele>397</ele>
        <time>2016-01-03T09:18:28.000Z</time>
      </trkpt>
      <trkpt lat="47.52699" lon="6.75155">
        <ele>397</ele>
        <time>2016-01-03T09:18:29.000Z</time>
      </trkpt>
      <trkpt lat="47.52703" lon="6.75155">
        <ele>398</ele>
        <time>2016-01-03T09:18:31.000Z</time>
      </trkpt>
      <trkpt lat="47.52704" lon="6.75154">
        <ele>398</ele>
        <time>2016-01-03T09:18:32.000Z</time>
      </trkpt>
      <trkpt lat="47.52707" lon="6.75155">
        <ele>398</ele>
        <time>2016-01-03T09:18:33.000Z</time>
      </trkpt>
      <trkpt lat="47.5271" lon="6.75156">
        <ele>398</ele>
        <time>2016-01-03T09:18:34.000Z</time>
      </trkpt>
      <trkpt lat="47.52714" lon="6.75158">
        <ele>399</ele>
        <time>2016-01-03T09:18:35.000Z</time>
      </trkpt>
      <trkpt lat="47.52717" lon="6.75161">
        <ele>399</ele>
        <time>2016-01-03T09:18:36.000Z</time>
      </trkpt>
      <trkpt lat="47.52721" lon="6.75163">
        <ele>400</ele>
        <time>2016-01-03T09:18:37.000Z</time>
      </trkpt>
      <trkpt lat="47.52725" lon="6.75165">
        <ele>400</ele>
        <time>2016-01-03T09:18:38.000Z</time>
      </trkpt>
      <trkpt lat="47.5273" lon="6.75167">
        <ele>399</ele>
        <time>2016-01-03T09:18:39.000Z</time>
      </trkpt>
      <trkpt lat="47.52734" lon="6.75169">
        <ele>399</ele>
        <time>2016-01-03T09:18:40.000Z</time>
      </trkpt>
      <trkpt lat="47.52739" lon="6.7517">
        <ele>400</ele>
        <time>2016-01-03T09:18:41.000Z</time>
      </trkpt>
      <trkpt lat="47.52751" lon="6.75177">
        <ele>402</ele>
        <time>2016-01-03T09:18:42.000Z</time>
      </trkpt>
      <trkpt lat="47.52759" lon="6.7518">
        <ele>402</ele>
        <time>2016-01-03T09:18:43.000Z</time>
      </trkpt>
      <trkpt lat="47.52766" lon="6.75184">
        <ele>401</ele>
        <time>2016-01-03T09:18:44.000Z</time>
      </trkpt>
      <trkpt lat="47.52775" lon="6.75186">
        <ele>401</ele>
        <time>2016-01-03T09:18:45.000Z</time>
      </trkpt>
      <trkpt lat="47.52782" lon="6.75189">
        <ele>400</ele>
        <time>2016-01-03T09:18:46.000Z</time>
      </trkpt>
      <trkpt lat="47.52791" lon="6.75193">
        <ele>400</ele>
        <time>2016-01-03T09:18:47.000Z</time>
      </trkpt>
      <trkpt lat="47.52799" lon="6.75197">
        <ele>400</ele>
        <time>2016-01-03T09:18:48.000Z</time>
      </trkpt>
      <trkpt lat="47.52808" lon="6.752">
        <ele>400</ele>
        <time>2016-01-03T09:18:49.000Z</time>
      </trkpt>
      <trkpt lat="47.52815" lon="6.75202">
        <ele>400</ele>
        <time>2016-01-03T09:18:50.000Z</time>
      </trkpt>
      <trkpt lat="47.52824" lon="6.75206">
        <ele>399</ele>
        <time>2016-01-03T09:18:51.000Z</time>
      </trkpt>
      <trkpt lat="47.5283" lon="6.75207">
        <ele>399</ele>
        <time>2016-01-03T09:18:52.000Z</time>
      </trkpt>
      <trkpt lat="47.52836" lon="6.75208">
        <ele>400</ele>
        <time>2016-01-03T09:18:53.000Z</time>
      </trkpt>
      <trkpt lat="47.52844" lon="6.75211">
        <ele>400</ele>
        <time>2016-01-03T09:18:54.000Z</time>
      </trkpt>
      <trkpt lat="47.5285" lon="6.75216">
        <ele>400</ele>
        <time>2016-01-03T09:18:55.000Z</time>
      </trkpt>
      <trkpt lat="47.52857" lon="6.7522">
        <ele>400</ele>
        <time>2016-01-03T09:18:56.000Z</time>
      </trkpt>
      <trkpt lat="47.52865" lon="6.75224">
        <ele>400</ele>
        <time>2016-01-03T09:18:57.000Z</time>
      </trkpt>
      <trkpt lat="47.52873" lon="6.75228">
        <ele>400</ele>
        <time>2016-01-03T09:18:58.000Z</time>
      </trkpt>
      <trkpt lat="47.52881" lon="6.75232">
        <ele>400</ele>
        <time>2016-01-03T09:18:59.000Z</time>
      </trkpt>
      <trkpt lat="47.52887" lon="6.75236">
        <ele>400</ele>
        <time>2016-01-03T09:19:00.000Z</time>
      </trkpt>
      <trkpt lat="47.52895" lon="6.75239">
        <ele>400</ele>
        <time>2016-01-03T09:19:01.000Z</time>
      </trkpt>
      <trkpt lat="47.52904" lon="6.75245">
        <ele>400</ele>
        <time>2016-01-03T09:19:02.000Z</time>
      </trkpt>
      <trkpt lat="47.52909" lon="6.75245">
        <ele>400</ele>
        <time>2016-01-03T09:19:03.000Z</time>
      </trkpt>
      <trkpt lat="47.52916" lon="6.75247">
        <ele>399</ele>
        <time>2016-01-03T09:19:04.000Z</time>
      </trkpt>
      <trkpt lat="47.52923" lon="6.7525">
        <ele>397</ele>
        <time>2016-01-03T09:19:05.000Z</time>
      </trkpt>
      <trkpt lat="47.5293" lon="6.75253">
        <ele>396</ele>
        <time>2016-01-03T09:19:06.000Z</time>
      </trkpt>
      <trkpt lat="47.52941" lon="6.75257">
        <ele>394</ele>
        <time>2016-01-03T09:19:07.000Z</time>
      </trkpt>
      <trkpt lat="47.52951" lon="6.7526">
        <ele>393</ele>
        <time>2016-01-03T09:19:08.000Z</time>
      </trkpt>
      <trkpt lat="47.52959" lon="6.75263">
        <ele>392</ele>
        <time>2016-01-03T09:19:09.000Z</time>
      </trkpt>
      <trkpt lat="47.52967" lon="6.75263">
        <ele>392</ele>
        <time>2016-01-03T09:19:10.000Z</time>
      </trkpt>
      <trkpt lat="47.52974" lon="6.75267">
        <ele>392</ele>
        <time>2016-01-03T09:19:11.000Z</time>
      </trkpt>
      <trkpt lat="47.52979" lon="6.75271">
        <ele>391</ele>
        <time>2016-01-03T09:19:12.000Z</time>
      </trkpt>
      <trkpt lat="47.52986" lon="6.75275">
        <ele>391</ele>
        <time>2016-01-03T09:19:13.000Z</time>
      </trkpt>
      <trkpt lat="47.52991" lon="6.75279">
        <ele>391</ele>
        <time>2016-01-03T09:19:14.000Z</time>
      </trkpt>
      <trkpt lat="47.52995" lon="6.7528">
        <ele>391</ele>
        <time>2016-01-03T09:19:15.000Z</time>
      </trkpt>
      <trkpt lat="47.52999" lon="6.75282">
        <ele>391</ele>
        <time>2016-01-03T09:19:16.000Z</time>
      </trkpt>
      <trkpt lat="47.53005" lon="6.75285">
        <ele>389</ele>
        <time>2016-01-03T09:19:17.000Z</time>
      </trkpt>
      <trkpt lat="47.53009" lon="6.75288">
        <ele>389</ele>
        <time>2016-01-03T09:19:18.000Z</time>
      </trkpt>
      <trkpt lat="47.53015" lon="6.75293">
        <ele>388</ele>
        <time>2016-01-03T09:19:19.000Z</time>
      </trkpt>
      <trkpt lat="47.5302" lon="6.75295">
        <ele>388</ele>
        <time>2016-01-03T09:19:20.000Z</time>
      </trkpt>
      <trkpt lat="47.53024" lon="6.75298">
        <ele>388</ele>
        <time>2016-01-03T09:19:21.000Z</time>
      </trkpt>
      <trkpt lat="47.53029" lon="6.75298">
        <ele>388</ele>
        <time>2016-01-03T09:19:22.000Z</time>
      </trkpt>
      <trkpt lat="47.53032" lon="6.753">
        <ele>388</ele>
        <time>2016-01-03T09:19:23.000Z</time>
      </trkpt>
      <trkpt lat="47.53037" lon="6.75301">
        <ele>388</ele>
        <time>2016-01-03T09:19:24.000Z</time>
      </trkpt>
      <trkpt lat="47.53039" lon="6.75303">
        <ele>388</ele>
        <time>2016-01-03T09:19:31.000Z</time>
      </trkpt>
      <trkpt lat="47.53041" lon="6.75305">
        <ele>388</ele>
        <time>2016-01-03T09:19:32.000Z</time>
      </trkpt>
      <trkpt lat="47.53043" lon="6.7531">
        <ele>388</ele>
        <time>2016-01-03T09:19:54.000Z</time>
      </trkpt>
      <trkpt lat="47.53044" lon="6.75313">
        <ele>388</ele>
        <time>2016-01-03T09:19:55.000Z</time>
      </trkpt>
      <trkpt lat="47.53044" lon="6.75315">
        <ele>388</ele>
        <time>2016-01-03T09:19:56.000Z</time>
      </trkpt>
      <trkpt lat="47.53044" lon="6.7532">
        <ele>388</ele>
        <time>2016-01-03T09:19:57.000Z</time>
      </trkpt>
      <trkpt lat="47.5304" lon="6.75323">
        <ele>388</ele>
        <time>2016-01-03T09:20:02.000Z</time>
      </trkpt>
      <trkpt lat="47.5304" lon="6.75323">
        <ele>388</ele>
        <time>2016-01-03T09:20:03.000Z</time>
      </trkpt>
      <trkpt lat="47.53042" lon="6.75329">
        <ele>388</ele>
        <time>2016-01-03T09:20:12.000Z</time>
      </trkpt>
      <trkpt lat="47.53042" lon="6.75329">
        <ele>388</ele>
        <time>2016-01-03T09:20:13.000Z</time>
      </trkpt>
      <trkpt lat="47.53041" lon="6.75334">
        <ele>385</ele>
        <time>2016-01-03T09:21:42.000Z</time>
      </trkpt>
      <trkpt lat="47.5304" lon="6.75337">
        <ele>385</ele>
        <time>2016-01-03T09:21:43.000Z</time>
      </trkpt>
      <trkpt lat="47.53039" lon="6.75342">
        <ele>385</ele>
        <time>2016-01-03T09:21:48.000Z</time>
      </trkpt>
      <trkpt lat="47.53039" lon="6.75344">
        <ele>385</ele>
        <time>2016-01-03T09:21:49.000Z</time>
      </trkpt>
      <trkpt lat="47.53041" lon="6.75349">
        <ele>385</ele>
        <time>2016-01-03T09:21:53.000Z</time>
      </trkpt>
      <trkpt lat="47.53041" lon="6.7535">
        <ele>385</ele>
        <time>2016-01-03T09:21:54.000Z</time>
      </trkpt>
      <trkpt lat="47.53042" lon="6.75356">
        <ele>385</ele>
        <time>2016-01-03T09:22:14.000Z</time>
      </trkpt>
      <trkpt lat="47.53043" lon="6.75356">
        <ele>385</ele>
        <time>2016-01-03T09:22:15.000Z</time>
      </trkpt>
      <trkpt lat="47.53042" lon="6.75362">
        <ele>384</ele>
        <time>2016-01-03T09:22:54.000Z</time>
      </trkpt>
      <trkpt lat="47.53041" lon="6.75363">
        <ele>384</ele>
        <time>2016-01-03T09:22:55.000Z</time>
      </trkpt>
      <trkpt lat="47.53038" lon="6.75363">
        <ele>384</ele>
        <time>2016-01-03T09:22:57.000Z</time>
      </trkpt>
      <trkpt lat="47.53036" lon="6.75364">
        <ele>384</ele>
        <time>2016-01-03T09:22:58.000Z</time>
      </trkpt>
      <trkpt lat="47.53033" lon="6.75364">
        <ele>384</ele>
        <time>2016-01-03T09:22:59.000Z</time>
      </trkpt>
      <trkpt lat="47.53029" lon="6.75364">
        <ele>384</ele>
        <time>2016-01-03T09:23:00.000Z</time>
      </trkpt>
      <trkpt lat="47.53026" lon="6.75365">
        <ele>384</ele>
        <time>2016-01-03T09:23:01.000Z</time>
      </trkpt>
      <trkpt lat="47.53023" lon="6.75366">
        <ele>384</ele>
        <time>2016-01-03T09:23:02.000Z</time>
      </trkpt>
      <trkpt lat="47.5302" lon="6.75368">
        <ele>384</ele>
        <time>2016-01-03T09:23:03.000Z</time>
      </trkpt>
      <trkpt lat="47.53017" lon="6.75371">
        <ele>383</ele>
        <time>2016-01-03T09:23:04.000Z</time>
      </trkpt>
      <trkpt lat="47.53014" lon="6.75374">
        <ele>383</ele>
        <time>2016-01-03T09:23:05.000Z</time>
      </trkpt>
      <trkpt lat="47.53012" lon="6.75376">
        <ele>383</ele>
        <time>2016-01-03T09:23:06.000Z</time>
      </trkpt>
      <trkpt lat="47.5301" lon="6.75379">
        <ele>383</ele>
        <time>2016-01-03T09:23:07.000Z</time>
      </trkpt>
      <trkpt lat="47.53009" lon="6.75381">
        <ele>383</ele>
        <time>2016-01-03T09:23:08.000Z</time>
      </trkpt>
      <trkpt lat="47.53007" lon="6.75384">
        <ele>383</ele>
        <time>2016-01-03T09:23:09.000Z</time>
      </trkpt>
      <trkpt lat="47.53006" lon="6.75387">
        <ele>383</ele>
        <time>2016-01-03T09:23:10.000Z</time>
      </trkpt>
      <trkpt lat="47.53005" lon="6.75391">
        <ele>382</ele>
        <time>2016-01-03T09:23:11.000Z</time>
      </trkpt>
      <trkpt lat="47.53005" lon="6.75395">
        <ele>382</ele>
        <time>2016-01-03T09:23:12.000Z</time>
      </trkpt>
      <trkpt lat="47.53004" lon="6.75399">
        <ele>382</ele>
        <time>2016-01-03T09:23:13.000Z</time>
      </trkpt>
      <trkpt lat="47.53004" lon="6.75404">
        <ele>381</ele>
        <time>2016-01-03T09:23:14.000Z</time>
      </trkpt>
      <trkpt lat="47.53003" lon="6.75409">
        <ele>380</ele>
        <time>2016-01-03T09:23:15.000Z</time>
      </trkpt>
      <trkpt lat="47.53002" lon="6.75415">
        <ele>380</ele>
        <time>2016-01-03T09:23:16.000Z</time>
      </trkpt>
      <trkpt lat="47.53001" lon="6.75421">
        <ele>379</ele>
        <time>2016-01-03T09:23:17.000Z</time>
      </trkpt>
      <trkpt lat="47.53001" lon="6.75431">
        <ele>380</ele>
        <time>2016-01-03T09:23:18.000Z</time>
      </trkpt>
      <trkpt lat="47.52999" lon="6.75437">
        <ele>379</ele>
        <time>2016-01-03T09:23:19.000Z</time>
      </trkpt>
      <trkpt lat="47.52999" lon="6.75441">
        <ele>379</ele>
        <time>2016-01-03T09:23:20.000Z</time>
      </trkpt>
      <trkpt lat="47.52998" lon="6.75448">
        <ele>378</ele>
        <time>2016-01-03T09:23:21.000Z</time>
      </trkpt>
      <trkpt lat="47.52998" lon="6.75455">
        <ele>378</ele>
        <time>2016-01-03T09:23:22.000Z</time>
      </trkpt>
      <trkpt lat="47.52996" lon="6.7546">
        <ele>378</ele>
        <time>2016-01-03T09:23:23.000Z</time>
      </trkpt>
      <trkpt lat="47.52995" lon="6.75466">
        <ele>378</ele>
        <time>2016-01-03T09:23:24.000Z</time>
      </trkpt>
      <trkpt lat="47.52994" lon="6.7547">
        <ele>378</ele>
        <time>2016-01-03T09:23:25.000Z</time>
      </trkpt>
      <trkpt lat="47.52994" lon="6.75475">
        <ele>378</ele>
        <time>2016-01-03T09:23:26.000Z</time>
      </trkpt>
      <trkpt lat="47.52996" lon="6.75479">
        <ele>377</ele>
        <time>2016-01-03T09:23:27.000Z</time>
      </trkpt>
      <trkpt lat="47.52996" lon="6.75484">
        <ele>377</ele>
        <time>2016-01-03T09:23:28.000Z</time>
      </trkpt>
      <trkpt lat="47.52995" lon="6.75489">
        <ele>377</ele>
        <time>2016-01-03T09:23:29.000Z</time>
      </trkpt>
      <trkpt lat="47.52995" lon="6.75495">
        <ele>377</ele>
        <time>2016-01-03T09:23:30.000Z</time>
      </trkpt>
      <trkpt lat="47.52995" lon="6.75501">
        <ele>376</ele>
        <time>2016-01-03T09:23:31.000Z</time>
      </trkpt>
      <trkpt lat="47.52995" lon="6.75507">
        <ele>376</ele>
        <time>2016-01-03T09:23:32.000Z</time>
      </trkpt>
      <trkpt lat="47.52994" lon="6.75514">
        <ele>375</ele>
        <time>2016-01-03T09:23:33.000Z</time>
      </trkpt>
      <trkpt lat="47.52994" lon="6.75521">
        <ele>375</ele>
        <time>2016-01-03T09:23:34.000Z</time>
      </trkpt>
      <trkpt lat="47.52994" lon="6.75528">
        <ele>375</ele>
        <time>2016-01-03T09:23:35.000Z</time>
      </trkpt>
      <trkpt lat="47.52994" lon="6.75534">
        <ele>374</ele>
        <time>2016-01-03T09:23:36.000Z</time>
      </trkpt>
      <trkpt lat="47.52994" lon="6.75541">
        <ele>374</ele>
        <time>2016-01-03T09:23:37.000Z</time>
      </trkpt>
      <trkpt lat="47.52994" lon="6.75547">
        <ele>374</ele>
        <time>2016-01-03T09:23:38.000Z</time>
      </trkpt>
      <trkpt lat="47.52994" lon="6.75552">
        <ele>374</ele>
        <time>2016-01-03T09:23:39.000Z</time>
      </trkpt>
      <trkpt lat="47.52994" lon="6.75558">
        <ele>373</ele>
        <time>2016-01-03T09:23:40.000Z</time>
      </trkpt>
      <trkpt lat="47.52994" lon="6.75563">
        <ele>373</ele>
        <time>2016-01-03T09:23:41.000Z</time>
      </trkpt>
      <trkpt lat="47.52995" lon="6.75568">
        <ele>372</ele>
        <time>2016-01-03T09:23:42.000Z</time>
      </trkpt>
      <trkpt lat="47.52995" lon="6.75573">
        <ele>372</ele>
        <time>2016-01-03T09:23:43.000Z</time>
      </trkpt>
      <trkpt lat="47.52996" lon="6.75579">
        <ele>371</ele>
        <time>2016-01-03T09:23:44.000Z</time>
      </trkpt>
      <trkpt lat="47.52997" lon="6.75586">
        <ele>370</ele>
        <time>2016-01-03T09:23:45.000Z</time>
      </trkpt>
      <trkpt lat="47.52997" lon="6.75592">
        <ele>370</ele>
        <time>2016-01-03T09:23:46.000Z</time>
      </trkpt>
      <trkpt lat="47.52996" lon="6.75598">
        <ele>369</ele>
        <time>2016-01-03T09:23:47.000Z</time>
      </trkpt>
      <trkpt lat="47.52993" lon="6.75604">
        <ele>369</ele>
        <time>2016-01-03T09:23:48.000Z</time>
      </trkpt>
      <trkpt lat="47.52982" lon="6.7561">
        <ele>369</ele>
        <time>2016-01-03T09:23:49.000Z</time>
      </trkpt>
      <trkpt lat="47.52978" lon="6.75615">
        <ele>369</ele>
        <time>2016-01-03T09:23:50.000Z</time>
      </trkpt>
      <trkpt lat="47.52974" lon="6.7562">
        <ele>369</ele>
        <time>2016-01-03T09:23:51.000Z</time>
      </trkpt>
      <trkpt lat="47.5297" lon="6.75625">
        <ele>368</ele>
        <time>2016-01-03T09:23:52.000Z</time>
      </trkpt>
      <trkpt lat="47.52966" lon="6.7563">
        <ele>368</ele>
        <time>2016-01-03T09:23:53.000Z</time>
      </trkpt>
      <trkpt lat="47.52962" lon="6.75635">
        <ele>368</ele>
        <time>2016-01-03T09:23:54.000Z</time>
      </trkpt>
      <trkpt lat="47.52957" lon="6.7564">
        <ele>368</ele>
        <time>2016-01-03T09:23:55.000Z</time>
      </trkpt>
      <trkpt lat="47.52953" lon="6.75645">
        <ele>368</ele>
        <time>2016-01-03T09:23:56.000Z</time>
      </trkpt>
      <trkpt lat="47.52947" lon="6.75651">
        <ele>367</ele>
        <time>2016-01-03T09:23:57.000Z</time>
      </trkpt>
      <trkpt lat="47.52941" lon="6.75655">
        <ele>367</ele>
        <time>2016-01-03T09:23:58.000Z</time>
      </trkpt>
      <trkpt lat="47.52934" lon="6.7566">
        <ele>366</ele>
        <time>2016-01-03T09:23:59.000Z</time>
      </trkpt>
      <trkpt lat="47.52927" lon="6.75663">
        <ele>366</ele>
        <time>2016-01-03T09:24:00.000Z</time>
      </trkpt>
      <trkpt lat="47.52919" lon="6.75666">
        <ele>364</ele>
        <time>2016-01-03T09:24:01.000Z</time>
      </trkpt>
      <trkpt lat="47.52911" lon="6.75669">
        <ele>364</ele>
        <time>2016-01-03T09:24:02.000Z</time>
      </trkpt>
      <trkpt lat="47.52903" lon="6.7567">
        <ele>363</ele>
        <time>2016-01-03T09:24:03.000Z</time>
      </trkpt>
      <trkpt lat="47.52895" lon="6.75672">
        <ele>363</ele>
        <time>2016-01-03T09:24:04.000Z</time>
      </trkpt>
      <trkpt lat="47.52888" lon="6.75674">
        <ele>363</ele>
        <time>2016-01-03T09:24:05.000Z</time>
      </trkpt>
      <trkpt lat="47.5288" lon="6.75676">
        <ele>363</ele>
        <time>2016-01-03T09:24:06.000Z</time>
      </trkpt>
      <trkpt lat="47.52872" lon="6.75677">
        <ele>363</ele>
        <time>2016-01-03T09:24:07.000Z</time>
      </trkpt>
      <trkpt lat="47.52865" lon="6.75679">
        <ele>363</ele>
        <time>2016-01-03T09:24:08.000Z</time>
      </trkpt>
      <trkpt lat="47.52858" lon="6.7568">
        <ele>363</ele>
        <time>2016-01-03T09:24:09.000Z</time>
      </trkpt>
      <trkpt lat="47.52851" lon="6.75682">
        <ele>363</ele>
        <time>2016-01-03T09:24:10.000Z</time>
      </trkpt>
      <trkpt lat="47.52844" lon="6.75683">
        <ele>363</ele>
        <time>2016-01-03T09:24:11.000Z</time>
      </trkpt>
      <trkpt lat="47.52837" lon="6.75685">
        <ele>363</ele>
        <time>2016-01-03T09:24:12.000Z</time>
      </trkpt>
      <trkpt lat="47.52832" lon="6.75686">
        <ele>362</ele>
        <time>2016-01-03T09:24:13.000Z</time>
      </trkpt>
      <trkpt lat="47.52828" lon="6.75687">
        <ele>362</ele>
        <time>2016-01-03T09:24:14.000Z</time>
      </trkpt>
      <trkpt lat="47.52825" lon="6.75688">
        <ele>361</ele>
        <time>2016-01-03T09:24:15.000Z</time>
      </trkpt>
      <trkpt lat="47.52821" lon="6.75688">
        <ele>361</ele>
        <time>2016-01-03T09:24:16.000Z</time>
      </trkpt>
      <trkpt lat="47.52817" lon="6.7569">
        <ele>361</ele>
        <time>2016-01-03T09:24:17.000Z</time>
      </trkpt>
      <trkpt lat="47.52814" lon="6.75691">
        <ele>361</ele>
        <time>2016-01-03T09:24:18.000Z</time>
      </trkpt>
      <trkpt lat="47.5281" lon="6.75692">
        <ele>361</ele>
        <time>2016-01-03T09:24:19.000Z</time>
      </trkpt>
      <trkpt lat="47.52806" lon="6.75693">
        <ele>361</ele>
        <time>2016-01-03T09:24:20.000Z</time>
      </trkpt>
      <trkpt lat="47.52803" lon="6.75694">
        <ele>361</ele>
        <time>2016-01-03T09:24:21.000Z</time>
      </trkpt>
      <trkpt lat="47.528" lon="6.75696">
        <ele>360</ele>
        <time>2016-01-03T09:24:22.000Z</time>
      </trkpt>
      <trkpt lat="47.52796" lon="6.75698">
        <ele>360</ele>
        <time>2016-01-03T09:24:23.000Z</time>
      </trkpt>
      <trkpt lat="47.52793" lon="6.75699">
        <ele>360</ele>
        <time>2016-01-03T09:24:24.000Z</time>
      </trkpt>
      <trkpt lat="47.52789" lon="6.75701">
        <ele>360</ele>
        <time>2016-01-03T09:24:25.000Z</time>
      </trkpt>
      <trkpt lat="47.52786" lon="6.75703">
        <ele>360</ele>
        <time>2016-01-03T09:24:26.000Z</time>
      </trkpt>
      <trkpt lat="47.52782" lon="6.75706">
        <ele>360</ele>
        <time>2016-01-03T09:24:27.000Z</time>
      </trkpt>
      <trkpt lat="47.52777" lon="6.75708">
        <ele>360</ele>
        <time>2016-01-03T09:24:28.000Z</time>
      </trkpt>
      <trkpt lat="47.52773" lon="6.75711">
        <ele>359</ele>
        <time>2016-01-03T09:24:29.000Z</time>
      </trkpt>
      <trkpt lat="47.52768" lon="6.75716">
        <ele>359</ele>
        <time>2016-01-03T09:24:30.000Z</time>
      </trkpt>
      <trkpt lat="47.52764" lon="6.75719">
        <ele>359</ele>
        <time>2016-01-03T09:24:31.000Z</time>
      </trkpt>
      <trkpt lat="47.52759" lon="6.75723">
        <ele>358</ele>
        <time>2016-01-03T09:24:32.000Z</time>
      </trkpt>
      <trkpt lat="47.52756" lon="6.75728">
        <ele>358</ele>
        <time>2016-01-03T09:24:33.000Z</time>
      </trkpt>
      <trkpt lat="47.52754" lon="6.75735">
        <ele>357</ele>
        <time>2016-01-03T09:24:34.000Z</time>
      </trkpt>
      <trkpt lat="47.52755" lon="6.75742">
        <ele>357</ele>
        <time>2016-01-03T09:24:35.000Z</time>
      </trkpt>
      <trkpt lat="47.52757" lon="6.75747">
        <ele>356</ele>
        <time>2016-01-03T09:24:36.000Z</time>
      </trkpt>
      <trkpt lat="47.52758" lon="6.75752">
        <ele>356</ele>
        <time>2016-01-03T09:24:37.000Z</time>
      </trkpt>
      <trkpt lat="47.52759" lon="6.75755">
        <ele>356</ele>
        <time>2016-01-03T09:24:38.000Z</time>
      </trkpt>
      <trkpt lat="47.5276" lon="6.75759">
        <ele>356</ele>
        <time>2016-01-03T09:24:39.000Z</time>
      </trkpt>
      <trkpt lat="47.52761" lon="6.75762">
        <ele>356</ele>
        <time>2016-01-03T09:24:40.000Z</time>
      </trkpt>
      <trkpt lat="47.52763" lon="6.75764">
        <ele>356</ele>
        <time>2016-01-03T09:24:41.000Z</time>
      </trkpt>
      <trkpt lat="47.52765" lon="6.75769">
        <ele>356</ele>
        <time>2016-01-03T09:24:43.000Z</time>
      </trkpt>
      <trkpt lat="47.52766" lon="6.75771">
        <ele>357</ele>
        <time>2016-01-03T09:24:44.000Z</time>
      </trkpt>
      <trkpt lat="47.52767" lon="6.75776">
        <ele>357</ele>
        <time>2016-01-03T09:24:46.000Z</time>
      </trkpt>
      <trkpt lat="47.52768" lon="6.75779">
        <ele>357</ele>
        <time>2016-01-03T09:24:47.000Z</time>
      </trkpt>
      <trkpt lat="47.52769" lon="6.75784">
        <ele>357</ele>
        <time>2016-01-03T09:24:49.000Z</time>
      </trkpt>
      <trkpt lat="47.5277" lon="6.75787">
        <ele>357</ele>
        <time>2016-01-03T09:24:50.000Z</time>
      </trkpt>
      <trkpt lat="47.52771" lon="6.75792">
        <ele>357</ele>
        <time>2016-01-03T09:24:52.000Z</time>
      </trkpt>
      <trkpt lat="47.52772" lon="6.75794">
        <ele>357</ele>
        <time>2016-01-03T09:24:53.000Z</time>
      </trkpt>
      <trkpt lat="47.52774" lon="6.75799">
        <ele>357</ele>
        <time>2016-01-03T09:24:55.000Z</time>
      </trkpt>
      <trkpt lat="47.52775" lon="6.75801">
        <ele>357</ele>
        <time>2016-01-03T09:24:56.000Z</time>
      </trkpt>
      <trkpt lat="47.52777" lon="6.75807">
        <ele>357</ele>
        <time>2016-01-03T09:24:59.000Z</time>
      </trkpt>
      <trkpt lat="47.52777" lon="6.75809">
        <ele>357</ele>
        <time>2016-01-03T09:25:00.000Z</time>
      </trkpt>
      <trkpt lat="47.52778" lon="6.75813">
        <ele>357</ele>
        <time>2016-01-03T09:25:02.000Z</time>
      </trkpt>
      <trkpt lat="47.52779" lon="6.75816">
        <ele>357</ele>
        <time>2016-01-03T09:25:03.000Z</time>
      </trkpt>
      <trkpt lat="47.5278" lon="6.75822">
        <ele>357</ele>
        <time>2016-01-03T09:25:06.000Z</time>
      </trkpt>
      <trkpt lat="47.52781" lon="6.75824">
        <ele>357</ele>
        <time>2016-01-03T09:25:07.000Z</time>
      </trkpt>
      <trkpt lat="47.52782" lon="6.75828">
        <ele>358</ele>
        <time>2016-01-03T09:25:09.000Z</time>
      </trkpt>
      <trkpt lat="47.52782" lon="6.7583">
        <ele>358</ele>
        <time>2016-01-03T09:25:10.000Z</time>
      </trkpt>
      <trkpt lat="47.52783" lon="6.75836">
        <ele>359</ele>
        <time>2016-01-03T09:25:13.000Z</time>
      </trkpt>
      <trkpt lat="47.52784" lon="6.75838">
        <ele>359</ele>
        <time>2016-01-03T09:25:14.000Z</time>
      </trkpt>
      <trkpt lat="47.52786" lon="6.75843">
        <ele>359</ele>
        <time>2016-01-03T09:25:17.000Z</time>
      </trkpt>
      <trkpt lat="47.52788" lon="6.75844">
        <ele>359</ele>
        <time>2016-01-03T09:25:18.000Z</time>
      </trkpt>
      <trkpt lat="47.52791" lon="6.75843">
        <ele>360</ele>
        <time>2016-01-03T09:25:20.000Z</time>
      </trkpt>
      <trkpt lat="47.52793" lon="6.75843">
        <ele>360</ele>
        <time>2016-01-03T09:25:21.000Z</time>
      </trkpt>
      <trkpt lat="47.52797" lon="6.75842">
        <ele>360</ele>
        <time>2016-01-03T09:25:23.000Z</time>
      </trkpt>
      <trkpt lat="47.52798" lon="6.75842">
        <ele>360</ele>
        <time>2016-01-03T09:25:24.000Z</time>
      </trkpt>
      <trkpt lat="47.52801" lon="6.75841">
        <ele>361</ele>
        <time>2016-01-03T09:25:26.000Z</time>
      </trkpt>
      <trkpt lat="47.52803" lon="6.7584">
        <ele>361</ele>
        <time>2016-01-03T09:25:27.000Z</time>
      </trkpt>
      <trkpt lat="47.52806" lon="6.75839">
        <ele>361</ele>
        <time>2016-01-03T09:25:29.000Z</time>
      </trkpt>
      <trkpt lat="47.52808" lon="6.75838">
        <ele>361</ele>
        <time>2016-01-03T09:25:30.000Z</time>
      </trkpt>
      <trkpt lat="47.52812" lon="6.75836">
        <ele>362</ele>
        <time>2016-01-03T09:25:32.000Z</time>
      </trkpt>
      <trkpt lat="47.52814" lon="6.75834">
        <ele>362</ele>
        <time>2016-01-03T09:25:33.000Z</time>
      </trkpt>
      <trkpt lat="47.52817" lon="6.75832">
        <ele>361</ele>
        <time>2016-01-03T09:25:35.000Z</time>
      </trkpt>
      <trkpt lat="47.52819" lon="6.75832">
        <ele>362</ele>
        <time>2016-01-03T09:25:36.000Z</time>
      </trkpt>
      <trkpt lat="47.52823" lon="6.7583">
        <ele>362</ele>
        <time>2016-01-03T09:25:38.000Z</time>
      </trkpt>
      <trkpt lat="47.52824" lon="6.75829">
        <ele>362</ele>
        <time>2016-01-03T09:25:39.000Z</time>
      </trkpt>
      <trkpt lat="47.52827" lon="6.75827">
        <ele>363</ele>
        <time>2016-01-03T09:25:41.000Z</time>
      </trkpt>
      <trkpt lat="47.52828" lon="6.75826">
        <ele>363</ele>
        <time>2016-01-03T09:25:42.000Z</time>
      </trkpt>
      <trkpt lat="47.52831" lon="6.75823">
        <ele>362</ele>
        <time>2016-01-03T09:25:44.000Z</time>
      </trkpt>
      <trkpt lat="47.52832" lon="6.75822">
        <ele>362</ele>
        <time>2016-01-03T09:25:45.000Z</time>
      </trkpt>
      <trkpt lat="47.52836" lon="6.75819">
        <ele>365</ele>
        <time>2016-01-03T09:25:48.000Z</time>
      </trkpt>
      <trkpt lat="47.52837" lon="6.75818">
        <ele>365</ele>
        <time>2016-01-03T09:25:49.000Z</time>
      </trkpt>
      <trkpt lat="47.5284" lon="6.75817">
        <ele>365</ele>
        <time>2016-01-03T09:25:51.000Z</time>
      </trkpt>
      <trkpt lat="47.52842" lon="6.75816">
        <ele>365</ele>
        <time>2016-01-03T09:25:52.000Z</time>
      </trkpt>
      <trkpt lat="47.52846" lon="6.75815">
        <ele>365</ele>
        <time>2016-01-03T09:25:55.000Z</time>
      </trkpt>
      <trkpt lat="47.52847" lon="6.75814">
        <ele>365</ele>
        <time>2016-01-03T09:25:56.000Z</time>
      </trkpt>
      <trkpt lat="47.52851" lon="6.75813">
        <ele>365</ele>
        <time>2016-01-03T09:25:58.000Z</time>
      </trkpt>
      <trkpt lat="47.52853" lon="6.75812">
        <ele>365</ele>
        <time>2016-01-03T09:25:59.000Z</time>
      </trkpt>
      <trkpt lat="47.52855" lon="6.75812">
        <ele>365</ele>
        <time>2016-01-03T09:26:00.000Z</time>
      </trkpt>
      <trkpt lat="47.52857" lon="6.75811">
        <ele>365</ele>
        <time>2016-01-03T09:26:01.000Z</time>
      </trkpt>
      <trkpt lat="47.5286" lon="6.75811">
        <ele>365</ele>
        <time>2016-01-03T09:26:02.000Z</time>
      </trkpt>
      <trkpt lat="47.52862" lon="6.7581">
        <ele>365</ele>
        <time>2016-01-03T09:26:03.000Z</time>
      </trkpt>
      <trkpt lat="47.52864" lon="6.7581">
        <ele>365</ele>
        <time>2016-01-03T09:26:04.000Z</time>
      </trkpt>
      <trkpt lat="47.52866" lon="6.75809">
        <ele>365</ele>
        <time>2016-01-03T09:26:05.000Z</time>
      </trkpt>
      <trkpt lat="47.52869" lon="6.75808">
        <ele>365</ele>
        <time>2016-01-03T09:26:06.000Z</time>
      </trkpt>
      <trkpt lat="47.52871" lon="6.75807">
        <ele>365</ele>
        <time>2016-01-03T09:26:07.000Z</time>
      </trkpt>
      <trkpt lat="47.52874" lon="6.75804">
        <ele>365</ele>
        <time>2016-01-03T09:26:10.000Z</time>
      </trkpt>
      <trkpt lat="47.52875" lon="6.75803">
        <ele>365</ele>
        <time>2016-01-03T09:26:11.000Z</time>
      </trkpt>
      <trkpt lat="47.52879" lon="6.758">
        <ele>365</ele>
        <time>2016-01-03T09:26:15.000Z</time>
      </trkpt>
      <trkpt lat="47.52879" lon="6.758">
        <ele>365</ele>
        <time>2016-01-03T09:26:16.000Z</time>
      </trkpt>
      <trkpt lat="47.52883" lon="6.75802">
        <ele>365</ele>
        <time>2016-01-03T09:26:22.000Z</time>
      </trkpt>
      <trkpt lat="47.52884" lon="6.75801">
        <ele>365</ele>
        <time>2016-01-03T09:26:23.000Z</time>
      </trkpt>
      <trkpt lat="47.52888" lon="6.75803">
        <ele>366</ele>
        <time>2016-01-03T09:26:37.000Z</time>
      </trkpt>
      <trkpt lat="47.52889" lon="6.75803">
        <ele>366</ele>
        <time>2016-01-03T09:26:38.000Z</time>
      </trkpt>
      <trkpt lat="47.5289" lon="6.75809">
        <ele>366</ele>
        <time>2016-01-03T09:26:41.000Z</time>
      </trkpt>
      <trkpt lat="47.52889" lon="6.75812">
        <ele>366</ele>
        <time>2016-01-03T09:26:42.000Z</time>
      </trkpt>
      <trkpt lat="47.52889" lon="6.75816">
        <ele>366</ele>
        <time>2016-01-03T09:26:43.000Z</time>
      </trkpt>
      <trkpt lat="47.52889" lon="6.7582">
        <ele>367</ele>
        <time>2016-01-03T09:26:44.000Z</time>
      </trkpt>
      <trkpt lat="47.52891" lon="6.75825">
        <ele>367</ele>
        <time>2016-01-03T09:26:46.000Z</time>
      </trkpt>
      <trkpt lat="47.52892" lon="6.75826">
        <ele>367</ele>
        <time>2016-01-03T09:26:47.000Z</time>
      </trkpt>
      <trkpt lat="47.52896" lon="6.75828">
        <ele>368</ele>
        <time>2016-01-03T09:26:49.000Z</time>
      </trkpt>
      <trkpt lat="47.52898" lon="6.7583">
        <ele>368</ele>
        <time>2016-01-03T09:26:50.000Z</time>
      </trkpt>
      <trkpt lat="47.529" lon="6.75833">
        <ele>368</ele>
        <time>2016-01-03T09:26:51.000Z</time>
      </trkpt>
      <trkpt lat="47.52901" lon="6.75835">
        <ele>370</ele>
        <time>2016-01-03T09:26:52.000Z</time>
      </trkpt>
      <trkpt lat="47.52903" lon="6.75838">
        <ele>371</ele>
        <time>2016-01-03T09:26:53.000Z</time>
      </trkpt>
      <trkpt lat="47.52904" lon="6.75841">
        <ele>371</ele>
        <time>2016-01-03T09:26:54.000Z</time>
      </trkpt>
      <trkpt lat="47.52905" lon="6.75845">
        <ele>370</ele>
        <time>2016-01-03T09:26:55.000Z</time>
      </trkpt>
      <trkpt lat="47.52905" lon="6.75848">
        <ele>370</ele>
        <time>2016-01-03T09:26:56.000Z</time>
      </trkpt>
      <trkpt lat="47.52907" lon="6.75854">
        <ele>370</ele>
        <time>2016-01-03T09:26:58.000Z</time>
      </trkpt>
      <trkpt lat="47.52908" lon="6.75857">
        <ele>370</ele>
        <time>2016-01-03T09:26:59.000Z</time>
      </trkpt>
      <trkpt lat="47.52911" lon="6.75862">
        <ele>370</ele>
        <time>2016-01-03T09:27:01.000Z</time>
      </trkpt>
      <trkpt lat="47.52912" lon="6.75864">
        <ele>370</ele>
        <time>2016-01-03T09:27:02.000Z</time>
      </trkpt>
      <trkpt lat="47.52914" lon="6.75869">
        <ele>370</ele>
        <time>2016-01-03T09:27:04.000Z</time>
      </trkpt>
      <trkpt lat="47.52915" lon="6.75871">
        <ele>370</ele>
        <time>2016-01-03T09:27:05.000Z</time>
      </trkpt>
      <trkpt lat="47.52916" lon="6.75877">
        <ele>370</ele>
        <time>2016-01-03T09:27:07.000Z</time>
      </trkpt>
      <trkpt lat="47.52917" lon="6.7588">
        <ele>374</ele>
        <time>2016-01-03T09:27:08.000Z</time>
      </trkpt>
      <trkpt lat="47.52919" lon="6.75883">
        <ele>375</ele>
        <time>2016-01-03T09:27:09.000Z</time>
      </trkpt>
      <trkpt lat="47.5292" lon="6.75886">
        <ele>375</ele>
        <time>2016-01-03T09:27:10.000Z</time>
      </trkpt>
      <trkpt lat="47.52922" lon="6.7589">
        <ele>375</ele>
        <time>2016-01-03T09:27:11.000Z</time>
      </trkpt>
      <trkpt lat="47.52923" lon="6.75893">
        <ele>375</ele>
        <time>2016-01-03T09:27:12.000Z</time>
      </trkpt>
      <trkpt lat="47.52924" lon="6.75896">
        <ele>375</ele>
        <time>2016-01-03T09:27:13.000Z</time>
      </trkpt>
      <trkpt lat="47.52925" lon="6.759">
        <ele>375</ele>
        <time>2016-01-03T09:27:14.000Z</time>
      </trkpt>
      <trkpt lat="47.52926" lon="6.75903">
        <ele>375</ele>
        <time>2016-01-03T09:27:15.000Z</time>
      </trkpt>
      <trkpt lat="47.52927" lon="6.75907">
        <ele>375</ele>
        <time>2016-01-03T09:27:16.000Z</time>
      </trkpt>
      <trkpt lat="47.52927" lon="6.75911">
        <ele>374</ele>
        <time>2016-01-03T09:27:17.000Z</time>
      </trkpt>
      <trkpt lat="47.52927" lon="6.75916">
        <ele>374</ele>
        <time>2016-01-03T09:27:18.000Z</time>
      </trkpt>
      <trkpt lat="47.52926" lon="6.7592">
        <ele>375</ele>
        <time>2016-01-03T09:27:19.000Z</time>
      </trkpt>
      <trkpt lat="47.52926" lon="6.75924">
        <ele>376</ele>
        <time>2016-01-03T09:27:20.000Z</time>
      </trkpt>
      <trkpt lat="47.52926" lon="6.75928">
        <ele>376</ele>
        <time>2016-01-03T09:27:21.000Z</time>
      </trkpt>
      <trkpt lat="47.52926" lon="6.75931">
        <ele>376</ele>
        <time>2016-01-03T09:27:22.000Z</time>
      </trkpt>
      <trkpt lat="47.52928" lon="6.75936">
        <ele>376</ele>
        <time>2016-01-03T09:27:24.000Z</time>
      </trkpt>
      <trkpt lat="47.52929" lon="6.75938">
        <ele>377</ele>
        <time>2016-01-03T09:27:25.000Z</time>
      </trkpt>
      <trkpt lat="47.52931" lon="6.75943">
        <ele>377</ele>
        <time>2016-01-03T09:27:27.000Z</time>
      </trkpt>
      <trkpt lat="47.52932" lon="6.75945">
        <ele>377</ele>
        <time>2016-01-03T09:27:28.000Z</time>
      </trkpt>
      <trkpt lat="47.52935" lon="6.75948">
        <ele>377</ele>
        <time>2016-01-03T09:27:30.000Z</time>
      </trkpt>
      <trkpt lat="47.52937" lon="6.75949">
        <ele>377</ele>
        <time>2016-01-03T09:27:31.000Z</time>
      </trkpt>
      <trkpt lat="47.5294" lon="6.75949">
        <ele>377</ele>
        <time>2016-01-03T09:27:33.000Z</time>
      </trkpt>
      <trkpt lat="47.52942" lon="6.75949">
        <ele>378</ele>
        <time>2016-01-03T09:27:34.000Z</time>
      </trkpt>
      <trkpt lat="47.52945" lon="6.7595">
        <ele>378</ele>
        <time>2016-01-03T09:27:36.000Z</time>
      </trkpt>
      <trkpt lat="47.52946" lon="6.75952">
        <ele>378</ele>
        <time>2016-01-03T09:27:37.000Z</time>
      </trkpt>
      <trkpt lat="47.52949" lon="6.75956">
        <ele>378</ele>
        <time>2016-01-03T09:27:39.000Z</time>
      </trkpt>
      <trkpt lat="47.5295" lon="6.7596">
        <ele>378</ele>
        <time>2016-01-03T09:27:40.000Z</time>
      </trkpt>
      <trkpt lat="47.52951" lon="6.75964">
        <ele>378</ele>
        <time>2016-01-03T09:27:41.000Z</time>
      </trkpt>
      <trkpt lat="47.52952" lon="6.75967">
        <ele>378</ele>
        <time>2016-01-03T09:27:42.000Z</time>
      </trkpt>
      <trkpt lat="47.52952" lon="6.75971">
        <ele>378</ele>
        <time>2016-01-03T09:27:43.000Z</time>
      </trkpt>
      <trkpt lat="47.52953" lon="6.75975">
        <ele>379</ele>
        <time>2016-01-03T09:27:44.000Z</time>
      </trkpt>
      <trkpt lat="47.52954" lon="6.75979">
        <ele>379</ele>
        <time>2016-01-03T09:27:45.000Z</time>
      </trkpt>
      <trkpt lat="47.52954" lon="6.75983">
        <ele>379</ele>
        <time>2016-01-03T09:27:46.000Z</time>
      </trkpt>
      <trkpt lat="47.52955" lon="6.75988">
        <ele>379</ele>
        <time>2016-01-03T09:27:47.000Z</time>
      </trkpt>
      <trkpt lat="47.52956" lon="6.75993">
        <ele>379</ele>
        <time>2016-01-03T09:27:48.000Z</time>
      </trkpt>
      <trkpt lat="47.52956" lon="6.75997">
        <ele>379</ele>
        <time>2016-01-03T09:27:49.000Z</time>
      </trkpt>
      <trkpt lat="47.52957" lon="6.76002">
        <ele>380</ele>
        <time>2016-01-03T09:27:50.000Z</time>
      </trkpt>
      <trkpt lat="47.52958" lon="6.76006">
        <ele>380</ele>
        <time>2016-01-03T09:27:51.000Z</time>
      </trkpt>
      <trkpt lat="47.52959" lon="6.76011">
        <ele>380</ele>
        <time>2016-01-03T09:27:52.000Z</time>
      </trkpt>
      <trkpt lat="47.5296" lon="6.76015">
        <ele>380</ele>
        <time>2016-01-03T09:27:53.000Z</time>
      </trkpt>
      <trkpt lat="47.52961" lon="6.76019">
        <ele>380</ele>
        <time>2016-01-03T09:27:54.000Z</time>
      </trkpt>
      <trkpt lat="47.52961" lon="6.76024">
        <ele>380</ele>
        <time>2016-01-03T09:27:55.000Z</time>
      </trkpt>
      <trkpt lat="47.52962" lon="6.76028">
        <ele>380</ele>
        <time>2016-01-03T09:27:56.000Z</time>
      </trkpt>
      <trkpt lat="47.52963" lon="6.76032">
        <ele>380</ele>
        <time>2016-01-03T09:27:57.000Z</time>
      </trkpt>
      <trkpt lat="47.52964" lon="6.76036">
        <ele>380</ele>
        <time>2016-01-03T09:27:58.000Z</time>
      </trkpt>
      <trkpt lat="47.52965" lon="6.7604">
        <ele>380</ele>
        <time>2016-01-03T09:27:59.000Z</time>
      </trkpt>
      <trkpt lat="47.52965" lon="6.76044">
        <ele>380</ele>
        <time>2016-01-03T09:28:00.000Z</time>
      </trkpt>
      <trkpt lat="47.52966" lon="6.76048">
        <ele>380</ele>
        <time>2016-01-03T09:28:01.000Z</time>
      </trkpt>
      <trkpt lat="47.52967" lon="6.76051">
        <ele>380</ele>
        <time>2016-01-03T09:28:02.000Z</time>
      </trkpt>
      <trkpt lat="47.52969" lon="6.76057">
        <ele>381</ele>
        <time>2016-01-03T09:28:04.000Z</time>
      </trkpt>
      <trkpt lat="47.5297" lon="6.76059">
        <ele>381</ele>
        <time>2016-01-03T09:28:05.000Z</time>
      </trkpt>
      <trkpt lat="47.52971" lon="6.76062">
        <ele>381</ele>
        <time>2016-01-03T09:28:06.000Z</time>
      </trkpt>
      <trkpt lat="47.52972" lon="6.76064">
        <ele>381</ele>
        <time>2016-01-03T09:28:07.000Z</time>
      </trkpt>
      <trkpt lat="47.52976" lon="6.76068">
        <ele>382</ele>
        <time>2016-01-03T09:28:13.000Z</time>
      </trkpt>
      <trkpt lat="47.52976" lon="6.76069">
        <ele>382</ele>
        <time>2016-01-03T09:28:14.000Z</time>
      </trkpt>
      <trkpt lat="47.52977" lon="6.76075">
        <ele>382</ele>
        <time>2016-01-03T09:28:17.000Z</time>
      </trkpt>
      <trkpt lat="47.52977" lon="6.76078">
        <ele>382</ele>
        <time>2016-01-03T09:28:18.000Z</time>
      </trkpt>
      <trkpt lat="47.52978" lon="6.76081">
        <ele>382</ele>
        <time>2016-01-03T09:28:19.000Z</time>
      </trkpt>
      <trkpt lat="47.52979" lon="6.76084">
        <ele>382</ele>
        <time>2016-01-03T09:28:20.000Z</time>
      </trkpt>
      <trkpt lat="47.5298" lon="6.76088">
        <ele>382</ele>
        <time>2016-01-03T09:28:21.000Z</time>
      </trkpt>
      <trkpt lat="47.52981" lon="6.76092">
        <ele>382</ele>
        <time>2016-01-03T09:28:22.000Z</time>
      </trkpt>
      <trkpt lat="47.52982" lon="6.76097">
        <ele>381</ele>
        <time>2016-01-03T09:28:23.000Z</time>
      </trkpt>
      <trkpt lat="47.52983" lon="6.76101">
        <ele>381</ele>
        <time>2016-01-03T09:28:24.000Z</time>
      </trkpt>
      <trkpt lat="47.52984" lon="6.76106">
        <ele>381</ele>
        <time>2016-01-03T09:28:25.000Z</time>
      </trkpt>
      <trkpt lat="47.52985" lon="6.76109">
        <ele>381</ele>
        <time>2016-01-03T09:28:26.000Z</time>
      </trkpt>
      <trkpt lat="47.52985" lon="6.76113">
        <ele>381</ele>
        <time>2016-01-03T09:28:27.000Z</time>
      </trkpt>
      <trkpt lat="47.52986" lon="6.76117">
        <ele>380</ele>
        <time>2016-01-03T09:28:28.000Z</time>
      </trkpt>
      <trkpt lat="47.52987" lon="6.76121">
        <ele>380</ele>
        <time>2016-01-03T09:28:29.000Z</time>
      </trkpt>
      <trkpt lat="47.52988" lon="6.76126">
        <ele>380</ele>
        <time>2016-01-03T09:28:30.000Z</time>
      </trkpt>
      <trkpt lat="47.52989" lon="6.7613">
        <ele>380</ele>
        <time>2016-01-03T09:28:31.000Z</time>
      </trkpt>
      <trkpt lat="47.5299" lon="6.76135">
        <ele>380</ele>
        <time>2016-01-03T09:28:32.000Z</time>
      </trkpt>
      <trkpt lat="47.5299" lon="6.76141">
        <ele>380</ele>
        <time>2016-01-03T09:28:33.000Z</time>
      </trkpt>
      <trkpt lat="47.52991" lon="6.76146">
        <ele>381</ele>
        <time>2016-01-03T09:28:34.000Z</time>
      </trkpt>
      <trkpt lat="47.52991" lon="6.76152">
        <ele>381</ele>
        <time>2016-01-03T09:28:35.000Z</time>
      </trkpt>
      <trkpt lat="47.5299" lon="6.76157">
        <ele>381</ele>
        <time>2016-01-03T09:28:36.000Z</time>
      </trkpt>
      <trkpt lat="47.5299" lon="6.76163">
        <ele>382</ele>
        <time>2016-01-03T09:28:37.000Z</time>
      </trkpt>
      <trkpt lat="47.52989" lon="6.76169">
        <ele>381</ele>
        <time>2016-01-03T09:28:38.000Z</time>
      </trkpt>
      <trkpt lat="47.52989" lon="6.76175">
        <ele>380</ele>
        <time>2016-01-03T09:28:39.000Z</time>
      </trkpt>
      <trkpt lat="47.52989" lon="6.76181">
        <ele>379</ele>
        <time>2016-01-03T09:28:40.000Z</time>
      </trkpt>
      <trkpt lat="47.52989" lon="6.76187">
        <ele>379</ele>
        <time>2016-01-03T09:28:41.000Z</time>
      </trkpt>
      <trkpt lat="47.52991" lon="6.76193">
        <ele>378</ele>
        <time>2016-01-03T09:28:42.000Z</time>
      </trkpt>
      <trkpt lat="47.52992" lon="6.76199">
        <ele>378</ele>
        <time>2016-01-03T09:28:43.000Z</time>
      </trkpt>
      <trkpt lat="47.52993" lon="6.76203">
        <ele>378</ele>
        <time>2016-01-03T09:28:44.000Z</time>
      </trkpt>
      <trkpt lat="47.52994" lon="6.76208">
        <ele>377</ele>
        <time>2016-01-03T09:28:45.000Z</time>
      </trkpt>
      <trkpt lat="47.52994" lon="6.76214">
        <ele>377</ele>
        <time>2016-01-03T09:28:46.000Z</time>
      </trkpt>
      <trkpt lat="47.52994" lon="6.76221">
        <ele>377</ele>
        <time>2016-01-03T09:28:47.000Z</time>
      </trkpt>
      <trkpt lat="47.52994" lon="6.76228">
        <ele>377</ele>
        <time>2016-01-03T09:28:48.000Z</time>
      </trkpt>
      <trkpt lat="47.52993" lon="6.76245">
        <ele>379</ele>
        <time>2016-01-03T09:28:49.000Z</time>
      </trkpt>
      <trkpt lat="47.52993" lon="6.76253">
        <ele>378</ele>
        <time>2016-01-03T09:28:50.000Z</time>
      </trkpt>
      <trkpt lat="47.52994" lon="6.76261">
        <ele>377</ele>
        <time>2016-01-03T09:28:51.000Z</time>
      </trkpt>
      <trkpt lat="47.52994" lon="6.76268">
        <ele>376</ele>
        <time>2016-01-03T09:28:52.000Z</time>
      </trkpt>
      <trkpt lat="47.52995" lon="6.76275">
        <ele>375</ele>
        <time>2016-01-03T09:28:53.000Z</time>
      </trkpt>
      <trkpt lat="47.52992" lon="6.76283">
        <ele>374</ele>
        <time>2016-01-03T09:28:54.000Z</time>
      </trkpt>
      <trkpt lat="47.52991" lon="6.7629">
        <ele>374</ele>
        <time>2016-01-03T09:28:55.000Z</time>
      </trkpt>
      <trkpt lat="47.52989" lon="6.76295">
        <ele>374</ele>
        <time>2016-01-03T09:28:56.000Z</time>
      </trkpt>
      <trkpt lat="47.52988" lon="6.76302">
        <ele>373</ele>
        <time>2016-01-03T09:28:57.000Z</time>
      </trkpt>
      <trkpt lat="47.52986" lon="6.76309">
        <ele>373</ele>
        <time>2016-01-03T09:28:58.000Z</time>
      </trkpt>
      <trkpt lat="47.52985" lon="6.76315">
        <ele>373</ele>
        <time>2016-01-03T09:28:59.000Z</time>
      </trkpt>
      <trkpt lat="47.52985" lon="6.76322">
        <ele>374</ele>
        <time>2016-01-03T09:29:00.000Z</time>
      </trkpt>
      <trkpt lat="47.52985" lon="6.76327">
        <ele>374</ele>
        <time>2016-01-03T09:29:01.000Z</time>
      </trkpt>
      <trkpt lat="47.52986" lon="6.76333">
        <ele>374</ele>
        <time>2016-01-03T09:29:02.000Z</time>
      </trkpt>
      <trkpt lat="47.52986" lon="6.76339">
        <ele>372</ele>
        <time>2016-01-03T09:29:03.000Z</time>
      </trkpt>
      <trkpt lat="47.52985" lon="6.76344">
        <ele>372</ele>
        <time>2016-01-03T09:29:04.000Z</time>
      </trkpt>
      <trkpt lat="47.52986" lon="6.76349">
        <ele>372</ele>
        <time>2016-01-03T09:29:05.000Z</time>
      </trkpt>
      <trkpt lat="47.52987" lon="6.76354">
        <ele>371</ele>
        <time>2016-01-03T09:29:06.000Z</time>
      </trkpt>
      <trkpt lat="47.52988" lon="6.76359">
        <ele>371</ele>
        <time>2016-01-03T09:29:07.000Z</time>
      </trkpt>
      <trkpt lat="47.52989" lon="6.76363">
        <ele>371</ele>
        <time>2016-01-03T09:29:08.000Z</time>
      </trkpt>
      <trkpt lat="47.5299" lon="6.76367">
        <ele>370</ele>
        <time>2016-01-03T09:29:09.000Z</time>
      </trkpt>
      <trkpt lat="47.52992" lon="6.76372">
        <ele>370</ele>
        <time>2016-01-03T09:29:10.000Z</time>
      </trkpt>
      <trkpt lat="47.52993" lon="6.76377">
        <ele>370</ele>
        <time>2016-01-03T09:29:11.000Z</time>
      </trkpt>
      <trkpt lat="47.52994" lon="6.76382">
        <ele>370</ele>
        <time>2016-01-03T09:29:12.000Z</time>
      </trkpt>
      <trkpt lat="47.52996" lon="6.76389">
        <ele>370</ele>
        <time>2016-01-03T09:29:13.000Z</time>
      </trkpt>
      <trkpt lat="47.52997" lon="6.76394">
        <ele>370</ele>
        <time>2016-01-03T09:29:14.000Z</time>
      </trkpt>
      <trkpt lat="47.52997" lon="6.764">
        <ele>370</ele>
        <time>2016-01-03T09:29:15.000Z</time>
      </trkpt>
      <trkpt lat="47.52997" lon="6.76406">
        <ele>371</ele>
        <time>2016-01-03T09:29:16.000Z</time>
      </trkpt>
      <trkpt lat="47.52997" lon="6.76413">
        <ele>371</ele>
        <time>2016-01-03T09:29:17.000Z</time>
      </trkpt>
      <trkpt lat="47.53" lon="6.76423">
        <ele>371</ele>
        <time>2016-01-03T09:29:18.000Z</time>
      </trkpt>
      <trkpt lat="47.53001" lon="6.76429">
        <ele>373</ele>
        <time>2016-01-03T09:29:19.000Z</time>
      </trkpt>
      <trkpt lat="47.53002" lon="6.76436">
        <ele>373</ele>
        <time>2016-01-03T09:29:20.000Z</time>
      </trkpt>
      <trkpt lat="47.53004" lon="6.76441">
        <ele>373</ele>
        <time>2016-01-03T09:29:21.000Z</time>
      </trkpt>
      <trkpt lat="47.53005" lon="6.76447">
        <ele>373</ele>
        <time>2016-01-03T09:29:22.000Z</time>
      </trkpt>
      <trkpt lat="47.53006" lon="6.76452">
        <ele>373</ele>
        <time>2016-01-03T09:29:23.000Z</time>
      </trkpt>
      <trkpt lat="47.53007" lon="6.76457">
        <ele>373</ele>
        <time>2016-01-03T09:29:24.000Z</time>
      </trkpt>
      <trkpt lat="47.53009" lon="6.76463">
        <ele>373</ele>
        <time>2016-01-03T09:29:25.000Z</time>
      </trkpt>
      <trkpt lat="47.53009" lon="6.76467">
        <ele>373</ele>
        <time>2016-01-03T09:29:26.000Z</time>
      </trkpt>
      <trkpt lat="47.5301" lon="6.76472">
        <ele>373</ele>
        <time>2016-01-03T09:29:27.000Z</time>
      </trkpt>
      <trkpt lat="47.53011" lon="6.76476">
        <ele>373</ele>
        <time>2016-01-03T09:29:28.000Z</time>
      </trkpt>
      <trkpt lat="47.53012" lon="6.76481">
        <ele>373</ele>
        <time>2016-01-03T09:29:29.000Z</time>
      </trkpt>
      <trkpt lat="47.53012" lon="6.76485">
        <ele>373</ele>
        <time>2016-01-03T09:29:30.000Z</time>
      </trkpt>
      <trkpt lat="47.53012" lon="6.76489">
        <ele>373</ele>
        <time>2016-01-03T09:29:31.000Z</time>
      </trkpt>
      <trkpt lat="47.53012" lon="6.76493">
        <ele>373</ele>
        <time>2016-01-03T09:29:32.000Z</time>
      </trkpt>
      <trkpt lat="47.53012" lon="6.76496">
        <ele>372</ele>
        <time>2016-01-03T09:29:33.000Z</time>
      </trkpt>
      <trkpt lat="47.53011" lon="6.76502">
        <ele>372</ele>
        <time>2016-01-03T09:29:35.000Z</time>
      </trkpt>
      <trkpt lat="47.53011" lon="6.76505">
        <ele>373</ele>
        <time>2016-01-03T09:29:36.000Z</time>
      </trkpt>
      <trkpt lat="47.53009" lon="6.76509">
        <ele>373</ele>
        <time>2016-01-03T09:29:38.000Z</time>
      </trkpt>
      <trkpt lat="47.53008" lon="6.76512">
        <ele>373</ele>
        <time>2016-01-03T09:29:39.000Z</time>
      </trkpt>
      <trkpt lat="47.53007" lon="6.76517">
        <ele>373</ele>
        <time>2016-01-03T09:29:41.000Z</time>
      </trkpt>
      <trkpt lat="47.53007" lon="6.76519">
        <ele>373</ele>
        <time>2016-01-03T09:29:42.000Z</time>
      </trkpt>
      <trkpt lat="47.53007" lon="6.76525">
        <ele>374</ele>
        <time>2016-01-03T09:29:45.000Z</time>
      </trkpt>
      <trkpt lat="47.53007" lon="6.76527">
        <ele>374</ele>
        <time>2016-01-03T09:29:46.000Z</time>
      </trkpt>
      <trkpt lat="47.53004" lon="6.76531">
        <ele>374</ele>
        <time>2016-01-03T09:29:49.000Z</time>
      </trkpt>
      <trkpt lat="47.53002" lon="6.76531">
        <ele>374</ele>
        <time>2016-01-03T09:29:50.000Z</time>
      </trkpt>
      <trkpt lat="47.52999" lon="6.76531">
        <ele>370</ele>
        <time>2016-01-03T09:29:52.000Z</time>
      </trkpt>
      <trkpt lat="47.52997" lon="6.7653">
        <ele>370</ele>
        <time>2016-01-03T09:29:53.000Z</time>
      </trkpt>
      <trkpt lat="47.52994" lon="6.76533">
        <ele>370</ele>
        <time>2016-01-03T09:29:55.000Z</time>
      </trkpt>
      <trkpt lat="47.52993" lon="6.76535">
        <ele>370</ele>
        <time>2016-01-03T09:29:56.000Z</time>
      </trkpt>
      <trkpt lat="47.5299" lon="6.76539">
        <ele>370</ele>
        <time>2016-01-03T09:29:58.000Z</time>
      </trkpt>
      <trkpt lat="47.52989" lon="6.76541">
        <ele>370</ele>
        <time>2016-01-03T09:29:59.000Z</time>
      </trkpt>
      <trkpt lat="47.52987" lon="6.76545">
        <ele>370</ele>
        <time>2016-01-03T09:30:01.000Z</time>
      </trkpt>
      <trkpt lat="47.52986" lon="6.76548">
        <ele>370</ele>
        <time>2016-01-03T09:30:02.000Z</time>
      </trkpt>
      <trkpt lat="47.52985" lon="6.76551">
        <ele>370</ele>
        <time>2016-01-03T09:30:03.000Z</time>
      </trkpt>
      <trkpt lat="47.52984" lon="6.76554">
        <ele>370</ele>
        <time>2016-01-03T09:30:04.000Z</time>
      </trkpt>
      <trkpt lat="47.52983" lon="6.76558">
        <ele>370</ele>
        <time>2016-01-03T09:30:05.000Z</time>
      </trkpt>
      <trkpt lat="47.52982" lon="6.76561">
        <ele>370</ele>
        <time>2016-01-03T09:30:06.000Z</time>
      </trkpt>
      <trkpt lat="47.52981" lon="6.76564">
        <ele>371</ele>
        <time>2016-01-03T09:30:07.000Z</time>
      </trkpt>
      <trkpt lat="47.52981" lon="6.76567">
        <ele>371</ele>
        <time>2016-01-03T09:30:08.000Z</time>
      </trkpt>
      <trkpt lat="47.5298" lon="6.76571">
        <ele>371</ele>
        <time>2016-01-03T09:30:09.000Z</time>
      </trkpt>
      <trkpt lat="47.5298" lon="6.76574">
        <ele>371</ele>
        <time>2016-01-03T09:30:10.000Z</time>
      </trkpt>
      <trkpt lat="47.52979" lon="6.76578">
        <ele>371</ele>
        <time>2016-01-03T09:30:11.000Z</time>
      </trkpt>
      <trkpt lat="47.52978" lon="6.76581">
        <ele>371</ele>
        <time>2016-01-03T09:30:12.000Z</time>
      </trkpt>
      <trkpt lat="47.52977" lon="6.76586">
        <ele>373</ele>
        <time>2016-01-03T09:30:13.000Z</time>
      </trkpt>
      <trkpt lat="47.52976" lon="6.76589">
        <ele>373</ele>
        <time>2016-01-03T09:30:14.000Z</time>
      </trkpt>
      <trkpt lat="47.52974" lon="6.76593">
        <ele>373</ele>
        <time>2016-01-03T09:30:15.000Z</time>
      </trkpt>
      <trkpt lat="47.52972" lon="6.76597">
        <ele>373</ele>
        <time>2016-01-03T09:30:16.000Z</time>
      </trkpt>
      <trkpt lat="47.5297" lon="6.766">
        <ele>373</ele>
        <time>2016-01-03T09:30:17.000Z</time>
      </trkpt>
      <trkpt lat="47.52968" lon="6.76604">
        <ele>372</ele>
        <time>2016-01-03T09:30:18.000Z</time>
      </trkpt>
      <trkpt lat="47.52966" lon="6.76607">
        <ele>372</ele>
        <time>2016-01-03T09:30:19.000Z</time>
      </trkpt>
      <trkpt lat="47.52965" lon="6.7661">
        <ele>372</ele>
        <time>2016-01-03T09:30:20.000Z</time>
      </trkpt>
      <trkpt lat="47.52964" lon="6.76613">
        <ele>372</ele>
        <time>2016-01-03T09:30:21.000Z</time>
      </trkpt>
      <trkpt lat="47.52964" lon="6.76617">
        <ele>372</ele>
        <time>2016-01-03T09:30:22.000Z</time>
      </trkpt>
      <trkpt lat="47.52964" lon="6.76622">
        <ele>372</ele>
        <time>2016-01-03T09:30:23.000Z</time>
      </trkpt>
      <trkpt lat="47.52963" lon="6.76626">
        <ele>373</ele>
        <time>2016-01-03T09:30:24.000Z</time>
      </trkpt>
      <trkpt lat="47.52963" lon="6.76632">
        <ele>373</ele>
        <time>2016-01-03T09:30:25.000Z</time>
      </trkpt>
      <trkpt lat="47.52963" lon="6.76637">
        <ele>373</ele>
        <time>2016-01-03T09:30:26.000Z</time>
      </trkpt>
      <trkpt lat="47.52962" lon="6.76642">
        <ele>373</ele>
        <time>2016-01-03T09:30:27.000Z</time>
      </trkpt>
      <trkpt lat="47.52961" lon="6.76647">
        <ele>373</ele>
        <time>2016-01-03T09:30:28.000Z</time>
      </trkpt>
      <trkpt lat="47.5296" lon="6.76652">
        <ele>373</ele>
        <time>2016-01-03T09:30:29.000Z</time>
      </trkpt>
      <trkpt lat="47.5296" lon="6.76656">
        <ele>373</ele>
        <time>2016-01-03T09:30:30.000Z</time>
      </trkpt>
      <trkpt lat="47.52959" lon="6.7666">
        <ele>373</ele>
        <time>2016-01-03T09:30:31.000Z</time>
      </trkpt>
      <trkpt lat="47.52958" lon="6.76664">
        <ele>373</ele>
        <time>2016-01-03T09:30:32.000Z</time>
      </trkpt>
      <trkpt lat="47.52957" lon="6.76668">
        <ele>375</ele>
        <time>2016-01-03T09:30:33.000Z</time>
      </trkpt>
      <trkpt lat="47.52954" lon="6.76672">
        <ele>375</ele>
        <time>2016-01-03T09:30:34.000Z</time>
      </trkpt>
      <trkpt lat="47.52952" lon="6.76676">
        <ele>374</ele>
        <time>2016-01-03T09:30:35.000Z</time>
      </trkpt>
      <trkpt lat="47.52949" lon="6.76681">
        <ele>374</ele>
        <time>2016-01-03T09:30:36.000Z</time>
      </trkpt>
      <trkpt lat="47.52948" lon="6.76685">
        <ele>374</ele>
        <time>2016-01-03T09:30:37.000Z</time>
      </trkpt>
      <trkpt lat="47.52947" lon="6.7669">
        <ele>374</ele>
        <time>2016-01-03T09:30:38.000Z</time>
      </trkpt>
      <trkpt lat="47.52946" lon="6.76694">
        <ele>374</ele>
        <time>2016-01-03T09:30:39.000Z</time>
      </trkpt>
      <trkpt lat="47.52945" lon="6.76699">
        <ele>374</ele>
        <time>2016-01-03T09:30:40.000Z</time>
      </trkpt>
      <trkpt lat="47.52945" lon="6.76703">
        <ele>375</ele>
        <time>2016-01-03T09:30:41.000Z</time>
      </trkpt>
      <trkpt lat="47.52944" lon="6.76707">
        <ele>375</ele>
        <time>2016-01-03T09:30:42.000Z</time>
      </trkpt>
      <trkpt lat="47.52943" lon="6.76711">
        <ele>375</ele>
        <time>2016-01-03T09:30:43.000Z</time>
      </trkpt>
      <trkpt lat="47.52943" lon="6.76715">
        <ele>375</ele>
        <time>2016-01-03T09:30:44.000Z</time>
      </trkpt>
      <trkpt lat="47.52943" lon="6.76719">
        <ele>375</ele>
        <time>2016-01-03T09:30:45.000Z</time>
      </trkpt>
      <trkpt lat="47.52942" lon="6.76723">
        <ele>375</ele>
        <time>2016-01-03T09:30:46.000Z</time>
      </trkpt>
      <trkpt lat="47.52941" lon="6.76727">
        <ele>375</ele>
        <time>2016-01-03T09:30:47.000Z</time>
      </trkpt>
      <trkpt lat="47.5294" lon="6.76731">
        <ele>375</ele>
        <time>2016-01-03T09:30:48.000Z</time>
      </trkpt>
      <trkpt lat="47.52939" lon="6.76736">
        <ele>375</ele>
        <time>2016-01-03T09:30:49.000Z</time>
      </trkpt>
      <trkpt lat="47.52937" lon="6.7674">
        <ele>374</ele>
        <time>2016-01-03T09:30:50.000Z</time>
      </trkpt>
      <trkpt lat="47.52935" lon="6.76744">
        <ele>374</ele>
        <time>2016-01-03T09:30:51.000Z</time>
      </trkpt>
      <trkpt lat="47.52934" lon="6.76747">
        <ele>374</ele>
        <time>2016-01-03T09:30:52.000Z</time>
      </trkpt>
      <trkpt lat="47.52933" lon="6.76751">
        <ele>375</ele>
        <time>2016-01-03T09:30:53.000Z</time>
      </trkpt>
      <trkpt lat="47.52932" lon="6.76754">
        <ele>375</ele>
        <time>2016-01-03T09:30:54.000Z</time>
      </trkpt>
      <trkpt lat="47.5293" lon="6.7676">
        <ele>375</ele>
        <time>2016-01-03T09:30:56.000Z</time>
      </trkpt>
      <trkpt lat="47.5293" lon="6.76764">
        <ele>375</ele>
        <time>2016-01-03T09:30:57.000Z</time>
      </trkpt>
      <trkpt lat="47.52929" lon="6.76768">
        <ele>376</ele>
        <time>2016-01-03T09:30:58.000Z</time>
      </trkpt>
      <trkpt lat="47.52929" lon="6.76772">
        <ele>376</ele>
        <time>2016-01-03T09:30:59.000Z</time>
      </trkpt>
      <trkpt lat="47.52928" lon="6.76776">
        <ele>376</ele>
        <time>2016-01-03T09:31:00.000Z</time>
      </trkpt>
      <trkpt lat="47.52927" lon="6.7678">
        <ele>376</ele>
        <time>2016-01-03T09:31:01.000Z</time>
      </trkpt>
      <trkpt lat="47.52926" lon="6.76783">
        <ele>376</ele>
        <time>2016-01-03T09:31:02.000Z</time>
      </trkpt>
      <trkpt lat="47.52925" lon="6.76787">
        <ele>376</ele>
        <time>2016-01-03T09:31:03.000Z</time>
      </trkpt>
      <trkpt lat="47.52923" lon="6.7679">
        <ele>376</ele>
        <time>2016-01-03T09:31:04.000Z</time>
      </trkpt>
      <trkpt lat="47.52922" lon="6.76793">
        <ele>376</ele>
        <time>2016-01-03T09:31:05.000Z</time>
      </trkpt>
      <trkpt lat="47.52921" lon="6.76798">
        <ele>377</ele>
        <time>2016-01-03T09:31:07.000Z</time>
      </trkpt>
      <trkpt lat="47.5292" lon="6.768">
        <ele>377</ele>
        <time>2016-01-03T09:31:08.000Z</time>
      </trkpt>
      <trkpt lat="47.5292" lon="6.76806">
        <ele>377</ele>
        <time>2016-01-03T09:31:12.000Z</time>
      </trkpt>
      <trkpt lat="47.52921" lon="6.76807">
        <ele>377</ele>
        <time>2016-01-03T09:31:13.000Z</time>
      </trkpt>
      <trkpt lat="47.52923" lon="6.76806">
        <ele>377</ele>
        <time>2016-01-03T09:31:15.000Z</time>
      </trkpt>
      <trkpt lat="47.52925" lon="6.76804">
        <ele>377</ele>
        <time>2016-01-03T09:31:16.000Z</time>
      </trkpt>
      <trkpt lat="47.52927" lon="6.76802">
        <ele>377</ele>
        <time>2016-01-03T09:31:17.000Z</time>
      </trkpt>
      <trkpt lat="47.52929" lon="6.768">
        <ele>377</ele>
        <time>2016-01-03T09:31:18.000Z</time>
      </trkpt>
      <trkpt lat="47.52933" lon="6.76799">
        <ele>377</ele>
        <time>2016-01-03T09:31:21.000Z</time>
      </trkpt>
      <trkpt lat="47.52934" lon="6.76799">
        <ele>377</ele>
        <time>2016-01-03T09:31:22.000Z</time>
      </trkpt>
      <trkpt lat="47.52937" lon="6.76796">
        <ele>377</ele>
        <time>2016-01-03T09:31:26.000Z</time>
      </trkpt>
      <trkpt lat="47.52939" lon="6.76796">
        <ele>377</ele>
        <time>2016-01-03T09:31:27.000Z</time>
      </trkpt>
      <trkpt lat="47.52943" lon="6.76795">
        <ele>377</ele>
        <time>2016-01-03T09:31:30.000Z</time>
      </trkpt>
      <trkpt lat="47.52944" lon="6.76794">
        <ele>377</ele>
        <time>2016-01-03T09:31:31.000Z</time>
      </trkpt>
      <trkpt lat="47.52947" lon="6.76792">
        <ele>377</ele>
        <time>2016-01-03T09:31:33.000Z</time>
      </trkpt>
      <trkpt lat="47.52948" lon="6.76791">
        <ele>377</ele>
        <time>2016-01-03T09:31:34.000Z</time>
      </trkpt>
      <trkpt lat="47.5295" lon="6.76787">
        <ele>377</ele>
        <time>2016-01-03T09:31:36.000Z</time>
      </trkpt>
      <trkpt lat="47.52951" lon="6.76786">
        <ele>377</ele>
        <time>2016-01-03T09:31:37.000Z</time>
      </trkpt>
      <trkpt lat="47.52955" lon="6.76783">
        <ele>377</ele>
        <time>2016-01-03T09:31:39.000Z</time>
      </trkpt>
      <trkpt lat="47.52957" lon="6.76782">
        <ele>377</ele>
        <time>2016-01-03T09:31:40.000Z</time>
      </trkpt>
      <trkpt lat="47.52959" lon="6.76781">
        <ele>377</ele>
        <time>2016-01-03T09:31:41.000Z</time>
      </trkpt>
      <trkpt lat="47.52962" lon="6.76779">
        <ele>377</ele>
        <time>2016-01-03T09:31:42.000Z</time>
      </trkpt>
      <trkpt lat="47.52963" lon="6.76776">
        <ele>378</ele>
        <time>2016-01-03T09:31:43.000Z</time>
      </trkpt>
      <trkpt lat="47.52965" lon="6.76774">
        <ele>378</ele>
        <time>2016-01-03T09:31:44.000Z</time>
      </trkpt>
      <trkpt lat="47.52967" lon="6.76772">
        <ele>378</ele>
        <time>2016-01-03T09:31:45.000Z</time>
      </trkpt>
      <trkpt lat="47.52969" lon="6.7677">
        <ele>378</ele>
        <time>2016-01-03T09:31:46.000Z</time>
      </trkpt>
      <trkpt lat="47.52972" lon="6.76768">
        <ele>378</ele>
        <time>2016-01-03T09:31:47.000Z</time>
      </trkpt>
      <trkpt lat="47.52974" lon="6.76766">
        <ele>378</ele>
        <time>2016-01-03T09:31:48.000Z</time>
      </trkpt>
      <trkpt lat="47.52976" lon="6.76764">
        <ele>378</ele>
        <time>2016-01-03T09:31:49.000Z</time>
      </trkpt>
      <trkpt lat="47.52978" lon="6.76762">
        <ele>378</ele>
        <time>2016-01-03T09:31:50.000Z</time>
      </trkpt>
      <trkpt lat="47.5298" lon="6.7676">
        <ele>378</ele>
        <time>2016-01-03T09:31:51.000Z</time>
      </trkpt>
      <trkpt lat="47.52982" lon="6.76758">
        <ele>378</ele>
        <time>2016-01-03T09:31:52.000Z</time>
      </trkpt>
      <trkpt lat="47.52985" lon="6.76753">
        <ele>379</ele>
        <time>2016-01-03T09:31:54.000Z</time>
      </trkpt>
      <trkpt lat="47.52986" lon="6.7675">
        <ele>379</ele>
        <time>2016-01-03T09:31:55.000Z</time>
      </trkpt>
      <trkpt lat="47.52989" lon="6.76746">
        <ele>378</ele>
        <time>2016-01-03T09:31:57.000Z</time>
      </trkpt>
      <trkpt lat="47.52991" lon="6.76744">
        <ele>378</ele>
        <time>2016-01-03T09:31:58.000Z</time>
      </trkpt>
      <trkpt lat="47.52993" lon="6.76742">
        <ele>378</ele>
        <time>2016-01-03T09:31:59.000Z</time>
      </trkpt>
      <trkpt lat="47.52995" lon="6.7674">
        <ele>378</ele>
        <time>2016-01-03T09:32:00.000Z</time>
      </trkpt>
      <trkpt lat="47.52998" lon="6.76738">
        <ele>378</ele>
        <time>2016-01-03T09:32:01.000Z</time>
      </trkpt>
      <trkpt lat="47.53001" lon="6.76735">
        <ele>380</ele>
        <time>2016-01-03T09:32:02.000Z</time>
      </trkpt>
      <trkpt lat="47.53003" lon="6.76732">
        <ele>380</ele>
        <time>2016-01-03T09:32:03.000Z</time>
      </trkpt>
      <trkpt lat="47.53006" lon="6.7673">
        <ele>380</ele>
        <time>2016-01-03T09:32:04.000Z</time>
      </trkpt>
      <trkpt lat="47.53009" lon="6.76727">
        <ele>380</ele>
        <time>2016-01-03T09:32:05.000Z</time>
      </trkpt>
      <trkpt lat="47.53011" lon="6.76724">
        <ele>380</ele>
        <time>2016-01-03T09:32:06.000Z</time>
      </trkpt>
      <trkpt lat="47.53014" lon="6.76722">
        <ele>380</ele>
        <time>2016-01-03T09:32:07.000Z</time>
      </trkpt>
      <trkpt lat="47.53017" lon="6.76719">
        <ele>380</ele>
        <time>2016-01-03T09:32:08.000Z</time>
      </trkpt>
      <trkpt lat="47.5302" lon="6.76716">
        <ele>380</ele>
        <time>2016-01-03T09:32:09.000Z</time>
      </trkpt>
      <trkpt lat="47.53023" lon="6.76712">
        <ele>380</ele>
        <time>2016-01-03T09:32:10.000Z</time>
      </trkpt>
      <trkpt lat="47.53025" lon="6.76709">
        <ele>380</ele>
        <time>2016-01-03T09:32:11.000Z</time>
      </trkpt>
      <trkpt lat="47.53028" lon="6.76706">
        <ele>380</ele>
        <time>2016-01-03T09:32:12.000Z</time>
      </trkpt>
      <trkpt lat="47.53031" lon="6.76702">
        <ele>380</ele>
        <time>2016-01-03T09:32:13.000Z</time>
      </trkpt>
      <trkpt lat="47.53034" lon="6.76699">
        <ele>380</ele>
        <time>2016-01-03T09:32:14.000Z</time>
      </trkpt>
      <trkpt lat="47.53038" lon="6.76696">
        <ele>380</ele>
        <time>2016-01-03T09:32:15.000Z</time>
      </trkpt>
      <trkpt lat="47.53041" lon="6.76692">
        <ele>380</ele>
        <time>2016-01-03T09:32:16.000Z</time>
      </trkpt>
      <trkpt lat="47.53044" lon="6.76689">
        <ele>380</ele>
        <time>2016-01-03T09:32:17.000Z</time>
      </trkpt>
      <trkpt lat="47.53048" lon="6.76686">
        <ele>380</ele>
        <time>2016-01-03T09:32:18.000Z</time>
      </trkpt>
      <trkpt lat="47.53051" lon="6.76682">
        <ele>380</ele>
        <time>2016-01-03T09:32:19.000Z</time>
      </trkpt>
      <trkpt lat="47.53055" lon="6.76679">
        <ele>380</ele>
        <time>2016-01-03T09:32:20.000Z</time>
      </trkpt>
      <trkpt lat="47.53059" lon="6.76677">
        <ele>380</ele>
        <time>2016-01-03T09:32:21.000Z</time>
      </trkpt>
      <trkpt lat="47.53062" lon="6.76673">
        <ele>380</ele>
        <time>2016-01-03T09:32:22.000Z</time>
      </trkpt>
      <trkpt lat="47.53066" lon="6.7667">
        <ele>380</ele>
        <time>2016-01-03T09:32:23.000Z</time>
      </trkpt>
      <trkpt lat="47.53069" lon="6.76666">
        <ele>379</ele>
        <time>2016-01-03T09:32:24.000Z</time>
      </trkpt>
      <trkpt lat="47.53073" lon="6.76662">
        <ele>379</ele>
        <time>2016-01-03T09:32:25.000Z</time>
      </trkpt>
      <trkpt lat="47.53076" lon="6.76658">
        <ele>379</ele>
        <time>2016-01-03T09:32:26.000Z</time>
      </trkpt>
      <trkpt lat="47.53085" lon="6.76656">
        <ele>380</ele>
        <time>2016-01-03T09:32:27.000Z</time>
      </trkpt>
      <trkpt lat="47.53089" lon="6.76653">
        <ele>380</ele>
        <time>2016-01-03T09:32:28.000Z</time>
      </trkpt>
      <trkpt lat="47.53093" lon="6.76649">
        <ele>380</ele>
        <time>2016-01-03T09:32:29.000Z</time>
      </trkpt>
      <trkpt lat="47.53097" lon="6.76645">
        <ele>379</ele>
        <time>2016-01-03T09:32:30.000Z</time>
      </trkpt>
      <trkpt lat="47.53101" lon="6.7664">
        <ele>379</ele>
        <time>2016-01-03T09:32:31.000Z</time>
      </trkpt>
      <trkpt lat="47.53105" lon="6.76636">
        <ele>379</ele>
        <time>2016-01-03T09:32:32.000Z</time>
      </trkpt>
      <trkpt lat="47.53109" lon="6.76632">
        <ele>379</ele>
        <time>2016-01-03T09:32:33.000Z</time>
      </trkpt>
      <trkpt lat="47.53113" lon="6.7663">
        <ele>379</ele>
        <time>2016-01-03T09:32:34.000Z</time>
      </trkpt>
      <trkpt lat="47.53116" lon="6.76627">
        <ele>379</ele>
        <time>2016-01-03T09:32:35.000Z</time>
      </trkpt>
      <trkpt lat="47.53119" lon="6.76624">
        <ele>379</ele>
        <time>2016-01-03T09:32:36.000Z</time>
      </trkpt>
      <trkpt lat="47.53121" lon="6.7662">
        <ele>379</ele>
        <time>2016-01-03T09:32:37.000Z</time>
      </trkpt>
      <trkpt lat="47.53124" lon="6.76616">
        <ele>379</ele>
        <time>2016-01-03T09:32:38.000Z</time>
      </trkpt>
      <trkpt lat="47.53125" lon="6.76613">
        <ele>379</ele>
        <time>2016-01-03T09:32:39.000Z</time>
      </trkpt>
      <trkpt lat="47.53127" lon="6.7661">
        <ele>379</ele>
        <time>2016-01-03T09:32:40.000Z</time>
      </trkpt>
      <trkpt lat="47.53128" lon="6.76608">
        <ele>379</ele>
        <time>2016-01-03T09:32:41.000Z</time>
      </trkpt>
      <trkpt lat="47.53131" lon="6.76603">
        <ele>379</ele>
        <time>2016-01-03T09:32:43.000Z</time>
      </trkpt>
      <trkpt lat="47.53132" lon="6.766">
        <ele>379</ele>
        <time>2016-01-03T09:32:44.000Z</time>
      </trkpt>
      <trkpt lat="47.53133" lon="6.76597">
        <ele>379</ele>
        <time>2016-01-03T09:32:45.000Z</time>
      </trkpt>
      <trkpt lat="47.53135" lon="6.76593">
        <ele>379</ele>
        <time>2016-01-03T09:32:46.000Z</time>
      </trkpt>
      <trkpt lat="47.53136" lon="6.76587">
        <ele>379</ele>
        <time>2016-01-03T09:32:48.000Z</time>
      </trkpt>
      <trkpt lat="47.53136" lon="6.76584">
        <ele>379</ele>
        <time>2016-01-03T09:32:49.000Z</time>
      </trkpt>
      <trkpt lat="47.53137" lon="6.76578">
        <ele>379</ele>
        <time>2016-01-03T09:32:51.000Z</time>
      </trkpt>
      <trkpt lat="47.53137" lon="6.76575">
        <ele>379</ele>
        <time>2016-01-03T09:32:52.000Z</time>
      </trkpt>
      <trkpt lat="47.53137" lon="6.76572">
        <ele>379</ele>
        <time>2016-01-03T09:32:53.000Z</time>
      </trkpt>
      <trkpt lat="47.53138" lon="6.76568">
        <ele>379</ele>
        <time>2016-01-03T09:32:54.000Z</time>
      </trkpt>
      <trkpt lat="47.53139" lon="6.76564">
        <ele>379</ele>
        <time>2016-01-03T09:32:55.000Z</time>
      </trkpt>
      <trkpt lat="47.5314" lon="6.7656">
        <ele>379</ele>
        <time>2016-01-03T09:32:56.000Z</time>
      </trkpt>
      <trkpt lat="47.53141" lon="6.76556">
        <ele>379</ele>
        <time>2016-01-03T09:32:57.000Z</time>
      </trkpt>
      <trkpt lat="47.53141" lon="6.76552">
        <ele>379</ele>
        <time>2016-01-03T09:32:58.000Z</time>
      </trkpt>
      <trkpt lat="47.53142" lon="6.76549">
        <ele>379</ele>
        <time>2016-01-03T09:32:59.000Z</time>
      </trkpt>
      <trkpt lat="47.53143" lon="6.76545">
        <ele>379</ele>
        <time>2016-01-03T09:33:00.000Z</time>
      </trkpt>
      <trkpt lat="47.53144" lon="6.76542">
        <ele>379</ele>
        <time>2016-01-03T09:33:01.000Z</time>
      </trkpt>
      <trkpt lat="47.53146" lon="6.76539">
        <ele>379</ele>
        <time>2016-01-03T09:33:02.000Z</time>
      </trkpt>
      <trkpt lat="47.53147" lon="6.76536">
        <ele>379</ele>
        <time>2016-01-03T09:33:03.000Z</time>
      </trkpt>
      <trkpt lat="47.53148" lon="6.76533">
        <ele>379</ele>
        <time>2016-01-03T09:33:04.000Z</time>
      </trkpt>
      <trkpt lat="47.53149" lon="6.76529">
        <ele>379</ele>
        <time>2016-01-03T09:33:05.000Z</time>
      </trkpt>
      <trkpt lat="47.5315" lon="6.76525">
        <ele>379</ele>
        <time>2016-01-03T09:33:06.000Z</time>
      </trkpt>
      <trkpt lat="47.53152" lon="6.76521">
        <ele>379</ele>
        <time>2016-01-03T09:33:07.000Z</time>
      </trkpt>
      <trkpt lat="47.53153" lon="6.76518">
        <ele>379</ele>
        <time>2016-01-03T09:33:08.000Z</time>
      </trkpt>
      <trkpt lat="47.53154" lon="6.76514">
        <ele>379</ele>
        <time>2016-01-03T09:33:09.000Z</time>
      </trkpt>
      <trkpt lat="47.53155" lon="6.76511">
        <ele>379</ele>
        <time>2016-01-03T09:33:10.000Z</time>
      </trkpt>
      <trkpt lat="47.53156" lon="6.76507">
        <ele>379</ele>
        <time>2016-01-03T09:33:11.000Z</time>
      </trkpt>
      <trkpt lat="47.53158" lon="6.76505">
        <ele>379</ele>
        <time>2016-01-03T09:33:12.000Z</time>
      </trkpt>
      <trkpt lat="47.5316" lon="6.76501">
        <ele>379</ele>
        <time>2016-01-03T09:33:13.000Z</time>
      </trkpt>
      <trkpt lat="47.53161" lon="6.76498">
        <ele>379</ele>
        <time>2016-01-03T09:33:14.000Z</time>
      </trkpt>
      <trkpt lat="47.53161" lon="6.76494">
        <ele>379</ele>
        <time>2016-01-03T09:33:15.000Z</time>
      </trkpt>
      <trkpt lat="47.53162" lon="6.76489">
        <ele>379</ele>
        <time>2016-01-03T09:33:16.000Z</time>
      </trkpt>
      <trkpt lat="47.53162" lon="6.76484">
        <ele>379</ele>
        <time>2016-01-03T09:33:17.000Z</time>
      </trkpt>
      <trkpt lat="47.53163" lon="6.76479">
        <ele>379</ele>
        <time>2016-01-03T09:33:18.000Z</time>
      </trkpt>
      <trkpt lat="47.53164" lon="6.76475">
        <ele>379</ele>
        <time>2016-01-03T09:33:19.000Z</time>
      </trkpt>
      <trkpt lat="47.53166" lon="6.7647">
        <ele>379</ele>
        <time>2016-01-03T09:33:20.000Z</time>
      </trkpt>
      <trkpt lat="47.53167" lon="6.76465">
        <ele>381</ele>
        <time>2016-01-03T09:33:21.000Z</time>
      </trkpt>
      <trkpt lat="47.53168" lon="6.76461">
        <ele>382</ele>
        <time>2016-01-03T09:33:22.000Z</time>
      </trkpt>
      <trkpt lat="47.5317" lon="6.76456">
        <ele>382</ele>
        <time>2016-01-03T09:33:23.000Z</time>
      </trkpt>
      <trkpt lat="47.53171" lon="6.76452">
        <ele>382</ele>
        <time>2016-01-03T09:33:24.000Z</time>
      </trkpt>
      <trkpt lat="47.53172" lon="6.76448">
        <ele>382</ele>
        <time>2016-01-03T09:33:25.000Z</time>
      </trkpt>
      <trkpt lat="47.53173" lon="6.76444">
        <ele>382</ele>
        <time>2016-01-03T09:33:26.000Z</time>
      </trkpt>
      <trkpt lat="47.53174" lon="6.76441">
        <ele>382</ele>
        <time>2016-01-03T09:33:27.000Z</time>
      </trkpt>
      <trkpt lat="47.53175" lon="6.76437">
        <ele>382</ele>
        <time>2016-01-03T09:33:28.000Z</time>
      </trkpt>
      <trkpt lat="47.53176" lon="6.76434">
        <ele>382</ele>
        <time>2016-01-03T09:33:29.000Z</time>
      </trkpt>
      <trkpt lat="47.53177" lon="6.76431">
        <ele>382</ele>
        <time>2016-01-03T09:33:30.000Z</time>
      </trkpt>
      <trkpt lat="47.53179" lon="6.76427">
        <ele>382</ele>
        <time>2016-01-03T09:33:31.000Z</time>
      </trkpt>
      <trkpt lat="47.5318" lon="6.76423">
        <ele>382</ele>
        <time>2016-01-03T09:33:32.000Z</time>
      </trkpt>
      <trkpt lat="47.5318" lon="6.76419">
        <ele>382</ele>
        <time>2016-01-03T09:33:33.000Z</time>
      </trkpt>
      <trkpt lat="47.5318" lon="6.76415">
        <ele>382</ele>
        <time>2016-01-03T09:33:34.000Z</time>
      </trkpt>
      <trkpt lat="47.53181" lon="6.76411">
        <ele>382</ele>
        <time>2016-01-03T09:33:35.000Z</time>
      </trkpt>
      <trkpt lat="47.53182" lon="6.76408">
        <ele>383</ele>
        <time>2016-01-03T09:33:36.000Z</time>
      </trkpt>
      <trkpt lat="47.53183" lon="6.76405">
        <ele>383</ele>
        <time>2016-01-03T09:33:37.000Z</time>
      </trkpt>
      <trkpt lat="47.53185" lon="6.76401">
        <ele>383</ele>
        <time>2016-01-03T09:33:38.000Z</time>
      </trkpt>
      <trkpt lat="47.53186" lon="6.76397">
        <ele>383</ele>
        <time>2016-01-03T09:33:39.000Z</time>
      </trkpt>
      <trkpt lat="47.53187" lon="6.76393">
        <ele>383</ele>
        <time>2016-01-03T09:33:40.000Z</time>
      </trkpt>
      <trkpt lat="47.53188" lon="6.76389">
        <ele>383</ele>
        <time>2016-01-03T09:33:41.000Z</time>
      </trkpt>
      <trkpt lat="47.53189" lon="6.76385">
        <ele>383</ele>
        <time>2016-01-03T09:33:42.000Z</time>
      </trkpt>
      <trkpt lat="47.53191" lon="6.76381">
        <ele>383</ele>
        <time>2016-01-03T09:33:43.000Z</time>
      </trkpt>
      <trkpt lat="47.53192" lon="6.76376">
        <ele>383</ele>
        <time>2016-01-03T09:33:44.000Z</time>
      </trkpt>
      <trkpt lat="47.53193" lon="6.76371">
        <ele>383</ele>
        <time>2016-01-03T09:33:45.000Z</time>
      </trkpt>
      <trkpt lat="47.53195" lon="6.76366">
        <ele>383</ele>
        <time>2016-01-03T09:33:46.000Z</time>
      </trkpt>
      <trkpt lat="47.53196" lon="6.76361">
        <ele>383</ele>
        <time>2016-01-03T09:33:47.000Z</time>
      </trkpt>
      <trkpt lat="47.53198" lon="6.76357">
        <ele>383</ele>
        <time>2016-01-03T09:33:48.000Z</time>
      </trkpt>
      <trkpt lat="47.53199" lon="6.76352">
        <ele>383</ele>
        <time>2016-01-03T09:33:49.000Z</time>
      </trkpt>
      <trkpt lat="47.532" lon="6.76347">
        <ele>383</ele>
        <time>2016-01-03T09:33:50.000Z</time>
      </trkpt>
      <trkpt lat="47.53201" lon="6.76342">
        <ele>383</ele>
        <time>2016-01-03T09:33:51.000Z</time>
      </trkpt>
      <trkpt lat="47.53203" lon="6.76337">
        <ele>383</ele>
        <time>2016-01-03T09:33:52.000Z</time>
      </trkpt>
      <trkpt lat="47.53204" lon="6.76332">
        <ele>383</ele>
        <time>2016-01-03T09:33:53.000Z</time>
      </trkpt>
      <trkpt lat="47.53205" lon="6.76327">
        <ele>383</ele>
        <time>2016-01-03T09:33:54.000Z</time>
      </trkpt>
      <trkpt lat="47.53206" lon="6.76323">
        <ele>383</ele>
        <time>2016-01-03T09:33:55.000Z</time>
      </trkpt>
      <trkpt lat="47.53207" lon="6.76317">
        <ele>383</ele>
        <time>2016-01-03T09:33:56.000Z</time>
      </trkpt>
      <trkpt lat="47.53208" lon="6.76311">
        <ele>383</ele>
        <time>2016-01-03T09:33:57.000Z</time>
      </trkpt>
      <trkpt lat="47.53209" lon="6.76305">
        <ele>383</ele>
        <time>2016-01-03T09:33:58.000Z</time>
      </trkpt>
      <trkpt lat="47.53209" lon="6.76285">
        <ele>383</ele>
        <time>2016-01-03T09:33:59.000Z</time>
      </trkpt>
      <trkpt lat="47.53209" lon="6.7628">
        <ele>383</ele>
        <time>2016-01-03T09:34:00.000Z</time>
      </trkpt>
      <trkpt lat="47.53209" lon="6.76274">
        <ele>383</ele>
        <time>2016-01-03T09:34:01.000Z</time>
      </trkpt>
      <trkpt lat="47.5321" lon="6.76267">
        <ele>383</ele>
        <time>2016-01-03T09:34:02.000Z</time>
      </trkpt>
      <trkpt lat="47.53211" lon="6.76261">
        <ele>383</ele>
        <time>2016-01-03T09:34:03.000Z</time>
      </trkpt>
      <trkpt lat="47.53211" lon="6.76255">
        <ele>383</ele>
        <time>2016-01-03T09:34:04.000Z</time>
      </trkpt>
      <trkpt lat="47.53211" lon="6.7625">
        <ele>383</ele>
        <time>2016-01-03T09:34:05.000Z</time>
      </trkpt>
      <trkpt lat="47.53211" lon="6.76246">
        <ele>383</ele>
        <time>2016-01-03T09:34:06.000Z</time>
      </trkpt>
      <trkpt lat="47.53211" lon="6.76241">
        <ele>383</ele>
        <time>2016-01-03T09:34:07.000Z</time>
      </trkpt>
      <trkpt lat="47.5321" lon="6.76236">
        <ele>383</ele>
        <time>2016-01-03T09:34:08.000Z</time>
      </trkpt>
      <trkpt lat="47.5321" lon="6.76232">
        <ele>383</ele>
        <time>2016-01-03T09:34:09.000Z</time>
      </trkpt>
      <trkpt lat="47.53211" lon="6.76227">
        <ele>383</ele>
        <time>2016-01-03T09:34:10.000Z</time>
      </trkpt>
      <trkpt lat="47.53211" lon="6.76222">
        <ele>383</ele>
        <time>2016-01-03T09:34:11.000Z</time>
      </trkpt>
      <trkpt lat="47.53212" lon="6.76216">
        <ele>383</ele>
        <time>2016-01-03T09:34:12.000Z</time>
      </trkpt>
      <trkpt lat="47.53212" lon="6.7621">
        <ele>383</ele>
        <time>2016-01-03T09:34:13.000Z</time>
      </trkpt>
      <trkpt lat="47.53212" lon="6.76204">
        <ele>383</ele>
        <time>2016-01-03T09:34:14.000Z</time>
      </trkpt>
      <trkpt lat="47.53212" lon="6.76197">
        <ele>383</ele>
        <time>2016-01-03T09:34:15.000Z</time>
      </trkpt>
      <trkpt lat="47.53213" lon="6.76191">
        <ele>383</ele>
        <time>2016-01-03T09:34:16.000Z</time>
      </trkpt>
      <trkpt lat="47.53213" lon="6.76185">
        <ele>383</ele>
        <time>2016-01-03T09:34:17.000Z</time>
      </trkpt>
      <trkpt lat="47.53214" lon="6.76179">
        <ele>383</ele>
        <time>2016-01-03T09:34:18.000Z</time>
      </trkpt>
      <trkpt lat="47.53215" lon="6.76174">
        <ele>383</ele>
        <time>2016-01-03T09:34:19.000Z</time>
      </trkpt>
      <trkpt lat="47.53215" lon="6.76169">
        <ele>383</ele>
        <time>2016-01-03T09:34:20.000Z</time>
      </trkpt>
      <trkpt lat="47.53216" lon="6.76165">
        <ele>383</ele>
        <time>2016-01-03T09:34:21.000Z</time>
      </trkpt>
      <trkpt lat="47.53216" lon="6.76161">
        <ele>383</ele>
        <time>2016-01-03T09:34:22.000Z</time>
      </trkpt>
      <trkpt lat="47.53216" lon="6.76157">
        <ele>383</ele>
        <time>2016-01-03T09:34:23.000Z</time>
      </trkpt>
      <trkpt lat="47.53217" lon="6.76153">
        <ele>383</ele>
        <time>2016-01-03T09:34:24.000Z</time>
      </trkpt>
      <trkpt lat="47.53217" lon="6.7615">
        <ele>383</ele>
        <time>2016-01-03T09:34:25.000Z</time>
      </trkpt>
      <trkpt lat="47.53217" lon="6.76147">
        <ele>383</ele>
        <time>2016-01-03T09:34:26.000Z</time>
      </trkpt>
      <trkpt lat="47.53218" lon="6.76143">
        <ele>383</ele>
        <time>2016-01-03T09:34:27.000Z</time>
      </trkpt>
      <trkpt lat="47.53218" lon="6.7614">
        <ele>384</ele>
        <time>2016-01-03T09:34:28.000Z</time>
      </trkpt>
      <trkpt lat="47.53218" lon="6.76136">
        <ele>384</ele>
        <time>2016-01-03T09:34:29.000Z</time>
      </trkpt>
      <trkpt lat="47.53219" lon="6.76133">
        <ele>384</ele>
        <time>2016-01-03T09:34:30.000Z</time>
      </trkpt>
      <trkpt lat="47.5322" lon="6.76129">
        <ele>384</ele>
        <time>2016-01-03T09:34:31.000Z</time>
      </trkpt>
      <trkpt lat="47.5322" lon="6.76126">
        <ele>384</ele>
        <time>2016-01-03T09:34:32.000Z</time>
      </trkpt>
      <trkpt lat="47.53221" lon="6.76122">
        <ele>384</ele>
        <time>2016-01-03T09:34:33.000Z</time>
      </trkpt>
      <trkpt lat="47.53221" lon="6.76118">
        <ele>384</ele>
        <time>2016-01-03T09:34:34.000Z</time>
      </trkpt>
      <trkpt lat="47.53222" lon="6.76115">
        <ele>384</ele>
        <time>2016-01-03T09:34:35.000Z</time>
      </trkpt>
      <trkpt lat="47.53221" lon="6.76111">
        <ele>384</ele>
        <time>2016-01-03T09:34:36.000Z</time>
      </trkpt>
      <trkpt lat="47.53221" lon="6.76105">
        <ele>384</ele>
        <time>2016-01-03T09:34:38.000Z</time>
      </trkpt>
      <trkpt lat="47.5322" lon="6.76103">
        <ele>384</ele>
        <time>2016-01-03T09:34:39.000Z</time>
      </trkpt>
      <trkpt lat="47.5322" lon="6.76099">
        <ele>384</ele>
        <time>2016-01-03T09:34:41.000Z</time>
      </trkpt>
      <trkpt lat="47.5322" lon="6.76096">
        <ele>384</ele>
        <time>2016-01-03T09:34:42.000Z</time>
      </trkpt>
      <trkpt lat="47.53221" lon="6.76091">
        <ele>384</ele>
        <time>2016-01-03T09:34:44.000Z</time>
      </trkpt>
      <trkpt lat="47.5322" lon="6.76088">
        <ele>384</ele>
        <time>2016-01-03T09:34:45.000Z</time>
      </trkpt>
      <trkpt lat="47.5322" lon="6.76084">
        <ele>384</ele>
        <time>2016-01-03T09:34:46.000Z</time>
      </trkpt>
      <trkpt lat="47.5322" lon="6.7608">
        <ele>384</ele>
        <time>2016-01-03T09:34:47.000Z</time>
      </trkpt>
      <trkpt lat="47.53219" lon="6.76076">
        <ele>384</ele>
        <time>2016-01-03T09:34:48.000Z</time>
      </trkpt>
      <trkpt lat="47.53218" lon="6.76071">
        <ele>384</ele>
        <time>2016-01-03T09:34:49.000Z</time>
      </trkpt>
      <trkpt lat="47.53218" lon="6.76067">
        <ele>384</ele>
        <time>2016-01-03T09:34:50.000Z</time>
      </trkpt>
      <trkpt lat="47.53217" lon="6.76063">
        <ele>384</ele>
        <time>2016-01-03T09:34:51.000Z</time>
      </trkpt>
      <trkpt lat="47.53217" lon="6.76059">
        <ele>384</ele>
        <time>2016-01-03T09:34:52.000Z</time>
      </trkpt>
      <trkpt lat="47.53217" lon="6.76055">
        <ele>384</ele>
        <time>2016-01-03T09:34:53.000Z</time>
      </trkpt>
      <trkpt lat="47.53217" lon="6.76052">
        <ele>384</ele>
        <time>2016-01-03T09:34:54.000Z</time>
      </trkpt>
      <trkpt lat="47.53217" lon="6.76048">
        <ele>384</ele>
        <time>2016-01-03T09:34:55.000Z</time>
      </trkpt>
      <trkpt lat="47.53217" lon="6.76044">
        <ele>384</ele>
        <time>2016-01-03T09:34:56.000Z</time>
      </trkpt>
      <trkpt lat="47.53216" lon="6.76041">
        <ele>384</ele>
        <time>2016-01-03T09:34:57.000Z</time>
      </trkpt>
      <trkpt lat="47.53216" lon="6.76036">
        <ele>384</ele>
        <time>2016-01-03T09:34:58.000Z</time>
      </trkpt>
      <trkpt lat="47.53216" lon="6.76032">
        <ele>384</ele>
        <time>2016-01-03T09:34:59.000Z</time>
      </trkpt>
      <trkpt lat="47.53215" lon="6.76027">
        <ele>384</ele>
        <time>2016-01-03T09:35:00.000Z</time>
      </trkpt>
      <trkpt lat="47.53215" lon="6.76023">
        <ele>384</ele>
        <time>2016-01-03T09:35:01.000Z</time>
      </trkpt>
      <trkpt lat="47.53215" lon="6.76018">
        <ele>384</ele>
        <time>2016-01-03T09:35:02.000Z</time>
      </trkpt>
      <trkpt lat="47.53215" lon="6.76014">
        <ele>384</ele>
        <time>2016-01-03T09:35:03.000Z</time>
      </trkpt>
      <trkpt lat="47.53214" lon="6.76009">
        <ele>384</ele>
        <time>2016-01-03T09:35:04.000Z</time>
      </trkpt>
      <trkpt lat="47.53214" lon="6.76005">
        <ele>384</ele>
        <time>2016-01-03T09:35:05.000Z</time>
      </trkpt>
      <trkpt lat="47.53214" lon="6.76001">
        <ele>384</ele>
        <time>2016-01-03T09:35:06.000Z</time>
      </trkpt>
      <trkpt lat="47.53213" lon="6.75996">
        <ele>384</ele>
        <time>2016-01-03T09:35:07.000Z</time>
      </trkpt>
      <trkpt lat="47.53213" lon="6.75991">
        <ele>384</ele>
        <time>2016-01-03T09:35:08.000Z</time>
      </trkpt>
      <trkpt lat="47.53212" lon="6.75986">
        <ele>384</ele>
        <time>2016-01-03T09:35:09.000Z</time>
      </trkpt>
      <trkpt lat="47.53211" lon="6.7598">
        <ele>384</ele>
        <time>2016-01-03T09:35:10.000Z</time>
      </trkpt>
      <trkpt lat="47.53211" lon="6.75975">
        <ele>384</ele>
        <time>2016-01-03T09:35:11.000Z</time>
      </trkpt>
      <trkpt lat="47.5321" lon="6.75969">
        <ele>384</ele>
        <time>2016-01-03T09:35:12.000Z</time>
      </trkpt>
      <trkpt lat="47.53209" lon="6.75964">
        <ele>384</ele>
        <time>2016-01-03T09:35:13.000Z</time>
      </trkpt>
      <trkpt lat="47.53208" lon="6.75958">
        <ele>384</ele>
        <time>2016-01-03T09:35:14.000Z</time>
      </trkpt>
      <trkpt lat="47.53207" lon="6.75954">
        <ele>384</ele>
        <time>2016-01-03T09:35:15.000Z</time>
      </trkpt>
      <trkpt lat="47.53206" lon="6.75949">
        <ele>384</ele>
        <time>2016-01-03T09:35:16.000Z</time>
      </trkpt>
      <trkpt lat="47.53206" lon="6.75944">
        <ele>384</ele>
        <time>2016-01-03T09:35:17.000Z</time>
      </trkpt>
      <trkpt lat="47.53205" lon="6.75939">
        <ele>384</ele>
        <time>2016-01-03T09:35:18.000Z</time>
      </trkpt>
      <trkpt lat="47.53204" lon="6.75933">
        <ele>384</ele>
        <time>2016-01-03T09:35:19.000Z</time>
      </trkpt>
      <trkpt lat="47.53204" lon="6.75928">
        <ele>384</ele>
        <time>2016-01-03T09:35:20.000Z</time>
      </trkpt>
      <trkpt lat="47.53204" lon="6.75923">
        <ele>384</ele>
        <time>2016-01-03T09:35:21.000Z</time>
      </trkpt>
      <trkpt lat="47.53203" lon="6.75919">
        <ele>384</ele>
        <time>2016-01-03T09:35:22.000Z</time>
      </trkpt>
      <trkpt lat="47.53203" lon="6.75914">
        <ele>383</ele>
        <time>2016-01-03T09:35:23.000Z</time>
      </trkpt>
      <trkpt lat="47.53202" lon="6.75909">
        <ele>383</ele>
        <time>2016-01-03T09:35:24.000Z</time>
      </trkpt>
      <trkpt lat="47.53202" lon="6.75904">
        <ele>383</ele>
        <time>2016-01-03T09:35:25.000Z</time>
      </trkpt>
      <trkpt lat="47.53202" lon="6.75898">
        <ele>382</ele>
        <time>2016-01-03T09:35:26.000Z</time>
      </trkpt>
      <trkpt lat="47.53202" lon="6.75893">
        <ele>382</ele>
        <time>2016-01-03T09:35:27.000Z</time>
      </trkpt>
      <trkpt lat="47.53202" lon="6.75888">
        <ele>382</ele>
        <time>2016-01-03T09:35:28.000Z</time>
      </trkpt>
      <trkpt lat="47.53202" lon="6.75884">
        <ele>382</ele>
        <time>2016-01-03T09:35:29.000Z</time>
      </trkpt>
      <trkpt lat="47.53203" lon="6.75879">
        <ele>382</ele>
        <time>2016-01-03T09:35:30.000Z</time>
      </trkpt>
      <trkpt lat="47.53203" lon="6.75875">
        <ele>382</ele>
        <time>2016-01-03T09:35:31.000Z</time>
      </trkpt>
      <trkpt lat="47.53203" lon="6.7587">
        <ele>382</ele>
        <time>2016-01-03T09:35:32.000Z</time>
      </trkpt>
      <trkpt lat="47.53203" lon="6.75866">
        <ele>382</ele>
        <time>2016-01-03T09:35:33.000Z</time>
      </trkpt>
      <trkpt lat="47.53204" lon="6.75862">
        <ele>382</ele>
        <time>2016-01-03T09:35:34.000Z</time>
      </trkpt>
      <trkpt lat="47.53204" lon="6.75857">
        <ele>381</ele>
        <time>2016-01-03T09:35:35.000Z</time>
      </trkpt>
      <trkpt lat="47.53204" lon="6.75852">
        <ele>381</ele>
        <time>2016-01-03T09:35:36.000Z</time>
      </trkpt>
      <trkpt lat="47.53205" lon="6.75846">
        <ele>381</ele>
        <time>2016-01-03T09:35:37.000Z</time>
      </trkpt>
      <trkpt lat="47.53205" lon="6.75841">
        <ele>381</ele>
        <time>2016-01-03T09:35:38.000Z</time>
      </trkpt>
      <trkpt lat="47.53204" lon="6.75835">
        <ele>381</ele>
        <time>2016-01-03T09:35:39.000Z</time>
      </trkpt>
      <trkpt lat="47.53204" lon="6.75831">
        <ele>378</ele>
        <time>2016-01-03T09:35:40.000Z</time>
      </trkpt>
      <trkpt lat="47.53204" lon="6.75827">
        <ele>378</ele>
        <time>2016-01-03T09:35:41.000Z</time>
      </trkpt>
      <trkpt lat="47.53204" lon="6.75822">
        <ele>378</ele>
        <time>2016-01-03T09:35:42.000Z</time>
      </trkpt>
      <trkpt lat="47.53205" lon="6.75818">
        <ele>378</ele>
        <time>2016-01-03T09:35:43.000Z</time>
      </trkpt>
      <trkpt lat="47.53206" lon="6.75813">
        <ele>378</ele>
        <time>2016-01-03T09:35:44.000Z</time>
      </trkpt>
      <trkpt lat="47.53207" lon="6.75808">
        <ele>378</ele>
        <time>2016-01-03T09:35:45.000Z</time>
      </trkpt>
      <trkpt lat="47.53207" lon="6.75802">
        <ele>378</ele>
        <time>2016-01-03T09:35:46.000Z</time>
      </trkpt>
      <trkpt lat="47.53208" lon="6.75796">
        <ele>377</ele>
        <time>2016-01-03T09:35:47.000Z</time>
      </trkpt>
      <trkpt lat="47.53209" lon="6.7579">
        <ele>377</ele>
        <time>2016-01-03T09:35:48.000Z</time>
      </trkpt>
      <trkpt lat="47.53209" lon="6.75784">
        <ele>377</ele>
        <time>2016-01-03T09:35:49.000Z</time>
      </trkpt>
      <trkpt lat="47.5321" lon="6.75779">
        <ele>377</ele>
        <time>2016-01-03T09:35:50.000Z</time>
      </trkpt>
      <trkpt lat="47.53211" lon="6.75774">
        <ele>377</ele>
        <time>2016-01-03T09:35:51.000Z</time>
      </trkpt>
      <trkpt lat="47.53211" lon="6.75768">
        <ele>377</ele>
        <time>2016-01-03T09:35:52.000Z</time>
      </trkpt>
      <trkpt lat="47.53212" lon="6.75761">
        <ele>377</ele>
        <time>2016-01-03T09:35:53.000Z</time>
      </trkpt>
      <trkpt lat="47.53213" lon="6.75755">
        <ele>377</ele>
        <time>2016-01-03T09:35:54.000Z</time>
      </trkpt>
      <trkpt lat="47.53214" lon="6.75748">
        <ele>375</ele>
        <time>2016-01-03T09:35:55.000Z</time>
      </trkpt>
      <trkpt lat="47.53218" lon="6.75731">
        <ele>375</ele>
        <time>2016-01-03T09:35:56.000Z</time>
      </trkpt>
      <trkpt lat="47.53219" lon="6.75722">
        <ele>375</ele>
        <time>2016-01-03T09:35:57.000Z</time>
      </trkpt>
      <trkpt lat="47.5322" lon="6.75713">
        <ele>375</ele>
        <time>2016-01-03T09:35:58.000Z</time>
      </trkpt>
      <trkpt lat="47.53222" lon="6.75705">
        <ele>375</ele>
        <time>2016-01-03T09:35:59.000Z</time>
      </trkpt>
      <trkpt lat="47.53223" lon="6.75698">
        <ele>375</ele>
        <time>2016-01-03T09:36:00.000Z</time>
      </trkpt>
      <trkpt lat="47.53225" lon="6.75692">
        <ele>375</ele>
        <time>2016-01-03T09:36:01.000Z</time>
      </trkpt>
      <trkpt lat="47.53225" lon="6.75685">
        <ele>375</ele>
        <time>2016-01-03T09:36:02.000Z</time>
      </trkpt>
      <trkpt lat="47.53224" lon="6.75679">
        <ele>375</ele>
        <time>2016-01-03T09:36:03.000Z</time>
      </trkpt>
      <trkpt lat="47.53224" lon="6.75674">
        <ele>375</ele>
        <time>2016-01-03T09:36:04.000Z</time>
      </trkpt>
      <trkpt lat="47.53226" lon="6.75669">
        <ele>375</ele>
        <time>2016-01-03T09:36:06.000Z</time>
      </trkpt>
      <trkpt lat="47.53227" lon="6.75667">
        <ele>375</ele>
        <time>2016-01-03T09:36:07.000Z</time>
      </trkpt>
      <trkpt lat="47.53229" lon="6.75662">
        <ele>378</ele>
        <time>2016-01-03T09:36:29.000Z</time>
      </trkpt>
      <trkpt lat="47.53229" lon="6.75661">
        <ele>378</ele>
        <time>2016-01-03T09:36:30.000Z</time>
      </trkpt>
      <trkpt lat="47.53229" lon="6.75655">
        <ele>378</ele>
        <time>2016-01-03T09:36:44.000Z</time>
      </trkpt>
      <trkpt lat="47.5323" lon="6.75653">
        <ele>378</ele>
        <time>2016-01-03T09:36:45.000Z</time>
      </trkpt>
      <trkpt lat="47.53232" lon="6.75648">
        <ele>378</ele>
        <time>2016-01-03T09:36:49.000Z</time>
      </trkpt>
      <trkpt lat="47.53233" lon="6.75647">
        <ele>378</ele>
        <time>2016-01-03T09:36:50.000Z</time>
      </trkpt>
      <trkpt lat="47.53235" lon="6.75643">
        <ele>378</ele>
        <time>2016-01-03T09:36:52.000Z</time>
      </trkpt>
      <trkpt lat="47.53236" lon="6.75641">
        <ele>379</ele>
        <time>2016-01-03T09:36:53.000Z</time>
      </trkpt>
      <trkpt lat="47.53238" lon="6.75636">
        <ele>379</ele>
        <time>2016-01-03T09:36:55.000Z</time>
      </trkpt>
      <trkpt lat="47.53239" lon="6.75633">
        <ele>379</ele>
        <time>2016-01-03T09:36:56.000Z</time>
      </trkpt>
      <trkpt lat="47.53241" lon="6.7563">
        <ele>379</ele>
        <time>2016-01-03T09:36:58.000Z</time>
      </trkpt>
      <trkpt lat="47.53242" lon="6.75628">
        <ele>379</ele>
        <time>2016-01-03T09:36:59.000Z</time>
      </trkpt>
      <trkpt lat="47.53245" lon="6.75625">
        <ele>380</ele>
        <time>2016-01-03T09:37:01.000Z</time>
      </trkpt>
      <trkpt lat="47.53246" lon="6.75623">
        <ele>380</ele>
        <time>2016-01-03T09:37:02.000Z</time>
      </trkpt>
      <trkpt lat="47.53247" lon="6.75619">
        <ele>380</ele>
        <time>2016-01-03T09:37:04.000Z</time>
      </trkpt>
      <trkpt lat="47.53248" lon="6.75617">
        <ele>380</ele>
        <time>2016-01-03T09:37:05.000Z</time>
      </trkpt>
      <trkpt lat="47.53249" lon="6.75612">
        <ele>381</ele>
        <time>2016-01-03T09:37:07.000Z</time>
      </trkpt>
      <trkpt lat="47.53251" lon="6.7561">
        <ele>383</ele>
        <time>2016-01-03T09:37:08.000Z</time>
      </trkpt>
      <trkpt lat="47.53253" lon="6.75606">
        <ele>384</ele>
        <time>2016-01-03T09:37:11.000Z</time>
      </trkpt>
      <trkpt lat="47.53253" lon="6.75604">
        <ele>384</ele>
        <time>2016-01-03T09:37:12.000Z</time>
      </trkpt>
      <trkpt lat="47.53256" lon="6.756">
        <ele>384</ele>
        <time>2016-01-03T09:37:16.000Z</time>
      </trkpt>
      <trkpt lat="47.53257" lon="6.75599">
        <ele>384</ele>
        <time>2016-01-03T09:37:17.000Z</time>
      </trkpt>
      <trkpt lat="47.5326" lon="6.75596">
        <ele>384</ele>
        <time>2016-01-03T09:37:20.000Z</time>
      </trkpt>
      <trkpt lat="47.53261" lon="6.75594">
        <ele>384</ele>
        <time>2016-01-03T09:37:21.000Z</time>
      </trkpt>
      <trkpt lat="47.53263" lon="6.75591">
        <ele>384</ele>
        <time>2016-01-03T09:37:24.000Z</time>
      </trkpt>
      <trkpt lat="47.53264" lon="6.7559">
        <ele>384</ele>
        <time>2016-01-03T09:37:25.000Z</time>
      </trkpt>
      <trkpt lat="47.53266" lon="6.75586">
        <ele>384</ele>
        <time>2016-01-03T09:37:28.000Z</time>
      </trkpt>
      <trkpt lat="47.53267" lon="6.75584">
        <ele>384</ele>
        <time>2016-01-03T09:37:29.000Z</time>
      </trkpt>
      <trkpt lat="47.53269" lon="6.75579">
        <ele>389</ele>
        <time>2016-01-03T09:37:32.000Z</time>
      </trkpt>
      <trkpt lat="47.53269" lon="6.75577">
        <ele>389</ele>
        <time>2016-01-03T09:37:33.000Z</time>
      </trkpt>
      <trkpt lat="47.53271" lon="6.75573">
        <ele>389</ele>
        <time>2016-01-03T09:37:35.000Z</time>
      </trkpt>
      <trkpt lat="47.53271" lon="6.75571">
        <ele>389</ele>
        <time>2016-01-03T09:37:36.000Z</time>
      </trkpt>
      <trkpt lat="47.53274" lon="6.75566">
        <ele>390</ele>
        <time>2016-01-03T09:37:39.000Z</time>
      </trkpt>
      <trkpt lat="47.53274" lon="6.75564">
        <ele>390</ele>
        <time>2016-01-03T09:37:40.000Z</time>
      </trkpt>
      <trkpt lat="47.53276" lon="6.75558">
        <ele>391</ele>
        <time>2016-01-03T09:37:43.000Z</time>
      </trkpt>
      <trkpt lat="47.53277" lon="6.75557">
        <ele>391</ele>
        <time>2016-01-03T09:37:44.000Z</time>
      </trkpt>
      <trkpt lat="47.5328" lon="6.75554">
        <ele>391</ele>
        <time>2016-01-03T09:37:47.000Z</time>
      </trkpt>
      <trkpt lat="47.53281" lon="6.75553">
        <ele>391</ele>
        <time>2016-01-03T09:37:48.000Z</time>
      </trkpt>
      <trkpt lat="47.53283" lon="6.75549">
        <ele>392</ele>
        <time>2016-01-03T09:37:51.000Z</time>
      </trkpt>
      <trkpt lat="47.53284" lon="6.75547">
        <ele>392</ele>
        <time>2016-01-03T09:37:52.000Z</time>
      </trkpt>
      <trkpt lat="47.53287" lon="6.75543">
        <ele>392</ele>
        <time>2016-01-03T09:37:55.000Z</time>
      </trkpt>
      <trkpt lat="47.53289" lon="6.75542">
        <ele>392</ele>
        <time>2016-01-03T09:37:56.000Z</time>
      </trkpt>
      <trkpt lat="47.53292" lon="6.75539">
        <ele>392</ele>
        <time>2016-01-03T09:37:59.000Z</time>
      </trkpt>
      <trkpt lat="47.53293" lon="6.75538">
        <ele>393</ele>
        <time>2016-01-03T09:38:00.000Z</time>
      </trkpt>
      <trkpt lat="47.53296" lon="6.75534">
        <ele>393</ele>
        <time>2016-01-03T09:38:03.000Z</time>
      </trkpt>
      <trkpt lat="47.53297" lon="6.75533">
        <ele>393</ele>
        <time>2016-01-03T09:38:04.000Z</time>
      </trkpt>
      <trkpt lat="47.53299" lon="6.75529">
        <ele>393</ele>
        <time>2016-01-03T09:38:07.000Z</time>
      </trkpt>
      <trkpt lat="47.533" lon="6.75528">
        <ele>393</ele>
        <time>2016-01-03T09:38:08.000Z</time>
      </trkpt>
      <trkpt lat="47.53303" lon="6.75523">
        <ele>394</ele>
        <time>2016-01-03T09:38:11.000Z</time>
      </trkpt>
      <trkpt lat="47.53304" lon="6.75522">
        <ele>394</ele>
        <time>2016-01-03T09:38:12.000Z</time>
      </trkpt>
      <trkpt lat="47.53306" lon="6.75519">
        <ele>394</ele>
        <time>2016-01-03T09:38:14.000Z</time>
      </trkpt>
      <trkpt lat="47.53307" lon="6.75518">
        <ele>394</ele>
        <time>2016-01-03T09:38:15.000Z</time>
      </trkpt>
      <trkpt lat="47.53311" lon="6.75516">
        <ele>395</ele>
        <time>2016-01-03T09:38:18.000Z</time>
      </trkpt>
      <trkpt lat="47.53313" lon="6.75515">
        <ele>395</ele>
        <time>2016-01-03T09:38:19.000Z</time>
      </trkpt>
      <trkpt lat="47.53316" lon="6.75511">
        <ele>396</ele>
        <time>2016-01-03T09:38:22.000Z</time>
      </trkpt>
      <trkpt lat="47.53318" lon="6.75511">
        <ele>396</ele>
        <time>2016-01-03T09:38:23.000Z</time>
      </trkpt>
      <trkpt lat="47.53321" lon="6.75507">
        <ele>397</ele>
        <time>2016-01-03T09:38:26.000Z</time>
      </trkpt>
      <trkpt lat="47.53323" lon="6.75506">
        <ele>397</ele>
        <time>2016-01-03T09:38:27.000Z</time>
      </trkpt>
      <trkpt lat="47.53326" lon="6.75502">
        <ele>398</ele>
        <time>2016-01-03T09:38:30.000Z</time>
      </trkpt>
      <trkpt lat="47.53327" lon="6.75501">
        <ele>398</ele>
        <time>2016-01-03T09:38:31.000Z</time>
      </trkpt>
      <trkpt lat="47.53331" lon="6.755">
        <ele>400</ele>
        <time>2016-01-03T09:38:34.000Z</time>
      </trkpt>
      <trkpt lat="47.53332" lon="6.75499">
        <ele>400</ele>
        <time>2016-01-03T09:38:35.000Z</time>
      </trkpt>
      <trkpt lat="47.53336" lon="6.75496">
        <ele>401</ele>
        <time>2016-01-03T09:38:38.000Z</time>
      </trkpt>
      <trkpt lat="47.53337" lon="6.75495">
        <ele>401</ele>
        <time>2016-01-03T09:38:39.000Z</time>
      </trkpt>
      <trkpt lat="47.53341" lon="6.75492">
        <ele>401</ele>
        <time>2016-01-03T09:38:42.000Z</time>
      </trkpt>
      <trkpt lat="47.53343" lon="6.75492">
        <ele>401</ele>
        <time>2016-01-03T09:38:43.000Z</time>
      </trkpt>
      <trkpt lat="47.53347" lon="6.75489">
        <ele>401</ele>
        <time>2016-01-03T09:38:46.000Z</time>
      </trkpt>
      <trkpt lat="47.53348" lon="6.75488">
        <ele>401</ele>
        <time>2016-01-03T09:38:47.000Z</time>
      </trkpt>
      <trkpt lat="47.53352" lon="6.75484">
        <ele>402</ele>
        <time>2016-01-03T09:38:50.000Z</time>
      </trkpt>
      <trkpt lat="47.53353" lon="6.75483">
        <ele>402</ele>
        <time>2016-01-03T09:38:51.000Z</time>
      </trkpt>
      <trkpt lat="47.53356" lon="6.7548">
        <ele>402</ele>
        <time>2016-01-03T09:38:54.000Z</time>
      </trkpt>
      <trkpt lat="47.53357" lon="6.75479">
        <ele>402</ele>
        <time>2016-01-03T09:38:55.000Z</time>
      </trkpt>
      <trkpt lat="47.5336" lon="6.75476">
        <ele>402</ele>
        <time>2016-01-03T09:38:58.000Z</time>
      </trkpt>
      <trkpt lat="47.53361" lon="6.75475">
        <ele>402</ele>
        <time>2016-01-03T09:38:59.000Z</time>
      </trkpt>
      <trkpt lat="47.53365" lon="6.75473">
        <ele>402</ele>
        <time>2016-01-03T09:39:01.000Z</time>
      </trkpt>
      <trkpt lat="47.53366" lon="6.75473">
        <ele>402</ele>
        <time>2016-01-03T09:39:02.000Z</time>
      </trkpt>
      <trkpt lat="47.53369" lon="6.75471">
        <ele>402</ele>
        <time>2016-01-03T09:39:04.000Z</time>
      </trkpt>
      <trkpt lat="47.5337" lon="6.75469">
        <ele>402</ele>
        <time>2016-01-03T09:39:05.000Z</time>
      </trkpt>
      <trkpt lat="47.53373" lon="6.75465">
        <ele>403</ele>
        <time>2016-01-03T09:39:08.000Z</time>
      </trkpt>
      <trkpt lat="47.53375" lon="6.75463">
        <ele>403</ele>
        <time>2016-01-03T09:39:09.000Z</time>
      </trkpt>
      <trkpt lat="47.53377" lon="6.75462">
        <ele>403</ele>
        <time>2016-01-03T09:39:11.000Z</time>
      </trkpt>
      <trkpt lat="47.53379" lon="6.75461">
        <ele>403</ele>
        <time>2016-01-03T09:39:12.000Z</time>
      </trkpt>
      <trkpt lat="47.53382" lon="6.75461">
        <ele>403</ele>
        <time>2016-01-03T09:39:14.000Z</time>
      </trkpt>
      <trkpt lat="47.53384" lon="6.75461">
        <ele>403</ele>
        <time>2016-01-03T09:39:15.000Z</time>
      </trkpt>
      <trkpt lat="47.53387" lon="6.7546">
        <ele>403</ele>
        <time>2016-01-03T09:39:17.000Z</time>
      </trkpt>
      <trkpt lat="47.53389" lon="6.75459">
        <ele>403</ele>
        <time>2016-01-03T09:39:18.000Z</time>
      </trkpt>
      <trkpt lat="47.53392" lon="6.75456">
        <ele>403</ele>
        <time>2016-01-03T09:39:20.000Z</time>
      </trkpt>
      <trkpt lat="47.53394" lon="6.75454">
        <ele>403</ele>
        <time>2016-01-03T09:39:21.000Z</time>
      </trkpt>
      <trkpt lat="47.53397" lon="6.7545">
        <ele>403</ele>
        <time>2016-01-03T09:39:23.000Z</time>
      </trkpt>
      <trkpt lat="47.53398" lon="6.75449">
        <ele>403</ele>
        <time>2016-01-03T09:39:24.000Z</time>
      </trkpt>
      <trkpt lat="47.53402" lon="6.75446">
        <ele>403</ele>
        <time>2016-01-03T09:39:26.000Z</time>
      </trkpt>
      <trkpt lat="47.53403" lon="6.75445">
        <ele>404</ele>
        <time>2016-01-03T09:39:27.000Z</time>
      </trkpt>
      <trkpt lat="47.53407" lon="6.75442">
        <ele>404</ele>
        <time>2016-01-03T09:39:30.000Z</time>
      </trkpt>
      <trkpt lat="47.53409" lon="6.75441">
        <ele>404</ele>
        <time>2016-01-03T09:39:31.000Z</time>
      </trkpt>
      <trkpt lat="47.53412" lon="6.75437">
        <ele>404</ele>
        <time>2016-01-03T09:39:34.000Z</time>
      </trkpt>
      <trkpt lat="47.53413" lon="6.75436">
        <ele>404</ele>
        <time>2016-01-03T09:39:35.000Z</time>
      </trkpt>
      <trkpt lat="47.53416" lon="6.75434">
        <ele>404</ele>
        <time>2016-01-03T09:39:37.000Z</time>
      </trkpt>
      <trkpt lat="47.53418" lon="6.75434">
        <ele>405</ele>
        <time>2016-01-03T09:39:38.000Z</time>
      </trkpt>
      <trkpt lat="47.53421" lon="6.75432">
        <ele>405</ele>
        <time>2016-01-03T09:39:40.000Z</time>
      </trkpt>
      <trkpt lat="47.53423" lon="6.75432">
        <ele>405</ele>
        <time>2016-01-03T09:39:41.000Z</time>
      </trkpt>
      <trkpt lat="47.53427" lon="6.75431">
        <ele>405</ele>
        <time>2016-01-03T09:39:43.000Z</time>
      </trkpt>
      <trkpt lat="47.53429" lon="6.7543">
        <ele>405</ele>
        <time>2016-01-03T09:39:44.000Z</time>
      </trkpt>
      <trkpt lat="47.53433" lon="6.75427">
        <ele>405</ele>
        <time>2016-01-03T09:39:46.000Z</time>
      </trkpt>
      <trkpt lat="47.53435" lon="6.75426">
        <ele>405</ele>
        <time>2016-01-03T09:39:47.000Z</time>
      </trkpt>
      <trkpt lat="47.53438" lon="6.75423">
        <ele>405</ele>
        <time>2016-01-03T09:39:50.000Z</time>
      </trkpt>
      <trkpt lat="47.5344" lon="6.75422">
        <ele>405</ele>
        <time>2016-01-03T09:39:51.000Z</time>
      </trkpt>
      <trkpt lat="47.53443" lon="6.7542">
        <ele>405</ele>
        <time>2016-01-03T09:39:54.000Z</time>
      </trkpt>
      <trkpt lat="47.53444" lon="6.75419">
        <ele>405</ele>
        <time>2016-01-03T09:39:55.000Z</time>
      </trkpt>
      <trkpt lat="47.53448" lon="6.75417">
        <ele>405</ele>
        <time>2016-01-03T09:39:57.000Z</time>
      </trkpt>
      <trkpt lat="47.53449" lon="6.75416">
        <ele>410</ele>
        <time>2016-01-03T09:39:58.000Z</time>
      </trkpt>
      <trkpt lat="47.53452" lon="6.75414">
        <ele>410</ele>
        <time>2016-01-03T09:40:00.000Z</time>
      </trkpt>
      <trkpt lat="47.53453" lon="6.75413">
        <ele>410</ele>
        <time>2016-01-03T09:40:01.000Z</time>
      </trkpt>
      <trkpt lat="47.53457" lon="6.75409">
        <ele>410</ele>
        <time>2016-01-03T09:40:04.000Z</time>
      </trkpt>
      <trkpt lat="47.53458" lon="6.75408">
        <ele>410</ele>
        <time>2016-01-03T09:40:05.000Z</time>
      </trkpt>
      <trkpt lat="47.5346" lon="6.75405">
        <ele>410</ele>
        <time>2016-01-03T09:40:07.000Z</time>
      </trkpt>
      <trkpt lat="47.53462" lon="6.75404">
        <ele>411</ele>
        <time>2016-01-03T09:40:08.000Z</time>
      </trkpt>
      <trkpt lat="47.53464" lon="6.754">
        <ele>411</ele>
        <time>2016-01-03T09:40:10.000Z</time>
      </trkpt>
      <trkpt lat="47.53466" lon="6.75399">
        <ele>411</ele>
        <time>2016-01-03T09:40:11.000Z</time>
      </trkpt>
      <trkpt lat="47.53468" lon="6.75395">
        <ele>411</ele>
        <time>2016-01-03T09:40:13.000Z</time>
      </trkpt>
      <trkpt lat="47.53469" lon="6.75393">
        <ele>411</ele>
        <time>2016-01-03T09:40:14.000Z</time>
      </trkpt>
      <trkpt lat="47.53472" lon="6.7539">
        <ele>411</ele>
        <time>2016-01-03T09:40:16.000Z</time>
      </trkpt>
      <trkpt lat="47.53473" lon="6.75388">
        <ele>411</ele>
        <time>2016-01-03T09:40:17.000Z</time>
      </trkpt>
      <trkpt lat="47.53478" lon="6.75387">
        <ele>411</ele>
        <time>2016-01-03T09:40:19.000Z</time>
      </trkpt>
      <trkpt lat="47.5348" lon="6.75385">
        <ele>412</ele>
        <time>2016-01-03T09:40:20.000Z</time>
      </trkpt>
      <trkpt lat="47.53482" lon="6.75383">
        <ele>412</ele>
        <time>2016-01-03T09:40:21.000Z</time>
      </trkpt>
      <trkpt lat="47.53484" lon="6.75381">
        <ele>412</ele>
        <time>2016-01-03T09:40:22.000Z</time>
      </trkpt>
      <trkpt lat="47.53487" lon="6.75377">
        <ele>412</ele>
        <time>2016-01-03T09:40:24.000Z</time>
      </trkpt>
      <trkpt lat="47.53489" lon="6.75375">
        <ele>412</ele>
        <time>2016-01-03T09:40:25.000Z</time>
      </trkpt>
      <trkpt lat="47.53492" lon="6.75371">
        <ele>413</ele>
        <time>2016-01-03T09:40:27.000Z</time>
      </trkpt>
      <trkpt lat="47.53494" lon="6.75369">
        <ele>413</ele>
        <time>2016-01-03T09:40:28.000Z</time>
      </trkpt>
      <trkpt lat="47.53496" lon="6.75367">
        <ele>413</ele>
        <time>2016-01-03T09:40:29.000Z</time>
      </trkpt>
      <trkpt lat="47.53497" lon="6.75365">
        <ele>413</ele>
        <time>2016-01-03T09:40:30.000Z</time>
      </trkpt>
      <trkpt lat="47.535" lon="6.75363">
        <ele>413</ele>
        <time>2016-01-03T09:40:31.000Z</time>
      </trkpt>
      <trkpt lat="47.53502" lon="6.75361">
        <ele>415</ele>
        <time>2016-01-03T09:40:32.000Z</time>
      </trkpt>
      <trkpt lat="47.53504" lon="6.75358">
        <ele>415</ele>
        <time>2016-01-03T09:40:33.000Z</time>
      </trkpt>
      <trkpt lat="47.53506" lon="6.75356">
        <ele>415</ele>
        <time>2016-01-03T09:40:34.000Z</time>
      </trkpt>
      <trkpt lat="47.53508" lon="6.75353">
        <ele>415</ele>
        <time>2016-01-03T09:40:35.000Z</time>
      </trkpt>
      <trkpt lat="47.5351" lon="6.75352">
        <ele>415</ele>
        <time>2016-01-03T09:40:36.000Z</time>
      </trkpt>
      <trkpt lat="47.53512" lon="6.7535">
        <ele>415</ele>
        <time>2016-01-03T09:40:37.000Z</time>
      </trkpt>
      <trkpt lat="47.53514" lon="6.7535">
        <ele>415</ele>
        <time>2016-01-03T09:40:38.000Z</time>
      </trkpt>
      <trkpt lat="47.53516" lon="6.75348">
        <ele>415</ele>
        <time>2016-01-03T09:40:39.000Z</time>
      </trkpt>
      <trkpt lat="47.53518" lon="6.75347">
        <ele>415</ele>
        <time>2016-01-03T09:40:40.000Z</time>
      </trkpt>
      <trkpt lat="47.53522" lon="6.75343">
        <ele>415</ele>
        <time>2016-01-03T09:40:42.000Z</time>
      </trkpt>
      <trkpt lat="47.53523" lon="6.75341">
        <ele>415</ele>
        <time>2016-01-03T09:40:43.000Z</time>
      </trkpt>
      <trkpt lat="47.53527" lon="6.75338">
        <ele>415</ele>
        <time>2016-01-03T09:40:45.000Z</time>
      </trkpt>
      <trkpt lat="47.53529" lon="6.75337">
        <ele>415</ele>
        <time>2016-01-03T09:40:46.000Z</time>
      </trkpt>
      <trkpt lat="47.53532" lon="6.75336">
        <ele>415</ele>
        <time>2016-01-03T09:40:48.000Z</time>
      </trkpt>
      <trkpt lat="47.53534" lon="6.75335">
        <ele>415</ele>
        <time>2016-01-03T09:40:49.000Z</time>
      </trkpt>
      <trkpt lat="47.53538" lon="6.75333">
        <ele>420</ele>
        <time>2016-01-03T09:40:51.000Z</time>
      </trkpt>
      <trkpt lat="47.5354" lon="6.75332">
        <ele>421</ele>
        <time>2016-01-03T09:40:52.000Z</time>
      </trkpt>
      <trkpt lat="47.53543" lon="6.75327">
        <ele>421</ele>
        <time>2016-01-03T09:40:55.000Z</time>
      </trkpt>
      <trkpt lat="47.53544" lon="6.75325">
        <ele>421</ele>
        <time>2016-01-03T09:40:56.000Z</time>
      </trkpt>
      <trkpt lat="47.53545" lon="6.75321">
        <ele>421</ele>
        <time>2016-01-03T09:40:58.000Z</time>
      </trkpt>
      <trkpt lat="47.53546" lon="6.75319">
        <ele>421</ele>
        <time>2016-01-03T09:40:59.000Z</time>
      </trkpt>
      <trkpt lat="47.53548" lon="6.75316">
        <ele>421</ele>
        <time>2016-01-03T09:41:01.000Z</time>
      </trkpt>
      <trkpt lat="47.53549" lon="6.75314">
        <ele>421</ele>
        <time>2016-01-03T09:41:02.000Z</time>
      </trkpt>
      <trkpt lat="47.53553" lon="6.75312">
        <ele>421</ele>
        <time>2016-01-03T09:41:04.000Z</time>
      </trkpt>
      <trkpt lat="47.53554" lon="6.75311">
        <ele>421</ele>
        <time>2016-01-03T09:41:05.000Z</time>
      </trkpt>
      <trkpt lat="47.53558" lon="6.75308">
        <ele>421</ele>
        <time>2016-01-03T09:41:07.000Z</time>
      </trkpt>
      <trkpt lat="47.5356" lon="6.75306">
        <ele>421</ele>
        <time>2016-01-03T09:41:08.000Z</time>
      </trkpt>
      <trkpt lat="47.53563" lon="6.75303">
        <ele>421</ele>
        <time>2016-01-03T09:41:10.000Z</time>
      </trkpt>
      <trkpt lat="47.53565" lon="6.75302">
        <ele>421</ele>
        <time>2016-01-03T09:41:11.000Z</time>
      </trkpt>
      <trkpt lat="47.53569" lon="6.75299">
        <ele>422</ele>
        <time>2016-01-03T09:41:13.000Z</time>
      </trkpt>
      <trkpt lat="47.5357" lon="6.75298">
        <ele>422</ele>
        <time>2016-01-03T09:41:14.000Z</time>
      </trkpt>
      <trkpt lat="47.53573" lon="6.75294">
        <ele>422</ele>
        <time>2016-01-03T09:41:16.000Z</time>
      </trkpt>
      <trkpt lat="47.53575" lon="6.75292">
        <ele>422</ele>
        <time>2016-01-03T09:41:17.000Z</time>
      </trkpt>
      <trkpt lat="47.53578" lon="6.75289">
        <ele>422</ele>
        <time>2016-01-03T09:41:19.000Z</time>
      </trkpt>
      <trkpt lat="47.53579" lon="6.75288">
        <ele>422</ele>
        <time>2016-01-03T09:41:20.000Z</time>
      </trkpt>
      <trkpt lat="47.53582" lon="6.75285">
        <ele>422</ele>
        <time>2016-01-03T09:41:22.000Z</time>
      </trkpt>
      <trkpt lat="47.53584" lon="6.75284">
        <ele>424</ele>
        <time>2016-01-03T09:41:23.000Z</time>
      </trkpt>
      <trkpt lat="47.53587" lon="6.75283">
        <ele>424</ele>
        <time>2016-01-03T09:41:25.000Z</time>
      </trkpt>
      <trkpt lat="47.53588" lon="6.75283">
        <ele>424</ele>
        <time>2016-01-03T09:41:26.000Z</time>
      </trkpt>
      <trkpt lat="47.53591" lon="6.7528">
        <ele>424</ele>
        <time>2016-01-03T09:41:28.000Z</time>
      </trkpt>
      <trkpt lat="47.53592" lon="6.75278">
        <ele>424</ele>
        <time>2016-01-03T09:41:29.000Z</time>
      </trkpt>
      <trkpt lat="47.53595" lon="6.75274">
        <ele>425</ele>
        <time>2016-01-03T09:41:31.000Z</time>
      </trkpt>
      <trkpt lat="47.53596" lon="6.75272">
        <ele>425</ele>
        <time>2016-01-03T09:41:32.000Z</time>
      </trkpt>
      <trkpt lat="47.53599" lon="6.75268">
        <ele>425</ele>
        <time>2016-01-03T09:41:34.000Z</time>
      </trkpt>
      <trkpt lat="47.53599" lon="6.75266">
        <ele>425</ele>
        <time>2016-01-03T09:41:35.000Z</time>
      </trkpt>
      <trkpt lat="47.53601" lon="6.75262">
        <ele>425</ele>
        <time>2016-01-03T09:41:37.000Z</time>
      </trkpt>
      <trkpt lat="47.53601" lon="6.7526">
        <ele>425</ele>
        <time>2016-01-03T09:41:38.000Z</time>
      </trkpt>
      <trkpt lat="47.53603" lon="6.75255">
        <ele>425</ele>
        <time>2016-01-03T09:41:41.000Z</time>
      </trkpt>
      <trkpt lat="47.53605" lon="6.75254">
        <ele>425</ele>
        <time>2016-01-03T09:41:42.000Z</time>
      </trkpt>
      <trkpt lat="47.53608" lon="6.7525">
        <ele>429</ele>
        <time>2016-01-03T09:41:45.000Z</time>
      </trkpt>
      <trkpt lat="47.53609" lon="6.75248">
        <ele>429</ele>
        <time>2016-01-03T09:41:46.000Z</time>
      </trkpt>
      <trkpt lat="47.53611" lon="6.75244">
        <ele>429</ele>
        <time>2016-01-03T09:41:49.000Z</time>
      </trkpt>
      <trkpt lat="47.53612" lon="6.75243">
        <ele>429</ele>
        <time>2016-01-03T09:41:50.000Z</time>
      </trkpt>
      <trkpt lat="47.53615" lon="6.75239">
        <ele>430</ele>
        <time>2016-01-03T09:41:53.000Z</time>
      </trkpt>
      <trkpt lat="47.53616" lon="6.75238">
        <ele>430</ele>
        <time>2016-01-03T09:41:54.000Z</time>
      </trkpt>
      <trkpt lat="47.53619" lon="6.75234">
        <ele>430</ele>
        <time>2016-01-03T09:41:57.000Z</time>
      </trkpt>
      <trkpt lat="47.5362" lon="6.75232">
        <ele>430</ele>
        <time>2016-01-03T09:41:58.000Z</time>
      </trkpt>
      <trkpt lat="47.53624" lon="6.75228">
        <ele>430</ele>
        <time>2016-01-03T09:42:01.000Z</time>
      </trkpt>
      <trkpt lat="47.53625" lon="6.75227">
        <ele>430</ele>
        <time>2016-01-03T09:42:02.000Z</time>
      </trkpt>
      <trkpt lat="47.53629" lon="6.75224">
        <ele>431</ele>
        <time>2016-01-03T09:42:05.000Z</time>
      </trkpt>
      <trkpt lat="47.5363" lon="6.75223">
        <ele>431</ele>
        <time>2016-01-03T09:42:06.000Z</time>
      </trkpt>
      <trkpt lat="47.53633" lon="6.75221">
        <ele>431</ele>
        <time>2016-01-03T09:42:08.000Z</time>
      </trkpt>
      <trkpt lat="47.53635" lon="6.7522">
        <ele>431</ele>
        <time>2016-01-03T09:42:09.000Z</time>
      </trkpt>
      <trkpt lat="47.53639" lon="6.75219">
        <ele>431</ele>
        <time>2016-01-03T09:42:11.000Z</time>
      </trkpt>
      <trkpt lat="47.5364" lon="6.75218">
        <ele>431</ele>
        <time>2016-01-03T09:42:12.000Z</time>
      </trkpt>
      <trkpt lat="47.53643" lon="6.75215">
        <ele>431</ele>
        <time>2016-01-03T09:42:15.000Z</time>
      </trkpt>
      <trkpt lat="47.53644" lon="6.75214">
        <ele>431</ele>
        <time>2016-01-03T09:42:16.000Z</time>
      </trkpt>
      <trkpt lat="47.53647" lon="6.75211">
        <ele>432</ele>
        <time>2016-01-03T09:42:19.000Z</time>
      </trkpt>
      <trkpt lat="47.53648" lon="6.75209">
        <ele>432</ele>
        <time>2016-01-03T09:42:20.000Z</time>
      </trkpt>
      <trkpt lat="47.53651" lon="6.75205">
        <ele>432</ele>
        <time>2016-01-03T09:42:23.000Z</time>
      </trkpt>
      <trkpt lat="47.53653" lon="6.75204">
        <ele>432</ele>
        <time>2016-01-03T09:42:24.000Z</time>
      </trkpt>
      <trkpt lat="47.53656" lon="6.75201">
        <ele>432</ele>
        <time>2016-01-03T09:42:27.000Z</time>
      </trkpt>
      <trkpt lat="47.53656" lon="6.752">
        <ele>432</ele>
        <time>2016-01-03T09:42:28.000Z</time>
      </trkpt>
      <trkpt lat="47.53657" lon="6.75195">
        <ele>433</ele>
        <time>2016-01-03T09:42:31.000Z</time>
      </trkpt>
      <trkpt lat="47.53658" lon="6.75193">
        <ele>433</ele>
        <time>2016-01-03T09:42:32.000Z</time>
      </trkpt>
      <trkpt lat="47.53659" lon="6.75188">
        <ele>433</ele>
        <time>2016-01-03T09:42:35.000Z</time>
      </trkpt>
      <trkpt lat="47.53659" lon="6.75186">
        <ele>434</ele>
        <time>2016-01-03T09:42:36.000Z</time>
      </trkpt>
      <trkpt lat="47.53661" lon="6.75182">
        <ele>434</ele>
        <time>2016-01-03T09:42:38.000Z</time>
      </trkpt>
      <trkpt lat="47.53662" lon="6.7518">
        <ele>434</ele>
        <time>2016-01-03T09:42:39.000Z</time>
      </trkpt>
      <trkpt lat="47.53664" lon="6.75177">
        <ele>435</ele>
        <time>2016-01-03T09:42:41.000Z</time>
      </trkpt>
      <trkpt lat="47.53665" lon="6.75174">
        <ele>435</ele>
        <time>2016-01-03T09:42:42.000Z</time>
      </trkpt>
      <trkpt lat="47.53666" lon="6.75169">
        <ele>437</ele>
        <time>2016-01-03T09:42:44.000Z</time>
      </trkpt>
      <trkpt lat="47.53667" lon="6.75166">
        <ele>437</ele>
        <time>2016-01-03T09:42:45.000Z</time>
      </trkpt>
      <trkpt lat="47.53668" lon="6.7516">
        <ele>437</ele>
        <time>2016-01-03T09:42:47.000Z</time>
      </trkpt>
      <trkpt lat="47.53669" lon="6.75157">
        <ele>437</ele>
        <time>2016-01-03T09:42:48.000Z</time>
      </trkpt>
      <trkpt lat="47.53671" lon="6.75152">
        <ele>437</ele>
        <time>2016-01-03T09:42:50.000Z</time>
      </trkpt>
      <trkpt lat="47.53672" lon="6.7515">
        <ele>437</ele>
        <time>2016-01-03T09:42:51.000Z</time>
      </trkpt>
      <trkpt lat="47.53673" lon="6.75146">
        <ele>437</ele>
        <time>2016-01-03T09:42:53.000Z</time>
      </trkpt>
      <trkpt lat="47.53674" lon="6.75144">
        <ele>437</ele>
        <time>2016-01-03T09:42:54.000Z</time>
      </trkpt>
      <trkpt lat="47.53675" lon="6.75139">
        <ele>438</ele>
        <time>2016-01-03T09:42:56.000Z</time>
      </trkpt>
      <trkpt lat="47.53675" lon="6.75137">
        <ele>438</ele>
        <time>2016-01-03T09:42:57.000Z</time>
      </trkpt>
      <trkpt lat="47.53677" lon="6.75133">
        <ele>438</ele>
        <time>2016-01-03T09:42:59.000Z</time>
      </trkpt>
      <trkpt lat="47.53678" lon="6.75131">
        <ele>438</ele>
        <time>2016-01-03T09:43:00.000Z</time>
      </trkpt>
      <trkpt lat="47.5368" lon="6.75127">
        <ele>438</ele>
        <time>2016-01-03T09:43:02.000Z</time>
      </trkpt>
      <trkpt lat="47.53682" lon="6.75125">
        <ele>438</ele>
        <time>2016-01-03T09:43:03.000Z</time>
      </trkpt>
      <trkpt lat="47.53684" lon="6.7512">
        <ele>438</ele>
        <time>2016-01-03T09:43:05.000Z</time>
      </trkpt>
      <trkpt lat="47.53685" lon="6.75118">
        <ele>438</ele>
        <time>2016-01-03T09:43:06.000Z</time>
      </trkpt>
      <trkpt lat="47.53686" lon="6.75113">
        <ele>438</ele>
        <time>2016-01-03T09:43:08.000Z</time>
      </trkpt>
      <trkpt lat="47.53687" lon="6.75111">
        <ele>438</ele>
        <time>2016-01-03T09:43:09.000Z</time>
      </trkpt>
      <trkpt lat="47.53689" lon="6.75105">
        <ele>438</ele>
        <time>2016-01-03T09:43:11.000Z</time>
      </trkpt>
      <trkpt lat="47.5369" lon="6.75102">
        <ele>438</ele>
        <time>2016-01-03T09:43:12.000Z</time>
      </trkpt>
      <trkpt lat="47.53692" lon="6.75099">
        <ele>438</ele>
        <time>2016-01-03T09:43:13.000Z</time>
      </trkpt>
      <trkpt lat="47.53693" lon="6.75096">
        <ele>438</ele>
        <time>2016-01-03T09:43:14.000Z</time>
      </trkpt>
      <trkpt lat="47.53696" lon="6.75091">
        <ele>438</ele>
        <time>2016-01-03T09:43:16.000Z</time>
      </trkpt>
      <trkpt lat="47.53697" lon="6.75088">
        <ele>438</ele>
        <time>2016-01-03T09:43:17.000Z</time>
      </trkpt>
      <trkpt lat="47.53699" lon="6.75086">
        <ele>438</ele>
        <time>2016-01-03T09:43:18.000Z</time>
      </trkpt>
      <trkpt lat="47.53701" lon="6.75084">
        <ele>438</ele>
        <time>2016-01-03T09:43:19.000Z</time>
      </trkpt>
      <trkpt lat="47.53704" lon="6.75082">
        <ele>438</ele>
        <time>2016-01-03T09:43:20.000Z</time>
      </trkpt>
      <trkpt lat="47.53706" lon="6.75078">
        <ele>437</ele>
        <time>2016-01-03T09:43:21.000Z</time>
      </trkpt>
      <trkpt lat="47.53708" lon="6.75075">
        <ele>437</ele>
        <time>2016-01-03T09:43:22.000Z</time>
      </trkpt>
      <trkpt lat="47.53711" lon="6.75072">
        <ele>437</ele>
        <time>2016-01-03T09:43:23.000Z</time>
      </trkpt>
      <trkpt lat="47.53713" lon="6.75068">
        <ele>437</ele>
        <time>2016-01-03T09:43:24.000Z</time>
      </trkpt>
      <trkpt lat="47.53715" lon="6.75064">
        <ele>437</ele>
        <time>2016-01-03T09:43:25.000Z</time>
      </trkpt>
      <trkpt lat="47.53717" lon="6.7506">
        <ele>437</ele>
        <time>2016-01-03T09:43:26.000Z</time>
      </trkpt>
      <trkpt lat="47.53719" lon="6.75056">
        <ele>437</ele>
        <time>2016-01-03T09:43:27.000Z</time>
      </trkpt>
      <trkpt lat="47.53722" lon="6.75051">
        <ele>437</ele>
        <time>2016-01-03T09:43:28.000Z</time>
      </trkpt>
      <trkpt lat="47.53724" lon="6.75046">
        <ele>437</ele>
        <time>2016-01-03T09:43:29.000Z</time>
      </trkpt>
      <trkpt lat="47.53726" lon="6.75041">
        <ele>436</ele>
        <time>2016-01-03T09:43:30.000Z</time>
      </trkpt>
      <trkpt lat="47.53728" lon="6.75037">
        <ele>436</ele>
        <time>2016-01-03T09:43:31.000Z</time>
      </trkpt>
      <trkpt lat="47.53725" lon="6.75031">
        <ele>436</ele>
        <time>2016-01-03T09:43:40.000Z</time>
      </trkpt>
      <trkpt lat="47.53724" lon="6.75032">
        <ele>436</ele>
        <time>2016-01-03T09:43:41.000Z</time>
      </trkpt>
      <trkpt lat="47.53721" lon="6.75036">
        <ele>437</ele>
        <time>2016-01-03T09:43:44.000Z</time>
      </trkpt>
      <trkpt lat="47.53722" lon="6.75038">
        <ele>437</ele>
        <time>2016-01-03T09:43:45.000Z</time>
      </trkpt>
      <trkpt lat="47.53724" lon="6.75043">
        <ele>436</ele>
        <time>2016-01-03T09:43:47.000Z</time>
      </trkpt>
      <trkpt lat="47.53725" lon="6.75044">
        <ele>436</ele>
        <time>2016-01-03T09:43:48.000Z</time>
      </trkpt>
      <trkpt lat="47.53728" lon="6.75049">
        <ele>436</ele>
        <time>2016-01-03T09:43:51.000Z</time>
      </trkpt>
      <trkpt lat="47.53729" lon="6.75051">
        <ele>436</ele>
        <time>2016-01-03T09:43:52.000Z</time>
      </trkpt>
      <trkpt lat="47.53729" lon="6.75058">
        <ele>436</ele>
        <time>2016-01-03T09:44:45.000Z</time>
      </trkpt>
      <trkpt lat="47.53729" lon="6.75058">
        <ele>436</ele>
        <time>2016-01-03T09:44:46.000Z</time>
      </trkpt>
      <trkpt lat="47.53729" lon="6.75051">
        <ele>436</ele>
        <time>2016-01-03T09:46:51.000Z</time>
      </trkpt>
      <trkpt lat="47.5373" lon="6.75048">
        <ele>436</ele>
        <time>2016-01-03T09:46:52.000Z</time>
      </trkpt>
      <trkpt lat="47.53731" lon="6.75045">
        <ele>436</ele>
        <time>2016-01-03T09:46:53.000Z</time>
      </trkpt>
      <trkpt lat="47.53733" lon="6.75041">
        <ele>436</ele>
        <time>2016-01-03T09:46:54.000Z</time>
      </trkpt>
      <trkpt lat="47.53735" lon="6.75037">
        <ele>436</ele>
        <time>2016-01-03T09:46:55.000Z</time>
      </trkpt>
      <trkpt lat="47.53742" lon="6.75026">
        <ele>435</ele>
        <time>2016-01-03T09:46:56.000Z</time>
      </trkpt>
      <trkpt lat="47.53744" lon="6.75021">
        <ele>435</ele>
        <time>2016-01-03T09:46:57.000Z</time>
      </trkpt>
      <trkpt lat="47.53746" lon="6.75016">
        <ele>434</ele>
        <time>2016-01-03T09:46:58.000Z</time>
      </trkpt>
      <trkpt lat="47.53747" lon="6.75012">
        <ele>434</ele>
        <time>2016-01-03T09:46:59.000Z</time>
      </trkpt>
      <trkpt lat="47.53745" lon="6.75004">
        <ele>433</ele>
        <time>2016-01-03T09:47:00.000Z</time>
      </trkpt>
      <trkpt lat="47.53746" lon="6.74999">
        <ele>433</ele>
        <time>2016-01-03T09:47:01.000Z</time>
      </trkpt>
      <trkpt lat="47.53746" lon="6.74995">
        <ele>433</ele>
        <time>2016-01-03T09:47:02.000Z</time>
      </trkpt>
      <trkpt lat="47.53745" lon="6.7499">
        <ele>433</ele>
        <time>2016-01-03T09:47:03.000Z</time>
      </trkpt>
      <trkpt lat="47.53745" lon="6.74988">
        <ele>434</ele>
        <time>2016-01-03T09:47:04.000Z</time>
      </trkpt>
      <trkpt lat="47.53744" lon="6.74982">
        <ele>434</ele>
        <time>2016-01-03T09:47:06.000Z</time>
      </trkpt>
      <trkpt lat="47.53744" lon="6.7498">
        <ele>434</ele>
        <time>2016-01-03T09:47:07.000Z</time>
      </trkpt>
      <trkpt lat="47.53745" lon="6.74975">
        <ele>434</ele>
        <time>2016-01-03T09:47:09.000Z</time>
      </trkpt>
      <trkpt lat="47.53746" lon="6.74972">
        <ele>434</ele>
        <time>2016-01-03T09:47:10.000Z</time>
      </trkpt>
      <trkpt lat="47.53747" lon="6.74969">
        <ele>434</ele>
        <time>2016-01-03T09:47:11.000Z</time>
      </trkpt>
      <trkpt lat="47.53748" lon="6.74966">
        <ele>434</ele>
        <time>2016-01-03T09:47:12.000Z</time>
      </trkpt>
      <trkpt lat="47.5375" lon="6.74963">
        <ele>434</ele>
        <time>2016-01-03T09:47:13.000Z</time>
      </trkpt>
      <trkpt lat="47.53751" lon="6.7496">
        <ele>434</ele>
        <time>2016-01-03T09:47:14.000Z</time>
      </trkpt>
      <trkpt lat="47.53752" lon="6.74957">
        <ele>434</ele>
        <time>2016-01-03T09:47:15.000Z</time>
      </trkpt>
      <trkpt lat="47.53754" lon="6.74954">
        <ele>434</ele>
        <time>2016-01-03T09:47:16.000Z</time>
      </trkpt>
      <trkpt lat="47.53756" lon="6.74949">
        <ele>434</ele>
        <time>2016-01-03T09:47:18.000Z</time>
      </trkpt>
      <trkpt lat="47.53757" lon="6.74948">
        <ele>434</ele>
        <time>2016-01-03T09:47:19.000Z</time>
      </trkpt>
      <trkpt lat="47.53759" lon="6.74943">
        <ele>434</ele>
        <time>2016-01-03T09:47:21.000Z</time>
      </trkpt>
      <trkpt lat="47.53759" lon="6.7494">
        <ele>434</ele>
        <time>2016-01-03T09:47:22.000Z</time>
      </trkpt>
      <trkpt lat="47.5376" lon="6.74936">
        <ele>433</ele>
        <time>2016-01-03T09:47:23.000Z</time>
      </trkpt>
      <trkpt lat="47.53761" lon="6.74933">
        <ele>433</ele>
        <time>2016-01-03T09:47:24.000Z</time>
      </trkpt>
      <trkpt lat="47.53761" lon="6.74929">
        <ele>433</ele>
        <time>2016-01-03T09:47:25.000Z</time>
      </trkpt>
      <trkpt lat="47.53762" lon="6.74926">
        <ele>433</ele>
        <time>2016-01-03T09:47:26.000Z</time>
      </trkpt>
      <trkpt lat="47.53763" lon="6.74923">
        <ele>433</ele>
        <time>2016-01-03T09:47:27.000Z</time>
      </trkpt>
      <trkpt lat="47.53764" lon="6.74919">
        <ele>433</ele>
        <time>2016-01-03T09:47:28.000Z</time>
      </trkpt>
      <trkpt lat="47.53764" lon="6.74916">
        <ele>434</ele>
        <time>2016-01-03T09:47:29.000Z</time>
      </trkpt>
      <trkpt lat="47.53765" lon="6.74912">
        <ele>434</ele>
        <time>2016-01-03T09:47:30.000Z</time>
      </trkpt>
      <trkpt lat="47.53765" lon="6.74908">
        <ele>434</ele>
        <time>2016-01-03T09:47:31.000Z</time>
      </trkpt>
      <trkpt lat="47.53766" lon="6.74905">
        <ele>434</ele>
        <time>2016-01-03T09:47:32.000Z</time>
      </trkpt>
      <trkpt lat="47.53766" lon="6.74902">
        <ele>434</ele>
        <time>2016-01-03T09:47:33.000Z</time>
      </trkpt>
      <trkpt lat="47.53768" lon="6.74899">
        <ele>434</ele>
        <time>2016-01-03T09:47:34.000Z</time>
      </trkpt>
      <trkpt lat="47.53769" lon="6.74896">
        <ele>434</ele>
        <time>2016-01-03T09:47:35.000Z</time>
      </trkpt>
      <trkpt lat="47.53771" lon="6.74893">
        <ele>434</ele>
        <time>2016-01-03T09:47:36.000Z</time>
      </trkpt>
      <trkpt lat="47.53773" lon="6.7489">
        <ele>435</ele>
        <time>2016-01-03T09:47:37.000Z</time>
      </trkpt>
      <trkpt lat="47.53775" lon="6.74887">
        <ele>435</ele>
        <time>2016-01-03T09:47:38.000Z</time>
      </trkpt>
      <trkpt lat="47.53777" lon="6.74883">
        <ele>435</ele>
        <time>2016-01-03T09:47:39.000Z</time>
      </trkpt>
      <trkpt lat="47.53778" lon="6.74879">
        <ele>435</ele>
        <time>2016-01-03T09:47:40.000Z</time>
      </trkpt>
      <trkpt lat="47.53779" lon="6.74876">
        <ele>435</ele>
        <time>2016-01-03T09:47:41.000Z</time>
      </trkpt>
      <trkpt lat="47.53781" lon="6.74873">
        <ele>435</ele>
        <time>2016-01-03T09:47:42.000Z</time>
      </trkpt>
      <trkpt lat="47.53783" lon="6.74868">
        <ele>435</ele>
        <time>2016-01-03T09:47:44.000Z</time>
      </trkpt>
      <trkpt lat="47.53784" lon="6.74865">
        <ele>435</ele>
        <time>2016-01-03T09:47:45.000Z</time>
      </trkpt>
      <trkpt lat="47.53786" lon="6.74862">
        <ele>435</ele>
        <time>2016-01-03T09:47:46.000Z</time>
      </trkpt>
      <trkpt lat="47.53786" lon="6.74859">
        <ele>435</ele>
        <time>2016-01-03T09:47:47.000Z</time>
      </trkpt>
      <trkpt lat="47.53788" lon="6.74853">
        <ele>435</ele>
        <time>2016-01-03T09:47:49.000Z</time>
      </trkpt>
      <trkpt lat="47.53789" lon="6.7485">
        <ele>435</ele>
        <time>2016-01-03T09:47:50.000Z</time>
      </trkpt>
      <trkpt lat="47.5379" lon="6.74847">
        <ele>435</ele>
        <time>2016-01-03T09:47:51.000Z</time>
      </trkpt>
      <trkpt lat="47.53792" lon="6.74845">
        <ele>436</ele>
        <time>2016-01-03T09:47:52.000Z</time>
      </trkpt>
      <trkpt lat="47.53796" lon="6.74842">
        <ele>436</ele>
        <time>2016-01-03T09:47:54.000Z</time>
      </trkpt>
      <trkpt lat="47.53798" lon="6.74842">
        <ele>436</ele>
        <time>2016-01-03T09:47:55.000Z</time>
      </trkpt>
      <trkpt lat="47.53802" lon="6.74843">
        <ele>436</ele>
        <time>2016-01-03T09:47:57.000Z</time>
      </trkpt>
      <trkpt lat="47.53804" lon="6.74843">
        <ele>436</ele>
        <time>2016-01-03T09:47:58.000Z</time>
      </trkpt>
      <trkpt lat="47.53808" lon="6.74842">
        <ele>437</ele>
        <time>2016-01-03T09:48:00.000Z</time>
      </trkpt>
      <trkpt lat="47.5381" lon="6.74842">
        <ele>437</ele>
        <time>2016-01-03T09:48:01.000Z</time>
      </trkpt>
      <trkpt lat="47.53814" lon="6.7484">
        <ele>437</ele>
        <time>2016-01-03T09:48:03.000Z</time>
      </trkpt>
      <trkpt lat="47.53815" lon="6.74839">
        <ele>437</ele>
        <time>2016-01-03T09:48:04.000Z</time>
      </trkpt>
      <trkpt lat="47.53819" lon="6.74838">
        <ele>438</ele>
        <time>2016-01-03T09:48:06.000Z</time>
      </trkpt>
      <trkpt lat="47.53821" lon="6.74837">
        <ele>438</ele>
        <time>2016-01-03T09:48:07.000Z</time>
      </trkpt>
      <trkpt lat="47.53825" lon="6.74837">
        <ele>439</ele>
        <time>2016-01-03T09:48:09.000Z</time>
      </trkpt>
      <trkpt lat="47.53827" lon="6.74838">
        <ele>439</ele>
        <time>2016-01-03T09:48:10.000Z</time>
      </trkpt>
      <trkpt lat="47.53831" lon="6.74837">
        <ele>439</ele>
        <time>2016-01-03T09:48:12.000Z</time>
      </trkpt>
      <trkpt lat="47.53832" lon="6.74837">
        <ele>439</ele>
        <time>2016-01-03T09:48:13.000Z</time>
      </trkpt>
      <trkpt lat="47.53835" lon="6.74836">
        <ele>440</ele>
        <time>2016-01-03T09:48:15.000Z</time>
      </trkpt>
      <trkpt lat="47.53837" lon="6.74836">
        <ele>440</ele>
        <time>2016-01-03T09:48:16.000Z</time>
      </trkpt>
      <trkpt lat="47.53841" lon="6.74838">
        <ele>441</ele>
        <time>2016-01-03T09:48:19.000Z</time>
      </trkpt>
      <trkpt lat="47.53842" lon="6.74839">
        <ele>441</ele>
        <time>2016-01-03T09:48:20.000Z</time>
      </trkpt>
      <trkpt lat="47.53845" lon="6.74839">
        <ele>441</ele>
        <time>2016-01-03T09:48:22.000Z</time>
      </trkpt>
      <trkpt lat="47.53847" lon="6.7484">
        <ele>441</ele>
        <time>2016-01-03T09:48:23.000Z</time>
      </trkpt>
      <trkpt lat="47.5385" lon="6.74839">
        <ele>441</ele>
        <time>2016-01-03T09:48:25.000Z</time>
      </trkpt>
      <trkpt lat="47.53852" lon="6.74839">
        <ele>442</ele>
        <time>2016-01-03T09:48:26.000Z</time>
      </trkpt>
      <trkpt lat="47.53856" lon="6.74838">
        <ele>442</ele>
        <time>2016-01-03T09:48:28.000Z</time>
      </trkpt>
      <trkpt lat="47.53857" lon="6.74838">
        <ele>442</ele>
        <time>2016-01-03T09:48:29.000Z</time>
      </trkpt>
      <trkpt lat="47.53861" lon="6.74837">
        <ele>442</ele>
        <time>2016-01-03T09:48:32.000Z</time>
      </trkpt>
      <trkpt lat="47.53863" lon="6.74836">
        <ele>442</ele>
        <time>2016-01-03T09:48:33.000Z</time>
      </trkpt>
      <trkpt lat="47.53866" lon="6.74833">
        <ele>442</ele>
        <time>2016-01-03T09:48:35.000Z</time>
      </trkpt>
      <trkpt lat="47.53867" lon="6.74831">
        <ele>443</ele>
        <time>2016-01-03T09:48:36.000Z</time>
      </trkpt>
      <trkpt lat="47.5387" lon="6.74826">
        <ele>443</ele>
        <time>2016-01-03T09:48:39.000Z</time>
      </trkpt>
      <trkpt lat="47.53871" lon="6.74825">
        <ele>443</ele>
        <time>2016-01-03T09:48:40.000Z</time>
      </trkpt>
      <trkpt lat="47.53873" lon="6.74821">
        <ele>443</ele>
        <time>2016-01-03T09:48:42.000Z</time>
      </trkpt>
      <trkpt lat="47.53875" lon="6.7482">
        <ele>443</ele>
        <time>2016-01-03T09:48:43.000Z</time>
      </trkpt>
      <trkpt lat="47.53877" lon="6.74816">
        <ele>443</ele>
        <time>2016-01-03T09:48:45.000Z</time>
      </trkpt>
      <trkpt lat="47.53878" lon="6.74813">
        <ele>443</ele>
        <time>2016-01-03T09:48:46.000Z</time>
      </trkpt>
      <trkpt lat="47.5388" lon="6.74808">
        <ele>443</ele>
        <time>2016-01-03T09:48:48.000Z</time>
      </trkpt>
      <trkpt lat="47.53881" lon="6.74806">
        <ele>443</ele>
        <time>2016-01-03T09:48:49.000Z</time>
      </trkpt>
      <trkpt lat="47.53884" lon="6.74802">
        <ele>443</ele>
        <time>2016-01-03T09:48:51.000Z</time>
      </trkpt>
      <trkpt lat="47.53886" lon="6.748">
        <ele>443</ele>
        <time>2016-01-03T09:48:52.000Z</time>
      </trkpt>
      <trkpt lat="47.53888" lon="6.74798">
        <ele>443</ele>
        <time>2016-01-03T09:48:53.000Z</time>
      </trkpt>
      <trkpt lat="47.5389" lon="6.74796">
        <ele>443</ele>
        <time>2016-01-03T09:48:54.000Z</time>
      </trkpt>
      <trkpt lat="47.53892" lon="6.74794">
        <ele>444</ele>
        <time>2016-01-03T09:48:55.000Z</time>
      </trkpt>
      <trkpt lat="47.53895" lon="6.74792">
        <ele>444</ele>
        <time>2016-01-03T09:48:56.000Z</time>
      </trkpt>
      <trkpt lat="47.53898" lon="6.74788">
        <ele>444</ele>
        <time>2016-01-03T09:48:58.000Z</time>
      </trkpt>
      <trkpt lat="47.539" lon="6.74786">
        <ele>444</ele>
        <time>2016-01-03T09:48:59.000Z</time>
      </trkpt>
      <trkpt lat="47.53903" lon="6.74782">
        <ele>444</ele>
        <time>2016-01-03T09:49:01.000Z</time>
      </trkpt>
      <trkpt lat="47.53904" lon="6.7478">
        <ele>444</ele>
        <time>2016-01-03T09:49:02.000Z</time>
      </trkpt>
      <trkpt lat="47.53907" lon="6.74778">
        <ele>444</ele>
        <time>2016-01-03T09:49:04.000Z</time>
      </trkpt>
      <trkpt lat="47.53909" lon="6.74776">
        <ele>444</ele>
        <time>2016-01-03T09:49:05.000Z</time>
      </trkpt>
      <trkpt lat="47.53913" lon="6.74774">
        <ele>444</ele>
        <time>2016-01-03T09:49:07.000Z</time>
      </trkpt>
      <trkpt lat="47.53915" lon="6.74773">
        <ele>444</ele>
        <time>2016-01-03T09:49:08.000Z</time>
      </trkpt>
      <trkpt lat="47.53917" lon="6.74771">
        <ele>448</ele>
        <time>2016-01-03T09:49:09.000Z</time>
      </trkpt>
      <trkpt lat="47.53919" lon="6.7477">
        <ele>448</ele>
        <time>2016-01-03T09:49:10.000Z</time>
      </trkpt>
      <trkpt lat="47.53923" lon="6.74767">
        <ele>447</ele>
        <time>2016-01-03T09:49:12.000Z</time>
      </trkpt>
      <trkpt lat="47.53924" lon="6.74765">
        <ele>447</ele>
        <time>2016-01-03T09:49:13.000Z</time>
      </trkpt>
      <trkpt lat="47.53928" lon="6.74761">
        <ele>447</ele>
        <time>2016-01-03T09:49:15.000Z</time>
      </trkpt>
      <trkpt lat="47.5393" lon="6.7476">
        <ele>447</ele>
        <time>2016-01-03T09:49:16.000Z</time>
      </trkpt>
      <trkpt lat="47.53932" lon="6.74759">
        <ele>448</ele>
        <time>2016-01-03T09:49:17.000Z</time>
      </trkpt>
      <trkpt lat="47.53935" lon="6.74758">
        <ele>448</ele>
        <time>2016-01-03T09:49:18.000Z</time>
      </trkpt>
      <trkpt lat="47.53937" lon="6.74758">
        <ele>448</ele>
        <time>2016-01-03T09:49:19.000Z</time>
      </trkpt>
      <trkpt lat="47.53939" lon="6.74757">
        <ele>448</ele>
        <time>2016-01-03T09:49:20.000Z</time>
      </trkpt>
      <trkpt lat="47.53941" lon="6.74757">
        <ele>448</ele>
        <time>2016-01-03T09:49:21.000Z</time>
      </trkpt>
      <trkpt lat="47.53944" lon="6.74756">
        <ele>448</ele>
        <time>2016-01-03T09:49:22.000Z</time>
      </trkpt>
      <trkpt lat="47.53948" lon="6.74755">
        <ele>448</ele>
        <time>2016-01-03T09:49:24.000Z</time>
      </trkpt>
      <trkpt lat="47.53949" lon="6.74754">
        <ele>448</ele>
        <time>2016-01-03T09:49:25.000Z</time>
      </trkpt>
      <trkpt lat="47.53952" lon="6.74751">
        <ele>449</ele>
        <time>2016-01-03T09:49:27.000Z</time>
      </trkpt>
      <trkpt lat="47.53954" lon="6.7475">
        <ele>449</ele>
        <time>2016-01-03T09:49:28.000Z</time>
      </trkpt>
      <trkpt lat="47.53956" lon="6.74749">
        <ele>447</ele>
        <time>2016-01-03T09:49:29.000Z</time>
      </trkpt>
      <trkpt lat="47.53959" lon="6.74748">
        <ele>447</ele>
        <time>2016-01-03T09:49:30.000Z</time>
      </trkpt>
      <trkpt lat="47.53961" lon="6.74747">
        <ele>448</ele>
        <time>2016-01-03T09:49:31.000Z</time>
      </trkpt>
      <trkpt lat="47.53963" lon="6.74746">
        <ele>448</ele>
        <time>2016-01-03T09:49:32.000Z</time>
      </trkpt>
      <trkpt lat="47.53967" lon="6.74744">
        <ele>448</ele>
        <time>2016-01-03T09:49:34.000Z</time>
      </trkpt>
      <trkpt lat="47.53969" lon="6.74743">
        <ele>448</ele>
        <time>2016-01-03T09:49:35.000Z</time>
      </trkpt>
      <trkpt lat="47.53973" lon="6.74741">
        <ele>448</ele>
        <time>2016-01-03T09:49:37.000Z</time>
      </trkpt>
      <trkpt lat="47.53974" lon="6.7474">
        <ele>448</ele>
        <time>2016-01-03T09:49:38.000Z</time>
      </trkpt>
      <trkpt lat="47.53978" lon="6.74738">
        <ele>448</ele>
        <time>2016-01-03T09:49:40.000Z</time>
      </trkpt>
      <trkpt lat="47.53979" lon="6.74736">
        <ele>448</ele>
        <time>2016-01-03T09:49:41.000Z</time>
      </trkpt>
      <trkpt lat="47.53983" lon="6.74733">
        <ele>448</ele>
        <time>2016-01-03T09:49:43.000Z</time>
      </trkpt>
      <trkpt lat="47.53984" lon="6.74733">
        <ele>448</ele>
        <time>2016-01-03T09:49:44.000Z</time>
      </trkpt>
      <trkpt lat="47.53988" lon="6.7473">
        <ele>448</ele>
        <time>2016-01-03T09:49:47.000Z</time>
      </trkpt>
      <trkpt lat="47.53989" lon="6.74729">
        <ele>448</ele>
        <time>2016-01-03T09:49:48.000Z</time>
      </trkpt>
      <trkpt lat="47.53993" lon="6.74726">
        <ele>448</ele>
        <time>2016-01-03T09:49:50.000Z</time>
      </trkpt>
      <trkpt lat="47.53995" lon="6.74725">
        <ele>448</ele>
        <time>2016-01-03T09:49:51.000Z</time>
      </trkpt>
      <trkpt lat="47.53997" lon="6.74724">
        <ele>448</ele>
        <time>2016-01-03T09:49:52.000Z</time>
      </trkpt>
      <trkpt lat="47.53999" lon="6.74723">
        <ele>448</ele>
        <time>2016-01-03T09:49:53.000Z</time>
      </trkpt>
      <trkpt lat="47.54001" lon="6.74722">
        <ele>450</ele>
        <time>2016-01-03T09:49:54.000Z</time>
      </trkpt>
      <trkpt lat="47.54004" lon="6.74721">
        <ele>450</ele>
        <time>2016-01-03T09:49:55.000Z</time>
      </trkpt>
      <trkpt lat="47.54006" lon="6.7472">
        <ele>450</ele>
        <time>2016-01-03T09:49:56.000Z</time>
      </trkpt>
      <trkpt lat="47.54009" lon="6.74718">
        <ele>450</ele>
        <time>2016-01-03T09:49:57.000Z</time>
      </trkpt>
      <trkpt lat="47.54012" lon="6.74717">
        <ele>450</ele>
        <time>2016-01-03T09:49:58.000Z</time>
      </trkpt>
      <trkpt lat="47.54015" lon="6.74715">
        <ele>450</ele>
        <time>2016-01-03T09:49:59.000Z</time>
      </trkpt>
      <trkpt lat="47.54019" lon="6.74713">
        <ele>450</ele>
        <time>2016-01-03T09:50:00.000Z</time>
      </trkpt>
      <trkpt lat="47.54022" lon="6.74712">
        <ele>450</ele>
        <time>2016-01-03T09:50:01.000Z</time>
      </trkpt>
      <trkpt lat="47.54026" lon="6.7471">
        <ele>450</ele>
        <time>2016-01-03T09:50:02.000Z</time>
      </trkpt>
      <trkpt lat="47.54029" lon="6.7471">
        <ele>451</ele>
        <time>2016-01-03T09:50:03.000Z</time>
      </trkpt>
      <trkpt lat="47.54033" lon="6.74709">
        <ele>451</ele>
        <time>2016-01-03T09:50:04.000Z</time>
      </trkpt>
      <trkpt lat="47.54036" lon="6.74707">
        <ele>451</ele>
        <time>2016-01-03T09:50:05.000Z</time>
      </trkpt>
      <trkpt lat="47.54039" lon="6.74706">
        <ele>451</ele>
        <time>2016-01-03T09:50:06.000Z</time>
      </trkpt>
      <trkpt lat="47.54041" lon="6.74706">
        <ele>451</ele>
        <time>2016-01-03T09:50:07.000Z</time>
      </trkpt>
      <trkpt lat="47.54043" lon="6.74705">
        <ele>451</ele>
        <time>2016-01-03T09:50:08.000Z</time>
      </trkpt>
      <trkpt lat="47.54046" lon="6.74705">
        <ele>451</ele>
        <time>2016-01-03T09:50:09.000Z</time>
      </trkpt>
      <trkpt lat="47.54048" lon="6.74704">
        <ele>451</ele>
        <time>2016-01-03T09:50:10.000Z</time>
      </trkpt>
      <trkpt lat="47.54051" lon="6.74702">
        <ele>451</ele>
        <time>2016-01-03T09:50:11.000Z</time>
      </trkpt>
      <trkpt lat="47.54053" lon="6.74701">
        <ele>451</ele>
        <time>2016-01-03T09:50:12.000Z</time>
      </trkpt>
      <trkpt lat="47.54056" lon="6.74699">
        <ele>451</ele>
        <time>2016-01-03T09:50:13.000Z</time>
      </trkpt>
      <trkpt lat="47.54058" lon="6.74696">
        <ele>451</ele>
        <time>2016-01-03T09:50:14.000Z</time>
      </trkpt>
      <trkpt lat="47.54061" lon="6.74694">
        <ele>451</ele>
        <time>2016-01-03T09:50:15.000Z</time>
      </trkpt>
      <trkpt lat="47.54064" lon="6.74692">
        <ele>451</ele>
        <time>2016-01-03T09:50:16.000Z</time>
      </trkpt>
      <trkpt lat="47.54066" lon="6.7469">
        <ele>451</ele>
        <time>2016-01-03T09:50:17.000Z</time>
      </trkpt>
      <trkpt lat="47.54069" lon="6.74688">
        <ele>451</ele>
        <time>2016-01-03T09:50:18.000Z</time>
      </trkpt>
      <trkpt lat="47.54072" lon="6.74686">
        <ele>451</ele>
        <time>2016-01-03T09:50:19.000Z</time>
      </trkpt>
      <trkpt lat="47.54075" lon="6.74684">
        <ele>451</ele>
        <time>2016-01-03T09:50:20.000Z</time>
      </trkpt>
      <trkpt lat="47.54078" lon="6.74683">
        <ele>451</ele>
        <time>2016-01-03T09:50:21.000Z</time>
      </trkpt>
      <trkpt lat="47.54082" lon="6.74682">
        <ele>451</ele>
        <time>2016-01-03T09:50:22.000Z</time>
      </trkpt>
      <trkpt lat="47.54085" lon="6.74681">
        <ele>452</ele>
        <time>2016-01-03T09:50:23.000Z</time>
      </trkpt>
      <trkpt lat="47.54089" lon="6.7468">
        <ele>452</ele>
        <time>2016-01-03T09:50:24.000Z</time>
      </trkpt>
      <trkpt lat="47.54092" lon="6.74679">
        <ele>452</ele>
        <time>2016-01-03T09:50:25.000Z</time>
      </trkpt>
      <trkpt lat="47.54095" lon="6.74678">
        <ele>452</ele>
        <time>2016-01-03T09:50:26.000Z</time>
      </trkpt>
      <trkpt lat="47.54098" lon="6.74676">
        <ele>453</ele>
        <time>2016-01-03T09:50:27.000Z</time>
      </trkpt>
      <trkpt lat="47.54101" lon="6.74675">
        <ele>453</ele>
        <time>2016-01-03T09:50:28.000Z</time>
      </trkpt>
      <trkpt lat="47.54104" lon="6.74673">
        <ele>453</ele>
        <time>2016-01-03T09:50:29.000Z</time>
      </trkpt>
      <trkpt lat="47.54108" lon="6.74671">
        <ele>453</ele>
        <time>2016-01-03T09:50:30.000Z</time>
      </trkpt>
      <trkpt lat="47.54112" lon="6.74667">
        <ele>453</ele>
        <time>2016-01-03T09:50:31.000Z</time>
      </trkpt>
      <trkpt lat="47.54115" lon="6.74664">
        <ele>451</ele>
        <time>2016-01-03T09:50:32.000Z</time>
      </trkpt>
      <trkpt lat="47.54118" lon="6.7466">
        <ele>451</ele>
        <time>2016-01-03T09:50:33.000Z</time>
      </trkpt>
      <trkpt lat="47.54121" lon="6.74657">
        <ele>451</ele>
        <time>2016-01-03T09:50:34.000Z</time>
      </trkpt>
      <trkpt lat="47.54124" lon="6.74654">
        <ele>451</ele>
        <time>2016-01-03T09:50:35.000Z</time>
      </trkpt>
      <trkpt lat="47.54128" lon="6.74651">
        <ele>451</ele>
        <time>2016-01-03T09:50:36.000Z</time>
      </trkpt>
      <trkpt lat="47.54131" lon="6.74648">
        <ele>451</ele>
        <time>2016-01-03T09:50:37.000Z</time>
      </trkpt>
      <trkpt lat="47.54134" lon="6.74645">
        <ele>451</ele>
        <time>2016-01-03T09:50:38.000Z</time>
      </trkpt>
      <trkpt lat="47.54137" lon="6.74642">
        <ele>451</ele>
        <time>2016-01-03T09:50:39.000Z</time>
      </trkpt>
      <trkpt lat="47.5414" lon="6.74638">
        <ele>451</ele>
        <time>2016-01-03T09:50:40.000Z</time>
      </trkpt>
      <trkpt lat="47.54143" lon="6.74635">
        <ele>451</ele>
        <time>2016-01-03T09:50:41.000Z</time>
      </trkpt>
      <trkpt lat="47.54146" lon="6.74631">
        <ele>451</ele>
        <time>2016-01-03T09:50:42.000Z</time>
      </trkpt>
      <trkpt lat="47.54149" lon="6.74628">
        <ele>451</ele>
        <time>2016-01-03T09:50:43.000Z</time>
      </trkpt>
      <trkpt lat="47.54152" lon="6.74624">
        <ele>451</ele>
        <time>2016-01-03T09:50:44.000Z</time>
      </trkpt>
      <trkpt lat="47.54155" lon="6.7462">
        <ele>451</ele>
        <time>2016-01-03T09:50:45.000Z</time>
      </trkpt>
      <trkpt lat="47.54158" lon="6.74617">
        <ele>451</ele>
        <time>2016-01-03T09:50:46.000Z</time>
      </trkpt>
      <trkpt lat="47.54161" lon="6.74614">
        <ele>451</ele>
        <time>2016-01-03T09:50:47.000Z</time>
      </trkpt>
      <trkpt lat="47.54164" lon="6.74612">
        <ele>451</ele>
        <time>2016-01-03T09:50:48.000Z</time>
      </trkpt>
      <trkpt lat="47.54167" lon="6.7461">
        <ele>451</ele>
        <time>2016-01-03T09:50:49.000Z</time>
      </trkpt>
      <trkpt lat="47.54169" lon="6.74608">
        <ele>452</ele>
        <time>2016-01-03T09:50:50.000Z</time>
      </trkpt>
      <trkpt lat="47.54172" lon="6.74606">
        <ele>452</ele>
        <time>2016-01-03T09:50:51.000Z</time>
      </trkpt>
      <trkpt lat="47.54175" lon="6.74603">
        <ele>452</ele>
        <time>2016-01-03T09:50:52.000Z</time>
      </trkpt>
      <trkpt lat="47.54177" lon="6.746">
        <ele>452</ele>
        <time>2016-01-03T09:50:53.000Z</time>
      </trkpt>
      <trkpt lat="47.5418" lon="6.74597">
        <ele>451</ele>
        <time>2016-01-03T09:50:54.000Z</time>
      </trkpt>
      <trkpt lat="47.54184" lon="6.74594">
        <ele>451</ele>
        <time>2016-01-03T09:50:55.000Z</time>
      </trkpt>
      <trkpt lat="47.54187" lon="6.7459">
        <ele>451</ele>
        <time>2016-01-03T09:50:56.000Z</time>
      </trkpt>
      <trkpt lat="47.54191" lon="6.74585">
        <ele>452</ele>
        <time>2016-01-03T09:50:57.000Z</time>
      </trkpt>
      <trkpt lat="47.54194" lon="6.74581">
        <ele>449</ele>
        <time>2016-01-03T09:50:58.000Z</time>
      </trkpt>
      <trkpt lat="47.54198" lon="6.74577">
        <ele>449</ele>
        <time>2016-01-03T09:50:59.000Z</time>
      </trkpt>
      <trkpt lat="47.54201" lon="6.74574">
        <ele>449</ele>
        <time>2016-01-03T09:51:00.000Z</time>
      </trkpt>
      <trkpt lat="47.54205" lon="6.74572">
        <ele>449</ele>
        <time>2016-01-03T09:51:01.000Z</time>
      </trkpt>
      <trkpt lat="47.54209" lon="6.7457">
        <ele>449</ele>
        <time>2016-01-03T09:51:02.000Z</time>
      </trkpt>
      <trkpt lat="47.54213" lon="6.74568">
        <ele>449</ele>
        <time>2016-01-03T09:51:03.000Z</time>
      </trkpt>
      <trkpt lat="47.54217" lon="6.74566">
        <ele>449</ele>
        <time>2016-01-03T09:51:04.000Z</time>
      </trkpt>
      <trkpt lat="47.54221" lon="6.74563">
        <ele>449</ele>
        <time>2016-01-03T09:51:05.000Z</time>
      </trkpt>
      <trkpt lat="47.54225" lon="6.7456">
        <ele>449</ele>
        <time>2016-01-03T09:51:06.000Z</time>
      </trkpt>
      <trkpt lat="47.54228" lon="6.74557">
        <ele>449</ele>
        <time>2016-01-03T09:51:07.000Z</time>
      </trkpt>
      <trkpt lat="47.54232" lon="6.74553">
        <ele>449</ele>
        <time>2016-01-03T09:51:08.000Z</time>
      </trkpt>
      <trkpt lat="47.54236" lon="6.7455">
        <ele>448</ele>
        <time>2016-01-03T09:51:09.000Z</time>
      </trkpt>
      <trkpt lat="47.54239" lon="6.74545">
        <ele>448</ele>
        <time>2016-01-03T09:51:10.000Z</time>
      </trkpt>
      <trkpt lat="47.54242" lon="6.7454">
        <ele>448</ele>
        <time>2016-01-03T09:51:11.000Z</time>
      </trkpt>
      <trkpt lat="47.54245" lon="6.74535">
        <ele>448</ele>
        <time>2016-01-03T09:51:12.000Z</time>
      </trkpt>
      <trkpt lat="47.54248" lon="6.7453">
        <ele>448</ele>
        <time>2016-01-03T09:51:13.000Z</time>
      </trkpt>
      <trkpt lat="47.54251" lon="6.74525">
        <ele>450</ele>
        <time>2016-01-03T09:51:14.000Z</time>
      </trkpt>
      <trkpt lat="47.54254" lon="6.7452">
        <ele>450</ele>
        <time>2016-01-03T09:51:15.000Z</time>
      </trkpt>
      <trkpt lat="47.54256" lon="6.74515">
        <ele>449</ele>
        <time>2016-01-03T09:51:16.000Z</time>
      </trkpt>
      <trkpt lat="47.54259" lon="6.74509">
        <ele>449</ele>
        <time>2016-01-03T09:51:17.000Z</time>
      </trkpt>
      <trkpt lat="47.54261" lon="6.74503">
        <ele>449</ele>
        <time>2016-01-03T09:51:18.000Z</time>
      </trkpt>
      <trkpt lat="47.54263" lon="6.74497">
        <ele>448</ele>
        <time>2016-01-03T09:51:19.000Z</time>
      </trkpt>
      <trkpt lat="47.54265" lon="6.74491">
        <ele>448</ele>
        <time>2016-01-03T09:51:20.000Z</time>
      </trkpt>
      <trkpt lat="47.54268" lon="6.74485">
        <ele>448</ele>
        <time>2016-01-03T09:51:21.000Z</time>
      </trkpt>
      <trkpt lat="47.5427" lon="6.7448">
        <ele>448</ele>
        <time>2016-01-03T09:51:22.000Z</time>
      </trkpt>
      <trkpt lat="47.54272" lon="6.74474">
        <ele>448</ele>
        <time>2016-01-03T09:51:23.000Z</time>
      </trkpt>
      <trkpt lat="47.54274" lon="6.74469">
        <ele>448</ele>
        <time>2016-01-03T09:51:24.000Z</time>
      </trkpt>
      <trkpt lat="47.54277" lon="6.74465">
        <ele>448</ele>
        <time>2016-01-03T09:51:25.000Z</time>
      </trkpt>
      <trkpt lat="47.54279" lon="6.74461">
        <ele>448</ele>
        <time>2016-01-03T09:51:26.000Z</time>
      </trkpt>
      <trkpt lat="47.54282" lon="6.74456">
        <ele>448</ele>
        <time>2016-01-03T09:51:27.000Z</time>
      </trkpt>
      <trkpt lat="47.54285" lon="6.74452">
        <ele>448</ele>
        <time>2016-01-03T09:51:28.000Z</time>
      </trkpt>
      <trkpt lat="47.54288" lon="6.74448">
        <ele>448</ele>
        <time>2016-01-03T09:51:29.000Z</time>
      </trkpt>
      <trkpt lat="47.5429" lon="6.74444">
        <ele>448</ele>
        <time>2016-01-03T09:51:30.000Z</time>
      </trkpt>
      <trkpt lat="47.54292" lon="6.74441">
        <ele>448</ele>
        <time>2016-01-03T09:51:31.000Z</time>
      </trkpt>
      <trkpt lat="47.54294" lon="6.74436">
        <ele>448</ele>
        <time>2016-01-03T09:51:33.000Z</time>
      </trkpt>
      <trkpt lat="47.54295" lon="6.74434">
        <ele>448</ele>
        <time>2016-01-03T09:51:34.000Z</time>
      </trkpt>
      <trkpt lat="47.54296" lon="6.74428">
        <ele>448</ele>
        <time>2016-01-03T09:51:39.000Z</time>
      </trkpt>
      <trkpt lat="47.54296" lon="6.74427">
        <ele>448</ele>
        <time>2016-01-03T09:51:40.000Z</time>
      </trkpt>
      <trkpt lat="47.54296" lon="6.74421">
        <ele>448</ele>
        <time>2016-01-03T09:51:44.000Z</time>
      </trkpt>
      <trkpt lat="47.54296" lon="6.7442">
        <ele>448</ele>
        <time>2016-01-03T09:51:45.000Z</time>
      </trkpt>
      <trkpt lat="47.54297" lon="6.74414">
        <ele>446</ele>
        <time>2016-01-03T09:51:49.000Z</time>
      </trkpt>
      <trkpt lat="47.54297" lon="6.74412">
        <ele>446</ele>
        <time>2016-01-03T09:51:50.000Z</time>
      </trkpt>
      <trkpt lat="47.54297" lon="6.74408">
        <ele>446</ele>
        <time>2016-01-03T09:51:52.000Z</time>
      </trkpt>
      <trkpt lat="47.54297" lon="6.74405">
        <ele>446</ele>
        <time>2016-01-03T09:51:53.000Z</time>
      </trkpt>
      <trkpt lat="47.54297" lon="6.74399">
        <ele>445</ele>
        <time>2016-01-03T09:51:55.000Z</time>
      </trkpt>
      <trkpt lat="47.54297" lon="6.74395">
        <ele>445</ele>
        <time>2016-01-03T09:51:56.000Z</time>
      </trkpt>
      <trkpt lat="47.54298" lon="6.74391">
        <ele>445</ele>
        <time>2016-01-03T09:51:57.000Z</time>
      </trkpt>
      <trkpt lat="47.54298" lon="6.74386">
        <ele>445</ele>
        <time>2016-01-03T09:51:58.000Z</time>
      </trkpt>
      <trkpt lat="47.54299" lon="6.7438">
        <ele>445</ele>
        <time>2016-01-03T09:51:59.000Z</time>
      </trkpt>
      <trkpt lat="47.543" lon="6.74374">
        <ele>445</ele>
        <time>2016-01-03T09:52:00.000Z</time>
      </trkpt>
      <trkpt lat="47.54301" lon="6.74369">
        <ele>445</ele>
        <time>2016-01-03T09:52:01.000Z</time>
      </trkpt>
      <trkpt lat="47.54302" lon="6.74364">
        <ele>445</ele>
        <time>2016-01-03T09:52:02.000Z</time>
      </trkpt>
      <trkpt lat="47.54303" lon="6.74359">
        <ele>445</ele>
        <time>2016-01-03T09:52:03.000Z</time>
      </trkpt>
      <trkpt lat="47.54304" lon="6.74354">
        <ele>445</ele>
        <time>2016-01-03T09:52:04.000Z</time>
      </trkpt>
      <trkpt lat="47.54305" lon="6.74348">
        <ele>445</ele>
        <time>2016-01-03T09:52:05.000Z</time>
      </trkpt>
      <trkpt lat="47.54305" lon="6.74328">
        <ele>443</ele>
        <time>2016-01-03T09:52:06.000Z</time>
      </trkpt>
      <trkpt lat="47.54305" lon="6.7432">
        <ele>443</ele>
        <time>2016-01-03T09:52:07.000Z</time>
      </trkpt>
      <trkpt lat="47.54305" lon="6.74311">
        <ele>442</ele>
        <time>2016-01-03T09:52:08.000Z</time>
      </trkpt>
      <trkpt lat="47.54304" lon="6.74301">
        <ele>442</ele>
        <time>2016-01-03T09:52:09.000Z</time>
      </trkpt>
      <trkpt lat="47.54304" lon="6.74292">
        <ele>442</ele>
        <time>2016-01-03T09:52:10.000Z</time>
      </trkpt>
      <trkpt lat="47.54305" lon="6.74283">
        <ele>442</ele>
        <time>2016-01-03T09:52:11.000Z</time>
      </trkpt>
      <trkpt lat="47.54305" lon="6.74275">
        <ele>442</ele>
        <time>2016-01-03T09:52:12.000Z</time>
      </trkpt>
      <trkpt lat="47.54304" lon="6.74268">
        <ele>442</ele>
        <time>2016-01-03T09:52:13.000Z</time>
      </trkpt>
      <trkpt lat="47.54304" lon="6.7426">
        <ele>441</ele>
        <time>2016-01-03T09:52:14.000Z</time>
      </trkpt>
      <trkpt lat="47.543" lon="6.74248">
        <ele>439</ele>
        <time>2016-01-03T09:52:15.000Z</time>
      </trkpt>
      <trkpt lat="47.54299" lon="6.74237">
        <ele>439</ele>
        <time>2016-01-03T09:52:16.000Z</time>
      </trkpt>
      <trkpt lat="47.54299" lon="6.74226">
        <ele>439</ele>
        <time>2016-01-03T09:52:17.000Z</time>
      </trkpt>
      <trkpt lat="47.54297" lon="6.74215">
        <ele>439</ele>
        <time>2016-01-03T09:52:18.000Z</time>
      </trkpt>
      <trkpt lat="47.54299" lon="6.74204">
        <ele>439</ele>
        <time>2016-01-03T09:52:19.000Z</time>
      </trkpt>
      <trkpt lat="47.54302" lon="6.74192">
        <ele>438</ele>
        <time>2016-01-03T09:52:20.000Z</time>
      </trkpt>
      <trkpt lat="47.54305" lon="6.74185">
        <ele>438</ele>
        <time>2016-01-03T09:52:21.000Z</time>
      </trkpt>
      <trkpt lat="47.54311" lon="6.74179">
        <ele>438</ele>
        <time>2016-01-03T09:52:22.000Z</time>
      </trkpt>
      <trkpt lat="47.54316" lon="6.74171">
        <ele>438</ele>
        <time>2016-01-03T09:52:23.000Z</time>
      </trkpt>
      <trkpt lat="47.5432" lon="6.74165">
        <ele>436</ele>
        <time>2016-01-03T09:52:24.000Z</time>
      </trkpt>
      <trkpt lat="47.54323" lon="6.74158">
        <ele>436</ele>
        <time>2016-01-03T09:52:25.000Z</time>
      </trkpt>
      <trkpt lat="47.54327" lon="6.74145">
        <ele>435</ele>
        <time>2016-01-03T09:52:26.000Z</time>
      </trkpt>
      <trkpt lat="47.54333" lon="6.74133">
        <ele>435</ele>
        <time>2016-01-03T09:52:27.000Z</time>
      </trkpt>
      <trkpt lat="47.54337" lon="6.74124">
        <ele>434</ele>
        <time>2016-01-03T09:52:28.000Z</time>
      </trkpt>
      <trkpt lat="47.54341" lon="6.74115">
        <ele>434</ele>
        <time>2016-01-03T09:52:29.000Z</time>
      </trkpt>
      <trkpt lat="47.54345" lon="6.74104">
        <ele>433</ele>
        <time>2016-01-03T09:52:30.000Z</time>
      </trkpt>
      <trkpt lat="47.54349" lon="6.74096">
        <ele>433</ele>
        <time>2016-01-03T09:52:31.000Z</time>
      </trkpt>
      <trkpt lat="47.54351" lon="6.74085">
        <ele>433</ele>
        <time>2016-01-03T09:52:32.000Z</time>
      </trkpt>
      <trkpt lat="47.54354" lon="6.74075">
        <ele>430</ele>
        <time>2016-01-03T09:52:33.000Z</time>
      </trkpt>
      <trkpt lat="47.54358" lon="6.74066">
        <ele>430</ele>
        <time>2016-01-03T09:52:34.000Z</time>
      </trkpt>
      <trkpt lat="47.5436" lon="6.7406">
        <ele>429</ele>
        <time>2016-01-03T09:52:35.000Z</time>
      </trkpt>
      <trkpt lat="47.54364" lon="6.74052">
        <ele>429</ele>
        <time>2016-01-03T09:52:36.000Z</time>
      </trkpt>
      <trkpt lat="47.54368" lon="6.74045">
        <ele>429</ele>
        <time>2016-01-03T09:52:37.000Z</time>
      </trkpt>
      <trkpt lat="47.54372" lon="6.74036">
        <ele>428</ele>
        <time>2016-01-03T09:52:38.000Z</time>
      </trkpt>
      <trkpt lat="47.54377" lon="6.74027">
        <ele>428</ele>
        <time>2016-01-03T09:52:39.000Z</time>
      </trkpt>
      <trkpt lat="47.54381" lon="6.74019">
        <ele>428</ele>
        <time>2016-01-03T09:52:40.000Z</time>
      </trkpt>
      <trkpt lat="47.5438" lon="6.7401">
        <ele>427</ele>
        <time>2016-01-03T09:52:41.000Z</time>
      </trkpt>
      <trkpt lat="47.54381" lon="6.74001">
        <ele>427</ele>
        <time>2016-01-03T09:52:42.000Z</time>
      </trkpt>
      <trkpt lat="47.54381" lon="6.73992">
        <ele>423</ele>
        <time>2016-01-03T09:52:43.000Z</time>
      </trkpt>
      <trkpt lat="47.54381" lon="6.73983">
        <ele>423</ele>
        <time>2016-01-03T09:52:44.000Z</time>
      </trkpt>
      <trkpt lat="47.54381" lon="6.73978">
        <ele>423</ele>
        <time>2016-01-03T09:53:05.000Z</time>
      </trkpt>
      <trkpt lat="47.54381" lon="6.73971">
        <ele>423</ele>
        <time>2016-01-03T09:53:06.000Z</time>
      </trkpt>
      <trkpt lat="47.5438" lon="6.73963">
        <ele>422</ele>
        <time>2016-01-03T09:53:07.000Z</time>
      </trkpt>
      <trkpt lat="47.54381" lon="6.73955">
        <ele>422</ele>
        <time>2016-01-03T09:53:08.000Z</time>
      </trkpt>
      <trkpt lat="47.54381" lon="6.73946">
        <ele>422</ele>
        <time>2016-01-03T09:53:09.000Z</time>
      </trkpt>
      <trkpt lat="47.54382" lon="6.73938">
        <ele>421</ele>
        <time>2016-01-03T09:53:10.000Z</time>
      </trkpt>
      <trkpt lat="47.54383" lon="6.73931">
        <ele>421</ele>
        <time>2016-01-03T09:53:11.000Z</time>
      </trkpt>
      <trkpt lat="47.54383" lon="6.73925">
        <ele>421</ele>
        <time>2016-01-03T09:53:12.000Z</time>
      </trkpt>
      <trkpt lat="47.54383" lon="6.73917">
        <ele>421</ele>
        <time>2016-01-03T09:53:13.000Z</time>
      </trkpt>
      <trkpt lat="47.54384" lon="6.73909">
        <ele>416</ele>
        <time>2016-01-03T09:53:14.000Z</time>
      </trkpt>
      <trkpt lat="47.54384" lon="6.73901">
        <ele>416</ele>
        <time>2016-01-03T09:53:15.000Z</time>
      </trkpt>
      <trkpt lat="47.54385" lon="6.73892">
        <ele>416</ele>
        <time>2016-01-03T09:53:16.000Z</time>
      </trkpt>
      <trkpt lat="47.54388" lon="6.73878">
        <ele>415</ele>
        <time>2016-01-03T09:53:17.000Z</time>
      </trkpt>
      <trkpt lat="47.54389" lon="6.73867">
        <ele>415</ele>
        <time>2016-01-03T09:53:18.000Z</time>
      </trkpt>
      <trkpt lat="47.5439" lon="6.73856">
        <ele>414</ele>
        <time>2016-01-03T09:53:19.000Z</time>
      </trkpt>
      <trkpt lat="47.54387" lon="6.73842">
        <ele>414</ele>
        <time>2016-01-03T09:53:20.000Z</time>
      </trkpt>
      <trkpt lat="47.54385" lon="6.7383">
        <ele>411</ele>
        <time>2016-01-03T09:53:21.000Z</time>
      </trkpt>
      <trkpt lat="47.54385" lon="6.73816">
        <ele>410</ele>
        <time>2016-01-03T09:53:22.000Z</time>
      </trkpt>
      <trkpt lat="47.54385" lon="6.73806">
        <ele>410</ele>
        <time>2016-01-03T09:53:23.000Z</time>
      </trkpt>
      <trkpt lat="47.54387" lon="6.73795">
        <ele>410</ele>
        <time>2016-01-03T09:53:24.000Z</time>
      </trkpt>
      <trkpt lat="47.54387" lon="6.73787">
        <ele>410</ele>
        <time>2016-01-03T09:53:25.000Z</time>
      </trkpt>
      <trkpt lat="47.54388" lon="6.73779">
        <ele>409</ele>
        <time>2016-01-03T09:53:26.000Z</time>
      </trkpt>
      <trkpt lat="47.5439" lon="6.73769">
        <ele>409</ele>
        <time>2016-01-03T09:53:27.000Z</time>
      </trkpt>
      <trkpt lat="47.54391" lon="6.73757">
        <ele>408</ele>
        <time>2016-01-03T09:53:28.000Z</time>
      </trkpt>
      <trkpt lat="47.5439" lon="6.73748">
        <ele>406</ele>
        <time>2016-01-03T09:53:29.000Z</time>
      </trkpt>
      <trkpt lat="47.54391" lon="6.73738">
        <ele>406</ele>
        <time>2016-01-03T09:53:30.000Z</time>
      </trkpt>
      <trkpt lat="47.54391" lon="6.73729">
        <ele>406</ele>
        <time>2016-01-03T09:53:31.000Z</time>
      </trkpt>
      <trkpt lat="47.54393" lon="6.73719">
        <ele>406</ele>
        <time>2016-01-03T09:53:32.000Z</time>
      </trkpt>
      <trkpt lat="47.54392" lon="6.73708">
        <ele>406</ele>
        <time>2016-01-03T09:53:33.000Z</time>
      </trkpt>
      <trkpt lat="47.54393" lon="6.73699">
        <ele>406</ele>
        <time>2016-01-03T09:53:34.000Z</time>
      </trkpt>
      <trkpt lat="47.54393" lon="6.73692">
        <ele>406</ele>
        <time>2016-01-03T09:53:35.000Z</time>
      </trkpt>
      <trkpt lat="47.54392" lon="6.73684">
        <ele>406</ele>
        <time>2016-01-03T09:53:36.000Z</time>
      </trkpt>
      <trkpt lat="47.54391" lon="6.73676">
        <ele>406</ele>
        <time>2016-01-03T09:53:37.000Z</time>
      </trkpt>
      <trkpt lat="47.54393" lon="6.73663">
        <ele>403</ele>
        <time>2016-01-03T09:53:38.000Z</time>
      </trkpt>
      <trkpt lat="47.54393" lon="6.73655">
        <ele>403</ele>
        <time>2016-01-03T09:53:39.000Z</time>
      </trkpt>
      <trkpt lat="47.54394" lon="6.73648">
        <ele>403</ele>
        <time>2016-01-03T09:53:40.000Z</time>
      </trkpt>
      <trkpt lat="47.54393" lon="6.73645">
        <ele>403</ele>
        <time>2016-01-03T09:53:41.000Z</time>
      </trkpt>
      <trkpt lat="47.54393" lon="6.7364">
        <ele>403</ele>
        <time>2016-01-03T09:53:42.000Z</time>
      </trkpt>
      <trkpt lat="47.54396" lon="6.73632">
        <ele>402</ele>
        <time>2016-01-03T09:53:43.000Z</time>
      </trkpt>
      <trkpt lat="47.54398" lon="6.73627">
        <ele>402</ele>
        <time>2016-01-03T09:53:44.000Z</time>
      </trkpt>
      <trkpt lat="47.54399" lon="6.73623">
        <ele>402</ele>
        <time>2016-01-03T09:53:45.000Z</time>
      </trkpt>
      <trkpt lat="47.544" lon="6.73618">
        <ele>402</ele>
        <time>2016-01-03T09:53:46.000Z</time>
      </trkpt>
      <trkpt lat="47.54401" lon="6.73613">
        <ele>402</ele>
        <time>2016-01-03T09:53:47.000Z</time>
      </trkpt>
      <trkpt lat="47.54403" lon="6.73608">
        <ele>402</ele>
        <time>2016-01-03T09:53:48.000Z</time>
      </trkpt>
      <trkpt lat="47.54404" lon="6.73603">
        <ele>402</ele>
        <time>2016-01-03T09:53:49.000Z</time>
      </trkpt>
      <trkpt lat="47.54405" lon="6.73598">
        <ele>401</ele>
        <time>2016-01-03T09:53:50.000Z</time>
      </trkpt>
      <trkpt lat="47.54406" lon="6.73593">
        <ele>401</ele>
        <time>2016-01-03T09:53:51.000Z</time>
      </trkpt>
      <trkpt lat="47.54407" lon="6.73588">
        <ele>401</ele>
        <time>2016-01-03T09:53:52.000Z</time>
      </trkpt>
      <trkpt lat="47.54407" lon="6.73582">
        <ele>400</ele>
        <time>2016-01-03T09:53:53.000Z</time>
      </trkpt>
      <trkpt lat="47.54407" lon="6.73576">
        <ele>400</ele>
        <time>2016-01-03T09:53:54.000Z</time>
      </trkpt>
      <trkpt lat="47.54407" lon="6.73571">
        <ele>400</ele>
        <time>2016-01-03T09:53:55.000Z</time>
      </trkpt>
      <trkpt lat="47.54408" lon="6.73565">
        <ele>399</ele>
        <time>2016-01-03T09:53:56.000Z</time>
      </trkpt>
      <trkpt lat="47.54408" lon="6.7356">
        <ele>399</ele>
        <time>2016-01-03T09:53:57.000Z</time>
      </trkpt>
      <trkpt lat="47.54409" lon="6.73556">
        <ele>399</ele>
        <time>2016-01-03T09:53:58.000Z</time>
      </trkpt>
      <trkpt lat="47.54409" lon="6.73551">
        <ele>399</ele>
        <time>2016-01-03T09:53:59.000Z</time>
      </trkpt>
      <trkpt lat="47.54409" lon="6.73547">
        <ele>399</ele>
        <time>2016-01-03T09:54:00.000Z</time>
      </trkpt>
      <trkpt lat="47.54409" lon="6.73542">
        <ele>399</ele>
        <time>2016-01-03T09:54:01.000Z</time>
      </trkpt>
      <trkpt lat="47.54409" lon="6.73538">
        <ele>399</ele>
        <time>2016-01-03T09:54:02.000Z</time>
      </trkpt>
      <trkpt lat="47.54409" lon="6.73534">
        <ele>399</ele>
        <time>2016-01-03T09:54:03.000Z</time>
      </trkpt>
      <trkpt lat="47.54409" lon="6.73531">
        <ele>399</ele>
        <time>2016-01-03T09:54:04.000Z</time>
      </trkpt>
      <trkpt lat="47.54409" lon="6.73527">
        <ele>399</ele>
        <time>2016-01-03T09:54:05.000Z</time>
      </trkpt>
      <trkpt lat="47.5441" lon="6.73522">
        <ele>399</ele>
        <time>2016-01-03T09:54:07.000Z</time>
      </trkpt>
      <trkpt lat="47.5441" lon="6.73519">
        <ele>399</ele>
        <time>2016-01-03T09:54:08.000Z</time>
      </trkpt>
      <trkpt lat="47.5441" lon="6.73514">
        <ele>399</ele>
        <time>2016-01-03T09:54:10.000Z</time>
      </trkpt>
      <trkpt lat="47.5441" lon="6.73511">
        <ele>399</ele>
        <time>2016-01-03T09:54:11.000Z</time>
      </trkpt>
      <trkpt lat="47.5441" lon="6.73505">
        <ele>399</ele>
        <time>2016-01-03T09:54:13.000Z</time>
      </trkpt>
      <trkpt lat="47.54411" lon="6.73503">
        <ele>399</ele>
        <time>2016-01-03T09:54:14.000Z</time>
      </trkpt>
      <trkpt lat="47.54413" lon="6.73499">
        <ele>399</ele>
        <time>2016-01-03T09:54:16.000Z</time>
      </trkpt>
      <trkpt lat="47.54414" lon="6.73498">
        <ele>399</ele>
        <time>2016-01-03T09:54:17.000Z</time>
      </trkpt>
      <trkpt lat="47.54416" lon="6.73494">
        <ele>399</ele>
        <time>2016-01-03T09:54:19.000Z</time>
      </trkpt>
      <trkpt lat="47.54417" lon="6.73493">
        <ele>401</ele>
        <time>2016-01-03T09:54:20.000Z</time>
      </trkpt>
      <trkpt lat="47.54419" lon="6.73487">
        <ele>402</ele>
        <time>2016-01-03T09:54:22.000Z</time>
      </trkpt>
      <trkpt lat="47.5442" lon="6.73484">
        <ele>402</ele>
        <time>2016-01-03T09:54:23.000Z</time>
      </trkpt>
      <trkpt lat="47.5442" lon="6.73481">
        <ele>402</ele>
        <time>2016-01-03T09:54:24.000Z</time>
      </trkpt>
      <trkpt lat="47.54421" lon="6.73477">
        <ele>403</ele>
        <time>2016-01-03T09:54:25.000Z</time>
      </trkpt>
      <trkpt lat="47.54422" lon="6.73471">
        <ele>403</ele>
        <time>2016-01-03T09:54:27.000Z</time>
      </trkpt>
      <trkpt lat="47.54422" lon="6.73468">
        <ele>403</ele>
        <time>2016-01-03T09:54:28.000Z</time>
      </trkpt>
      <trkpt lat="47.54423" lon="6.73462">
        <ele>403</ele>
        <time>2016-01-03T09:54:30.000Z</time>
      </trkpt>
      <trkpt lat="47.54424" lon="6.73458">
        <ele>403</ele>
        <time>2016-01-03T09:54:31.000Z</time>
      </trkpt>
      <trkpt lat="47.54425" lon="6.73454">
        <ele>403</ele>
        <time>2016-01-03T09:54:32.000Z</time>
      </trkpt>
      <trkpt lat="47.54426" lon="6.73451">
        <ele>403</ele>
        <time>2016-01-03T09:54:33.000Z</time>
      </trkpt>
      <trkpt lat="47.54427" lon="6.73447">
        <ele>403</ele>
        <time>2016-01-03T09:54:34.000Z</time>
      </trkpt>
      <trkpt lat="47.54428" lon="6.73444">
        <ele>403</ele>
        <time>2016-01-03T09:54:35.000Z</time>
      </trkpt>
      <trkpt lat="47.54429" lon="6.73438">
        <ele>402</ele>
        <time>2016-01-03T09:54:37.000Z</time>
      </trkpt>
      <trkpt lat="47.54429" lon="6.73435">
        <ele>402</ele>
        <time>2016-01-03T09:54:38.000Z</time>
      </trkpt>
      <trkpt lat="47.54429" lon="6.73428">
        <ele>402</ele>
        <time>2016-01-03T09:54:40.000Z</time>
      </trkpt>
      <trkpt lat="47.5443" lon="6.73425">
        <ele>402</ele>
        <time>2016-01-03T09:54:41.000Z</time>
      </trkpt>
      <trkpt lat="47.54431" lon="6.73419">
        <ele>402</ele>
        <time>2016-01-03T09:54:43.000Z</time>
      </trkpt>
      <trkpt lat="47.54432" lon="6.73417">
        <ele>402</ele>
        <time>2016-01-03T09:54:44.000Z</time>
      </trkpt>
      <trkpt lat="47.54433" lon="6.73411">
        <ele>401</ele>
        <time>2016-01-03T09:54:46.000Z</time>
      </trkpt>
      <trkpt lat="47.54433" lon="6.73408">
        <ele>401</ele>
        <time>2016-01-03T09:54:47.000Z</time>
      </trkpt>
      <trkpt lat="47.54433" lon="6.73404">
        <ele>401</ele>
        <time>2016-01-03T09:54:48.000Z</time>
      </trkpt>
      <trkpt lat="47.54434" lon="6.73401">
        <ele>401</ele>
        <time>2016-01-03T09:54:49.000Z</time>
      </trkpt>
      <trkpt lat="47.54435" lon="6.73397">
        <ele>401</ele>
        <time>2016-01-03T09:54:50.000Z</time>
      </trkpt>
      <trkpt lat="47.54436" lon="6.73393">
        <ele>401</ele>
        <time>2016-01-03T09:54:51.000Z</time>
      </trkpt>
      <trkpt lat="47.54437" lon="6.7339">
        <ele>402</ele>
        <time>2016-01-03T09:54:52.000Z</time>
      </trkpt>
      <trkpt lat="47.54437" lon="6.73385">
        <ele>402</ele>
        <time>2016-01-03T09:54:53.000Z</time>
      </trkpt>
      <trkpt lat="47.54437" lon="6.7338">
        <ele>401</ele>
        <time>2016-01-03T09:54:54.000Z</time>
      </trkpt>
      <trkpt lat="47.54437" lon="6.73374">
        <ele>401</ele>
        <time>2016-01-03T09:54:55.000Z</time>
      </trkpt>
      <trkpt lat="47.54438" lon="6.73369">
        <ele>401</ele>
        <time>2016-01-03T09:54:56.000Z</time>
      </trkpt>
      <trkpt lat="47.54438" lon="6.73365">
        <ele>401</ele>
        <time>2016-01-03T09:54:57.000Z</time>
      </trkpt>
      <trkpt lat="47.54439" lon="6.73362">
        <ele>401</ele>
        <time>2016-01-03T09:54:58.000Z</time>
      </trkpt>
      <trkpt lat="47.5444" lon="6.73359">
        <ele>401</ele>
        <time>2016-01-03T09:54:59.000Z</time>
      </trkpt>
      <trkpt lat="47.54441" lon="6.73355">
        <ele>401</ele>
        <time>2016-01-03T09:55:00.000Z</time>
      </trkpt>
      <trkpt lat="47.54442" lon="6.73351">
        <ele>401</ele>
        <time>2016-01-03T09:55:01.000Z</time>
      </trkpt>
      <trkpt lat="47.54443" lon="6.73347">
        <ele>401</ele>
        <time>2016-01-03T09:55:02.000Z</time>
      </trkpt>
      <trkpt lat="47.54444" lon="6.73343">
        <ele>401</ele>
        <time>2016-01-03T09:55:03.000Z</time>
      </trkpt>
      <trkpt lat="47.54444" lon="6.73339">
        <ele>401</ele>
        <time>2016-01-03T09:55:04.000Z</time>
      </trkpt>
      <trkpt lat="47.54444" lon="6.73335">
        <ele>401</ele>
        <time>2016-01-03T09:55:05.000Z</time>
      </trkpt>
      <trkpt lat="47.54443" lon="6.73329">
        <ele>401</ele>
        <time>2016-01-03T09:55:07.000Z</time>
      </trkpt>
      <trkpt lat="47.54443" lon="6.73325">
        <ele>401</ele>
        <time>2016-01-03T09:55:08.000Z</time>
      </trkpt>
      <trkpt lat="47.54443" lon="6.73321">
        <ele>401</ele>
        <time>2016-01-03T09:55:09.000Z</time>
      </trkpt>
      <trkpt lat="47.54443" lon="6.73318">
        <ele>402</ele>
        <time>2016-01-03T09:55:10.000Z</time>
      </trkpt>
      <trkpt lat="47.54442" lon="6.73312">
        <ele>402</ele>
        <time>2016-01-03T09:55:13.000Z</time>
      </trkpt>
      <trkpt lat="47.54442" lon="6.73311">
        <ele>402</ele>
        <time>2016-01-03T09:55:14.000Z</time>
      </trkpt>
      <trkpt lat="47.54441" lon="6.73304">
        <ele>402</ele>
        <time>2016-01-03T09:55:18.000Z</time>
      </trkpt>
      <trkpt lat="47.54441" lon="6.73302">
        <ele>402</ele>
        <time>2016-01-03T09:55:19.000Z</time>
      </trkpt>
      <trkpt lat="47.54441" lon="6.73295">
        <ele>402</ele>
        <time>2016-01-03T09:55:21.000Z</time>
      </trkpt>
      <trkpt lat="47.54441" lon="6.73292">
        <ele>402</ele>
        <time>2016-01-03T09:55:22.000Z</time>
      </trkpt>
      <trkpt lat="47.54441" lon="6.73288">
        <ele>402</ele>
        <time>2016-01-03T09:55:23.000Z</time>
      </trkpt>
      <trkpt lat="47.54441" lon="6.73285">
        <ele>403</ele>
        <time>2016-01-03T09:55:24.000Z</time>
      </trkpt>
      <trkpt lat="47.54442" lon="6.73282">
        <ele>403</ele>
        <time>2016-01-03T09:55:25.000Z</time>
      </trkpt>
      <trkpt lat="47.54443" lon="6.73279">
        <ele>403</ele>
        <time>2016-01-03T09:55:26.000Z</time>
      </trkpt>
      <trkpt lat="47.54445" lon="6.73273">
        <ele>403</ele>
        <time>2016-01-03T09:55:28.000Z</time>
      </trkpt>
      <trkpt lat="47.54446" lon="6.7327">
        <ele>403</ele>
        <time>2016-01-03T09:55:29.000Z</time>
      </trkpt>
      <trkpt lat="47.54447" lon="6.73264">
        <ele>403</ele>
        <time>2016-01-03T09:55:32.000Z</time>
      </trkpt>
      <trkpt lat="47.54447" lon="6.73262">
        <ele>403</ele>
        <time>2016-01-03T09:55:33.000Z</time>
      </trkpt>
      <trkpt lat="47.54446" lon="6.73257">
        <ele>403</ele>
        <time>2016-01-03T09:55:38.000Z</time>
      </trkpt>
      <trkpt lat="47.54446" lon="6.73255">
        <ele>403</ele>
        <time>2016-01-03T09:55:39.000Z</time>
      </trkpt>
      <trkpt lat="47.54448" lon="6.73249">
        <ele>407</ele>
        <time>2016-01-03T09:55:45.000Z</time>
      </trkpt>
      <trkpt lat="47.54448" lon="6.73248">
        <ele>407</ele>
        <time>2016-01-03T09:55:46.000Z</time>
      </trkpt>
      <trkpt lat="47.54449" lon="6.73243">
        <ele>407</ele>
        <time>2016-01-03T09:55:49.000Z</time>
      </trkpt>
      <trkpt lat="47.54449" lon="6.73241">
        <ele>407</ele>
        <time>2016-01-03T09:55:50.000Z</time>
      </trkpt>
      <trkpt lat="47.54449" lon="6.73234">
        <ele>407</ele>
        <time>2016-01-03T09:55:54.000Z</time>
      </trkpt>
      <trkpt lat="47.54449" lon="6.73233">
        <ele>407</ele>
        <time>2016-01-03T09:55:55.000Z</time>
      </trkpt>
      <trkpt lat="47.54449" lon="6.73227">
        <ele>408</ele>
        <time>2016-01-03T09:55:59.000Z</time>
      </trkpt>
      <trkpt lat="47.54449" lon="6.73225">
        <ele>408</ele>
        <time>2016-01-03T09:56:00.000Z</time>
      </trkpt>
      <trkpt lat="47.54449" lon="6.73219">
        <ele>408</ele>
        <time>2016-01-03T09:56:03.000Z</time>
      </trkpt>
      <trkpt lat="47.54449" lon="6.73218">
        <ele>408</ele>
        <time>2016-01-03T09:56:04.000Z</time>
      </trkpt>
      <trkpt lat="47.54451" lon="6.73213">
        <ele>408</ele>
        <time>2016-01-03T09:56:07.000Z</time>
      </trkpt>
      <trkpt lat="47.54451" lon="6.73212">
        <ele>408</ele>
        <time>2016-01-03T09:56:08.000Z</time>
      </trkpt>
      <trkpt lat="47.54449" lon="6.73207">
        <ele>409</ele>
        <time>2016-01-03T09:56:12.000Z</time>
      </trkpt>
      <trkpt lat="47.54449" lon="6.73204">
        <ele>409</ele>
        <time>2016-01-03T09:56:13.000Z</time>
      </trkpt>
      <trkpt lat="47.54448" lon="6.73198">
        <ele>409</ele>
        <time>2016-01-03T09:56:16.000Z</time>
      </trkpt>
      <trkpt lat="47.54449" lon="6.73196">
        <ele>409</ele>
        <time>2016-01-03T09:56:17.000Z</time>
      </trkpt>
      <trkpt lat="47.54451" lon="6.7319">
        <ele>409</ele>
        <time>2016-01-03T09:56:20.000Z</time>
      </trkpt>
      <trkpt lat="47.54451" lon="6.73189">
        <ele>409</ele>
        <time>2016-01-03T09:56:21.000Z</time>
      </trkpt>
      <trkpt lat="47.54451" lon="6.73182">
        <ele>410</ele>
        <time>2016-01-03T09:56:25.000Z</time>
      </trkpt>
      <trkpt lat="47.54451" lon="6.7318">
        <ele>410</ele>
        <time>2016-01-03T09:56:26.000Z</time>
      </trkpt>
      <trkpt lat="47.54451" lon="6.73176">
        <ele>410</ele>
        <time>2016-01-03T09:56:28.000Z</time>
      </trkpt>
      <trkpt lat="47.54451" lon="6.73173">
        <ele>410</ele>
        <time>2016-01-03T09:56:29.000Z</time>
      </trkpt>
      <trkpt lat="47.5445" lon="6.73169">
        <ele>410</ele>
        <time>2016-01-03T09:56:31.000Z</time>
      </trkpt>
      <trkpt lat="47.5445" lon="6.73166">
        <ele>412</ele>
        <time>2016-01-03T09:56:32.000Z</time>
      </trkpt>
      <trkpt lat="47.54449" lon="6.7316">
        <ele>412</ele>
        <time>2016-01-03T09:56:35.000Z</time>
      </trkpt>
      <trkpt lat="47.54449" lon="6.73157">
        <ele>412</ele>
        <time>2016-01-03T09:56:36.000Z</time>
      </trkpt>
      <trkpt lat="47.54449" lon="6.73152">
        <ele>412</ele>
        <time>2016-01-03T09:56:38.000Z</time>
      </trkpt>
      <trkpt lat="47.54449" lon="6.7315">
        <ele>412</ele>
        <time>2016-01-03T09:56:39.000Z</time>
      </trkpt>
      <trkpt lat="47.54448" lon="6.73145">
        <ele>412</ele>
        <time>2016-01-03T09:56:41.000Z</time>
      </trkpt>
      <trkpt lat="47.54447" lon="6.73143">
        <ele>412</ele>
        <time>2016-01-03T09:56:42.000Z</time>
      </trkpt>
      <trkpt lat="47.54446" lon="6.73137">
        <ele>412</ele>
        <time>2016-01-03T09:56:44.000Z</time>
      </trkpt>
      <trkpt lat="47.54446" lon="6.73135">
        <ele>412</ele>
        <time>2016-01-03T09:56:45.000Z</time>
      </trkpt>
      <trkpt lat="47.54443" lon="6.7313">
        <ele>412</ele>
        <time>2016-01-03T09:56:48.000Z</time>
      </trkpt>
      <trkpt lat="47.54443" lon="6.73128">
        <ele>412</ele>
        <time>2016-01-03T09:56:49.000Z</time>
      </trkpt>
      <trkpt lat="47.54443" lon="6.73122">
        <ele>412</ele>
        <time>2016-01-03T09:56:52.000Z</time>
      </trkpt>
      <trkpt lat="47.54443" lon="6.7312">
        <ele>412</ele>
        <time>2016-01-03T09:56:53.000Z</time>
      </trkpt>
      <trkpt lat="47.54439" lon="6.73117">
        <ele>412</ele>
        <time>2016-01-03T09:57:32.000Z</time>
      </trkpt>
      <trkpt lat="47.54437" lon="6.73118">
        <ele>412</ele>
        <time>2016-01-03T09:57:33.000Z</time>
      </trkpt>
      <trkpt lat="47.54433" lon="6.7312">
        <ele>412</ele>
        <time>2016-01-03T09:57:35.000Z</time>
      </trkpt>
      <trkpt lat="47.5443" lon="6.7312">
        <ele>412</ele>
        <time>2016-01-03T09:57:36.000Z</time>
      </trkpt>
      <trkpt lat="47.54427" lon="6.73119">
        <ele>412</ele>
        <time>2016-01-03T09:57:37.000Z</time>
      </trkpt>
      <trkpt lat="47.54418" lon="6.73116">
        <ele>412</ele>
        <time>2016-01-03T09:57:38.000Z</time>
      </trkpt>
      <trkpt lat="47.54414" lon="6.73115">
        <ele>407</ele>
        <time>2016-01-03T09:57:39.000Z</time>
      </trkpt>
      <trkpt lat="47.54409" lon="6.73112">
        <ele>407</ele>
        <time>2016-01-03T09:57:40.000Z</time>
      </trkpt>
      <trkpt lat="47.54404" lon="6.73111">
        <ele>407</ele>
        <time>2016-01-03T09:57:41.000Z</time>
      </trkpt>
      <trkpt lat="47.54399" lon="6.73109">
        <ele>407</ele>
        <time>2016-01-03T09:57:42.000Z</time>
      </trkpt>
      <trkpt lat="47.54393" lon="6.73105">
        <ele>407</ele>
        <time>2016-01-03T09:57:43.000Z</time>
      </trkpt>
      <trkpt lat="47.54387" lon="6.73103">
        <ele>407</ele>
        <time>2016-01-03T09:57:44.000Z</time>
      </trkpt>
      <trkpt lat="47.54381" lon="6.731">
        <ele>407</ele>
        <time>2016-01-03T09:57:45.000Z</time>
      </trkpt>
      <trkpt lat="47.54375" lon="6.73097">
        <ele>406</ele>
        <time>2016-01-03T09:57:46.000Z</time>
      </trkpt>
      <trkpt lat="47.54369" lon="6.73093">
        <ele>406</ele>
        <time>2016-01-03T09:57:47.000Z</time>
      </trkpt>
      <trkpt lat="47.54362" lon="6.73089">
        <ele>406</ele>
        <time>2016-01-03T09:57:48.000Z</time>
      </trkpt>
      <trkpt lat="47.54354" lon="6.73087">
        <ele>405</ele>
        <time>2016-01-03T09:57:49.000Z</time>
      </trkpt>
      <trkpt lat="47.54348" lon="6.73085">
        <ele>405</ele>
        <time>2016-01-03T09:57:50.000Z</time>
      </trkpt>
      <trkpt lat="47.54342" lon="6.73084">
        <ele>405</ele>
        <time>2016-01-03T09:57:51.000Z</time>
      </trkpt>
      <trkpt lat="47.54335" lon="6.7308">
        <ele>404</ele>
        <time>2016-01-03T09:57:52.000Z</time>
      </trkpt>
      <trkpt lat="47.54329" lon="6.73079">
        <ele>403</ele>
        <time>2016-01-03T09:57:53.000Z</time>
      </trkpt>
      <trkpt lat="47.54322" lon="6.73077">
        <ele>403</ele>
        <time>2016-01-03T09:57:54.000Z</time>
      </trkpt>
      <trkpt lat="47.54316" lon="6.73074">
        <ele>402</ele>
        <time>2016-01-03T09:57:55.000Z</time>
      </trkpt>
      <trkpt lat="47.54309" lon="6.73071">
        <ele>402</ele>
        <time>2016-01-03T09:57:56.000Z</time>
      </trkpt>
      <trkpt lat="47.54301" lon="6.73069">
        <ele>401</ele>
        <time>2016-01-03T09:57:57.000Z</time>
      </trkpt>
      <trkpt lat="47.54293" lon="6.73064">
        <ele>401</ele>
        <time>2016-01-03T09:57:58.000Z</time>
      </trkpt>
      <trkpt lat="47.54285" lon="6.73061">
        <ele>400</ele>
        <time>2016-01-03T09:57:59.000Z</time>
      </trkpt>
      <trkpt lat="47.54278" lon="6.73058">
        <ele>400</ele>
        <time>2016-01-03T09:58:00.000Z</time>
      </trkpt>
      <trkpt lat="47.5427" lon="6.73056">
        <ele>400</ele>
        <time>2016-01-03T09:58:01.000Z</time>
      </trkpt>
      <trkpt lat="47.54263" lon="6.73054">
        <ele>400</ele>
        <time>2016-01-03T09:58:02.000Z</time>
      </trkpt>
      <trkpt lat="47.54255" lon="6.73052">
        <ele>400</ele>
        <time>2016-01-03T09:58:03.000Z</time>
      </trkpt>
      <trkpt lat="47.54249" lon="6.73049">
        <ele>397</ele>
        <time>2016-01-03T09:58:04.000Z</time>
      </trkpt>
      <trkpt lat="47.54242" lon="6.73048">
        <ele>397</ele>
        <time>2016-01-03T09:58:05.000Z</time>
      </trkpt>
      <trkpt lat="47.54235" lon="6.73045">
        <ele>397</ele>
        <time>2016-01-03T09:58:06.000Z</time>
      </trkpt>
      <trkpt lat="47.54226" lon="6.73044">
        <ele>397</ele>
        <time>2016-01-03T09:58:07.000Z</time>
      </trkpt>
      <trkpt lat="47.54221" lon="6.73042">
        <ele>397</ele>
        <time>2016-01-03T09:58:08.000Z</time>
      </trkpt>
      <trkpt lat="47.54212" lon="6.73039">
        <ele>397</ele>
        <time>2016-01-03T09:58:09.000Z</time>
      </trkpt>
      <trkpt lat="47.54205" lon="6.73038">
        <ele>397</ele>
        <time>2016-01-03T09:58:10.000Z</time>
      </trkpt>
      <trkpt lat="47.54199" lon="6.73036">
        <ele>397</ele>
        <time>2016-01-03T09:58:11.000Z</time>
      </trkpt>
      <trkpt lat="47.54193" lon="6.73033">
        <ele>396</ele>
        <time>2016-01-03T09:58:12.000Z</time>
      </trkpt>
      <trkpt lat="47.54187" lon="6.73033">
        <ele>396</ele>
        <time>2016-01-03T09:58:13.000Z</time>
      </trkpt>
      <trkpt lat="47.54181" lon="6.73032">
        <ele>396</ele>
        <time>2016-01-03T09:58:14.000Z</time>
      </trkpt>
      <trkpt lat="47.54175" lon="6.73031">
        <ele>396</ele>
        <time>2016-01-03T09:58:15.000Z</time>
      </trkpt>
      <trkpt lat="47.54167" lon="6.73025">
        <ele>396</ele>
        <time>2016-01-03T09:58:16.000Z</time>
      </trkpt>
      <trkpt lat="47.54159" lon="6.7302">
        <ele>393</ele>
        <time>2016-01-03T09:58:17.000Z</time>
      </trkpt>
      <trkpt lat="47.54153" lon="6.73015">
        <ele>393</ele>
        <time>2016-01-03T09:58:18.000Z</time>
      </trkpt>
      <trkpt lat="47.54149" lon="6.73011">
        <ele>393</ele>
        <time>2016-01-03T09:58:19.000Z</time>
      </trkpt>
      <trkpt lat="47.54142" lon="6.73004">
        <ele>393</ele>
        <time>2016-01-03T09:58:20.000Z</time>
      </trkpt>
      <trkpt lat="47.54135" lon="6.72999">
        <ele>392</ele>
        <time>2016-01-03T09:58:21.000Z</time>
      </trkpt>
      <trkpt lat="47.54129" lon="6.72995">
        <ele>391</ele>
        <time>2016-01-03T09:58:22.000Z</time>
      </trkpt>
      <trkpt lat="47.54122" lon="6.72991">
        <ele>391</ele>
        <time>2016-01-03T09:58:23.000Z</time>
      </trkpt>
      <trkpt lat="47.54116" lon="6.72989">
        <ele>391</ele>
        <time>2016-01-03T09:58:24.000Z</time>
      </trkpt>
      <trkpt lat="47.5411" lon="6.72983">
        <ele>390</ele>
        <time>2016-01-03T09:58:25.000Z</time>
      </trkpt>
      <trkpt lat="47.54104" lon="6.7298">
        <ele>390</ele>
        <time>2016-01-03T09:58:26.000Z</time>
      </trkpt>
      <trkpt lat="47.54098" lon="6.72977">
        <ele>390</ele>
        <time>2016-01-03T09:58:27.000Z</time>
      </trkpt>
      <trkpt lat="47.54092" lon="6.72969">
        <ele>390</ele>
        <time>2016-01-03T09:58:28.000Z</time>
      </trkpt>
      <trkpt lat="47.54086" lon="6.72965">
        <ele>390</ele>
        <time>2016-01-03T09:58:29.000Z</time>
      </trkpt>
      <trkpt lat="47.54081" lon="6.72956">
        <ele>386</ele>
        <time>2016-01-03T09:58:30.000Z</time>
      </trkpt>
      <trkpt lat="47.54076" lon="6.72948">
        <ele>387</ele>
        <time>2016-01-03T09:58:31.000Z</time>
      </trkpt>
      <trkpt lat="47.54071" lon="6.7294">
        <ele>387</ele>
        <time>2016-01-03T09:58:32.000Z</time>
      </trkpt>
      <trkpt lat="47.54066" lon="6.72932">
        <ele>387</ele>
        <time>2016-01-03T09:58:33.000Z</time>
      </trkpt>
      <trkpt lat="47.5406" lon="6.72924">
        <ele>387</ele>
        <time>2016-01-03T09:58:34.000Z</time>
      </trkpt>
      <trkpt lat="47.54056" lon="6.72916">
        <ele>386</ele>
        <time>2016-01-03T09:58:35.000Z</time>
      </trkpt>
      <trkpt lat="47.54051" lon="6.72908">
        <ele>386</ele>
        <time>2016-01-03T09:58:36.000Z</time>
      </trkpt>
      <trkpt lat="47.54046" lon="6.729">
        <ele>386</ele>
        <time>2016-01-03T09:58:37.000Z</time>
      </trkpt>
      <trkpt lat="47.54042" lon="6.72892">
        <ele>386</ele>
        <time>2016-01-03T09:58:38.000Z</time>
      </trkpt>
      <trkpt lat="47.54036" lon="6.72885">
        <ele>385</ele>
        <time>2016-01-03T09:58:39.000Z</time>
      </trkpt>
      <trkpt lat="47.54032" lon="6.72878">
        <ele>385</ele>
        <time>2016-01-03T09:58:40.000Z</time>
      </trkpt>
      <trkpt lat="47.54028" lon="6.7287">
        <ele>385</ele>
        <time>2016-01-03T09:58:41.000Z</time>
      </trkpt>
      <trkpt lat="47.54024" lon="6.72862">
        <ele>385</ele>
        <time>2016-01-03T09:58:42.000Z</time>
      </trkpt>
      <trkpt lat="47.54021" lon="6.72854">
        <ele>385</ele>
        <time>2016-01-03T09:58:43.000Z</time>
      </trkpt>
      <trkpt lat="47.54018" lon="6.72845">
        <ele>384</ele>
        <time>2016-01-03T09:58:44.000Z</time>
      </trkpt>
      <trkpt lat="47.54016" lon="6.72839">
        <ele>384</ele>
        <time>2016-01-03T09:58:45.000Z</time>
      </trkpt>
      <trkpt lat="47.54015" lon="6.7283">
        <ele>382</ele>
        <time>2016-01-03T09:58:46.000Z</time>
      </trkpt>
      <trkpt lat="47.54013" lon="6.72824">
        <ele>382</ele>
        <time>2016-01-03T09:58:47.000Z</time>
      </trkpt>
      <trkpt lat="47.54012" lon="6.72818">
        <ele>382</ele>
        <time>2016-01-03T09:58:48.000Z</time>
      </trkpt>
      <trkpt lat="47.54012" lon="6.72814">
        <ele>382</ele>
        <time>2016-01-03T09:58:49.000Z</time>
      </trkpt>
      <trkpt lat="47.5401" lon="6.7281">
        <ele>382</ele>
        <time>2016-01-03T09:58:50.000Z</time>
      </trkpt>
      <trkpt lat="47.54006" lon="6.72804">
        <ele>382</ele>
        <time>2016-01-03T09:58:51.000Z</time>
      </trkpt>
      <trkpt lat="47.54003" lon="6.72797">
        <ele>381</ele>
        <time>2016-01-03T09:58:52.000Z</time>
      </trkpt>
      <trkpt lat="47.54001" lon="6.72792">
        <ele>381</ele>
        <time>2016-01-03T09:58:53.000Z</time>
      </trkpt>
      <trkpt lat="47.53999" lon="6.72788">
        <ele>380</ele>
        <time>2016-01-03T09:58:54.000Z</time>
      </trkpt>
      <trkpt lat="47.53996" lon="6.72786">
        <ele>380</ele>
        <time>2016-01-03T09:58:55.000Z</time>
      </trkpt>
      <trkpt lat="47.53992" lon="6.72782">
        <ele>380</ele>
        <time>2016-01-03T09:58:56.000Z</time>
      </trkpt>
      <trkpt lat="47.53985" lon="6.72776">
        <ele>380</ele>
        <time>2016-01-03T09:58:57.000Z</time>
      </trkpt>
      <trkpt lat="47.53978" lon="6.72772">
        <ele>380</ele>
        <time>2016-01-03T09:58:58.000Z</time>
      </trkpt>
      <trkpt lat="47.53972" lon="6.72769">
        <ele>380</ele>
        <time>2016-01-03T09:58:59.000Z</time>
      </trkpt>
      <trkpt lat="47.53964" lon="6.72763">
        <ele>380</ele>
        <time>2016-01-03T09:59:00.000Z</time>
      </trkpt>
      <trkpt lat="47.53957" lon="6.72761">
        <ele>380</ele>
        <time>2016-01-03T09:59:01.000Z</time>
      </trkpt>
      <trkpt lat="47.53949" lon="6.72759">
        <ele>380</ele>
        <time>2016-01-03T09:59:02.000Z</time>
      </trkpt>
      <trkpt lat="47.5394" lon="6.72755">
        <ele>379</ele>
        <time>2016-01-03T09:59:03.000Z</time>
      </trkpt>
      <trkpt lat="47.53931" lon="6.72749">
        <ele>377</ele>
        <time>2016-01-03T09:59:04.000Z</time>
      </trkpt>
      <trkpt lat="47.53922" lon="6.72743">
        <ele>377</ele>
        <time>2016-01-03T09:59:05.000Z</time>
      </trkpt>
      <trkpt lat="47.53912" lon="6.72738">
        <ele>374</ele>
        <time>2016-01-03T09:59:06.000Z</time>
      </trkpt>
      <trkpt lat="47.53903" lon="6.72733">
        <ele>373</ele>
        <time>2016-01-03T09:59:07.000Z</time>
      </trkpt>
      <trkpt lat="47.53895" lon="6.72731">
        <ele>372</ele>
        <time>2016-01-03T09:59:08.000Z</time>
      </trkpt>
      <trkpt lat="47.53887" lon="6.7273">
        <ele>371</ele>
        <time>2016-01-03T09:59:09.000Z</time>
      </trkpt>
      <trkpt lat="47.53879" lon="6.7273">
        <ele>370</ele>
        <time>2016-01-03T09:59:10.000Z</time>
      </trkpt>
      <trkpt lat="47.5387" lon="6.72731">
        <ele>370</ele>
        <time>2016-01-03T09:59:11.000Z</time>
      </trkpt>
      <trkpt lat="47.53862" lon="6.72732">
        <ele>370</ele>
        <time>2016-01-03T09:59:12.000Z</time>
      </trkpt>
      <trkpt lat="47.53854" lon="6.72732">
        <ele>369</ele>
        <time>2016-01-03T09:59:13.000Z</time>
      </trkpt>
      <trkpt lat="47.53845" lon="6.72731">
        <ele>369</ele>
        <time>2016-01-03T09:59:14.000Z</time>
      </trkpt>
      <trkpt lat="47.53836" lon="6.72732">
        <ele>369</ele>
        <time>2016-01-03T09:59:15.000Z</time>
      </trkpt>
      <trkpt lat="47.53828" lon="6.72733">
        <ele>364</ele>
        <time>2016-01-03T09:59:16.000Z</time>
      </trkpt>
      <trkpt lat="47.53819" lon="6.72732">
        <ele>363</ele>
        <time>2016-01-03T09:59:17.000Z</time>
      </trkpt>
      <trkpt lat="47.53811" lon="6.72733">
        <ele>362</ele>
        <time>2016-01-03T09:59:18.000Z</time>
      </trkpt>
      <trkpt lat="47.53804" lon="6.72736">
        <ele>361</ele>
        <time>2016-01-03T09:59:19.000Z</time>
      </trkpt>
      <trkpt lat="47.53798" lon="6.7274">
        <ele>361</ele>
        <time>2016-01-03T09:59:20.000Z</time>
      </trkpt>
      <trkpt lat="47.53792" lon="6.72743">
        <ele>360</ele>
        <time>2016-01-03T09:59:21.000Z</time>
      </trkpt>
      <trkpt lat="47.53784" lon="6.72745">
        <ele>359</ele>
        <time>2016-01-03T09:59:22.000Z</time>
      </trkpt>
      <trkpt lat="47.53776" lon="6.7274">
        <ele>359</ele>
        <time>2016-01-03T09:59:23.000Z</time>
      </trkpt>
      <trkpt lat="47.53767" lon="6.7273">
        <ele>358</ele>
        <time>2016-01-03T09:59:24.000Z</time>
      </trkpt>
      <trkpt lat="47.53761" lon="6.72723">
        <ele>357</ele>
        <time>2016-01-03T09:59:25.000Z</time>
      </trkpt>
      <trkpt lat="47.53754" lon="6.72718">
        <ele>357</ele>
        <time>2016-01-03T09:59:26.000Z</time>
      </trkpt>
      <trkpt lat="47.53748" lon="6.72715">
        <ele>353</ele>
        <time>2016-01-03T09:59:27.000Z</time>
      </trkpt>
      <trkpt lat="47.53737" lon="6.7272">
        <ele>353</ele>
        <time>2016-01-03T09:59:28.000Z</time>
      </trkpt>
      <trkpt lat="47.53729" lon="6.72722">
        <ele>353</ele>
        <time>2016-01-03T09:59:29.000Z</time>
      </trkpt>
      <trkpt lat="47.53721" lon="6.72723">
        <ele>353</ele>
        <time>2016-01-03T09:59:30.000Z</time>
      </trkpt>
      <trkpt lat="47.53714" lon="6.72725">
        <ele>353</ele>
        <time>2016-01-03T09:59:31.000Z</time>
      </trkpt>
      <trkpt lat="47.53707" lon="6.72726">
        <ele>353</ele>
        <time>2016-01-03T09:59:32.000Z</time>
      </trkpt>
      <trkpt lat="47.53701" lon="6.72729">
        <ele>353</ele>
        <time>2016-01-03T09:59:33.000Z</time>
      </trkpt>
      <trkpt lat="47.53696" lon="6.72729">
        <ele>353</ele>
        <time>2016-01-03T09:59:34.000Z</time>
      </trkpt>
      <trkpt lat="47.53692" lon="6.72729">
        <ele>353</ele>
        <time>2016-01-03T09:59:35.000Z</time>
      </trkpt>
      <trkpt lat="47.53689" lon="6.72729">
        <ele>353</ele>
        <time>2016-01-03T09:59:36.000Z</time>
      </trkpt>
      <trkpt lat="47.53685" lon="6.72727">
        <ele>353</ele>
        <time>2016-01-03T09:59:37.000Z</time>
      </trkpt>
      <trkpt lat="47.53683" lon="6.72727">
        <ele>353</ele>
        <time>2016-01-03T09:59:38.000Z</time>
      </trkpt>
      <trkpt lat="47.53681" lon="6.72725">
        <ele>353</ele>
        <time>2016-01-03T09:59:39.000Z</time>
      </trkpt>
      <trkpt lat="47.53679" lon="6.72723">
        <ele>353</ele>
        <time>2016-01-03T09:59:40.000Z</time>
      </trkpt>
      <trkpt lat="47.53677" lon="6.72722">
        <ele>353</ele>
        <time>2016-01-03T09:59:41.000Z</time>
      </trkpt>
      <trkpt lat="47.53674" lon="6.72721">
        <ele>353</ele>
        <time>2016-01-03T09:59:42.000Z</time>
      </trkpt>
      <trkpt lat="47.5367" lon="6.72718">
        <ele>352</ele>
        <time>2016-01-03T09:59:44.000Z</time>
      </trkpt>
      <trkpt lat="47.53668" lon="6.72717">
        <ele>352</ele>
        <time>2016-01-03T09:59:45.000Z</time>
      </trkpt>
      <trkpt lat="47.53665" lon="6.72715">
        <ele>353</ele>
        <time>2016-01-03T09:59:46.000Z</time>
      </trkpt>
      <trkpt lat="47.53663" lon="6.72714">
        <ele>353</ele>
        <time>2016-01-03T09:59:47.000Z</time>
      </trkpt>
      <trkpt lat="47.5366" lon="6.72714">
        <ele>353</ele>
        <time>2016-01-03T09:59:48.000Z</time>
      </trkpt>
      <trkpt lat="47.53657" lon="6.72713">
        <ele>352</ele>
        <time>2016-01-03T09:59:49.000Z</time>
      </trkpt>
      <trkpt lat="47.53654" lon="6.72712">
        <ele>352</ele>
        <time>2016-01-03T09:59:50.000Z</time>
      </trkpt>
      <trkpt lat="47.53651" lon="6.72711">
        <ele>352</ele>
        <time>2016-01-03T09:59:51.000Z</time>
      </trkpt>
      <trkpt lat="47.53648" lon="6.72711">
        <ele>352</ele>
        <time>2016-01-03T09:59:52.000Z</time>
      </trkpt>
      <trkpt lat="47.53644" lon="6.7271">
        <ele>352</ele>
        <time>2016-01-03T09:59:53.000Z</time>
      </trkpt>
      <trkpt lat="47.5364" lon="6.72709">
        <ele>352</ele>
        <time>2016-01-03T09:59:54.000Z</time>
      </trkpt>
      <trkpt lat="47.53636" lon="6.72708">
        <ele>353</ele>
        <time>2016-01-03T09:59:55.000Z</time>
      </trkpt>
      <trkpt lat="47.53632" lon="6.72707">
        <ele>353</ele>
        <time>2016-01-03T09:59:56.000Z</time>
      </trkpt>
      <trkpt lat="47.53628" lon="6.72708">
        <ele>353</ele>
        <time>2016-01-03T09:59:57.000Z</time>
      </trkpt>
      <trkpt lat="47.53624" lon="6.72708">
        <ele>353</ele>
        <time>2016-01-03T09:59:58.000Z</time>
      </trkpt>
      <trkpt lat="47.53619" lon="6.72709">
        <ele>353</ele>
        <time>2016-01-03T09:59:59.000Z</time>
      </trkpt>
      <trkpt lat="47.53615" lon="6.7271">
        <ele>353</ele>
        <time>2016-01-03T10:00:00.000Z</time>
      </trkpt>
      <trkpt lat="47.5361" lon="6.72709">
        <ele>353</ele>
        <time>2016-01-03T10:00:01.000Z</time>
      </trkpt>
      <trkpt lat="47.53606" lon="6.72709">
        <ele>353</ele>
        <time>2016-01-03T10:00:02.000Z</time>
      </trkpt>
      <trkpt lat="47.53602" lon="6.72708">
        <ele>353</ele>
        <time>2016-01-03T10:00:03.000Z</time>
      </trkpt>
      <trkpt lat="47.53598" lon="6.72707">
        <ele>353</ele>
        <time>2016-01-03T10:00:04.000Z</time>
      </trkpt>
      <trkpt lat="47.53588" lon="6.72706">
        <ele>353</ele>
        <time>2016-01-03T10:00:05.000Z</time>
      </trkpt>
      <trkpt lat="47.53581" lon="6.72705">
        <ele>352</ele>
        <time>2016-01-03T10:00:06.000Z</time>
      </trkpt>
      <trkpt lat="47.53576" lon="6.72702">
        <ele>352</ele>
        <time>2016-01-03T10:00:07.000Z</time>
      </trkpt>
      <trkpt lat="47.5357" lon="6.727">
        <ele>352</ele>
        <time>2016-01-03T10:00:08.000Z</time>
      </trkpt>
      <trkpt lat="47.53565" lon="6.72698">
        <ele>351</ele>
        <time>2016-01-03T10:00:09.000Z</time>
      </trkpt>
      <trkpt lat="47.53559" lon="6.72698">
        <ele>351</ele>
        <time>2016-01-03T10:00:10.000Z</time>
      </trkpt>
      <trkpt lat="47.53555" lon="6.72698">
        <ele>351</ele>
        <time>2016-01-03T10:00:11.000Z</time>
      </trkpt>
      <trkpt lat="47.5355" lon="6.72697">
        <ele>351</ele>
        <time>2016-01-03T10:00:12.000Z</time>
      </trkpt>
      <trkpt lat="47.53544" lon="6.72695">
        <ele>351</ele>
        <time>2016-01-03T10:00:13.000Z</time>
      </trkpt>
      <trkpt lat="47.53538" lon="6.72694">
        <ele>350</ele>
        <time>2016-01-03T10:00:14.000Z</time>
      </trkpt>
      <trkpt lat="47.53532" lon="6.72692">
        <ele>350</ele>
        <time>2016-01-03T10:00:15.000Z</time>
      </trkpt>
      <trkpt lat="47.53526" lon="6.72691">
        <ele>350</ele>
        <time>2016-01-03T10:00:16.000Z</time>
      </trkpt>
      <trkpt lat="47.5352" lon="6.7269">
        <ele>349</ele>
        <time>2016-01-03T10:00:17.000Z</time>
      </trkpt>
      <trkpt lat="47.53514" lon="6.72689">
        <ele>349</ele>
        <time>2016-01-03T10:00:18.000Z</time>
      </trkpt>
      <trkpt lat="47.53507" lon="6.72687">
        <ele>349</ele>
        <time>2016-01-03T10:00:19.000Z</time>
      </trkpt>
      <trkpt lat="47.53501" lon="6.72686">
        <ele>348</ele>
        <time>2016-01-03T10:00:20.000Z</time>
      </trkpt>
      <trkpt lat="47.53495" lon="6.72682">
        <ele>346</ele>
        <time>2016-01-03T10:00:21.000Z</time>
      </trkpt>
      <trkpt lat="47.5349" lon="6.72675">
        <ele>346</ele>
        <time>2016-01-03T10:00:22.000Z</time>
      </trkpt>
      <trkpt lat="47.53486" lon="6.72667">
        <ele>344</ele>
        <time>2016-01-03T10:00:23.000Z</time>
      </trkpt>
      <trkpt lat="47.53484" lon="6.72657">
        <ele>344</ele>
        <time>2016-01-03T10:00:24.000Z</time>
      </trkpt>
      <trkpt lat="47.53481" lon="6.72647">
        <ele>344</ele>
        <time>2016-01-03T10:00:25.000Z</time>
      </trkpt>
      <trkpt lat="47.53477" lon="6.72638">
        <ele>344</ele>
        <time>2016-01-03T10:00:26.000Z</time>
      </trkpt>
      <trkpt lat="47.53474" lon="6.72628">
        <ele>344</ele>
        <time>2016-01-03T10:00:27.000Z</time>
      </trkpt>
      <trkpt lat="47.5347" lon="6.72619">
        <ele>343</ele>
        <time>2016-01-03T10:00:28.000Z</time>
      </trkpt>
      <trkpt lat="47.53467" lon="6.72611">
        <ele>343</ele>
        <time>2016-01-03T10:00:29.000Z</time>
      </trkpt>
      <trkpt lat="47.53463" lon="6.72602">
        <ele>343</ele>
        <time>2016-01-03T10:00:30.000Z</time>
      </trkpt>
      <trkpt lat="47.53459" lon="6.72592">
        <ele>343</ele>
        <time>2016-01-03T10:00:31.000Z</time>
      </trkpt>
      <trkpt lat="47.53456" lon="6.72583">
        <ele>343</ele>
        <time>2016-01-03T10:00:32.000Z</time>
      </trkpt>
      <trkpt lat="47.53452" lon="6.72575">
        <ele>344</ele>
        <time>2016-01-03T10:00:33.000Z</time>
      </trkpt>
      <trkpt lat="47.53448" lon="6.72567">
        <ele>345</ele>
        <time>2016-01-03T10:00:34.000Z</time>
      </trkpt>
      <trkpt lat="47.53444" lon="6.72558">
        <ele>345</ele>
        <time>2016-01-03T10:00:35.000Z</time>
      </trkpt>
      <trkpt lat="47.53441" lon="6.72551">
        <ele>345</ele>
        <time>2016-01-03T10:00:36.000Z</time>
      </trkpt>
      <trkpt lat="47.53437" lon="6.72543">
        <ele>345</ele>
        <time>2016-01-03T10:00:37.000Z</time>
      </trkpt>
      <trkpt lat="47.53433" lon="6.72536">
        <ele>346</ele>
        <time>2016-01-03T10:00:38.000Z</time>
      </trkpt>
      <trkpt lat="47.53429" lon="6.72529">
        <ele>346</ele>
        <time>2016-01-03T10:00:39.000Z</time>
      </trkpt>
      <trkpt lat="47.53424" lon="6.72522">
        <ele>346</ele>
        <time>2016-01-03T10:00:40.000Z</time>
      </trkpt>
      <trkpt lat="47.5342" lon="6.72517">
        <ele>346</ele>
        <time>2016-01-03T10:00:41.000Z</time>
      </trkpt>
      <trkpt lat="47.53416" lon="6.72512">
        <ele>346</ele>
        <time>2016-01-03T10:00:42.000Z</time>
      </trkpt>
      <trkpt lat="47.53412" lon="6.72508">
        <ele>347</ele>
        <time>2016-01-03T10:00:43.000Z</time>
      </trkpt>
      <trkpt lat="47.53408" lon="6.72505">
        <ele>347</ele>
        <time>2016-01-03T10:00:44.000Z</time>
      </trkpt>
      <trkpt lat="47.53404" lon="6.72502">
        <ele>347</ele>
        <time>2016-01-03T10:00:45.000Z</time>
      </trkpt>
      <trkpt lat="47.534" lon="6.72501">
        <ele>346</ele>
        <time>2016-01-03T10:00:46.000Z</time>
      </trkpt>
      <trkpt lat="47.53397" lon="6.72501">
        <ele>346</ele>
        <time>2016-01-03T10:00:47.000Z</time>
      </trkpt>
      <trkpt lat="47.53393" lon="6.72499">
        <ele>350</ele>
        <time>2016-01-03T10:00:48.000Z</time>
      </trkpt>
      <trkpt lat="47.5339" lon="6.72497">
        <ele>350</ele>
        <time>2016-01-03T10:00:49.000Z</time>
      </trkpt>
      <trkpt lat="47.53386" lon="6.72497">
        <ele>350</ele>
        <time>2016-01-03T10:00:50.000Z</time>
      </trkpt>
      <trkpt lat="47.53382" lon="6.72497">
        <ele>350</ele>
        <time>2016-01-03T10:00:51.000Z</time>
      </trkpt>
      <trkpt lat="47.53379" lon="6.72496">
        <ele>350</ele>
        <time>2016-01-03T10:00:52.000Z</time>
      </trkpt>
      <trkpt lat="47.53376" lon="6.72496">
        <ele>350</ele>
        <time>2016-01-03T10:00:53.000Z</time>
      </trkpt>
      <trkpt lat="47.53373" lon="6.72495">
        <ele>350</ele>
        <time>2016-01-03T10:00:54.000Z</time>
      </trkpt>
      <trkpt lat="47.5337" lon="6.72495">
        <ele>351</ele>
        <time>2016-01-03T10:00:55.000Z</time>
      </trkpt>
      <trkpt lat="47.53368" lon="6.72494">
        <ele>351</ele>
        <time>2016-01-03T10:00:56.000Z</time>
      </trkpt>
      <trkpt lat="47.53365" lon="6.72493">
        <ele>351</ele>
        <time>2016-01-03T10:00:57.000Z</time>
      </trkpt>
      <trkpt lat="47.53362" lon="6.72492">
        <ele>351</ele>
        <time>2016-01-03T10:00:58.000Z</time>
      </trkpt>
      <trkpt lat="47.53359" lon="6.72492">
        <ele>351</ele>
        <time>2016-01-03T10:00:59.000Z</time>
      </trkpt>
      <trkpt lat="47.53356" lon="6.72491">
        <ele>351</ele>
        <time>2016-01-03T10:01:00.000Z</time>
      </trkpt>
      <trkpt lat="47.53354" lon="6.72491">
        <ele>351</ele>
        <time>2016-01-03T10:01:01.000Z</time>
      </trkpt>
      <trkpt lat="47.53351" lon="6.7249">
        <ele>351</ele>
        <time>2016-01-03T10:01:02.000Z</time>
      </trkpt>
      <trkpt lat="47.53348" lon="6.72489">
        <ele>351</ele>
        <time>2016-01-03T10:01:03.000Z</time>
      </trkpt>
      <trkpt lat="47.53345" lon="6.72488">
        <ele>351</ele>
        <time>2016-01-03T10:01:04.000Z</time>
      </trkpt>
      <trkpt lat="47.53341" lon="6.72488">
        <ele>351</ele>
        <time>2016-01-03T10:01:05.000Z</time>
      </trkpt>
      <trkpt lat="47.53338" lon="6.72487">
        <ele>351</ele>
        <time>2016-01-03T10:01:06.000Z</time>
      </trkpt>
      <trkpt lat="47.53335" lon="6.72485">
        <ele>351</ele>
        <time>2016-01-03T10:01:07.000Z</time>
      </trkpt>
      <trkpt lat="47.53331" lon="6.72483">
        <ele>351</ele>
        <time>2016-01-03T10:01:08.000Z</time>
      </trkpt>
      <trkpt lat="47.53329" lon="6.7248">
        <ele>351</ele>
        <time>2016-01-03T10:01:09.000Z</time>
      </trkpt>
      <trkpt lat="47.53327" lon="6.72477">
        <ele>352</ele>
        <time>2016-01-03T10:01:10.000Z</time>
      </trkpt>
      <trkpt lat="47.53325" lon="6.72474">
        <ele>352</ele>
        <time>2016-01-03T10:01:11.000Z</time>
      </trkpt>
      <trkpt lat="47.53323" lon="6.72472">
        <ele>352</ele>
        <time>2016-01-03T10:01:12.000Z</time>
      </trkpt>
      <trkpt lat="47.53321" lon="6.72469">
        <ele>352</ele>
        <time>2016-01-03T10:01:13.000Z</time>
      </trkpt>
      <trkpt lat="47.5332" lon="6.72466">
        <ele>352</ele>
        <time>2016-01-03T10:01:14.000Z</time>
      </trkpt>
      <trkpt lat="47.53318" lon="6.72464">
        <ele>352</ele>
        <time>2016-01-03T10:01:15.000Z</time>
      </trkpt>
      <trkpt lat="47.53318" lon="6.7246">
        <ele>352</ele>
        <time>2016-01-03T10:01:16.000Z</time>
      </trkpt>
      <trkpt lat="47.53318" lon="6.72457">
        <ele>353</ele>
        <time>2016-01-03T10:01:17.000Z</time>
      </trkpt>
      <trkpt lat="47.53318" lon="6.72453">
        <ele>353</ele>
        <time>2016-01-03T10:01:18.000Z</time>
      </trkpt>
      <trkpt lat="47.53318" lon="6.7245">
        <ele>353</ele>
        <time>2016-01-03T10:01:19.000Z</time>
      </trkpt>
      <trkpt lat="47.53319" lon="6.72442">
        <ele>353</ele>
        <time>2016-01-03T10:01:21.000Z</time>
      </trkpt>
      <trkpt lat="47.5332" lon="6.72437">
        <ele>353</ele>
        <time>2016-01-03T10:01:22.000Z</time>
      </trkpt>
      <trkpt lat="47.5332" lon="6.72433">
        <ele>354</ele>
        <time>2016-01-03T10:01:23.000Z</time>
      </trkpt>
      <trkpt lat="47.53321" lon="6.72428">
        <ele>354</ele>
        <time>2016-01-03T10:01:24.000Z</time>
      </trkpt>
      <trkpt lat="47.53323" lon="6.72423">
        <ele>354</ele>
        <time>2016-01-03T10:01:25.000Z</time>
      </trkpt>
      <trkpt lat="47.53324" lon="6.72418">
        <ele>354</ele>
        <time>2016-01-03T10:01:26.000Z</time>
      </trkpt>
      <trkpt lat="47.53324" lon="6.72412">
        <ele>355</ele>
        <time>2016-01-03T10:01:27.000Z</time>
      </trkpt>
      <trkpt lat="47.53325" lon="6.72407">
        <ele>355</ele>
        <time>2016-01-03T10:01:28.000Z</time>
      </trkpt>
      <trkpt lat="47.53325" lon="6.72402">
        <ele>355</ele>
        <time>2016-01-03T10:01:29.000Z</time>
      </trkpt>
      <trkpt lat="47.53325" lon="6.72396">
        <ele>355</ele>
        <time>2016-01-03T10:01:30.000Z</time>
      </trkpt>
      <trkpt lat="47.53326" lon="6.72391">
        <ele>355</ele>
        <time>2016-01-03T10:01:31.000Z</time>
      </trkpt>
      <trkpt lat="47.53326" lon="6.72385">
        <ele>355</ele>
        <time>2016-01-03T10:01:32.000Z</time>
      </trkpt>
      <trkpt lat="47.53326" lon="6.7238">
        <ele>355</ele>
        <time>2016-01-03T10:01:33.000Z</time>
      </trkpt>
      <trkpt lat="47.53325" lon="6.72375">
        <ele>355</ele>
        <time>2016-01-03T10:01:34.000Z</time>
      </trkpt>
      <trkpt lat="47.53325" lon="6.7237">
        <ele>355</ele>
        <time>2016-01-03T10:01:35.000Z</time>
      </trkpt>
      <trkpt lat="47.53324" lon="6.72366">
        <ele>355</ele>
        <time>2016-01-03T10:01:36.000Z</time>
      </trkpt>
      <trkpt lat="47.53324" lon="6.72361">
        <ele>355</ele>
        <time>2016-01-03T10:01:37.000Z</time>
      </trkpt>
      <trkpt lat="47.53323" lon="6.72357">
        <ele>355</ele>
        <time>2016-01-03T10:01:38.000Z</time>
      </trkpt>
      <trkpt lat="47.53322" lon="6.72352">
        <ele>355</ele>
        <time>2016-01-03T10:01:39.000Z</time>
      </trkpt>
      <trkpt lat="47.5332" lon="6.72348">
        <ele>355</ele>
        <time>2016-01-03T10:01:40.000Z</time>
      </trkpt>
      <trkpt lat="47.53319" lon="6.72344">
        <ele>355</ele>
        <time>2016-01-03T10:01:41.000Z</time>
      </trkpt>
      <trkpt lat="47.53317" lon="6.7234">
        <ele>356</ele>
        <time>2016-01-03T10:01:42.000Z</time>
      </trkpt>
      <trkpt lat="47.53316" lon="6.72335">
        <ele>356</ele>
        <time>2016-01-03T10:01:43.000Z</time>
      </trkpt>
      <trkpt lat="47.53315" lon="6.72331">
        <ele>355</ele>
        <time>2016-01-03T10:01:44.000Z</time>
      </trkpt>
      <trkpt lat="47.53314" lon="6.72327">
        <ele>355</ele>
        <time>2016-01-03T10:01:45.000Z</time>
      </trkpt>
      <trkpt lat="47.53314" lon="6.72322">
        <ele>355</ele>
        <time>2016-01-03T10:01:46.000Z</time>
      </trkpt>
      <trkpt lat="47.53313" lon="6.72318">
        <ele>355</ele>
        <time>2016-01-03T10:01:47.000Z</time>
      </trkpt>
      <trkpt lat="47.53313" lon="6.72314">
        <ele>355</ele>
        <time>2016-01-03T10:01:48.000Z</time>
      </trkpt>
      <trkpt lat="47.53312" lon="6.7231">
        <ele>355</ele>
        <time>2016-01-03T10:01:49.000Z</time>
      </trkpt>
      <trkpt lat="47.53312" lon="6.72307">
        <ele>355</ele>
        <time>2016-01-03T10:01:50.000Z</time>
      </trkpt>
      <trkpt lat="47.53312" lon="6.72303">
        <ele>355</ele>
        <time>2016-01-03T10:01:51.000Z</time>
      </trkpt>
      <trkpt lat="47.53312" lon="6.723">
        <ele>355</ele>
        <time>2016-01-03T10:01:52.000Z</time>
      </trkpt>
      <trkpt lat="47.53312" lon="6.72296">
        <ele>355</ele>
        <time>2016-01-03T10:01:53.000Z</time>
      </trkpt>
      <trkpt lat="47.53312" lon="6.72292">
        <ele>355</ele>
        <time>2016-01-03T10:01:54.097Z</time>
      </trkpt>
      <trkpt lat="47.53313" lon="6.72288">
        <ele>355</ele>
        <time>2016-01-03T10:01:55.000Z</time>
      </trkpt>
      <trkpt lat="47.53313" lon="6.72284">
        <ele>355</ele>
        <time>2016-01-03T10:01:56.000Z</time>
      </trkpt>
      <trkpt lat="47.53314" lon="6.7228">
        <ele>354</ele>
        <time>2016-01-03T10:01:57.000Z</time>
      </trkpt>
      <trkpt lat="47.53314" lon="6.72275">
        <ele>354</ele>
        <time>2016-01-03T10:01:58.000Z</time>
      </trkpt>
      <trkpt lat="47.53316" lon="6.72271">
        <ele>354</ele>
        <time>2016-01-03T10:01:59.000Z</time>
      </trkpt>
      <trkpt lat="47.53317" lon="6.72266">
        <ele>354</ele>
        <time>2016-01-03T10:02:00.000Z</time>
      </trkpt>
      <trkpt lat="47.53319" lon="6.72261">
        <ele>354</ele>
        <time>2016-01-03T10:02:01.000Z</time>
      </trkpt>
      <trkpt lat="47.53321" lon="6.72256">
        <ele>354</ele>
        <time>2016-01-03T10:02:02.000Z</time>
      </trkpt>
      <trkpt lat="47.53323" lon="6.7225">
        <ele>354</ele>
        <time>2016-01-03T10:02:03.000Z</time>
      </trkpt>
      <trkpt lat="47.53326" lon="6.72242">
        <ele>354</ele>
        <time>2016-01-03T10:02:04.000Z</time>
      </trkpt>
      <trkpt lat="47.53329" lon="6.72236">
        <ele>354</ele>
        <time>2016-01-03T10:02:05.000Z</time>
      </trkpt>
      <trkpt lat="47.53331" lon="6.7223">
        <ele>354</ele>
        <time>2016-01-03T10:02:06.000Z</time>
      </trkpt>
      <trkpt lat="47.53334" lon="6.72224">
        <ele>355</ele>
        <time>2016-01-03T10:02:07.000Z</time>
      </trkpt>
      <trkpt lat="47.53337" lon="6.72218">
        <ele>355</ele>
        <time>2016-01-03T10:02:08.000Z</time>
      </trkpt>
      <trkpt lat="47.53339" lon="6.72212">
        <ele>355</ele>
        <time>2016-01-03T10:02:09.000Z</time>
      </trkpt>
      <trkpt lat="47.53342" lon="6.72207">
        <ele>355</ele>
        <time>2016-01-03T10:02:10.000Z</time>
      </trkpt>
      <trkpt lat="47.53345" lon="6.72202">
        <ele>355</ele>
        <time>2016-01-03T10:02:11.000Z</time>
      </trkpt>
      <trkpt lat="47.53347" lon="6.72197">
        <ele>355</ele>
        <time>2016-01-03T10:02:12.000Z</time>
      </trkpt>
      <trkpt lat="47.5335" lon="6.72193">
        <ele>355</ele>
        <time>2016-01-03T10:02:13.000Z</time>
      </trkpt>
      <trkpt lat="47.53352" lon="6.72188">
        <ele>355</ele>
        <time>2016-01-03T10:02:14.000Z</time>
      </trkpt>
      <trkpt lat="47.53354" lon="6.72182">
        <ele>355</ele>
        <time>2016-01-03T10:02:15.000Z</time>
      </trkpt>
      <trkpt lat="47.53356" lon="6.72176">
        <ele>355</ele>
        <time>2016-01-03T10:02:16.000Z</time>
      </trkpt>
      <trkpt lat="47.53358" lon="6.7217">
        <ele>355</ele>
        <time>2016-01-03T10:02:17.000Z</time>
      </trkpt>
      <trkpt lat="47.53359" lon="6.72164">
        <ele>356</ele>
        <time>2016-01-03T10:02:18.000Z</time>
      </trkpt>
      <trkpt lat="47.53361" lon="6.72157">
        <ele>356</ele>
        <time>2016-01-03T10:02:19.000Z</time>
      </trkpt>
      <trkpt lat="47.53362" lon="6.72151">
        <ele>356</ele>
        <time>2016-01-03T10:02:20.000Z</time>
      </trkpt>
      <trkpt lat="47.53363" lon="6.72145">
        <ele>356</ele>
        <time>2016-01-03T10:02:21.000Z</time>
      </trkpt>
      <trkpt lat="47.53364" lon="6.72139">
        <ele>356</ele>
        <time>2016-01-03T10:02:22.000Z</time>
      </trkpt>
      <trkpt lat="47.53365" lon="6.72133">
        <ele>356</ele>
        <time>2016-01-03T10:02:23.000Z</time>
      </trkpt>
      <trkpt lat="47.53366" lon="6.72127">
        <ele>356</ele>
        <time>2016-01-03T10:02:24.000Z</time>
      </trkpt>
      <trkpt lat="47.53367" lon="6.72121">
        <ele>356</ele>
        <time>2016-01-03T10:02:25.000Z</time>
      </trkpt>
      <trkpt lat="47.53367" lon="6.72114">
        <ele>356</ele>
        <time>2016-01-03T10:02:26.099Z</time>
      </trkpt>
      <trkpt lat="47.53367" lon="6.72109">
        <ele>356</ele>
        <time>2016-01-03T10:02:27.000Z</time>
      </trkpt>
      <trkpt lat="47.53367" lon="6.72103">
        <ele>356</ele>
        <time>2016-01-03T10:02:28.000Z</time>
      </trkpt>
      <trkpt lat="47.53367" lon="6.72098">
        <ele>356</ele>
        <time>2016-01-03T10:02:29.000Z</time>
      </trkpt>
      <trkpt lat="47.53366" lon="6.72093">
        <ele>356</ele>
        <time>2016-01-03T10:02:30.000Z</time>
      </trkpt>
      <trkpt lat="47.53366" lon="6.72087">
        <ele>357</ele>
        <time>2016-01-03T10:02:31.000Z</time>
      </trkpt>
      <trkpt lat="47.53365" lon="6.72083">
        <ele>358</ele>
        <time>2016-01-03T10:02:32.000Z</time>
      </trkpt>
      <trkpt lat="47.53364" lon="6.72078">
        <ele>358</ele>
        <time>2016-01-03T10:02:33.000Z</time>
      </trkpt>
      <trkpt lat="47.53363" lon="6.72074">
        <ele>358</ele>
        <time>2016-01-03T10:02:34.000Z</time>
      </trkpt>
      <trkpt lat="47.53361" lon="6.7207">
        <ele>358</ele>
        <time>2016-01-03T10:02:35.000Z</time>
      </trkpt>
      <trkpt lat="47.53359" lon="6.72067">
        <ele>358</ele>
        <time>2016-01-03T10:02:36.000Z</time>
      </trkpt>
      <trkpt lat="47.53357" lon="6.72063">
        <ele>358</ele>
        <time>2016-01-03T10:02:37.000Z</time>
      </trkpt>
      <trkpt lat="47.53354" lon="6.7206">
        <ele>358</ele>
        <time>2016-01-03T10:02:38.000Z</time>
      </trkpt>
      <trkpt lat="47.53352" lon="6.72057">
        <ele>358</ele>
        <time>2016-01-03T10:02:39.000Z</time>
      </trkpt>
      <trkpt lat="47.53349" lon="6.72053">
        <ele>358</ele>
        <time>2016-01-03T10:02:40.000Z</time>
      </trkpt>
      <trkpt lat="47.53346" lon="6.7205">
        <ele>358</ele>
        <time>2016-01-03T10:02:41.000Z</time>
      </trkpt>
      <trkpt lat="47.53343" lon="6.72048">
        <ele>358</ele>
        <time>2016-01-03T10:02:42.000Z</time>
      </trkpt>
      <trkpt lat="47.53341" lon="6.72045">
        <ele>358</ele>
        <time>2016-01-03T10:02:43.000Z</time>
      </trkpt>
      <trkpt lat="47.53338" lon="6.72043">
        <ele>358</ele>
        <time>2016-01-03T10:02:44.000Z</time>
      </trkpt>
      <trkpt lat="47.53336" lon="6.7204">
        <ele>358</ele>
        <time>2016-01-03T10:02:45.000Z</time>
      </trkpt>
      <trkpt lat="47.53333" lon="6.72038">
        <ele>357</ele>
        <time>2016-01-03T10:02:46.000Z</time>
      </trkpt>
      <trkpt lat="47.5333" lon="6.72035">
        <ele>357</ele>
        <time>2016-01-03T10:02:47.000Z</time>
      </trkpt>
      <trkpt lat="47.53327" lon="6.72032">
        <ele>357</ele>
        <time>2016-01-03T10:02:48.000Z</time>
      </trkpt>
      <trkpt lat="47.53324" lon="6.72029">
        <ele>357</ele>
        <time>2016-01-03T10:02:49.000Z</time>
      </trkpt>
      <trkpt lat="47.53321" lon="6.72026">
        <ele>357</ele>
        <time>2016-01-03T10:02:50.000Z</time>
      </trkpt>
      <trkpt lat="47.53319" lon="6.72023">
        <ele>357</ele>
        <time>2016-01-03T10:02:51.000Z</time>
      </trkpt>
      <trkpt lat="47.53316" lon="6.7202">
        <ele>357</ele>
        <time>2016-01-03T10:02:52.000Z</time>
      </trkpt>
      <trkpt lat="47.53313" lon="6.72017">
        <ele>357</ele>
        <time>2016-01-03T10:02:53.000Z</time>
      </trkpt>
      <trkpt lat="47.5331" lon="6.72014">
        <ele>357</ele>
        <time>2016-01-03T10:02:54.000Z</time>
      </trkpt>
      <trkpt lat="47.53307" lon="6.7201">
        <ele>357</ele>
        <time>2016-01-03T10:02:55.000Z</time>
      </trkpt>
      <trkpt lat="47.53305" lon="6.72006">
        <ele>357</ele>
        <time>2016-01-03T10:02:56.000Z</time>
      </trkpt>
      <trkpt lat="47.53302" lon="6.72001">
        <ele>356</ele>
        <time>2016-01-03T10:02:57.000Z</time>
      </trkpt>
      <trkpt lat="47.533" lon="6.71995">
        <ele>356</ele>
        <time>2016-01-03T10:02:58.000Z</time>
      </trkpt>
      <trkpt lat="47.53299" lon="6.7199">
        <ele>356</ele>
        <time>2016-01-03T10:02:59.000Z</time>
      </trkpt>
      <trkpt lat="47.53298" lon="6.71984">
        <ele>356</ele>
        <time>2016-01-03T10:03:00.000Z</time>
      </trkpt>
      <trkpt lat="47.53297" lon="6.71978">
        <ele>356</ele>
        <time>2016-01-03T10:03:01.000Z</time>
      </trkpt>
      <trkpt lat="47.53297" lon="6.71971">
        <ele>356</ele>
        <time>2016-01-03T10:03:02.000Z</time>
      </trkpt>
      <trkpt lat="47.53298" lon="6.71965">
        <ele>356</ele>
        <time>2016-01-03T10:03:03.000Z</time>
      </trkpt>
      <trkpt lat="47.53298" lon="6.71959">
        <ele>356</ele>
        <time>2016-01-03T10:03:04.000Z</time>
      </trkpt>
      <trkpt lat="47.53299" lon="6.71953">
        <ele>356</ele>
        <time>2016-01-03T10:03:05.000Z</time>
      </trkpt>
      <trkpt lat="47.53301" lon="6.71948">
        <ele>356</ele>
        <time>2016-01-03T10:03:06.000Z</time>
      </trkpt>
      <trkpt lat="47.53302" lon="6.71943">
        <ele>356</ele>
        <time>2016-01-03T10:03:07.000Z</time>
      </trkpt>
      <trkpt lat="47.53304" lon="6.71938">
        <ele>356</ele>
        <time>2016-01-03T10:03:08.000Z</time>
      </trkpt>
      <trkpt lat="47.53306" lon="6.71934">
        <ele>356</ele>
        <time>2016-01-03T10:03:09.000Z</time>
      </trkpt>
      <trkpt lat="47.53308" lon="6.71929">
        <ele>357</ele>
        <time>2016-01-03T10:03:10.000Z</time>
      </trkpt>
      <trkpt lat="47.5331" lon="6.71925">
        <ele>357</ele>
        <time>2016-01-03T10:03:11.000Z</time>
      </trkpt>
      <trkpt lat="47.53312" lon="6.71921">
        <ele>357</ele>
        <time>2016-01-03T10:03:12.000Z</time>
      </trkpt>
      <trkpt lat="47.53314" lon="6.71917">
        <ele>357</ele>
        <time>2016-01-03T10:03:13.000Z</time>
      </trkpt>
      <trkpt lat="47.53316" lon="6.71914">
        <ele>356</ele>
        <time>2016-01-03T10:03:14.000Z</time>
      </trkpt>
      <trkpt lat="47.53317" lon="6.7191">
        <ele>356</ele>
        <time>2016-01-03T10:03:15.000Z</time>
      </trkpt>
      <trkpt lat="47.53319" lon="6.71905">
        <ele>356</ele>
        <time>2016-01-03T10:03:16.000Z</time>
      </trkpt>
      <trkpt lat="47.5332" lon="6.71901">
        <ele>356</ele>
        <time>2016-01-03T10:03:17.000Z</time>
      </trkpt>
      <trkpt lat="47.53322" lon="6.71897">
        <ele>356</ele>
        <time>2016-01-03T10:03:18.000Z</time>
      </trkpt>
      <trkpt lat="47.53324" lon="6.71893">
        <ele>356</ele>
        <time>2016-01-03T10:03:19.000Z</time>
      </trkpt>
      <trkpt lat="47.53325" lon="6.71889">
        <ele>356</ele>
        <time>2016-01-03T10:03:20.000Z</time>
      </trkpt>
      <trkpt lat="47.53327" lon="6.71886">
        <ele>356</ele>
        <time>2016-01-03T10:03:21.000Z</time>
      </trkpt>
      <trkpt lat="47.5333" lon="6.71882">
        <ele>356</ele>
        <time>2016-01-03T10:03:22.000Z</time>
      </trkpt>
      <trkpt lat="47.53332" lon="6.71879">
        <ele>356</ele>
        <time>2016-01-03T10:03:23.000Z</time>
      </trkpt>
      <trkpt lat="47.53335" lon="6.71876">
        <ele>358</ele>
        <time>2016-01-03T10:03:24.000Z</time>
      </trkpt>
      <trkpt lat="47.53338" lon="6.71874">
        <ele>358</ele>
        <time>2016-01-03T10:03:25.000Z</time>
      </trkpt>
      <trkpt lat="47.53341" lon="6.71871">
        <ele>358</ele>
        <time>2016-01-03T10:03:26.000Z</time>
      </trkpt>
      <trkpt lat="47.53345" lon="6.71869">
        <ele>358</ele>
        <time>2016-01-03T10:03:27.000Z</time>
      </trkpt>
      <trkpt lat="47.53348" lon="6.71866">
        <ele>358</ele>
        <time>2016-01-03T10:03:28.000Z</time>
      </trkpt>
      <trkpt lat="47.53351" lon="6.71864">
        <ele>358</ele>
        <time>2016-01-03T10:03:29.000Z</time>
      </trkpt>
      <trkpt lat="47.53355" lon="6.71861">
        <ele>358</ele>
        <time>2016-01-03T10:03:30.000Z</time>
      </trkpt>
      <trkpt lat="47.53358" lon="6.71859">
        <ele>358</ele>
        <time>2016-01-03T10:03:31.000Z</time>
      </trkpt>
      <trkpt lat="47.53361" lon="6.71856">
        <ele>358</ele>
        <time>2016-01-03T10:03:32.000Z</time>
      </trkpt>
      <trkpt lat="47.53365" lon="6.71854">
        <ele>358</ele>
        <time>2016-01-03T10:03:33.000Z</time>
      </trkpt>
      <trkpt lat="47.53368" lon="6.71851">
        <ele>358</ele>
        <time>2016-01-03T10:03:34.000Z</time>
      </trkpt>
      <trkpt lat="47.53371" lon="6.71848">
        <ele>358</ele>
        <time>2016-01-03T10:03:35.000Z</time>
      </trkpt>
      <trkpt lat="47.53374" lon="6.71844">
        <ele>358</ele>
        <time>2016-01-03T10:03:36.000Z</time>
      </trkpt>
      <trkpt lat="47.53377" lon="6.7184">
        <ele>358</ele>
        <time>2016-01-03T10:03:37.000Z</time>
      </trkpt>
      <trkpt lat="47.5338" lon="6.71836">
        <ele>358</ele>
        <time>2016-01-03T10:03:38.000Z</time>
      </trkpt>
      <trkpt lat="47.53383" lon="6.71832">
        <ele>357</ele>
        <time>2016-01-03T10:03:39.000Z</time>
      </trkpt>
      <trkpt lat="47.53385" lon="6.71828">
        <ele>357</ele>
        <time>2016-01-03T10:03:40.000Z</time>
      </trkpt>
      <trkpt lat="47.53388" lon="6.71824">
        <ele>357</ele>
        <time>2016-01-03T10:03:41.000Z</time>
      </trkpt>
      <trkpt lat="47.53391" lon="6.7182">
        <ele>357</ele>
        <time>2016-01-03T10:03:42.000Z</time>
      </trkpt>
      <trkpt lat="47.53393" lon="6.71816">
        <ele>357</ele>
        <time>2016-01-03T10:03:43.000Z</time>
      </trkpt>
      <trkpt lat="47.53396" lon="6.71812">
        <ele>357</ele>
        <time>2016-01-03T10:03:44.000Z</time>
      </trkpt>
      <trkpt lat="47.53398" lon="6.71809">
        <ele>357</ele>
        <time>2016-01-03T10:03:45.000Z</time>
      </trkpt>
      <trkpt lat="47.53401" lon="6.71805">
        <ele>357</ele>
        <time>2016-01-03T10:03:46.000Z</time>
      </trkpt>
      <trkpt lat="47.53403" lon="6.71801">
        <ele>357</ele>
        <time>2016-01-03T10:03:47.000Z</time>
      </trkpt>
      <trkpt lat="47.53405" lon="6.71798">
        <ele>357</ele>
        <time>2016-01-03T10:03:48.000Z</time>
      </trkpt>
      <trkpt lat="47.53408" lon="6.71794">
        <ele>357</ele>
        <time>2016-01-03T10:03:49.000Z</time>
      </trkpt>
      <trkpt lat="47.5341" lon="6.7179">
        <ele>357</ele>
        <time>2016-01-03T10:03:50.000Z</time>
      </trkpt>
      <trkpt lat="47.53412" lon="6.71786">
        <ele>357</ele>
        <time>2016-01-03T10:03:51.000Z</time>
      </trkpt>
      <trkpt lat="47.53414" lon="6.71782">
        <ele>357</ele>
        <time>2016-01-03T10:03:52.000Z</time>
      </trkpt>
      <trkpt lat="47.53415" lon="6.71778">
        <ele>358</ele>
        <time>2016-01-03T10:03:53.000Z</time>
      </trkpt>
      <trkpt lat="47.53417" lon="6.71774">
        <ele>360</ele>
        <time>2016-01-03T10:03:54.000Z</time>
      </trkpt>
      <trkpt lat="47.53418" lon="6.71769">
        <ele>360</ele>
        <time>2016-01-03T10:03:55.000Z</time>
      </trkpt>
      <trkpt lat="47.53419" lon="6.71765">
        <ele>360</ele>
        <time>2016-01-03T10:03:56.000Z</time>
      </trkpt>
      <trkpt lat="47.5342" lon="6.7176">
        <ele>360</ele>
        <time>2016-01-03T10:03:57.000Z</time>
      </trkpt>
      <trkpt lat="47.53421" lon="6.71756">
        <ele>359</ele>
        <time>2016-01-03T10:03:58.000Z</time>
      </trkpt>
      <trkpt lat="47.53422" lon="6.71751">
        <ele>359</ele>
        <time>2016-01-03T10:03:59.000Z</time>
      </trkpt>
      <trkpt lat="47.53423" lon="6.71746">
        <ele>360</ele>
        <time>2016-01-03T10:04:00.000Z</time>
      </trkpt>
      <trkpt lat="47.53423" lon="6.71742">
        <ele>361</ele>
        <time>2016-01-03T10:04:01.000Z</time>
      </trkpt>
      <trkpt lat="47.53424" lon="6.71738">
        <ele>361</ele>
        <time>2016-01-03T10:04:02.000Z</time>
      </trkpt>
      <trkpt lat="47.53425" lon="6.71734">
        <ele>361</ele>
        <time>2016-01-03T10:04:03.000Z</time>
      </trkpt>
      <trkpt lat="47.53427" lon="6.71731">
        <ele>362</ele>
        <time>2016-01-03T10:04:04.000Z</time>
      </trkpt>
      <trkpt lat="47.53429" lon="6.71727">
        <ele>362</ele>
        <time>2016-01-03T10:04:05.000Z</time>
      </trkpt>
      <trkpt lat="47.5343" lon="6.71724">
        <ele>362</ele>
        <time>2016-01-03T10:04:06.000Z</time>
      </trkpt>
      <trkpt lat="47.53432" lon="6.71721">
        <ele>362</ele>
        <time>2016-01-03T10:04:07.000Z</time>
      </trkpt>
      <trkpt lat="47.53434" lon="6.71719">
        <ele>362</ele>
        <time>2016-01-03T10:04:08.000Z</time>
      </trkpt>
      <trkpt lat="47.53437" lon="6.71716">
        <ele>363</ele>
        <time>2016-01-03T10:04:09.000Z</time>
      </trkpt>
      <trkpt lat="47.53439" lon="6.71714">
        <ele>363</ele>
        <time>2016-01-03T10:04:10.000Z</time>
      </trkpt>
      <trkpt lat="47.53441" lon="6.71712">
        <ele>363</ele>
        <time>2016-01-03T10:04:11.000Z</time>
      </trkpt>
      <trkpt lat="47.53443" lon="6.71709">
        <ele>363</ele>
        <time>2016-01-03T10:04:12.000Z</time>
      </trkpt>
      <trkpt lat="47.53445" lon="6.71706">
        <ele>363</ele>
        <time>2016-01-03T10:04:13.000Z</time>
      </trkpt>
      <trkpt lat="47.53447" lon="6.71702">
        <ele>363</ele>
        <time>2016-01-03T10:04:14.000Z</time>
      </trkpt>
      <trkpt lat="47.5345" lon="6.71698">
        <ele>364</ele>
        <time>2016-01-03T10:04:15.000Z</time>
      </trkpt>
      <trkpt lat="47.53453" lon="6.71693">
        <ele>364</ele>
        <time>2016-01-03T10:04:16.000Z</time>
      </trkpt>
      <trkpt lat="47.53456" lon="6.71688">
        <ele>364</ele>
        <time>2016-01-03T10:04:17.000Z</time>
      </trkpt>
      <trkpt lat="47.53459" lon="6.71683">
        <ele>364</ele>
        <time>2016-01-03T10:04:18.000Z</time>
      </trkpt>
      <trkpt lat="47.53462" lon="6.71678">
        <ele>365</ele>
        <time>2016-01-03T10:04:19.000Z</time>
      </trkpt>
      <trkpt lat="47.53465" lon="6.71673">
        <ele>365</ele>
        <time>2016-01-03T10:04:20.000Z</time>
      </trkpt>
      <trkpt lat="47.53468" lon="6.71669">
        <ele>365</ele>
        <time>2016-01-03T10:04:21.000Z</time>
      </trkpt>
      <trkpt lat="47.53471" lon="6.71664">
        <ele>367</ele>
        <time>2016-01-03T10:04:22.000Z</time>
      </trkpt>
      <trkpt lat="47.53473" lon="6.71659">
        <ele>368</ele>
        <time>2016-01-03T10:04:23.000Z</time>
      </trkpt>
      <trkpt lat="47.53476" lon="6.71655">
        <ele>368</ele>
        <time>2016-01-03T10:04:24.000Z</time>
      </trkpt>
      <trkpt lat="47.53479" lon="6.7165">
        <ele>368</ele>
        <time>2016-01-03T10:04:25.000Z</time>
      </trkpt>
      <trkpt lat="47.53482" lon="6.71646">
        <ele>368</ele>
        <time>2016-01-03T10:04:26.000Z</time>
      </trkpt>
      <trkpt lat="47.53485" lon="6.71642">
        <ele>368</ele>
        <time>2016-01-03T10:04:27.000Z</time>
      </trkpt>
      <trkpt lat="47.53488" lon="6.71638">
        <ele>368</ele>
        <time>2016-01-03T10:04:28.000Z</time>
      </trkpt>
      <trkpt lat="47.5349" lon="6.71635">
        <ele>368</ele>
        <time>2016-01-03T10:04:29.000Z</time>
      </trkpt>
      <trkpt lat="47.53493" lon="6.71631">
        <ele>368</ele>
        <time>2016-01-03T10:04:30.000Z</time>
      </trkpt>
      <trkpt lat="47.53495" lon="6.71628">
        <ele>369</ele>
        <time>2016-01-03T10:04:31.000Z</time>
      </trkpt>
      <trkpt lat="47.53497" lon="6.71625">
        <ele>369</ele>
        <time>2016-01-03T10:04:32.000Z</time>
      </trkpt>
      <trkpt lat="47.53499" lon="6.71622">
        <ele>369</ele>
        <time>2016-01-03T10:04:33.000Z</time>
      </trkpt>
      <trkpt lat="47.53502" lon="6.71619">
        <ele>374</ele>
        <time>2016-01-03T10:04:34.000Z</time>
      </trkpt>
      <trkpt lat="47.53504" lon="6.71615">
        <ele>374</ele>
        <time>2016-01-03T10:04:35.000Z</time>
      </trkpt>
      <trkpt lat="47.53506" lon="6.71612">
        <ele>374</ele>
        <time>2016-01-03T10:04:36.000Z</time>
      </trkpt>
      <trkpt lat="47.53508" lon="6.7161">
        <ele>374</ele>
        <time>2016-01-03T10:04:37.000Z</time>
      </trkpt>
      <trkpt lat="47.5351" lon="6.71607">
        <ele>374</ele>
        <time>2016-01-03T10:04:38.000Z</time>
      </trkpt>
      <trkpt lat="47.53512" lon="6.71604">
        <ele>374</ele>
        <time>2016-01-03T10:04:39.000Z</time>
      </trkpt>
      <trkpt lat="47.53514" lon="6.716">
        <ele>374</ele>
        <time>2016-01-03T10:04:40.000Z</time>
      </trkpt>
      <trkpt lat="47.53516" lon="6.71597">
        <ele>374</ele>
        <time>2016-01-03T10:04:41.000Z</time>
      </trkpt>
      <trkpt lat="47.53518" lon="6.71594">
        <ele>374</ele>
        <time>2016-01-03T10:04:42.000Z</time>
      </trkpt>
      <trkpt lat="47.5352" lon="6.71591">
        <ele>374</ele>
        <time>2016-01-03T10:04:43.000Z</time>
      </trkpt>
      <trkpt lat="47.53521" lon="6.71588">
        <ele>374</ele>
        <time>2016-01-03T10:04:44.000Z</time>
      </trkpt>
      <trkpt lat="47.53523" lon="6.71585">
        <ele>374</ele>
        <time>2016-01-03T10:04:45.000Z</time>
      </trkpt>
      <trkpt lat="47.53524" lon="6.71582">
        <ele>376</ele>
        <time>2016-01-03T10:04:46.000Z</time>
      </trkpt>
      <trkpt lat="47.53527" lon="6.71577">
        <ele>376</ele>
        <time>2016-01-03T10:04:48.000Z</time>
      </trkpt>
      <trkpt lat="47.53529" lon="6.71575">
        <ele>376</ele>
        <time>2016-01-03T10:04:49.000Z</time>
      </trkpt>
      <trkpt lat="47.53532" lon="6.7157">
        <ele>376</ele>
        <time>2016-01-03T10:04:51.000Z</time>
      </trkpt>
      <trkpt lat="47.53533" lon="6.71568">
        <ele>376</ele>
        <time>2016-01-03T10:04:52.000Z</time>
      </trkpt>
      <trkpt lat="47.53536" lon="6.71562">
        <ele>377</ele>
        <time>2016-01-03T10:04:54.000Z</time>
      </trkpt>
      <trkpt lat="47.53537" lon="6.7156">
        <ele>377</ele>
        <time>2016-01-03T10:04:55.000Z</time>
      </trkpt>
      <trkpt lat="47.53539" lon="6.71557">
        <ele>377</ele>
        <time>2016-01-03T10:04:56.000Z</time>
      </trkpt>
      <trkpt lat="47.53541" lon="6.71554">
        <ele>377</ele>
        <time>2016-01-03T10:04:57.000Z</time>
      </trkpt>
      <trkpt lat="47.53542" lon="6.71552">
        <ele>377</ele>
        <time>2016-01-03T10:04:58.000Z</time>
      </trkpt>
      <trkpt lat="47.53544" lon="6.71549">
        <ele>377</ele>
        <time>2016-01-03T10:04:59.000Z</time>
      </trkpt>
      <trkpt lat="47.53546" lon="6.71547">
        <ele>377</ele>
        <time>2016-01-03T10:05:00.000Z</time>
      </trkpt>
      <trkpt lat="47.53547" lon="6.71544">
        <ele>377</ele>
        <time>2016-01-03T10:05:01.000Z</time>
      </trkpt>
      <trkpt lat="47.53549" lon="6.71542">
        <ele>377</ele>
        <time>2016-01-03T10:05:02.000Z</time>
      </trkpt>
      <trkpt lat="47.5355" lon="6.71539">
        <ele>377</ele>
        <time>2016-01-03T10:05:03.000Z</time>
      </trkpt>
      <trkpt lat="47.53554" lon="6.71535">
        <ele>378</ele>
        <time>2016-01-03T10:05:05.000Z</time>
      </trkpt>
      <trkpt lat="47.53555" lon="6.71532">
        <ele>378</ele>
        <time>2016-01-03T10:05:06.000Z</time>
      </trkpt>
      <trkpt lat="47.53557" lon="6.7153">
        <ele>378</ele>
        <time>2016-01-03T10:05:07.000Z</time>
      </trkpt>
      <trkpt lat="47.53559" lon="6.71528">
        <ele>378</ele>
        <time>2016-01-03T10:05:08.000Z</time>
      </trkpt>
      <trkpt lat="47.53561" lon="6.71525">
        <ele>378</ele>
        <time>2016-01-03T10:05:09.000Z</time>
      </trkpt>
      <trkpt lat="47.53563" lon="6.71523">
        <ele>378</ele>
        <time>2016-01-03T10:05:10.000Z</time>
      </trkpt>
      <trkpt lat="47.53564" lon="6.71521">
        <ele>378</ele>
        <time>2016-01-03T10:05:11.000Z</time>
      </trkpt>
      <trkpt lat="47.53566" lon="6.71519">
        <ele>378</ele>
        <time>2016-01-03T10:05:12.000Z</time>
      </trkpt>
      <trkpt lat="47.53568" lon="6.71517">
        <ele>379</ele>
        <time>2016-01-03T10:05:13.000Z</time>
      </trkpt>
      <trkpt lat="47.5357" lon="6.71514">
        <ele>379</ele>
        <time>2016-01-03T10:05:14.000Z</time>
      </trkpt>
      <trkpt lat="47.53572" lon="6.71512">
        <ele>379</ele>
        <time>2016-01-03T10:05:15.000Z</time>
      </trkpt>
      <trkpt lat="47.53574" lon="6.7151">
        <ele>379</ele>
        <time>2016-01-03T10:05:16.000Z</time>
      </trkpt>
      <trkpt lat="47.53576" lon="6.71508">
        <ele>380</ele>
        <time>2016-01-03T10:05:17.000Z</time>
      </trkpt>
      <trkpt lat="47.53577" lon="6.71506">
        <ele>380</ele>
        <time>2016-01-03T10:05:18.000Z</time>
      </trkpt>
      <trkpt lat="47.53579" lon="6.71503">
        <ele>380</ele>
        <time>2016-01-03T10:05:19.000Z</time>
      </trkpt>
      <trkpt lat="47.53581" lon="6.71501">
        <ele>381</ele>
        <time>2016-01-03T10:05:20.000Z</time>
      </trkpt>
      <trkpt lat="47.53583" lon="6.71498">
        <ele>381</ele>
        <time>2016-01-03T10:05:21.000Z</time>
      </trkpt>
      <trkpt lat="47.53585" lon="6.71496">
        <ele>382</ele>
        <time>2016-01-03T10:05:22.000Z</time>
      </trkpt>
      <trkpt lat="47.53587" lon="6.71494">
        <ele>382</ele>
        <time>2016-01-03T10:05:23.000Z</time>
      </trkpt>
      <trkpt lat="47.53589" lon="6.71492">
        <ele>383</ele>
        <time>2016-01-03T10:05:24.000Z</time>
      </trkpt>
      <trkpt lat="47.53591" lon="6.7149">
        <ele>383</ele>
        <time>2016-01-03T10:05:25.000Z</time>
      </trkpt>
      <trkpt lat="47.53593" lon="6.71487">
        <ele>383</ele>
        <time>2016-01-03T10:05:26.000Z</time>
      </trkpt>
      <trkpt lat="47.53595" lon="6.71485">
        <ele>384</ele>
        <time>2016-01-03T10:05:27.000Z</time>
      </trkpt>
      <trkpt lat="47.53597" lon="6.71483">
        <ele>384</ele>
        <time>2016-01-03T10:05:28.000Z</time>
      </trkpt>
      <trkpt lat="47.53599" lon="6.71481">
        <ele>384</ele>
        <time>2016-01-03T10:05:29.000Z</time>
      </trkpt>
      <trkpt lat="47.53601" lon="6.71479">
        <ele>384</ele>
        <time>2016-01-03T10:05:30.000Z</time>
      </trkpt>
      <trkpt lat="47.53603" lon="6.71476">
        <ele>385</ele>
        <time>2016-01-03T10:05:31.000Z</time>
      </trkpt>
      <trkpt lat="47.53605" lon="6.71474">
        <ele>385</ele>
        <time>2016-01-03T10:05:32.000Z</time>
      </trkpt>
      <trkpt lat="47.53606" lon="6.71472">
        <ele>385</ele>
        <time>2016-01-03T10:05:33.000Z</time>
      </trkpt>
      <trkpt lat="47.53608" lon="6.71469">
        <ele>385</ele>
        <time>2016-01-03T10:05:34.001Z</time>
      </trkpt>
      <trkpt lat="47.53611" lon="6.71465">
        <ele>385</ele>
        <time>2016-01-03T10:05:36.000Z</time>
      </trkpt>
      <trkpt lat="47.53613" lon="6.71463">
        <ele>386</ele>
        <time>2016-01-03T10:05:37.000Z</time>
      </trkpt>
      <trkpt lat="47.53616" lon="6.71459">
        <ele>386</ele>
        <time>2016-01-03T10:05:39.000Z</time>
      </trkpt>
      <trkpt lat="47.53618" lon="6.71457">
        <ele>386</ele>
        <time>2016-01-03T10:05:40.001Z</time>
      </trkpt>
      <trkpt lat="47.53621" lon="6.71452">
        <ele>386</ele>
        <time>2016-01-03T10:05:42.000Z</time>
      </trkpt>
      <trkpt lat="47.53622" lon="6.7145">
        <ele>386</ele>
        <time>2016-01-03T10:05:43.000Z</time>
      </trkpt>
      <trkpt lat="47.53624" lon="6.71445">
        <ele>386</ele>
        <time>2016-01-03T10:05:45.000Z</time>
      </trkpt>
      <trkpt lat="47.53625" lon="6.71442">
        <ele>387</ele>
        <time>2016-01-03T10:05:46.000Z</time>
      </trkpt>
      <trkpt lat="47.53627" lon="6.71436">
        <ele>387</ele>
        <time>2016-01-03T10:05:48.000Z</time>
      </trkpt>
      <trkpt lat="47.53627" lon="6.71433">
        <ele>387</ele>
        <time>2016-01-03T10:05:49.000Z</time>
      </trkpt>
      <trkpt lat="47.53629" lon="6.71428">
        <ele>387</ele>
        <time>2016-01-03T10:05:51.000Z</time>
      </trkpt>
      <trkpt lat="47.5363" lon="6.71426">
        <ele>387</ele>
        <time>2016-01-03T10:05:52.000Z</time>
      </trkpt>
      <trkpt lat="47.53633" lon="6.71421">
        <ele>387</ele>
        <time>2016-01-03T10:05:54.000Z</time>
      </trkpt>
      <trkpt lat="47.53634" lon="6.71419">
        <ele>388</ele>
        <time>2016-01-03T10:05:55.000Z</time>
      </trkpt>
      <trkpt lat="47.53637" lon="6.71415">
        <ele>389</ele>
        <time>2016-01-03T10:05:57.000Z</time>
      </trkpt>
      <trkpt lat="47.53639" lon="6.71413">
        <ele>389</ele>
        <time>2016-01-03T10:05:58.000Z</time>
      </trkpt>
      <trkpt lat="47.53641" lon="6.71408">
        <ele>389</ele>
        <time>2016-01-03T10:06:00.000Z</time>
      </trkpt>
      <trkpt lat="47.53642" lon="6.71406">
        <ele>389</ele>
        <time>2016-01-03T10:06:01.000Z</time>
      </trkpt>
      <trkpt lat="47.53644" lon="6.71401">
        <ele>390</ele>
        <time>2016-01-03T10:06:03.000Z</time>
      </trkpt>
      <trkpt lat="47.53645" lon="6.71399">
        <ele>390</ele>
        <time>2016-01-03T10:06:04.000Z</time>
      </trkpt>
      <trkpt lat="47.53648" lon="6.71396">
        <ele>390</ele>
        <time>2016-01-03T10:06:06.000Z</time>
      </trkpt>
      <trkpt lat="47.53649" lon="6.71394">
        <ele>390</ele>
        <time>2016-01-03T10:06:07.000Z</time>
      </trkpt>
      <trkpt lat="47.53651" lon="6.7139">
        <ele>390</ele>
        <time>2016-01-03T10:06:09.000Z</time>
      </trkpt>
      <trkpt lat="47.53653" lon="6.71388">
        <ele>390</ele>
        <time>2016-01-03T10:06:10.000Z</time>
      </trkpt>
      <trkpt lat="47.53654" lon="6.71384">
        <ele>390</ele>
        <time>2016-01-03T10:06:12.000Z</time>
      </trkpt>
      <trkpt lat="47.53655" lon="6.71382">
        <ele>390</ele>
        <time>2016-01-03T10:06:13.000Z</time>
      </trkpt>
      <trkpt lat="47.53658" lon="6.71379">
        <ele>390</ele>
        <time>2016-01-03T10:06:15.000Z</time>
      </trkpt>
      <trkpt lat="47.53659" lon="6.71377">
        <ele>390</ele>
        <time>2016-01-03T10:06:16.000Z</time>
      </trkpt>
      <trkpt lat="47.53662" lon="6.71375">
        <ele>390</ele>
        <time>2016-01-03T10:06:18.000Z</time>
      </trkpt>
      <trkpt lat="47.53663" lon="6.71374">
        <ele>390</ele>
        <time>2016-01-03T10:06:19.002Z</time>
      </trkpt>
      <trkpt lat="47.53668" lon="6.71371">
        <ele>395</ele>
        <time>2016-01-03T10:06:21.000Z</time>
      </trkpt>
      <trkpt lat="47.53671" lon="6.71369">
        <ele>395</ele>
        <time>2016-01-03T10:06:23.000Z</time>
      </trkpt>
      <trkpt lat="47.53673" lon="6.71368">
        <ele>395</ele>
        <time>2016-01-03T10:06:24.000Z</time>
      </trkpt>
      <trkpt lat="47.53677" lon="6.71365">
        <ele>395</ele>
        <time>2016-01-03T10:06:26.000Z</time>
      </trkpt>
      <trkpt lat="47.53679" lon="6.71364">
        <ele>395</ele>
        <time>2016-01-03T10:06:27.000Z</time>
      </trkpt>
      <trkpt lat="47.53682" lon="6.7136">
        <ele>395</ele>
        <time>2016-01-03T10:06:29.000Z</time>
      </trkpt>
      <trkpt lat="47.53684" lon="6.71358">
        <ele>396</ele>
        <time>2016-01-03T10:06:30.000Z</time>
      </trkpt>
      <trkpt lat="47.53687" lon="6.71354">
        <ele>396</ele>
        <time>2016-01-03T10:06:32.000Z</time>
      </trkpt>
      <trkpt lat="47.53689" lon="6.71353">
        <ele>396</ele>
        <time>2016-01-03T10:06:33.000Z</time>
      </trkpt>
      <trkpt lat="47.53692" lon="6.7135">
        <ele>396</ele>
        <time>2016-01-03T10:06:35.000Z</time>
      </trkpt>
      <trkpt lat="47.53694" lon="6.71348">
        <ele>396</ele>
        <time>2016-01-03T10:06:36.000Z</time>
      </trkpt>
      <trkpt lat="47.53698" lon="6.71345">
        <ele>396</ele>
        <time>2016-01-03T10:06:38.000Z</time>
      </trkpt>
      <trkpt lat="47.53699" lon="6.71344">
        <ele>396</ele>
        <time>2016-01-03T10:06:39.000Z</time>
      </trkpt>
      <trkpt lat="47.53703" lon="6.7134">
        <ele>397</ele>
        <time>2016-01-03T10:06:41.000Z</time>
      </trkpt>
      <trkpt lat="47.53705" lon="6.71339">
        <ele>397</ele>
        <time>2016-01-03T10:06:42.000Z</time>
      </trkpt>
      <trkpt lat="47.53708" lon="6.71335">
        <ele>397</ele>
        <time>2016-01-03T10:06:44.000Z</time>
      </trkpt>
      <trkpt lat="47.53709" lon="6.71334">
        <ele>397</ele>
        <time>2016-01-03T10:06:45.000Z</time>
      </trkpt>
      <trkpt lat="47.53713" lon="6.71331">
        <ele>398</ele>
        <time>2016-01-03T10:06:47.000Z</time>
      </trkpt>
      <trkpt lat="47.53715" lon="6.71329">
        <ele>398</ele>
        <time>2016-01-03T10:06:48.000Z</time>
      </trkpt>
      <trkpt lat="47.53719" lon="6.71326">
        <ele>398</ele>
        <time>2016-01-03T10:06:50.000Z</time>
      </trkpt>
      <trkpt lat="47.5372" lon="6.71324">
        <ele>398</ele>
        <time>2016-01-03T10:06:51.000Z</time>
      </trkpt>
      <trkpt lat="47.53724" lon="6.71321">
        <ele>398</ele>
        <time>2016-01-03T10:06:53.000Z</time>
      </trkpt>
      <trkpt lat="47.53727" lon="6.7132">
        <ele>399</ele>
        <time>2016-01-03T10:06:54.000Z</time>
      </trkpt>
      <trkpt lat="47.5373" lon="6.71317">
        <ele>399</ele>
        <time>2016-01-03T10:06:56.000Z</time>
      </trkpt>
      <trkpt lat="47.53732" lon="6.71315">
        <ele>399</ele>
        <time>2016-01-03T10:06:57.000Z</time>
      </trkpt>
      <trkpt lat="47.53735" lon="6.71312">
        <ele>399</ele>
        <time>2016-01-03T10:06:59.000Z</time>
      </trkpt>
      <trkpt lat="47.53737" lon="6.7131">
        <ele>399</ele>
        <time>2016-01-03T10:07:00.000Z</time>
      </trkpt>
      <trkpt lat="47.53739" lon="6.71308">
        <ele>399</ele>
        <time>2016-01-03T10:07:01.000Z</time>
      </trkpt>
      <trkpt lat="47.5374" lon="6.71306">
        <ele>399</ele>
        <time>2016-01-03T10:07:02.000Z</time>
      </trkpt>
      <trkpt lat="47.53742" lon="6.71304">
        <ele>399</ele>
        <time>2016-01-03T10:07:03.000Z</time>
      </trkpt>
      <trkpt lat="47.53744" lon="6.71302">
        <ele>399</ele>
        <time>2016-01-03T10:07:04.001Z</time>
      </trkpt>
      <trkpt lat="47.53746" lon="6.71299">
        <ele>399</ele>
        <time>2016-01-03T10:07:05.000Z</time>
      </trkpt>
      <trkpt lat="47.53748" lon="6.71297">
        <ele>399</ele>
        <time>2016-01-03T10:07:06.000Z</time>
      </trkpt>
      <trkpt lat="47.53749" lon="6.71294">
        <ele>399</ele>
        <time>2016-01-03T10:07:07.000Z</time>
      </trkpt>
      <trkpt lat="47.53751" lon="6.71292">
        <ele>402</ele>
        <time>2016-01-03T10:07:08.000Z</time>
      </trkpt>
      <trkpt lat="47.53753" lon="6.71289">
        <ele>402</ele>
        <time>2016-01-03T10:07:09.000Z</time>
      </trkpt>
      <trkpt lat="47.53754" lon="6.71286">
        <ele>402</ele>
        <time>2016-01-03T10:07:10.002Z</time>
      </trkpt>
      <trkpt lat="47.53755" lon="6.71282">
        <ele>402</ele>
        <time>2016-01-03T10:07:11.000Z</time>
      </trkpt>
      <trkpt lat="47.53756" lon="6.71278">
        <ele>402</ele>
        <time>2016-01-03T10:07:12.000Z</time>
      </trkpt>
      <trkpt lat="47.53758" lon="6.71274">
        <ele>401</ele>
        <time>2016-01-03T10:07:13.000Z</time>
      </trkpt>
      <trkpt lat="47.53759" lon="6.7127">
        <ele>401</ele>
        <time>2016-01-03T10:07:14.000Z</time>
      </trkpt>
      <trkpt lat="47.53761" lon="6.71267">
        <ele>401</ele>
        <time>2016-01-03T10:07:15.001Z</time>
      </trkpt>
      <trkpt lat="47.53763" lon="6.71263">
        <ele>401</ele>
        <time>2016-01-03T10:07:16.000Z</time>
      </trkpt>
      <trkpt lat="47.53764" lon="6.71259">
        <ele>401</ele>
        <time>2016-01-03T10:07:17.000Z</time>
      </trkpt>
      <trkpt lat="47.53766" lon="6.71256">
        <ele>401</ele>
        <time>2016-01-03T10:07:18.000Z</time>
      </trkpt>
      <trkpt lat="47.53768" lon="6.71252">
        <ele>401</ele>
        <time>2016-01-03T10:07:19.000Z</time>
      </trkpt>
      <trkpt lat="47.5377" lon="6.71249">
        <ele>400</ele>
        <time>2016-01-03T10:07:20.000Z</time>
      </trkpt>
      <trkpt lat="47.53772" lon="6.71245">
        <ele>401</ele>
        <time>2016-01-03T10:07:21.000Z</time>
      </trkpt>
      <trkpt lat="47.53774" lon="6.71241">
        <ele>401</ele>
        <time>2016-01-03T10:07:22.000Z</time>
      </trkpt>
      <trkpt lat="47.53776" lon="6.71238">
        <ele>401</ele>
        <time>2016-01-03T10:07:23.001Z</time>
      </trkpt>
      <trkpt lat="47.53778" lon="6.71235">
        <ele>401</ele>
        <time>2016-01-03T10:07:24.000Z</time>
      </trkpt>
      <trkpt lat="47.5378" lon="6.71231">
        <ele>401</ele>
        <time>2016-01-03T10:07:25.000Z</time>
      </trkpt>
      <trkpt lat="47.53783" lon="6.71228">
        <ele>401</ele>
        <time>2016-01-03T10:07:26.000Z</time>
      </trkpt>
      <trkpt lat="47.53785" lon="6.71224">
        <ele>401</ele>
        <time>2016-01-03T10:07:27.000Z</time>
      </trkpt>
      <trkpt lat="47.53787" lon="6.71219">
        <ele>401</ele>
        <time>2016-01-03T10:07:28.000Z</time>
      </trkpt>
      <trkpt lat="47.53788" lon="6.71215">
        <ele>401</ele>
        <time>2016-01-03T10:07:29.000Z</time>
      </trkpt>
      <trkpt lat="47.5379" lon="6.7121">
        <ele>401</ele>
        <time>2016-01-03T10:07:30.000Z</time>
      </trkpt>
      <trkpt lat="47.53792" lon="6.71206">
        <ele>402</ele>
        <time>2016-01-03T10:07:31.000Z</time>
      </trkpt>
      <trkpt lat="47.53794" lon="6.71202">
        <ele>402</ele>
        <time>2016-01-03T10:07:32.000Z</time>
      </trkpt>
      <trkpt lat="47.53796" lon="6.71198">
        <ele>402</ele>
        <time>2016-01-03T10:07:33.000Z</time>
      </trkpt>
      <trkpt lat="47.53799" lon="6.71193">
        <ele>402</ele>
        <time>2016-01-03T10:07:34.000Z</time>
      </trkpt>
      <trkpt lat="47.53801" lon="6.71189">
        <ele>402</ele>
        <time>2016-01-03T10:07:35.001Z</time>
      </trkpt>
      <trkpt lat="47.53803" lon="6.71184">
        <ele>402</ele>
        <time>2016-01-03T10:07:36.000Z</time>
      </trkpt>
      <trkpt lat="47.53805" lon="6.71179">
        <ele>402</ele>
        <time>2016-01-03T10:07:37.000Z</time>
      </trkpt>
      <trkpt lat="47.53808" lon="6.71174">
        <ele>402</ele>
        <time>2016-01-03T10:07:38.000Z</time>
      </trkpt>
      <trkpt lat="47.5381" lon="6.71169">
        <ele>402</ele>
        <time>2016-01-03T10:07:39.000Z</time>
      </trkpt>
      <trkpt lat="47.53812" lon="6.71164">
        <ele>403</ele>
        <time>2016-01-03T10:07:40.000Z</time>
      </trkpt>
      <trkpt lat="47.53815" lon="6.7116">
        <ele>403</ele>
        <time>2016-01-03T10:07:41.000Z</time>
      </trkpt>
      <trkpt lat="47.53817" lon="6.71155">
        <ele>403</ele>
        <time>2016-01-03T10:07:42.000Z</time>
      </trkpt>
      <trkpt lat="47.5382" lon="6.7115">
        <ele>403</ele>
        <time>2016-01-03T10:07:43.000Z</time>
      </trkpt>
      <trkpt lat="47.53822" lon="6.71145">
        <ele>403</ele>
        <time>2016-01-03T10:07:44.000Z</time>
      </trkpt>
      <trkpt lat="47.53824" lon="6.7114">
        <ele>403</ele>
        <time>2016-01-03T10:07:45.000Z</time>
      </trkpt>
      <trkpt lat="47.53826" lon="6.71136">
        <ele>403</ele>
        <time>2016-01-03T10:07:46.000Z</time>
      </trkpt>
      <trkpt lat="47.53827" lon="6.71131">
        <ele>403</ele>
        <time>2016-01-03T10:07:47.001Z</time>
      </trkpt>
      <trkpt lat="47.53829" lon="6.71128">
        <ele>403</ele>
        <time>2016-01-03T10:07:48.000Z</time>
      </trkpt>
      <trkpt lat="47.5383" lon="6.71124">
        <ele>403</ele>
        <time>2016-01-03T10:07:49.000Z</time>
      </trkpt>
      <trkpt lat="47.53832" lon="6.71119">
        <ele>403</ele>
        <time>2016-01-03T10:07:50.000Z</time>
      </trkpt>
      <trkpt lat="47.53834" lon="6.71115">
        <ele>406</ele>
        <time>2016-01-03T10:07:51.000Z</time>
      </trkpt>
      <trkpt lat="47.53836" lon="6.71111">
        <ele>406</ele>
        <time>2016-01-03T10:07:52.000Z</time>
      </trkpt>
      <trkpt lat="47.53837" lon="6.71106">
        <ele>406</ele>
        <time>2016-01-03T10:07:53.000Z</time>
      </trkpt>
      <trkpt lat="47.53839" lon="6.71102">
        <ele>406</ele>
        <time>2016-01-03T10:07:54.000Z</time>
      </trkpt>
      <trkpt lat="47.53841" lon="6.71098">
        <ele>406</ele>
        <time>2016-01-03T10:07:54.999Z</time>
      </trkpt>
      <trkpt lat="47.53844" lon="6.71095">
        <ele>406</ele>
        <time>2016-01-03T10:07:56.000Z</time>
      </trkpt>
      <trkpt lat="47.53847" lon="6.71091">
        <ele>406</ele>
        <time>2016-01-03T10:07:57.000Z</time>
      </trkpt>
      <trkpt lat="47.53849" lon="6.71088">
        <ele>406</ele>
        <time>2016-01-03T10:07:58.000Z</time>
      </trkpt>
      <trkpt lat="47.53851" lon="6.71085">
        <ele>406</ele>
        <time>2016-01-03T10:07:59.000Z</time>
      </trkpt>
      <trkpt lat="47.53853" lon="6.71083">
        <ele>408</ele>
        <time>2016-01-03T10:08:00.000Z</time>
      </trkpt>
      <trkpt lat="47.53856" lon="6.71078">
        <ele>408</ele>
        <time>2016-01-03T10:08:02.000Z</time>
      </trkpt>
      <trkpt lat="47.53857" lon="6.71076">
        <ele>408</ele>
        <time>2016-01-03T10:08:03.000Z</time>
      </trkpt>
      <trkpt lat="47.53859" lon="6.71071">
        <ele>408</ele>
        <time>2016-01-03T10:08:05.000Z</time>
      </trkpt>
      <trkpt lat="47.5386" lon="6.7107">
        <ele>408</ele>
        <time>2016-01-03T10:08:06.000Z</time>
      </trkpt>
      <trkpt lat="47.53859" lon="6.71064">
        <ele>408</ele>
        <time>2016-01-03T10:08:17.000Z</time>
      </trkpt>
      <trkpt lat="47.53859" lon="6.71063">
        <ele>408</ele>
        <time>2016-01-03T10:08:18.000Z</time>
      </trkpt>
      <trkpt lat="47.5386" lon="6.71057">
        <ele>408</ele>
        <time>2016-01-03T10:08:22.000Z</time>
      </trkpt>
      <trkpt lat="47.5386" lon="6.71055">
        <ele>408</ele>
        <time>2016-01-03T10:08:23.000Z</time>
      </trkpt>
      <trkpt lat="47.53858" lon="6.7105">
        <ele>408</ele>
        <time>2016-01-03T10:08:26.000Z</time>
      </trkpt>
      <trkpt lat="47.53857" lon="6.71048">
        <ele>408</ele>
        <time>2016-01-03T10:08:27.000Z</time>
      </trkpt>
      <trkpt lat="47.53853" lon="6.71046">
        <ele>408</ele>
        <time>2016-01-03T10:08:29.000Z</time>
      </trkpt>
      <trkpt lat="47.53851" lon="6.71046">
        <ele>408</ele>
        <time>2016-01-03T10:08:30.000Z</time>
      </trkpt>
      <trkpt lat="47.53848" lon="6.71047">
        <ele>408</ele>
        <time>2016-01-03T10:08:34.000Z</time>
      </trkpt>
      <trkpt lat="47.53847" lon="6.71047">
        <ele>408</ele>
        <time>2016-01-03T10:08:35.000Z</time>
      </trkpt>
      <trkpt lat="47.53844" lon="6.71043">
        <ele>408</ele>
        <time>2016-01-03T10:08:37.000Z</time>
      </trkpt>
      <trkpt lat="47.53842" lon="6.71039">
        <ele>409</ele>
        <time>2016-01-03T10:08:38.000Z</time>
      </trkpt>
      <trkpt lat="47.53839" lon="6.71035">
        <ele>409</ele>
        <time>2016-01-03T10:08:39.000Z</time>
      </trkpt>
      <trkpt lat="47.53837" lon="6.71031">
        <ele>409</ele>
        <time>2016-01-03T10:08:40.000Z</time>
      </trkpt>
      <trkpt lat="47.53835" lon="6.71027">
        <ele>409</ele>
        <time>2016-01-03T10:08:41.000Z</time>
      </trkpt>
      <trkpt lat="47.53832" lon="6.71023">
        <ele>406</ele>
        <time>2016-01-03T10:08:42.000Z</time>
      </trkpt>
      <trkpt lat="47.5383" lon="6.71018">
        <ele>406</ele>
        <time>2016-01-03T10:08:43.000Z</time>
      </trkpt>
      <trkpt lat="47.53828" lon="6.71014">
        <ele>406</ele>
        <time>2016-01-03T10:08:44.000Z</time>
      </trkpt>
      <trkpt lat="47.53827" lon="6.7101">
        <ele>407</ele>
        <time>2016-01-03T10:08:45.000Z</time>
      </trkpt>
      <trkpt lat="47.53825" lon="6.71005">
        <ele>407</ele>
        <time>2016-01-03T10:08:46.000Z</time>
      </trkpt>
      <trkpt lat="47.53822" lon="6.70993">
        <ele>408</ele>
        <time>2016-01-03T10:08:47.000Z</time>
      </trkpt>
      <trkpt lat="47.5382" lon="6.70985">
        <ele>407</ele>
        <time>2016-01-03T10:08:48.000Z</time>
      </trkpt>
      <trkpt lat="47.5382" lon="6.70977">
        <ele>407</ele>
        <time>2016-01-03T10:08:49.000Z</time>
      </trkpt>
      <trkpt lat="47.5382" lon="6.70968">
        <ele>407</ele>
        <time>2016-01-03T10:08:50.000Z</time>
      </trkpt>
      <trkpt lat="47.5382" lon="6.7096">
        <ele>407</ele>
        <time>2016-01-03T10:08:51.000Z</time>
      </trkpt>
      <trkpt lat="47.53819" lon="6.70951">
        <ele>408</ele>
        <time>2016-01-03T10:08:52.000Z</time>
      </trkpt>
      <trkpt lat="47.53817" lon="6.70944">
        <ele>408</ele>
        <time>2016-01-03T10:08:53.000Z</time>
      </trkpt>
      <trkpt lat="47.53812" lon="6.70933">
        <ele>408</ele>
        <time>2016-01-03T10:08:54.000Z</time>
      </trkpt>
      <trkpt lat="47.5381" lon="6.70921">
        <ele>408</ele>
        <time>2016-01-03T10:08:55.000Z</time>
      </trkpt>
      <trkpt lat="47.53807" lon="6.7091">
        <ele>411</ele>
        <time>2016-01-03T10:08:56.000Z</time>
      </trkpt>
      <trkpt lat="47.53803" lon="6.70898">
        <ele>411</ele>
        <time>2016-01-03T10:08:57.000Z</time>
      </trkpt>
      <trkpt lat="47.53801" lon="6.70888">
        <ele>411</ele>
        <time>2016-01-03T10:08:58.000Z</time>
      </trkpt>
      <trkpt lat="47.53799" lon="6.70879">
        <ele>411</ele>
        <time>2016-01-03T10:08:59.000Z</time>
      </trkpt>
      <trkpt lat="47.53797" lon="6.7087">
        <ele>411</ele>
        <time>2016-01-03T10:09:00.000Z</time>
      </trkpt>
      <trkpt lat="47.53791" lon="6.70871">
        <ele>411</ele>
        <time>2016-01-03T10:09:01.000Z</time>
      </trkpt>
      <trkpt lat="47.53785" lon="6.70869">
        <ele>410</ele>
        <time>2016-01-03T10:09:02.000Z</time>
      </trkpt>
      <trkpt lat="47.5378" lon="6.70865">
        <ele>410</ele>
        <time>2016-01-03T10:09:03.000Z</time>
      </trkpt>
      <trkpt lat="47.53773" lon="6.70862">
        <ele>410</ele>
        <time>2016-01-03T10:09:04.000Z</time>
      </trkpt>
      <trkpt lat="47.53766" lon="6.70859">
        <ele>410</ele>
        <time>2016-01-03T10:09:05.000Z</time>
      </trkpt>
      <trkpt lat="47.5376" lon="6.70855">
        <ele>410</ele>
        <time>2016-01-03T10:09:06.000Z</time>
      </trkpt>
      <trkpt lat="47.53753" lon="6.70855">
        <ele>410</ele>
        <time>2016-01-03T10:09:07.000Z</time>
      </trkpt>
      <trkpt lat="47.53746" lon="6.70854">
        <ele>406</ele>
        <time>2016-01-03T10:09:08.000Z</time>
      </trkpt>
      <trkpt lat="47.53738" lon="6.70849">
        <ele>406</ele>
        <time>2016-01-03T10:09:09.000Z</time>
      </trkpt>
      <trkpt lat="47.53731" lon="6.70844">
        <ele>406</ele>
        <time>2016-01-03T10:09:10.000Z</time>
      </trkpt>
      <trkpt lat="47.53726" lon="6.70839">
        <ele>406</ele>
        <time>2016-01-03T10:09:11.000Z</time>
      </trkpt>
      <trkpt lat="47.53721" lon="6.70833">
        <ele>407</ele>
        <time>2016-01-03T10:09:12.000Z</time>
      </trkpt>
      <trkpt lat="47.53716" lon="6.70826">
        <ele>407</ele>
        <time>2016-01-03T10:09:13.000Z</time>
      </trkpt>
      <trkpt lat="47.53711" lon="6.70822">
        <ele>406</ele>
        <time>2016-01-03T10:09:14.000Z</time>
      </trkpt>
      <trkpt lat="47.53704" lon="6.70818">
        <ele>406</ele>
        <time>2016-01-03T10:09:15.000Z</time>
      </trkpt>
      <trkpt lat="47.53697" lon="6.70812">
        <ele>405</ele>
        <time>2016-01-03T10:09:16.000Z</time>
      </trkpt>
      <trkpt lat="47.53691" lon="6.70806">
        <ele>405</ele>
        <time>2016-01-03T10:09:17.000Z</time>
      </trkpt>
      <trkpt lat="47.53684" lon="6.70799">
        <ele>405</ele>
        <time>2016-01-03T10:09:18.000Z</time>
      </trkpt>
      <trkpt lat="47.53677" lon="6.70793">
        <ele>405</ele>
        <time>2016-01-03T10:09:19.000Z</time>
      </trkpt>
      <trkpt lat="47.53671" lon="6.70787">
        <ele>405</ele>
        <time>2016-01-03T10:09:20.000Z</time>
      </trkpt>
      <trkpt lat="47.53663" lon="6.70784">
        <ele>401</ele>
        <time>2016-01-03T10:09:21.000Z</time>
      </trkpt>
      <trkpt lat="47.53656" lon="6.70775">
        <ele>401</ele>
        <time>2016-01-03T10:09:22.000Z</time>
      </trkpt>
      <trkpt lat="47.53649" lon="6.70768">
        <ele>401</ele>
        <time>2016-01-03T10:09:23.000Z</time>
      </trkpt>
      <trkpt lat="47.53642" lon="6.70759">
        <ele>401</ele>
        <time>2016-01-03T10:09:24.000Z</time>
      </trkpt>
      <trkpt lat="47.53635" lon="6.70751">
        <ele>401</ele>
        <time>2016-01-03T10:09:25.000Z</time>
      </trkpt>
      <trkpt lat="47.53631" lon="6.70745">
        <ele>404</ele>
        <time>2016-01-03T10:09:26.000Z</time>
      </trkpt>
      <trkpt lat="47.53627" lon="6.70741">
        <ele>404</ele>
        <time>2016-01-03T10:09:27.000Z</time>
      </trkpt>
      <trkpt lat="47.53622" lon="6.70736">
        <ele>404</ele>
        <time>2016-01-03T10:09:28.000Z</time>
      </trkpt>
      <trkpt lat="47.53619" lon="6.70732">
        <ele>404</ele>
        <time>2016-01-03T10:09:29.000Z</time>
      </trkpt>
      <trkpt lat="47.53617" lon="6.70728">
        <ele>404</ele>
        <time>2016-01-03T10:09:30.000Z</time>
      </trkpt>
      <trkpt lat="47.53616" lon="6.70726">
        <ele>404</ele>
        <time>2016-01-03T10:09:31.000Z</time>
      </trkpt>
      <trkpt lat="47.53614" lon="6.70723">
        <ele>404</ele>
        <time>2016-01-03T10:09:32.000Z</time>
      </trkpt>
      <trkpt lat="47.53611" lon="6.70718">
        <ele>404</ele>
        <time>2016-01-03T10:09:34.000Z</time>
      </trkpt>
      <trkpt lat="47.53609" lon="6.70717">
        <ele>404</ele>
        <time>2016-01-03T10:09:35.000Z</time>
      </trkpt>
      <trkpt lat="47.53606" lon="6.70714">
        <ele>405</ele>
        <time>2016-01-03T10:09:37.000Z</time>
      </trkpt>
      <trkpt lat="47.53604" lon="6.70712">
        <ele>405</ele>
        <time>2016-01-03T10:09:38.000Z</time>
      </trkpt>
      <trkpt lat="47.53601" lon="6.7071">
        <ele>405</ele>
        <time>2016-01-03T10:09:40.000Z</time>
      </trkpt>
      <trkpt lat="47.53599" lon="6.70708">
        <ele>405</ele>
        <time>2016-01-03T10:09:41.000Z</time>
      </trkpt>
      <trkpt lat="47.53597" lon="6.70706">
        <ele>405</ele>
        <time>2016-01-03T10:09:43.000Z</time>
      </trkpt>
      <trkpt lat="47.53595" lon="6.70705">
        <ele>405</ele>
        <time>2016-01-03T10:09:44.000Z</time>
      </trkpt>
      <trkpt lat="47.53592" lon="6.70703">
        <ele>405</ele>
        <time>2016-01-03T10:09:46.000Z</time>
      </trkpt>
      <trkpt lat="47.5359" lon="6.70702">
        <ele>405</ele>
        <time>2016-01-03T10:09:47.000Z</time>
      </trkpt>
      <trkpt lat="47.53587" lon="6.70698">
        <ele>405</ele>
        <time>2016-01-03T10:09:49.000Z</time>
      </trkpt>
      <trkpt lat="47.53585" lon="6.70697">
        <ele>405</ele>
        <time>2016-01-03T10:09:50.000Z</time>
      </trkpt>
      <trkpt lat="47.53583" lon="6.70695">
        <ele>406</ele>
        <time>2016-01-03T10:09:51.000Z</time>
      </trkpt>
      <trkpt lat="47.5358" lon="6.70694">
        <ele>406</ele>
        <time>2016-01-03T10:09:52.000Z</time>
      </trkpt>
      <trkpt lat="47.53577" lon="6.70692">
        <ele>406</ele>
        <time>2016-01-03T10:09:53.000Z</time>
      </trkpt>
      <trkpt lat="47.53574" lon="6.70689">
        <ele>406</ele>
        <time>2016-01-03T10:09:54.000Z</time>
      </trkpt>
      <trkpt lat="47.53571" lon="6.70686">
        <ele>406</ele>
        <time>2016-01-03T10:09:55.000Z</time>
      </trkpt>
      <trkpt lat="47.53568" lon="6.70683">
        <ele>406</ele>
        <time>2016-01-03T10:09:56.000Z</time>
      </trkpt>
      <trkpt lat="47.53566" lon="6.7068">
        <ele>406</ele>
        <time>2016-01-03T10:09:57.000Z</time>
      </trkpt>
      <trkpt lat="47.53564" lon="6.70677">
        <ele>406</ele>
        <time>2016-01-03T10:09:58.000Z</time>
      </trkpt>
      <trkpt lat="47.53562" lon="6.70675">
        <ele>406</ele>
        <time>2016-01-03T10:09:59.000Z</time>
      </trkpt>
      <trkpt lat="47.53559" lon="6.70674">
        <ele>406</ele>
        <time>2016-01-03T10:10:00.000Z</time>
      </trkpt>
      <trkpt lat="47.53556" lon="6.70672">
        <ele>406</ele>
        <time>2016-01-03T10:10:01.000Z</time>
      </trkpt>
      <trkpt lat="47.53552" lon="6.70671">
        <ele>406</ele>
        <time>2016-01-03T10:10:02.000Z</time>
      </trkpt>
      <trkpt lat="47.53549" lon="6.7067">
        <ele>406</ele>
        <time>2016-01-03T10:10:03.000Z</time>
      </trkpt>
      <trkpt lat="47.53545" lon="6.70668">
        <ele>406</ele>
        <time>2016-01-03T10:10:04.000Z</time>
      </trkpt>
      <trkpt lat="47.53543" lon="6.70667">
        <ele>406</ele>
        <time>2016-01-03T10:10:05.000Z</time>
      </trkpt>
      <trkpt lat="47.53541" lon="6.70666">
        <ele>410</ele>
        <time>2016-01-03T10:10:06.000Z</time>
      </trkpt>
      <trkpt lat="47.53538" lon="6.70664">
        <ele>410</ele>
        <time>2016-01-03T10:10:07.000Z</time>
      </trkpt>
      <trkpt lat="47.53536" lon="6.70663">
        <ele>410</ele>
        <time>2016-01-03T10:10:08.000Z</time>
      </trkpt>
      <trkpt lat="47.53533" lon="6.70662">
        <ele>410</ele>
        <time>2016-01-03T10:10:09.000Z</time>
      </trkpt>
      <trkpt lat="47.53531" lon="6.7066">
        <ele>410</ele>
        <time>2016-01-03T10:10:10.000Z</time>
      </trkpt>
      <trkpt lat="47.53528" lon="6.70659">
        <ele>410</ele>
        <time>2016-01-03T10:10:11.000Z</time>
      </trkpt>
      <trkpt lat="47.53525" lon="6.70657">
        <ele>410</ele>
        <time>2016-01-03T10:10:12.000Z</time>
      </trkpt>
      <trkpt lat="47.53523" lon="6.70656">
        <ele>410</ele>
        <time>2016-01-03T10:10:13.000Z</time>
      </trkpt>
      <trkpt lat="47.5352" lon="6.70655">
        <ele>410</ele>
        <time>2016-01-03T10:10:14.000Z</time>
      </trkpt>
      <trkpt lat="47.53518" lon="6.70654">
        <ele>410</ele>
        <time>2016-01-03T10:10:15.000Z</time>
      </trkpt>
      <trkpt lat="47.53515" lon="6.70652">
        <ele>410</ele>
        <time>2016-01-03T10:10:16.000Z</time>
      </trkpt>
      <trkpt lat="47.53512" lon="6.7065">
        <ele>410</ele>
        <time>2016-01-03T10:10:17.000Z</time>
      </trkpt>
      <trkpt lat="47.5351" lon="6.70648">
        <ele>410</ele>
        <time>2016-01-03T10:10:18.000Z</time>
      </trkpt>
      <trkpt lat="47.53507" lon="6.70645">
        <ele>410</ele>
        <time>2016-01-03T10:10:19.000Z</time>
      </trkpt>
      <trkpt lat="47.53504" lon="6.70643">
        <ele>410</ele>
        <time>2016-01-03T10:10:20.000Z</time>
      </trkpt>
      <trkpt lat="47.53501" lon="6.70642">
        <ele>410</ele>
        <time>2016-01-03T10:10:21.000Z</time>
      </trkpt>
      <trkpt lat="47.53498" lon="6.7064">
        <ele>409</ele>
        <time>2016-01-03T10:10:22.000Z</time>
      </trkpt>
      <trkpt lat="47.53494" lon="6.70638">
        <ele>409</ele>
        <time>2016-01-03T10:10:23.000Z</time>
      </trkpt>
      <trkpt lat="47.53491" lon="6.70636">
        <ele>409</ele>
        <time>2016-01-03T10:10:24.000Z</time>
      </trkpt>
      <trkpt lat="47.53487" lon="6.70633">
        <ele>409</ele>
        <time>2016-01-03T10:10:25.000Z</time>
      </trkpt>
      <trkpt lat="47.53483" lon="6.7063">
        <ele>409</ele>
        <time>2016-01-03T10:10:26.000Z</time>
      </trkpt>
      <trkpt lat="47.5348" lon="6.70627">
        <ele>410</ele>
        <time>2016-01-03T10:10:27.000Z</time>
      </trkpt>
      <trkpt lat="47.53476" lon="6.70625">
        <ele>410</ele>
        <time>2016-01-03T10:10:28.000Z</time>
      </trkpt>
      <trkpt lat="47.53472" lon="6.70622">
        <ele>410</ele>
        <time>2016-01-03T10:10:29.000Z</time>
      </trkpt>
      <trkpt lat="47.53469" lon="6.7062">
        <ele>410</ele>
        <time>2016-01-03T10:10:30.000Z</time>
      </trkpt>
      <trkpt lat="47.53466" lon="6.70619">
        <ele>410</ele>
        <time>2016-01-03T10:10:31.000Z</time>
      </trkpt>
      <trkpt lat="47.53462" lon="6.70616">
        <ele>410</ele>
        <time>2016-01-03T10:10:32.000Z</time>
      </trkpt>
      <trkpt lat="47.53459" lon="6.70614">
        <ele>410</ele>
        <time>2016-01-03T10:10:33.000Z</time>
      </trkpt>
      <trkpt lat="47.53455" lon="6.70612">
        <ele>410</ele>
        <time>2016-01-03T10:10:34.000Z</time>
      </trkpt>
      <trkpt lat="47.53452" lon="6.70609">
        <ele>410</ele>
        <time>2016-01-03T10:10:35.000Z</time>
      </trkpt>
      <trkpt lat="47.53449" lon="6.70604">
        <ele>410</ele>
        <time>2016-01-03T10:10:36.000Z</time>
      </trkpt>
      <trkpt lat="47.53445" lon="6.706">
        <ele>410</ele>
        <time>2016-01-03T10:10:37.000Z</time>
      </trkpt>
      <trkpt lat="47.53442" lon="6.70596">
        <ele>410</ele>
        <time>2016-01-03T10:10:38.000Z</time>
      </trkpt>
      <trkpt lat="47.53439" lon="6.70593">
        <ele>410</ele>
        <time>2016-01-03T10:10:39.000Z</time>
      </trkpt>
      <trkpt lat="47.53437" lon="6.70591">
        <ele>410</ele>
        <time>2016-01-03T10:10:40.000Z</time>
      </trkpt>
      <trkpt lat="47.53434" lon="6.70589">
        <ele>410</ele>
        <time>2016-01-03T10:10:41.000Z</time>
      </trkpt>
      <trkpt lat="47.53431" lon="6.70589">
        <ele>410</ele>
        <time>2016-01-03T10:10:42.000Z</time>
      </trkpt>
      <trkpt lat="47.53428" lon="6.70587">
        <ele>410</ele>
        <time>2016-01-03T10:10:43.000Z</time>
      </trkpt>
      <trkpt lat="47.53425" lon="6.70585">
        <ele>410</ele>
        <time>2016-01-03T10:10:44.000Z</time>
      </trkpt>
      <trkpt lat="47.53422" lon="6.70583">
        <ele>411</ele>
        <time>2016-01-03T10:10:45.000Z</time>
      </trkpt>
      <trkpt lat="47.53419" lon="6.70581">
        <ele>410</ele>
        <time>2016-01-03T10:10:46.000Z</time>
      </trkpt>
      <trkpt lat="47.53416" lon="6.70579">
        <ele>410</ele>
        <time>2016-01-03T10:10:47.000Z</time>
      </trkpt>
      <trkpt lat="47.53413" lon="6.70578">
        <ele>410</ele>
        <time>2016-01-03T10:10:48.000Z</time>
      </trkpt>
      <trkpt lat="47.5341" lon="6.70576">
        <ele>410</ele>
        <time>2016-01-03T10:10:49.000Z</time>
      </trkpt>
      <trkpt lat="47.53407" lon="6.70575">
        <ele>410</ele>
        <time>2016-01-03T10:10:50.000Z</time>
      </trkpt>
      <trkpt lat="47.53404" lon="6.70573">
        <ele>411</ele>
        <time>2016-01-03T10:10:51.000Z</time>
      </trkpt>
      <trkpt lat="47.53401" lon="6.70571">
        <ele>411</ele>
        <time>2016-01-03T10:10:52.000Z</time>
      </trkpt>
      <trkpt lat="47.53398" lon="6.70569">
        <ele>411</ele>
        <time>2016-01-03T10:10:53.000Z</time>
      </trkpt>
      <trkpt lat="47.53396" lon="6.70566">
        <ele>411</ele>
        <time>2016-01-03T10:10:54.000Z</time>
      </trkpt>
      <trkpt lat="47.53393" lon="6.70564">
        <ele>411</ele>
        <time>2016-01-03T10:10:55.000Z</time>
      </trkpt>
      <trkpt lat="47.5339" lon="6.70562">
        <ele>411</ele>
        <time>2016-01-03T10:10:56.000Z</time>
      </trkpt>
      <trkpt lat="47.53387" lon="6.70561">
        <ele>411</ele>
        <time>2016-01-03T10:10:57.000Z</time>
      </trkpt>
      <trkpt lat="47.53384" lon="6.70559">
        <ele>411</ele>
        <time>2016-01-03T10:10:58.000Z</time>
      </trkpt>
      <trkpt lat="47.53381" lon="6.70558">
        <ele>411</ele>
        <time>2016-01-03T10:10:59.000Z</time>
      </trkpt>
      <trkpt lat="47.53377" lon="6.70556">
        <ele>411</ele>
        <time>2016-01-03T10:11:00.000Z</time>
      </trkpt>
      <trkpt lat="47.53374" lon="6.70553">
        <ele>411</ele>
        <time>2016-01-03T10:11:01.000Z</time>
      </trkpt>
      <trkpt lat="47.53371" lon="6.70551">
        <ele>411</ele>
        <time>2016-01-03T10:11:02.000Z</time>
      </trkpt>
      <trkpt lat="47.53368" lon="6.70548">
        <ele>411</ele>
        <time>2016-01-03T10:11:03.000Z</time>
      </trkpt>
      <trkpt lat="47.53364" lon="6.70546">
        <ele>411</ele>
        <time>2016-01-03T10:11:04.000Z</time>
      </trkpt>
      <trkpt lat="47.5336" lon="6.70543">
        <ele>411</ele>
        <time>2016-01-03T10:11:05.000Z</time>
      </trkpt>
      <trkpt lat="47.53356" lon="6.7054">
        <ele>411</ele>
        <time>2016-01-03T10:11:06.000Z</time>
      </trkpt>
      <trkpt lat="47.53353" lon="6.70537">
        <ele>411</ele>
        <time>2016-01-03T10:11:07.000Z</time>
      </trkpt>
      <trkpt lat="47.53349" lon="6.70534">
        <ele>411</ele>
        <time>2016-01-03T10:11:08.000Z</time>
      </trkpt>
      <trkpt lat="47.53345" lon="6.70531">
        <ele>411</ele>
        <time>2016-01-03T10:11:09.000Z</time>
      </trkpt>
      <trkpt lat="47.53342" lon="6.70528">
        <ele>411</ele>
        <time>2016-01-03T10:11:10.000Z</time>
      </trkpt>
      <trkpt lat="47.53338" lon="6.70525">
        <ele>411</ele>
        <time>2016-01-03T10:11:11.000Z</time>
      </trkpt>
      <trkpt lat="47.53332" lon="6.70516">
        <ele>411</ele>
        <time>2016-01-03T10:11:12.000Z</time>
      </trkpt>
      <trkpt lat="47.53329" lon="6.7051">
        <ele>411</ele>
        <time>2016-01-03T10:11:13.000Z</time>
      </trkpt>
      <trkpt lat="47.53325" lon="6.70505">
        <ele>411</ele>
        <time>2016-01-03T10:11:14.000Z</time>
      </trkpt>
      <trkpt lat="47.53323" lon="6.705">
        <ele>410</ele>
        <time>2016-01-03T10:11:15.000Z</time>
      </trkpt>
      <trkpt lat="47.53319" lon="6.70495">
        <ele>410</ele>
        <time>2016-01-03T10:11:16.000Z</time>
      </trkpt>
      <trkpt lat="47.53316" lon="6.7049">
        <ele>410</ele>
        <time>2016-01-03T10:11:17.000Z</time>
      </trkpt>
      <trkpt lat="47.53312" lon="6.70486">
        <ele>410</ele>
        <time>2016-01-03T10:11:18.000Z</time>
      </trkpt>
      <trkpt lat="47.53309" lon="6.70482">
        <ele>410</ele>
        <time>2016-01-03T10:11:19.000Z</time>
      </trkpt>
      <trkpt lat="47.53307" lon="6.70479">
        <ele>410</ele>
        <time>2016-01-03T10:11:20.000Z</time>
      </trkpt>
      <trkpt lat="47.53304" lon="6.70474">
        <ele>410</ele>
        <time>2016-01-03T10:11:21.000Z</time>
      </trkpt>
      <trkpt lat="47.53301" lon="6.7047">
        <ele>410</ele>
        <time>2016-01-03T10:11:22.000Z</time>
      </trkpt>
      <trkpt lat="47.53299" lon="6.70465">
        <ele>409</ele>
        <time>2016-01-03T10:11:23.000Z</time>
      </trkpt>
      <trkpt lat="47.53296" lon="6.70459">
        <ele>409</ele>
        <time>2016-01-03T10:11:24.000Z</time>
      </trkpt>
      <trkpt lat="47.53289" lon="6.70447">
        <ele>409</ele>
        <time>2016-01-03T10:11:25.000Z</time>
      </trkpt>
      <trkpt lat="47.53285" lon="6.7044">
        <ele>409</ele>
        <time>2016-01-03T10:11:26.000Z</time>
      </trkpt>
      <trkpt lat="47.53281" lon="6.70435">
        <ele>409</ele>
        <time>2016-01-03T10:11:27.000Z</time>
      </trkpt>
      <trkpt lat="47.53276" lon="6.70431">
        <ele>408</ele>
        <time>2016-01-03T10:11:28.000Z</time>
      </trkpt>
      <trkpt lat="47.53269" lon="6.70426">
        <ele>408</ele>
        <time>2016-01-03T10:11:29.000Z</time>
      </trkpt>
      <trkpt lat="47.53263" lon="6.70419">
        <ele>407</ele>
        <time>2016-01-03T10:11:30.000Z</time>
      </trkpt>
      <trkpt lat="47.5326" lon="6.70414">
        <ele>405</ele>
        <time>2016-01-03T10:11:31.000Z</time>
      </trkpt>
      <trkpt lat="47.53256" lon="6.70408">
        <ele>405</ele>
        <time>2016-01-03T10:11:32.000Z</time>
      </trkpt>
      <trkpt lat="47.53253" lon="6.70402">
        <ele>405</ele>
        <time>2016-01-03T10:11:33.000Z</time>
      </trkpt>
      <trkpt lat="47.53249" lon="6.704">
        <ele>401</ele>
        <time>2016-01-03T10:11:34.000Z</time>
      </trkpt>
      <trkpt lat="47.53246" lon="6.70401">
        <ele>401</ele>
        <time>2016-01-03T10:11:35.000Z</time>
      </trkpt>
      <trkpt lat="47.53242" lon="6.70402">
        <ele>401</ele>
        <time>2016-01-03T10:11:36.000Z</time>
      </trkpt>
      <trkpt lat="47.53237" lon="6.70403">
        <ele>401</ele>
        <time>2016-01-03T10:11:37.000Z</time>
      </trkpt>
      <trkpt lat="47.53232" lon="6.70404">
        <ele>400</ele>
        <time>2016-01-03T10:11:38.000Z</time>
      </trkpt>
      <trkpt lat="47.53227" lon="6.70406">
        <ele>400</ele>
        <time>2016-01-03T10:11:39.000Z</time>
      </trkpt>
      <trkpt lat="47.5322" lon="6.70413">
        <ele>399</ele>
        <time>2016-01-03T10:11:40.000Z</time>
      </trkpt>
      <trkpt lat="47.53213" lon="6.70417">
        <ele>403</ele>
        <time>2016-01-03T10:11:41.000Z</time>
      </trkpt>
      <trkpt lat="47.53206" lon="6.70419">
        <ele>403</ele>
        <time>2016-01-03T10:11:42.000Z</time>
      </trkpt>
      <trkpt lat="47.532" lon="6.70422">
        <ele>402</ele>
        <time>2016-01-03T10:11:43.000Z</time>
      </trkpt>
      <trkpt lat="47.53195" lon="6.70425">
        <ele>402</ele>
        <time>2016-01-03T10:11:44.000Z</time>
      </trkpt>
      <trkpt lat="47.53188" lon="6.70427">
        <ele>401</ele>
        <time>2016-01-03T10:11:45.000Z</time>
      </trkpt>
      <trkpt lat="47.53182" lon="6.70431">
        <ele>401</ele>
        <time>2016-01-03T10:11:46.000Z</time>
      </trkpt>
      <trkpt lat="47.53175" lon="6.70438">
        <ele>401</ele>
        <time>2016-01-03T10:11:47.000Z</time>
      </trkpt>
      <trkpt lat="47.53169" lon="6.70444">
        <ele>401</ele>
        <time>2016-01-03T10:11:48.000Z</time>
      </trkpt>
      <trkpt lat="47.53163" lon="6.70449">
        <ele>395</ele>
        <time>2016-01-03T10:11:49.000Z</time>
      </trkpt>
      <trkpt lat="47.53157" lon="6.70455">
        <ele>395</ele>
        <time>2016-01-03T10:11:50.000Z</time>
      </trkpt>
      <trkpt lat="47.53151" lon="6.70459">
        <ele>395</ele>
        <time>2016-01-03T10:11:51.000Z</time>
      </trkpt>
      <trkpt lat="47.53145" lon="6.70464">
        <ele>394</ele>
        <time>2016-01-03T10:11:52.000Z</time>
      </trkpt>
      <trkpt lat="47.53138" lon="6.70469">
        <ele>394</ele>
        <time>2016-01-03T10:11:53.000Z</time>
      </trkpt>
      <trkpt lat="47.53133" lon="6.70473">
        <ele>394</ele>
        <time>2016-01-03T10:11:54.000Z</time>
      </trkpt>
      <trkpt lat="47.53126" lon="6.70479">
        <ele>394</ele>
        <time>2016-01-03T10:11:55.000Z</time>
      </trkpt>
      <trkpt lat="47.53119" lon="6.70483">
        <ele>393</ele>
        <time>2016-01-03T10:11:56.000Z</time>
      </trkpt>
      <trkpt lat="47.53111" lon="6.70489">
        <ele>392</ele>
        <time>2016-01-03T10:11:57.000Z</time>
      </trkpt>
      <trkpt lat="47.53103" lon="6.70494">
        <ele>392</ele>
        <time>2016-01-03T10:11:58.000Z</time>
      </trkpt>
      <trkpt lat="47.53101" lon="6.70497">
        <ele>392</ele>
        <time>2016-01-03T10:11:59.000Z</time>
      </trkpt>
      <trkpt lat="47.53094" lon="6.70501">
        <ele>393</ele>
        <time>2016-01-03T10:12:00.000Z</time>
      </trkpt>
      <trkpt lat="47.53086" lon="6.70501">
        <ele>391</ele>
        <time>2016-01-03T10:12:01.000Z</time>
      </trkpt>
      <trkpt lat="47.53079" lon="6.70499">
        <ele>388</ele>
        <time>2016-01-03T10:12:02.000Z</time>
      </trkpt>
      <trkpt lat="47.53073" lon="6.70498">
        <ele>385</ele>
        <time>2016-01-03T10:12:03.000Z</time>
      </trkpt>
      <trkpt lat="47.53066" lon="6.70498">
        <ele>383</ele>
        <time>2016-01-03T10:12:04.000Z</time>
      </trkpt>
      <trkpt lat="47.53057" lon="6.70496">
        <ele>381</ele>
        <time>2016-01-03T10:12:05.000Z</time>
      </trkpt>
      <trkpt lat="47.53047" lon="6.70492">
        <ele>379</ele>
        <time>2016-01-03T10:12:06.000Z</time>
      </trkpt>
      <trkpt lat="47.53037" lon="6.70489">
        <ele>378</ele>
        <time>2016-01-03T10:12:07.000Z</time>
      </trkpt>
      <trkpt lat="47.53028" lon="6.70488">
        <ele>377</ele>
        <time>2016-01-03T10:12:08.000Z</time>
      </trkpt>
      <trkpt lat="47.5302" lon="6.70487">
        <ele>376</ele>
        <time>2016-01-03T10:12:09.000Z</time>
      </trkpt>
      <trkpt lat="47.53013" lon="6.70484">
        <ele>375</ele>
        <time>2016-01-03T10:12:10.000Z</time>
      </trkpt>
      <trkpt lat="47.53005" lon="6.70483">
        <ele>375</ele>
        <time>2016-01-03T10:12:11.000Z</time>
      </trkpt>
      <trkpt lat="47.52996" lon="6.70479">
        <ele>367</ele>
        <time>2016-01-03T10:12:12.000Z</time>
      </trkpt>
      <trkpt lat="47.52988" lon="6.70474">
        <ele>366</ele>
        <time>2016-01-03T10:12:13.000Z</time>
      </trkpt>
      <trkpt lat="47.52982" lon="6.70469">
        <ele>365</ele>
        <time>2016-01-03T10:12:14.000Z</time>
      </trkpt>
      <trkpt lat="47.52975" lon="6.70466">
        <ele>365</ele>
        <time>2016-01-03T10:12:15.000Z</time>
      </trkpt>
      <trkpt lat="47.52968" lon="6.70463">
        <ele>364</ele>
        <time>2016-01-03T10:12:16.000Z</time>
      </trkpt>
      <trkpt lat="47.52956" lon="6.7046">
        <ele>363</ele>
        <time>2016-01-03T10:12:17.000Z</time>
      </trkpt>
      <trkpt lat="47.52948" lon="6.70459">
        <ele>362</ele>
        <time>2016-01-03T10:12:18.000Z</time>
      </trkpt>
      <trkpt lat="47.52941" lon="6.70457">
        <ele>362</ele>
        <time>2016-01-03T10:12:19.000Z</time>
      </trkpt>
      <trkpt lat="47.52932" lon="6.70455">
        <ele>361</ele>
        <time>2016-01-03T10:12:20.000Z</time>
      </trkpt>
      <trkpt lat="47.52925" lon="6.70454">
        <ele>361</ele>
        <time>2016-01-03T10:12:21.000Z</time>
      </trkpt>
      <trkpt lat="47.52918" lon="6.70455">
        <ele>360</ele>
        <time>2016-01-03T10:12:22.000Z</time>
      </trkpt>
      <trkpt lat="47.52914" lon="6.70455">
        <ele>354</ele>
        <time>2016-01-03T10:12:23.000Z</time>
      </trkpt>
      <trkpt lat="47.5291" lon="6.70453">
        <ele>354</ele>
        <time>2016-01-03T10:12:24.000Z</time>
      </trkpt>
      <trkpt lat="47.52908" lon="6.70457">
        <ele>354</ele>
        <time>2016-01-03T10:12:31.000Z</time>
      </trkpt>
      <trkpt lat="47.52907" lon="6.70458">
        <ele>354</ele>
        <time>2016-01-03T10:12:32.000Z</time>
      </trkpt>
      <trkpt lat="47.52904" lon="6.70458">
        <ele>354</ele>
        <time>2016-01-03T10:12:34.000Z</time>
      </trkpt>
      <trkpt lat="47.52902" lon="6.70457">
        <ele>354</ele>
        <time>2016-01-03T10:12:35.000Z</time>
      </trkpt>
      <trkpt lat="47.52899" lon="6.70457">
        <ele>353</ele>
        <time>2016-01-03T10:12:36.000Z</time>
      </trkpt>
      <trkpt lat="47.52897" lon="6.70456">
        <ele>353</ele>
        <time>2016-01-03T10:12:37.000Z</time>
      </trkpt>
      <trkpt lat="47.52894" lon="6.70455">
        <ele>353</ele>
        <time>2016-01-03T10:12:38.000Z</time>
      </trkpt>
      <trkpt lat="47.52891" lon="6.70453">
        <ele>353</ele>
        <time>2016-01-03T10:12:39.000Z</time>
      </trkpt>
      <trkpt lat="47.52889" lon="6.70452">
        <ele>353</ele>
        <time>2016-01-03T10:12:40.000Z</time>
      </trkpt>
      <trkpt lat="47.52886" lon="6.7045">
        <ele>352</ele>
        <time>2016-01-03T10:12:41.000Z</time>
      </trkpt>
      <trkpt lat="47.52882" lon="6.70448">
        <ele>352</ele>
        <time>2016-01-03T10:12:42.000Z</time>
      </trkpt>
      <trkpt lat="47.52878" lon="6.70446">
        <ele>352</ele>
        <time>2016-01-03T10:12:43.000Z</time>
      </trkpt>
      <trkpt lat="47.52873" lon="6.70445">
        <ele>352</ele>
        <time>2016-01-03T10:12:44.000Z</time>
      </trkpt>
      <trkpt lat="47.52868" lon="6.70444">
        <ele>351</ele>
        <time>2016-01-03T10:12:45.000Z</time>
      </trkpt>
      <trkpt lat="47.52864" lon="6.70444">
        <ele>351</ele>
        <time>2016-01-03T10:12:46.000Z</time>
      </trkpt>
      <trkpt lat="47.52859" lon="6.70443">
        <ele>351</ele>
        <time>2016-01-03T10:12:47.000Z</time>
      </trkpt>
      <trkpt lat="47.52855" lon="6.70443">
        <ele>351</ele>
        <time>2016-01-03T10:12:48.000Z</time>
      </trkpt>
      <trkpt lat="47.52852" lon="6.70442">
        <ele>350</ele>
        <time>2016-01-03T10:12:49.000Z</time>
      </trkpt>
      <trkpt lat="47.52848" lon="6.70442">
        <ele>350</ele>
        <time>2016-01-03T10:12:50.000Z</time>
      </trkpt>
      <trkpt lat="47.52845" lon="6.70442">
        <ele>350</ele>
        <time>2016-01-03T10:12:51.000Z</time>
      </trkpt>
      <trkpt lat="47.52842" lon="6.70442">
        <ele>350</ele>
        <time>2016-01-03T10:12:52.000Z</time>
      </trkpt>
      <trkpt lat="47.52838" lon="6.70441">
        <ele>350</ele>
        <time>2016-01-03T10:12:54.000Z</time>
      </trkpt>
      <trkpt lat="47.52837" lon="6.70441">
        <ele>350</ele>
        <time>2016-01-03T10:12:55.000Z</time>
      </trkpt>
      <trkpt lat="47.52834" lon="6.70443">
        <ele>350</ele>
        <time>2016-01-03T10:12:57.000Z</time>
      </trkpt>
      <trkpt lat="47.52833" lon="6.70446">
        <ele>346</ele>
        <time>2016-01-03T10:12:58.000Z</time>
      </trkpt>
      <trkpt lat="47.52834" lon="6.70452">
        <ele>350</ele>
        <time>2016-01-03T10:13:01.000Z</time>
      </trkpt>
      <trkpt lat="47.52835" lon="6.70454">
        <ele>350</ele>
        <time>2016-01-03T10:13:02.000Z</time>
      </trkpt>
      <trkpt lat="47.52839" lon="6.70453">
        <ele>350</ele>
        <time>2016-01-03T10:14:00.000Z</time>
      </trkpt>
      <trkpt lat="47.5284" lon="6.70452">
        <ele>350</ele>
        <time>2016-01-03T10:14:01.000Z</time>
      </trkpt>
      <trkpt lat="47.52841" lon="6.70457">
        <ele>351</ele>
        <time>2016-01-03T10:14:21.000Z</time>
      </trkpt>
      <trkpt lat="47.52841" lon="6.7046">
        <ele>351</ele>
        <time>2016-01-03T10:14:22.000Z</time>
      </trkpt>
      <trkpt lat="47.52842" lon="6.70464">
        <ele>351</ele>
        <time>2016-01-03T10:14:23.000Z</time>
      </trkpt>
      <trkpt lat="47.52843" lon="6.70467">
        <ele>351</ele>
        <time>2016-01-03T10:14:24.000Z</time>
      </trkpt>
      <trkpt lat="47.52845" lon="6.70472">
        <ele>351</ele>
        <time>2016-01-03T10:14:25.000Z</time>
      </trkpt>
      <trkpt lat="47.52846" lon="6.70477">
        <ele>351</ele>
        <time>2016-01-03T10:14:26.000Z</time>
      </trkpt>
      <trkpt lat="47.52847" lon="6.70482">
        <ele>351</ele>
        <time>2016-01-03T10:14:27.000Z</time>
      </trkpt>
      <trkpt lat="47.52849" lon="6.70488">
        <ele>351</ele>
        <time>2016-01-03T10:14:28.000Z</time>
      </trkpt>
      <trkpt lat="47.5285" lon="6.70493">
        <ele>351</ele>
        <time>2016-01-03T10:14:29.000Z</time>
      </trkpt>
      <trkpt lat="47.52851" lon="6.70498">
        <ele>351</ele>
        <time>2016-01-03T10:14:30.000Z</time>
      </trkpt>
      <trkpt lat="47.52852" lon="6.70504">
        <ele>353</ele>
        <time>2016-01-03T10:14:31.000Z</time>
      </trkpt>
      <trkpt lat="47.52853" lon="6.70509">
        <ele>354</ele>
        <time>2016-01-03T10:14:32.000Z</time>
      </trkpt>
      <trkpt lat="47.52854" lon="6.70514">
        <ele>354</ele>
        <time>2016-01-03T10:14:33.000Z</time>
      </trkpt>
      <trkpt lat="47.52855" lon="6.7052">
        <ele>355</ele>
        <time>2016-01-03T10:14:34.000Z</time>
      </trkpt>
      <trkpt lat="47.52856" lon="6.70525">
        <ele>355</ele>
        <time>2016-01-03T10:14:35.000Z</time>
      </trkpt>
      <trkpt lat="47.52856" lon="6.7053">
        <ele>355</ele>
        <time>2016-01-03T10:14:36.000Z</time>
      </trkpt>
      <trkpt lat="47.52856" lon="6.70535">
        <ele>355</ele>
        <time>2016-01-03T10:14:37.000Z</time>
      </trkpt>
      <trkpt lat="47.52856" lon="6.7054">
        <ele>355</ele>
        <time>2016-01-03T10:14:38.000Z</time>
      </trkpt>
      <trkpt lat="47.52857" lon="6.70543">
        <ele>355</ele>
        <time>2016-01-03T10:14:39.000Z</time>
      </trkpt>
      <trkpt lat="47.52857" lon="6.70548">
        <ele>356</ele>
        <time>2016-01-03T10:14:40.000Z</time>
      </trkpt>
      <trkpt lat="47.52857" lon="6.70552">
        <ele>356</ele>
        <time>2016-01-03T10:14:41.000Z</time>
      </trkpt>
      <trkpt lat="47.52857" lon="6.70557">
        <ele>355</ele>
        <time>2016-01-03T10:14:42.000Z</time>
      </trkpt>
      <trkpt lat="47.52856" lon="6.70562">
        <ele>355</ele>
        <time>2016-01-03T10:14:43.000Z</time>
      </trkpt>
      <trkpt lat="47.52854" lon="6.70566">
        <ele>355</ele>
        <time>2016-01-03T10:14:44.000Z</time>
      </trkpt>
      <trkpt lat="47.52851" lon="6.70568">
        <ele>354</ele>
        <time>2016-01-03T10:14:45.000Z</time>
      </trkpt>
      <trkpt lat="47.52847" lon="6.7057">
        <ele>354</ele>
        <time>2016-01-03T10:14:46.000Z</time>
      </trkpt>
      <trkpt lat="47.52836" lon="6.70565">
        <ele>353</ele>
        <time>2016-01-03T10:14:47.000Z</time>
      </trkpt>
      <trkpt lat="47.52829" lon="6.70564">
        <ele>349</ele>
        <time>2016-01-03T10:14:48.000Z</time>
      </trkpt>
      <trkpt lat="47.52824" lon="6.70561">
        <ele>349</ele>
        <time>2016-01-03T10:14:49.000Z</time>
      </trkpt>
      <trkpt lat="47.52819" lon="6.70558">
        <ele>349</ele>
        <time>2016-01-03T10:14:50.000Z</time>
      </trkpt>
      <trkpt lat="47.52815" lon="6.70557">
        <ele>349</ele>
        <time>2016-01-03T10:14:51.000Z</time>
      </trkpt>
      <trkpt lat="47.52812" lon="6.70554">
        <ele>349</ele>
        <time>2016-01-03T10:14:52.000Z</time>
      </trkpt>
      <trkpt lat="47.5281" lon="6.70549">
        <ele>348</ele>
        <time>2016-01-03T10:14:54.000Z</time>
      </trkpt>
      <trkpt lat="47.52808" lon="6.70549">
        <ele>348</ele>
        <time>2016-01-03T10:14:55.000Z</time>
      </trkpt>
      <trkpt lat="47.52803" lon="6.70548">
        <ele>348</ele>
        <time>2016-01-03T10:14:57.000Z</time>
      </trkpt>
      <trkpt lat="47.528" lon="6.70548">
        <ele>348</ele>
        <time>2016-01-03T10:14:58.000Z</time>
      </trkpt>
      <trkpt lat="47.52798" lon="6.70547">
        <ele>348</ele>
        <time>2016-01-03T10:14:59.000Z</time>
      </trkpt>
      <trkpt lat="47.52796" lon="6.70547">
        <ele>348</ele>
        <time>2016-01-03T10:15:00.000Z</time>
      </trkpt>
      <trkpt lat="47.52792" lon="6.70549">
        <ele>348</ele>
        <time>2016-01-03T10:15:02.000Z</time>
      </trkpt>
      <trkpt lat="47.52791" lon="6.7055">
        <ele>348</ele>
        <time>2016-01-03T10:15:03.000Z</time>
      </trkpt>
      <trkpt lat="47.5279" lon="6.70557">
        <ele>348</ele>
        <time>2016-01-03T10:15:05.000Z</time>
      </trkpt>
      <trkpt lat="47.5279" lon="6.70561">
        <ele>348</ele>
        <time>2016-01-03T10:15:06.000Z</time>
      </trkpt>
      <trkpt lat="47.52791" lon="6.70566">
        <ele>348</ele>
        <time>2016-01-03T10:15:07.000Z</time>
      </trkpt>
      <trkpt lat="47.52791" lon="6.7057">
        <ele>348</ele>
        <time>2016-01-03T10:15:08.000Z</time>
      </trkpt>
      <trkpt lat="47.52791" lon="6.70574">
        <ele>348</ele>
        <time>2016-01-03T10:15:09.000Z</time>
      </trkpt>
      <trkpt lat="47.52791" lon="6.70578">
        <ele>348</ele>
        <time>2016-01-03T10:15:10.000Z</time>
      </trkpt>
      <trkpt lat="47.52789" lon="6.70583">
        <ele>348</ele>
        <time>2016-01-03T10:15:12.000Z</time>
      </trkpt>
      <trkpt lat="47.52788" lon="6.70585">
        <ele>350</ele>
        <time>2016-01-03T10:15:13.000Z</time>
      </trkpt>
      <trkpt lat="47.52786" lon="6.70589">
        <ele>350</ele>
        <time>2016-01-03T10:15:15.000Z</time>
      </trkpt>
      <trkpt lat="47.52784" lon="6.70591">
        <ele>350</ele>
        <time>2016-01-03T10:15:16.000Z</time>
      </trkpt>
      <trkpt lat="47.52782" lon="6.70592">
        <ele>350</ele>
        <time>2016-01-03T10:15:17.000Z</time>
      </trkpt>
      <trkpt lat="47.52779" lon="6.70591">
        <ele>350</ele>
        <time>2016-01-03T10:15:18.000Z</time>
      </trkpt>
      <trkpt lat="47.52775" lon="6.70591">
        <ele>350</ele>
        <time>2016-01-03T10:15:19.000Z</time>
      </trkpt>
      <trkpt lat="47.52771" lon="6.70591">
        <ele>350</ele>
        <time>2016-01-03T10:15:20.000Z</time>
      </trkpt>
      <trkpt lat="47.52766" lon="6.7059">
        <ele>350</ele>
        <time>2016-01-03T10:15:21.000Z</time>
      </trkpt>
      <trkpt lat="47.52762" lon="6.7059">
        <ele>349</ele>
        <time>2016-01-03T10:15:22.000Z</time>
      </trkpt>
      <trkpt lat="47.52759" lon="6.70589">
        <ele>349</ele>
        <time>2016-01-03T10:15:23.000Z</time>
      </trkpt>
      <trkpt lat="47.52756" lon="6.70589">
        <ele>349</ele>
        <time>2016-01-03T10:15:24.000Z</time>
      </trkpt>
      <trkpt lat="47.52753" lon="6.7059">
        <ele>349</ele>
        <time>2016-01-03T10:15:25.000Z</time>
      </trkpt>
      <trkpt lat="47.5275" lon="6.70592">
        <ele>349</ele>
        <time>2016-01-03T10:15:26.000Z</time>
      </trkpt>
      <trkpt lat="47.52748" lon="6.70594">
        <ele>353</ele>
        <time>2016-01-03T10:15:27.000Z</time>
      </trkpt>
      <trkpt lat="47.52747" lon="6.70598">
        <ele>354</ele>
        <time>2016-01-03T10:15:28.000Z</time>
      </trkpt>
      <trkpt lat="47.52747" lon="6.70603">
        <ele>355</ele>
        <time>2016-01-03T10:15:29.000Z</time>
      </trkpt>
      <trkpt lat="47.52748" lon="6.70609">
        <ele>356</ele>
        <time>2016-01-03T10:15:30.000Z</time>
      </trkpt>
      <trkpt lat="47.5275" lon="6.70615">
        <ele>350</ele>
        <time>2016-01-03T10:15:31.000Z</time>
      </trkpt>
      <trkpt lat="47.52752" lon="6.70622">
        <ele>351</ele>
        <time>2016-01-03T10:15:32.000Z</time>
      </trkpt>
      <trkpt lat="47.52753" lon="6.70629">
        <ele>351</ele>
        <time>2016-01-03T10:15:33.000Z</time>
      </trkpt>
      <trkpt lat="47.52754" lon="6.70636">
        <ele>352</ele>
        <time>2016-01-03T10:15:34.000Z</time>
      </trkpt>
      <trkpt lat="47.52755" lon="6.70643">
        <ele>352</ele>
        <time>2016-01-03T10:15:35.000Z</time>
      </trkpt>
      <trkpt lat="47.52755" lon="6.70649">
        <ele>352</ele>
        <time>2016-01-03T10:15:36.000Z</time>
      </trkpt>
      <trkpt lat="47.52756" lon="6.70656">
        <ele>353</ele>
        <time>2016-01-03T10:15:37.000Z</time>
      </trkpt>
      <trkpt lat="47.52756" lon="6.70662">
        <ele>353</ele>
        <time>2016-01-03T10:15:38.000Z</time>
      </trkpt>
      <trkpt lat="47.52757" lon="6.70669">
        <ele>354</ele>
        <time>2016-01-03T10:15:39.000Z</time>
      </trkpt>
      <trkpt lat="47.52757" lon="6.70675">
        <ele>354</ele>
        <time>2016-01-03T10:15:40.000Z</time>
      </trkpt>
      <trkpt lat="47.52757" lon="6.70681">
        <ele>354</ele>
        <time>2016-01-03T10:15:41.000Z</time>
      </trkpt>
      <trkpt lat="47.52757" lon="6.70686">
        <ele>354</ele>
        <time>2016-01-03T10:15:42.000Z</time>
      </trkpt>
      <trkpt lat="47.52758" lon="6.70691">
        <ele>354</ele>
        <time>2016-01-03T10:15:43.000Z</time>
      </trkpt>
      <trkpt lat="47.52758" lon="6.70695">
        <ele>354</ele>
        <time>2016-01-03T10:15:44.000Z</time>
      </trkpt>
      <trkpt lat="47.52759" lon="6.70699">
        <ele>354</ele>
        <time>2016-01-03T10:15:45.000Z</time>
      </trkpt>
      <trkpt lat="47.52759" lon="6.70704">
        <ele>354</ele>
        <time>2016-01-03T10:15:46.000Z</time>
      </trkpt>
      <trkpt lat="47.52759" lon="6.7071">
        <ele>354</ele>
        <time>2016-01-03T10:15:47.000Z</time>
      </trkpt>
      <trkpt lat="47.52758" lon="6.70715">
        <ele>354</ele>
        <time>2016-01-03T10:15:48.000Z</time>
      </trkpt>
      <trkpt lat="47.52757" lon="6.70721">
        <ele>354</ele>
        <time>2016-01-03T10:15:49.000Z</time>
      </trkpt>
      <trkpt lat="47.52756" lon="6.70727">
        <ele>355</ele>
        <time>2016-01-03T10:15:50.000Z</time>
      </trkpt>
      <trkpt lat="47.52755" lon="6.70733">
        <ele>355</ele>
        <time>2016-01-03T10:15:51.000Z</time>
      </trkpt>
      <trkpt lat="47.52754" lon="6.70739">
        <ele>355</ele>
        <time>2016-01-03T10:15:52.000Z</time>
      </trkpt>
      <trkpt lat="47.52754" lon="6.70744">
        <ele>355</ele>
        <time>2016-01-03T10:15:53.000Z</time>
      </trkpt>
      <trkpt lat="47.52754" lon="6.7075">
        <ele>356</ele>
        <time>2016-01-03T10:15:54.000Z</time>
      </trkpt>
      <trkpt lat="47.52754" lon="6.70756">
        <ele>356</ele>
        <time>2016-01-03T10:15:55.000Z</time>
      </trkpt>
      <trkpt lat="47.52754" lon="6.70761">
        <ele>355</ele>
        <time>2016-01-03T10:15:56.000Z</time>
      </trkpt>
      <trkpt lat="47.52754" lon="6.70766">
        <ele>355</ele>
        <time>2016-01-03T10:15:57.000Z</time>
      </trkpt>
      <trkpt lat="47.52754" lon="6.70771">
        <ele>355</ele>
        <time>2016-01-03T10:15:58.000Z</time>
      </trkpt>
      <trkpt lat="47.52754" lon="6.70775">
        <ele>355</ele>
        <time>2016-01-03T10:15:59.000Z</time>
      </trkpt>
      <trkpt lat="47.52754" lon="6.70781">
        <ele>355</ele>
        <time>2016-01-03T10:16:00.000Z</time>
      </trkpt>
      <trkpt lat="47.52753" lon="6.70786">
        <ele>355</ele>
        <time>2016-01-03T10:16:01.000Z</time>
      </trkpt>
      <trkpt lat="47.52753" lon="6.70792">
        <ele>355</ele>
        <time>2016-01-03T10:16:02.000Z</time>
      </trkpt>
      <trkpt lat="47.52752" lon="6.70797">
        <ele>355</ele>
        <time>2016-01-03T10:16:03.000Z</time>
      </trkpt>
      <trkpt lat="47.52752" lon="6.70803">
        <ele>354</ele>
        <time>2016-01-03T10:16:04.000Z</time>
      </trkpt>
      <trkpt lat="47.52752" lon="6.70808">
        <ele>354</ele>
        <time>2016-01-03T10:16:05.000Z</time>
      </trkpt>
      <trkpt lat="47.52752" lon="6.70814">
        <ele>354</ele>
        <time>2016-01-03T10:16:06.000Z</time>
      </trkpt>
      <trkpt lat="47.52752" lon="6.7082">
        <ele>354</ele>
        <time>2016-01-03T10:16:07.000Z</time>
      </trkpt>
      <trkpt lat="47.52752" lon="6.70826">
        <ele>354</ele>
        <time>2016-01-03T10:16:08.000Z</time>
      </trkpt>
      <trkpt lat="47.52751" lon="6.70831">
        <ele>353</ele>
        <time>2016-01-03T10:16:09.000Z</time>
      </trkpt>
      <trkpt lat="47.52751" lon="6.70837">
        <ele>353</ele>
        <time>2016-01-03T10:16:10.000Z</time>
      </trkpt>
      <trkpt lat="47.5275" lon="6.70843">
        <ele>353</ele>
        <time>2016-01-03T10:16:11.000Z</time>
      </trkpt>
      <trkpt lat="47.5275" lon="6.7085">
        <ele>357</ele>
        <time>2016-01-03T10:16:12.000Z</time>
      </trkpt>
      <trkpt lat="47.52749" lon="6.70856">
        <ele>358</ele>
        <time>2016-01-03T10:16:13.000Z</time>
      </trkpt>
      <trkpt lat="47.52749" lon="6.70862">
        <ele>359</ele>
        <time>2016-01-03T10:16:14.000Z</time>
      </trkpt>
      <trkpt lat="47.52749" lon="6.70869">
        <ele>359</ele>
        <time>2016-01-03T10:16:15.000Z</time>
      </trkpt>
      <trkpt lat="47.52748" lon="6.70875">
        <ele>359</ele>
        <time>2016-01-03T10:16:16.000Z</time>
      </trkpt>
      <trkpt lat="47.52747" lon="6.70882">
        <ele>359</ele>
        <time>2016-01-03T10:16:17.000Z</time>
      </trkpt>
      <trkpt lat="47.52747" lon="6.70888">
        <ele>359</ele>
        <time>2016-01-03T10:16:18.000Z</time>
      </trkpt>
      <trkpt lat="47.52743" lon="6.70897">
        <ele>358</ele>
        <time>2016-01-03T10:16:19.000Z</time>
      </trkpt>
      <trkpt lat="47.52742" lon="6.70904">
        <ele>357</ele>
        <time>2016-01-03T10:16:20.000Z</time>
      </trkpt>
      <trkpt lat="47.52741" lon="6.70909">
        <ele>356</ele>
        <time>2016-01-03T10:16:21.000Z</time>
      </trkpt>
      <trkpt lat="47.52742" lon="6.70914">
        <ele>355</ele>
        <time>2016-01-03T10:16:22.000Z</time>
      </trkpt>
      <trkpt lat="47.52742" lon="6.70919">
        <ele>355</ele>
        <time>2016-01-03T10:16:23.000Z</time>
      </trkpt>
      <trkpt lat="47.52738" lon="6.70926">
        <ele>356</ele>
        <time>2016-01-03T10:16:24.000Z</time>
      </trkpt>
      <trkpt lat="47.52739" lon="6.70932">
        <ele>357</ele>
        <time>2016-01-03T10:16:25.000Z</time>
      </trkpt>
      <trkpt lat="47.52738" lon="6.70938">
        <ele>358</ele>
        <time>2016-01-03T10:16:26.000Z</time>
      </trkpt>
      <trkpt lat="47.52738" lon="6.70945">
        <ele>359</ele>
        <time>2016-01-03T10:16:27.000Z</time>
      </trkpt>
      <trkpt lat="47.52738" lon="6.70953">
        <ele>359</ele>
        <time>2016-01-03T10:16:28.000Z</time>
      </trkpt>
      <trkpt lat="47.52738" lon="6.70959">
        <ele>359</ele>
        <time>2016-01-03T10:16:29.000Z</time>
      </trkpt>
      <trkpt lat="47.52739" lon="6.70965">
        <ele>359</ele>
        <time>2016-01-03T10:16:30.000Z</time>
      </trkpt>
      <trkpt lat="47.52739" lon="6.70971">
        <ele>359</ele>
        <time>2016-01-03T10:16:31.000Z</time>
      </trkpt>
      <trkpt lat="47.5274" lon="6.70977">
        <ele>358</ele>
        <time>2016-01-03T10:16:32.000Z</time>
      </trkpt>
      <trkpt lat="47.52741" lon="6.70983">
        <ele>358</ele>
        <time>2016-01-03T10:16:33.000Z</time>
      </trkpt>
      <trkpt lat="47.52743" lon="6.70989">
        <ele>356</ele>
        <time>2016-01-03T10:16:34.000Z</time>
      </trkpt>
      <trkpt lat="47.52745" lon="6.70995">
        <ele>355</ele>
        <time>2016-01-03T10:16:35.000Z</time>
      </trkpt>
      <trkpt lat="47.52747" lon="6.71">
        <ele>353</ele>
        <time>2016-01-03T10:16:36.000Z</time>
      </trkpt>
      <trkpt lat="47.5275" lon="6.71006">
        <ele>353</ele>
        <time>2016-01-03T10:16:37.000Z</time>
      </trkpt>
      <trkpt lat="47.52753" lon="6.71011">
        <ele>353</ele>
        <time>2016-01-03T10:16:38.000Z</time>
      </trkpt>
      <trkpt lat="47.52756" lon="6.71016">
        <ele>353</ele>
        <time>2016-01-03T10:16:39.000Z</time>
      </trkpt>
      <trkpt lat="47.52759" lon="6.71021">
        <ele>354</ele>
        <time>2016-01-03T10:16:40.000Z</time>
      </trkpt>
      <trkpt lat="47.52761" lon="6.71027">
        <ele>354</ele>
        <time>2016-01-03T10:16:41.000Z</time>
      </trkpt>
      <trkpt lat="47.52762" lon="6.71032">
        <ele>354</ele>
        <time>2016-01-03T10:16:42.000Z</time>
      </trkpt>
      <trkpt lat="47.52762" lon="6.71038">
        <ele>354</ele>
        <time>2016-01-03T10:16:43.000Z</time>
      </trkpt>
      <trkpt lat="47.52762" lon="6.71043">
        <ele>354</ele>
        <time>2016-01-03T10:16:44.000Z</time>
      </trkpt>
      <trkpt lat="47.52761" lon="6.71048">
        <ele>354</ele>
        <time>2016-01-03T10:16:45.000Z</time>
      </trkpt>
      <trkpt lat="47.52759" lon="6.71053">
        <ele>354</ele>
        <time>2016-01-03T10:16:46.000Z</time>
      </trkpt>
      <trkpt lat="47.52757" lon="6.71059">
        <ele>354</ele>
        <time>2016-01-03T10:16:47.000Z</time>
      </trkpt>
      <trkpt lat="47.52755" lon="6.71065">
        <ele>354</ele>
        <time>2016-01-03T10:16:48.000Z</time>
      </trkpt>
      <trkpt lat="47.52753" lon="6.71071">
        <ele>354</ele>
        <time>2016-01-03T10:16:49.000Z</time>
      </trkpt>
      <trkpt lat="47.52752" lon="6.71076">
        <ele>354</ele>
        <time>2016-01-03T10:16:50.000Z</time>
      </trkpt>
      <trkpt lat="47.52751" lon="6.71081">
        <ele>354</ele>
        <time>2016-01-03T10:16:51.000Z</time>
      </trkpt>
      <trkpt lat="47.52752" lon="6.71085">
        <ele>354</ele>
        <time>2016-01-03T10:16:52.000Z</time>
      </trkpt>
      <trkpt lat="47.52752" lon="6.71088">
        <ele>354</ele>
        <time>2016-01-03T10:16:53.000Z</time>
      </trkpt>
      <trkpt lat="47.52753" lon="6.71094">
        <ele>354</ele>
        <time>2016-01-03T10:16:55.000Z</time>
      </trkpt>
      <trkpt lat="47.52753" lon="6.71097">
        <ele>354</ele>
        <time>2016-01-03T10:16:56.000Z</time>
      </trkpt>
      <trkpt lat="47.52754" lon="6.71102">
        <ele>355</ele>
        <time>2016-01-03T10:16:58.000Z</time>
      </trkpt>
      <trkpt lat="47.52754" lon="6.71105">
        <ele>355</ele>
        <time>2016-01-03T10:16:59.000Z</time>
      </trkpt>
      <trkpt lat="47.52755" lon="6.71111">
        <ele>355</ele>
        <time>2016-01-03T10:17:01.000Z</time>
      </trkpt>
      <trkpt lat="47.52755" lon="6.71113">
        <ele>355</ele>
        <time>2016-01-03T10:17:02.000Z</time>
      </trkpt>
      <trkpt lat="47.52755" lon="6.71118">
        <ele>355</ele>
        <time>2016-01-03T10:17:04.000Z</time>
      </trkpt>
      <trkpt lat="47.52755" lon="6.7112">
        <ele>355</ele>
        <time>2016-01-03T10:17:05.000Z</time>
      </trkpt>
      <trkpt lat="47.52754" lon="6.71125">
        <ele>355</ele>
        <time>2016-01-03T10:17:07.000Z</time>
      </trkpt>
      <trkpt lat="47.52754" lon="6.71128">
        <ele>355</ele>
        <time>2016-01-03T10:17:08.000Z</time>
      </trkpt>
      <trkpt lat="47.52753" lon="6.71133">
        <ele>356</ele>
        <time>2016-01-03T10:17:10.000Z</time>
      </trkpt>
      <trkpt lat="47.52752" lon="6.71135">
        <ele>356</ele>
        <time>2016-01-03T10:17:11.000Z</time>
      </trkpt>
      <trkpt lat="47.52752" lon="6.71139">
        <ele>356</ele>
        <time>2016-01-03T10:17:13.000Z</time>
      </trkpt>
      <trkpt lat="47.52751" lon="6.71142">
        <ele>356</ele>
        <time>2016-01-03T10:17:14.000Z</time>
      </trkpt>
      <trkpt lat="47.5275" lon="6.71146">
        <ele>360</ele>
        <time>2016-01-03T10:17:16.000Z</time>
      </trkpt>
      <trkpt lat="47.52749" lon="6.71148">
        <ele>360</ele>
        <time>2016-01-03T10:17:17.000Z</time>
      </trkpt>
      <trkpt lat="47.52747" lon="6.71153">
        <ele>360</ele>
        <time>2016-01-03T10:17:19.000Z</time>
      </trkpt>
      <trkpt lat="47.52746" lon="6.71155">
        <ele>360</ele>
        <time>2016-01-03T10:17:20.000Z</time>
      </trkpt>
      <trkpt lat="47.52743" lon="6.71159">
        <ele>360</ele>
        <time>2016-01-03T10:17:22.000Z</time>
      </trkpt>
      <trkpt lat="47.52741" lon="6.71161">
        <ele>360</ele>
        <time>2016-01-03T10:17:23.000Z</time>
      </trkpt>
      <trkpt lat="47.52739" lon="6.71163">
        <ele>360</ele>
        <time>2016-01-03T10:17:25.000Z</time>
      </trkpt>
      <trkpt lat="47.52737" lon="6.71165">
        <ele>360</ele>
        <time>2016-01-03T10:17:26.000Z</time>
      </trkpt>
      <trkpt lat="47.52734" lon="6.71167">
        <ele>360</ele>
        <time>2016-01-03T10:17:28.000Z</time>
      </trkpt>
      <trkpt lat="47.52733" lon="6.71169">
        <ele>360</ele>
        <time>2016-01-03T10:17:29.000Z</time>
      </trkpt>
      <trkpt lat="47.5273" lon="6.71171">
        <ele>360</ele>
        <time>2016-01-03T10:17:31.000Z</time>
      </trkpt>
      <trkpt lat="47.52728" lon="6.71172">
        <ele>361</ele>
        <time>2016-01-03T10:17:32.000Z</time>
      </trkpt>
      <trkpt lat="47.52725" lon="6.71174">
        <ele>361</ele>
        <time>2016-01-03T10:17:34.000Z</time>
      </trkpt>
      <trkpt lat="47.52724" lon="6.71175">
        <ele>361</ele>
        <time>2016-01-03T10:17:35.000Z</time>
      </trkpt>
      <trkpt lat="47.52721" lon="6.71178">
        <ele>361</ele>
        <time>2016-01-03T10:17:37.000Z</time>
      </trkpt>
      <trkpt lat="47.5272" lon="6.71179">
        <ele>361</ele>
        <time>2016-01-03T10:17:38.000Z</time>
      </trkpt>
      <trkpt lat="47.52717" lon="6.71184">
        <ele>361</ele>
        <time>2016-01-03T10:17:41.000Z</time>
      </trkpt>
      <trkpt lat="47.52717" lon="6.71186">
        <ele>361</ele>
        <time>2016-01-03T10:17:42.000Z</time>
      </trkpt>
      <trkpt lat="47.52715" lon="6.7119">
        <ele>361</ele>
        <time>2016-01-03T10:17:44.000Z</time>
      </trkpt>
      <trkpt lat="47.52715" lon="6.71193">
        <ele>361</ele>
        <time>2016-01-03T10:17:45.000Z</time>
      </trkpt>
      <trkpt lat="47.52712" lon="6.71197">
        <ele>361</ele>
        <time>2016-01-03T10:17:47.000Z</time>
      </trkpt>
      <trkpt lat="47.52711" lon="6.71199">
        <ele>361</ele>
        <time>2016-01-03T10:17:48.000Z</time>
      </trkpt>
      <trkpt lat="47.52711" lon="6.71204">
        <ele>361</ele>
        <time>2016-01-03T10:17:49.000Z</time>
      </trkpt>
      <trkpt lat="47.52712" lon="6.71211">
        <ele>361</ele>
        <time>2016-01-03T10:17:50.000Z</time>
      </trkpt>
      <trkpt lat="47.52716" lon="6.71229">
        <ele>361</ele>
        <time>2016-01-03T10:17:51.000Z</time>
      </trkpt>
      <trkpt lat="47.52717" lon="6.71236">
        <ele>361</ele>
        <time>2016-01-03T10:17:52.000Z</time>
      </trkpt>
      <trkpt lat="47.52718" lon="6.71243">
        <ele>361</ele>
        <time>2016-01-03T10:17:53.000Z</time>
      </trkpt>
      <trkpt lat="47.52719" lon="6.71251">
        <ele>364</ele>
        <time>2016-01-03T10:17:54.000Z</time>
      </trkpt>
      <trkpt lat="47.52719" lon="6.71258">
        <ele>364</ele>
        <time>2016-01-03T10:17:55.000Z</time>
      </trkpt>
      <trkpt lat="47.5272" lon="6.71264">
        <ele>364</ele>
        <time>2016-01-03T10:17:56.000Z</time>
      </trkpt>
      <trkpt lat="47.52719" lon="6.71269">
        <ele>364</ele>
        <time>2016-01-03T10:17:57.000Z</time>
      </trkpt>
      <trkpt lat="47.52716" lon="6.71275">
        <ele>365</ele>
        <time>2016-01-03T10:17:58.000Z</time>
      </trkpt>
      <trkpt lat="47.52712" lon="6.71276">
        <ele>365</ele>
        <time>2016-01-03T10:17:59.000Z</time>
      </trkpt>
      <trkpt lat="47.52709" lon="6.71277">
        <ele>365</ele>
        <time>2016-01-03T10:18:00.000Z</time>
      </trkpt>
      <trkpt lat="47.52706" lon="6.71277">
        <ele>365</ele>
        <time>2016-01-03T10:18:01.000Z</time>
      </trkpt>
      <trkpt lat="47.52703" lon="6.71277">
        <ele>365</ele>
        <time>2016-01-03T10:18:02.000Z</time>
      </trkpt>
      <trkpt lat="47.527" lon="6.71276">
        <ele>364</ele>
        <time>2016-01-03T10:18:03.000Z</time>
      </trkpt>
      <trkpt lat="47.52697" lon="6.71275">
        <ele>364</ele>
        <time>2016-01-03T10:18:04.000Z</time>
      </trkpt>
      <trkpt lat="47.52695" lon="6.71275">
        <ele>364</ele>
        <time>2016-01-03T10:18:05.000Z</time>
      </trkpt>
      <trkpt lat="47.52692" lon="6.71275">
        <ele>364</ele>
        <time>2016-01-03T10:18:06.000Z</time>
      </trkpt>
      <trkpt lat="47.5269" lon="6.71274">
        <ele>364</ele>
        <time>2016-01-03T10:18:07.000Z</time>
      </trkpt>
      <trkpt lat="47.52687" lon="6.71275">
        <ele>364</ele>
        <time>2016-01-03T10:18:08.000Z</time>
      </trkpt>
      <trkpt lat="47.52684" lon="6.71275">
        <ele>364</ele>
        <time>2016-01-03T10:18:09.000Z</time>
      </trkpt>
      <trkpt lat="47.5268" lon="6.71275">
        <ele>364</ele>
        <time>2016-01-03T10:18:10.000Z</time>
      </trkpt>
      <trkpt lat="47.52677" lon="6.71275">
        <ele>364</ele>
        <time>2016-01-03T10:18:11.000Z</time>
      </trkpt>
      <trkpt lat="47.52673" lon="6.71274">
        <ele>364</ele>
        <time>2016-01-03T10:18:12.000Z</time>
      </trkpt>
      <trkpt lat="47.5267" lon="6.71274">
        <ele>364</ele>
        <time>2016-01-03T10:18:13.000Z</time>
      </trkpt>
      <trkpt lat="47.52667" lon="6.71274">
        <ele>364</ele>
        <time>2016-01-03T10:18:14.000Z</time>
      </trkpt>
      <trkpt lat="47.52663" lon="6.71275">
        <ele>364</ele>
        <time>2016-01-03T10:18:15.000Z</time>
      </trkpt>
      <trkpt lat="47.5266" lon="6.71275">
        <ele>364</ele>
        <time>2016-01-03T10:18:16.000Z</time>
      </trkpt>
      <trkpt lat="47.52656" lon="6.71275">
        <ele>364</ele>
        <time>2016-01-03T10:18:17.000Z</time>
      </trkpt>
      <trkpt lat="47.52653" lon="6.71276">
        <ele>364</ele>
        <time>2016-01-03T10:18:18.000Z</time>
      </trkpt>
      <trkpt lat="47.52649" lon="6.71275">
        <ele>364</ele>
        <time>2016-01-03T10:18:19.000Z</time>
      </trkpt>
      <trkpt lat="47.52646" lon="6.71276">
        <ele>364</ele>
        <time>2016-01-03T10:18:20.000Z</time>
      </trkpt>
      <trkpt lat="47.52643" lon="6.71276">
        <ele>364</ele>
        <time>2016-01-03T10:18:21.000Z</time>
      </trkpt>
      <trkpt lat="47.5264" lon="6.71276">
        <ele>364</ele>
        <time>2016-01-03T10:18:22.000Z</time>
      </trkpt>
      <trkpt lat="47.52636" lon="6.71277">
        <ele>364</ele>
        <time>2016-01-03T10:18:23.000Z</time>
      </trkpt>
      <trkpt lat="47.52633" lon="6.71277">
        <ele>364</ele>
        <time>2016-01-03T10:18:24.000Z</time>
      </trkpt>
      <trkpt lat="47.5263" lon="6.71276">
        <ele>364</ele>
        <time>2016-01-03T10:18:25.000Z</time>
      </trkpt>
      <trkpt lat="47.52627" lon="6.71276">
        <ele>364</ele>
        <time>2016-01-03T10:18:26.000Z</time>
      </trkpt>
      <trkpt lat="47.52624" lon="6.71275">
        <ele>364</ele>
        <time>2016-01-03T10:18:27.000Z</time>
      </trkpt>
      <trkpt lat="47.52621" lon="6.71275">
        <ele>364</ele>
        <time>2016-01-03T10:18:28.000Z</time>
      </trkpt>
      <trkpt lat="47.52618" lon="6.71275">
        <ele>364</ele>
        <time>2016-01-03T10:18:29.000Z</time>
      </trkpt>
      <trkpt lat="47.52614" lon="6.71274">
        <ele>364</ele>
        <time>2016-01-03T10:18:30.000Z</time>
      </trkpt>
      <trkpt lat="47.52611" lon="6.71273">
        <ele>364</ele>
        <time>2016-01-03T10:18:31.000Z</time>
      </trkpt>
      <trkpt lat="47.52608" lon="6.71273">
        <ele>364</ele>
        <time>2016-01-03T10:18:32.000Z</time>
      </trkpt>
      <trkpt lat="47.52606" lon="6.71272">
        <ele>364</ele>
        <time>2016-01-03T10:18:33.000Z</time>
      </trkpt>
      <trkpt lat="47.52603" lon="6.71272">
        <ele>364</ele>
        <time>2016-01-03T10:18:34.000Z</time>
      </trkpt>
      <trkpt lat="47.526" lon="6.71271">
        <ele>364</ele>
        <time>2016-01-03T10:18:35.000Z</time>
      </trkpt>
      <trkpt lat="47.52597" lon="6.71271">
        <ele>364</ele>
        <time>2016-01-03T10:18:36.000Z</time>
      </trkpt>
      <trkpt lat="47.52595" lon="6.7127">
        <ele>364</ele>
        <time>2016-01-03T10:18:37.000Z</time>
      </trkpt>
      <trkpt lat="47.52592" lon="6.71269">
        <ele>364</ele>
        <time>2016-01-03T10:18:38.000Z</time>
      </trkpt>
      <trkpt lat="47.52589" lon="6.71268">
        <ele>364</ele>
        <time>2016-01-03T10:18:39.000Z</time>
      </trkpt>
      <trkpt lat="47.52587" lon="6.71267">
        <ele>364</ele>
        <time>2016-01-03T10:18:40.000Z</time>
      </trkpt>
      <trkpt lat="47.52584" lon="6.71266">
        <ele>364</ele>
        <time>2016-01-03T10:18:41.000Z</time>
      </trkpt>
      <trkpt lat="47.52582" lon="6.71264">
        <ele>362</ele>
        <time>2016-01-03T10:18:42.000Z</time>
      </trkpt>
      <trkpt lat="47.52579" lon="6.71263">
        <ele>362</ele>
        <time>2016-01-03T10:18:43.000Z</time>
      </trkpt>
      <trkpt lat="47.52576" lon="6.71262">
        <ele>362</ele>
        <time>2016-01-03T10:18:44.000Z</time>
      </trkpt>
      <trkpt lat="47.52573" lon="6.71261">
        <ele>362</ele>
        <time>2016-01-03T10:18:45.000Z</time>
      </trkpt>
      <trkpt lat="47.5257" lon="6.71261">
        <ele>362</ele>
        <time>2016-01-03T10:18:46.000Z</time>
      </trkpt>
      <trkpt lat="47.52567" lon="6.7126">
        <ele>362</ele>
        <time>2016-01-03T10:18:47.000Z</time>
      </trkpt>
      <trkpt lat="47.52564" lon="6.71259">
        <ele>362</ele>
        <time>2016-01-03T10:18:48.000Z</time>
      </trkpt>
      <trkpt lat="47.52561" lon="6.71258">
        <ele>362</ele>
        <time>2016-01-03T10:18:49.000Z</time>
      </trkpt>
      <trkpt lat="47.52558" lon="6.71256">
        <ele>362</ele>
        <time>2016-01-03T10:18:50.000Z</time>
      </trkpt>
      <trkpt lat="47.52555" lon="6.71255">
        <ele>362</ele>
        <time>2016-01-03T10:18:51.000Z</time>
      </trkpt>
      <trkpt lat="47.52552" lon="6.71253">
        <ele>361</ele>
        <time>2016-01-03T10:18:52.000Z</time>
      </trkpt>
      <trkpt lat="47.52549" lon="6.71252">
        <ele>361</ele>
        <time>2016-01-03T10:18:53.000Z</time>
      </trkpt>
      <trkpt lat="47.52545" lon="6.7125">
        <ele>361</ele>
        <time>2016-01-03T10:18:54.000Z</time>
      </trkpt>
      <trkpt lat="47.52542" lon="6.71249">
        <ele>360</ele>
        <time>2016-01-03T10:18:55.000Z</time>
      </trkpt>
      <trkpt lat="47.52539" lon="6.71248">
        <ele>360</ele>
        <time>2016-01-03T10:18:56.000Z</time>
      </trkpt>
      <trkpt lat="47.52537" lon="6.71246">
        <ele>360</ele>
        <time>2016-01-03T10:18:57.000Z</time>
      </trkpt>
      <trkpt lat="47.52533" lon="6.71244">
        <ele>360</ele>
        <time>2016-01-03T10:18:58.000Z</time>
      </trkpt>
      <trkpt lat="47.5253" lon="6.71242">
        <ele>360</ele>
        <time>2016-01-03T10:18:59.000Z</time>
      </trkpt>
      <trkpt lat="47.52527" lon="6.71239">
        <ele>360</ele>
        <time>2016-01-03T10:19:00.000Z</time>
      </trkpt>
      <trkpt lat="47.52524" lon="6.71237">
        <ele>360</ele>
        <time>2016-01-03T10:19:01.000Z</time>
      </trkpt>
      <trkpt lat="47.52521" lon="6.71234">
        <ele>360</ele>
        <time>2016-01-03T10:19:02.000Z</time>
      </trkpt>
      <trkpt lat="47.52518" lon="6.71231">
        <ele>360</ele>
        <time>2016-01-03T10:19:03.000Z</time>
      </trkpt>
      <trkpt lat="47.52515" lon="6.71227">
        <ele>360</ele>
        <time>2016-01-03T10:19:04.000Z</time>
      </trkpt>
      <trkpt lat="47.52512" lon="6.71224">
        <ele>360</ele>
        <time>2016-01-03T10:19:05.000Z</time>
      </trkpt>
      <trkpt lat="47.52509" lon="6.7122">
        <ele>360</ele>
        <time>2016-01-03T10:19:06.000Z</time>
      </trkpt>
      <trkpt lat="47.52506" lon="6.71216">
        <ele>360</ele>
        <time>2016-01-03T10:19:07.000Z</time>
      </trkpt>
      <trkpt lat="47.52504" lon="6.71211">
        <ele>360</ele>
        <time>2016-01-03T10:19:08.000Z</time>
      </trkpt>
      <trkpt lat="47.52502" lon="6.71207">
        <ele>360</ele>
        <time>2016-01-03T10:19:09.000Z</time>
      </trkpt>
      <trkpt lat="47.52499" lon="6.71203">
        <ele>360</ele>
        <time>2016-01-03T10:19:10.000Z</time>
      </trkpt>
      <trkpt lat="47.52497" lon="6.71199">
        <ele>360</ele>
        <time>2016-01-03T10:19:11.000Z</time>
      </trkpt>
      <trkpt lat="47.52495" lon="6.71196">
        <ele>360</ele>
        <time>2016-01-03T10:19:12.000Z</time>
      </trkpt>
      <trkpt lat="47.52492" lon="6.71192">
        <ele>360</ele>
        <time>2016-01-03T10:19:13.000Z</time>
      </trkpt>
      <trkpt lat="47.52489" lon="6.71189">
        <ele>360</ele>
        <time>2016-01-03T10:19:14.000Z</time>
      </trkpt>
      <trkpt lat="47.52487" lon="6.71186">
        <ele>360</ele>
        <time>2016-01-03T10:19:15.000Z</time>
      </trkpt>
      <trkpt lat="47.52484" lon="6.71183">
        <ele>361</ele>
        <time>2016-01-03T10:19:16.000Z</time>
      </trkpt>
      <trkpt lat="47.52481" lon="6.71182">
        <ele>361</ele>
        <time>2016-01-03T10:19:17.000Z</time>
      </trkpt>
      <trkpt lat="47.52478" lon="6.7118">
        <ele>361</ele>
        <time>2016-01-03T10:19:18.000Z</time>
      </trkpt>
      <trkpt lat="47.52474" lon="6.71179">
        <ele>361</ele>
        <time>2016-01-03T10:19:19.000Z</time>
      </trkpt>
      <trkpt lat="47.52471" lon="6.71179">
        <ele>361</ele>
        <time>2016-01-03T10:19:20.000Z</time>
      </trkpt>
      <trkpt lat="47.52468" lon="6.71178">
        <ele>361</ele>
        <time>2016-01-03T10:19:21.000Z</time>
      </trkpt>
      <trkpt lat="47.52465" lon="6.71178">
        <ele>361</ele>
        <time>2016-01-03T10:19:22.000Z</time>
      </trkpt>
      <trkpt lat="47.52462" lon="6.71178">
        <ele>361</ele>
        <time>2016-01-03T10:19:23.000Z</time>
      </trkpt>
      <trkpt lat="47.52459" lon="6.71178">
        <ele>361</ele>
        <time>2016-01-03T10:19:24.000Z</time>
      </trkpt>
      <trkpt lat="47.52455" lon="6.71178">
        <ele>361</ele>
        <time>2016-01-03T10:19:25.000Z</time>
      </trkpt>
      <trkpt lat="47.52452" lon="6.71179">
        <ele>361</ele>
        <time>2016-01-03T10:19:26.000Z</time>
      </trkpt>
      <trkpt lat="47.52449" lon="6.7118">
        <ele>361</ele>
        <time>2016-01-03T10:19:27.000Z</time>
      </trkpt>
      <trkpt lat="47.52446" lon="6.71181">
        <ele>361</ele>
        <time>2016-01-03T10:19:28.000Z</time>
      </trkpt>
      <trkpt lat="47.52442" lon="6.71181">
        <ele>361</ele>
        <time>2016-01-03T10:19:29.000Z</time>
      </trkpt>
      <trkpt lat="47.52439" lon="6.71182">
        <ele>361</ele>
        <time>2016-01-03T10:19:30.000Z</time>
      </trkpt>
      <trkpt lat="47.52436" lon="6.71182">
        <ele>361</ele>
        <time>2016-01-03T10:19:31.000Z</time>
      </trkpt>
      <trkpt lat="47.52433" lon="6.71183">
        <ele>361</ele>
        <time>2016-01-03T10:19:32.000Z</time>
      </trkpt>
      <trkpt lat="47.52429" lon="6.71183">
        <ele>361</ele>
        <time>2016-01-03T10:19:33.000Z</time>
      </trkpt>
      <trkpt lat="47.52426" lon="6.71184">
        <ele>362</ele>
        <time>2016-01-03T10:19:34.000Z</time>
      </trkpt>
      <trkpt lat="47.52423" lon="6.71185">
        <ele>362</ele>
        <time>2016-01-03T10:19:35.000Z</time>
      </trkpt>
      <trkpt lat="47.5242" lon="6.71185">
        <ele>362</ele>
        <time>2016-01-03T10:19:36.000Z</time>
      </trkpt>
      <trkpt lat="47.52417" lon="6.71186">
        <ele>362</ele>
        <time>2016-01-03T10:19:37.000Z</time>
      </trkpt>
      <trkpt lat="47.52414" lon="6.71186">
        <ele>363</ele>
        <time>2016-01-03T10:19:38.000Z</time>
      </trkpt>
      <trkpt lat="47.52411" lon="6.71187">
        <ele>363</ele>
        <time>2016-01-03T10:19:39.000Z</time>
      </trkpt>
      <trkpt lat="47.52408" lon="6.71187">
        <ele>363</ele>
        <time>2016-01-03T10:19:40.000Z</time>
      </trkpt>
      <trkpt lat="47.52405" lon="6.71188">
        <ele>363</ele>
        <time>2016-01-03T10:19:41.000Z</time>
      </trkpt>
      <trkpt lat="47.52402" lon="6.71188">
        <ele>364</ele>
        <time>2016-01-03T10:19:42.000Z</time>
      </trkpt>
      <trkpt lat="47.52399" lon="6.71188">
        <ele>364</ele>
        <time>2016-01-03T10:19:43.000Z</time>
      </trkpt>
      <trkpt lat="47.52396" lon="6.71188">
        <ele>364</ele>
        <time>2016-01-03T10:19:44.000Z</time>
      </trkpt>
      <trkpt lat="47.52393" lon="6.71189">
        <ele>364</ele>
        <time>2016-01-03T10:19:45.000Z</time>
      </trkpt>
      <trkpt lat="47.5239" lon="6.71189">
        <ele>364</ele>
        <time>2016-01-03T10:19:46.000Z</time>
      </trkpt>
      <trkpt lat="47.52387" lon="6.71189">
        <ele>364</ele>
        <time>2016-01-03T10:19:47.000Z</time>
      </trkpt>
      <trkpt lat="47.52384" lon="6.71188">
        <ele>364</ele>
        <time>2016-01-03T10:19:48.000Z</time>
      </trkpt>
      <trkpt lat="47.52381" lon="6.71187">
        <ele>364</ele>
        <time>2016-01-03T10:19:49.000Z</time>
      </trkpt>
      <trkpt lat="47.52378" lon="6.71187">
        <ele>364</ele>
        <time>2016-01-03T10:19:50.000Z</time>
      </trkpt>
      <trkpt lat="47.52375" lon="6.71186">
        <ele>364</ele>
        <time>2016-01-03T10:19:51.000Z</time>
      </trkpt>
      <trkpt lat="47.52372" lon="6.71185">
        <ele>364</ele>
        <time>2016-01-03T10:19:52.000Z</time>
      </trkpt>
      <trkpt lat="47.5237" lon="6.71185">
        <ele>364</ele>
        <time>2016-01-03T10:19:53.000Z</time>
      </trkpt>
      <trkpt lat="47.52367" lon="6.71183">
        <ele>365</ele>
        <time>2016-01-03T10:19:54.000Z</time>
      </trkpt>
      <trkpt lat="47.52364" lon="6.71182">
        <ele>365</ele>
        <time>2016-01-03T10:19:55.000Z</time>
      </trkpt>
      <trkpt lat="47.52362" lon="6.71179">
        <ele>365</ele>
        <time>2016-01-03T10:19:56.000Z</time>
      </trkpt>
      <trkpt lat="47.52359" lon="6.71177">
        <ele>365</ele>
        <time>2016-01-03T10:19:57.000Z</time>
      </trkpt>
      <trkpt lat="47.52357" lon="6.71174">
        <ele>365</ele>
        <time>2016-01-03T10:19:58.000Z</time>
      </trkpt>
      <trkpt lat="47.52354" lon="6.71171">
        <ele>365</ele>
        <time>2016-01-03T10:19:59.000Z</time>
      </trkpt>
      <trkpt lat="47.52352" lon="6.71167">
        <ele>365</ele>
        <time>2016-01-03T10:20:00.000Z</time>
      </trkpt>
      <trkpt lat="47.5235" lon="6.71164">
        <ele>366</ele>
        <time>2016-01-03T10:20:01.000Z</time>
      </trkpt>
      <trkpt lat="47.52347" lon="6.71161">
        <ele>366</ele>
        <time>2016-01-03T10:20:02.000Z</time>
      </trkpt>
      <trkpt lat="47.52345" lon="6.71159">
        <ele>366</ele>
        <time>2016-01-03T10:20:03.000Z</time>
      </trkpt>
      <trkpt lat="47.52342" lon="6.71157">
        <ele>366</ele>
        <time>2016-01-03T10:20:04.000Z</time>
      </trkpt>
      <trkpt lat="47.52339" lon="6.71155">
        <ele>366</ele>
        <time>2016-01-03T10:20:05.000Z</time>
      </trkpt>
      <trkpt lat="47.52336" lon="6.71154">
        <ele>366</ele>
        <time>2016-01-03T10:20:06.000Z</time>
      </trkpt>
      <trkpt lat="47.52334" lon="6.71153">
        <ele>366</ele>
        <time>2016-01-03T10:20:07.000Z</time>
      </trkpt>
      <trkpt lat="47.5233" lon="6.71153">
        <ele>366</ele>
        <time>2016-01-03T10:20:08.000Z</time>
      </trkpt>
      <trkpt lat="47.52327" lon="6.71153">
        <ele>366</ele>
        <time>2016-01-03T10:20:09.000Z</time>
      </trkpt>
      <trkpt lat="47.52324" lon="6.71155">
        <ele>366</ele>
        <time>2016-01-03T10:20:10.000Z</time>
      </trkpt>
      <trkpt lat="47.52322" lon="6.71157">
        <ele>366</ele>
        <time>2016-01-03T10:20:11.000Z</time>
      </trkpt>
      <trkpt lat="47.52319" lon="6.7116">
        <ele>366</ele>
        <time>2016-01-03T10:20:12.000Z</time>
      </trkpt>
      <trkpt lat="47.52317" lon="6.71163">
        <ele>366</ele>
        <time>2016-01-03T10:20:13.000Z</time>
      </trkpt>
      <trkpt lat="47.52314" lon="6.71166">
        <ele>366</ele>
        <time>2016-01-03T10:20:14.000Z</time>
      </trkpt>
      <trkpt lat="47.52312" lon="6.71169">
        <ele>367</ele>
        <time>2016-01-03T10:20:15.000Z</time>
      </trkpt>
      <trkpt lat="47.5231" lon="6.71173">
        <ele>367</ele>
        <time>2016-01-03T10:20:16.000Z</time>
      </trkpt>
      <trkpt lat="47.52308" lon="6.71176">
        <ele>367</ele>
        <time>2016-01-03T10:20:17.000Z</time>
      </trkpt>
      <trkpt lat="47.52306" lon="6.7118">
        <ele>367</ele>
        <time>2016-01-03T10:20:18.000Z</time>
      </trkpt>
      <trkpt lat="47.52304" lon="6.71184">
        <ele>367</ele>
        <time>2016-01-03T10:20:19.000Z</time>
      </trkpt>
      <trkpt lat="47.52302" lon="6.71187">
        <ele>367</ele>
        <time>2016-01-03T10:20:20.000Z</time>
      </trkpt>
      <trkpt lat="47.523" lon="6.7119">
        <ele>367</ele>
        <time>2016-01-03T10:20:21.000Z</time>
      </trkpt>
      <trkpt lat="47.52298" lon="6.71193">
        <ele>367</ele>
        <time>2016-01-03T10:20:22.000Z</time>
      </trkpt>
      <trkpt lat="47.52296" lon="6.71197">
        <ele>367</ele>
        <time>2016-01-03T10:20:23.000Z</time>
      </trkpt>
      <trkpt lat="47.52294" lon="6.712">
        <ele>367</ele>
        <time>2016-01-03T10:20:24.000Z</time>
      </trkpt>
      <trkpt lat="47.52292" lon="6.71203">
        <ele>367</ele>
        <time>2016-01-03T10:20:25.000Z</time>
      </trkpt>
      <trkpt lat="47.5229" lon="6.71206">
        <ele>367</ele>
        <time>2016-01-03T10:20:26.000Z</time>
      </trkpt>
      <trkpt lat="47.52288" lon="6.71209">
        <ele>368</ele>
        <time>2016-01-03T10:20:27.000Z</time>
      </trkpt>
      <trkpt lat="47.52286" lon="6.71212">
        <ele>368</ele>
        <time>2016-01-03T10:20:28.000Z</time>
      </trkpt>
      <trkpt lat="47.52283" lon="6.71214">
        <ele>368</ele>
        <time>2016-01-03T10:20:29.000Z</time>
      </trkpt>
      <trkpt lat="47.52281" lon="6.71217">
        <ele>368</ele>
        <time>2016-01-03T10:20:30.000Z</time>
      </trkpt>
      <trkpt lat="47.52279" lon="6.71219">
        <ele>368</ele>
        <time>2016-01-03T10:20:31.000Z</time>
      </trkpt>
      <trkpt lat="47.52276" lon="6.71221">
        <ele>368</ele>
        <time>2016-01-03T10:20:32.000Z</time>
      </trkpt>
      <trkpt lat="47.52274" lon="6.71222">
        <ele>368</ele>
        <time>2016-01-03T10:20:33.000Z</time>
      </trkpt>
      <trkpt lat="47.52271" lon="6.71224">
        <ele>368</ele>
        <time>2016-01-03T10:20:34.000Z</time>
      </trkpt>
      <trkpt lat="47.52269" lon="6.71224">
        <ele>368</ele>
        <time>2016-01-03T10:20:35.000Z</time>
      </trkpt>
      <trkpt lat="47.52266" lon="6.71223">
        <ele>368</ele>
        <time>2016-01-03T10:20:36.000Z</time>
      </trkpt>
      <trkpt lat="47.52264" lon="6.7122">
        <ele>368</ele>
        <time>2016-01-03T10:20:37.000Z</time>
      </trkpt>
      <trkpt lat="47.52261" lon="6.71217">
        <ele>368</ele>
        <time>2016-01-03T10:20:38.000Z</time>
      </trkpt>
      <trkpt lat="47.52259" lon="6.71213">
        <ele>368</ele>
        <time>2016-01-03T10:20:39.000Z</time>
      </trkpt>
      <trkpt lat="47.52257" lon="6.7121">
        <ele>368</ele>
        <time>2016-01-03T10:20:40.000Z</time>
      </trkpt>
      <trkpt lat="47.52255" lon="6.71206">
        <ele>368</ele>
        <time>2016-01-03T10:20:41.000Z</time>
      </trkpt>
      <trkpt lat="47.52253" lon="6.71202">
        <ele>368</ele>
        <time>2016-01-03T10:20:42.000Z</time>
      </trkpt>
      <trkpt lat="47.52251" lon="6.71198">
        <ele>367</ele>
        <time>2016-01-03T10:20:43.000Z</time>
      </trkpt>
      <trkpt lat="47.52248" lon="6.71194">
        <ele>370</ele>
        <time>2016-01-03T10:20:44.000Z</time>
      </trkpt>
      <trkpt lat="47.52246" lon="6.7119">
        <ele>369</ele>
        <time>2016-01-03T10:20:45.001Z</time>
      </trkpt>
      <trkpt lat="47.52244" lon="6.71187">
        <ele>369</ele>
        <time>2016-01-03T10:20:46.000Z</time>
      </trkpt>
      <trkpt lat="47.52241" lon="6.71183">
        <ele>369</ele>
        <time>2016-01-03T10:20:47.000Z</time>
      </trkpt>
      <trkpt lat="47.52239" lon="6.71179">
        <ele>369</ele>
        <time>2016-01-03T10:20:48.000Z</time>
      </trkpt>
      <trkpt lat="47.52236" lon="6.71175">
        <ele>369</ele>
        <time>2016-01-03T10:20:49.000Z</time>
      </trkpt>
      <trkpt lat="47.52234" lon="6.7117">
        <ele>369</ele>
        <time>2016-01-03T10:20:50.000Z</time>
      </trkpt>
      <trkpt lat="47.52231" lon="6.71165">
        <ele>367</ele>
        <time>2016-01-03T10:20:51.000Z</time>
      </trkpt>
      <trkpt lat="47.52227" lon="6.71159">
        <ele>367</ele>
        <time>2016-01-03T10:20:52.000Z</time>
      </trkpt>
      <trkpt lat="47.52224" lon="6.71153">
        <ele>367</ele>
        <time>2016-01-03T10:20:53.000Z</time>
      </trkpt>
      <trkpt lat="47.52221" lon="6.71149">
        <ele>367</ele>
        <time>2016-01-03T10:20:54.000Z</time>
      </trkpt>
      <trkpt lat="47.52218" lon="6.71145">
        <ele>367</ele>
        <time>2016-01-03T10:20:55.000Z</time>
      </trkpt>
      <trkpt lat="47.52215" lon="6.71141">
        <ele>367</ele>
        <time>2016-01-03T10:20:56.000Z</time>
      </trkpt>
      <trkpt lat="47.52211" lon="6.71137">
        <ele>367</ele>
        <time>2016-01-03T10:20:57.000Z</time>
      </trkpt>
      <trkpt lat="47.52208" lon="6.71132">
        <ele>367</ele>
        <time>2016-01-03T10:20:58.002Z</time>
      </trkpt>
      <trkpt lat="47.52204" lon="6.71128">
        <ele>367</ele>
        <time>2016-01-03T10:20:59.000Z</time>
      </trkpt>
      <trkpt lat="47.522" lon="6.71123">
        <ele>367</ele>
        <time>2016-01-03T10:21:00.000Z</time>
      </trkpt>
      <trkpt lat="47.52197" lon="6.71118">
        <ele>367</ele>
        <time>2016-01-03T10:21:01.000Z</time>
      </trkpt>
      <trkpt lat="47.52193" lon="6.71113">
        <ele>367</ele>
        <time>2016-01-03T10:21:02.000Z</time>
      </trkpt>
      <trkpt lat="47.52189" lon="6.71108">
        <ele>367</ele>
        <time>2016-01-03T10:21:03.000Z</time>
      </trkpt>
      <trkpt lat="47.52186" lon="6.71103">
        <ele>367</ele>
        <time>2016-01-03T10:21:04.000Z</time>
      </trkpt>
      <trkpt lat="47.52182" lon="6.71099">
        <ele>367</ele>
        <time>2016-01-03T10:21:05.000Z</time>
      </trkpt>
      <trkpt lat="47.52177" lon="6.71096">
        <ele>367</ele>
        <time>2016-01-03T10:21:06.000Z</time>
      </trkpt>
      <trkpt lat="47.52174" lon="6.71091">
        <ele>367</ele>
        <time>2016-01-03T10:21:07.000Z</time>
      </trkpt>
      <trkpt lat="47.5217" lon="6.71087">
        <ele>367</ele>
        <time>2016-01-03T10:21:08.000Z</time>
      </trkpt>
      <trkpt lat="47.52166" lon="6.71084">
        <ele>367</ele>
        <time>2016-01-03T10:21:09.000Z</time>
      </trkpt>
      <trkpt lat="47.52162" lon="6.71082">
        <ele>367</ele>
        <time>2016-01-03T10:21:10.000Z</time>
      </trkpt>
      <trkpt lat="47.52159" lon="6.71079">
        <ele>367</ele>
        <time>2016-01-03T10:21:11.000Z</time>
      </trkpt>
      <trkpt lat="47.52156" lon="6.71076">
        <ele>367</ele>
        <time>2016-01-03T10:21:12.000Z</time>
      </trkpt>
      <trkpt lat="47.52152" lon="6.71073">
        <ele>367</ele>
        <time>2016-01-03T10:21:13.000Z</time>
      </trkpt>
      <trkpt lat="47.52149" lon="6.7107">
        <ele>367</ele>
        <time>2016-01-03T10:21:14.000Z</time>
      </trkpt>
      <trkpt lat="47.52146" lon="6.71067">
        <ele>367</ele>
        <time>2016-01-03T10:21:15.000Z</time>
      </trkpt>
      <trkpt lat="47.52143" lon="6.71065">
        <ele>367</ele>
        <time>2016-01-03T10:21:16.000Z</time>
      </trkpt>
      <trkpt lat="47.52139" lon="6.71062">
        <ele>367</ele>
        <time>2016-01-03T10:21:17.000Z</time>
      </trkpt>
      <trkpt lat="47.52136" lon="6.71059">
        <ele>367</ele>
        <time>2016-01-03T10:21:18.000Z</time>
      </trkpt>
      <trkpt lat="47.52133" lon="6.71056">
        <ele>367</ele>
        <time>2016-01-03T10:21:19.000Z</time>
      </trkpt>
      <trkpt lat="47.5213" lon="6.71053">
        <ele>367</ele>
        <time>2016-01-03T10:21:20.000Z</time>
      </trkpt>
      <trkpt lat="47.52124" lon="6.71049">
        <ele>367</ele>
        <time>2016-01-03T10:21:22.000Z</time>
      </trkpt>
      <trkpt lat="47.52121" lon="6.71047">
        <ele>367</ele>
        <time>2016-01-03T10:21:23.000Z</time>
      </trkpt>
      <trkpt lat="47.52118" lon="6.71045">
        <ele>367</ele>
        <time>2016-01-03T10:21:24.000Z</time>
      </trkpt>
      <trkpt lat="47.52115" lon="6.71042">
        <ele>367</ele>
        <time>2016-01-03T10:21:25.000Z</time>
      </trkpt>
      <trkpt lat="47.52112" lon="6.7104">
        <ele>367</ele>
        <time>2016-01-03T10:21:26.000Z</time>
      </trkpt>
      <trkpt lat="47.52108" lon="6.71037">
        <ele>367</ele>
        <time>2016-01-03T10:21:27.000Z</time>
      </trkpt>
      <trkpt lat="47.52105" lon="6.71035">
        <ele>367</ele>
        <time>2016-01-03T10:21:28.000Z</time>
      </trkpt>
      <trkpt lat="47.52101" lon="6.71032">
        <ele>367</ele>
        <time>2016-01-03T10:21:29.000Z</time>
      </trkpt>
      <trkpt lat="47.52098" lon="6.71029">
        <ele>367</ele>
        <time>2016-01-03T10:21:30.000Z</time>
      </trkpt>
      <trkpt lat="47.52094" lon="6.71026">
        <ele>366</ele>
        <time>2016-01-03T10:21:31.000Z</time>
      </trkpt>
      <trkpt lat="47.52091" lon="6.71023">
        <ele>366</ele>
        <time>2016-01-03T10:21:32.000Z</time>
      </trkpt>
      <trkpt lat="47.52087" lon="6.7102">
        <ele>366</ele>
        <time>2016-01-03T10:21:32.999Z</time>
      </trkpt>
      <trkpt lat="47.52083" lon="6.71017">
        <ele>371</ele>
        <time>2016-01-03T10:21:34.000Z</time>
      </trkpt>
      <trkpt lat="47.52079" lon="6.71015">
        <ele>370</ele>
        <time>2016-01-03T10:21:35.000Z</time>
      </trkpt>
      <trkpt lat="47.52075" lon="6.71014">
        <ele>371</ele>
        <time>2016-01-03T10:21:36.000Z</time>
      </trkpt>
      <trkpt lat="47.52071" lon="6.71012">
        <ele>371</ele>
        <time>2016-01-03T10:21:37.001Z</time>
      </trkpt>
      <trkpt lat="47.52067" lon="6.71013">
        <ele>372</ele>
        <time>2016-01-03T10:21:38.000Z</time>
      </trkpt>
      <trkpt lat="47.52064" lon="6.71013">
        <ele>372</ele>
        <time>2016-01-03T10:21:39.000Z</time>
      </trkpt>
      <trkpt lat="47.52061" lon="6.71013">
        <ele>373</ele>
        <time>2016-01-03T10:21:40.000Z</time>
      </trkpt>
      <trkpt lat="47.52059" lon="6.71012">
        <ele>373</ele>
        <time>2016-01-03T10:21:41.000Z</time>
      </trkpt>
      <trkpt lat="47.52056" lon="6.7101">
        <ele>373</ele>
        <time>2016-01-03T10:21:42.000Z</time>
      </trkpt>
      <trkpt lat="47.52054" lon="6.71009">
        <ele>373</ele>
        <time>2016-01-03T10:21:43.000Z</time>
      </trkpt>
      <trkpt lat="47.52051" lon="6.71008">
        <ele>374</ele>
        <time>2016-01-03T10:21:44.000Z</time>
      </trkpt>
      <trkpt lat="47.52049" lon="6.71007">
        <ele>374</ele>
        <time>2016-01-03T10:21:45.000Z</time>
      </trkpt>
      <trkpt lat="47.52046" lon="6.71005">
        <ele>374</ele>
        <time>2016-01-03T10:21:46.000Z</time>
      </trkpt>
      <trkpt lat="47.52044" lon="6.71004">
        <ele>374</ele>
        <time>2016-01-03T10:21:47.000Z</time>
      </trkpt>
      <trkpt lat="47.52041" lon="6.71003">
        <ele>374</ele>
        <time>2016-01-03T10:21:48.000Z</time>
      </trkpt>
      <trkpt lat="47.52038" lon="6.71001">
        <ele>375</ele>
        <time>2016-01-03T10:21:49.000Z</time>
      </trkpt>
      <trkpt lat="47.52035" lon="6.70999">
        <ele>367</ele>
        <time>2016-01-03T10:21:50.000Z</time>
      </trkpt>
      <trkpt lat="47.52032" lon="6.70997">
        <ele>367</ele>
        <time>2016-01-03T10:21:51.000Z</time>
      </trkpt>
      <trkpt lat="47.52029" lon="6.70996">
        <ele>367</ele>
        <time>2016-01-03T10:21:52.001Z</time>
      </trkpt>
      <trkpt lat="47.52026" lon="6.70994">
        <ele>368</ele>
        <time>2016-01-03T10:21:53.000Z</time>
      </trkpt>
      <trkpt lat="47.52023" lon="6.70993">
        <ele>368</ele>
        <time>2016-01-03T10:21:54.000Z</time>
      </trkpt>
      <trkpt lat="47.52021" lon="6.70992">
        <ele>368</ele>
        <time>2016-01-03T10:21:54.999Z</time>
      </trkpt>
      <trkpt lat="47.52019" lon="6.7099">
        <ele>368</ele>
        <time>2016-01-03T10:21:56.000Z</time>
      </trkpt>
      <trkpt lat="47.52017" lon="6.70989">
        <ele>369</ele>
        <time>2016-01-03T10:21:57.000Z</time>
      </trkpt>
      <trkpt lat="47.52014" lon="6.70987">
        <ele>369</ele>
        <time>2016-01-03T10:21:58.000Z</time>
      </trkpt>
      <trkpt lat="47.52012" lon="6.70986">
        <ele>369</ele>
        <time>2016-01-03T10:21:59.000Z</time>
      </trkpt>
      <trkpt lat="47.52009" lon="6.70986">
        <ele>369</ele>
        <time>2016-01-03T10:22:00.000Z</time>
      </trkpt>
      <trkpt lat="47.52006" lon="6.70985">
        <ele>369</ele>
        <time>2016-01-03T10:22:01.000Z</time>
      </trkpt>
      <trkpt lat="47.52004" lon="6.70984">
        <ele>369</ele>
        <time>2016-01-03T10:22:01.999Z</time>
      </trkpt>
      <trkpt lat="47.52" lon="6.70982">
        <ele>373</ele>
        <time>2016-01-03T10:22:04.000Z</time>
      </trkpt>
      <trkpt lat="47.51997" lon="6.70981">
        <ele>373</ele>
        <time>2016-01-03T10:22:05.000Z</time>
      </trkpt>
      <trkpt lat="47.51995" lon="6.70981">
        <ele>373</ele>
        <time>2016-01-03T10:22:06.000Z</time>
      </trkpt>
      <trkpt lat="47.51993" lon="6.7098">
        <ele>373</ele>
        <time>2016-01-03T10:22:07.000Z</time>
      </trkpt>
      <trkpt lat="47.51988" lon="6.7098">
        <ele>374</ele>
        <time>2016-01-03T10:22:09.000Z</time>
      </trkpt>
      <trkpt lat="47.51986" lon="6.7098">
        <ele>374</ele>
        <time>2016-01-03T10:22:10.000Z</time>
      </trkpt>
      <trkpt lat="47.51982" lon="6.70981">
        <ele>374</ele>
        <time>2016-01-03T10:22:12.000Z</time>
      </trkpt>
      <trkpt lat="47.5198" lon="6.70982">
        <ele>374</ele>
        <time>2016-01-03T10:22:13.000Z</time>
      </trkpt>
      <trkpt lat="47.51975" lon="6.70983">
        <ele>374</ele>
        <time>2016-01-03T10:22:15.000Z</time>
      </trkpt>
      <trkpt lat="47.51973" lon="6.70983">
        <ele>374</ele>
        <time>2016-01-03T10:22:16.000Z</time>
      </trkpt>
      <trkpt lat="47.51969" lon="6.70984">
        <ele>375</ele>
        <time>2016-01-03T10:22:18.000Z</time>
      </trkpt>
      <trkpt lat="47.51967" lon="6.70985">
        <ele>375</ele>
        <time>2016-01-03T10:22:19.000Z</time>
      </trkpt>
      <trkpt lat="47.51963" lon="6.70985">
        <ele>375</ele>
        <time>2016-01-03T10:22:21.000Z</time>
      </trkpt>
      <trkpt lat="47.51961" lon="6.70985">
        <ele>375</ele>
        <time>2016-01-03T10:22:22.000Z</time>
      </trkpt>
      <trkpt lat="47.51958" lon="6.70984">
        <ele>376</ele>
        <time>2016-01-03T10:22:24.000Z</time>
      </trkpt>
      <trkpt lat="47.51956" lon="6.70985">
        <ele>376</ele>
        <time>2016-01-03T10:22:25.000Z</time>
      </trkpt>
      <trkpt lat="47.51953" lon="6.70985">
        <ele>376</ele>
        <time>2016-01-03T10:22:27.000Z</time>
      </trkpt>
      <trkpt lat="47.51951" lon="6.70986">
        <ele>377</ele>
        <time>2016-01-03T10:22:28.000Z</time>
      </trkpt>
      <trkpt lat="47.51948" lon="6.7099">
        <ele>377</ele>
        <time>2016-01-03T10:22:30.000Z</time>
      </trkpt>
      <trkpt lat="47.51947" lon="6.70991">
        <ele>377</ele>
        <time>2016-01-03T10:22:31.000Z</time>
      </trkpt>
      <trkpt lat="47.51943" lon="6.70988">
        <ele>378</ele>
        <time>2016-01-03T10:22:35.000Z</time>
      </trkpt>
      <trkpt lat="47.51942" lon="6.70988">
        <ele>378</ele>
        <time>2016-01-03T10:22:36.000Z</time>
      </trkpt>
      <trkpt lat="47.51937" lon="6.7099">
        <ele>379</ele>
        <time>2016-01-03T10:22:39.000Z</time>
      </trkpt>
      <trkpt lat="47.51936" lon="6.7099">
        <ele>379</ele>
        <time>2016-01-03T10:22:40.000Z</time>
      </trkpt>
      <trkpt lat="47.51932" lon="6.70991">
        <ele>380</ele>
        <time>2016-01-03T10:22:42.000Z</time>
      </trkpt>
      <trkpt lat="47.51931" lon="6.70992">
        <ele>381</ele>
        <time>2016-01-03T10:22:43.000Z</time>
      </trkpt>
      <trkpt lat="47.51927" lon="6.70992">
        <ele>382</ele>
        <time>2016-01-03T10:22:45.000Z</time>
      </trkpt>
      <trkpt lat="47.51926" lon="6.70993">
        <ele>382</ele>
        <time>2016-01-03T10:22:46.000Z</time>
      </trkpt>
      <trkpt lat="47.51922" lon="6.70994">
        <ele>383</ele>
        <time>2016-01-03T10:22:48.000Z</time>
      </trkpt>
      <trkpt lat="47.51921" lon="6.70994">
        <ele>384</ele>
        <time>2016-01-03T10:22:49.000Z</time>
      </trkpt>
      <trkpt lat="47.51917" lon="6.70995">
        <ele>385</ele>
        <time>2016-01-03T10:22:51.000Z</time>
      </trkpt>
      <trkpt lat="47.51916" lon="6.70996">
        <ele>387</ele>
        <time>2016-01-03T10:22:52.000Z</time>
      </trkpt>
      <trkpt lat="47.51912" lon="6.70996">
        <ele>386</ele>
        <time>2016-01-03T10:22:55.000Z</time>
      </trkpt>
      <trkpt lat="47.5191" lon="6.70997">
        <ele>386</ele>
        <time>2016-01-03T10:22:56.000Z</time>
      </trkpt>
      <trkpt lat="47.51906" lon="6.70998">
        <ele>386</ele>
        <time>2016-01-03T10:22:59.000Z</time>
      </trkpt>
      <trkpt lat="47.51905" lon="6.70999">
        <ele>386</ele>
        <time>2016-01-03T10:23:00.000Z</time>
      </trkpt>
      <trkpt lat="47.51901" lon="6.71001">
        <ele>391</ele>
        <time>2016-01-03T10:23:02.000Z</time>
      </trkpt>
      <trkpt lat="47.51899" lon="6.71001">
        <ele>392</ele>
        <time>2016-01-03T10:23:03.000Z</time>
      </trkpt>
      <trkpt lat="47.51895" lon="6.71002">
        <ele>392</ele>
        <time>2016-01-03T10:23:05.000Z</time>
      </trkpt>
      <trkpt lat="47.51893" lon="6.71002">
        <ele>393</ele>
        <time>2016-01-03T10:23:06.000Z</time>
      </trkpt>
      <trkpt lat="47.5189" lon="6.71002">
        <ele>393</ele>
        <time>2016-01-03T10:23:08.000Z</time>
      </trkpt>
      <trkpt lat="47.51888" lon="6.71002">
        <ele>393</ele>
        <time>2016-01-03T10:23:09.000Z</time>
      </trkpt>
      <trkpt lat="47.51885" lon="6.71003">
        <ele>394</ele>
        <time>2016-01-03T10:23:11.000Z</time>
      </trkpt>
      <trkpt lat="47.51883" lon="6.71003">
        <ele>394</ele>
        <time>2016-01-03T10:23:12.000Z</time>
      </trkpt>
      <trkpt lat="47.51879" lon="6.71004">
        <ele>394</ele>
        <time>2016-01-03T10:23:14.000Z</time>
      </trkpt>
      <trkpt lat="47.51878" lon="6.71005">
        <ele>394</ele>
        <time>2016-01-03T10:23:15.000Z</time>
      </trkpt>
      <trkpt lat="47.51874" lon="6.71006">
        <ele>395</ele>
        <time>2016-01-03T10:23:17.000Z</time>
      </trkpt>
      <trkpt lat="47.51872" lon="6.71007">
        <ele>395</ele>
        <time>2016-01-03T10:23:18.000Z</time>
      </trkpt>
      <trkpt lat="47.51868" lon="6.71008">
        <ele>395</ele>
        <time>2016-01-03T10:23:20.000Z</time>
      </trkpt>
      <trkpt lat="47.51866" lon="6.71009">
        <ele>395</ele>
        <time>2016-01-03T10:23:21.000Z</time>
      </trkpt>
      <trkpt lat="47.51862" lon="6.7101">
        <ele>395</ele>
        <time>2016-01-03T10:23:23.000Z</time>
      </trkpt>
      <trkpt lat="47.51859" lon="6.7101">
        <ele>395</ele>
        <time>2016-01-03T10:23:24.001Z</time>
      </trkpt>
      <trkpt lat="47.51857" lon="6.7101">
        <ele>395</ele>
        <time>2016-01-03T10:23:25.000Z</time>
      </trkpt>
      <trkpt lat="47.51855" lon="6.71011">
        <ele>395</ele>
        <time>2016-01-03T10:23:26.000Z</time>
      </trkpt>
      <trkpt lat="47.51851" lon="6.71011">
        <ele>395</ele>
        <time>2016-01-03T10:23:27.999Z</time>
      </trkpt>
      <trkpt lat="47.51849" lon="6.71011">
        <ele>395</ele>
        <time>2016-01-03T10:23:29.000Z</time>
      </trkpt>
      <trkpt lat="47.51845" lon="6.71012">
        <ele>395</ele>
        <time>2016-01-03T10:23:31.000Z</time>
      </trkpt>
      <trkpt lat="47.51843" lon="6.71013">
        <ele>395</ele>
        <time>2016-01-03T10:23:32.000Z</time>
      </trkpt>
      <trkpt lat="47.51839" lon="6.71014">
        <ele>395</ele>
        <time>2016-01-03T10:23:34.002Z</time>
      </trkpt>
      <trkpt lat="47.51837" lon="6.71015">
        <ele>395</ele>
        <time>2016-01-03T10:23:35.000Z</time>
      </trkpt>
      <trkpt lat="47.51833" lon="6.71017">
        <ele>397</ele>
        <time>2016-01-03T10:23:37.000Z</time>
      </trkpt>
      <trkpt lat="47.5183" lon="6.71017">
        <ele>397</ele>
        <time>2016-01-03T10:23:38.000Z</time>
      </trkpt>
      <trkpt lat="47.51826" lon="6.71017">
        <ele>397</ele>
        <time>2016-01-03T10:23:40.000Z</time>
      </trkpt>
      <trkpt lat="47.51824" lon="6.71017">
        <ele>397</ele>
        <time>2016-01-03T10:23:41.000Z</time>
      </trkpt>
      <trkpt lat="47.51821" lon="6.71017">
        <ele>397</ele>
        <time>2016-01-03T10:23:43.000Z</time>
      </trkpt>
      <trkpt lat="47.51819" lon="6.71016">
        <ele>397</ele>
        <time>2016-01-03T10:23:44.000Z</time>
      </trkpt>
      <trkpt lat="47.51816" lon="6.71015">
        <ele>397</ele>
        <time>2016-01-03T10:23:46.000Z</time>
      </trkpt>
      <trkpt lat="47.51814" lon="6.71015">
        <ele>398</ele>
        <time>2016-01-03T10:23:47.000Z</time>
      </trkpt>
      <trkpt lat="47.5181" lon="6.71016">
        <ele>398</ele>
        <time>2016-01-03T10:23:49.000Z</time>
      </trkpt>
      <trkpt lat="47.51808" lon="6.71017">
        <ele>398</ele>
        <time>2016-01-03T10:23:50.002Z</time>
      </trkpt>
      <trkpt lat="47.51803" lon="6.71019">
        <ele>398</ele>
        <time>2016-01-03T10:23:52.000Z</time>
      </trkpt>
      <trkpt lat="47.51801" lon="6.71019">
        <ele>398</ele>
        <time>2016-01-03T10:23:53.000Z</time>
      </trkpt>
      <trkpt lat="47.51797" lon="6.71019">
        <ele>398</ele>
        <time>2016-01-03T10:23:55.000Z</time>
      </trkpt>
      <trkpt lat="47.51795" lon="6.71018">
        <ele>398</ele>
        <time>2016-01-03T10:23:56.000Z</time>
      </trkpt>
      <trkpt lat="47.51792" lon="6.71017">
        <ele>398</ele>
        <time>2016-01-03T10:23:58.001Z</time>
      </trkpt>
      <trkpt lat="47.5179" lon="6.71017">
        <ele>398</ele>
        <time>2016-01-03T10:23:59.000Z</time>
      </trkpt>
      <trkpt lat="47.51786" lon="6.71018">
        <ele>399</ele>
        <time>2016-01-03T10:24:01.000Z</time>
      </trkpt>
      <trkpt lat="47.51785" lon="6.71019">
        <ele>399</ele>
        <time>2016-01-03T10:24:02.001Z</time>
      </trkpt>
      <trkpt lat="47.51781" lon="6.7102">
        <ele>399</ele>
        <time>2016-01-03T10:24:04.000Z</time>
      </trkpt>
      <trkpt lat="47.51779" lon="6.71021">
        <ele>399</ele>
        <time>2016-01-03T10:24:05.000Z</time>
      </trkpt>
      <trkpt lat="47.51775" lon="6.71021">
        <ele>399</ele>
        <time>2016-01-03T10:24:07.000Z</time>
      </trkpt>
      <trkpt lat="47.51774" lon="6.71022">
        <ele>399</ele>
        <time>2016-01-03T10:24:08.000Z</time>
      </trkpt>
      <trkpt lat="47.51769" lon="6.71022">
        <ele>399</ele>
        <time>2016-01-03T10:24:10.000Z</time>
      </trkpt>
      <trkpt lat="47.51767" lon="6.71022">
        <ele>399</ele>
        <time>2016-01-03T10:24:11.000Z</time>
      </trkpt>
      <trkpt lat="47.51763" lon="6.71022">
        <ele>399</ele>
        <time>2016-01-03T10:24:13.000Z</time>
      </trkpt>
      <trkpt lat="47.51761" lon="6.71022">
        <ele>399</ele>
        <time>2016-01-03T10:24:14.000Z</time>
      </trkpt>
      <trkpt lat="47.51757" lon="6.71023">
        <ele>399</ele>
        <time>2016-01-03T10:24:16.000Z</time>
      </trkpt>
      <trkpt lat="47.51756" lon="6.71023">
        <ele>399</ele>
        <time>2016-01-03T10:24:17.000Z</time>
      </trkpt>
      <trkpt lat="47.51752" lon="6.71023">
        <ele>399</ele>
        <time>2016-01-03T10:24:19.000Z</time>
      </trkpt>
      <trkpt lat="47.5175" lon="6.71023">
        <ele>403</ele>
        <time>2016-01-03T10:24:20.000Z</time>
      </trkpt>
      <trkpt lat="47.51746" lon="6.71025">
        <ele>404</ele>
        <time>2016-01-03T10:24:22.000Z</time>
      </trkpt>
      <trkpt lat="47.51744" lon="6.71025">
        <ele>404</ele>
        <time>2016-01-03T10:24:23.000Z</time>
      </trkpt>
      <trkpt lat="47.51739" lon="6.71027">
        <ele>405</ele>
        <time>2016-01-03T10:24:25.000Z</time>
      </trkpt>
      <trkpt lat="47.51737" lon="6.71027">
        <ele>405</ele>
        <time>2016-01-03T10:24:26.000Z</time>
      </trkpt>
      <trkpt lat="47.51733" lon="6.71027">
        <ele>405</ele>
        <time>2016-01-03T10:24:28.000Z</time>
      </trkpt>
      <trkpt lat="47.51731" lon="6.71027">
        <ele>406</ele>
        <time>2016-01-03T10:24:29.000Z</time>
      </trkpt>
      <trkpt lat="47.51729" lon="6.71026">
        <ele>406</ele>
        <time>2016-01-03T10:24:30.000Z</time>
      </trkpt>
      <trkpt lat="47.51726" lon="6.71027">
        <ele>406</ele>
        <time>2016-01-03T10:24:31.000Z</time>
      </trkpt>
      <trkpt lat="47.51722" lon="6.71028">
        <ele>407</ele>
        <time>2016-01-03T10:24:33.000Z</time>
      </trkpt>
      <trkpt lat="47.5172" lon="6.71029">
        <ele>407</ele>
        <time>2016-01-03T10:24:34.000Z</time>
      </trkpt>
      <trkpt lat="47.51717" lon="6.71029">
        <ele>407</ele>
        <time>2016-01-03T10:24:35.000Z</time>
      </trkpt>
      <trkpt lat="47.51715" lon="6.71029">
        <ele>408</ele>
        <time>2016-01-03T10:24:36.000Z</time>
      </trkpt>
      <trkpt lat="47.51711" lon="6.71028">
        <ele>408</ele>
        <time>2016-01-03T10:24:38.000Z</time>
      </trkpt>
      <trkpt lat="47.51709" lon="6.71027">
        <ele>408</ele>
        <time>2016-01-03T10:24:39.000Z</time>
      </trkpt>
      <trkpt lat="47.51705" lon="6.71026">
        <ele>408</ele>
        <time>2016-01-03T10:24:41.000Z</time>
      </trkpt>
      <trkpt lat="47.51703" lon="6.71026">
        <ele>409</ele>
        <time>2016-01-03T10:24:42.000Z</time>
      </trkpt>
      <trkpt lat="47.517" lon="6.71025">
        <ele>409</ele>
        <time>2016-01-03T10:24:44.000Z</time>
      </trkpt>
      <trkpt lat="47.51698" lon="6.71024">
        <ele>409</ele>
        <time>2016-01-03T10:24:45.000Z</time>
      </trkpt>
      <trkpt lat="47.51694" lon="6.71023">
        <ele>409</ele>
        <time>2016-01-03T10:24:47.000Z</time>
      </trkpt>
      <trkpt lat="47.51692" lon="6.71022">
        <ele>410</ele>
        <time>2016-01-03T10:24:48.000Z</time>
      </trkpt>
      <trkpt lat="47.51688" lon="6.71021">
        <ele>410</ele>
        <time>2016-01-03T10:24:50.000Z</time>
      </trkpt>
      <trkpt lat="47.51686" lon="6.7102">
        <ele>410</ele>
        <time>2016-01-03T10:24:51.000Z</time>
      </trkpt>
      <trkpt lat="47.51683" lon="6.71019">
        <ele>410</ele>
        <time>2016-01-03T10:24:52.000Z</time>
      </trkpt>
      <trkpt lat="47.51681" lon="6.71018">
        <ele>410</ele>
        <time>2016-01-03T10:24:53.000Z</time>
      </trkpt>
      <trkpt lat="47.51679" lon="6.71017">
        <ele>410</ele>
        <time>2016-01-03T10:24:54.000Z</time>
      </trkpt>
      <trkpt lat="47.51676" lon="6.71017">
        <ele>411</ele>
        <time>2016-01-03T10:24:55.000Z</time>
      </trkpt>
      <trkpt lat="47.51674" lon="6.71016">
        <ele>411</ele>
        <time>2016-01-03T10:24:56.000Z</time>
      </trkpt>
      <trkpt lat="47.51672" lon="6.71016">
        <ele>411</ele>
        <time>2016-01-03T10:24:57.000Z</time>
      </trkpt>
      <trkpt lat="47.51669" lon="6.71015">
        <ele>411</ele>
        <time>2016-01-03T10:24:58.000Z</time>
      </trkpt>
      <trkpt lat="47.51667" lon="6.71014">
        <ele>411</ele>
        <time>2016-01-03T10:24:59.000Z</time>
      </trkpt>
      <trkpt lat="47.51665" lon="6.71013">
        <ele>418</ele>
        <time>2016-01-03T10:25:00.000Z</time>
      </trkpt>
      <trkpt lat="47.51662" lon="6.71012">
        <ele>418</ele>
        <time>2016-01-03T10:25:01.000Z</time>
      </trkpt>
      <trkpt lat="47.51658" lon="6.71011">
        <ele>418</ele>
        <time>2016-01-03T10:25:03.000Z</time>
      </trkpt>
      <trkpt lat="47.51656" lon="6.71011">
        <ele>419</ele>
        <time>2016-01-03T10:25:04.000Z</time>
      </trkpt>
      <trkpt lat="47.51651" lon="6.7101">
        <ele>420</ele>
        <time>2016-01-03T10:25:06.000Z</time>
      </trkpt>
      <trkpt lat="47.51649" lon="6.7101">
        <ele>420</ele>
        <time>2016-01-03T10:25:07.000Z</time>
      </trkpt>
      <trkpt lat="47.51645" lon="6.71008">
        <ele>421</ele>
        <time>2016-01-03T10:25:09.000Z</time>
      </trkpt>
      <trkpt lat="47.51643" lon="6.71007">
        <ele>421</ele>
        <time>2016-01-03T10:25:10.000Z</time>
      </trkpt>
      <trkpt lat="47.5164" lon="6.71005">
        <ele>422</ele>
        <time>2016-01-03T10:25:12.000Z</time>
      </trkpt>
      <trkpt lat="47.51638" lon="6.71004">
        <ele>423</ele>
        <time>2016-01-03T10:25:13.000Z</time>
      </trkpt>
      <trkpt lat="47.51634" lon="6.71003">
        <ele>423</ele>
        <time>2016-01-03T10:25:15.000Z</time>
      </trkpt>
      <trkpt lat="47.51632" lon="6.71003">
        <ele>424</ele>
        <time>2016-01-03T10:25:16.000Z</time>
      </trkpt>
      <trkpt lat="47.51628" lon="6.71004">
        <ele>425</ele>
        <time>2016-01-03T10:25:19.000Z</time>
      </trkpt>
      <trkpt lat="47.51626" lon="6.71005">
        <ele>425</ele>
        <time>2016-01-03T10:25:20.000Z</time>
      </trkpt>
      <trkpt lat="47.51622" lon="6.71005">
        <ele>426</ele>
        <time>2016-01-03T10:25:22.000Z</time>
      </trkpt>
      <trkpt lat="47.5162" lon="6.71005">
        <ele>426</ele>
        <time>2016-01-03T10:25:23.000Z</time>
      </trkpt>
      <trkpt lat="47.51615" lon="6.71005">
        <ele>427</ele>
        <time>2016-01-03T10:25:25.000Z</time>
      </trkpt>
      <trkpt lat="47.51613" lon="6.71005">
        <ele>427</ele>
        <time>2016-01-03T10:25:26.000Z</time>
      </trkpt>
      <trkpt lat="47.51611" lon="6.71005">
        <ele>428</ele>
        <time>2016-01-03T10:25:27.000Z</time>
      </trkpt>
      <trkpt lat="47.51608" lon="6.71005">
        <ele>428</ele>
        <time>2016-01-03T10:25:28.000Z</time>
      </trkpt>
      <trkpt lat="47.51606" lon="6.71005">
        <ele>428</ele>
        <time>2016-01-03T10:25:29.000Z</time>
      </trkpt>
      <trkpt lat="47.51604" lon="6.71005">
        <ele>429</ele>
        <time>2016-01-03T10:25:30.000Z</time>
      </trkpt>
      <trkpt lat="47.516" lon="6.71006">
        <ele>430</ele>
        <time>2016-01-03T10:25:32.000Z</time>
      </trkpt>
      <trkpt lat="47.51598" lon="6.71005">
        <ele>430</ele>
        <time>2016-01-03T10:25:33.000Z</time>
      </trkpt>
      <trkpt lat="47.51594" lon="6.71003">
        <ele>431</ele>
        <time>2016-01-03T10:25:35.000Z</time>
      </trkpt>
      <trkpt lat="47.51591" lon="6.71002">
        <ele>431</ele>
        <time>2016-01-03T10:25:36.000Z</time>
      </trkpt>
      <trkpt lat="47.51589" lon="6.71001">
        <ele>432</ele>
        <time>2016-01-03T10:25:37.000Z</time>
      </trkpt>
      <trkpt lat="47.51587" lon="6.71">
        <ele>431</ele>
        <time>2016-01-03T10:25:38.000Z</time>
      </trkpt>
      <trkpt lat="47.51583" lon="6.70998">
        <ele>433</ele>
        <time>2016-01-03T10:25:40.000Z</time>
      </trkpt>
      <trkpt lat="47.51582" lon="6.70997">
        <ele>433</ele>
        <time>2016-01-03T10:25:41.000Z</time>
      </trkpt>
      <trkpt lat="47.51578" lon="6.70995">
        <ele>433</ele>
        <time>2016-01-03T10:25:43.000Z</time>
      </trkpt>
      <trkpt lat="47.51576" lon="6.70995">
        <ele>433</ele>
        <time>2016-01-03T10:25:44.000Z</time>
      </trkpt>
      <trkpt lat="47.51572" lon="6.70995">
        <ele>433</ele>
        <time>2016-01-03T10:25:46.000Z</time>
      </trkpt>
      <trkpt lat="47.5157" lon="6.70994">
        <ele>433</ele>
        <time>2016-01-03T10:25:47.000Z</time>
      </trkpt>
      <trkpt lat="47.51566" lon="6.70992">
        <ele>433</ele>
        <time>2016-01-03T10:25:49.000Z</time>
      </trkpt>
      <trkpt lat="47.51564" lon="6.70991">
        <ele>433</ele>
        <time>2016-01-03T10:25:50.000Z</time>
      </trkpt>
      <trkpt lat="47.51561" lon="6.70991">
        <ele>433</ele>
        <time>2016-01-03T10:25:52.000Z</time>
      </trkpt>
      <trkpt lat="47.51559" lon="6.70991">
        <ele>433</ele>
        <time>2016-01-03T10:25:53.000Z</time>
      </trkpt>
      <trkpt lat="47.51556" lon="6.70992">
        <ele>433</ele>
        <time>2016-01-03T10:25:55.000Z</time>
      </trkpt>
      <trkpt lat="47.51554" lon="6.70991">
        <ele>433</ele>
        <time>2016-01-03T10:25:56.000Z</time>
      </trkpt>
      <trkpt lat="47.51551" lon="6.7099">
        <ele>434</ele>
        <time>2016-01-03T10:25:58.000Z</time>
      </trkpt>
      <trkpt lat="47.51549" lon="6.70989">
        <ele>434</ele>
        <time>2016-01-03T10:25:59.000Z</time>
      </trkpt>
      <trkpt lat="47.51545" lon="6.70988">
        <ele>434</ele>
        <time>2016-01-03T10:26:01.000Z</time>
      </trkpt>
      <trkpt lat="47.51542" lon="6.70987">
        <ele>434</ele>
        <time>2016-01-03T10:26:02.000Z</time>
      </trkpt>
      <trkpt lat="47.51538" lon="6.70986">
        <ele>434</ele>
        <time>2016-01-03T10:26:04.000Z</time>
      </trkpt>
      <trkpt lat="47.51536" lon="6.70986">
        <ele>435</ele>
        <time>2016-01-03T10:26:05.000Z</time>
      </trkpt>
      <trkpt lat="47.51533" lon="6.70985">
        <ele>435</ele>
        <time>2016-01-03T10:26:07.000Z</time>
      </trkpt>
      <trkpt lat="47.51531" lon="6.70984">
        <ele>435</ele>
        <time>2016-01-03T10:26:08.000Z</time>
      </trkpt>
      <trkpt lat="47.51527" lon="6.70981">
        <ele>435</ele>
        <time>2016-01-03T10:26:10.000Z</time>
      </trkpt>
      <trkpt lat="47.51526" lon="6.7098">
        <ele>435</ele>
        <time>2016-01-03T10:26:11.000Z</time>
      </trkpt>
      <trkpt lat="47.51522" lon="6.70979">
        <ele>436</ele>
        <time>2016-01-03T10:26:13.000Z</time>
      </trkpt>
      <trkpt lat="47.51521" lon="6.70979">
        <ele>436</ele>
        <time>2016-01-03T10:26:14.000Z</time>
      </trkpt>
      <trkpt lat="47.51517" lon="6.70979">
        <ele>436</ele>
        <time>2016-01-03T10:26:16.000Z</time>
      </trkpt>
      <trkpt lat="47.51515" lon="6.70979">
        <ele>436</ele>
        <time>2016-01-03T10:26:17.000Z</time>
      </trkpt>
      <trkpt lat="47.51511" lon="6.70977">
        <ele>436</ele>
        <time>2016-01-03T10:26:19.000Z</time>
      </trkpt>
      <trkpt lat="47.51508" lon="6.70977">
        <ele>437</ele>
        <time>2016-01-03T10:26:20.000Z</time>
      </trkpt>
      <trkpt lat="47.51506" lon="6.70976">
        <ele>437</ele>
        <time>2016-01-03T10:26:21.000Z</time>
      </trkpt>
      <trkpt lat="47.51504" lon="6.70975">
        <ele>437</ele>
        <time>2016-01-03T10:26:22.000Z</time>
      </trkpt>
      <trkpt lat="47.51501" lon="6.70974">
        <ele>436</ele>
        <time>2016-01-03T10:26:23.000Z</time>
      </trkpt>
      <trkpt lat="47.51499" lon="6.70973">
        <ele>443</ele>
        <time>2016-01-03T10:26:24.000Z</time>
      </trkpt>
      <trkpt lat="47.51495" lon="6.70972">
        <ele>443</ele>
        <time>2016-01-03T10:26:26.000Z</time>
      </trkpt>
      <trkpt lat="47.51493" lon="6.70971">
        <ele>443</ele>
        <time>2016-01-03T10:26:27.000Z</time>
      </trkpt>
      <trkpt lat="47.51489" lon="6.70971">
        <ele>443</ele>
        <time>2016-01-03T10:26:29.000Z</time>
      </trkpt>
      <trkpt lat="47.51487" lon="6.70971">
        <ele>443</ele>
        <time>2016-01-03T10:26:30.000Z</time>
      </trkpt>
      <trkpt lat="47.51483" lon="6.70971">
        <ele>443</ele>
        <time>2016-01-03T10:26:32.000Z</time>
      </trkpt>
      <trkpt lat="47.51481" lon="6.70971">
        <ele>444</ele>
        <time>2016-01-03T10:26:33.000Z</time>
      </trkpt>
      <trkpt lat="47.51478" lon="6.70971">
        <ele>444</ele>
        <time>2016-01-03T10:26:35.000Z</time>
      </trkpt>
      <trkpt lat="47.51476" lon="6.70971">
        <ele>444</ele>
        <time>2016-01-03T10:26:36.000Z</time>
      </trkpt>
      <trkpt lat="47.51472" lon="6.70971">
        <ele>444</ele>
        <time>2016-01-03T10:26:38.000Z</time>
      </trkpt>
      <trkpt lat="47.51471" lon="6.7097">
        <ele>444</ele>
        <time>2016-01-03T10:26:39.000Z</time>
      </trkpt>
      <trkpt lat="47.51467" lon="6.70969">
        <ele>444</ele>
        <time>2016-01-03T10:26:41.000Z</time>
      </trkpt>
      <trkpt lat="47.51465" lon="6.70969">
        <ele>444</ele>
        <time>2016-01-03T10:26:42.000Z</time>
      </trkpt>
      <trkpt lat="47.51461" lon="6.70968">
        <ele>445</ele>
        <time>2016-01-03T10:26:44.000Z</time>
      </trkpt>
      <trkpt lat="47.5146" lon="6.70967">
        <ele>445</ele>
        <time>2016-01-03T10:26:45.000Z</time>
      </trkpt>
      <trkpt lat="47.51456" lon="6.70967">
        <ele>445</ele>
        <time>2016-01-03T10:26:47.000Z</time>
      </trkpt>
      <trkpt lat="47.51454" lon="6.70966">
        <ele>445</ele>
        <time>2016-01-03T10:26:48.000Z</time>
      </trkpt>
      <trkpt lat="47.5145" lon="6.70965">
        <ele>445</ele>
        <time>2016-01-03T10:26:51.000Z</time>
      </trkpt>
      <trkpt lat="47.51448" lon="6.70965">
        <ele>445</ele>
        <time>2016-01-03T10:26:52.000Z</time>
      </trkpt>
      <trkpt lat="47.51444" lon="6.70964">
        <ele>446</ele>
        <time>2016-01-03T10:26:54.000Z</time>
      </trkpt>
      <trkpt lat="47.51442" lon="6.70963">
        <ele>446</ele>
        <time>2016-01-03T10:26:55.000Z</time>
      </trkpt>
      <trkpt lat="47.51439" lon="6.7096">
        <ele>446</ele>
        <time>2016-01-03T10:26:57.000Z</time>
      </trkpt>
      <trkpt lat="47.51437" lon="6.70959">
        <ele>446</ele>
        <time>2016-01-03T10:26:58.000Z</time>
      </trkpt>
      <trkpt lat="47.51433" lon="6.70958">
        <ele>446</ele>
        <time>2016-01-03T10:27:00.000Z</time>
      </trkpt>
      <trkpt lat="47.51431" lon="6.70957">
        <ele>446</ele>
        <time>2016-01-03T10:27:01.000Z</time>
      </trkpt>
      <trkpt lat="47.51427" lon="6.70956">
        <ele>446</ele>
        <time>2016-01-03T10:27:03.000Z</time>
      </trkpt>
      <trkpt lat="47.51425" lon="6.70956">
        <ele>446</ele>
        <time>2016-01-03T10:27:04.000Z</time>
      </trkpt>
      <trkpt lat="47.51422" lon="6.70956">
        <ele>447</ele>
        <time>2016-01-03T10:27:06.000Z</time>
      </trkpt>
      <trkpt lat="47.5142" lon="6.70956">
        <ele>447</ele>
        <time>2016-01-03T10:27:07.000Z</time>
      </trkpt>
      <trkpt lat="47.51416" lon="6.70956">
        <ele>453</ele>
        <time>2016-01-03T10:27:09.000Z</time>
      </trkpt>
      <trkpt lat="47.51415" lon="6.70956">
        <ele>453</ele>
        <time>2016-01-03T10:27:10.000Z</time>
      </trkpt>
      <trkpt lat="47.51411" lon="6.70956">
        <ele>453</ele>
        <time>2016-01-03T10:27:12.000Z</time>
      </trkpt>
      <trkpt lat="47.51409" lon="6.70956">
        <ele>453</ele>
        <time>2016-01-03T10:27:13.000Z</time>
      </trkpt>
      <trkpt lat="47.51405" lon="6.70956">
        <ele>453</ele>
        <time>2016-01-03T10:27:15.000Z</time>
      </trkpt>
      <trkpt lat="47.51403" lon="6.70956">
        <ele>453</ele>
        <time>2016-01-03T10:27:16.000Z</time>
      </trkpt>
      <trkpt lat="47.51399" lon="6.70956">
        <ele>453</ele>
        <time>2016-01-03T10:27:18.000Z</time>
      </trkpt>
      <trkpt lat="47.51396" lon="6.70955">
        <ele>453</ele>
        <time>2016-01-03T10:27:19.000Z</time>
      </trkpt>
      <trkpt lat="47.51394" lon="6.70955">
        <ele>454</ele>
        <time>2016-01-03T10:27:20.000Z</time>
      </trkpt>
      <trkpt lat="47.51392" lon="6.70954">
        <ele>454</ele>
        <time>2016-01-03T10:27:21.000Z</time>
      </trkpt>
      <trkpt lat="47.51388" lon="6.70953">
        <ele>454</ele>
        <time>2016-01-03T10:27:23.000Z</time>
      </trkpt>
      <trkpt lat="47.51386" lon="6.70953">
        <ele>454</ele>
        <time>2016-01-03T10:27:24.000Z</time>
      </trkpt>
      <trkpt lat="47.51383" lon="6.70953">
        <ele>454</ele>
        <time>2016-01-03T10:27:25.000Z</time>
      </trkpt>
      <trkpt lat="47.51381" lon="6.70953">
        <ele>454</ele>
        <time>2016-01-03T10:27:26.000Z</time>
      </trkpt>
      <trkpt lat="47.51379" lon="6.70952">
        <ele>454</ele>
        <time>2016-01-03T10:27:27.000Z</time>
      </trkpt>
      <trkpt lat="47.51376" lon="6.70952">
        <ele>454</ele>
        <time>2016-01-03T10:27:28.000Z</time>
      </trkpt>
      <trkpt lat="47.51374" lon="6.70951">
        <ele>454</ele>
        <time>2016-01-03T10:27:29.000Z</time>
      </trkpt>
      <trkpt lat="47.51372" lon="6.7095">
        <ele>454</ele>
        <time>2016-01-03T10:27:30.000Z</time>
      </trkpt>
      <trkpt lat="47.51368" lon="6.70947">
        <ele>455</ele>
        <time>2016-01-03T10:27:32.000Z</time>
      </trkpt>
      <trkpt lat="47.51366" lon="6.70946">
        <ele>455</ele>
        <time>2016-01-03T10:27:33.000Z</time>
      </trkpt>
      <trkpt lat="47.51363" lon="6.70943">
        <ele>455</ele>
        <time>2016-01-03T10:27:35.000Z</time>
      </trkpt>
      <trkpt lat="47.51361" lon="6.70942">
        <ele>455</ele>
        <time>2016-01-03T10:27:36.000Z</time>
      </trkpt>
      <trkpt lat="47.51357" lon="6.7094">
        <ele>455</ele>
        <time>2016-01-03T10:27:38.000Z</time>
      </trkpt>
      <trkpt lat="47.51356" lon="6.70939">
        <ele>455</ele>
        <time>2016-01-03T10:27:39.000Z</time>
      </trkpt>
      <trkpt lat="47.51352" lon="6.70937">
        <ele>455</ele>
        <time>2016-01-03T10:27:41.000Z</time>
      </trkpt>
      <trkpt lat="47.51351" lon="6.70936">
        <ele>455</ele>
        <time>2016-01-03T10:27:42.000Z</time>
      </trkpt>
      <trkpt lat="47.51347" lon="6.70936">
        <ele>456</ele>
        <time>2016-01-03T10:27:44.000Z</time>
      </trkpt>
      <trkpt lat="47.51345" lon="6.70936">
        <ele>456</ele>
        <time>2016-01-03T10:27:45.000Z</time>
      </trkpt>
      <trkpt lat="47.51342" lon="6.70935">
        <ele>456</ele>
        <time>2016-01-03T10:27:47.000Z</time>
      </trkpt>
      <trkpt lat="47.5134" lon="6.70934">
        <ele>456</ele>
        <time>2016-01-03T10:27:48.000Z</time>
      </trkpt>
      <trkpt lat="47.51336" lon="6.70932">
        <ele>456</ele>
        <time>2016-01-03T10:27:50.000Z</time>
      </trkpt>
      <trkpt lat="47.51334" lon="6.70932">
        <ele>456</ele>
        <time>2016-01-03T10:27:51.000Z</time>
      </trkpt>
      <trkpt lat="47.51329" lon="6.70931">
        <ele>456</ele>
        <time>2016-01-03T10:27:53.000Z</time>
      </trkpt>
      <trkpt lat="47.51327" lon="6.7093">
        <ele>456</ele>
        <time>2016-01-03T10:27:54.000Z</time>
      </trkpt>
      <trkpt lat="47.51324" lon="6.70929">
        <ele>456</ele>
        <time>2016-01-03T10:27:56.000Z</time>
      </trkpt>
      <trkpt lat="47.51323" lon="6.70928">
        <ele>456</ele>
        <time>2016-01-03T10:27:57.000Z</time>
      </trkpt>
      <trkpt lat="47.5132" lon="6.70926">
        <ele>456</ele>
        <time>2016-01-03T10:27:59.000Z</time>
      </trkpt>
      <trkpt lat="47.51318" lon="6.70926">
        <ele>456</ele>
        <time>2016-01-03T10:28:00.000Z</time>
      </trkpt>
      <trkpt lat="47.51313" lon="6.70927">
        <ele>456</ele>
        <time>2016-01-03T10:28:02.000Z</time>
      </trkpt>
      <trkpt lat="47.51311" lon="6.70928">
        <ele>456</ele>
        <time>2016-01-03T10:28:03.000Z</time>
      </trkpt>
      <trkpt lat="47.51307" lon="6.70929">
        <ele>456</ele>
        <time>2016-01-03T10:28:05.000Z</time>
      </trkpt>
      <trkpt lat="47.51305" lon="6.7093">
        <ele>456</ele>
        <time>2016-01-03T10:28:06.000Z</time>
      </trkpt>
      <trkpt lat="47.51302" lon="6.70932">
        <ele>455</ele>
        <time>2016-01-03T10:28:09.000Z</time>
      </trkpt>
      <trkpt lat="47.51301" lon="6.70933">
        <ele>455</ele>
        <time>2016-01-03T10:28:10.000Z</time>
      </trkpt>
      <trkpt lat="47.51298" lon="6.70935">
        <ele>455</ele>
        <time>2016-01-03T10:28:14.000Z</time>
      </trkpt>
      <trkpt lat="47.51296" lon="6.70936">
        <ele>455</ele>
        <time>2016-01-03T10:28:15.000Z</time>
      </trkpt>
      <trkpt lat="47.51292" lon="6.70936">
        <ele>455</ele>
        <time>2016-01-03T10:28:18.000Z</time>
      </trkpt>
      <trkpt lat="47.51291" lon="6.70935">
        <ele>455</ele>
        <time>2016-01-03T10:28:19.000Z</time>
      </trkpt>
      <trkpt lat="47.51287" lon="6.70935">
        <ele>455</ele>
        <time>2016-01-03T10:28:22.000Z</time>
      </trkpt>
      <trkpt lat="47.51286" lon="6.70935">
        <ele>455</ele>
        <time>2016-01-03T10:28:23.000Z</time>
      </trkpt>
      <trkpt lat="47.51282" lon="6.70936">
        <ele>454</ele>
        <time>2016-01-03T10:28:26.000Z</time>
      </trkpt>
      <trkpt lat="47.5128" lon="6.70936">
        <ele>454</ele>
        <time>2016-01-03T10:28:27.000Z</time>
      </trkpt>
      <trkpt lat="47.51276" lon="6.70935">
        <ele>454</ele>
        <time>2016-01-03T10:28:30.000Z</time>
      </trkpt>
      <trkpt lat="47.51275" lon="6.70935">
        <ele>454</ele>
        <time>2016-01-03T10:28:31.000Z</time>
      </trkpt>
      <trkpt lat="47.51271" lon="6.70938">
        <ele>454</ele>
        <time>2016-01-03T10:28:37.000Z</time>
      </trkpt>
      <trkpt lat="47.51271" lon="6.70939">
        <ele>454</ele>
        <time>2016-01-03T10:28:38.000Z</time>
      </trkpt>
      <trkpt lat="47.51274" lon="6.70942">
        <ele>454</ele>
        <time>2016-01-03T10:28:50.000Z</time>
      </trkpt>
      <trkpt lat="47.51275" lon="6.70942">
        <ele>454</ele>
        <time>2016-01-03T10:28:51.000Z</time>
      </trkpt>
      <trkpt lat="47.51279" lon="6.70942">
        <ele>454</ele>
        <time>2016-01-03T10:28:55.000Z</time>
      </trkpt>
      <trkpt lat="47.5128" lon="6.70942">
        <ele>454</ele>
        <time>2016-01-03T10:28:56.000Z</time>
      </trkpt>
      <trkpt lat="47.5128" lon="6.70949">
        <ele>455</ele>
        <time>2016-01-03T10:29:09.000Z</time>
      </trkpt>
      <trkpt lat="47.5128" lon="6.70949">
        <ele>455</ele>
        <time>2016-01-03T10:29:10.000Z</time>
      </trkpt>
      <trkpt lat="47.5128" lon="6.70954">
        <ele>455</ele>
        <time>2016-01-03T10:31:39.000Z</time>
      </trkpt>
      <trkpt lat="47.51281" lon="6.70956">
        <ele>455</ele>
        <time>2016-01-03T10:31:40.000Z</time>
      </trkpt>
      <trkpt lat="47.51282" lon="6.70962">
        <ele>455</ele>
        <time>2016-01-03T10:31:43.000Z</time>
      </trkpt>
      <trkpt lat="47.51282" lon="6.70964">
        <ele>455</ele>
        <time>2016-01-03T10:31:44.000Z</time>
      </trkpt>
      <trkpt lat="47.51282" lon="6.70968">
        <ele>455</ele>
        <time>2016-01-03T10:31:46.000Z</time>
      </trkpt>
      <trkpt lat="47.51281" lon="6.7097">
        <ele>455</ele>
        <time>2016-01-03T10:31:47.000Z</time>
      </trkpt>
      <trkpt lat="47.5128" lon="6.70975">
        <ele>455</ele>
        <time>2016-01-03T10:31:49.000Z</time>
      </trkpt>
      <trkpt lat="47.5128" lon="6.70977">
        <ele>455</ele>
        <time>2016-01-03T10:31:50.000Z</time>
      </trkpt>
      <trkpt lat="47.51279" lon="6.70982">
        <ele>455</ele>
        <time>2016-01-03T10:31:52.000Z</time>
      </trkpt>
      <trkpt lat="47.51279" lon="6.70985">
        <ele>455</ele>
        <time>2016-01-03T10:31:53.000Z</time>
      </trkpt>
      <trkpt lat="47.51279" lon="6.70989">
        <ele>455</ele>
        <time>2016-01-03T10:31:55.000Z</time>
      </trkpt>
      <trkpt lat="47.5128" lon="6.70992">
        <ele>455</ele>
        <time>2016-01-03T10:31:56.000Z</time>
      </trkpt>
      <trkpt lat="47.5128" lon="6.70997">
        <ele>455</ele>
        <time>2016-01-03T10:31:58.000Z</time>
      </trkpt>
      <trkpt lat="47.5128" lon="6.71">
        <ele>456</ele>
        <time>2016-01-03T10:31:59.000Z</time>
      </trkpt>
      <trkpt lat="47.51279" lon="6.71004">
        <ele>456</ele>
        <time>2016-01-03T10:32:00.000Z</time>
      </trkpt>
      <trkpt lat="47.51279" lon="6.71007">
        <ele>457</ele>
        <time>2016-01-03T10:32:01.000Z</time>
      </trkpt>
      <trkpt lat="47.51279" lon="6.71011">
        <ele>457</ele>
        <time>2016-01-03T10:32:02.000Z</time>
      </trkpt>
      <trkpt lat="47.51279" lon="6.71014">
        <ele>457</ele>
        <time>2016-01-03T10:32:03.000Z</time>
      </trkpt>
      <trkpt lat="47.5128" lon="6.71018">
        <ele>457</ele>
        <time>2016-01-03T10:32:04.000Z</time>
      </trkpt>
      <trkpt lat="47.5128" lon="6.71021">
        <ele>457</ele>
        <time>2016-01-03T10:32:05.000Z</time>
      </trkpt>
      <trkpt lat="47.5128" lon="6.71027">
        <ele>457</ele>
        <time>2016-01-03T10:32:07.000Z</time>
      </trkpt>
      <trkpt lat="47.5128" lon="6.71029">
        <ele>457</ele>
        <time>2016-01-03T10:32:08.000Z</time>
      </trkpt>
      <trkpt lat="47.5128" lon="6.71034">
        <ele>457</ele>
        <time>2016-01-03T10:32:10.000Z</time>
      </trkpt>
      <trkpt lat="47.5128" lon="6.71037">
        <ele>457</ele>
        <time>2016-01-03T10:32:11.000Z</time>
      </trkpt>
      <trkpt lat="47.5128" lon="6.7104">
        <ele>457</ele>
        <time>2016-01-03T10:32:12.000Z</time>
      </trkpt>
      <trkpt lat="47.5128" lon="6.71044">
        <ele>457</ele>
        <time>2016-01-03T10:32:13.000Z</time>
      </trkpt>
      <trkpt lat="47.5128" lon="6.7105">
        <ele>457</ele>
        <time>2016-01-03T10:32:15.000Z</time>
      </trkpt>
      <trkpt lat="47.5128" lon="6.71053">
        <ele>457</ele>
        <time>2016-01-03T10:32:16.000Z</time>
      </trkpt>
      <trkpt lat="47.5128" lon="6.71057">
        <ele>458</ele>
        <time>2016-01-03T10:32:18.000Z</time>
      </trkpt>
      <trkpt lat="47.5128" lon="6.7106">
        <ele>458</ele>
        <time>2016-01-03T10:32:19.000Z</time>
      </trkpt>
      <trkpt lat="47.5128" lon="6.71063">
        <ele>458</ele>
        <time>2016-01-03T10:32:20.000Z</time>
      </trkpt>
      <trkpt lat="47.51279" lon="6.71067">
        <ele>458</ele>
        <time>2016-01-03T10:32:21.000Z</time>
      </trkpt>
      <trkpt lat="47.51279" lon="6.7107">
        <ele>458</ele>
        <time>2016-01-03T10:32:22.000Z</time>
      </trkpt>
      <trkpt lat="47.51279" lon="6.71074">
        <ele>458</ele>
        <time>2016-01-03T10:32:23.000Z</time>
      </trkpt>
      <trkpt lat="47.51279" lon="6.71078">
        <ele>458</ele>
        <time>2016-01-03T10:32:24.000Z</time>
      </trkpt>
      <trkpt lat="47.51278" lon="6.71083">
        <ele>458</ele>
        <time>2016-01-03T10:32:25.000Z</time>
      </trkpt>
      <trkpt lat="47.51278" lon="6.71089">
        <ele>458</ele>
        <time>2016-01-03T10:32:26.000Z</time>
      </trkpt>
      <trkpt lat="47.51277" lon="6.71095">
        <ele>458</ele>
        <time>2016-01-03T10:32:27.000Z</time>
      </trkpt>
      <trkpt lat="47.51276" lon="6.71101">
        <ele>458</ele>
        <time>2016-01-03T10:32:28.000Z</time>
      </trkpt>
      <trkpt lat="47.51275" lon="6.71107">
        <ele>458</ele>
        <time>2016-01-03T10:32:29.000Z</time>
      </trkpt>
      <trkpt lat="47.51275" lon="6.71113">
        <ele>458</ele>
        <time>2016-01-03T10:32:30.000Z</time>
      </trkpt>
      <trkpt lat="47.51275" lon="6.71119">
        <ele>458</ele>
        <time>2016-01-03T10:32:31.000Z</time>
      </trkpt>
      <trkpt lat="47.51275" lon="6.71126">
        <ele>458</ele>
        <time>2016-01-03T10:32:32.000Z</time>
      </trkpt>
      <trkpt lat="47.51275" lon="6.71133">
        <ele>458</ele>
        <time>2016-01-03T10:32:33.000Z</time>
      </trkpt>
      <trkpt lat="47.51275" lon="6.7114">
        <ele>458</ele>
        <time>2016-01-03T10:32:34.000Z</time>
      </trkpt>
      <trkpt lat="47.51275" lon="6.71148">
        <ele>457</ele>
        <time>2016-01-03T10:32:35.000Z</time>
      </trkpt>
      <trkpt lat="47.51274" lon="6.71155">
        <ele>457</ele>
        <time>2016-01-03T10:32:36.000Z</time>
      </trkpt>
      <trkpt lat="47.51274" lon="6.71163">
        <ele>457</ele>
        <time>2016-01-03T10:32:37.000Z</time>
      </trkpt>
      <trkpt lat="47.51271" lon="6.71182">
        <ele>457</ele>
        <time>2016-01-03T10:32:38.000Z</time>
      </trkpt>
      <trkpt lat="47.51269" lon="6.71192">
        <ele>457</ele>
        <time>2016-01-03T10:32:39.000Z</time>
      </trkpt>
      <trkpt lat="47.51268" lon="6.71203">
        <ele>457</ele>
        <time>2016-01-03T10:32:40.000Z</time>
      </trkpt>
      <trkpt lat="47.51267" lon="6.71215">
        <ele>458</ele>
        <time>2016-01-03T10:32:41.000Z</time>
      </trkpt>
      <trkpt lat="47.51267" lon="6.71227">
        <ele>458</ele>
        <time>2016-01-03T10:32:42.000Z</time>
      </trkpt>
      <trkpt lat="47.51264" lon="6.71237">
        <ele>457</ele>
        <time>2016-01-03T10:32:43.000Z</time>
      </trkpt>
      <trkpt lat="47.51263" lon="6.71246">
        <ele>457</ele>
        <time>2016-01-03T10:32:44.000Z</time>
      </trkpt>
      <trkpt lat="47.51261" lon="6.71253">
        <ele>457</ele>
        <time>2016-01-03T10:32:45.000Z</time>
      </trkpt>
      <trkpt lat="47.5126" lon="6.71262">
        <ele>457</ele>
        <time>2016-01-03T10:32:46.000Z</time>
      </trkpt>
      <trkpt lat="47.5126" lon="6.71271">
        <ele>457</ele>
        <time>2016-01-03T10:32:47.000Z</time>
      </trkpt>
      <trkpt lat="47.51261" lon="6.71283">
        <ele>457</ele>
        <time>2016-01-03T10:32:48.000Z</time>
      </trkpt>
      <trkpt lat="47.51262" lon="6.71293">
        <ele>457</ele>
        <time>2016-01-03T10:32:49.000Z</time>
      </trkpt>
      <trkpt lat="47.51262" lon="6.71302">
        <ele>457</ele>
        <time>2016-01-03T10:32:50.000Z</time>
      </trkpt>
      <trkpt lat="47.51261" lon="6.71311">
        <ele>457</ele>
        <time>2016-01-03T10:32:51.000Z</time>
      </trkpt>
      <trkpt lat="47.51261" lon="6.7132">
        <ele>457</ele>
        <time>2016-01-03T10:32:52.000Z</time>
      </trkpt>
      <trkpt lat="47.51259" lon="6.71329">
        <ele>456</ele>
        <time>2016-01-03T10:32:53.000Z</time>
      </trkpt>
      <trkpt lat="47.51259" lon="6.7134">
        <ele>456</ele>
        <time>2016-01-03T10:32:54.000Z</time>
      </trkpt>
      <trkpt lat="47.51258" lon="6.71349">
        <ele>456</ele>
        <time>2016-01-03T10:32:55.000Z</time>
      </trkpt>
      <trkpt lat="47.51259" lon="6.71358">
        <ele>456</ele>
        <time>2016-01-03T10:32:56.000Z</time>
      </trkpt>
      <trkpt lat="47.51259" lon="6.71364">
        <ele>455</ele>
        <time>2016-01-03T10:32:57.000Z</time>
      </trkpt>
      <trkpt lat="47.5126" lon="6.71372">
        <ele>455</ele>
        <time>2016-01-03T10:32:58.000Z</time>
      </trkpt>
      <trkpt lat="47.5126" lon="6.71379">
        <ele>455</ele>
        <time>2016-01-03T10:32:59.000Z</time>
      </trkpt>
      <trkpt lat="47.51258" lon="6.71387">
        <ele>455</ele>
        <time>2016-01-03T10:33:00.000Z</time>
      </trkpt>
      <trkpt lat="47.51259" lon="6.71396">
        <ele>455</ele>
        <time>2016-01-03T10:33:01.000Z</time>
      </trkpt>
      <trkpt lat="47.51258" lon="6.71403">
        <ele>455</ele>
        <time>2016-01-03T10:33:02.000Z</time>
      </trkpt>
      <trkpt lat="47.51258" lon="6.71408">
        <ele>455</ele>
        <time>2016-01-03T10:33:03.000Z</time>
      </trkpt>
      <trkpt lat="47.51257" lon="6.71414">
        <ele>455</ele>
        <time>2016-01-03T10:33:04.000Z</time>
      </trkpt>
      <trkpt lat="47.51256" lon="6.7142">
        <ele>455</ele>
        <time>2016-01-03T10:33:05.000Z</time>
      </trkpt>
      <trkpt lat="47.51255" lon="6.71425">
        <ele>455</ele>
        <time>2016-01-03T10:33:06.000Z</time>
      </trkpt>
      <trkpt lat="47.51255" lon="6.7143">
        <ele>455</ele>
        <time>2016-01-03T10:33:07.000Z</time>
      </trkpt>
      <trkpt lat="47.51254" lon="6.71434">
        <ele>455</ele>
        <time>2016-01-03T10:33:08.000Z</time>
      </trkpt>
      <trkpt lat="47.51254" lon="6.71438">
        <ele>455</ele>
        <time>2016-01-03T10:33:09.000Z</time>
      </trkpt>
      <trkpt lat="47.51255" lon="6.71441">
        <ele>455</ele>
        <time>2016-01-03T10:33:10.000Z</time>
      </trkpt>
      <trkpt lat="47.51256" lon="6.71447">
        <ele>455</ele>
        <time>2016-01-03T10:33:12.000Z</time>
      </trkpt>
      <trkpt lat="47.51256" lon="6.7145">
        <ele>455</ele>
        <time>2016-01-03T10:33:13.000Z</time>
      </trkpt>
      <trkpt lat="47.51257" lon="6.71456">
        <ele>455</ele>
        <time>2016-01-03T10:33:15.000Z</time>
      </trkpt>
      <trkpt lat="47.51256" lon="6.7146">
        <ele>455</ele>
        <time>2016-01-03T10:33:16.000Z</time>
      </trkpt>
      <trkpt lat="47.51255" lon="6.71464">
        <ele>455</ele>
        <time>2016-01-03T10:33:17.000Z</time>
      </trkpt>
      <trkpt lat="47.51253" lon="6.71469">
        <ele>455</ele>
        <time>2016-01-03T10:33:18.000Z</time>
      </trkpt>
      <trkpt lat="47.51252" lon="6.71475">
        <ele>455</ele>
        <time>2016-01-03T10:33:19.000Z</time>
      </trkpt>
      <trkpt lat="47.5125" lon="6.7148">
        <ele>455</ele>
        <time>2016-01-03T10:33:20.000Z</time>
      </trkpt>
      <trkpt lat="47.51249" lon="6.71486">
        <ele>454</ele>
        <time>2016-01-03T10:33:21.000Z</time>
      </trkpt>
      <trkpt lat="47.51249" lon="6.71492">
        <ele>455</ele>
        <time>2016-01-03T10:33:22.000Z</time>
      </trkpt>
      <trkpt lat="47.51248" lon="6.71497">
        <ele>455</ele>
        <time>2016-01-03T10:33:23.000Z</time>
      </trkpt>
      <trkpt lat="47.51248" lon="6.71502">
        <ele>456</ele>
        <time>2016-01-03T10:33:24.000Z</time>
      </trkpt>
      <trkpt lat="47.51248" lon="6.71508">
        <ele>455</ele>
        <time>2016-01-03T10:33:25.000Z</time>
      </trkpt>
      <trkpt lat="47.51247" lon="6.71514">
        <ele>455</ele>
        <time>2016-01-03T10:33:26.000Z</time>
      </trkpt>
      <trkpt lat="47.51247" lon="6.7152">
        <ele>455</ele>
        <time>2016-01-03T10:33:27.000Z</time>
      </trkpt>
      <trkpt lat="47.51246" lon="6.71526">
        <ele>455</ele>
        <time>2016-01-03T10:33:28.000Z</time>
      </trkpt>
      <trkpt lat="47.51245" lon="6.71532">
        <ele>455</ele>
        <time>2016-01-03T10:33:29.000Z</time>
      </trkpt>
      <trkpt lat="47.51244" lon="6.71538">
        <ele>455</ele>
        <time>2016-01-03T10:33:30.000Z</time>
      </trkpt>
      <trkpt lat="47.5124" lon="6.71551">
        <ele>455</ele>
        <time>2016-01-03T10:33:31.000Z</time>
      </trkpt>
      <trkpt lat="47.51239" lon="6.71557">
        <ele>455</ele>
        <time>2016-01-03T10:33:32.000Z</time>
      </trkpt>
      <trkpt lat="47.51237" lon="6.71562">
        <ele>455</ele>
        <time>2016-01-03T10:33:33.000Z</time>
      </trkpt>
      <trkpt lat="47.51236" lon="6.71568">
        <ele>455</ele>
        <time>2016-01-03T10:33:34.000Z</time>
      </trkpt>
      <trkpt lat="47.51237" lon="6.71576">
        <ele>456</ele>
        <time>2016-01-03T10:33:35.000Z</time>
      </trkpt>
      <trkpt lat="47.51237" lon="6.71581">
        <ele>456</ele>
        <time>2016-01-03T10:33:36.000Z</time>
      </trkpt>
      <trkpt lat="47.51237" lon="6.71587">
        <ele>456</ele>
        <time>2016-01-03T10:33:37.000Z</time>
      </trkpt>
      <trkpt lat="47.51237" lon="6.71593">
        <ele>456</ele>
        <time>2016-01-03T10:33:38.000Z</time>
      </trkpt>
      <trkpt lat="47.51237" lon="6.71598">
        <ele>456</ele>
        <time>2016-01-03T10:33:39.000Z</time>
      </trkpt>
      <trkpt lat="47.51237" lon="6.71603">
        <ele>456</ele>
        <time>2016-01-03T10:33:40.000Z</time>
      </trkpt>
      <trkpt lat="47.51237" lon="6.7161">
        <ele>455</ele>
        <time>2016-01-03T10:33:41.000Z</time>
      </trkpt>
      <trkpt lat="47.51237" lon="6.71616">
        <ele>455</ele>
        <time>2016-01-03T10:33:42.000Z</time>
      </trkpt>
      <trkpt lat="47.51237" lon="6.71622">
        <ele>455</ele>
        <time>2016-01-03T10:33:43.000Z</time>
      </trkpt>
      <trkpt lat="47.51236" lon="6.71628">
        <ele>455</ele>
        <time>2016-01-03T10:33:44.000Z</time>
      </trkpt>
      <trkpt lat="47.51235" lon="6.71634">
        <ele>455</ele>
        <time>2016-01-03T10:33:45.000Z</time>
      </trkpt>
      <trkpt lat="47.51235" lon="6.71639">
        <ele>455</ele>
        <time>2016-01-03T10:33:46.000Z</time>
      </trkpt>
      <trkpt lat="47.51235" lon="6.71644">
        <ele>455</ele>
        <time>2016-01-03T10:33:47.000Z</time>
      </trkpt>
      <trkpt lat="47.51235" lon="6.71649">
        <ele>455</ele>
        <time>2016-01-03T10:33:48.000Z</time>
      </trkpt>
      <trkpt lat="47.51236" lon="6.71654">
        <ele>455</ele>
        <time>2016-01-03T10:33:49.000Z</time>
      </trkpt>
      <trkpt lat="47.51237" lon="6.71658">
        <ele>456</ele>
        <time>2016-01-03T10:33:50.000Z</time>
      </trkpt>
      <trkpt lat="47.51238" lon="6.71662">
        <ele>456</ele>
        <time>2016-01-03T10:33:51.000Z</time>
      </trkpt>
      <trkpt lat="47.51239" lon="6.71667">
        <ele>456</ele>
        <time>2016-01-03T10:33:52.000Z</time>
      </trkpt>
      <trkpt lat="47.5124" lon="6.71673">
        <ele>456</ele>
        <time>2016-01-03T10:33:53.000Z</time>
      </trkpt>
      <trkpt lat="47.5124" lon="6.71678">
        <ele>455</ele>
        <time>2016-01-03T10:33:54.000Z</time>
      </trkpt>
      <trkpt lat="47.5124" lon="6.71684">
        <ele>455</ele>
        <time>2016-01-03T10:33:55.000Z</time>
      </trkpt>
      <trkpt lat="47.51239" lon="6.7169">
        <ele>455</ele>
        <time>2016-01-03T10:33:56.000Z</time>
      </trkpt>
      <trkpt lat="47.51238" lon="6.71696">
        <ele>455</ele>
        <time>2016-01-03T10:33:57.000Z</time>
      </trkpt>
      <trkpt lat="47.51238" lon="6.71701">
        <ele>455</ele>
        <time>2016-01-03T10:33:58.000Z</time>
      </trkpt>
      <trkpt lat="47.51238" lon="6.71707">
        <ele>454</ele>
        <time>2016-01-03T10:33:59.000Z</time>
      </trkpt>
      <trkpt lat="47.51237" lon="6.71712">
        <ele>454</ele>
        <time>2016-01-03T10:34:00.000Z</time>
      </trkpt>
      <trkpt lat="47.51236" lon="6.71728">
        <ele>454</ele>
        <time>2016-01-03T10:34:01.000Z</time>
      </trkpt>
      <trkpt lat="47.51238" lon="6.71733">
        <ele>454</ele>
        <time>2016-01-03T10:34:02.000Z</time>
      </trkpt>
      <trkpt lat="47.5124" lon="6.71739">
        <ele>454</ele>
        <time>2016-01-03T10:34:03.000Z</time>
      </trkpt>
      <trkpt lat="47.51241" lon="6.71744">
        <ele>455</ele>
        <time>2016-01-03T10:34:04.000Z</time>
      </trkpt>
      <trkpt lat="47.51243" lon="6.7175">
        <ele>455</ele>
        <time>2016-01-03T10:34:05.000Z</time>
      </trkpt>
      <trkpt lat="47.51242" lon="6.71756">
        <ele>454</ele>
        <time>2016-01-03T10:34:06.000Z</time>
      </trkpt>
      <trkpt lat="47.51242" lon="6.71763">
        <ele>454</ele>
        <time>2016-01-03T10:34:07.000Z</time>
      </trkpt>
      <trkpt lat="47.51242" lon="6.7177">
        <ele>454</ele>
        <time>2016-01-03T10:34:08.000Z</time>
      </trkpt>
      <trkpt lat="47.51242" lon="6.71776">
        <ele>453</ele>
        <time>2016-01-03T10:34:09.000Z</time>
      </trkpt>
      <trkpt lat="47.51242" lon="6.71782">
        <ele>453</ele>
        <time>2016-01-03T10:34:10.000Z</time>
      </trkpt>
      <trkpt lat="47.51243" lon="6.71788">
        <ele>453</ele>
        <time>2016-01-03T10:34:11.000Z</time>
      </trkpt>
      <trkpt lat="47.51245" lon="6.71794">
        <ele>453</ele>
        <time>2016-01-03T10:34:12.000Z</time>
      </trkpt>
      <trkpt lat="47.51246" lon="6.71809">
        <ele>453</ele>
        <time>2016-01-03T10:34:13.000Z</time>
      </trkpt>
      <trkpt lat="47.51246" lon="6.71819">
        <ele>453</ele>
        <time>2016-01-03T10:34:14.000Z</time>
      </trkpt>
      <trkpt lat="47.51247" lon="6.71828">
        <ele>454</ele>
        <time>2016-01-03T10:34:15.000Z</time>
      </trkpt>
      <trkpt lat="47.51247" lon="6.71836">
        <ele>453</ele>
        <time>2016-01-03T10:34:16.000Z</time>
      </trkpt>
      <trkpt lat="47.51247" lon="6.71844">
        <ele>453</ele>
        <time>2016-01-03T10:34:17.000Z</time>
      </trkpt>
      <trkpt lat="47.51249" lon="6.71853">
        <ele>452</ele>
        <time>2016-01-03T10:34:18.000Z</time>
      </trkpt>
      <trkpt lat="47.5125" lon="6.71861">
        <ele>452</ele>
        <time>2016-01-03T10:34:19.000Z</time>
      </trkpt>
      <trkpt lat="47.51252" lon="6.7187">
        <ele>452</ele>
        <time>2016-01-03T10:34:20.000Z</time>
      </trkpt>
      <trkpt lat="47.51254" lon="6.71879">
        <ele>452</ele>
        <time>2016-01-03T10:34:21.000Z</time>
      </trkpt>
      <trkpt lat="47.51255" lon="6.71888">
        <ele>452</ele>
        <time>2016-01-03T10:34:22.000Z</time>
      </trkpt>
      <trkpt lat="47.51256" lon="6.71899">
        <ele>452</ele>
        <time>2016-01-03T10:34:23.000Z</time>
      </trkpt>
      <trkpt lat="47.51256" lon="6.7191">
        <ele>452</ele>
        <time>2016-01-03T10:34:24.000Z</time>
      </trkpt>
      <trkpt lat="47.51256" lon="6.71919">
        <ele>452</ele>
        <time>2016-01-03T10:34:25.000Z</time>
      </trkpt>
      <trkpt lat="47.51257" lon="6.7193">
        <ele>451</ele>
        <time>2016-01-03T10:34:26.000Z</time>
      </trkpt>
      <trkpt lat="47.51259" lon="6.7194">
        <ele>451</ele>
        <time>2016-01-03T10:34:27.000Z</time>
      </trkpt>
      <trkpt lat="47.51259" lon="6.71949">
        <ele>451</ele>
        <time>2016-01-03T10:34:28.000Z</time>
      </trkpt>
      <trkpt lat="47.5126" lon="6.71958">
        <ele>451</ele>
        <time>2016-01-03T10:34:29.000Z</time>
      </trkpt>
      <trkpt lat="47.51259" lon="6.7197">
        <ele>450</ele>
        <time>2016-01-03T10:34:30.000Z</time>
      </trkpt>
      <trkpt lat="47.51258" lon="6.71984">
        <ele>451</ele>
        <time>2016-01-03T10:34:31.000Z</time>
      </trkpt>
      <trkpt lat="47.51257" lon="6.71995">
        <ele>451</ele>
        <time>2016-01-03T10:34:32.000Z</time>
      </trkpt>
      <trkpt lat="47.51256" lon="6.72004">
        <ele>450</ele>
        <time>2016-01-03T10:34:33.000Z</time>
      </trkpt>
      <trkpt lat="47.51255" lon="6.72015">
        <ele>450</ele>
        <time>2016-01-03T10:34:34.000Z</time>
      </trkpt>
      <trkpt lat="47.51254" lon="6.72025">
        <ele>449</ele>
        <time>2016-01-03T10:34:35.000Z</time>
      </trkpt>
      <trkpt lat="47.51254" lon="6.72035">
        <ele>449</ele>
        <time>2016-01-03T10:34:36.000Z</time>
      </trkpt>
      <trkpt lat="47.51255" lon="6.72046">
        <ele>449</ele>
        <time>2016-01-03T10:34:37.000Z</time>
      </trkpt>
      <trkpt lat="47.51256" lon="6.72055">
        <ele>449</ele>
        <time>2016-01-03T10:34:38.000Z</time>
      </trkpt>
      <trkpt lat="47.51255" lon="6.72066">
        <ele>449</ele>
        <time>2016-01-03T10:34:39.000Z</time>
      </trkpt>
      <trkpt lat="47.51255" lon="6.72076">
        <ele>449</ele>
        <time>2016-01-03T10:34:40.000Z</time>
      </trkpt>
      <trkpt lat="47.51256" lon="6.72085">
        <ele>449</ele>
        <time>2016-01-03T10:34:41.000Z</time>
      </trkpt>
      <trkpt lat="47.51256" lon="6.72093">
        <ele>447</ele>
        <time>2016-01-03T10:34:42.000Z</time>
      </trkpt>
      <trkpt lat="47.51256" lon="6.72103">
        <ele>446</ele>
        <time>2016-01-03T10:34:43.000Z</time>
      </trkpt>
      <trkpt lat="47.51256" lon="6.72113">
        <ele>445</ele>
        <time>2016-01-03T10:34:44.000Z</time>
      </trkpt>
      <trkpt lat="47.51256" lon="6.7212">
        <ele>445</ele>
        <time>2016-01-03T10:34:45.000Z</time>
      </trkpt>
      <trkpt lat="47.51257" lon="6.72129">
        <ele>445</ele>
        <time>2016-01-03T10:34:46.000Z</time>
      </trkpt>
      <trkpt lat="47.51256" lon="6.72136">
        <ele>444</ele>
        <time>2016-01-03T10:34:47.000Z</time>
      </trkpt>
      <trkpt lat="47.51257" lon="6.72146">
        <ele>444</ele>
        <time>2016-01-03T10:34:48.000Z</time>
      </trkpt>
      <trkpt lat="47.51257" lon="6.72156">
        <ele>445</ele>
        <time>2016-01-03T10:34:49.000Z</time>
      </trkpt>
      <trkpt lat="47.51258" lon="6.72163">
        <ele>445</ele>
        <time>2016-01-03T10:34:50.000Z</time>
      </trkpt>
      <trkpt lat="47.51259" lon="6.72171">
        <ele>443</ele>
        <time>2016-01-03T10:34:51.000Z</time>
      </trkpt>
      <trkpt lat="47.51257" lon="6.72179">
        <ele>443</ele>
        <time>2016-01-03T10:34:52.000Z</time>
      </trkpt>
      <trkpt lat="47.51258" lon="6.72186">
        <ele>442</ele>
        <time>2016-01-03T10:34:53.000Z</time>
      </trkpt>
      <trkpt lat="47.51258" lon="6.72193">
        <ele>441</ele>
        <time>2016-01-03T10:34:54.000Z</time>
      </trkpt>
      <trkpt lat="47.51258" lon="6.72199">
        <ele>440</ele>
        <time>2016-01-03T10:34:55.000Z</time>
      </trkpt>
      <trkpt lat="47.51257" lon="6.72205">
        <ele>440</ele>
        <time>2016-01-03T10:34:56.000Z</time>
      </trkpt>
      <trkpt lat="47.51256" lon="6.72218">
        <ele>440</ele>
        <time>2016-01-03T10:34:57.000Z</time>
      </trkpt>
      <trkpt lat="47.51254" lon="6.72228">
        <ele>440</ele>
        <time>2016-01-03T10:34:58.000Z</time>
      </trkpt>
      <trkpt lat="47.51254" lon="6.72235">
        <ele>441</ele>
        <time>2016-01-03T10:34:59.000Z</time>
      </trkpt>
      <trkpt lat="47.51253" lon="6.72244">
        <ele>442</ele>
        <time>2016-01-03T10:35:00.000Z</time>
      </trkpt>
      <trkpt lat="47.51253" lon="6.72254">
        <ele>442</ele>
        <time>2016-01-03T10:35:01.000Z</time>
      </trkpt>
      <trkpt lat="47.51251" lon="6.72261">
        <ele>441</ele>
        <time>2016-01-03T10:35:02.000Z</time>
      </trkpt>
      <trkpt lat="47.51251" lon="6.72268">
        <ele>441</ele>
        <time>2016-01-03T10:35:03.000Z</time>
      </trkpt>
      <trkpt lat="47.51251" lon="6.72277">
        <ele>441</ele>
        <time>2016-01-03T10:35:04.000Z</time>
      </trkpt>
      <trkpt lat="47.51251" lon="6.72287">
        <ele>441</ele>
        <time>2016-01-03T10:35:05.000Z</time>
      </trkpt>
      <trkpt lat="47.51251" lon="6.72296">
        <ele>441</ele>
        <time>2016-01-03T10:35:06.000Z</time>
      </trkpt>
      <trkpt lat="47.51251" lon="6.72304">
        <ele>441</ele>
        <time>2016-01-03T10:35:07.000Z</time>
      </trkpt>
      <trkpt lat="47.51249" lon="6.72315">
        <ele>443</ele>
        <time>2016-01-03T10:35:08.000Z</time>
      </trkpt>
      <trkpt lat="47.51247" lon="6.72324">
        <ele>444</ele>
        <time>2016-01-03T10:35:09.000Z</time>
      </trkpt>
      <trkpt lat="47.51247" lon="6.72333">
        <ele>445</ele>
        <time>2016-01-03T10:35:10.000Z</time>
      </trkpt>
      <trkpt lat="47.51246" lon="6.72341">
        <ele>445</ele>
        <time>2016-01-03T10:35:11.000Z</time>
      </trkpt>
      <trkpt lat="47.51245" lon="6.72351">
        <ele>444</ele>
        <time>2016-01-03T10:35:12.000Z</time>
      </trkpt>
      <trkpt lat="47.51245" lon="6.72359">
        <ele>443</ele>
        <time>2016-01-03T10:35:13.000Z</time>
      </trkpt>
      <trkpt lat="47.51242" lon="6.72369">
        <ele>443</ele>
        <time>2016-01-03T10:35:14.000Z</time>
      </trkpt>
      <trkpt lat="47.5124" lon="6.72377">
        <ele>443</ele>
        <time>2016-01-03T10:35:15.000Z</time>
      </trkpt>
      <trkpt lat="47.51239" lon="6.72385">
        <ele>443</ele>
        <time>2016-01-03T10:35:16.000Z</time>
      </trkpt>
      <trkpt lat="47.51237" lon="6.72394">
        <ele>443</ele>
        <time>2016-01-03T10:35:17.000Z</time>
      </trkpt>
      <trkpt lat="47.51235" lon="6.72402">
        <ele>443</ele>
        <time>2016-01-03T10:35:18.000Z</time>
      </trkpt>
      <trkpt lat="47.51234" lon="6.7241">
        <ele>443</ele>
        <time>2016-01-03T10:35:19.000Z</time>
      </trkpt>
      <trkpt lat="47.51232" lon="6.72419">
        <ele>441</ele>
        <time>2016-01-03T10:35:20.000Z</time>
      </trkpt>
      <trkpt lat="47.51229" lon="6.72429">
        <ele>440</ele>
        <time>2016-01-03T10:35:21.000Z</time>
      </trkpt>
      <trkpt lat="47.51227" lon="6.72436">
        <ele>439</ele>
        <time>2016-01-03T10:35:22.000Z</time>
      </trkpt>
      <trkpt lat="47.51223" lon="6.72446">
        <ele>439</ele>
        <time>2016-01-03T10:35:23.000Z</time>
      </trkpt>
      <trkpt lat="47.51221" lon="6.72454">
        <ele>438</ele>
        <time>2016-01-03T10:35:24.000Z</time>
      </trkpt>
      <trkpt lat="47.51218" lon="6.72461">
        <ele>438</ele>
        <time>2016-01-03T10:35:25.000Z</time>
      </trkpt>
      <trkpt lat="47.51214" lon="6.72472">
        <ele>437</ele>
        <time>2016-01-03T10:35:26.000Z</time>
      </trkpt>
      <trkpt lat="47.51211" lon="6.72482">
        <ele>437</ele>
        <time>2016-01-03T10:35:27.000Z</time>
      </trkpt>
      <trkpt lat="47.51207" lon="6.7249">
        <ele>437</ele>
        <time>2016-01-03T10:35:28.000Z</time>
      </trkpt>
      <trkpt lat="47.51202" lon="6.72497">
        <ele>436</ele>
        <time>2016-01-03T10:35:29.000Z</time>
      </trkpt>
      <trkpt lat="47.512" lon="6.72505">
        <ele>432</ele>
        <time>2016-01-03T10:35:30.000Z</time>
      </trkpt>
      <trkpt lat="47.51198" lon="6.72512">
        <ele>432</ele>
        <time>2016-01-03T10:35:31.000Z</time>
      </trkpt>
      <trkpt lat="47.51197" lon="6.72517">
        <ele>432</ele>
        <time>2016-01-03T10:35:32.000Z</time>
      </trkpt>
      <trkpt lat="47.51196" lon="6.72524">
        <ele>431</ele>
        <time>2016-01-03T10:35:33.000Z</time>
      </trkpt>
      <trkpt lat="47.51195" lon="6.7253">
        <ele>431</ele>
        <time>2016-01-03T10:35:35.000Z</time>
      </trkpt>
      <trkpt lat="47.51194" lon="6.72533">
        <ele>431</ele>
        <time>2016-01-03T10:35:36.000Z</time>
      </trkpt>
      <trkpt lat="47.5119" lon="6.72536">
        <ele>431</ele>
        <time>2016-01-03T10:35:37.000Z</time>
      </trkpt>
      <trkpt lat="47.51186" lon="6.72539">
        <ele>431</ele>
        <time>2016-01-03T10:35:38.000Z</time>
      </trkpt>
      <trkpt lat="47.51183" lon="6.7254">
        <ele>431</ele>
        <time>2016-01-03T10:35:39.000Z</time>
      </trkpt>
      <trkpt lat="47.51179" lon="6.72541">
        <ele>431</ele>
        <time>2016-01-03T10:35:40.000Z</time>
      </trkpt>
      <trkpt lat="47.51177" lon="6.72541">
        <ele>431</ele>
        <time>2016-01-03T10:35:41.000Z</time>
      </trkpt>
      <trkpt lat="47.51172" lon="6.72542">
        <ele>431</ele>
        <time>2016-01-03T10:35:43.000Z</time>
      </trkpt>
      <trkpt lat="47.51171" lon="6.72543">
        <ele>431</ele>
        <time>2016-01-03T10:35:44.000Z</time>
      </trkpt>
      <trkpt lat="47.51169" lon="6.72548">
        <ele>430</ele>
        <time>2016-01-03T10:35:47.000Z</time>
      </trkpt>
      <trkpt lat="47.51169" lon="6.7255">
        <ele>430</ele>
        <time>2016-01-03T10:35:48.000Z</time>
      </trkpt>
      <trkpt lat="47.51166" lon="6.72555">
        <ele>430</ele>
        <time>2016-01-03T10:35:54.000Z</time>
      </trkpt>
      <trkpt lat="47.51166" lon="6.72556">
        <ele>430</ele>
        <time>2016-01-03T10:35:55.000Z</time>
      </trkpt>
      <trkpt lat="47.51163" lon="6.7256">
        <ele>430</ele>
        <time>2016-01-03T10:36:51.000Z</time>
      </trkpt>
      <trkpt lat="47.51163" lon="6.72561">
        <ele>430</ele>
        <time>2016-01-03T10:36:52.000Z</time>
      </trkpt>
      <trkpt lat="47.5116" lon="6.72565">
        <ele>429</ele>
        <time>2016-01-03T10:36:56.000Z</time>
      </trkpt>
      <trkpt lat="47.51159" lon="6.72568">
        <ele>429</ele>
        <time>2016-01-03T10:36:57.000Z</time>
      </trkpt>
      <trkpt lat="47.51158" lon="6.72572">
        <ele>429</ele>
        <time>2016-01-03T10:36:58.000Z</time>
      </trkpt>
      <trkpt lat="47.51157" lon="6.72575">
        <ele>429</ele>
        <time>2016-01-03T10:36:59.000Z</time>
      </trkpt>
      <trkpt lat="47.51155" lon="6.72579">
        <ele>429</ele>
        <time>2016-01-03T10:37:00.000Z</time>
      </trkpt>
      <trkpt lat="47.51153" lon="6.72581">
        <ele>429</ele>
        <time>2016-01-03T10:37:01.000Z</time>
      </trkpt>
      <trkpt lat="47.51151" lon="6.72585">
        <ele>427</ele>
        <time>2016-01-03T10:37:04.000Z</time>
      </trkpt>
      <trkpt lat="47.5115" lon="6.72586">
        <ele>427</ele>
        <time>2016-01-03T10:37:05.000Z</time>
      </trkpt>
      <trkpt lat="47.51148" lon="6.7259">
        <ele>426</ele>
        <time>2016-01-03T10:37:07.000Z</time>
      </trkpt>
      <trkpt lat="47.51147" lon="6.72592">
        <ele>426</ele>
        <time>2016-01-03T10:37:08.000Z</time>
      </trkpt>
      <trkpt lat="47.51144" lon="6.72595">
        <ele>426</ele>
        <time>2016-01-03T10:37:10.000Z</time>
      </trkpt>
      <trkpt lat="47.51141" lon="6.72596">
        <ele>426</ele>
        <time>2016-01-03T10:37:11.000Z</time>
      </trkpt>
      <trkpt lat="47.51139" lon="6.72597">
        <ele>426</ele>
        <time>2016-01-03T10:37:12.000Z</time>
      </trkpt>
      <trkpt lat="47.51136" lon="6.72599">
        <ele>426</ele>
        <time>2016-01-03T10:37:13.000Z</time>
      </trkpt>
      <trkpt lat="47.51132" lon="6.72601">
        <ele>426</ele>
        <time>2016-01-03T10:37:14.000Z</time>
      </trkpt>
      <trkpt lat="47.51128" lon="6.72604">
        <ele>426</ele>
        <time>2016-01-03T10:37:15.000Z</time>
      </trkpt>
      <trkpt lat="47.51124" lon="6.72607">
        <ele>426</ele>
        <time>2016-01-03T10:37:16.000Z</time>
      </trkpt>
      <trkpt lat="47.5112" lon="6.72611">
        <ele>425</ele>
        <time>2016-01-03T10:37:17.000Z</time>
      </trkpt>
      <trkpt lat="47.51116" lon="6.72614">
        <ele>425</ele>
        <time>2016-01-03T10:37:18.000Z</time>
      </trkpt>
      <trkpt lat="47.51113" lon="6.72617">
        <ele>425</ele>
        <time>2016-01-03T10:37:19.000Z</time>
      </trkpt>
      <trkpt lat="47.51109" lon="6.72619">
        <ele>425</ele>
        <time>2016-01-03T10:37:20.000Z</time>
      </trkpt>
      <trkpt lat="47.51106" lon="6.72621">
        <ele>425</ele>
        <time>2016-01-03T10:37:21.000Z</time>
      </trkpt>
      <trkpt lat="47.51103" lon="6.72623">
        <ele>425</ele>
        <time>2016-01-03T10:37:22.000Z</time>
      </trkpt>
      <trkpt lat="47.51101" lon="6.72624">
        <ele>425</ele>
        <time>2016-01-03T10:37:23.000Z</time>
      </trkpt>
      <trkpt lat="47.51098" lon="6.72624">
        <ele>425</ele>
        <time>2016-01-03T10:37:24.000Z</time>
      </trkpt>
      <trkpt lat="47.51094" lon="6.72626">
        <ele>425</ele>
        <time>2016-01-03T10:37:26.000Z</time>
      </trkpt>
      <trkpt lat="47.51092" lon="6.72626">
        <ele>425</ele>
        <time>2016-01-03T10:37:27.000Z</time>
      </trkpt>
      <trkpt lat="47.51089" lon="6.72626">
        <ele>425</ele>
        <time>2016-01-03T10:37:29.000Z</time>
      </trkpt>
      <trkpt lat="47.51087" lon="6.72626">
        <ele>425</ele>
        <time>2016-01-03T10:37:30.000Z</time>
      </trkpt>
      <trkpt lat="47.51084" lon="6.72627">
        <ele>425</ele>
        <time>2016-01-03T10:37:32.000Z</time>
      </trkpt>
      <trkpt lat="47.51083" lon="6.72628">
        <ele>425</ele>
        <time>2016-01-03T10:37:33.000Z</time>
      </trkpt>
      <trkpt lat="47.51079" lon="6.7263">
        <ele>425</ele>
        <time>2016-01-03T10:37:35.000Z</time>
      </trkpt>
      <trkpt lat="47.51077" lon="6.72631">
        <ele>425</ele>
        <time>2016-01-03T10:37:36.000Z</time>
      </trkpt>
      <trkpt lat="47.51074" lon="6.72634">
        <ele>425</ele>
        <time>2016-01-03T10:37:38.000Z</time>
      </trkpt>
      <trkpt lat="47.51072" lon="6.72636">
        <ele>425</ele>
        <time>2016-01-03T10:37:39.000Z</time>
      </trkpt>
      <trkpt lat="47.5107" lon="6.72641">
        <ele>425</ele>
        <time>2016-01-03T10:37:41.000Z</time>
      </trkpt>
      <trkpt lat="47.51069" lon="6.72643">
        <ele>424</ele>
        <time>2016-01-03T10:37:42.000Z</time>
      </trkpt>
      <trkpt lat="47.51068" lon="6.72649">
        <ele>424</ele>
        <time>2016-01-03T10:37:44.000Z</time>
      </trkpt>
      <trkpt lat="47.51067" lon="6.72651">
        <ele>424</ele>
        <time>2016-01-03T10:37:45.000Z</time>
      </trkpt>
      <trkpt lat="47.51065" lon="6.72654">
        <ele>424</ele>
        <time>2016-01-03T10:37:46.000Z</time>
      </trkpt>
      <trkpt lat="47.51063" lon="6.72656">
        <ele>424</ele>
        <time>2016-01-03T10:37:47.000Z</time>
      </trkpt>
      <trkpt lat="47.51061" lon="6.72659">
        <ele>424</ele>
        <time>2016-01-03T10:37:48.000Z</time>
      </trkpt>
      <trkpt lat="47.51059" lon="6.72661">
        <ele>424</ele>
        <time>2016-01-03T10:37:49.000Z</time>
      </trkpt>
      <trkpt lat="47.51056" lon="6.72663">
        <ele>424</ele>
        <time>2016-01-03T10:37:50.000Z</time>
      </trkpt>
      <trkpt lat="47.51054" lon="6.72664">
        <ele>425</ele>
        <time>2016-01-03T10:37:51.000Z</time>
      </trkpt>
      <trkpt lat="47.51052" lon="6.72666">
        <ele>425</ele>
        <time>2016-01-03T10:37:52.000Z</time>
      </trkpt>
      <trkpt lat="47.5105" lon="6.72668">
        <ele>423</ele>
        <time>2016-01-03T10:37:53.000Z</time>
      </trkpt>
      <trkpt lat="47.51047" lon="6.7267">
        <ele>423</ele>
        <time>2016-01-03T10:37:54.000Z</time>
      </trkpt>
      <trkpt lat="47.51045" lon="6.72672">
        <ele>423</ele>
        <time>2016-01-03T10:37:55.000Z</time>
      </trkpt>
      <trkpt lat="47.51042" lon="6.72674">
        <ele>423</ele>
        <time>2016-01-03T10:37:56.000Z</time>
      </trkpt>
      <trkpt lat="47.5104" lon="6.72677">
        <ele>423</ele>
        <time>2016-01-03T10:37:57.000Z</time>
      </trkpt>
      <trkpt lat="47.51037" lon="6.7268">
        <ele>424</ele>
        <time>2016-01-03T10:37:58.000Z</time>
      </trkpt>
      <trkpt lat="47.51033" lon="6.72684">
        <ele>424</ele>
        <time>2016-01-03T10:37:59.000Z</time>
      </trkpt>
      <trkpt lat="47.5103" lon="6.72688">
        <ele>424</ele>
        <time>2016-01-03T10:38:00.000Z</time>
      </trkpt>
      <trkpt lat="47.51027" lon="6.72692">
        <ele>424</ele>
        <time>2016-01-03T10:38:01.000Z</time>
      </trkpt>
      <trkpt lat="47.51024" lon="6.72696">
        <ele>424</ele>
        <time>2016-01-03T10:38:02.000Z</time>
      </trkpt>
      <trkpt lat="47.51021" lon="6.727">
        <ele>424</ele>
        <time>2016-01-03T10:38:03.000Z</time>
      </trkpt>
      <trkpt lat="47.51019" lon="6.72703">
        <ele>424</ele>
        <time>2016-01-03T10:38:04.000Z</time>
      </trkpt>
      <trkpt lat="47.51016" lon="6.72706">
        <ele>424</ele>
        <time>2016-01-03T10:38:05.000Z</time>
      </trkpt>
      <trkpt lat="47.51014" lon="6.72709">
        <ele>424</ele>
        <time>2016-01-03T10:38:06.000Z</time>
      </trkpt>
      <trkpt lat="47.51011" lon="6.72711">
        <ele>424</ele>
        <time>2016-01-03T10:38:07.000Z</time>
      </trkpt>
      <trkpt lat="47.51009" lon="6.72714">
        <ele>423</ele>
        <time>2016-01-03T10:38:08.000Z</time>
      </trkpt>
      <trkpt lat="47.51006" lon="6.72716">
        <ele>423</ele>
        <time>2016-01-03T10:38:09.000Z</time>
      </trkpt>
      <trkpt lat="47.51004" lon="6.72719">
        <ele>423</ele>
        <time>2016-01-03T10:38:10.000Z</time>
      </trkpt>
      <trkpt lat="47.51002" lon="6.72722">
        <ele>423</ele>
        <time>2016-01-03T10:38:11.000Z</time>
      </trkpt>
      <trkpt lat="47.50999" lon="6.72725">
        <ele>426</ele>
        <time>2016-01-03T10:38:12.000Z</time>
      </trkpt>
      <trkpt lat="47.50996" lon="6.72729">
        <ele>426</ele>
        <time>2016-01-03T10:38:13.000Z</time>
      </trkpt>
      <trkpt lat="47.50993" lon="6.72733">
        <ele>426</ele>
        <time>2016-01-03T10:38:14.000Z</time>
      </trkpt>
      <trkpt lat="47.50989" lon="6.72738">
        <ele>426</ele>
        <time>2016-01-03T10:38:15.000Z</time>
      </trkpt>
      <trkpt lat="47.50986" lon="6.72742">
        <ele>426</ele>
        <time>2016-01-03T10:38:16.000Z</time>
      </trkpt>
      <trkpt lat="47.50984" lon="6.72747">
        <ele>426</ele>
        <time>2016-01-03T10:38:17.000Z</time>
      </trkpt>
      <trkpt lat="47.50982" lon="6.72751">
        <ele>425</ele>
        <time>2016-01-03T10:38:18.000Z</time>
      </trkpt>
      <trkpt lat="47.50981" lon="6.72754">
        <ele>425</ele>
        <time>2016-01-03T10:38:19.000Z</time>
      </trkpt>
      <trkpt lat="47.50979" lon="6.72757">
        <ele>426</ele>
        <time>2016-01-03T10:38:20.000Z</time>
      </trkpt>
      <trkpt lat="47.50977" lon="6.72761">
        <ele>426</ele>
        <time>2016-01-03T10:38:21.000Z</time>
      </trkpt>
      <trkpt lat="47.50975" lon="6.72764">
        <ele>426</ele>
        <time>2016-01-03T10:38:22.000Z</time>
      </trkpt>
      <trkpt lat="47.50973" lon="6.72768">
        <ele>426</ele>
        <time>2016-01-03T10:38:23.000Z</time>
      </trkpt>
      <trkpt lat="47.50971" lon="6.72772">
        <ele>426</ele>
        <time>2016-01-03T10:38:24.000Z</time>
      </trkpt>
      <trkpt lat="47.50969" lon="6.72777">
        <ele>426</ele>
        <time>2016-01-03T10:38:25.000Z</time>
      </trkpt>
      <trkpt lat="47.50966" lon="6.72782">
        <ele>427</ele>
        <time>2016-01-03T10:38:26.000Z</time>
      </trkpt>
      <trkpt lat="47.50963" lon="6.72787">
        <ele>427</ele>
        <time>2016-01-03T10:38:27.000Z</time>
      </trkpt>
      <trkpt lat="47.50961" lon="6.72792">
        <ele>427</ele>
        <time>2016-01-03T10:38:28.000Z</time>
      </trkpt>
      <trkpt lat="47.50959" lon="6.72797">
        <ele>427</ele>
        <time>2016-01-03T10:38:29.000Z</time>
      </trkpt>
      <trkpt lat="47.50957" lon="6.72802">
        <ele>427</ele>
        <time>2016-01-03T10:38:30.000Z</time>
      </trkpt>
      <trkpt lat="47.50955" lon="6.72808">
        <ele>427</ele>
        <time>2016-01-03T10:38:31.000Z</time>
      </trkpt>
      <trkpt lat="47.50954" lon="6.72813">
        <ele>427</ele>
        <time>2016-01-03T10:38:32.000Z</time>
      </trkpt>
      <trkpt lat="47.50952" lon="6.72818">
        <ele>427</ele>
        <time>2016-01-03T10:38:33.000Z</time>
      </trkpt>
      <trkpt lat="47.5095" lon="6.72823">
        <ele>427</ele>
        <time>2016-01-03T10:38:34.000Z</time>
      </trkpt>
      <trkpt lat="47.50948" lon="6.72828">
        <ele>428</ele>
        <time>2016-01-03T10:38:35.000Z</time>
      </trkpt>
      <trkpt lat="47.50947" lon="6.72832">
        <ele>428</ele>
        <time>2016-01-03T10:38:36.000Z</time>
      </trkpt>
      <trkpt lat="47.50945" lon="6.72836">
        <ele>427</ele>
        <time>2016-01-03T10:38:37.000Z</time>
      </trkpt>
      <trkpt lat="47.50944" lon="6.7284">
        <ele>427</ele>
        <time>2016-01-03T10:38:38.000Z</time>
      </trkpt>
      <trkpt lat="47.50942" lon="6.72843">
        <ele>427</ele>
        <time>2016-01-03T10:38:39.000Z</time>
      </trkpt>
      <trkpt lat="47.50941" lon="6.72847">
        <ele>427</ele>
        <time>2016-01-03T10:38:40.000Z</time>
      </trkpt>
      <trkpt lat="47.50939" lon="6.72851">
        <ele>427</ele>
        <time>2016-01-03T10:38:41.000Z</time>
      </trkpt>
      <trkpt lat="47.50937" lon="6.72855">
        <ele>427</ele>
        <time>2016-01-03T10:38:42.000Z</time>
      </trkpt>
      <trkpt lat="47.50935" lon="6.72859">
        <ele>427</ele>
        <time>2016-01-03T10:38:43.000Z</time>
      </trkpt>
      <trkpt lat="47.50933" lon="6.72863">
        <ele>427</ele>
        <time>2016-01-03T10:38:44.000Z</time>
      </trkpt>
      <trkpt lat="47.50931" lon="6.72868">
        <ele>427</ele>
        <time>2016-01-03T10:38:45.000Z</time>
      </trkpt>
      <trkpt lat="47.5093" lon="6.72873">
        <ele>427</ele>
        <time>2016-01-03T10:38:46.000Z</time>
      </trkpt>
      <trkpt lat="47.50928" lon="6.72878">
        <ele>427</ele>
        <time>2016-01-03T10:38:47.000Z</time>
      </trkpt>
      <trkpt lat="47.50927" lon="6.72884">
        <ele>426</ele>
        <time>2016-01-03T10:38:48.000Z</time>
      </trkpt>
      <trkpt lat="47.50925" lon="6.72889">
        <ele>427</ele>
        <time>2016-01-03T10:38:49.000Z</time>
      </trkpt>
      <trkpt lat="47.50921" lon="6.72903">
        <ele>427</ele>
        <time>2016-01-03T10:38:50.000Z</time>
      </trkpt>
      <trkpt lat="47.50919" lon="6.72911">
        <ele>427</ele>
        <time>2016-01-03T10:38:51.000Z</time>
      </trkpt>
      <trkpt lat="47.50917" lon="6.7292">
        <ele>428</ele>
        <time>2016-01-03T10:38:52.000Z</time>
      </trkpt>
      <trkpt lat="47.50915" lon="6.72929">
        <ele>429</ele>
        <time>2016-01-03T10:38:53.000Z</time>
      </trkpt>
      <trkpt lat="47.50913" lon="6.72937">
        <ele>430</ele>
        <time>2016-01-03T10:38:54.000Z</time>
      </trkpt>
      <trkpt lat="47.5091" lon="6.72948">
        <ele>430</ele>
        <time>2016-01-03T10:38:55.000Z</time>
      </trkpt>
      <trkpt lat="47.50907" lon="6.72956">
        <ele>430</ele>
        <time>2016-01-03T10:38:56.000Z</time>
      </trkpt>
      <trkpt lat="47.50904" lon="6.72967">
        <ele>430</ele>
        <time>2016-01-03T10:38:57.000Z</time>
      </trkpt>
      <trkpt lat="47.50902" lon="6.72976">
        <ele>430</ele>
        <time>2016-01-03T10:38:58.000Z</time>
      </trkpt>
      <trkpt lat="47.50902" lon="6.72986">
        <ele>430</ele>
        <time>2016-01-03T10:38:59.000Z</time>
      </trkpt>
      <trkpt lat="47.509" lon="6.72996">
        <ele>430</ele>
        <time>2016-01-03T10:39:00.000Z</time>
      </trkpt>
      <trkpt lat="47.50899" lon="6.73003">
        <ele>429</ele>
        <time>2016-01-03T10:39:01.000Z</time>
      </trkpt>
      <trkpt lat="47.50897" lon="6.73013">
        <ele>430</ele>
        <time>2016-01-03T10:39:02.000Z</time>
      </trkpt>
      <trkpt lat="47.50895" lon="6.73024">
        <ele>430</ele>
        <time>2016-01-03T10:39:03.000Z</time>
      </trkpt>
      <trkpt lat="47.50894" lon="6.73034">
        <ele>430</ele>
        <time>2016-01-03T10:39:04.000Z</time>
      </trkpt>
      <trkpt lat="47.50893" lon="6.73045">
        <ele>430</ele>
        <time>2016-01-03T10:39:05.000Z</time>
      </trkpt>
      <trkpt lat="47.50892" lon="6.73054">
        <ele>430</ele>
        <time>2016-01-03T10:39:06.000Z</time>
      </trkpt>
      <trkpt lat="47.50892" lon="6.73063">
        <ele>430</ele>
        <time>2016-01-03T10:39:07.000Z</time>
      </trkpt>
      <trkpt lat="47.50891" lon="6.73072">
        <ele>430</ele>
        <time>2016-01-03T10:39:08.000Z</time>
      </trkpt>
      <trkpt lat="47.50889" lon="6.73081">
        <ele>430</ele>
        <time>2016-01-03T10:39:09.000Z</time>
      </trkpt>
      <trkpt lat="47.50886" lon="6.7309">
        <ele>428</ele>
        <time>2016-01-03T10:39:10.000Z</time>
      </trkpt>
      <trkpt lat="47.50884" lon="6.73099">
        <ele>428</ele>
        <time>2016-01-03T10:39:11.000Z</time>
      </trkpt>
      <trkpt lat="47.50882" lon="6.73106">
        <ele>427</ele>
        <time>2016-01-03T10:39:12.000Z</time>
      </trkpt>
      <trkpt lat="47.50879" lon="6.73118">
        <ele>427</ele>
        <time>2016-01-03T10:39:13.000Z</time>
      </trkpt>
      <trkpt lat="47.50877" lon="6.73128">
        <ele>427</ele>
        <time>2016-01-03T10:39:14.000Z</time>
      </trkpt>
      <trkpt lat="47.50873" lon="6.73137">
        <ele>427</ele>
        <time>2016-01-03T10:39:15.000Z</time>
      </trkpt>
      <trkpt lat="47.50869" lon="6.73148">
        <ele>426</ele>
        <time>2016-01-03T10:39:16.000Z</time>
      </trkpt>
      <trkpt lat="47.50865" lon="6.73157">
        <ele>426</ele>
        <time>2016-01-03T10:39:17.000Z</time>
      </trkpt>
      <trkpt lat="47.50856" lon="6.73166">
        <ele>426</ele>
        <time>2016-01-03T10:39:18.000Z</time>
      </trkpt>
      <trkpt lat="47.5085" lon="6.73173">
        <ele>422</ele>
        <time>2016-01-03T10:39:19.000Z</time>
      </trkpt>
      <trkpt lat="47.50842" lon="6.73182">
        <ele>422</ele>
        <time>2016-01-03T10:39:20.000Z</time>
      </trkpt>
      <trkpt lat="47.50836" lon="6.73191">
        <ele>421</ele>
        <time>2016-01-03T10:39:21.000Z</time>
      </trkpt>
      <trkpt lat="47.50831" lon="6.73203">
        <ele>421</ele>
        <time>2016-01-03T10:39:22.000Z</time>
      </trkpt>
      <trkpt lat="47.50823" lon="6.73211">
        <ele>420</ele>
        <time>2016-01-03T10:39:23.000Z</time>
      </trkpt>
      <trkpt lat="47.50819" lon="6.7322">
        <ele>419</ele>
        <time>2016-01-03T10:39:24.000Z</time>
      </trkpt>
      <trkpt lat="47.50815" lon="6.73232">
        <ele>418</ele>
        <time>2016-01-03T10:39:25.000Z</time>
      </trkpt>
      <trkpt lat="47.50809" lon="6.73244">
        <ele>418</ele>
        <time>2016-01-03T10:39:26.000Z</time>
      </trkpt>
      <trkpt lat="47.50803" lon="6.73254">
        <ele>411</ele>
        <time>2016-01-03T10:39:27.000Z</time>
      </trkpt>
      <trkpt lat="47.50793" lon="6.73261">
        <ele>410</ele>
        <time>2016-01-03T10:39:28.000Z</time>
      </trkpt>
      <trkpt lat="47.50785" lon="6.73267">
        <ele>410</ele>
        <time>2016-01-03T10:39:29.000Z</time>
      </trkpt>
      <trkpt lat="47.50778" lon="6.73277">
        <ele>410</ele>
        <time>2016-01-03T10:39:30.000Z</time>
      </trkpt>
      <trkpt lat="47.50772" lon="6.73286">
        <ele>409</ele>
        <time>2016-01-03T10:39:31.000Z</time>
      </trkpt>
      <trkpt lat="47.50766" lon="6.73295">
        <ele>408</ele>
        <time>2016-01-03T10:39:32.000Z</time>
      </trkpt>
      <trkpt lat="47.5076" lon="6.73304">
        <ele>408</ele>
        <time>2016-01-03T10:39:33.000Z</time>
      </trkpt>
      <trkpt lat="47.50754" lon="6.73312">
        <ele>408</ele>
        <time>2016-01-03T10:39:34.000Z</time>
      </trkpt>
      <trkpt lat="47.5075" lon="6.73322">
        <ele>407</ele>
        <time>2016-01-03T10:39:35.000Z</time>
      </trkpt>
      <trkpt lat="47.50746" lon="6.73331">
        <ele>407</ele>
        <time>2016-01-03T10:39:36.000Z</time>
      </trkpt>
      <trkpt lat="47.50742" lon="6.7334">
        <ele>403</ele>
        <time>2016-01-03T10:39:37.000Z</time>
      </trkpt>
      <trkpt lat="47.50735" lon="6.73346">
        <ele>401</ele>
        <time>2016-01-03T10:39:38.000Z</time>
      </trkpt>
      <trkpt lat="47.50728" lon="6.73351">
        <ele>400</ele>
        <time>2016-01-03T10:39:39.000Z</time>
      </trkpt>
      <trkpt lat="47.50723" lon="6.73354">
        <ele>399</ele>
        <time>2016-01-03T10:39:40.000Z</time>
      </trkpt>
      <trkpt lat="47.50719" lon="6.7336">
        <ele>399</ele>
        <time>2016-01-03T10:39:41.000Z</time>
      </trkpt>
      <trkpt lat="47.50716" lon="6.73367">
        <ele>398</ele>
        <time>2016-01-03T10:39:42.000Z</time>
      </trkpt>
      <trkpt lat="47.50714" lon="6.73376">
        <ele>397</ele>
        <time>2016-01-03T10:39:43.000Z</time>
      </trkpt>
      <trkpt lat="47.50713" lon="6.73385">
        <ele>397</ele>
        <time>2016-01-03T10:39:44.000Z</time>
      </trkpt>
      <trkpt lat="47.50712" lon="6.73394">
        <ele>396</ele>
        <time>2016-01-03T10:39:45.000Z</time>
      </trkpt>
      <trkpt lat="47.50711" lon="6.73403">
        <ele>396</ele>
        <time>2016-01-03T10:39:46.000Z</time>
      </trkpt>
      <trkpt lat="47.50704" lon="6.73412">
        <ele>396</ele>
        <time>2016-01-03T10:39:47.000Z</time>
      </trkpt>
      <trkpt lat="47.50701" lon="6.7342">
        <ele>388</ele>
        <time>2016-01-03T10:39:48.000Z</time>
      </trkpt>
      <trkpt lat="47.50698" lon="6.73429">
        <ele>388</ele>
        <time>2016-01-03T10:39:49.000Z</time>
      </trkpt>
      <trkpt lat="47.50692" lon="6.73435">
        <ele>388</ele>
        <time>2016-01-03T10:39:50.000Z</time>
      </trkpt>
      <trkpt lat="47.50689" lon="6.73442">
        <ele>388</ele>
        <time>2016-01-03T10:39:51.000Z</time>
      </trkpt>
      <trkpt lat="47.50684" lon="6.73449">
        <ele>388</ele>
        <time>2016-01-03T10:39:52.000Z</time>
      </trkpt>
      <trkpt lat="47.50681" lon="6.7346">
        <ele>387</ele>
        <time>2016-01-03T10:39:53.000Z</time>
      </trkpt>
      <trkpt lat="47.50681" lon="6.73468">
        <ele>386</ele>
        <time>2016-01-03T10:39:54.000Z</time>
      </trkpt>
      <trkpt lat="47.50679" lon="6.73475">
        <ele>386</ele>
        <time>2016-01-03T10:39:55.000Z</time>
      </trkpt>
      <trkpt lat="47.50676" lon="6.73479">
        <ele>386</ele>
        <time>2016-01-03T10:39:56.000Z</time>
      </trkpt>
      <trkpt lat="47.50671" lon="6.73482">
        <ele>386</ele>
        <time>2016-01-03T10:39:57.000Z</time>
      </trkpt>
      <trkpt lat="47.50668" lon="6.73485">
        <ele>386</ele>
        <time>2016-01-03T10:39:58.000Z</time>
      </trkpt>
      <trkpt lat="47.50665" lon="6.73489">
        <ele>386</ele>
        <time>2016-01-03T10:39:59.000Z</time>
      </trkpt>
      <trkpt lat="47.50664" lon="6.73492">
        <ele>386</ele>
        <time>2016-01-03T10:40:00.000Z</time>
      </trkpt>
      <trkpt lat="47.50663" lon="6.73497">
        <ele>386</ele>
        <time>2016-01-03T10:40:01.000Z</time>
      </trkpt>
      <trkpt lat="47.50663" lon="6.735">
        <ele>385</ele>
        <time>2016-01-03T10:40:02.000Z</time>
      </trkpt>
      <trkpt lat="47.50663" lon="6.73505">
        <ele>384</ele>
        <time>2016-01-03T10:40:03.000Z</time>
      </trkpt>
      <trkpt lat="47.50662" lon="6.73509">
        <ele>383</ele>
        <time>2016-01-03T10:40:04.000Z</time>
      </trkpt>
      <trkpt lat="47.50661" lon="6.73513">
        <ele>383</ele>
        <time>2016-01-03T10:40:05.000Z</time>
      </trkpt>
      <trkpt lat="47.50659" lon="6.73515">
        <ele>382</ele>
        <time>2016-01-03T10:40:06.000Z</time>
      </trkpt>
      <trkpt lat="47.50656" lon="6.73517">
        <ele>381</ele>
        <time>2016-01-03T10:40:07.000Z</time>
      </trkpt>
      <trkpt lat="47.50653" lon="6.73519">
        <ele>381</ele>
        <time>2016-01-03T10:40:08.000Z</time>
      </trkpt>
      <trkpt lat="47.50651" lon="6.73521">
        <ele>381</ele>
        <time>2016-01-03T10:40:09.000Z</time>
      </trkpt>
      <trkpt lat="47.50649" lon="6.73524">
        <ele>380</ele>
        <time>2016-01-03T10:40:10.000Z</time>
      </trkpt>
      <trkpt lat="47.50639" lon="6.73536">
        <ele>379</ele>
        <time>2016-01-03T10:40:11.000Z</time>
      </trkpt>
      <trkpt lat="47.50635" lon="6.73542">
        <ele>379</ele>
        <time>2016-01-03T10:40:12.000Z</time>
      </trkpt>
      <trkpt lat="47.50634" lon="6.73547">
        <ele>378</ele>
        <time>2016-01-03T10:40:14.000Z</time>
      </trkpt>
      <trkpt lat="47.50635" lon="6.73549">
        <ele>378</ele>
        <time>2016-01-03T10:40:15.000Z</time>
      </trkpt>
      <trkpt lat="47.50632" lon="6.73554">
        <ele>378</ele>
        <time>2016-01-03T10:40:54.000Z</time>
      </trkpt>
      <trkpt lat="47.50632" lon="6.73554">
        <ele>378</ele>
        <time>2016-01-03T10:40:55.000Z</time>
      </trkpt>
      <trkpt lat="47.50631" lon="6.73549">
        <ele>378</ele>
        <time>2016-01-03T10:41:00.000Z</time>
      </trkpt>
      <trkpt lat="47.5063" lon="6.73547">
        <ele>379</ele>
        <time>2016-01-03T10:41:01.000Z</time>
      </trkpt>
      <trkpt lat="47.50631" lon="6.73541">
        <ele>379</ele>
        <time>2016-01-03T10:41:05.000Z</time>
      </trkpt>
      <trkpt lat="47.50631" lon="6.7354">
        <ele>379</ele>
        <time>2016-01-03T10:41:06.000Z</time>
      </trkpt>
      <trkpt lat="47.5063" lon="6.73546">
        <ele>379</ele>
        <time>2016-01-03T10:42:05.000Z</time>
      </trkpt>
      <trkpt lat="47.5063" lon="6.73548">
        <ele>379</ele>
        <time>2016-01-03T10:42:06.000Z</time>
      </trkpt>
      <trkpt lat="47.5063" lon="6.73554">
        <ele>378</ele>
        <time>2016-01-03T10:42:14.000Z</time>
      </trkpt>
      <trkpt lat="47.5063" lon="6.73554">
        <ele>378</ele>
        <time>2016-01-03T10:42:15.000Z</time>
      </trkpt>
      <trkpt lat="47.5063" lon="6.73559">
        <ele>378</ele>
        <time>2016-01-03T10:43:16.000Z</time>
      </trkpt>
      <trkpt lat="47.50631" lon="6.73561">
        <ele>378</ele>
        <time>2016-01-03T10:43:17.000Z</time>
      </trkpt>
      <trkpt lat="47.50628" lon="6.73559">
        <ele>378</ele>
        <time>2016-01-03T10:43:27.000Z</time>
      </trkpt>
      <trkpt lat="47.50626" lon="6.73558">
        <ele>378</ele>
        <time>2016-01-03T10:43:28.000Z</time>
      </trkpt>
      <trkpt lat="47.50627" lon="6.73563">
        <ele>378</ele>
        <time>2016-01-03T10:43:38.000Z</time>
      </trkpt>
      <trkpt lat="47.50628" lon="6.73565">
        <ele>378</ele>
        <time>2016-01-03T10:43:39.000Z</time>
      </trkpt>
      <trkpt lat="47.5063" lon="6.73568">
        <ele>378</ele>
        <time>2016-01-03T10:43:41.000Z</time>
      </trkpt>
      <trkpt lat="47.50632" lon="6.73571">
        <ele>378</ele>
        <time>2016-01-03T10:43:42.000Z</time>
      </trkpt>
      <trkpt lat="47.50633" lon="6.73574">
        <ele>377</ele>
        <time>2016-01-03T10:43:43.000Z</time>
      </trkpt>
      <trkpt lat="47.50635" lon="6.73578">
        <ele>377</ele>
        <time>2016-01-03T10:43:44.000Z</time>
      </trkpt>
      <trkpt lat="47.50638" lon="6.73582">
        <ele>377</ele>
        <time>2016-01-03T10:43:45.000Z</time>
      </trkpt>
      <trkpt lat="47.50644" lon="6.73592">
        <ele>373</ele>
        <time>2016-01-03T10:43:46.000Z</time>
      </trkpt>
      <trkpt lat="47.50647" lon="6.73597">
        <ele>373</ele>
        <time>2016-01-03T10:43:47.000Z</time>
      </trkpt>
      <trkpt lat="47.50651" lon="6.73604">
        <ele>373</ele>
        <time>2016-01-03T10:43:48.000Z</time>
      </trkpt>
      <trkpt lat="47.50655" lon="6.73611">
        <ele>372</ele>
        <time>2016-01-03T10:43:49.000Z</time>
      </trkpt>
      <trkpt lat="47.50658" lon="6.73619">
        <ele>372</ele>
        <time>2016-01-03T10:43:50.000Z</time>
      </trkpt>
      <trkpt lat="47.50659" lon="6.73628">
        <ele>371</ele>
        <time>2016-01-03T10:43:51.000Z</time>
      </trkpt>
      <trkpt lat="47.5066" lon="6.73636">
        <ele>371</ele>
        <time>2016-01-03T10:43:52.000Z</time>
      </trkpt>
      <trkpt lat="47.5066" lon="6.73644">
        <ele>369</ele>
        <time>2016-01-03T10:43:53.000Z</time>
      </trkpt>
      <trkpt lat="47.5066" lon="6.73651">
        <ele>368</ele>
        <time>2016-01-03T10:43:54.000Z</time>
      </trkpt>
      <trkpt lat="47.5066" lon="6.73659">
        <ele>366</ele>
        <time>2016-01-03T10:43:55.000Z</time>
      </trkpt>
      <trkpt lat="47.5066" lon="6.73666">
        <ele>365</ele>
        <time>2016-01-03T10:43:56.000Z</time>
      </trkpt>
      <trkpt lat="47.5066" lon="6.73673">
        <ele>365</ele>
        <time>2016-01-03T10:43:57.000Z</time>
      </trkpt>
      <trkpt lat="47.50661" lon="6.7368">
        <ele>366</ele>
        <time>2016-01-03T10:43:58.000Z</time>
      </trkpt>
      <trkpt lat="47.5066" lon="6.73687">
        <ele>367</ele>
        <time>2016-01-03T10:43:59.000Z</time>
      </trkpt>
      <trkpt lat="47.5066" lon="6.73694">
        <ele>368</ele>
        <time>2016-01-03T10:44:00.000Z</time>
      </trkpt>
      <trkpt lat="47.50661" lon="6.737">
        <ele>368</ele>
        <time>2016-01-03T10:44:01.000Z</time>
      </trkpt>
      <trkpt lat="47.50661" lon="6.73707">
        <ele>368</ele>
        <time>2016-01-03T10:44:02.000Z</time>
      </trkpt>
      <trkpt lat="47.50661" lon="6.73714">
        <ele>368</ele>
        <time>2016-01-03T10:44:03.000Z</time>
      </trkpt>
      <trkpt lat="47.5066" lon="6.73721">
        <ele>368</ele>
        <time>2016-01-03T10:44:04.000Z</time>
      </trkpt>
      <trkpt lat="47.5066" lon="6.73728">
        <ele>367</ele>
        <time>2016-01-03T10:44:05.000Z</time>
      </trkpt>
      <trkpt lat="47.50661" lon="6.73735">
        <ele>366</ele>
        <time>2016-01-03T10:44:06.000Z</time>
      </trkpt>
      <trkpt lat="47.50661" lon="6.73742">
        <ele>365</ele>
        <time>2016-01-03T10:44:07.000Z</time>
      </trkpt>
      <trkpt lat="47.5066" lon="6.73749">
        <ele>364</ele>
        <time>2016-01-03T10:44:08.000Z</time>
      </trkpt>
      <trkpt lat="47.5066" lon="6.73756">
        <ele>365</ele>
        <time>2016-01-03T10:44:09.000Z</time>
      </trkpt>
      <trkpt lat="47.50659" lon="6.73762">
        <ele>366</ele>
        <time>2016-01-03T10:44:10.000Z</time>
      </trkpt>
      <trkpt lat="47.50659" lon="6.73769">
        <ele>367</ele>
        <time>2016-01-03T10:44:11.000Z</time>
      </trkpt>
      <trkpt lat="47.50658" lon="6.73776">
        <ele>367</ele>
        <time>2016-01-03T10:44:12.000Z</time>
      </trkpt>
      <trkpt lat="47.50657" lon="6.73784">
        <ele>368</ele>
        <time>2016-01-03T10:44:13.000Z</time>
      </trkpt>
      <trkpt lat="47.50657" lon="6.73791">
        <ele>368</ele>
        <time>2016-01-03T10:44:14.000Z</time>
      </trkpt>
      <trkpt lat="47.50658" lon="6.73799">
        <ele>367</ele>
        <time>2016-01-03T10:44:15.000Z</time>
      </trkpt>
      <trkpt lat="47.50658" lon="6.73806">
        <ele>367</ele>
        <time>2016-01-03T10:44:16.000Z</time>
      </trkpt>
      <trkpt lat="47.50658" lon="6.73813">
        <ele>366</ele>
        <time>2016-01-03T10:44:17.001Z</time>
      </trkpt>
      <trkpt lat="47.50657" lon="6.73821">
        <ele>365</ele>
        <time>2016-01-03T10:44:18.000Z</time>
      </trkpt>
      <trkpt lat="47.50656" lon="6.73829">
        <ele>364</ele>
        <time>2016-01-03T10:44:19.000Z</time>
      </trkpt>
      <trkpt lat="47.50655" lon="6.73837">
        <ele>363</ele>
        <time>2016-01-03T10:44:20.000Z</time>
      </trkpt>
      <trkpt lat="47.50655" lon="6.73845">
        <ele>364</ele>
        <time>2016-01-03T10:44:21.000Z</time>
      </trkpt>
      <trkpt lat="47.50653" lon="6.73853">
        <ele>364</ele>
        <time>2016-01-03T10:44:22.000Z</time>
      </trkpt>
      <trkpt lat="47.50652" lon="6.73861">
        <ele>365</ele>
        <time>2016-01-03T10:44:23.000Z</time>
      </trkpt>
      <trkpt lat="47.50651" lon="6.73867">
        <ele>365</ele>
        <time>2016-01-03T10:44:24.000Z</time>
      </trkpt>
      <trkpt lat="47.50649" lon="6.73873">
        <ele>365</ele>
        <time>2016-01-03T10:44:25.000Z</time>
      </trkpt>
      <trkpt lat="47.50648" lon="6.7388">
        <ele>365</ele>
        <time>2016-01-03T10:44:26.000Z</time>
      </trkpt>
      <trkpt lat="47.50645" lon="6.73887">
        <ele>365</ele>
        <time>2016-01-03T10:44:27.000Z</time>
      </trkpt>
      <trkpt lat="47.50643" lon="6.73894">
        <ele>364</ele>
        <time>2016-01-03T10:44:28.000Z</time>
      </trkpt>
      <trkpt lat="47.5064" lon="6.739">
        <ele>364</ele>
        <time>2016-01-03T10:44:29.000Z</time>
      </trkpt>
      <trkpt lat="47.50638" lon="6.73907">
        <ele>364</ele>
        <time>2016-01-03T10:44:30.000Z</time>
      </trkpt>
      <trkpt lat="47.50635" lon="6.73913">
        <ele>365</ele>
        <time>2016-01-03T10:44:31.000Z</time>
      </trkpt>
      <trkpt lat="47.50632" lon="6.7392">
        <ele>360</ele>
        <time>2016-01-03T10:44:32.000Z</time>
      </trkpt>
      <trkpt lat="47.50629" lon="6.73928">
        <ele>361</ele>
        <time>2016-01-03T10:44:33.000Z</time>
      </trkpt>
      <trkpt lat="47.50625" lon="6.73935">
        <ele>361</ele>
        <time>2016-01-03T10:44:34.000Z</time>
      </trkpt>
      <trkpt lat="47.50622" lon="6.73943">
        <ele>361</ele>
        <time>2016-01-03T10:44:35.000Z</time>
      </trkpt>
      <trkpt lat="47.50618" lon="6.73951">
        <ele>361</ele>
        <time>2016-01-03T10:44:36.000Z</time>
      </trkpt>
      <trkpt lat="47.50615" lon="6.73959">
        <ele>361</ele>
        <time>2016-01-03T10:44:37.000Z</time>
      </trkpt>
      <trkpt lat="47.50613" lon="6.73968">
        <ele>360</ele>
        <time>2016-01-03T10:44:38.000Z</time>
      </trkpt>
      <trkpt lat="47.50609" lon="6.73978">
        <ele>360</ele>
        <time>2016-01-03T10:44:39.000Z</time>
      </trkpt>
      <trkpt lat="47.50606" lon="6.73987">
        <ele>361</ele>
        <time>2016-01-03T10:44:40.000Z</time>
      </trkpt>
      <trkpt lat="47.50602" lon="6.73996">
        <ele>361</ele>
        <time>2016-01-03T10:44:41.000Z</time>
      </trkpt>
      <trkpt lat="47.50597" lon="6.74005">
        <ele>358</ele>
        <time>2016-01-03T10:44:42.000Z</time>
      </trkpt>
      <trkpt lat="47.50593" lon="6.74014">
        <ele>358</ele>
        <time>2016-01-03T10:44:43.000Z</time>
      </trkpt>
      <trkpt lat="47.50588" lon="6.74022">
        <ele>357</ele>
        <time>2016-01-03T10:44:44.000Z</time>
      </trkpt>
      <trkpt lat="47.50585" lon="6.7403">
        <ele>356</ele>
        <time>2016-01-03T10:44:45.000Z</time>
      </trkpt>
      <trkpt lat="47.50582" lon="6.74039">
        <ele>365</ele>
        <time>2016-01-03T10:44:46.000Z</time>
      </trkpt>
      <trkpt lat="47.50578" lon="6.74048">
        <ele>365</ele>
        <time>2016-01-03T10:44:47.000Z</time>
      </trkpt>
      <trkpt lat="47.50574" lon="6.74057">
        <ele>364</ele>
        <time>2016-01-03T10:44:48.000Z</time>
      </trkpt>
      <trkpt lat="47.50572" lon="6.74063">
        <ele>363</ele>
        <time>2016-01-03T10:44:49.000Z</time>
      </trkpt>
      <trkpt lat="47.50568" lon="6.74072">
        <ele>362</ele>
        <time>2016-01-03T10:44:50.000Z</time>
      </trkpt>
      <trkpt lat="47.50564" lon="6.74081">
        <ele>363</ele>
        <time>2016-01-03T10:44:51.000Z</time>
      </trkpt>
      <trkpt lat="47.5056" lon="6.74089">
        <ele>360</ele>
        <time>2016-01-03T10:44:52.000Z</time>
      </trkpt>
      <trkpt lat="47.50556" lon="6.74095">
        <ele>361</ele>
        <time>2016-01-03T10:44:53.000Z</time>
      </trkpt>
      <trkpt lat="47.50551" lon="6.74103">
        <ele>361</ele>
        <time>2016-01-03T10:44:54.000Z</time>
      </trkpt>
      <trkpt lat="47.50549" lon="6.7411">
        <ele>362</ele>
        <time>2016-01-03T10:44:55.000Z</time>
      </trkpt>
      <trkpt lat="47.50549" lon="6.74116">
        <ele>362</ele>
        <time>2016-01-03T10:44:56.000Z</time>
      </trkpt>
      <trkpt lat="47.50546" lon="6.74123">
        <ele>362</ele>
        <time>2016-01-03T10:44:57.000Z</time>
      </trkpt>
      <trkpt lat="47.50543" lon="6.74128">
        <ele>362</ele>
        <time>2016-01-03T10:44:58.000Z</time>
      </trkpt>
      <trkpt lat="47.5054" lon="6.74133">
        <ele>362</ele>
        <time>2016-01-03T10:44:59.000Z</time>
      </trkpt>
      <trkpt lat="47.50537" lon="6.74141">
        <ele>363</ele>
        <time>2016-01-03T10:45:00.000Z</time>
      </trkpt>
      <trkpt lat="47.50533" lon="6.74148">
        <ele>363</ele>
        <time>2016-01-03T10:45:01.000Z</time>
      </trkpt>
      <trkpt lat="47.5053" lon="6.74152">
        <ele>364</ele>
        <time>2016-01-03T10:45:02.000Z</time>
      </trkpt>
      <trkpt lat="47.50526" lon="6.74157">
        <ele>364</ele>
        <time>2016-01-03T10:45:03.000Z</time>
      </trkpt>
      <trkpt lat="47.50525" lon="6.74164">
        <ele>365</ele>
        <time>2016-01-03T10:45:04.000Z</time>
      </trkpt>
      <trkpt lat="47.50523" lon="6.74168">
        <ele>364</ele>
        <time>2016-01-03T10:45:05.000Z</time>
      </trkpt>
      <trkpt lat="47.50521" lon="6.74173">
        <ele>364</ele>
        <time>2016-01-03T10:45:06.000Z</time>
      </trkpt>
      <trkpt lat="47.50518" lon="6.74177">
        <ele>364</ele>
        <time>2016-01-03T10:45:07.000Z</time>
      </trkpt>
      <trkpt lat="47.50517" lon="6.74181">
        <ele>364</ele>
        <time>2016-01-03T10:45:08.000Z</time>
      </trkpt>
      <trkpt lat="47.50513" lon="6.74185">
        <ele>364</ele>
        <time>2016-01-03T10:45:09.000Z</time>
      </trkpt>
      <trkpt lat="47.5051" lon="6.7419">
        <ele>364</ele>
        <time>2016-01-03T10:45:10.000Z</time>
      </trkpt>
      <trkpt lat="47.50508" lon="6.74195">
        <ele>364</ele>
        <time>2016-01-03T10:45:11.000Z</time>
      </trkpt>
      <trkpt lat="47.50506" lon="6.74199">
        <ele>364</ele>
        <time>2016-01-03T10:45:12.000Z</time>
      </trkpt>
      <trkpt lat="47.50505" lon="6.74202">
        <ele>363</ele>
        <time>2016-01-03T10:45:13.000Z</time>
      </trkpt>
      <trkpt lat="47.50503" lon="6.74205">
        <ele>363</ele>
        <time>2016-01-03T10:45:14.000Z</time>
      </trkpt>
      <trkpt lat="47.50502" lon="6.74208">
        <ele>363</ele>
        <time>2016-01-03T10:45:15.000Z</time>
      </trkpt>
      <trkpt lat="47.505" lon="6.74212">
        <ele>363</ele>
        <time>2016-01-03T10:45:16.000Z</time>
      </trkpt>
      <trkpt lat="47.50498" lon="6.74216">
        <ele>373</ele>
        <time>2016-01-03T10:45:17.000Z</time>
      </trkpt>
      <trkpt lat="47.50497" lon="6.7422">
        <ele>372</ele>
        <time>2016-01-03T10:45:18.000Z</time>
      </trkpt>
      <trkpt lat="47.50495" lon="6.74224">
        <ele>372</ele>
        <time>2016-01-03T10:45:19.000Z</time>
      </trkpt>
      <trkpt lat="47.50493" lon="6.74228">
        <ele>372</ele>
        <time>2016-01-03T10:45:20.000Z</time>
      </trkpt>
      <trkpt lat="47.50491" lon="6.74233">
        <ele>372</ele>
        <time>2016-01-03T10:45:21.000Z</time>
      </trkpt>
      <trkpt lat="47.50488" lon="6.74237">
        <ele>372</ele>
        <time>2016-01-03T10:45:22.000Z</time>
      </trkpt>
      <trkpt lat="47.50487" lon="6.74241">
        <ele>371</ele>
        <time>2016-01-03T10:45:23.000Z</time>
      </trkpt>
      <trkpt lat="47.50486" lon="6.74245">
        <ele>371</ele>
        <time>2016-01-03T10:45:24.000Z</time>
      </trkpt>
      <trkpt lat="47.50485" lon="6.7425">
        <ele>371</ele>
        <time>2016-01-03T10:45:25.000Z</time>
      </trkpt>
      <trkpt lat="47.50483" lon="6.74255">
        <ele>369</ele>
        <time>2016-01-03T10:45:26.000Z</time>
      </trkpt>
      <trkpt lat="47.5048" lon="6.7426">
        <ele>369</ele>
        <time>2016-01-03T10:45:27.000Z</time>
      </trkpt>
      <trkpt lat="47.50478" lon="6.74265">
        <ele>369</ele>
        <time>2016-01-03T10:45:28.000Z</time>
      </trkpt>
      <trkpt lat="47.50475" lon="6.7427">
        <ele>370</ele>
        <time>2016-01-03T10:45:29.000Z</time>
      </trkpt>
      <trkpt lat="47.50473" lon="6.74276">
        <ele>370</ele>
        <time>2016-01-03T10:45:30.000Z</time>
      </trkpt>
      <trkpt lat="47.5047" lon="6.74282">
        <ele>370</ele>
        <time>2016-01-03T10:45:31.000Z</time>
      </trkpt>
      <trkpt lat="47.50464" lon="6.74294">
        <ele>369</ele>
        <time>2016-01-03T10:45:32.000Z</time>
      </trkpt>
      <trkpt lat="47.50461" lon="6.743">
        <ele>369</ele>
        <time>2016-01-03T10:45:33.000Z</time>
      </trkpt>
      <trkpt lat="47.50458" lon="6.74307">
        <ele>369</ele>
        <time>2016-01-03T10:45:34.000Z</time>
      </trkpt>
      <trkpt lat="47.50455" lon="6.74313">
        <ele>369</ele>
        <time>2016-01-03T10:45:35.000Z</time>
      </trkpt>
      <trkpt lat="47.50453" lon="6.74319">
        <ele>369</ele>
        <time>2016-01-03T10:45:36.000Z</time>
      </trkpt>
      <trkpt lat="47.50451" lon="6.74325">
        <ele>369</ele>
        <time>2016-01-03T10:45:37.000Z</time>
      </trkpt>
      <trkpt lat="47.50449" lon="6.7433">
        <ele>369</ele>
        <time>2016-01-03T10:45:38.000Z</time>
      </trkpt>
      <trkpt lat="47.50446" lon="6.74335">
        <ele>364</ele>
        <time>2016-01-03T10:45:39.000Z</time>
      </trkpt>
      <trkpt lat="47.50444" lon="6.7434">
        <ele>364</ele>
        <time>2016-01-03T10:45:40.000Z</time>
      </trkpt>
      <trkpt lat="47.50441" lon="6.74344">
        <ele>365</ele>
        <time>2016-01-03T10:45:41.000Z</time>
      </trkpt>
      <trkpt lat="47.50439" lon="6.74348">
        <ele>365</ele>
        <time>2016-01-03T10:45:42.000Z</time>
      </trkpt>
      <trkpt lat="47.50436" lon="6.74353">
        <ele>364</ele>
        <time>2016-01-03T10:45:43.000Z</time>
      </trkpt>
      <trkpt lat="47.50434" lon="6.74357">
        <ele>364</ele>
        <time>2016-01-03T10:45:44.000Z</time>
      </trkpt>
      <trkpt lat="47.50432" lon="6.74362">
        <ele>364</ele>
        <time>2016-01-03T10:45:45.000Z</time>
      </trkpt>
      <trkpt lat="47.5043" lon="6.74367">
        <ele>363</ele>
        <time>2016-01-03T10:45:46.000Z</time>
      </trkpt>
      <trkpt lat="47.50427" lon="6.74372">
        <ele>363</ele>
        <time>2016-01-03T10:45:47.000Z</time>
      </trkpt>
      <trkpt lat="47.50425" lon="6.74378">
        <ele>363</ele>
        <time>2016-01-03T10:45:48.000Z</time>
      </trkpt>
      <trkpt lat="47.50422" lon="6.74387">
        <ele>362</ele>
        <time>2016-01-03T10:45:49.000Z</time>
      </trkpt>
      <trkpt lat="47.5042" lon="6.74393">
        <ele>362</ele>
        <time>2016-01-03T10:45:50.000Z</time>
      </trkpt>
      <trkpt lat="47.50417" lon="6.74401">
        <ele>361</ele>
        <time>2016-01-03T10:45:51.000Z</time>
      </trkpt>
      <trkpt lat="47.50414" lon="6.74407">
        <ele>361</ele>
        <time>2016-01-03T10:45:52.000Z</time>
      </trkpt>
      <trkpt lat="47.5041" lon="6.74414">
        <ele>361</ele>
        <time>2016-01-03T10:45:53.000Z</time>
      </trkpt>
      <trkpt lat="47.50407" lon="6.74422">
        <ele>358</ele>
        <time>2016-01-03T10:45:54.000Z</time>
      </trkpt>
      <trkpt lat="47.50404" lon="6.74429">
        <ele>358</ele>
        <time>2016-01-03T10:45:55.000Z</time>
      </trkpt>
      <trkpt lat="47.504" lon="6.74438">
        <ele>357</ele>
        <time>2016-01-03T10:45:56.000Z</time>
      </trkpt>
      <trkpt lat="47.50397" lon="6.74445">
        <ele>356</ele>
        <time>2016-01-03T10:45:57.000Z</time>
      </trkpt>
      <trkpt lat="47.50394" lon="6.74453">
        <ele>356</ele>
        <time>2016-01-03T10:45:58.000Z</time>
      </trkpt>
      <trkpt lat="47.50391" lon="6.74461">
        <ele>356</ele>
        <time>2016-01-03T10:45:59.000Z</time>
      </trkpt>
      <trkpt lat="47.50389" lon="6.74469">
        <ele>355</ele>
        <time>2016-01-03T10:46:00.000Z</time>
      </trkpt>
      <trkpt lat="47.50386" lon="6.74476">
        <ele>355</ele>
        <time>2016-01-03T10:46:01.000Z</time>
      </trkpt>
      <trkpt lat="47.50385" lon="6.74481">
        <ele>355</ele>
        <time>2016-01-03T10:46:02.000Z</time>
      </trkpt>
      <trkpt lat="47.50383" lon="6.74486">
        <ele>355</ele>
        <time>2016-01-03T10:46:03.000Z</time>
      </trkpt>
      <trkpt lat="47.50383" lon="6.74491">
        <ele>355</ele>
        <time>2016-01-03T10:46:04.000Z</time>
      </trkpt>
      <trkpt lat="47.50383" lon="6.74496">
        <ele>355</ele>
        <time>2016-01-03T10:46:05.000Z</time>
      </trkpt>
      <trkpt lat="47.50384" lon="6.74501">
        <ele>353</ele>
        <time>2016-01-03T10:46:06.000Z</time>
      </trkpt>
      <trkpt lat="47.50385" lon="6.74507">
        <ele>353</ele>
        <time>2016-01-03T10:46:07.000Z</time>
      </trkpt>
      <trkpt lat="47.50387" lon="6.74513">
        <ele>353</ele>
        <time>2016-01-03T10:46:08.000Z</time>
      </trkpt>
      <trkpt lat="47.50388" lon="6.74519">
        <ele>353</ele>
        <time>2016-01-03T10:46:09.000Z</time>
      </trkpt>
      <trkpt lat="47.50389" lon="6.74526">
        <ele>353</ele>
        <time>2016-01-03T10:46:10.000Z</time>
      </trkpt>
      <trkpt lat="47.50391" lon="6.74533">
        <ele>353</ele>
        <time>2016-01-03T10:46:11.000Z</time>
      </trkpt>
      <trkpt lat="47.50392" lon="6.74539">
        <ele>353</ele>
        <time>2016-01-03T10:46:12.000Z</time>
      </trkpt>
      <trkpt lat="47.50393" lon="6.74545">
        <ele>353</ele>
        <time>2016-01-03T10:46:13.000Z</time>
      </trkpt>
      <trkpt lat="47.50395" lon="6.74552">
        <ele>353</ele>
        <time>2016-01-03T10:46:14.000Z</time>
      </trkpt>
      <trkpt lat="47.50396" lon="6.74558">
        <ele>353</ele>
        <time>2016-01-03T10:46:15.000Z</time>
      </trkpt>
      <trkpt lat="47.50397" lon="6.74565">
        <ele>353</ele>
        <time>2016-01-03T10:46:16.000Z</time>
      </trkpt>
      <trkpt lat="47.50398" lon="6.74571">
        <ele>353</ele>
        <time>2016-01-03T10:46:17.000Z</time>
      </trkpt>
      <trkpt lat="47.50398" lon="6.74576">
        <ele>353</ele>
        <time>2016-01-03T10:46:18.000Z</time>
      </trkpt>
      <trkpt lat="47.50399" lon="6.74582">
        <ele>354</ele>
        <time>2016-01-03T10:46:19.000Z</time>
      </trkpt>
      <trkpt lat="47.50399" lon="6.74588">
        <ele>353</ele>
        <time>2016-01-03T10:46:20.000Z</time>
      </trkpt>
      <trkpt lat="47.50399" lon="6.74594">
        <ele>353</ele>
        <time>2016-01-03T10:46:21.000Z</time>
      </trkpt>
      <trkpt lat="47.504" lon="6.74599">
        <ele>353</ele>
        <time>2016-01-03T10:46:21.999Z</time>
      </trkpt>
      <trkpt lat="47.50401" lon="6.74608">
        <ele>352</ele>
        <time>2016-01-03T10:46:23.000Z</time>
      </trkpt>
      <trkpt lat="47.50401" lon="6.74616">
        <ele>352</ele>
        <time>2016-01-03T10:46:24.000Z</time>
      </trkpt>
      <trkpt lat="47.50402" lon="6.74624">
        <ele>352</ele>
        <time>2016-01-03T10:46:25.000Z</time>
      </trkpt>
      <trkpt lat="47.50403" lon="6.74632">
        <ele>352</ele>
        <time>2016-01-03T10:46:26.000Z</time>
      </trkpt>
      <trkpt lat="47.50404" lon="6.74641">
        <ele>352</ele>
        <time>2016-01-03T10:46:27.000Z</time>
      </trkpt>
      <trkpt lat="47.50405" lon="6.74649">
        <ele>353</ele>
        <time>2016-01-03T10:46:28.000Z</time>
      </trkpt>
      <trkpt lat="47.50406" lon="6.74657">
        <ele>353</ele>
        <time>2016-01-03T10:46:29.000Z</time>
      </trkpt>
      <trkpt lat="47.50408" lon="6.74665">
        <ele>353</ele>
        <time>2016-01-03T10:46:30.000Z</time>
      </trkpt>
      <trkpt lat="47.50408" lon="6.74674">
        <ele>353</ele>
        <time>2016-01-03T10:46:31.000Z</time>
      </trkpt>
      <trkpt lat="47.50406" lon="6.74682">
        <ele>352</ele>
        <time>2016-01-03T10:46:32.000Z</time>
      </trkpt>
      <trkpt lat="47.50404" lon="6.7469">
        <ele>352</ele>
        <time>2016-01-03T10:46:33.000Z</time>
      </trkpt>
      <trkpt lat="47.50402" lon="6.74697">
        <ele>352</ele>
        <time>2016-01-03T10:46:34.000Z</time>
      </trkpt>
      <trkpt lat="47.50399" lon="6.74705">
        <ele>352</ele>
        <time>2016-01-03T10:46:35.000Z</time>
      </trkpt>
      <trkpt lat="47.50397" lon="6.74713">
        <ele>352</ele>
        <time>2016-01-03T10:46:36.000Z</time>
      </trkpt>
      <trkpt lat="47.50394" lon="6.74721">
        <ele>352</ele>
        <time>2016-01-03T10:46:37.000Z</time>
      </trkpt>
      <trkpt lat="47.50392" lon="6.74729">
        <ele>352</ele>
        <time>2016-01-03T10:46:38.000Z</time>
      </trkpt>
      <trkpt lat="47.50388" lon="6.74737">
        <ele>351</ele>
        <time>2016-01-03T10:46:39.000Z</time>
      </trkpt>
      <trkpt lat="47.50386" lon="6.74745">
        <ele>351</ele>
        <time>2016-01-03T10:46:40.000Z</time>
      </trkpt>
      <trkpt lat="47.50383" lon="6.74753">
        <ele>351</ele>
        <time>2016-01-03T10:46:41.000Z</time>
      </trkpt>
      <trkpt lat="47.50381" lon="6.74761">
        <ele>350</ele>
        <time>2016-01-03T10:46:42.000Z</time>
      </trkpt>
      <trkpt lat="47.50379" lon="6.7477">
        <ele>350</ele>
        <time>2016-01-03T10:46:43.000Z</time>
      </trkpt>
      <trkpt lat="47.50377" lon="6.74778">
        <ele>350</ele>
        <time>2016-01-03T10:46:44.000Z</time>
      </trkpt>
      <trkpt lat="47.50374" lon="6.74787">
        <ele>350</ele>
        <time>2016-01-03T10:46:45.000Z</time>
      </trkpt>
      <trkpt lat="47.50371" lon="6.74795">
        <ele>350</ele>
        <time>2016-01-03T10:46:46.000Z</time>
      </trkpt>
      <trkpt lat="47.50369" lon="6.74804">
        <ele>350</ele>
        <time>2016-01-03T10:46:47.000Z</time>
      </trkpt>
      <trkpt lat="47.50366" lon="6.74813">
        <ele>350</ele>
        <time>2016-01-03T10:46:48.000Z</time>
      </trkpt>
      <trkpt lat="47.50364" lon="6.74821">
        <ele>349</ele>
        <time>2016-01-03T10:46:49.000Z</time>
      </trkpt>
      <trkpt lat="47.50362" lon="6.7483">
        <ele>349</ele>
        <time>2016-01-03T10:46:50.000Z</time>
      </trkpt>
      <trkpt lat="47.5036" lon="6.7484">
        <ele>348</ele>
        <time>2016-01-03T10:46:51.000Z</time>
      </trkpt>
      <trkpt lat="47.50357" lon="6.74849">
        <ele>348</ele>
        <time>2016-01-03T10:46:52.000Z</time>
      </trkpt>
      <trkpt lat="47.50354" lon="6.74858">
        <ele>348</ele>
        <time>2016-01-03T10:46:53.000Z</time>
      </trkpt>
      <trkpt lat="47.50352" lon="6.74867">
        <ele>348</ele>
        <time>2016-01-03T10:46:54.000Z</time>
      </trkpt>
      <trkpt lat="47.50349" lon="6.74877">
        <ele>348</ele>
        <time>2016-01-03T10:46:55.000Z</time>
      </trkpt>
      <trkpt lat="47.50346" lon="6.74886">
        <ele>348</ele>
        <time>2016-01-03T10:46:56.000Z</time>
      </trkpt>
      <trkpt lat="47.50344" lon="6.74895">
        <ele>348</ele>
        <time>2016-01-03T10:46:57.000Z</time>
      </trkpt>
      <trkpt lat="47.50341" lon="6.74904">
        <ele>347</ele>
        <time>2016-01-03T10:46:58.000Z</time>
      </trkpt>
      <trkpt lat="47.50339" lon="6.74914">
        <ele>347</ele>
        <time>2016-01-03T10:46:59.000Z</time>
      </trkpt>
      <trkpt lat="47.50335" lon="6.74923">
        <ele>347</ele>
        <time>2016-01-03T10:47:00.000Z</time>
      </trkpt>
      <trkpt lat="47.50333" lon="6.74932">
        <ele>345</ele>
        <time>2016-01-03T10:47:01.000Z</time>
      </trkpt>
      <trkpt lat="47.5033" lon="6.74941">
        <ele>344</ele>
        <time>2016-01-03T10:47:02.000Z</time>
      </trkpt>
      <trkpt lat="47.50327" lon="6.7495">
        <ele>344</ele>
        <time>2016-01-03T10:47:03.000Z</time>
      </trkpt>
      <trkpt lat="47.50325" lon="6.74959">
        <ele>344</ele>
        <time>2016-01-03T10:47:04.000Z</time>
      </trkpt>
      <trkpt lat="47.50322" lon="6.74968">
        <ele>344</ele>
        <time>2016-01-03T10:47:05.000Z</time>
      </trkpt>
      <trkpt lat="47.50318" lon="6.74976">
        <ele>345</ele>
        <time>2016-01-03T10:47:06.000Z</time>
      </trkpt>
      <trkpt lat="47.50315" lon="6.74983">
        <ele>345</ele>
        <time>2016-01-03T10:47:07.000Z</time>
      </trkpt>
      <trkpt lat="47.50313" lon="6.74988">
        <ele>345</ele>
        <time>2016-01-03T10:47:08.000Z</time>
      </trkpt>
      <trkpt lat="47.50308" lon="6.74995">
        <ele>345</ele>
        <time>2016-01-03T10:47:09.000Z</time>
      </trkpt>
      <trkpt lat="47.50302" lon="6.75">
        <ele>345</ele>
        <time>2016-01-03T10:47:10.000Z</time>
      </trkpt>
      <trkpt lat="47.50296" lon="6.75005">
        <ele>344</ele>
        <time>2016-01-03T10:47:11.000Z</time>
      </trkpt>
      <trkpt lat="47.5029" lon="6.75009">
        <ele>343</ele>
        <time>2016-01-03T10:47:12.000Z</time>
      </trkpt>
      <trkpt lat="47.50284" lon="6.75013">
        <ele>343</ele>
        <time>2016-01-03T10:47:13.000Z</time>
      </trkpt>
      <trkpt lat="47.5028" lon="6.7502">
        <ele>343</ele>
        <time>2016-01-03T10:47:14.000Z</time>
      </trkpt>
      <trkpt lat="47.50274" lon="6.75025">
        <ele>342</ele>
        <time>2016-01-03T10:47:15.000Z</time>
      </trkpt>
      <trkpt lat="47.50268" lon="6.75024">
        <ele>342</ele>
        <time>2016-01-03T10:47:16.000Z</time>
      </trkpt>
      <trkpt lat="47.50262" lon="6.75022">
        <ele>341</ele>
        <time>2016-01-03T10:47:17.000Z</time>
      </trkpt>
      <trkpt lat="47.50258" lon="6.75009">
        <ele>340</ele>
        <time>2016-01-03T10:47:18.000Z</time>
      </trkpt>
      <trkpt lat="47.50255" lon="6.74998">
        <ele>338</ele>
        <time>2016-01-03T10:47:19.000Z</time>
      </trkpt>
      <trkpt lat="47.50252" lon="6.74989">
        <ele>339</ele>
        <time>2016-01-03T10:47:20.000Z</time>
      </trkpt>
      <trkpt lat="47.50248" lon="6.74981">
        <ele>336</ele>
        <time>2016-01-03T10:47:21.000Z</time>
      </trkpt>
      <trkpt lat="47.50244" lon="6.74975">
        <ele>336</ele>
        <time>2016-01-03T10:47:22.000Z</time>
      </trkpt>
      <trkpt lat="47.5024" lon="6.7497">
        <ele>336</ele>
        <time>2016-01-03T10:47:23.000Z</time>
      </trkpt>
      <trkpt lat="47.50237" lon="6.74966">
        <ele>336</ele>
        <time>2016-01-03T10:47:24.000Z</time>
      </trkpt>
      <trkpt lat="47.50233" lon="6.74963">
        <ele>336</ele>
        <time>2016-01-03T10:47:25.000Z</time>
      </trkpt>
      <trkpt lat="47.5023" lon="6.7496">
        <ele>336</ele>
        <time>2016-01-03T10:47:26.000Z</time>
      </trkpt>
      <trkpt lat="47.50227" lon="6.7496">
        <ele>336</ele>
        <time>2016-01-03T10:47:27.000Z</time>
      </trkpt>
      <trkpt lat="47.50224" lon="6.74962">
        <ele>336</ele>
        <time>2016-01-03T10:47:28.001Z</time>
      </trkpt>
      <trkpt lat="47.5022" lon="6.74964">
        <ele>336</ele>
        <time>2016-01-03T10:47:29.001Z</time>
      </trkpt>
      <trkpt lat="47.50217" lon="6.7497">
        <ele>336</ele>
        <time>2016-01-03T10:47:30.000Z</time>
      </trkpt>
      <trkpt lat="47.50213" lon="6.74974">
        <ele>336</ele>
        <time>2016-01-03T10:47:31.000Z</time>
      </trkpt>
      <trkpt lat="47.5021" lon="6.74977">
        <ele>336</ele>
        <time>2016-01-03T10:47:32.000Z</time>
      </trkpt>
      <trkpt lat="47.50216" lon="6.74978">
        <ele>336</ele>
        <time>2016-01-03T10:47:33.001Z</time>
      </trkpt>
      <trkpt lat="47.50211" lon="6.74988">
        <ele>336</ele>
        <time>2016-01-03T10:47:34.000Z</time>
      </trkpt>
      <trkpt lat="47.5021" lon="6.74995">
        <ele>336</ele>
        <time>2016-01-03T10:47:35.001Z</time>
      </trkpt>
      <trkpt lat="47.50207" lon="6.75003">
        <ele>334</ele>
        <time>2016-01-03T10:47:36.000Z</time>
      </trkpt>
      <trkpt lat="47.50206" lon="6.75012">
        <ele>334</ele>
        <time>2016-01-03T10:47:37.000Z</time>
      </trkpt>
      <trkpt lat="47.50204" lon="6.75021">
        <ele>334</ele>
        <time>2016-01-03T10:47:38.000Z</time>
      </trkpt>
      <trkpt lat="47.50202" lon="6.7503">
        <ele>334</ele>
        <time>2016-01-03T10:47:39.000Z</time>
      </trkpt>
      <trkpt lat="47.50202" lon="6.75039">
        <ele>334</ele>
        <time>2016-01-03T10:47:40.000Z</time>
      </trkpt>
      <trkpt lat="47.502" lon="6.75048">
        <ele>333</ele>
        <time>2016-01-03T10:47:41.000Z</time>
      </trkpt>
      <trkpt lat="47.50199" lon="6.75058">
        <ele>333</ele>
        <time>2016-01-03T10:47:42.000Z</time>
      </trkpt>
      <trkpt lat="47.50197" lon="6.75068">
        <ele>333</ele>
        <time>2016-01-03T10:47:43.000Z</time>
      </trkpt>
      <trkpt lat="47.50196" lon="6.75079">
        <ele>332</ele>
        <time>2016-01-03T10:47:44.000Z</time>
      </trkpt>
      <trkpt lat="47.50195" lon="6.75089">
        <ele>330</ele>
        <time>2016-01-03T10:47:45.000Z</time>
      </trkpt>
      <trkpt lat="47.50193" lon="6.751">
        <ele>329</ele>
        <time>2016-01-03T10:47:46.000Z</time>
      </trkpt>
      <trkpt lat="47.5019" lon="6.75111">
        <ele>329</ele>
        <time>2016-01-03T10:47:47.000Z</time>
      </trkpt>
      <trkpt lat="47.50186" lon="6.75119">
        <ele>329</ele>
        <time>2016-01-03T10:47:48.000Z</time>
      </trkpt>
      <trkpt lat="47.5018" lon="6.75127">
        <ele>328</ele>
        <time>2016-01-03T10:47:49.000Z</time>
      </trkpt>
      <trkpt lat="47.50175" lon="6.75133">
        <ele>328</ele>
        <time>2016-01-03T10:47:50.000Z</time>
      </trkpt>
      <trkpt lat="47.50168" lon="6.75139">
        <ele>327</ele>
        <time>2016-01-03T10:47:51.000Z</time>
      </trkpt>
      <trkpt lat="47.50161" lon="6.75145">
        <ele>325</ele>
        <time>2016-01-03T10:47:52.000Z</time>
      </trkpt>
      <trkpt lat="47.50154" lon="6.7515">
        <ele>325</ele>
        <time>2016-01-03T10:47:53.000Z</time>
      </trkpt>
      <trkpt lat="47.50147" lon="6.75156">
        <ele>325</ele>
        <time>2016-01-03T10:47:54.000Z</time>
      </trkpt>
      <trkpt lat="47.50141" lon="6.75161">
        <ele>325</ele>
        <time>2016-01-03T10:47:55.000Z</time>
      </trkpt>
      <trkpt lat="47.50134" lon="6.75167">
        <ele>325</ele>
        <time>2016-01-03T10:47:56.000Z</time>
      </trkpt>
      <trkpt lat="47.50128" lon="6.75172">
        <ele>323</ele>
        <time>2016-01-03T10:47:57.000Z</time>
      </trkpt>
      <trkpt lat="47.50121" lon="6.75177">
        <ele>323</ele>
        <time>2016-01-03T10:47:58.000Z</time>
      </trkpt>
      <trkpt lat="47.50115" lon="6.75181">
        <ele>323</ele>
        <time>2016-01-03T10:47:59.000Z</time>
      </trkpt>
      <trkpt lat="47.50108" lon="6.75184">
        <ele>323</ele>
        <time>2016-01-03T10:48:00.000Z</time>
      </trkpt>
      <trkpt lat="47.50101" lon="6.75187">
        <ele>323</ele>
        <time>2016-01-03T10:48:01.000Z</time>
      </trkpt>
      <trkpt lat="47.50095" lon="6.7519">
        <ele>323</ele>
        <time>2016-01-03T10:48:02.000Z</time>
      </trkpt>
      <trkpt lat="47.50088" lon="6.75192">
        <ele>323</ele>
        <time>2016-01-03T10:48:03.000Z</time>
      </trkpt>
      <trkpt lat="47.50081" lon="6.75194">
        <ele>323</ele>
        <time>2016-01-03T10:48:04.000Z</time>
      </trkpt>
      <trkpt lat="47.50075" lon="6.75195">
        <ele>323</ele>
        <time>2016-01-03T10:48:05.000Z</time>
      </trkpt>
      <trkpt lat="47.50068" lon="6.75197">
        <ele>323</ele>
        <time>2016-01-03T10:48:06.000Z</time>
      </trkpt>
      <trkpt lat="47.50061" lon="6.75199">
        <ele>322</ele>
        <time>2016-01-03T10:48:07.000Z</time>
      </trkpt>
      <trkpt lat="47.50053" lon="6.75199">
        <ele>322</ele>
        <time>2016-01-03T10:48:08.000Z</time>
      </trkpt>
      <trkpt lat="47.50047" lon="6.75199">
        <ele>322</ele>
        <time>2016-01-03T10:48:08.999Z</time>
      </trkpt>
      <trkpt lat="47.50041" lon="6.75203">
        <ele>322</ele>
        <time>2016-01-03T10:48:10.000Z</time>
      </trkpt>
      <trkpt lat="47.50035" lon="6.75207">
        <ele>322</ele>
        <time>2016-01-03T10:48:11.000Z</time>
      </trkpt>
      <trkpt lat="47.5003" lon="6.7521">
        <ele>322</ele>
        <time>2016-01-03T10:48:11.999Z</time>
      </trkpt>
      <trkpt lat="47.50025" lon="6.75218">
        <ele>322</ele>
        <time>2016-01-03T10:48:13.000Z</time>
      </trkpt>
      <trkpt lat="47.50021" lon="6.75224">
        <ele>322</ele>
        <time>2016-01-03T10:48:14.000Z</time>
      </trkpt>
      <trkpt lat="47.50017" lon="6.75231">
        <ele>322</ele>
        <time>2016-01-03T10:48:15.000Z</time>
      </trkpt>
      <trkpt lat="47.50014" lon="6.75239">
        <ele>322</ele>
        <time>2016-01-03T10:48:16.000Z</time>
      </trkpt>
      <trkpt lat="47.50012" lon="6.75247">
        <ele>321</ele>
        <time>2016-01-03T10:48:16.999Z</time>
      </trkpt>
      <trkpt lat="47.50012" lon="6.75256">
        <ele>321</ele>
        <time>2016-01-03T10:48:18.000Z</time>
      </trkpt>
      <trkpt lat="47.50011" lon="6.75265">
        <ele>322</ele>
        <time>2016-01-03T10:48:19.000Z</time>
      </trkpt>
      <trkpt lat="47.50012" lon="6.75274">
        <ele>322</ele>
        <time>2016-01-03T10:48:20.000Z</time>
      </trkpt>
      <trkpt lat="47.50011" lon="6.75282">
        <ele>322</ele>
        <time>2016-01-03T10:48:21.000Z</time>
      </trkpt>
      <trkpt lat="47.50012" lon="6.7529">
        <ele>322</ele>
        <time>2016-01-03T10:48:22.000Z</time>
      </trkpt>
      <trkpt lat="47.50013" lon="6.75297">
        <ele>322</ele>
        <time>2016-01-03T10:48:23.000Z</time>
      </trkpt>
      <trkpt lat="47.50013" lon="6.75306">
        <ele>322</ele>
        <time>2016-01-03T10:48:24.000Z</time>
      </trkpt>
      <trkpt lat="47.50013" lon="6.75313">
        <ele>323</ele>
        <time>2016-01-03T10:48:25.000Z</time>
      </trkpt>
      <trkpt lat="47.50013" lon="6.7532">
        <ele>323</ele>
        <time>2016-01-03T10:48:26.000Z</time>
      </trkpt>
      <trkpt lat="47.50013" lon="6.75328">
        <ele>323</ele>
        <time>2016-01-03T10:48:27.000Z</time>
      </trkpt>
      <trkpt lat="47.50013" lon="6.75334">
        <ele>325</ele>
        <time>2016-01-03T10:48:28.000Z</time>
      </trkpt>
      <trkpt lat="47.50013" lon="6.75341">
        <ele>326</ele>
        <time>2016-01-03T10:48:29.000Z</time>
      </trkpt>
      <trkpt lat="47.50013" lon="6.75348">
        <ele>326</ele>
        <time>2016-01-03T10:48:30.000Z</time>
      </trkpt>
      <trkpt lat="47.50013" lon="6.75355">
        <ele>327</ele>
        <time>2016-01-03T10:48:31.000Z</time>
      </trkpt>
      <trkpt lat="47.50013" lon="6.75361">
        <ele>327</ele>
        <time>2016-01-03T10:48:32.000Z</time>
      </trkpt>
      <trkpt lat="47.50013" lon="6.75367">
        <ele>328</ele>
        <time>2016-01-03T10:48:32.999Z</time>
      </trkpt>
      <trkpt lat="47.50009" lon="6.75373">
        <ele>328</ele>
        <time>2016-01-03T10:48:34.000Z</time>
      </trkpt>
      <trkpt lat="47.50008" lon="6.75377">
        <ele>328</ele>
        <time>2016-01-03T10:48:35.000Z</time>
      </trkpt>
      <trkpt lat="47.50006" lon="6.75382">
        <ele>329</ele>
        <time>2016-01-03T10:48:36.000Z</time>
      </trkpt>
      <trkpt lat="47.50004" lon="6.75386">
        <ele>329</ele>
        <time>2016-01-03T10:48:37.000Z</time>
      </trkpt>
      <trkpt lat="47.50001" lon="6.75389">
        <ele>329</ele>
        <time>2016-01-03T10:48:38.001Z</time>
      </trkpt>
      <trkpt lat="47.5" lon="6.75393">
        <ele>329</ele>
        <time>2016-01-03T10:48:39.000Z</time>
      </trkpt>
      <trkpt lat="47.49998" lon="6.75396">
        <ele>328</ele>
        <time>2016-01-03T10:48:40.000Z</time>
      </trkpt>
      <trkpt lat="47.49997" lon="6.75399">
        <ele>328</ele>
        <time>2016-01-03T10:48:41.000Z</time>
      </trkpt>
      <trkpt lat="47.49995" lon="6.75402">
        <ele>329</ele>
        <time>2016-01-03T10:48:42.000Z</time>
      </trkpt>
      <trkpt lat="47.49993" lon="6.75407">
        <ele>329</ele>
        <time>2016-01-03T10:48:44.000Z</time>
      </trkpt>
      <trkpt lat="47.49992" lon="6.75409">
        <ele>329</ele>
        <time>2016-01-03T10:48:45.000Z</time>
      </trkpt>
      <trkpt lat="47.4999" lon="6.75415">
        <ele>329</ele>
        <time>2016-01-03T10:48:47.998Z</time>
      </trkpt>
      <trkpt lat="47.4999" lon="6.75415">
        <ele>329</ele>
        <time>2016-01-03T10:48:49.002Z</time>
      </trkpt>
      <trkpt lat="47.4999" lon="6.75422">
        <ele>333</ele>
        <time>2016-01-03T10:49:20.000Z</time>
      </trkpt>
      <trkpt lat="47.49992" lon="6.75424">
        <ele>333</ele>
        <time>2016-01-03T10:49:21.000Z</time>
      </trkpt>
      <trkpt lat="47.49994" lon="6.75427">
        <ele>333</ele>
        <time>2016-01-03T10:49:22.000Z</time>
      </trkpt>
      <trkpt lat="47.49995" lon="6.7543">
        <ele>334</ele>
        <time>2016-01-03T10:49:23.000Z</time>
      </trkpt>
      <trkpt lat="47.49997" lon="6.75433">
        <ele>334</ele>
        <time>2016-01-03T10:49:24.000Z</time>
      </trkpt>
      <trkpt lat="47.49999" lon="6.75436">
        <ele>334</ele>
        <time>2016-01-03T10:49:25.000Z</time>
      </trkpt>
      <trkpt lat="47.5" lon="6.75439">
        <ele>335</ele>
        <time>2016-01-03T10:49:26.000Z</time>
      </trkpt>
      <trkpt lat="47.50001" lon="6.75441">
        <ele>336</ele>
        <time>2016-01-03T10:49:27.000Z</time>
      </trkpt>
      <trkpt lat="47.50002" lon="6.75444">
        <ele>336</ele>
        <time>2016-01-03T10:49:28.000Z</time>
      </trkpt>
      <trkpt lat="47.50003" lon="6.75447">
        <ele>337</ele>
        <time>2016-01-03T10:49:29.000Z</time>
      </trkpt>
      <trkpt lat="47.50006" lon="6.75453">
        <ele>337</ele>
        <time>2016-01-03T10:49:31.000Z</time>
      </trkpt>
      <trkpt lat="47.50006" lon="6.75456">
        <ele>338</ele>
        <time>2016-01-03T10:49:32.000Z</time>
      </trkpt>
      <trkpt lat="47.50007" lon="6.75459">
        <ele>338</ele>
        <time>2016-01-03T10:49:33.000Z</time>
      </trkpt>
      <trkpt lat="47.50008" lon="6.75462">
        <ele>338</ele>
        <time>2016-01-03T10:49:34.000Z</time>
      </trkpt>
      <trkpt lat="47.5001" lon="6.75465">
        <ele>339</ele>
        <time>2016-01-03T10:49:35.000Z</time>
      </trkpt>
      <trkpt lat="47.50011" lon="6.75469">
        <ele>339</ele>
        <time>2016-01-03T10:49:36.000Z</time>
      </trkpt>
      <trkpt lat="47.50013" lon="6.75472">
        <ele>339</ele>
        <time>2016-01-03T10:49:37.000Z</time>
      </trkpt>
      <trkpt lat="47.50014" lon="6.75475">
        <ele>339</ele>
        <time>2016-01-03T10:49:38.000Z</time>
      </trkpt>
      <trkpt lat="47.50016" lon="6.75479">
        <ele>340</ele>
        <time>2016-01-03T10:49:39.000Z</time>
      </trkpt>
      <trkpt lat="47.50017" lon="6.75483">
        <ele>340</ele>
        <time>2016-01-03T10:49:40.000Z</time>
      </trkpt>
      <trkpt lat="47.50017" lon="6.75486">
        <ele>340</ele>
        <time>2016-01-03T10:49:41.000Z</time>
      </trkpt>
      <trkpt lat="47.50018" lon="6.75489">
        <ele>341</ele>
        <time>2016-01-03T10:49:42.000Z</time>
      </trkpt>
      <trkpt lat="47.50018" lon="6.75493">
        <ele>341</ele>
        <time>2016-01-03T10:49:43.000Z</time>
      </trkpt>
      <trkpt lat="47.50018" lon="6.75496">
        <ele>341</ele>
        <time>2016-01-03T10:49:44.000Z</time>
      </trkpt>
      <trkpt lat="47.50019" lon="6.75499">
        <ele>341</ele>
        <time>2016-01-03T10:49:45.000Z</time>
      </trkpt>
      <trkpt lat="47.50019" lon="6.75502">
        <ele>345</ele>
        <time>2016-01-03T10:49:46.000Z</time>
      </trkpt>
      <trkpt lat="47.50019" lon="6.75509">
        <ele>345</ele>
        <time>2016-01-03T10:49:48.000Z</time>
      </trkpt>
      <trkpt lat="47.50019" lon="6.75512">
        <ele>345</ele>
        <time>2016-01-03T10:49:49.000Z</time>
      </trkpt>
      <trkpt lat="47.5002" lon="6.75517">
        <ele>345</ele>
        <time>2016-01-03T10:49:51.000Z</time>
      </trkpt>
      <trkpt lat="47.5002" lon="6.7552">
        <ele>345</ele>
        <time>2016-01-03T10:49:52.000Z</time>
      </trkpt>
      <trkpt lat="47.50021" lon="6.75526">
        <ele>345</ele>
        <time>2016-01-03T10:49:54.000Z</time>
      </trkpt>
      <trkpt lat="47.50021" lon="6.75529">
        <ele>345</ele>
        <time>2016-01-03T10:49:55.000Z</time>
      </trkpt>
      <trkpt lat="47.50023" lon="6.75535">
        <ele>346</ele>
        <time>2016-01-03T10:49:57.000Z</time>
      </trkpt>
      <trkpt lat="47.50023" lon="6.75538">
        <ele>346</ele>
        <time>2016-01-03T10:49:58.000Z</time>
      </trkpt>
      <trkpt lat="47.50025" lon="6.75543">
        <ele>346</ele>
        <time>2016-01-03T10:50:00.000Z</time>
      </trkpt>
      <trkpt lat="47.50026" lon="6.75546">
        <ele>346</ele>
        <time>2016-01-03T10:50:01.000Z</time>
      </trkpt>
      <trkpt lat="47.50028" lon="6.75551">
        <ele>346</ele>
        <time>2016-01-03T10:50:03.000Z</time>
      </trkpt>
      <trkpt lat="47.50029" lon="6.75554">
        <ele>346</ele>
        <time>2016-01-03T10:50:04.000Z</time>
      </trkpt>
      <trkpt lat="47.50031" lon="6.75559">
        <ele>346</ele>
        <time>2016-01-03T10:50:06.000Z</time>
      </trkpt>
      <trkpt lat="47.50032" lon="6.75562">
        <ele>347</ele>
        <time>2016-01-03T10:50:07.000Z</time>
      </trkpt>
      <trkpt lat="47.50034" lon="6.75568">
        <ele>347</ele>
        <time>2016-01-03T10:50:09.000Z</time>
      </trkpt>
      <trkpt lat="47.50035" lon="6.7557">
        <ele>347</ele>
        <time>2016-01-03T10:50:10.000Z</time>
      </trkpt>
      <trkpt lat="47.50038" lon="6.75576">
        <ele>347</ele>
        <time>2016-01-03T10:50:12.000Z</time>
      </trkpt>
      <trkpt lat="47.50039" lon="6.75579">
        <ele>347</ele>
        <time>2016-01-03T10:50:13.000Z</time>
      </trkpt>
      <trkpt lat="47.50041" lon="6.75584">
        <ele>352</ele>
        <time>2016-01-03T10:50:15.000Z</time>
      </trkpt>
      <trkpt lat="47.50042" lon="6.75587">
        <ele>352</ele>
        <time>2016-01-03T10:50:16.000Z</time>
      </trkpt>
      <trkpt lat="47.50044" lon="6.75592">
        <ele>352</ele>
        <time>2016-01-03T10:50:18.000Z</time>
      </trkpt>
      <trkpt lat="47.50045" lon="6.75595">
        <ele>352</ele>
        <time>2016-01-03T10:50:19.000Z</time>
      </trkpt>
      <trkpt lat="47.50048" lon="6.756">
        <ele>352</ele>
        <time>2016-01-03T10:50:21.000Z</time>
      </trkpt>
      <trkpt lat="47.50049" lon="6.75603">
        <ele>352</ele>
        <time>2016-01-03T10:50:22.000Z</time>
      </trkpt>
      <trkpt lat="47.5005" lon="6.75605">
        <ele>352</ele>
        <time>2016-01-03T10:50:23.000Z</time>
      </trkpt>
      <trkpt lat="47.50051" lon="6.75608">
        <ele>352</ele>
        <time>2016-01-03T10:50:24.000Z</time>
      </trkpt>
      <trkpt lat="47.50052" lon="6.75611">
        <ele>352</ele>
        <time>2016-01-03T10:50:25.000Z</time>
      </trkpt>
      <trkpt lat="47.50053" lon="6.75614">
        <ele>352</ele>
        <time>2016-01-03T10:50:26.000Z</time>
      </trkpt>
      <trkpt lat="47.50054" lon="6.75617">
        <ele>353</ele>
        <time>2016-01-03T10:50:27.000Z</time>
      </trkpt>
      <trkpt lat="47.50056" lon="6.7562">
        <ele>353</ele>
        <time>2016-01-03T10:50:28.000Z</time>
      </trkpt>
      <trkpt lat="47.50058" lon="6.75626">
        <ele>353</ele>
        <time>2016-01-03T10:50:30.000Z</time>
      </trkpt>
      <trkpt lat="47.50059" lon="6.75628">
        <ele>353</ele>
        <time>2016-01-03T10:50:31.000Z</time>
      </trkpt>
      <trkpt lat="47.50061" lon="6.75633">
        <ele>353</ele>
        <time>2016-01-03T10:50:33.000Z</time>
      </trkpt>
      <trkpt lat="47.50063" lon="6.75636">
        <ele>353</ele>
        <time>2016-01-03T10:50:34.000Z</time>
      </trkpt>
      <trkpt lat="47.50065" lon="6.75641">
        <ele>353</ele>
        <time>2016-01-03T10:50:36.000Z</time>
      </trkpt>
      <trkpt lat="47.50066" lon="6.75644">
        <ele>354</ele>
        <time>2016-01-03T10:50:37.000Z</time>
      </trkpt>
      <trkpt lat="47.50069" lon="6.75649">
        <ele>354</ele>
        <time>2016-01-03T10:50:39.000Z</time>
      </trkpt>
      <trkpt lat="47.5007" lon="6.75651">
        <ele>354</ele>
        <time>2016-01-03T10:50:40.000Z</time>
      </trkpt>
      <trkpt lat="47.50072" lon="6.75655">
        <ele>354</ele>
        <time>2016-01-03T10:50:42.000Z</time>
      </trkpt>
      <trkpt lat="47.50073" lon="6.75657">
        <ele>354</ele>
        <time>2016-01-03T10:50:43.000Z</time>
      </trkpt>
      <trkpt lat="47.50075" lon="6.75662">
        <ele>353</ele>
        <time>2016-01-03T10:50:45.000Z</time>
      </trkpt>
      <trkpt lat="47.50077" lon="6.75664">
        <ele>353</ele>
        <time>2016-01-03T10:50:46.000Z</time>
      </trkpt>
      <trkpt lat="47.50079" lon="6.75669">
        <ele>355</ele>
        <time>2016-01-03T10:50:48.000Z</time>
      </trkpt>
      <trkpt lat="47.5008" lon="6.75671">
        <ele>355</ele>
        <time>2016-01-03T10:50:49.000Z</time>
      </trkpt>
      <trkpt lat="47.50083" lon="6.75675">
        <ele>357</ele>
        <time>2016-01-03T10:50:51.000Z</time>
      </trkpt>
      <trkpt lat="47.50084" lon="6.75678">
        <ele>356</ele>
        <time>2016-01-03T10:50:52.000Z</time>
      </trkpt>
      <trkpt lat="47.50087" lon="6.75683">
        <ele>356</ele>
        <time>2016-01-03T10:50:54.000Z</time>
      </trkpt>
      <trkpt lat="47.50088" lon="6.75686">
        <ele>357</ele>
        <time>2016-01-03T10:50:55.000Z</time>
      </trkpt>
      <trkpt lat="47.5009" lon="6.75688">
        <ele>357</ele>
        <time>2016-01-03T10:50:56.000Z</time>
      </trkpt>
      <trkpt lat="47.50092" lon="6.7569">
        <ele>358</ele>
        <time>2016-01-03T10:50:57.000Z</time>
      </trkpt>
      <trkpt lat="47.50093" lon="6.75693">
        <ele>358</ele>
        <time>2016-01-03T10:50:58.000Z</time>
      </trkpt>
      <trkpt lat="47.50095" lon="6.75696">
        <ele>358</ele>
        <time>2016-01-03T10:50:59.000Z</time>
      </trkpt>
      <trkpt lat="47.50098" lon="6.757">
        <ele>359</ele>
        <time>2016-01-03T10:51:01.000Z</time>
      </trkpt>
      <trkpt lat="47.501" lon="6.75702">
        <ele>359</ele>
        <time>2016-01-03T10:51:02.000Z</time>
      </trkpt>
      <trkpt lat="47.50103" lon="6.75707">
        <ele>359</ele>
        <time>2016-01-03T10:51:04.000Z</time>
      </trkpt>
      <trkpt lat="47.50104" lon="6.75709">
        <ele>359</ele>
        <time>2016-01-03T10:51:05.000Z</time>
      </trkpt>
      <trkpt lat="47.50107" lon="6.75714">
        <ele>360</ele>
        <time>2016-01-03T10:51:07.000Z</time>
      </trkpt>
      <trkpt lat="47.50109" lon="6.75716">
        <ele>360</ele>
        <time>2016-01-03T10:51:08.000Z</time>
      </trkpt>
      <trkpt lat="47.50112" lon="6.7572">
        <ele>360</ele>
        <time>2016-01-03T10:51:10.000Z</time>
      </trkpt>
      <trkpt lat="47.50113" lon="6.75723">
        <ele>360</ele>
        <time>2016-01-03T10:51:11.000Z</time>
      </trkpt>
      <trkpt lat="47.50116" lon="6.75728">
        <ele>360</ele>
        <time>2016-01-03T10:51:13.000Z</time>
      </trkpt>
      <trkpt lat="47.50118" lon="6.7573">
        <ele>360</ele>
        <time>2016-01-03T10:51:14.000Z</time>
      </trkpt>
      <trkpt lat="47.5012" lon="6.75732">
        <ele>360</ele>
        <time>2016-01-03T10:51:16.000Z</time>
      </trkpt>
      <trkpt lat="47.50122" lon="6.75734">
        <ele>360</ele>
        <time>2016-01-03T10:51:17.000Z</time>
      </trkpt>
      <trkpt lat="47.50124" lon="6.75737">
        <ele>360</ele>
        <time>2016-01-03T10:51:19.000Z</time>
      </trkpt>
      <trkpt lat="47.50126" lon="6.75739">
        <ele>360</ele>
        <time>2016-01-03T10:51:20.000Z</time>
      </trkpt>
      <trkpt lat="47.50128" lon="6.75744">
        <ele>360</ele>
        <time>2016-01-03T10:51:22.000Z</time>
      </trkpt>
      <trkpt lat="47.50129" lon="6.75747">
        <ele>360</ele>
        <time>2016-01-03T10:51:23.000Z</time>
      </trkpt>
      <trkpt lat="47.50132" lon="6.7575">
        <ele>363</ele>
        <time>2016-01-03T10:51:25.000Z</time>
      </trkpt>
      <trkpt lat="47.50134" lon="6.75752">
        <ele>363</ele>
        <time>2016-01-03T10:51:26.000Z</time>
      </trkpt>
      <trkpt lat="47.50137" lon="6.75755">
        <ele>363</ele>
        <time>2016-01-03T10:51:28.000Z</time>
      </trkpt>
      <trkpt lat="47.50138" lon="6.75757">
        <ele>362</ele>
        <time>2016-01-03T10:51:29.000Z</time>
      </trkpt>
      <trkpt lat="47.50141" lon="6.75761">
        <ele>362</ele>
        <time>2016-01-03T10:51:31.000Z</time>
      </trkpt>
      <trkpt lat="47.50142" lon="6.75763">
        <ele>362</ele>
        <time>2016-01-03T10:51:32.000Z</time>
      </trkpt>
      <trkpt lat="47.50145" lon="6.75766">
        <ele>362</ele>
        <time>2016-01-03T10:51:34.000Z</time>
      </trkpt>
      <trkpt lat="47.50147" lon="6.75767">
        <ele>362</ele>
        <time>2016-01-03T10:51:35.000Z</time>
      </trkpt>
      <trkpt lat="47.5015" lon="6.75771">
        <ele>362</ele>
        <time>2016-01-03T10:51:37.000Z</time>
      </trkpt>
      <trkpt lat="47.50152" lon="6.75773">
        <ele>362</ele>
        <time>2016-01-03T10:51:38.000Z</time>
      </trkpt>
      <trkpt lat="47.50156" lon="6.75776">
        <ele>362</ele>
        <time>2016-01-03T10:51:40.000Z</time>
      </trkpt>
      <trkpt lat="47.50158" lon="6.75778">
        <ele>362</ele>
        <time>2016-01-03T10:51:41.000Z</time>
      </trkpt>
      <trkpt lat="47.5016" lon="6.75782">
        <ele>362</ele>
        <time>2016-01-03T10:51:43.000Z</time>
      </trkpt>
      <trkpt lat="47.50162" lon="6.75783">
        <ele>362</ele>
        <time>2016-01-03T10:51:44.000Z</time>
      </trkpt>
      <trkpt lat="47.50164" lon="6.75786">
        <ele>362</ele>
        <time>2016-01-03T10:51:46.000Z</time>
      </trkpt>
      <trkpt lat="47.50166" lon="6.75787">
        <ele>362</ele>
        <time>2016-01-03T10:51:47.000Z</time>
      </trkpt>
      <trkpt lat="47.50168" lon="6.75791">
        <ele>362</ele>
        <time>2016-01-03T10:51:49.000Z</time>
      </trkpt>
      <trkpt lat="47.50169" lon="6.75793">
        <ele>362</ele>
        <time>2016-01-03T10:51:50.000Z</time>
      </trkpt>
      <trkpt lat="47.50171" lon="6.75797">
        <ele>362</ele>
        <time>2016-01-03T10:51:52.000Z</time>
      </trkpt>
      <trkpt lat="47.50172" lon="6.75799">
        <ele>362</ele>
        <time>2016-01-03T10:51:53.000Z</time>
      </trkpt>
      <trkpt lat="47.50175" lon="6.75803">
        <ele>362</ele>
        <time>2016-01-03T10:51:55.000Z</time>
      </trkpt>
      <trkpt lat="47.50176" lon="6.75805">
        <ele>362</ele>
        <time>2016-01-03T10:51:56.000Z</time>
      </trkpt>
      <trkpt lat="47.50178" lon="6.7581">
        <ele>362</ele>
        <time>2016-01-03T10:51:58.000Z</time>
      </trkpt>
      <trkpt lat="47.50179" lon="6.75812">
        <ele>362</ele>
        <time>2016-01-03T10:51:59.000Z</time>
      </trkpt>
      <trkpt lat="47.50182" lon="6.75817">
        <ele>362</ele>
        <time>2016-01-03T10:52:01.000Z</time>
      </trkpt>
      <trkpt lat="47.50183" lon="6.75819">
        <ele>362</ele>
        <time>2016-01-03T10:52:02.000Z</time>
      </trkpt>
      <trkpt lat="47.50185" lon="6.75824">
        <ele>362</ele>
        <time>2016-01-03T10:52:04.000Z</time>
      </trkpt>
      <trkpt lat="47.50186" lon="6.75826">
        <ele>362</ele>
        <time>2016-01-03T10:52:05.000Z</time>
      </trkpt>
      <trkpt lat="47.50189" lon="6.75831">
        <ele>362</ele>
        <time>2016-01-03T10:52:07.000Z</time>
      </trkpt>
      <trkpt lat="47.5019" lon="6.75833">
        <ele>362</ele>
        <time>2016-01-03T10:52:08.000Z</time>
      </trkpt>
      <trkpt lat="47.50192" lon="6.75838">
        <ele>363</ele>
        <time>2016-01-03T10:52:10.000Z</time>
      </trkpt>
      <trkpt lat="47.50193" lon="6.7584">
        <ele>364</ele>
        <time>2016-01-03T10:52:11.000Z</time>
      </trkpt>
      <trkpt lat="47.50196" lon="6.75845">
        <ele>364</ele>
        <time>2016-01-03T10:52:13.000Z</time>
      </trkpt>
      <trkpt lat="47.50197" lon="6.75847">
        <ele>364</ele>
        <time>2016-01-03T10:52:14.000Z</time>
      </trkpt>
      <trkpt lat="47.50199" lon="6.75852">
        <ele>364</ele>
        <time>2016-01-03T10:52:16.000Z</time>
      </trkpt>
      <trkpt lat="47.502" lon="6.75854">
        <ele>365</ele>
        <time>2016-01-03T10:52:17.000Z</time>
      </trkpt>
      <trkpt lat="47.50203" lon="6.75858">
        <ele>365</ele>
        <time>2016-01-03T10:52:19.000Z</time>
      </trkpt>
      <trkpt lat="47.50204" lon="6.75861">
        <ele>365</ele>
        <time>2016-01-03T10:52:20.000Z</time>
      </trkpt>
      <trkpt lat="47.50207" lon="6.75865">
        <ele>365</ele>
        <time>2016-01-03T10:52:22.000Z</time>
      </trkpt>
      <trkpt lat="47.50208" lon="6.75867">
        <ele>365</ele>
        <time>2016-01-03T10:52:23.000Z</time>
      </trkpt>
      <trkpt lat="47.5021" lon="6.75872">
        <ele>365</ele>
        <time>2016-01-03T10:52:25.000Z</time>
      </trkpt>
      <trkpt lat="47.50211" lon="6.75874">
        <ele>365</ele>
        <time>2016-01-03T10:52:26.000Z</time>
      </trkpt>
      <trkpt lat="47.50213" lon="6.75879">
        <ele>365</ele>
        <time>2016-01-03T10:52:28.000Z</time>
      </trkpt>
      <trkpt lat="47.50214" lon="6.75881">
        <ele>366</ele>
        <time>2016-01-03T10:52:29.000Z</time>
      </trkpt>
      <trkpt lat="47.50216" lon="6.75885">
        <ele>366</ele>
        <time>2016-01-03T10:52:31.000Z</time>
      </trkpt>
      <trkpt lat="47.50217" lon="6.75888">
        <ele>366</ele>
        <time>2016-01-03T10:52:32.000Z</time>
      </trkpt>
      <trkpt lat="47.50219" lon="6.75893">
        <ele>366</ele>
        <time>2016-01-03T10:52:34.000Z</time>
      </trkpt>
      <trkpt lat="47.5022" lon="6.75895">
        <ele>366</ele>
        <time>2016-01-03T10:52:35.000Z</time>
      </trkpt>
      <trkpt lat="47.50221" lon="6.759">
        <ele>366</ele>
        <time>2016-01-03T10:52:37.000Z</time>
      </trkpt>
      <trkpt lat="47.50222" lon="6.75902">
        <ele>366</ele>
        <time>2016-01-03T10:52:38.000Z</time>
      </trkpt>
      <trkpt lat="47.50223" lon="6.75906">
        <ele>366</ele>
        <time>2016-01-03T10:52:40.000Z</time>
      </trkpt>
      <trkpt lat="47.50224" lon="6.75909">
        <ele>366</ele>
        <time>2016-01-03T10:52:41.000Z</time>
      </trkpt>
      <trkpt lat="47.50225" lon="6.75913">
        <ele>366</ele>
        <time>2016-01-03T10:52:43.000Z</time>
      </trkpt>
      <trkpt lat="47.50226" lon="6.75916">
        <ele>366</ele>
        <time>2016-01-03T10:52:44.000Z</time>
      </trkpt>
      <trkpt lat="47.50227" lon="6.75921">
        <ele>368</ele>
        <time>2016-01-03T10:52:46.000Z</time>
      </trkpt>
      <trkpt lat="47.50228" lon="6.75923">
        <ele>368</ele>
        <time>2016-01-03T10:52:47.000Z</time>
      </trkpt>
      <trkpt lat="47.50229" lon="6.75928">
        <ele>368</ele>
        <time>2016-01-03T10:52:49.000Z</time>
      </trkpt>
      <trkpt lat="47.5023" lon="6.75931">
        <ele>368</ele>
        <time>2016-01-03T10:52:50.000Z</time>
      </trkpt>
      <trkpt lat="47.50231" lon="6.75936">
        <ele>368</ele>
        <time>2016-01-03T10:52:52.000Z</time>
      </trkpt>
      <trkpt lat="47.50231" lon="6.75938">
        <ele>368</ele>
        <time>2016-01-03T10:52:53.000Z</time>
      </trkpt>
      <trkpt lat="47.50232" lon="6.75943">
        <ele>368</ele>
        <time>2016-01-03T10:52:55.000Z</time>
      </trkpt>
      <trkpt lat="47.50232" lon="6.75945">
        <ele>368</ele>
        <time>2016-01-03T10:52:56.000Z</time>
      </trkpt>
      <trkpt lat="47.50233" lon="6.75951">
        <ele>368</ele>
        <time>2016-01-03T10:52:59.000Z</time>
      </trkpt>
      <trkpt lat="47.50234" lon="6.75953">
        <ele>368</ele>
        <time>2016-01-03T10:53:00.000Z</time>
      </trkpt>
      <trkpt lat="47.50235" lon="6.75959">
        <ele>368</ele>
        <time>2016-01-03T10:53:03.000Z</time>
      </trkpt>
      <trkpt lat="47.50236" lon="6.75961">
        <ele>368</ele>
        <time>2016-01-03T10:53:04.000Z</time>
      </trkpt>
      <trkpt lat="47.50236" lon="6.75967">
        <ele>368</ele>
        <time>2016-01-03T10:53:07.000Z</time>
      </trkpt>
      <trkpt lat="47.50236" lon="6.75969">
        <ele>368</ele>
        <time>2016-01-03T10:53:08.000Z</time>
      </trkpt>
      <trkpt lat="47.50236" lon="6.75975">
        <ele>368</ele>
        <time>2016-01-03T10:53:11.000Z</time>
      </trkpt>
      <trkpt lat="47.50236" lon="6.75977">
        <ele>368</ele>
        <time>2016-01-03T10:53:12.000Z</time>
      </trkpt>
      <trkpt lat="47.50235" lon="6.75982">
        <ele>368</ele>
        <time>2016-01-03T10:53:16.000Z</time>
      </trkpt>
      <trkpt lat="47.50234" lon="6.75983">
        <ele>368</ele>
        <time>2016-01-03T10:53:17.000Z</time>
      </trkpt>
      <trkpt lat="47.50233" lon="6.75989">
        <ele>368</ele>
        <time>2016-01-03T10:53:21.000Z</time>
      </trkpt>
      <trkpt lat="47.50232" lon="6.7599">
        <ele>368</ele>
        <time>2016-01-03T10:53:22.000Z</time>
      </trkpt>
      <trkpt lat="47.50228" lon="6.75993">
        <ele>368</ele>
        <time>2016-01-03T10:53:28.000Z</time>
      </trkpt>
      <trkpt lat="47.50228" lon="6.75993">
        <ele>368</ele>
        <time>2016-01-03T10:53:29.000Z</time>
      </trkpt>
      <trkpt lat="47.50224" lon="6.75997">
        <ele>369</ele>
        <time>2016-01-03T10:53:34.000Z</time>
      </trkpt>
      <trkpt lat="47.50223" lon="6.75997">
        <ele>369</ele>
        <time>2016-01-03T10:53:35.000Z</time>
      </trkpt>
      <trkpt lat="47.50219" lon="6.75998">
        <ele>369</ele>
        <time>2016-01-03T10:53:40.000Z</time>
      </trkpt>
      <trkpt lat="47.50218" lon="6.75998">
        <ele>369</ele>
        <time>2016-01-03T10:53:41.000Z</time>
      </trkpt>
      <trkpt lat="47.50214" lon="6.75998">
        <ele>369</ele>
        <time>2016-01-03T10:53:48.000Z</time>
      </trkpt>
      <trkpt lat="47.50213" lon="6.75998">
        <ele>369</ele>
        <time>2016-01-03T10:53:49.000Z</time>
      </trkpt>
      <trkpt lat="47.5021" lon="6.76">
        <ele>372</ele>
        <time>2016-01-03T10:53:56.000Z</time>
      </trkpt>
      <trkpt lat="47.50209" lon="6.76001">
        <ele>372</ele>
        <time>2016-01-03T10:53:57.000Z</time>
      </trkpt>
      <trkpt lat="47.50205" lon="6.76003">
        <ele>372</ele>
        <time>2016-01-03T10:54:01.000Z</time>
      </trkpt>
      <trkpt lat="47.50205" lon="6.76004">
        <ele>372</ele>
        <time>2016-01-03T10:54:02.000Z</time>
      </trkpt>
      <trkpt lat="47.50201" lon="6.76004">
        <ele>372</ele>
        <time>2016-01-03T10:54:07.000Z</time>
      </trkpt>
      <trkpt lat="47.502" lon="6.76005">
        <ele>372</ele>
        <time>2016-01-03T10:54:08.000Z</time>
      </trkpt>
      <trkpt lat="47.50197" lon="6.76009">
        <ele>372</ele>
        <time>2016-01-03T10:54:13.000Z</time>
      </trkpt>
      <trkpt lat="47.50196" lon="6.76009">
        <ele>372</ele>
        <time>2016-01-03T10:54:14.000Z</time>
      </trkpt>
      <trkpt lat="47.50193" lon="6.76012">
        <ele>372</ele>
        <time>2016-01-03T10:54:19.000Z</time>
      </trkpt>
      <trkpt lat="47.50192" lon="6.76013">
        <ele>372</ele>
        <time>2016-01-03T10:54:20.000Z</time>
      </trkpt>
      <trkpt lat="47.50187" lon="6.76015">
        <ele>372</ele>
        <time>2016-01-03T10:54:24.000Z</time>
      </trkpt>
      <trkpt lat="47.50186" lon="6.76015">
        <ele>372</ele>
        <time>2016-01-03T10:54:25.000Z</time>
      </trkpt>
      <trkpt lat="47.50182" lon="6.76017">
        <ele>372</ele>
        <time>2016-01-03T10:54:29.000Z</time>
      </trkpt>
      <trkpt lat="47.50181" lon="6.76018">
        <ele>372</ele>
        <time>2016-01-03T10:54:30.000Z</time>
      </trkpt>
      <trkpt lat="47.50177" lon="6.7602">
        <ele>372</ele>
        <time>2016-01-03T10:54:33.000Z</time>
      </trkpt>
      <trkpt lat="47.50175" lon="6.7602">
        <ele>372</ele>
        <time>2016-01-03T10:54:34.000Z</time>
      </trkpt>
      <trkpt lat="47.50171" lon="6.76021">
        <ele>372</ele>
        <time>2016-01-03T10:54:39.000Z</time>
      </trkpt>
      <trkpt lat="47.50171" lon="6.7602">
        <ele>372</ele>
        <time>2016-01-03T10:54:40.000Z</time>
      </trkpt>
      <trkpt lat="47.50167" lon="6.76021">
        <ele>372</ele>
        <time>2016-01-03T10:54:43.000Z</time>
      </trkpt>
      <trkpt lat="47.50166" lon="6.76022">
        <ele>375</ele>
        <time>2016-01-03T10:54:44.000Z</time>
      </trkpt>
      <trkpt lat="47.50163" lon="6.76024">
        <ele>375</ele>
        <time>2016-01-03T10:54:48.000Z</time>
      </trkpt>
      <trkpt lat="47.50162" lon="6.76024">
        <ele>375</ele>
        <time>2016-01-03T10:54:49.000Z</time>
      </trkpt>
      <trkpt lat="47.50158" lon="6.76027">
        <ele>376</ele>
        <time>2016-01-03T10:54:52.000Z</time>
      </trkpt>
      <trkpt lat="47.50157" lon="6.76027">
        <ele>376</ele>
        <time>2016-01-03T10:54:53.000Z</time>
      </trkpt>
      <trkpt lat="47.50154" lon="6.76031">
        <ele>376</ele>
        <time>2016-01-03T10:54:57.000Z</time>
      </trkpt>
      <trkpt lat="47.50154" lon="6.76032">
        <ele>376</ele>
        <time>2016-01-03T10:54:58.000Z</time>
      </trkpt>
      <trkpt lat="47.5015" lon="6.76034">
        <ele>377</ele>
        <time>2016-01-03T10:55:03.000Z</time>
      </trkpt>
      <trkpt lat="47.50149" lon="6.76034">
        <ele>377</ele>
        <time>2016-01-03T10:55:04.000Z</time>
      </trkpt>
      <trkpt lat="47.50145" lon="6.76036">
        <ele>377</ele>
        <time>2016-01-03T10:55:08.000Z</time>
      </trkpt>
      <trkpt lat="47.50144" lon="6.76036">
        <ele>377</ele>
        <time>2016-01-03T10:55:09.000Z</time>
      </trkpt>
      <trkpt lat="47.5014" lon="6.76037">
        <ele>377</ele>
        <time>2016-01-03T10:55:13.000Z</time>
      </trkpt>
      <trkpt lat="47.5014" lon="6.76038">
        <ele>377</ele>
        <time>2016-01-03T10:55:14.000Z</time>
      </trkpt>
      <trkpt lat="47.50136" lon="6.76039">
        <ele>378</ele>
        <time>2016-01-03T10:55:18.000Z</time>
      </trkpt>
      <trkpt lat="47.50134" lon="6.7604">
        <ele>378</ele>
        <time>2016-01-03T10:55:19.000Z</time>
      </trkpt>
      <trkpt lat="47.5013" lon="6.76041">
        <ele>378</ele>
        <time>2016-01-03T10:55:22.000Z</time>
      </trkpt>
      <trkpt lat="47.50129" lon="6.76041">
        <ele>378</ele>
        <time>2016-01-03T10:55:23.000Z</time>
      </trkpt>
      <trkpt lat="47.50125" lon="6.76043">
        <ele>379</ele>
        <time>2016-01-03T10:55:27.000Z</time>
      </trkpt>
      <trkpt lat="47.50125" lon="6.76043">
        <ele>379</ele>
        <time>2016-01-03T10:55:28.000Z</time>
      </trkpt>
      <trkpt lat="47.50123" lon="6.76047">
        <ele>379</ele>
        <time>2016-01-03T10:55:30.000Z</time>
      </trkpt>
      <trkpt lat="47.50123" lon="6.76049">
        <ele>379</ele>
        <time>2016-01-03T10:55:31.000Z</time>
      </trkpt>
      <trkpt lat="47.50122" lon="6.76056">
        <ele>379</ele>
        <time>2016-01-03T10:55:34.000Z</time>
      </trkpt>
      <trkpt lat="47.50122" lon="6.76058">
        <ele>379</ele>
        <time>2016-01-03T10:55:35.000Z</time>
      </trkpt>
      <trkpt lat="47.50121" lon="6.76063">
        <ele>380</ele>
        <time>2016-01-03T10:55:38.000Z</time>
      </trkpt>
      <trkpt lat="47.50122" lon="6.76065">
        <ele>380</ele>
        <time>2016-01-03T10:55:39.000Z</time>
      </trkpt>
      <trkpt lat="47.50124" lon="6.76069">
        <ele>380</ele>
        <time>2016-01-03T10:55:42.000Z</time>
      </trkpt>
      <trkpt lat="47.50124" lon="6.76071">
        <ele>380</ele>
        <time>2016-01-03T10:55:43.000Z</time>
      </trkpt>
      <trkpt lat="47.50125" lon="6.76076">
        <ele>380</ele>
        <time>2016-01-03T10:55:45.000Z</time>
      </trkpt>
      <trkpt lat="47.50125" lon="6.76079">
        <ele>380</ele>
        <time>2016-01-03T10:55:46.000Z</time>
      </trkpt>
      <trkpt lat="47.50125" lon="6.76086">
        <ele>383</ele>
        <time>2016-01-03T10:55:48.000Z</time>
      </trkpt>
      <trkpt lat="47.50125" lon="6.76089">
        <ele>383</ele>
        <time>2016-01-03T10:55:49.000Z</time>
      </trkpt>
      <trkpt lat="47.50125" lon="6.76094">
        <ele>383</ele>
        <time>2016-01-03T10:55:51.000Z</time>
      </trkpt>
      <trkpt lat="47.50125" lon="6.76097">
        <ele>383</ele>
        <time>2016-01-03T10:55:52.000Z</time>
      </trkpt>
      <trkpt lat="47.50127" lon="6.76102">
        <ele>383</ele>
        <time>2016-01-03T10:55:54.000Z</time>
      </trkpt>
      <trkpt lat="47.50127" lon="6.76104">
        <ele>383</ele>
        <time>2016-01-03T10:55:55.000Z</time>
      </trkpt>
      <trkpt lat="47.50128" lon="6.7611">
        <ele>383</ele>
        <time>2016-01-03T10:55:57.000Z</time>
      </trkpt>
      <trkpt lat="47.50128" lon="6.76113">
        <ele>383</ele>
        <time>2016-01-03T10:55:58.000Z</time>
      </trkpt>
      <trkpt lat="47.50129" lon="6.76116">
        <ele>383</ele>
        <time>2016-01-03T10:55:59.000Z</time>
      </trkpt>
      <trkpt lat="47.50129" lon="6.76119">
        <ele>383</ele>
        <time>2016-01-03T10:56:00.000Z</time>
      </trkpt>
      <trkpt lat="47.5013" lon="6.76125">
        <ele>383</ele>
        <time>2016-01-03T10:56:02.000Z</time>
      </trkpt>
      <trkpt lat="47.50131" lon="6.76128">
        <ele>384</ele>
        <time>2016-01-03T10:56:03.000Z</time>
      </trkpt>
      <trkpt lat="47.50132" lon="6.76135">
        <ele>384</ele>
        <time>2016-01-03T10:56:05.000Z</time>
      </trkpt>
      <trkpt lat="47.50133" lon="6.76138">
        <ele>384</ele>
        <time>2016-01-03T10:56:06.000Z</time>
      </trkpt>
      <trkpt lat="47.50134" lon="6.76144">
        <ele>383</ele>
        <time>2016-01-03T10:56:08.000Z</time>
      </trkpt>
      <trkpt lat="47.50134" lon="6.76147">
        <ele>383</ele>
        <time>2016-01-03T10:56:09.000Z</time>
      </trkpt>
      <trkpt lat="47.50134" lon="6.7615">
        <ele>383</ele>
        <time>2016-01-03T10:56:10.000Z</time>
      </trkpt>
      <trkpt lat="47.50134" lon="6.76154">
        <ele>383</ele>
        <time>2016-01-03T10:56:11.000Z</time>
      </trkpt>
      <trkpt lat="47.50135" lon="6.76157">
        <ele>383</ele>
        <time>2016-01-03T10:56:12.000Z</time>
      </trkpt>
      <trkpt lat="47.50134" lon="6.7616">
        <ele>383</ele>
        <time>2016-01-03T10:56:13.000Z</time>
      </trkpt>
      <trkpt lat="47.50135" lon="6.76164">
        <ele>383</ele>
        <time>2016-01-03T10:56:14.000Z</time>
      </trkpt>
      <trkpt lat="47.50135" lon="6.76168">
        <ele>387</ele>
        <time>2016-01-03T10:56:15.000Z</time>
      </trkpt>
      <trkpt lat="47.50136" lon="6.76172">
        <ele>387</ele>
        <time>2016-01-03T10:56:16.000Z</time>
      </trkpt>
      <trkpt lat="47.50137" lon="6.76175">
        <ele>387</ele>
        <time>2016-01-03T10:56:17.000Z</time>
      </trkpt>
      <trkpt lat="47.50138" lon="6.76181">
        <ele>387</ele>
        <time>2016-01-03T10:56:19.000Z</time>
      </trkpt>
      <trkpt lat="47.50139" lon="6.76184">
        <ele>387</ele>
        <time>2016-01-03T10:56:20.000Z</time>
      </trkpt>
      <trkpt lat="47.50138" lon="6.7619">
        <ele>388</ele>
        <time>2016-01-03T10:56:22.000Z</time>
      </trkpt>
      <trkpt lat="47.50139" lon="6.76194">
        <ele>388</ele>
        <time>2016-01-03T10:56:23.000Z</time>
      </trkpt>
      <trkpt lat="47.50139" lon="6.76197">
        <ele>388</ele>
        <time>2016-01-03T10:56:24.000Z</time>
      </trkpt>
      <trkpt lat="47.50139" lon="6.762">
        <ele>388</ele>
        <time>2016-01-03T10:56:25.000Z</time>
      </trkpt>
      <trkpt lat="47.5014" lon="6.76204">
        <ele>389</ele>
        <time>2016-01-03T10:56:26.000Z</time>
      </trkpt>
      <trkpt lat="47.50141" lon="6.76207">
        <ele>389</ele>
        <time>2016-01-03T10:56:27.000Z</time>
      </trkpt>
      <trkpt lat="47.50142" lon="6.76213">
        <ele>389</ele>
        <time>2016-01-03T10:56:29.000Z</time>
      </trkpt>
      <trkpt lat="47.50142" lon="6.76216">
        <ele>389</ele>
        <time>2016-01-03T10:56:30.000Z</time>
      </trkpt>
      <trkpt lat="47.50143" lon="6.76221">
        <ele>389</ele>
        <time>2016-01-03T10:56:32.000Z</time>
      </trkpt>
      <trkpt lat="47.50143" lon="6.76224">
        <ele>389</ele>
        <time>2016-01-03T10:56:33.000Z</time>
      </trkpt>
      <trkpt lat="47.50144" lon="6.76229">
        <ele>389</ele>
        <time>2016-01-03T10:56:35.000Z</time>
      </trkpt>
      <trkpt lat="47.50145" lon="6.76232">
        <ele>389</ele>
        <time>2016-01-03T10:56:36.000Z</time>
      </trkpt>
      <trkpt lat="47.50146" lon="6.76238">
        <ele>389</ele>
        <time>2016-01-03T10:56:38.000Z</time>
      </trkpt>
      <trkpt lat="47.50146" lon="6.7624">
        <ele>389</ele>
        <time>2016-01-03T10:56:39.000Z</time>
      </trkpt>
      <trkpt lat="47.50147" lon="6.76245">
        <ele>389</ele>
        <time>2016-01-03T10:56:41.000Z</time>
      </trkpt>
      <trkpt lat="47.50148" lon="6.76248">
        <ele>389</ele>
        <time>2016-01-03T10:56:42.000Z</time>
      </trkpt>
      <trkpt lat="47.50148" lon="6.76252">
        <ele>392</ele>
        <time>2016-01-03T10:56:43.000Z</time>
      </trkpt>
      <trkpt lat="47.50148" lon="6.76255">
        <ele>392</ele>
        <time>2016-01-03T10:56:44.000Z</time>
      </trkpt>
      <trkpt lat="47.50148" lon="6.76259">
        <ele>392</ele>
        <time>2016-01-03T10:56:45.000Z</time>
      </trkpt>
      <trkpt lat="47.50149" lon="6.76262">
        <ele>393</ele>
        <time>2016-01-03T10:56:46.000Z</time>
      </trkpt>
      <trkpt lat="47.50149" lon="6.76268">
        <ele>393</ele>
        <time>2016-01-03T10:56:48.000Z</time>
      </trkpt>
      <trkpt lat="47.50149" lon="6.76272">
        <ele>394</ele>
        <time>2016-01-03T10:56:49.000Z</time>
      </trkpt>
      <trkpt lat="47.50149" lon="6.76275">
        <ele>394</ele>
        <time>2016-01-03T10:56:50.000Z</time>
      </trkpt>
      <trkpt lat="47.5015" lon="6.76278">
        <ele>394</ele>
        <time>2016-01-03T10:56:51.000Z</time>
      </trkpt>
      <trkpt lat="47.5015" lon="6.76282">
        <ele>394</ele>
        <time>2016-01-03T10:56:52.000Z</time>
      </trkpt>
      <trkpt lat="47.50151" lon="6.76285">
        <ele>394</ele>
        <time>2016-01-03T10:56:53.000Z</time>
      </trkpt>
      <trkpt lat="47.50151" lon="6.76288">
        <ele>395</ele>
        <time>2016-01-03T10:56:54.000Z</time>
      </trkpt>
      <trkpt lat="47.50152" lon="6.76292">
        <ele>395</ele>
        <time>2016-01-03T10:56:55.000Z</time>
      </trkpt>
      <trkpt lat="47.50153" lon="6.76295">
        <ele>395</ele>
        <time>2016-01-03T10:56:56.000Z</time>
      </trkpt>
      <trkpt lat="47.50154" lon="6.76298">
        <ele>395</ele>
        <time>2016-01-03T10:56:57.000Z</time>
      </trkpt>
      <trkpt lat="47.50155" lon="6.76302">
        <ele>395</ele>
        <time>2016-01-03T10:56:58.000Z</time>
      </trkpt>
      <trkpt lat="47.50156" lon="6.76305">
        <ele>395</ele>
        <time>2016-01-03T10:56:58.999Z</time>
      </trkpt>
      <trkpt lat="47.50156" lon="6.76309">
        <ele>395</ele>
        <time>2016-01-03T10:57:00.000Z</time>
      </trkpt>
      <trkpt lat="47.50157" lon="6.76313">
        <ele>394</ele>
        <time>2016-01-03T10:57:01.000Z</time>
      </trkpt>
      <trkpt lat="47.50158" lon="6.76316">
        <ele>394</ele>
        <time>2016-01-03T10:57:02.000Z</time>
      </trkpt>
      <trkpt lat="47.5016" lon="6.7632">
        <ele>394</ele>
        <time>2016-01-03T10:57:03.000Z</time>
      </trkpt>
      <trkpt lat="47.50161" lon="6.76323">
        <ele>393</ele>
        <time>2016-01-03T10:57:04.000Z</time>
      </trkpt>
      <trkpt lat="47.50162" lon="6.76326">
        <ele>393</ele>
        <time>2016-01-03T10:57:05.000Z</time>
      </trkpt>
      <trkpt lat="47.50163" lon="6.7633">
        <ele>392</ele>
        <time>2016-01-03T10:57:06.000Z</time>
      </trkpt>
      <trkpt lat="47.50164" lon="6.76334">
        <ele>392</ele>
        <time>2016-01-03T10:57:07.000Z</time>
      </trkpt>
      <trkpt lat="47.50165" lon="6.76338">
        <ele>393</ele>
        <time>2016-01-03T10:57:08.000Z</time>
      </trkpt>
      <trkpt lat="47.50166" lon="6.76342">
        <ele>394</ele>
        <time>2016-01-03T10:57:09.000Z</time>
      </trkpt>
      <trkpt lat="47.50168" lon="6.76346">
        <ele>390</ele>
        <time>2016-01-03T10:57:10.000Z</time>
      </trkpt>
      <trkpt lat="47.50169" lon="6.76351">
        <ele>390</ele>
        <time>2016-01-03T10:57:11.000Z</time>
      </trkpt>
      <trkpt lat="47.5017" lon="6.76355">
        <ele>390</ele>
        <time>2016-01-03T10:57:12.000Z</time>
      </trkpt>
      <trkpt lat="47.50171" lon="6.7636">
        <ele>390</ele>
        <time>2016-01-03T10:57:13.000Z</time>
      </trkpt>
      <trkpt lat="47.50172" lon="6.76365">
        <ele>391</ele>
        <time>2016-01-03T10:57:14.000Z</time>
      </trkpt>
      <trkpt lat="47.50173" lon="6.76368">
        <ele>391</ele>
        <time>2016-01-03T10:57:15.000Z</time>
      </trkpt>
      <trkpt lat="47.50175" lon="6.76374">
        <ele>391</ele>
        <time>2016-01-03T10:57:17.000Z</time>
      </trkpt>
      <trkpt lat="47.50176" lon="6.76377">
        <ele>391</ele>
        <time>2016-01-03T10:57:18.000Z</time>
      </trkpt>
      <trkpt lat="47.50177" lon="6.7638">
        <ele>391</ele>
        <time>2016-01-03T10:57:19.000Z</time>
      </trkpt>
      <trkpt lat="47.50178" lon="6.76384">
        <ele>392</ele>
        <time>2016-01-03T10:57:20.000Z</time>
      </trkpt>
      <trkpt lat="47.50179" lon="6.76388">
        <ele>392</ele>
        <time>2016-01-03T10:57:21.000Z</time>
      </trkpt>
      <trkpt lat="47.5018" lon="6.76391">
        <ele>392</ele>
        <time>2016-01-03T10:57:22.000Z</time>
      </trkpt>
      <trkpt lat="47.5018" lon="6.76395">
        <ele>393</ele>
        <time>2016-01-03T10:57:23.000Z</time>
      </trkpt>
      <trkpt lat="47.50181" lon="6.764">
        <ele>393</ele>
        <time>2016-01-03T10:57:24.000Z</time>
      </trkpt>
      <trkpt lat="47.50181" lon="6.76403">
        <ele>393</ele>
        <time>2016-01-03T10:57:25.000Z</time>
      </trkpt>
      <trkpt lat="47.50182" lon="6.76407">
        <ele>394</ele>
        <time>2016-01-03T10:57:26.000Z</time>
      </trkpt>
      <trkpt lat="47.50183" lon="6.76411">
        <ele>394</ele>
        <time>2016-01-03T10:57:27.000Z</time>
      </trkpt>
      <trkpt lat="47.50185" lon="6.76414">
        <ele>394</ele>
        <time>2016-01-03T10:57:28.000Z</time>
      </trkpt>
      <trkpt lat="47.50186" lon="6.76417">
        <ele>397</ele>
        <time>2016-01-03T10:57:29.000Z</time>
      </trkpt>
      <trkpt lat="47.50187" lon="6.76421">
        <ele>396</ele>
        <time>2016-01-03T10:57:30.000Z</time>
      </trkpt>
      <trkpt lat="47.50189" lon="6.76424">
        <ele>396</ele>
        <time>2016-01-03T10:57:31.000Z</time>
      </trkpt>
      <trkpt lat="47.5019" lon="6.76427">
        <ele>396</ele>
        <time>2016-01-03T10:57:32.000Z</time>
      </trkpt>
      <trkpt lat="47.50191" lon="6.76431">
        <ele>396</ele>
        <time>2016-01-03T10:57:33.000Z</time>
      </trkpt>
      <trkpt lat="47.50192" lon="6.76436">
        <ele>396</ele>
        <time>2016-01-03T10:57:34.000Z</time>
      </trkpt>
      <trkpt lat="47.50193" lon="6.76439">
        <ele>396</ele>
        <time>2016-01-03T10:57:35.000Z</time>
      </trkpt>
      <trkpt lat="47.50194" lon="6.76443">
        <ele>396</ele>
        <time>2016-01-03T10:57:36.000Z</time>
      </trkpt>
      <trkpt lat="47.50195" lon="6.76446">
        <ele>396</ele>
        <time>2016-01-03T10:57:37.000Z</time>
      </trkpt>
      <trkpt lat="47.50196" lon="6.7645">
        <ele>396</ele>
        <time>2016-01-03T10:57:38.000Z</time>
      </trkpt>
      <trkpt lat="47.50198" lon="6.76452">
        <ele>396</ele>
        <time>2016-01-03T10:57:39.000Z</time>
      </trkpt>
      <trkpt lat="47.50199" lon="6.76455">
        <ele>396</ele>
        <time>2016-01-03T10:57:40.000Z</time>
      </trkpt>
      <trkpt lat="47.50201" lon="6.76461">
        <ele>396</ele>
        <time>2016-01-03T10:57:42.000Z</time>
      </trkpt>
      <trkpt lat="47.50202" lon="6.76463">
        <ele>396</ele>
        <time>2016-01-03T10:57:43.000Z</time>
      </trkpt>
      <trkpt lat="47.50204" lon="6.76468">
        <ele>396</ele>
        <time>2016-01-03T10:57:45.000Z</time>
      </trkpt>
      <trkpt lat="47.50205" lon="6.7647">
        <ele>396</ele>
        <time>2016-01-03T10:57:46.000Z</time>
      </trkpt>
      <trkpt lat="47.50208" lon="6.76475">
        <ele>396</ele>
        <time>2016-01-03T10:57:48.000Z</time>
      </trkpt>
      <trkpt lat="47.50209" lon="6.76478">
        <ele>396</ele>
        <time>2016-01-03T10:57:49.000Z</time>
      </trkpt>
      <trkpt lat="47.50209" lon="6.76481">
        <ele>396</ele>
        <time>2016-01-03T10:57:50.000Z</time>
      </trkpt>
      <trkpt lat="47.5021" lon="6.76485">
        <ele>396</ele>
        <time>2016-01-03T10:57:51.000Z</time>
      </trkpt>
      <trkpt lat="47.50211" lon="6.76491">
        <ele>396</ele>
        <time>2016-01-03T10:57:53.000Z</time>
      </trkpt>
      <trkpt lat="47.50211" lon="6.76494">
        <ele>396</ele>
        <time>2016-01-03T10:57:54.000Z</time>
      </trkpt>
      <trkpt lat="47.50212" lon="6.76497">
        <ele>396</ele>
        <time>2016-01-03T10:57:55.000Z</time>
      </trkpt>
      <trkpt lat="47.50213" lon="6.76501">
        <ele>400</ele>
        <time>2016-01-03T10:57:56.000Z</time>
      </trkpt>
      <trkpt lat="47.50214" lon="6.76506">
        <ele>399</ele>
        <time>2016-01-03T10:57:58.000Z</time>
      </trkpt>
      <trkpt lat="47.50214" lon="6.76509">
        <ele>399</ele>
        <time>2016-01-03T10:57:59.000Z</time>
      </trkpt>
      <trkpt lat="47.50214" lon="6.76515">
        <ele>400</ele>
        <time>2016-01-03T10:58:01.000Z</time>
      </trkpt>
      <trkpt lat="47.50213" lon="6.76518">
        <ele>400</ele>
        <time>2016-01-03T10:58:02.000Z</time>
      </trkpt>
      <trkpt lat="47.50211" lon="6.76523">
        <ele>400</ele>
        <time>2016-01-03T10:58:05.000Z</time>
      </trkpt>
      <trkpt lat="47.5021" lon="6.76525">
        <ele>400</ele>
        <time>2016-01-03T10:58:06.000Z</time>
      </trkpt>
      <trkpt lat="47.50208" lon="6.76528">
        <ele>401</ele>
        <time>2016-01-03T10:58:08.000Z</time>
      </trkpt>
      <trkpt lat="47.50207" lon="6.76531">
        <ele>401</ele>
        <time>2016-01-03T10:58:09.000Z</time>
      </trkpt>
      <trkpt lat="47.50206" lon="6.76537">
        <ele>401</ele>
        <time>2016-01-03T10:58:11.000Z</time>
      </trkpt>
      <trkpt lat="47.50205" lon="6.76539">
        <ele>401</ele>
        <time>2016-01-03T10:58:12.000Z</time>
      </trkpt>
      <trkpt lat="47.50205" lon="6.76544">
        <ele>401</ele>
        <time>2016-01-03T10:58:14.000Z</time>
      </trkpt>
      <trkpt lat="47.50206" lon="6.76546">
        <ele>401</ele>
        <time>2016-01-03T10:58:15.000Z</time>
      </trkpt>
      <trkpt lat="47.50206" lon="6.76551">
        <ele>401</ele>
        <time>2016-01-03T10:58:17.000Z</time>
      </trkpt>
      <trkpt lat="47.50206" lon="6.76553">
        <ele>401</ele>
        <time>2016-01-03T10:58:18.000Z</time>
      </trkpt>
      <trkpt lat="47.50207" lon="6.76559">
        <ele>401</ele>
        <time>2016-01-03T10:58:21.000Z</time>
      </trkpt>
      <trkpt lat="47.50206" lon="6.7656">
        <ele>401</ele>
        <time>2016-01-03T10:58:22.000Z</time>
      </trkpt>
      <trkpt lat="47.50203" lon="6.76563">
        <ele>402</ele>
        <time>2016-01-03T10:58:26.000Z</time>
      </trkpt>
      <trkpt lat="47.50202" lon="6.76564">
        <ele>402</ele>
        <time>2016-01-03T10:58:27.000Z</time>
      </trkpt>
      <trkpt lat="47.50198" lon="6.76568">
        <ele>402</ele>
        <time>2016-01-03T10:58:42.000Z</time>
      </trkpt>
      <trkpt lat="47.50198" lon="6.76568">
        <ele>402</ele>
        <time>2016-01-03T10:58:43.000Z</time>
      </trkpt>
      <trkpt lat="47.50197" lon="6.76573">
        <ele>402</ele>
        <time>2016-01-03T10:58:49.000Z</time>
      </trkpt>
      <trkpt lat="47.50197" lon="6.76575">
        <ele>402</ele>
        <time>2016-01-03T10:58:50.000Z</time>
      </trkpt>
      <trkpt lat="47.50198" lon="6.76579">
        <ele>402</ele>
        <time>2016-01-03T10:58:52.000Z</time>
      </trkpt>
      <trkpt lat="47.50199" lon="6.76581">
        <ele>402</ele>
        <time>2016-01-03T10:58:53.000Z</time>
      </trkpt>
      <trkpt lat="47.502" lon="6.76586">
        <ele>403</ele>
        <time>2016-01-03T10:58:55.000Z</time>
      </trkpt>
      <trkpt lat="47.50201" lon="6.76588">
        <ele>403</ele>
        <time>2016-01-03T10:58:56.000Z</time>
      </trkpt>
      <trkpt lat="47.50202" lon="6.76593">
        <ele>403</ele>
        <time>2016-01-03T10:58:58.000Z</time>
      </trkpt>
      <trkpt lat="47.50202" lon="6.76595">
        <ele>403</ele>
        <time>2016-01-03T10:58:59.000Z</time>
      </trkpt>
      <trkpt lat="47.50203" lon="6.76601">
        <ele>402</ele>
        <time>2016-01-03T10:59:02.000Z</time>
      </trkpt>
      <trkpt lat="47.50204" lon="6.76604">
        <ele>402</ele>
        <time>2016-01-03T10:59:03.000Z</time>
      </trkpt>
      <trkpt lat="47.50204" lon="6.76608">
        <ele>402</ele>
        <time>2016-01-03T10:59:05.000Z</time>
      </trkpt>
      <trkpt lat="47.50205" lon="6.76611">
        <ele>402</ele>
        <time>2016-01-03T10:59:06.000Z</time>
      </trkpt>
      <trkpt lat="47.50206" lon="6.76615">
        <ele>402</ele>
        <time>2016-01-03T10:59:08.000Z</time>
      </trkpt>
      <trkpt lat="47.50207" lon="6.76617">
        <ele>402</ele>
        <time>2016-01-03T10:59:09.000Z</time>
      </trkpt>
      <trkpt lat="47.50208" lon="6.76623">
        <ele>402</ele>
        <time>2016-01-03T10:59:11.000Z</time>
      </trkpt>
      <trkpt lat="47.50209" lon="6.76626">
        <ele>402</ele>
        <time>2016-01-03T10:59:12.000Z</time>
      </trkpt>
      <trkpt lat="47.50211" lon="6.76632">
        <ele>402</ele>
        <time>2016-01-03T10:59:14.000Z</time>
      </trkpt>
      <trkpt lat="47.50212" lon="6.76635">
        <ele>402</ele>
        <time>2016-01-03T10:59:15.000Z</time>
      </trkpt>
      <trkpt lat="47.50214" lon="6.7664">
        <ele>402</ele>
        <time>2016-01-03T10:59:17.000Z</time>
      </trkpt>
      <trkpt lat="47.50215" lon="6.76643">
        <ele>402</ele>
        <time>2016-01-03T10:59:18.000Z</time>
      </trkpt>
      <trkpt lat="47.50216" lon="6.76649">
        <ele>402</ele>
        <time>2016-01-03T10:59:20.000Z</time>
      </trkpt>
      <trkpt lat="47.50217" lon="6.76652">
        <ele>401</ele>
        <time>2016-01-03T10:59:21.000Z</time>
      </trkpt>
      <trkpt lat="47.50218" lon="6.76657">
        <ele>401</ele>
        <time>2016-01-03T10:59:23.000Z</time>
      </trkpt>
      <trkpt lat="47.50219" lon="6.7666">
        <ele>401</ele>
        <time>2016-01-03T10:59:24.000Z</time>
      </trkpt>
      <trkpt lat="47.5022" lon="6.76666">
        <ele>401</ele>
        <time>2016-01-03T10:59:26.000Z</time>
      </trkpt>
      <trkpt lat="47.50221" lon="6.76669">
        <ele>401</ele>
        <time>2016-01-03T10:59:27.000Z</time>
      </trkpt>
      <trkpt lat="47.50223" lon="6.76674">
        <ele>401</ele>
        <time>2016-01-03T10:59:29.000Z</time>
      </trkpt>
      <trkpt lat="47.50224" lon="6.76677">
        <ele>401</ele>
        <time>2016-01-03T10:59:29.999Z</time>
      </trkpt>
      <trkpt lat="47.50225" lon="6.76683">
        <ele>401</ele>
        <time>2016-01-03T10:59:32.000Z</time>
      </trkpt>
      <trkpt lat="47.50226" lon="6.76685">
        <ele>401</ele>
        <time>2016-01-03T10:59:33.000Z</time>
      </trkpt>
      <trkpt lat="47.50227" lon="6.76688">
        <ele>401</ele>
        <time>2016-01-03T10:59:34.000Z</time>
      </trkpt>
      <trkpt lat="47.50228" lon="6.76691">
        <ele>401</ele>
        <time>2016-01-03T10:59:35.000Z</time>
      </trkpt>
      <trkpt lat="47.50229" lon="6.76694">
        <ele>401</ele>
        <time>2016-01-03T10:59:36.000Z</time>
      </trkpt>
      <trkpt lat="47.5023" lon="6.76698">
        <ele>401</ele>
        <time>2016-01-03T10:59:37.000Z</time>
      </trkpt>
      <trkpt lat="47.50232" lon="6.76703">
        <ele>401</ele>
        <time>2016-01-03T10:59:39.001Z</time>
      </trkpt>
      <trkpt lat="47.50233" lon="6.76706">
        <ele>401</ele>
        <time>2016-01-03T10:59:40.000Z</time>
      </trkpt>
      <trkpt lat="47.50235" lon="6.76711">
        <ele>401</ele>
        <time>2016-01-03T10:59:42.001Z</time>
      </trkpt>
      <trkpt lat="47.50236" lon="6.76714">
        <ele>401</ele>
        <time>2016-01-03T10:59:43.000Z</time>
      </trkpt>
      <trkpt lat="47.50238" lon="6.7672">
        <ele>401</ele>
        <time>2016-01-03T10:59:45.000Z</time>
      </trkpt>
      <trkpt lat="47.5024" lon="6.76723">
        <ele>401</ele>
        <time>2016-01-03T10:59:46.000Z</time>
      </trkpt>
      <trkpt lat="47.50241" lon="6.76725">
        <ele>401</ele>
        <time>2016-01-03T10:59:47.000Z</time>
      </trkpt>
      <trkpt lat="47.50242" lon="6.76728">
        <ele>401</ele>
        <time>2016-01-03T10:59:48.000Z</time>
      </trkpt>
      <trkpt lat="47.50244" lon="6.76731">
        <ele>401</ele>
        <time>2016-01-03T10:59:49.000Z</time>
      </trkpt>
      <trkpt lat="47.50245" lon="6.76733">
        <ele>401</ele>
        <time>2016-01-03T10:59:50.000Z</time>
      </trkpt>
      <trkpt lat="47.50248" lon="6.76738">
        <ele>401</ele>
        <time>2016-01-03T10:59:52.000Z</time>
      </trkpt>
      <trkpt lat="47.50249" lon="6.7674">
        <ele>401</ele>
        <time>2016-01-03T10:59:53.000Z</time>
      </trkpt>
      <trkpt lat="47.50252" lon="6.76743">
        <ele>400</ele>
        <time>2016-01-03T10:59:55.000Z</time>
      </trkpt>
      <trkpt lat="47.50254" lon="6.76744">
        <ele>400</ele>
        <time>2016-01-03T10:59:56.000Z</time>
      </trkpt>
      <trkpt lat="47.50256" lon="6.76745">
        <ele>400</ele>
        <time>2016-01-03T10:59:57.000Z</time>
      </trkpt>
      <trkpt lat="47.50259" lon="6.76746">
        <ele>400</ele>
        <time>2016-01-03T10:59:58.000Z</time>
      </trkpt>
      <trkpt lat="47.50262" lon="6.76746">
        <ele>399</ele>
        <time>2016-01-03T10:59:59.000Z</time>
      </trkpt>
      <trkpt lat="47.50264" lon="6.76746">
        <ele>399</ele>
        <time>2016-01-03T11:00:00.000Z</time>
      </trkpt>
      <trkpt lat="47.50267" lon="6.76747">
        <ele>399</ele>
        <time>2016-01-03T11:00:01.000Z</time>
      </trkpt>
      <trkpt lat="47.5027" lon="6.76746">
        <ele>399</ele>
        <time>2016-01-03T11:00:02.000Z</time>
      </trkpt>
      <trkpt lat="47.50273" lon="6.76745">
        <ele>399</ele>
        <time>2016-01-03T11:00:03.000Z</time>
      </trkpt>
      <trkpt lat="47.50275" lon="6.76744">
        <ele>399</ele>
        <time>2016-01-03T11:00:04.000Z</time>
      </trkpt>
      <trkpt lat="47.50278" lon="6.76742">
        <ele>399</ele>
        <time>2016-01-03T11:00:05.000Z</time>
      </trkpt>
      <trkpt lat="47.50281" lon="6.7674">
        <ele>399</ele>
        <time>2016-01-03T11:00:06.000Z</time>
      </trkpt>
      <trkpt lat="47.50284" lon="6.76739">
        <ele>399</ele>
        <time>2016-01-03T11:00:07.000Z</time>
      </trkpt>
      <trkpt lat="47.50287" lon="6.76739">
        <ele>399</ele>
        <time>2016-01-03T11:00:08.000Z</time>
      </trkpt>
      <trkpt lat="47.5029" lon="6.76739">
        <ele>399</ele>
        <time>2016-01-03T11:00:08.999Z</time>
      </trkpt>
      <trkpt lat="47.50294" lon="6.76738">
        <ele>399</ele>
        <time>2016-01-03T11:00:10.000Z</time>
      </trkpt>
      <trkpt lat="47.50297" lon="6.76738">
        <ele>399</ele>
        <time>2016-01-03T11:00:11.000Z</time>
      </trkpt>
      <trkpt lat="47.503" lon="6.76737">
        <ele>399</ele>
        <time>2016-01-03T11:00:12.000Z</time>
      </trkpt>
      <trkpt lat="47.50303" lon="6.76736">
        <ele>398</ele>
        <time>2016-01-03T11:00:13.000Z</time>
      </trkpt>
      <trkpt lat="47.50306" lon="6.76734">
        <ele>398</ele>
        <time>2016-01-03T11:00:14.000Z</time>
      </trkpt>
      <trkpt lat="47.50309" lon="6.76733">
        <ele>398</ele>
        <time>2016-01-03T11:00:15.000Z</time>
      </trkpt>
      <trkpt lat="47.50312" lon="6.76731">
        <ele>398</ele>
        <time>2016-01-03T11:00:16.000Z</time>
      </trkpt>
      <trkpt lat="47.50314" lon="6.7673">
        <ele>398</ele>
        <time>2016-01-03T11:00:17.000Z</time>
      </trkpt>
      <trkpt lat="47.50317" lon="6.76729">
        <ele>398</ele>
        <time>2016-01-03T11:00:18.000Z</time>
      </trkpt>
      <trkpt lat="47.5032" lon="6.76728">
        <ele>398</ele>
        <time>2016-01-03T11:00:19.000Z</time>
      </trkpt>
      <trkpt lat="47.50322" lon="6.76727">
        <ele>398</ele>
        <time>2016-01-03T11:00:20.000Z</time>
      </trkpt>
      <trkpt lat="47.50325" lon="6.76725">
        <ele>398</ele>
        <time>2016-01-03T11:00:21.000Z</time>
      </trkpt>
      <trkpt lat="47.50328" lon="6.76724">
        <ele>398</ele>
        <time>2016-01-03T11:00:22.000Z</time>
      </trkpt>
      <trkpt lat="47.5033" lon="6.76723">
        <ele>398</ele>
        <time>2016-01-03T11:00:23.000Z</time>
      </trkpt>
      <trkpt lat="47.50333" lon="6.76722">
        <ele>398</ele>
        <time>2016-01-03T11:00:24.000Z</time>
      </trkpt>
      <trkpt lat="47.50336" lon="6.76721">
        <ele>398</ele>
        <time>2016-01-03T11:00:25.000Z</time>
      </trkpt>
      <trkpt lat="47.50339" lon="6.76719">
        <ele>398</ele>
        <time>2016-01-03T11:00:26.000Z</time>
      </trkpt>
      <trkpt lat="47.50342" lon="6.76718">
        <ele>398</ele>
        <time>2016-01-03T11:00:27.001Z</time>
      </trkpt>
      <trkpt lat="47.50345" lon="6.76717">
        <ele>398</ele>
        <time>2016-01-03T11:00:28.000Z</time>
      </trkpt>
      <trkpt lat="47.50348" lon="6.76716">
        <ele>398</ele>
        <time>2016-01-03T11:00:29.000Z</time>
      </trkpt>
      <trkpt lat="47.50351" lon="6.76715">
        <ele>398</ele>
        <time>2016-01-03T11:00:30.000Z</time>
      </trkpt>
      <trkpt lat="47.50354" lon="6.76714">
        <ele>398</ele>
        <time>2016-01-03T11:00:31.000Z</time>
      </trkpt>
      <trkpt lat="47.50357" lon="6.76713">
        <ele>398</ele>
        <time>2016-01-03T11:00:32.000Z</time>
      </trkpt>
      <trkpt lat="47.5036" lon="6.76711">
        <ele>398</ele>
        <time>2016-01-03T11:00:33.000Z</time>
      </trkpt>
      <trkpt lat="47.50363" lon="6.7671">
        <ele>398</ele>
        <time>2016-01-03T11:00:34.000Z</time>
      </trkpt>
      <trkpt lat="47.50366" lon="6.76709">
        <ele>398</ele>
        <time>2016-01-03T11:00:35.000Z</time>
      </trkpt>
      <trkpt lat="47.50369" lon="6.76708">
        <ele>397</ele>
        <time>2016-01-03T11:00:36.000Z</time>
      </trkpt>
      <trkpt lat="47.50372" lon="6.76706">
        <ele>397</ele>
        <time>2016-01-03T11:00:37.000Z</time>
      </trkpt>
      <trkpt lat="47.50375" lon="6.76705">
        <ele>397</ele>
        <time>2016-01-03T11:00:38.000Z</time>
      </trkpt>
      <trkpt lat="47.50378" lon="6.76703">
        <ele>397</ele>
        <time>2016-01-03T11:00:39.000Z</time>
      </trkpt>
      <trkpt lat="47.50381" lon="6.76702">
        <ele>397</ele>
        <time>2016-01-03T11:00:40.000Z</time>
      </trkpt>
      <trkpt lat="47.50384" lon="6.76701">
        <ele>397</ele>
        <time>2016-01-03T11:00:41.000Z</time>
      </trkpt>
      <trkpt lat="47.50387" lon="6.767">
        <ele>397</ele>
        <time>2016-01-03T11:00:42.000Z</time>
      </trkpt>
      <trkpt lat="47.5039" lon="6.76699">
        <ele>397</ele>
        <time>2016-01-03T11:00:43.000Z</time>
      </trkpt>
      <trkpt lat="47.50393" lon="6.76698">
        <ele>397</ele>
        <time>2016-01-03T11:00:44.000Z</time>
      </trkpt>
      <trkpt lat="47.50396" lon="6.76697">
        <ele>397</ele>
        <time>2016-01-03T11:00:45.000Z</time>
      </trkpt>
      <trkpt lat="47.50399" lon="6.76695">
        <ele>397</ele>
        <time>2016-01-03T11:00:46.000Z</time>
      </trkpt>
      <trkpt lat="47.50402" lon="6.76694">
        <ele>397</ele>
        <time>2016-01-03T11:00:47.000Z</time>
      </trkpt>
      <trkpt lat="47.50404" lon="6.76693">
        <ele>397</ele>
        <time>2016-01-03T11:00:48.000Z</time>
      </trkpt>
      <trkpt lat="47.50409" lon="6.76692">
        <ele>397</ele>
        <time>2016-01-03T11:00:50.000Z</time>
      </trkpt>
      <trkpt lat="47.50411" lon="6.76691">
        <ele>397</ele>
        <time>2016-01-03T11:00:50.999Z</time>
      </trkpt>
      <trkpt lat="47.50414" lon="6.76689">
        <ele>397</ele>
        <time>2016-01-03T11:00:53.000Z</time>
      </trkpt>
      <trkpt lat="47.50416" lon="6.76688">
        <ele>397</ele>
        <time>2016-01-03T11:00:54.000Z</time>
      </trkpt>
      <trkpt lat="47.50418" lon="6.76686">
        <ele>397</ele>
        <time>2016-01-03T11:00:55.000Z</time>
      </trkpt>
      <trkpt lat="47.50421" lon="6.76685">
        <ele>397</ele>
        <time>2016-01-03T11:00:56.000Z</time>
      </trkpt>
      <trkpt lat="47.50424" lon="6.76683">
        <ele>397</ele>
        <time>2016-01-03T11:00:57.000Z</time>
      </trkpt>
      <trkpt lat="47.50426" lon="6.76682">
        <ele>397</ele>
        <time>2016-01-03T11:00:58.000Z</time>
      </trkpt>
      <trkpt lat="47.50429" lon="6.76682">
        <ele>397</ele>
        <time>2016-01-03T11:00:59.000Z</time>
      </trkpt>
      <trkpt lat="47.50431" lon="6.76681">
        <ele>397</ele>
        <time>2016-01-03T11:01:00.000Z</time>
      </trkpt>
      <trkpt lat="47.50434" lon="6.7668">
        <ele>397</ele>
        <time>2016-01-03T11:01:01.000Z</time>
      </trkpt>
      <trkpt lat="47.50436" lon="6.76679">
        <ele>397</ele>
        <time>2016-01-03T11:01:01.999Z</time>
      </trkpt>
      <trkpt lat="47.5044" lon="6.76678">
        <ele>397</ele>
        <time>2016-01-03T11:01:03.000Z</time>
      </trkpt>
      <trkpt lat="47.50443" lon="6.76677">
        <ele>397</ele>
        <time>2016-01-03T11:01:04.000Z</time>
      </trkpt>
      <trkpt lat="47.50446" lon="6.76676">
        <ele>397</ele>
        <time>2016-01-03T11:01:05.000Z</time>
      </trkpt>
      <trkpt lat="47.50448" lon="6.76675">
        <ele>397</ele>
        <time>2016-01-03T11:01:06.000Z</time>
      </trkpt>
      <trkpt lat="47.50451" lon="6.76673">
        <ele>397</ele>
        <time>2016-01-03T11:01:07.000Z</time>
      </trkpt>
      <trkpt lat="47.50454" lon="6.76671">
        <ele>397</ele>
        <time>2016-01-03T11:01:08.000Z</time>
      </trkpt>
      <trkpt lat="47.50457" lon="6.7667">
        <ele>397</ele>
        <time>2016-01-03T11:01:09.000Z</time>
      </trkpt>
      <trkpt lat="47.5046" lon="6.76668">
        <ele>397</ele>
        <time>2016-01-03T11:01:10.000Z</time>
      </trkpt>
      <trkpt lat="47.50463" lon="6.76667">
        <ele>398</ele>
        <time>2016-01-03T11:01:11.000Z</time>
      </trkpt>
      <trkpt lat="47.50465" lon="6.76665">
        <ele>398</ele>
        <time>2016-01-03T11:01:12.000Z</time>
      </trkpt>
      <trkpt lat="47.50468" lon="6.76664">
        <ele>398</ele>
        <time>2016-01-03T11:01:13.000Z</time>
      </trkpt>
      <trkpt lat="47.50471" lon="6.76664">
        <ele>398</ele>
        <time>2016-01-03T11:01:14.000Z</time>
      </trkpt>
      <trkpt lat="47.50474" lon="6.76664">
        <ele>398</ele>
        <time>2016-01-03T11:01:15.000Z</time>
      </trkpt>
      <trkpt lat="47.50477" lon="6.76664">
        <ele>398</ele>
        <time>2016-01-03T11:01:16.000Z</time>
      </trkpt>
      <trkpt lat="47.5048" lon="6.76663">
        <ele>399</ele>
        <time>2016-01-03T11:01:17.000Z</time>
      </trkpt>
      <trkpt lat="47.50482" lon="6.76662">
        <ele>399</ele>
        <time>2016-01-03T11:01:18.000Z</time>
      </trkpt>
      <trkpt lat="47.50485" lon="6.76661">
        <ele>399</ele>
        <time>2016-01-03T11:01:19.000Z</time>
      </trkpt>
      <trkpt lat="47.50488" lon="6.7666">
        <ele>399</ele>
        <time>2016-01-03T11:01:20.000Z</time>
      </trkpt>
      <trkpt lat="47.5049" lon="6.76658">
        <ele>399</ele>
        <time>2016-01-03T11:01:21.000Z</time>
      </trkpt>
      <trkpt lat="47.50493" lon="6.76657">
        <ele>399</ele>
        <time>2016-01-03T11:01:22.000Z</time>
      </trkpt>
      <trkpt lat="47.50496" lon="6.76655">
        <ele>399</ele>
        <time>2016-01-03T11:01:23.000Z</time>
      </trkpt>
      <trkpt lat="47.50498" lon="6.76653">
        <ele>399</ele>
        <time>2016-01-03T11:01:24.000Z</time>
      </trkpt>
      <trkpt lat="47.50501" lon="6.76653">
        <ele>399</ele>
        <time>2016-01-03T11:01:25.000Z</time>
      </trkpt>
      <trkpt lat="47.50503" lon="6.76652">
        <ele>399</ele>
        <time>2016-01-03T11:01:25.999Z</time>
      </trkpt>
      <trkpt lat="47.50506" lon="6.7665">
        <ele>399</ele>
        <time>2016-01-03T11:01:27.000Z</time>
      </trkpt>
      <trkpt lat="47.50509" lon="6.76649">
        <ele>399</ele>
        <time>2016-01-03T11:01:28.000Z</time>
      </trkpt>
      <trkpt lat="47.50512" lon="6.76647">
        <ele>399</ele>
        <time>2016-01-03T11:01:29.000Z</time>
      </trkpt>
      <trkpt lat="47.50514" lon="6.76645">
        <ele>399</ele>
        <time>2016-01-03T11:01:30.000Z</time>
      </trkpt>
      <trkpt lat="47.50517" lon="6.76644">
        <ele>399</ele>
        <time>2016-01-03T11:01:31.000Z</time>
      </trkpt>
      <trkpt lat="47.5052" lon="6.76643">
        <ele>399</ele>
        <time>2016-01-03T11:01:32.000Z</time>
      </trkpt>
      <trkpt lat="47.50522" lon="6.76642">
        <ele>399</ele>
        <time>2016-01-03T11:01:33.000Z</time>
      </trkpt>
      <trkpt lat="47.50525" lon="6.76641">
        <ele>399</ele>
        <time>2016-01-03T11:01:34.000Z</time>
      </trkpt>
      <trkpt lat="47.50528" lon="6.7664">
        <ele>399</ele>
        <time>2016-01-03T11:01:35.000Z</time>
      </trkpt>
      <trkpt lat="47.50531" lon="6.76639">
        <ele>399</ele>
        <time>2016-01-03T11:01:36.000Z</time>
      </trkpt>
      <trkpt lat="47.50534" lon="6.76639">
        <ele>399</ele>
        <time>2016-01-03T11:01:37.000Z</time>
      </trkpt>
      <trkpt lat="47.50537" lon="6.76638">
        <ele>399</ele>
        <time>2016-01-03T11:01:38.000Z</time>
      </trkpt>
      <trkpt lat="47.5054" lon="6.76638">
        <ele>399</ele>
        <time>2016-01-03T11:01:39.000Z</time>
      </trkpt>
      <trkpt lat="47.50542" lon="6.76638">
        <ele>399</ele>
        <time>2016-01-03T11:01:40.000Z</time>
      </trkpt>
      <trkpt lat="47.50545" lon="6.76636">
        <ele>399</ele>
        <time>2016-01-03T11:01:41.000Z</time>
      </trkpt>
      <trkpt lat="47.50548" lon="6.76635">
        <ele>399</ele>
        <time>2016-01-03T11:01:41.999Z</time>
      </trkpt>
      <trkpt lat="47.50551" lon="6.76633">
        <ele>399</ele>
        <time>2016-01-03T11:01:43.000Z</time>
      </trkpt>
      <trkpt lat="47.50554" lon="6.76633">
        <ele>399</ele>
        <time>2016-01-03T11:01:44.000Z</time>
      </trkpt>
      <trkpt lat="47.50557" lon="6.76632">
        <ele>399</ele>
        <time>2016-01-03T11:01:45.000Z</time>
      </trkpt>
      <trkpt lat="47.5056" lon="6.76631">
        <ele>399</ele>
        <time>2016-01-03T11:01:46.000Z</time>
      </trkpt>
      <trkpt lat="47.50562" lon="6.7663">
        <ele>399</ele>
        <time>2016-01-03T11:01:47.000Z</time>
      </trkpt>
      <trkpt lat="47.50565" lon="6.76629">
        <ele>399</ele>
        <time>2016-01-03T11:01:47.999Z</time>
      </trkpt>
      <trkpt lat="47.50568" lon="6.76629">
        <ele>399</ele>
        <time>2016-01-03T11:01:49.000Z</time>
      </trkpt>
      <trkpt lat="47.5057" lon="6.76629">
        <ele>399</ele>
        <time>2016-01-03T11:01:50.000Z</time>
      </trkpt>
      <trkpt lat="47.50573" lon="6.76629">
        <ele>399</ele>
        <time>2016-01-03T11:01:50.999Z</time>
      </trkpt>
      <trkpt lat="47.50576" lon="6.76629">
        <ele>399</ele>
        <time>2016-01-03T11:01:52.000Z</time>
      </trkpt>
      <trkpt lat="47.50579" lon="6.76629">
        <ele>399</ele>
        <time>2016-01-03T11:01:52.999Z</time>
      </trkpt>
      <trkpt lat="47.50582" lon="6.76628">
        <ele>399</ele>
        <time>2016-01-03T11:01:54.000Z</time>
      </trkpt>
      <trkpt lat="47.50586" lon="6.76626">
        <ele>398</ele>
        <time>2016-01-03T11:01:55.000Z</time>
      </trkpt>
      <trkpt lat="47.5059" lon="6.76625">
        <ele>398</ele>
        <time>2016-01-03T11:01:56.000Z</time>
      </trkpt>
      <trkpt lat="47.50593" lon="6.76624">
        <ele>398</ele>
        <time>2016-01-03T11:01:57.000Z</time>
      </trkpt>
      <trkpt lat="47.50598" lon="6.76622">
        <ele>398</ele>
        <time>2016-01-03T11:01:58.000Z</time>
      </trkpt>
      <trkpt lat="47.50602" lon="6.7662">
        <ele>398</ele>
        <time>2016-01-03T11:01:59.000Z</time>
      </trkpt>
      <trkpt lat="47.50606" lon="6.76619">
        <ele>398</ele>
        <time>2016-01-03T11:02:00.000Z</time>
      </trkpt>
      <trkpt lat="47.5061" lon="6.76617">
        <ele>398</ele>
        <time>2016-01-03T11:02:01.000Z</time>
      </trkpt>
      <trkpt lat="47.50615" lon="6.76615">
        <ele>397</ele>
        <time>2016-01-03T11:02:02.000Z</time>
      </trkpt>
      <trkpt lat="47.50619" lon="6.76612">
        <ele>397</ele>
        <time>2016-01-03T11:02:03.000Z</time>
      </trkpt>
      <trkpt lat="47.50623" lon="6.7661">
        <ele>397</ele>
        <time>2016-01-03T11:02:04.000Z</time>
      </trkpt>
      <trkpt lat="47.50627" lon="6.76608">
        <ele>397</ele>
        <time>2016-01-03T11:02:05.000Z</time>
      </trkpt>
      <trkpt lat="47.50631" lon="6.76605">
        <ele>397</ele>
        <time>2016-01-03T11:02:06.000Z</time>
      </trkpt>
      <trkpt lat="47.50635" lon="6.76603">
        <ele>397</ele>
        <time>2016-01-03T11:02:07.000Z</time>
      </trkpt>
      <trkpt lat="47.50638" lon="6.76601">
        <ele>397</ele>
        <time>2016-01-03T11:02:08.000Z</time>
      </trkpt>
      <trkpt lat="47.50643" lon="6.76599">
        <ele>397</ele>
        <time>2016-01-03T11:02:09.000Z</time>
      </trkpt>
      <trkpt lat="47.50647" lon="6.76596">
        <ele>397</ele>
        <time>2016-01-03T11:02:10.000Z</time>
      </trkpt>
      <trkpt lat="47.50651" lon="6.76594">
        <ele>397</ele>
        <time>2016-01-03T11:02:11.000Z</time>
      </trkpt>
      <trkpt lat="47.50655" lon="6.76593">
        <ele>397</ele>
        <time>2016-01-03T11:02:12.000Z</time>
      </trkpt>
      <trkpt lat="47.50659" lon="6.76591">
        <ele>397</ele>
        <time>2016-01-03T11:02:13.000Z</time>
      </trkpt>
      <trkpt lat="47.50662" lon="6.7659">
        <ele>397</ele>
        <time>2016-01-03T11:02:14.000Z</time>
      </trkpt>
      <trkpt lat="47.50666" lon="6.76589">
        <ele>397</ele>
        <time>2016-01-03T11:02:15.000Z</time>
      </trkpt>
      <trkpt lat="47.5067" lon="6.76588">
        <ele>396</ele>
        <time>2016-01-03T11:02:16.000Z</time>
      </trkpt>
      <trkpt lat="47.50674" lon="6.76587">
        <ele>396</ele>
        <time>2016-01-03T11:02:17.000Z</time>
      </trkpt>
      <trkpt lat="47.50678" lon="6.76586">
        <ele>396</ele>
        <time>2016-01-03T11:02:18.000Z</time>
      </trkpt>
      <trkpt lat="47.50682" lon="6.76585">
        <ele>396</ele>
        <time>2016-01-03T11:02:19.000Z</time>
      </trkpt>
      <trkpt lat="47.50686" lon="6.76585">
        <ele>396</ele>
        <time>2016-01-03T11:02:20.000Z</time>
      </trkpt>
      <trkpt lat="47.5069" lon="6.76584">
        <ele>395</ele>
        <time>2016-01-03T11:02:21.000Z</time>
      </trkpt>
      <trkpt lat="47.50694" lon="6.76584">
        <ele>395</ele>
        <time>2016-01-03T11:02:22.000Z</time>
      </trkpt>
      <trkpt lat="47.50698" lon="6.76584">
        <ele>395</ele>
        <time>2016-01-03T11:02:23.000Z</time>
      </trkpt>
      <trkpt lat="47.50701" lon="6.76584">
        <ele>395</ele>
        <time>2016-01-03T11:02:24.000Z</time>
      </trkpt>
      <trkpt lat="47.50705" lon="6.76584">
        <ele>395</ele>
        <time>2016-01-03T11:02:25.000Z</time>
      </trkpt>
      <trkpt lat="47.50709" lon="6.76585">
        <ele>395</ele>
        <time>2016-01-03T11:02:26.000Z</time>
      </trkpt>
      <trkpt lat="47.50713" lon="6.76585">
        <ele>395</ele>
        <time>2016-01-03T11:02:27.000Z</time>
      </trkpt>
      <trkpt lat="47.50717" lon="6.76586">
        <ele>394</ele>
        <time>2016-01-03T11:02:28.000Z</time>
      </trkpt>
      <trkpt lat="47.50721" lon="6.76587">
        <ele>394</ele>
        <time>2016-01-03T11:02:29.000Z</time>
      </trkpt>
      <trkpt lat="47.50724" lon="6.76588">
        <ele>394</ele>
        <time>2016-01-03T11:02:30.000Z</time>
      </trkpt>
      <trkpt lat="47.50728" lon="6.7659">
        <ele>394</ele>
        <time>2016-01-03T11:02:31.000Z</time>
      </trkpt>
      <trkpt lat="47.50731" lon="6.76591">
        <ele>394</ele>
        <time>2016-01-03T11:02:32.000Z</time>
      </trkpt>
      <trkpt lat="47.50734" lon="6.76591">
        <ele>394</ele>
        <time>2016-01-03T11:02:33.000Z</time>
      </trkpt>
      <trkpt lat="47.50738" lon="6.76592">
        <ele>394</ele>
        <time>2016-01-03T11:02:34.000Z</time>
      </trkpt>
      <trkpt lat="47.50741" lon="6.76593">
        <ele>394</ele>
        <time>2016-01-03T11:02:35.000Z</time>
      </trkpt>
      <trkpt lat="47.50744" lon="6.76593">
        <ele>394</ele>
        <time>2016-01-03T11:02:36.000Z</time>
      </trkpt>
      <trkpt lat="47.50747" lon="6.76594">
        <ele>394</ele>
        <time>2016-01-03T11:02:37.000Z</time>
      </trkpt>
      <trkpt lat="47.5075" lon="6.76594">
        <ele>393</ele>
        <time>2016-01-03T11:02:38.000Z</time>
      </trkpt>
      <trkpt lat="47.50753" lon="6.76594">
        <ele>393</ele>
        <time>2016-01-03T11:02:39.000Z</time>
      </trkpt>
      <trkpt lat="47.50757" lon="6.76594">
        <ele>393</ele>
        <time>2016-01-03T11:02:40.000Z</time>
      </trkpt>
      <trkpt lat="47.5076" lon="6.76594">
        <ele>393</ele>
        <time>2016-01-03T11:02:41.000Z</time>
      </trkpt>
      <trkpt lat="47.50764" lon="6.76593">
        <ele>392</ele>
        <time>2016-01-03T11:02:42.000Z</time>
      </trkpt>
      <trkpt lat="47.50768" lon="6.76593">
        <ele>392</ele>
        <time>2016-01-03T11:02:43.000Z</time>
      </trkpt>
      <trkpt lat="47.50771" lon="6.76592">
        <ele>392</ele>
        <time>2016-01-03T11:02:44.000Z</time>
      </trkpt>
      <trkpt lat="47.50775" lon="6.76591">
        <ele>392</ele>
        <time>2016-01-03T11:02:45.000Z</time>
      </trkpt>
      <trkpt lat="47.50779" lon="6.7659">
        <ele>392</ele>
        <time>2016-01-03T11:02:46.000Z</time>
      </trkpt>
      <trkpt lat="47.50783" lon="6.76589">
        <ele>391</ele>
        <time>2016-01-03T11:02:47.000Z</time>
      </trkpt>
      <trkpt lat="47.50786" lon="6.76588">
        <ele>391</ele>
        <time>2016-01-03T11:02:48.000Z</time>
      </trkpt>
      <trkpt lat="47.50789" lon="6.76587">
        <ele>391</ele>
        <time>2016-01-03T11:02:49.000Z</time>
      </trkpt>
      <trkpt lat="47.50788" lon="6.76593">
        <ele>391</ele>
        <time>2016-01-03T11:02:56.000Z</time>
      </trkpt>
      <trkpt lat="47.50788" lon="6.76596">
        <ele>391</ele>
        <time>2016-01-03T11:02:57.000Z</time>
      </trkpt>
      <trkpt lat="47.50789" lon="6.766">
        <ele>391</ele>
        <time>2016-01-03T11:02:58.000Z</time>
      </trkpt>
      <trkpt lat="47.5079" lon="6.76605">
        <ele>391</ele>
        <time>2016-01-03T11:02:59.000Z</time>
      </trkpt>
      <trkpt lat="47.50791" lon="6.76611">
        <ele>391</ele>
        <time>2016-01-03T11:03:00.000Z</time>
      </trkpt>
      <trkpt lat="47.50791" lon="6.76617">
        <ele>391</ele>
        <time>2016-01-03T11:03:01.000Z</time>
      </trkpt>
      <trkpt lat="47.50792" lon="6.76624">
        <ele>391</ele>
        <time>2016-01-03T11:03:02.000Z</time>
      </trkpt>
      <trkpt lat="47.50792" lon="6.76631">
        <ele>391</ele>
        <time>2016-01-03T11:03:03.000Z</time>
      </trkpt>
      <trkpt lat="47.50791" lon="6.76637">
        <ele>391</ele>
        <time>2016-01-03T11:03:04.000Z</time>
      </trkpt>
      <trkpt lat="47.5079" lon="6.76643">
        <ele>391</ele>
        <time>2016-01-03T11:03:05.000Z</time>
      </trkpt>
      <trkpt lat="47.50789" lon="6.76649">
        <ele>391</ele>
        <time>2016-01-03T11:03:06.000Z</time>
      </trkpt>
      <trkpt lat="47.50787" lon="6.76654">
        <ele>391</ele>
        <time>2016-01-03T11:03:07.000Z</time>
      </trkpt>
      <trkpt lat="47.50784" lon="6.76658">
        <ele>391</ele>
        <time>2016-01-03T11:03:08.000Z</time>
      </trkpt>
      <trkpt lat="47.50781" lon="6.76662">
        <ele>391</ele>
        <time>2016-01-03T11:03:09.000Z</time>
      </trkpt>
      <trkpt lat="47.50778" lon="6.76666">
        <ele>391</ele>
        <time>2016-01-03T11:03:10.000Z</time>
      </trkpt>
      <trkpt lat="47.50775" lon="6.76669">
        <ele>389</ele>
        <time>2016-01-03T11:03:11.000Z</time>
      </trkpt>
      <trkpt lat="47.50771" lon="6.76672">
        <ele>389</ele>
        <time>2016-01-03T11:03:12.000Z</time>
      </trkpt>
      <trkpt lat="47.50768" lon="6.76675">
        <ele>389</ele>
        <time>2016-01-03T11:03:13.000Z</time>
      </trkpt>
      <trkpt lat="47.50766" lon="6.76678">
        <ele>389</ele>
        <time>2016-01-03T11:03:14.000Z</time>
      </trkpt>
      <trkpt lat="47.50764" lon="6.76681">
        <ele>389</ele>
        <time>2016-01-03T11:03:15.000Z</time>
      </trkpt>
      <trkpt lat="47.50764" lon="6.76685">
        <ele>389</ele>
        <time>2016-01-03T11:03:16.000Z</time>
      </trkpt>
      <trkpt lat="47.50765" lon="6.76689">
        <ele>389</ele>
        <time>2016-01-03T11:03:17.000Z</time>
      </trkpt>
      <trkpt lat="47.50767" lon="6.76693">
        <ele>389</ele>
        <time>2016-01-03T11:03:18.000Z</time>
      </trkpt>
      <trkpt lat="47.5077" lon="6.76697">
        <ele>389</ele>
        <time>2016-01-03T11:03:19.000Z</time>
      </trkpt>
      <trkpt lat="47.50773" lon="6.76702">
        <ele>388</ele>
        <time>2016-01-03T11:03:20.000Z</time>
      </trkpt>
      <trkpt lat="47.50776" lon="6.76706">
        <ele>388</ele>
        <time>2016-01-03T11:03:21.000Z</time>
      </trkpt>
      <trkpt lat="47.50779" lon="6.76711">
        <ele>388</ele>
        <time>2016-01-03T11:03:22.000Z</time>
      </trkpt>
      <trkpt lat="47.50782" lon="6.76715">
        <ele>388</ele>
        <time>2016-01-03T11:03:23.000Z</time>
      </trkpt>
      <trkpt lat="47.50785" lon="6.7672">
        <ele>388</ele>
        <time>2016-01-03T11:03:24.000Z</time>
      </trkpt>
      <trkpt lat="47.50787" lon="6.76725">
        <ele>388</ele>
        <time>2016-01-03T11:03:25.000Z</time>
      </trkpt>
      <trkpt lat="47.50788" lon="6.7673">
        <ele>388</ele>
        <time>2016-01-03T11:03:26.000Z</time>
      </trkpt>
      <trkpt lat="47.50789" lon="6.76736">
        <ele>387</ele>
        <time>2016-01-03T11:03:27.000Z</time>
      </trkpt>
      <trkpt lat="47.50789" lon="6.76743">
        <ele>387</ele>
        <time>2016-01-03T11:03:28.000Z</time>
      </trkpt>
      <trkpt lat="47.5079" lon="6.76752">
        <ele>384</ele>
        <time>2016-01-03T11:03:29.000Z</time>
      </trkpt>
      <trkpt lat="47.50792" lon="6.76758">
        <ele>384</ele>
        <time>2016-01-03T11:03:30.000Z</time>
      </trkpt>
      <trkpt lat="47.50795" lon="6.76764">
        <ele>384</ele>
        <time>2016-01-03T11:03:31.000Z</time>
      </trkpt>
      <trkpt lat="47.50799" lon="6.76767">
        <ele>384</ele>
        <time>2016-01-03T11:03:32.000Z</time>
      </trkpt>
      <trkpt lat="47.50802" lon="6.76773">
        <ele>384</ele>
        <time>2016-01-03T11:03:33.000Z</time>
      </trkpt>
      <trkpt lat="47.50806" lon="6.76778">
        <ele>384</ele>
        <time>2016-01-03T11:03:34.000Z</time>
      </trkpt>
      <trkpt lat="47.5081" lon="6.76785">
        <ele>384</ele>
        <time>2016-01-03T11:03:35.000Z</time>
      </trkpt>
      <trkpt lat="47.50813" lon="6.76793">
        <ele>384</ele>
        <time>2016-01-03T11:03:36.000Z</time>
      </trkpt>
      <trkpt lat="47.50817" lon="6.76801">
        <ele>383</ele>
        <time>2016-01-03T11:03:37.000Z</time>
      </trkpt>
      <trkpt lat="47.50821" lon="6.76809">
        <ele>383</ele>
        <time>2016-01-03T11:03:38.000Z</time>
      </trkpt>
      <trkpt lat="47.50825" lon="6.76818">
        <ele>383</ele>
        <time>2016-01-03T11:03:39.000Z</time>
      </trkpt>
      <trkpt lat="47.5083" lon="6.76826">
        <ele>383</ele>
        <time>2016-01-03T11:03:40.000Z</time>
      </trkpt>
      <trkpt lat="47.50834" lon="6.76834">
        <ele>383</ele>
        <time>2016-01-03T11:03:41.000Z</time>
      </trkpt>
      <trkpt lat="47.50839" lon="6.76843">
        <ele>382</ele>
        <time>2016-01-03T11:03:42.000Z</time>
      </trkpt>
      <trkpt lat="47.50844" lon="6.76851">
        <ele>381</ele>
        <time>2016-01-03T11:03:43.000Z</time>
      </trkpt>
      <trkpt lat="47.50849" lon="6.76859">
        <ele>380</ele>
        <time>2016-01-03T11:03:44.000Z</time>
      </trkpt>
      <trkpt lat="47.50855" lon="6.76866">
        <ele>380</ele>
        <time>2016-01-03T11:03:45.000Z</time>
      </trkpt>
      <trkpt lat="47.50861" lon="6.76874">
        <ele>379</ele>
        <time>2016-01-03T11:03:46.000Z</time>
      </trkpt>
      <trkpt lat="47.50866" lon="6.76881">
        <ele>379</ele>
        <time>2016-01-03T11:03:47.000Z</time>
      </trkpt>
      <trkpt lat="47.50872" lon="6.76888">
        <ele>379</ele>
        <time>2016-01-03T11:03:48.000Z</time>
      </trkpt>
      <trkpt lat="47.50878" lon="6.76895">
        <ele>379</ele>
        <time>2016-01-03T11:03:49.000Z</time>
      </trkpt>
      <trkpt lat="47.50884" lon="6.76902">
        <ele>379</ele>
        <time>2016-01-03T11:03:50.000Z</time>
      </trkpt>
      <trkpt lat="47.5089" lon="6.76908">
        <ele>379</ele>
        <time>2016-01-03T11:03:51.000Z</time>
      </trkpt>
      <trkpt lat="47.50896" lon="6.76914">
        <ele>378</ele>
        <time>2016-01-03T11:03:52.000Z</time>
      </trkpt>
      <trkpt lat="47.50903" lon="6.76919">
        <ele>373</ele>
        <time>2016-01-03T11:03:53.000Z</time>
      </trkpt>
      <trkpt lat="47.50909" lon="6.76923">
        <ele>374</ele>
        <time>2016-01-03T11:03:54.000Z</time>
      </trkpt>
      <trkpt lat="47.50915" lon="6.76927">
        <ele>374</ele>
        <time>2016-01-03T11:03:55.000Z</time>
      </trkpt>
      <trkpt lat="47.50921" lon="6.7693">
        <ele>375</ele>
        <time>2016-01-03T11:03:56.000Z</time>
      </trkpt>
      <trkpt lat="47.50927" lon="6.76933">
        <ele>375</ele>
        <time>2016-01-03T11:03:57.000Z</time>
      </trkpt>
      <trkpt lat="47.50932" lon="6.76934">
        <ele>374</ele>
        <time>2016-01-03T11:03:58.000Z</time>
      </trkpt>
      <trkpt lat="47.50938" lon="6.76936">
        <ele>374</ele>
        <time>2016-01-03T11:03:59.000Z</time>
      </trkpt>
      <trkpt lat="47.50943" lon="6.76938">
        <ele>374</ele>
        <time>2016-01-03T11:04:00.000Z</time>
      </trkpt>
      <trkpt lat="47.50949" lon="6.76939">
        <ele>374</ele>
        <time>2016-01-03T11:04:01.000Z</time>
      </trkpt>
      <trkpt lat="47.50954" lon="6.7694">
        <ele>374</ele>
        <time>2016-01-03T11:04:02.000Z</time>
      </trkpt>
      <trkpt lat="47.5096" lon="6.76943">
        <ele>374</ele>
        <time>2016-01-03T11:04:03.000Z</time>
      </trkpt>
      <trkpt lat="47.50965" lon="6.76947">
        <ele>373</ele>
        <time>2016-01-03T11:04:04.000Z</time>
      </trkpt>
      <trkpt lat="47.50969" lon="6.7695">
        <ele>373</ele>
        <time>2016-01-03T11:04:05.000Z</time>
      </trkpt>
      <trkpt lat="47.50974" lon="6.76952">
        <ele>373</ele>
        <time>2016-01-03T11:04:06.000Z</time>
      </trkpt>
      <trkpt lat="47.50977" lon="6.76952">
        <ele>373</ele>
        <time>2016-01-03T11:04:07.000Z</time>
      </trkpt>
      <trkpt lat="47.50981" lon="6.76952">
        <ele>373</ele>
        <time>2016-01-03T11:04:08.000Z</time>
      </trkpt>
      <trkpt lat="47.50985" lon="6.76953">
        <ele>373</ele>
        <time>2016-01-03T11:04:09.000Z</time>
      </trkpt>
      <trkpt lat="47.50989" lon="6.76952">
        <ele>374</ele>
        <time>2016-01-03T11:04:10.000Z</time>
      </trkpt>
      <trkpt lat="47.50993" lon="6.76949">
        <ele>374</ele>
        <time>2016-01-03T11:04:11.000Z</time>
      </trkpt>
      <trkpt lat="47.50996" lon="6.76946">
        <ele>374</ele>
        <time>2016-01-03T11:04:12.000Z</time>
      </trkpt>
      <trkpt lat="47.51" lon="6.76943">
        <ele>374</ele>
        <time>2016-01-03T11:04:13.000Z</time>
      </trkpt>
      <trkpt lat="47.51004" lon="6.76942">
        <ele>375</ele>
        <time>2016-01-03T11:04:14.000Z</time>
      </trkpt>
      <trkpt lat="47.51009" lon="6.76945">
        <ele>375</ele>
        <time>2016-01-03T11:04:15.000Z</time>
      </trkpt>
      <trkpt lat="47.51014" lon="6.76946">
        <ele>375</ele>
        <time>2016-01-03T11:04:16.000Z</time>
      </trkpt>
      <trkpt lat="47.51019" lon="6.76949">
        <ele>375</ele>
        <time>2016-01-03T11:04:17.000Z</time>
      </trkpt>
      <trkpt lat="47.51024" lon="6.7695">
        <ele>375</ele>
        <time>2016-01-03T11:04:18.000Z</time>
      </trkpt>
      <trkpt lat="47.51028" lon="6.76952">
        <ele>375</ele>
        <time>2016-01-03T11:04:19.000Z</time>
      </trkpt>
      <trkpt lat="47.51033" lon="6.76954">
        <ele>375</ele>
        <time>2016-01-03T11:04:20.000Z</time>
      </trkpt>
      <trkpt lat="47.51038" lon="6.76956">
        <ele>375</ele>
        <time>2016-01-03T11:04:21.000Z</time>
      </trkpt>
      <trkpt lat="47.51042" lon="6.7696">
        <ele>375</ele>
        <time>2016-01-03T11:04:22.000Z</time>
      </trkpt>
      <trkpt lat="47.51047" lon="6.76964">
        <ele>375</ele>
        <time>2016-01-03T11:04:23.000Z</time>
      </trkpt>
      <trkpt lat="47.5105" lon="6.76966">
        <ele>375</ele>
        <time>2016-01-03T11:04:24.000Z</time>
      </trkpt>
      <trkpt lat="47.51054" lon="6.7697">
        <ele>375</ele>
        <time>2016-01-03T11:04:24.999Z</time>
      </trkpt>
      <trkpt lat="47.51058" lon="6.76971">
        <ele>375</ele>
        <time>2016-01-03T11:04:26.001Z</time>
      </trkpt>
      <trkpt lat="47.51062" lon="6.76975">
        <ele>375</ele>
        <time>2016-01-03T11:04:27.000Z</time>
      </trkpt>
      <trkpt lat="47.51066" lon="6.76979">
        <ele>375</ele>
        <time>2016-01-03T11:04:28.000Z</time>
      </trkpt>
      <trkpt lat="47.5107" lon="6.76983">
        <ele>375</ele>
        <time>2016-01-03T11:04:29.000Z</time>
      </trkpt>
      <trkpt lat="47.51074" lon="6.76986">
        <ele>375</ele>
        <time>2016-01-03T11:04:30.000Z</time>
      </trkpt>
      <trkpt lat="47.51078" lon="6.76989">
        <ele>375</ele>
        <time>2016-01-03T11:04:31.000Z</time>
      </trkpt>
      <trkpt lat="47.51081" lon="6.76994">
        <ele>375</ele>
        <time>2016-01-03T11:04:32.000Z</time>
      </trkpt>
      <trkpt lat="47.51085" lon="6.76997">
        <ele>375</ele>
        <time>2016-01-03T11:04:33.000Z</time>
      </trkpt>
      <trkpt lat="47.51087" lon="6.77001">
        <ele>375</ele>
        <time>2016-01-03T11:04:34.000Z</time>
      </trkpt>
      <trkpt lat="47.51091" lon="6.77004">
        <ele>375</ele>
        <time>2016-01-03T11:04:35.000Z</time>
      </trkpt>
      <trkpt lat="47.51095" lon="6.77006">
        <ele>375</ele>
        <time>2016-01-03T11:04:36.000Z</time>
      </trkpt>
      <trkpt lat="47.51099" lon="6.77008">
        <ele>375</ele>
        <time>2016-01-03T11:04:37.000Z</time>
      </trkpt>
      <trkpt lat="47.51102" lon="6.77011">
        <ele>375</ele>
        <time>2016-01-03T11:04:38.000Z</time>
      </trkpt>
      <trkpt lat="47.51106" lon="6.77015">
        <ele>375</ele>
        <time>2016-01-03T11:04:39.000Z</time>
      </trkpt>
      <trkpt lat="47.51109" lon="6.77018">
        <ele>375</ele>
        <time>2016-01-03T11:04:40.000Z</time>
      </trkpt>
      <trkpt lat="47.51113" lon="6.77021">
        <ele>375</ele>
        <time>2016-01-03T11:04:41.000Z</time>
      </trkpt>
      <trkpt lat="47.51117" lon="6.77024">
        <ele>375</ele>
        <time>2016-01-03T11:04:42.000Z</time>
      </trkpt>
      <trkpt lat="47.51121" lon="6.77029">
        <ele>375</ele>
        <time>2016-01-03T11:04:43.000Z</time>
      </trkpt>
      <trkpt lat="47.51126" lon="6.77032">
        <ele>375</ele>
        <time>2016-01-03T11:04:44.000Z</time>
      </trkpt>
      <trkpt lat="47.5113" lon="6.77035">
        <ele>375</ele>
        <time>2016-01-03T11:04:45.000Z</time>
      </trkpt>
      <trkpt lat="47.51134" lon="6.77038">
        <ele>375</ele>
        <time>2016-01-03T11:04:46.000Z</time>
      </trkpt>
      <trkpt lat="47.51138" lon="6.77041">
        <ele>375</ele>
        <time>2016-01-03T11:04:47.000Z</time>
      </trkpt>
      <trkpt lat="47.51142" lon="6.77043">
        <ele>376</ele>
        <time>2016-01-03T11:04:48.000Z</time>
      </trkpt>
      <trkpt lat="47.51145" lon="6.77047">
        <ele>376</ele>
        <time>2016-01-03T11:04:49.000Z</time>
      </trkpt>
      <trkpt lat="47.51149" lon="6.77051">
        <ele>376</ele>
        <time>2016-01-03T11:04:50.000Z</time>
      </trkpt>
      <trkpt lat="47.51153" lon="6.77054">
        <ele>376</ele>
        <time>2016-01-03T11:04:51.000Z</time>
      </trkpt>
      <trkpt lat="47.51157" lon="6.77057">
        <ele>376</ele>
        <time>2016-01-03T11:04:52.000Z</time>
      </trkpt>
      <trkpt lat="47.5116" lon="6.77061">
        <ele>376</ele>
        <time>2016-01-03T11:04:53.000Z</time>
      </trkpt>
      <trkpt lat="47.51164" lon="6.77066">
        <ele>377</ele>
        <time>2016-01-03T11:04:54.000Z</time>
      </trkpt>
      <trkpt lat="47.51167" lon="6.7707">
        <ele>377</ele>
        <time>2016-01-03T11:04:55.000Z</time>
      </trkpt>
      <trkpt lat="47.51171" lon="6.77077">
        <ele>377</ele>
        <time>2016-01-03T11:04:56.000Z</time>
      </trkpt>
      <trkpt lat="47.51173" lon="6.77082">
        <ele>377</ele>
        <time>2016-01-03T11:04:57.000Z</time>
      </trkpt>
      <trkpt lat="47.51175" lon="6.77086">
        <ele>378</ele>
        <time>2016-01-03T11:04:58.000Z</time>
      </trkpt>
      <trkpt lat="47.51178" lon="6.77092">
        <ele>378</ele>
        <time>2016-01-03T11:04:59.000Z</time>
      </trkpt>
      <trkpt lat="47.51182" lon="6.771">
        <ele>378</ele>
        <time>2016-01-03T11:05:00.000Z</time>
      </trkpt>
      <trkpt lat="47.51185" lon="6.77106">
        <ele>378</ele>
        <time>2016-01-03T11:05:01.000Z</time>
      </trkpt>
      <trkpt lat="47.51188" lon="6.77113">
        <ele>378</ele>
        <time>2016-01-03T11:05:02.000Z</time>
      </trkpt>
      <trkpt lat="47.5119" lon="6.77116">
        <ele>378</ele>
        <time>2016-01-03T11:05:03.000Z</time>
      </trkpt>
      <trkpt lat="47.51192" lon="6.77121">
        <ele>378</ele>
        <time>2016-01-03T11:05:04.000Z</time>
      </trkpt>
      <trkpt lat="47.51194" lon="6.77125">
        <ele>378</ele>
        <time>2016-01-03T11:05:05.000Z</time>
      </trkpt>
      <trkpt lat="47.51196" lon="6.7713">
        <ele>378</ele>
        <time>2016-01-03T11:05:06.000Z</time>
      </trkpt>
      <trkpt lat="47.51198" lon="6.77135">
        <ele>378</ele>
        <time>2016-01-03T11:05:07.000Z</time>
      </trkpt>
      <trkpt lat="47.51201" lon="6.77139">
        <ele>378</ele>
        <time>2016-01-03T11:05:08.000Z</time>
      </trkpt>
      <trkpt lat="47.51203" lon="6.77144">
        <ele>378</ele>
        <time>2016-01-03T11:05:09.000Z</time>
      </trkpt>
      <trkpt lat="47.51205" lon="6.77149">
        <ele>378</ele>
        <time>2016-01-03T11:05:10.000Z</time>
      </trkpt>
      <trkpt lat="47.51208" lon="6.77154">
        <ele>378</ele>
        <time>2016-01-03T11:05:11.000Z</time>
      </trkpt>
      <trkpt lat="47.5121" lon="6.77158">
        <ele>378</ele>
        <time>2016-01-03T11:05:11.999Z</time>
      </trkpt>
      <trkpt lat="47.51212" lon="6.77162">
        <ele>378</ele>
        <time>2016-01-03T11:05:13.000Z</time>
      </trkpt>
      <trkpt lat="47.51214" lon="6.77167">
        <ele>378</ele>
        <time>2016-01-03T11:05:13.999Z</time>
      </trkpt>
      <trkpt lat="47.51217" lon="6.77172">
        <ele>376</ele>
        <time>2016-01-03T11:05:15.000Z</time>
      </trkpt>
      <trkpt lat="47.51219" lon="6.77176">
        <ele>376</ele>
        <time>2016-01-03T11:05:16.000Z</time>
      </trkpt>
      <trkpt lat="47.51221" lon="6.77181">
        <ele>376</ele>
        <time>2016-01-03T11:05:17.000Z</time>
      </trkpt>
      <trkpt lat="47.51223" lon="6.77186">
        <ele>376</ele>
        <time>2016-01-03T11:05:18.002Z</time>
      </trkpt>
      <trkpt lat="47.51225" lon="6.7719">
        <ele>376</ele>
        <time>2016-01-03T11:05:19.000Z</time>
      </trkpt>
      <trkpt lat="47.51228" lon="6.77194">
        <ele>376</ele>
        <time>2016-01-03T11:05:20.000Z</time>
      </trkpt>
      <trkpt lat="47.5123" lon="6.77199">
        <ele>376</ele>
        <time>2016-01-03T11:05:21.000Z</time>
      </trkpt>
      <trkpt lat="47.51233" lon="6.77203">
        <ele>376</ele>
        <time>2016-01-03T11:05:22.000Z</time>
      </trkpt>
      <trkpt lat="47.51235" lon="6.77208">
        <ele>376</ele>
        <time>2016-01-03T11:05:23.000Z</time>
      </trkpt>
      <trkpt lat="47.51238" lon="6.77213">
        <ele>376</ele>
        <time>2016-01-03T11:05:24.000Z</time>
      </trkpt>
      <trkpt lat="47.5124" lon="6.77218">
        <ele>376</ele>
        <time>2016-01-03T11:05:25.000Z</time>
      </trkpt>
      <trkpt lat="47.51243" lon="6.77223">
        <ele>376</ele>
        <time>2016-01-03T11:05:26.001Z</time>
      </trkpt>
      <trkpt lat="47.51245" lon="6.77228">
        <ele>377</ele>
        <time>2016-01-03T11:05:27.000Z</time>
      </trkpt>
      <trkpt lat="47.51248" lon="6.77233">
        <ele>377</ele>
        <time>2016-01-03T11:05:28.000Z</time>
      </trkpt>
      <trkpt lat="47.5125" lon="6.77237">
        <ele>378</ele>
        <time>2016-01-03T11:05:29.000Z</time>
      </trkpt>
      <trkpt lat="47.51253" lon="6.77242">
        <ele>379</ele>
        <time>2016-01-03T11:05:29.999Z</time>
      </trkpt>
      <trkpt lat="47.51255" lon="6.77245">
        <ele>379</ele>
        <time>2016-01-03T11:05:31.000Z</time>
      </trkpt>
      <trkpt lat="47.51258" lon="6.77248">
        <ele>379</ele>
        <time>2016-01-03T11:05:32.000Z</time>
      </trkpt>
      <trkpt lat="47.51261" lon="6.77251">
        <ele>378</ele>
        <time>2016-01-03T11:05:33.000Z</time>
      </trkpt>
      <trkpt lat="47.51265" lon="6.77255">
        <ele>378</ele>
        <time>2016-01-03T11:05:34.000Z</time>
      </trkpt>
      <trkpt lat="47.51268" lon="6.77258">
        <ele>378</ele>
        <time>2016-01-03T11:05:35.000Z</time>
      </trkpt>
      <trkpt lat="47.51273" lon="6.7726">
        <ele>377</ele>
        <time>2016-01-03T11:05:36.000Z</time>
      </trkpt>
      <trkpt lat="47.51277" lon="6.77262">
        <ele>377</ele>
        <time>2016-01-03T11:05:37.000Z</time>
      </trkpt>
      <trkpt lat="47.51281" lon="6.77265">
        <ele>377</ele>
        <time>2016-01-03T11:05:37.999Z</time>
      </trkpt>
      <trkpt lat="47.51286" lon="6.77267">
        <ele>377</ele>
        <time>2016-01-03T11:05:39.000Z</time>
      </trkpt>
      <trkpt lat="47.5129" lon="6.7727">
        <ele>377</ele>
        <time>2016-01-03T11:05:40.000Z</time>
      </trkpt>
      <trkpt lat="47.51295" lon="6.77272">
        <ele>377</ele>
        <time>2016-01-03T11:05:41.000Z</time>
      </trkpt>
      <trkpt lat="47.513" lon="6.77273">
        <ele>377</ele>
        <time>2016-01-03T11:05:42.000Z</time>
      </trkpt>
      <trkpt lat="47.51305" lon="6.77276">
        <ele>377</ele>
        <time>2016-01-03T11:05:43.000Z</time>
      </trkpt>
      <trkpt lat="47.51309" lon="6.77279">
        <ele>377</ele>
        <time>2016-01-03T11:05:44.000Z</time>
      </trkpt>
      <trkpt lat="47.51314" lon="6.77281">
        <ele>377</ele>
        <time>2016-01-03T11:05:45.000Z</time>
      </trkpt>
      <trkpt lat="47.5132" lon="6.77282">
        <ele>377</ele>
        <time>2016-01-03T11:05:46.000Z</time>
      </trkpt>
      <trkpt lat="47.51325" lon="6.77284">
        <ele>377</ele>
        <time>2016-01-03T11:05:47.000Z</time>
      </trkpt>
      <trkpt lat="47.51331" lon="6.77283">
        <ele>378</ele>
        <time>2016-01-03T11:05:48.000Z</time>
      </trkpt>
      <trkpt lat="47.51337" lon="6.77281">
        <ele>378</ele>
        <time>2016-01-03T11:05:49.000Z</time>
      </trkpt>
      <trkpt lat="47.51343" lon="6.77278">
        <ele>378</ele>
        <time>2016-01-03T11:05:50.000Z</time>
      </trkpt>
      <trkpt lat="47.51349" lon="6.77273">
        <ele>378</ele>
        <time>2016-01-03T11:05:51.000Z</time>
      </trkpt>
      <trkpt lat="47.51356" lon="6.77266">
        <ele>378</ele>
        <time>2016-01-03T11:05:52.000Z</time>
      </trkpt>
      <trkpt lat="47.51363" lon="6.77259">
        <ele>378</ele>
        <time>2016-01-03T11:05:53.000Z</time>
      </trkpt>
      <trkpt lat="47.5137" lon="6.77254">
        <ele>378</ele>
        <time>2016-01-03T11:05:54.000Z</time>
      </trkpt>
      <trkpt lat="47.51378" lon="6.77249">
        <ele>376</ele>
        <time>2016-01-03T11:05:55.000Z</time>
      </trkpt>
      <trkpt lat="47.51386" lon="6.77244">
        <ele>376</ele>
        <time>2016-01-03T11:05:56.000Z</time>
      </trkpt>
      <trkpt lat="47.51393" lon="6.77239">
        <ele>376</ele>
        <time>2016-01-03T11:05:57.000Z</time>
      </trkpt>
      <trkpt lat="47.51401" lon="6.77234">
        <ele>376</ele>
        <time>2016-01-03T11:05:58.000Z</time>
      </trkpt>
      <trkpt lat="47.51409" lon="6.7723">
        <ele>376</ele>
        <time>2016-01-03T11:05:59.000Z</time>
      </trkpt>
      <trkpt lat="47.51418" lon="6.77225">
        <ele>375</ele>
        <time>2016-01-03T11:06:00.000Z</time>
      </trkpt>
      <trkpt lat="47.51425" lon="6.77221">
        <ele>375</ele>
        <time>2016-01-03T11:06:01.000Z</time>
      </trkpt>
      <trkpt lat="47.51433" lon="6.77217">
        <ele>375</ele>
        <time>2016-01-03T11:06:02.000Z</time>
      </trkpt>
      <trkpt lat="47.51441" lon="6.77214">
        <ele>375</ele>
        <time>2016-01-03T11:06:03.000Z</time>
      </trkpt>
      <trkpt lat="47.51447" lon="6.77211">
        <ele>375</ele>
        <time>2016-01-03T11:06:04.000Z</time>
      </trkpt>
      <trkpt lat="47.51454" lon="6.77208">
        <ele>375</ele>
        <time>2016-01-03T11:06:05.000Z</time>
      </trkpt>
      <trkpt lat="47.51461" lon="6.77205">
        <ele>375</ele>
        <time>2016-01-03T11:06:06.000Z</time>
      </trkpt>
      <trkpt lat="47.51467" lon="6.77203">
        <ele>375</ele>
        <time>2016-01-03T11:06:06.999Z</time>
      </trkpt>
      <trkpt lat="47.51472" lon="6.77201">
        <ele>375</ele>
        <time>2016-01-03T11:06:08.000Z</time>
      </trkpt>
      <trkpt lat="47.51477" lon="6.77199">
        <ele>375</ele>
        <time>2016-01-03T11:06:09.000Z</time>
      </trkpt>
      <trkpt lat="47.5148" lon="6.772">
        <ele>375</ele>
        <time>2016-01-03T11:06:10.000Z</time>
      </trkpt>
      <trkpt lat="47.51484" lon="6.77203">
        <ele>375</ele>
        <time>2016-01-03T11:06:11.000Z</time>
      </trkpt>
      <trkpt lat="47.51485" lon="6.77212">
        <ele>375</ele>
        <time>2016-01-03T11:06:12.000Z</time>
      </trkpt>
      <trkpt lat="47.51485" lon="6.77217">
        <ele>375</ele>
        <time>2016-01-03T11:06:13.000Z</time>
      </trkpt>
      <trkpt lat="47.51486" lon="6.77222">
        <ele>375</ele>
        <time>2016-01-03T11:06:14.000Z</time>
      </trkpt>
      <trkpt lat="47.51486" lon="6.77231">
        <ele>375</ele>
        <time>2016-01-03T11:06:15.000Z</time>
      </trkpt>
      <trkpt lat="47.51486" lon="6.77237">
        <ele>375</ele>
        <time>2016-01-03T11:06:16.000Z</time>
      </trkpt>
      <trkpt lat="47.51487" lon="6.77243">
        <ele>376</ele>
        <time>2016-01-03T11:06:17.000Z</time>
      </trkpt>
      <trkpt lat="47.51487" lon="6.77251">
        <ele>376</ele>
        <time>2016-01-03T11:06:18.000Z</time>
      </trkpt>
      <trkpt lat="47.51488" lon="6.77256">
        <ele>376</ele>
        <time>2016-01-03T11:06:19.000Z</time>
      </trkpt>
      <trkpt lat="47.51488" lon="6.77262">
        <ele>376</ele>
        <time>2016-01-03T11:06:20.000Z</time>
      </trkpt>
      <trkpt lat="47.51489" lon="6.77268">
        <ele>376</ele>
        <time>2016-01-03T11:06:21.000Z</time>
      </trkpt>
      <trkpt lat="47.51489" lon="6.77275">
        <ele>377</ele>
        <time>2016-01-03T11:06:22.000Z</time>
      </trkpt>
      <trkpt lat="47.51489" lon="6.77282">
        <ele>377</ele>
        <time>2016-01-03T11:06:23.000Z</time>
      </trkpt>
      <trkpt lat="47.5149" lon="6.77288">
        <ele>377</ele>
        <time>2016-01-03T11:06:24.001Z</time>
      </trkpt>
      <trkpt lat="47.51492" lon="6.77295">
        <ele>377</ele>
        <time>2016-01-03T11:06:25.000Z</time>
      </trkpt>
      <trkpt lat="47.51493" lon="6.77301">
        <ele>377</ele>
        <time>2016-01-03T11:06:26.000Z</time>
      </trkpt>
      <trkpt lat="47.51495" lon="6.77307">
        <ele>377</ele>
        <time>2016-01-03T11:06:27.000Z</time>
      </trkpt>
      <trkpt lat="47.51497" lon="6.77312">
        <ele>377</ele>
        <time>2016-01-03T11:06:28.000Z</time>
      </trkpt>
      <trkpt lat="47.51501" lon="6.77317">
        <ele>378</ele>
        <time>2016-01-03T11:06:29.000Z</time>
      </trkpt>
      <trkpt lat="47.51504" lon="6.7732">
        <ele>378</ele>
        <time>2016-01-03T11:06:30.000Z</time>
      </trkpt>
      <trkpt lat="47.51507" lon="6.77322">
        <ele>378</ele>
        <time>2016-01-03T11:06:31.000Z</time>
      </trkpt>
      <trkpt lat="47.5151" lon="6.77325">
        <ele>378</ele>
        <time>2016-01-03T11:06:32.000Z</time>
      </trkpt>
      <trkpt lat="47.51513" lon="6.77327">
        <ele>378</ele>
        <time>2016-01-03T11:06:33.000Z</time>
      </trkpt>
      <trkpt lat="47.51515" lon="6.77331">
        <ele>378</ele>
        <time>2016-01-03T11:06:34.000Z</time>
      </trkpt>
      <trkpt lat="47.51518" lon="6.77334">
        <ele>379</ele>
        <time>2016-01-03T11:06:35.000Z</time>
      </trkpt>
      <trkpt lat="47.51521" lon="6.77337">
        <ele>379</ele>
        <time>2016-01-03T11:06:36.000Z</time>
      </trkpt>
      <trkpt lat="47.51523" lon="6.7734">
        <ele>380</ele>
        <time>2016-01-03T11:06:37.000Z</time>
      </trkpt>
      <trkpt lat="47.51528" lon="6.77344">
        <ele>380</ele>
        <time>2016-01-03T11:06:38.000Z</time>
      </trkpt>
      <trkpt lat="47.51532" lon="6.77347">
        <ele>380</ele>
        <time>2016-01-03T11:06:39.000Z</time>
      </trkpt>
      <trkpt lat="47.51535" lon="6.7735">
        <ele>380</ele>
        <time>2016-01-03T11:06:40.000Z</time>
      </trkpt>
      <trkpt lat="47.51538" lon="6.77355">
        <ele>380</ele>
        <time>2016-01-03T11:06:41.000Z</time>
      </trkpt>
      <trkpt lat="47.51541" lon="6.77359">
        <ele>380</ele>
        <time>2016-01-03T11:06:42.000Z</time>
      </trkpt>
      <trkpt lat="47.51543" lon="6.77362">
        <ele>380</ele>
        <time>2016-01-03T11:06:43.000Z</time>
      </trkpt>
      <trkpt lat="47.51546" lon="6.77364">
        <ele>380</ele>
        <time>2016-01-03T11:06:44.000Z</time>
      </trkpt>
      <trkpt lat="47.51549" lon="6.77367">
        <ele>381</ele>
        <time>2016-01-03T11:06:45.000Z</time>
      </trkpt>
      <trkpt lat="47.51552" lon="6.77371">
        <ele>381</ele>
        <time>2016-01-03T11:06:46.000Z</time>
      </trkpt>
      <trkpt lat="47.51555" lon="6.77374">
        <ele>381</ele>
        <time>2016-01-03T11:06:47.000Z</time>
      </trkpt>
      <trkpt lat="47.51558" lon="6.77378">
        <ele>381</ele>
        <time>2016-01-03T11:06:48.000Z</time>
      </trkpt>
      <trkpt lat="47.5156" lon="6.77381">
        <ele>381</ele>
        <time>2016-01-03T11:06:49.000Z</time>
      </trkpt>
      <trkpt lat="47.51563" lon="6.77384">
        <ele>381</ele>
        <time>2016-01-03T11:06:50.000Z</time>
      </trkpt>
      <trkpt lat="47.51565" lon="6.77387">
        <ele>381</ele>
        <time>2016-01-03T11:06:51.000Z</time>
      </trkpt>
      <trkpt lat="47.51568" lon="6.77391">
        <ele>381</ele>
        <time>2016-01-03T11:06:52.000Z</time>
      </trkpt>
      <trkpt lat="47.5157" lon="6.77394">
        <ele>381</ele>
        <time>2016-01-03T11:06:53.000Z</time>
      </trkpt>
      <trkpt lat="47.51573" lon="6.77397">
        <ele>382</ele>
        <time>2016-01-03T11:06:54.000Z</time>
      </trkpt>
      <trkpt lat="47.51576" lon="6.774">
        <ele>382</ele>
        <time>2016-01-03T11:06:55.000Z</time>
      </trkpt>
      <trkpt lat="47.51578" lon="6.77404">
        <ele>382</ele>
        <time>2016-01-03T11:06:56.000Z</time>
      </trkpt>
      <trkpt lat="47.51581" lon="6.77407">
        <ele>382</ele>
        <time>2016-01-03T11:06:57.000Z</time>
      </trkpt>
      <trkpt lat="47.51584" lon="6.7741">
        <ele>383</ele>
        <time>2016-01-03T11:06:58.000Z</time>
      </trkpt>
      <trkpt lat="47.51587" lon="6.77414">
        <ele>383</ele>
        <time>2016-01-03T11:06:59.000Z</time>
      </trkpt>
      <trkpt lat="47.5159" lon="6.77417">
        <ele>384</ele>
        <time>2016-01-03T11:07:00.000Z</time>
      </trkpt>
      <trkpt lat="47.51593" lon="6.77421">
        <ele>384</ele>
        <time>2016-01-03T11:07:01.000Z</time>
      </trkpt>
      <trkpt lat="47.51595" lon="6.77424">
        <ele>384</ele>
        <time>2016-01-03T11:07:02.000Z</time>
      </trkpt>
      <trkpt lat="47.51598" lon="6.77427">
        <ele>384</ele>
        <time>2016-01-03T11:07:03.000Z</time>
      </trkpt>
      <trkpt lat="47.51601" lon="6.7743">
        <ele>385</ele>
        <time>2016-01-03T11:07:04.000Z</time>
      </trkpt>
      <trkpt lat="47.51603" lon="6.77434">
        <ele>385</ele>
        <time>2016-01-03T11:07:05.000Z</time>
      </trkpt>
      <trkpt lat="47.51606" lon="6.77437">
        <ele>385</ele>
        <time>2016-01-03T11:07:06.000Z</time>
      </trkpt>
      <trkpt lat="47.51608" lon="6.7744">
        <ele>385</ele>
        <time>2016-01-03T11:07:07.000Z</time>
      </trkpt>
      <trkpt lat="47.51611" lon="6.77443">
        <ele>385</ele>
        <time>2016-01-03T11:07:08.000Z</time>
      </trkpt>
      <trkpt lat="47.51613" lon="6.77446">
        <ele>385</ele>
        <time>2016-01-03T11:07:09.000Z</time>
      </trkpt>
      <trkpt lat="47.51615" lon="6.77449">
        <ele>385</ele>
        <time>2016-01-03T11:07:10.000Z</time>
      </trkpt>
      <trkpt lat="47.51618" lon="6.77452">
        <ele>386</ele>
        <time>2016-01-03T11:07:11.000Z</time>
      </trkpt>
      <trkpt lat="47.51621" lon="6.77455">
        <ele>386</ele>
        <time>2016-01-03T11:07:12.000Z</time>
      </trkpt>
      <trkpt lat="47.51623" lon="6.77459">
        <ele>386</ele>
        <time>2016-01-03T11:07:13.000Z</time>
      </trkpt>
      <trkpt lat="47.51626" lon="6.77462">
        <ele>386</ele>
        <time>2016-01-03T11:07:14.000Z</time>
      </trkpt>
      <trkpt lat="47.51629" lon="6.77465">
        <ele>386</ele>
        <time>2016-01-03T11:07:15.000Z</time>
      </trkpt>
      <trkpt lat="47.51631" lon="6.77468">
        <ele>386</ele>
        <time>2016-01-03T11:07:16.000Z</time>
      </trkpt>
      <trkpt lat="47.51634" lon="6.77471">
        <ele>386</ele>
        <time>2016-01-03T11:07:17.000Z</time>
      </trkpt>
      <trkpt lat="47.51636" lon="6.77474">
        <ele>386</ele>
        <time>2016-01-03T11:07:18.000Z</time>
      </trkpt>
      <trkpt lat="47.51639" lon="6.77477">
        <ele>386</ele>
        <time>2016-01-03T11:07:19.000Z</time>
      </trkpt>
      <trkpt lat="47.51642" lon="6.7748">
        <ele>387</ele>
        <time>2016-01-03T11:07:20.000Z</time>
      </trkpt>
      <trkpt lat="47.51644" lon="6.77484">
        <ele>387</ele>
        <time>2016-01-03T11:07:21.000Z</time>
      </trkpt>
      <trkpt lat="47.51647" lon="6.77487">
        <ele>387</ele>
        <time>2016-01-03T11:07:22.000Z</time>
      </trkpt>
      <trkpt lat="47.51649" lon="6.7749">
        <ele>387</ele>
        <time>2016-01-03T11:07:23.000Z</time>
      </trkpt>
      <trkpt lat="47.51652" lon="6.77494">
        <ele>387</ele>
        <time>2016-01-03T11:07:24.000Z</time>
      </trkpt>
      <trkpt lat="47.51654" lon="6.77498">
        <ele>388</ele>
        <time>2016-01-03T11:07:25.000Z</time>
      </trkpt>
      <trkpt lat="47.51656" lon="6.77502">
        <ele>388</ele>
        <time>2016-01-03T11:07:26.000Z</time>
      </trkpt>
      <trkpt lat="47.51658" lon="6.77506">
        <ele>388</ele>
        <time>2016-01-03T11:07:27.000Z</time>
      </trkpt>
      <trkpt lat="47.51661" lon="6.7751">
        <ele>388</ele>
        <time>2016-01-03T11:07:28.000Z</time>
      </trkpt>
      <trkpt lat="47.51663" lon="6.77513">
        <ele>388</ele>
        <time>2016-01-03T11:07:29.000Z</time>
      </trkpt>
      <trkpt lat="47.51666" lon="6.77517">
        <ele>388</ele>
        <time>2016-01-03T11:07:30.000Z</time>
      </trkpt>
      <trkpt lat="47.51669" lon="6.7752">
        <ele>389</ele>
        <time>2016-01-03T11:07:31.000Z</time>
      </trkpt>
      <trkpt lat="47.51672" lon="6.77523">
        <ele>390</ele>
        <time>2016-01-03T11:07:32.000Z</time>
      </trkpt>
      <trkpt lat="47.51675" lon="6.77526">
        <ele>390</ele>
        <time>2016-01-03T11:07:33.000Z</time>
      </trkpt>
      <trkpt lat="47.51678" lon="6.77528">
        <ele>390</ele>
        <time>2016-01-03T11:07:34.000Z</time>
      </trkpt>
      <trkpt lat="47.51681" lon="6.7753">
        <ele>390</ele>
        <time>2016-01-03T11:07:35.000Z</time>
      </trkpt>
      <trkpt lat="47.51684" lon="6.77532">
        <ele>390</ele>
        <time>2016-01-03T11:07:36.000Z</time>
      </trkpt>
      <trkpt lat="47.51686" lon="6.77535">
        <ele>390</ele>
        <time>2016-01-03T11:07:37.000Z</time>
      </trkpt>
      <trkpt lat="47.51689" lon="6.77539">
        <ele>390</ele>
        <time>2016-01-03T11:07:38.000Z</time>
      </trkpt>
      <trkpt lat="47.51691" lon="6.77542">
        <ele>390</ele>
        <time>2016-01-03T11:07:39.000Z</time>
      </trkpt>
      <trkpt lat="47.51694" lon="6.77546">
        <ele>390</ele>
        <time>2016-01-03T11:07:40.000Z</time>
      </trkpt>
      <trkpt lat="47.51697" lon="6.77549">
        <ele>390</ele>
        <time>2016-01-03T11:07:41.000Z</time>
      </trkpt>
      <trkpt lat="47.51699" lon="6.77552">
        <ele>390</ele>
        <time>2016-01-03T11:07:42.000Z</time>
      </trkpt>
      <trkpt lat="47.51703" lon="6.77553">
        <ele>390</ele>
        <time>2016-01-03T11:07:43.000Z</time>
      </trkpt>
      <trkpt lat="47.51706" lon="6.77553">
        <ele>390</ele>
        <time>2016-01-03T11:07:44.000Z</time>
      </trkpt>
      <trkpt lat="47.51709" lon="6.77553">
        <ele>390</ele>
        <time>2016-01-03T11:07:45.000Z</time>
      </trkpt>
      <trkpt lat="47.51712" lon="6.77552">
        <ele>390</ele>
        <time>2016-01-03T11:07:46.000Z</time>
      </trkpt>
      <trkpt lat="47.51715" lon="6.77551">
        <ele>390</ele>
        <time>2016-01-03T11:07:47.000Z</time>
      </trkpt>
      <trkpt lat="47.51718" lon="6.77548">
        <ele>390</ele>
        <time>2016-01-03T11:07:48.000Z</time>
      </trkpt>
      <trkpt lat="47.51719" lon="6.77545">
        <ele>390</ele>
        <time>2016-01-03T11:07:49.000Z</time>
      </trkpt>
      <trkpt lat="47.51721" lon="6.77541">
        <ele>390</ele>
        <time>2016-01-03T11:07:50.000Z</time>
      </trkpt>
      <trkpt lat="47.51722" lon="6.77536">
        <ele>390</ele>
        <time>2016-01-03T11:07:51.000Z</time>
      </trkpt>
      <trkpt lat="47.51723" lon="6.7753">
        <ele>390</ele>
        <time>2016-01-03T11:07:52.000Z</time>
      </trkpt>
      <trkpt lat="47.51724" lon="6.77524">
        <ele>390</ele>
        <time>2016-01-03T11:07:53.000Z</time>
      </trkpt>
      <trkpt lat="47.51725" lon="6.77519">
        <ele>390</ele>
        <time>2016-01-03T11:07:54.000Z</time>
      </trkpt>
      <trkpt lat="47.51727" lon="6.77513">
        <ele>390</ele>
        <time>2016-01-03T11:07:55.000Z</time>
      </trkpt>
      <trkpt lat="47.51729" lon="6.77508">
        <ele>390</ele>
        <time>2016-01-03T11:07:56.000Z</time>
      </trkpt>
      <trkpt lat="47.5173" lon="6.77501">
        <ele>390</ele>
        <time>2016-01-03T11:07:57.000Z</time>
      </trkpt>
      <trkpt lat="47.51732" lon="6.77495">
        <ele>389</ele>
        <time>2016-01-03T11:07:58.001Z</time>
      </trkpt>
      <trkpt lat="47.51733" lon="6.77486">
        <ele>389</ele>
        <time>2016-01-03T11:07:59.000Z</time>
      </trkpt>
      <trkpt lat="47.51736" lon="6.77481">
        <ele>389</ele>
        <time>2016-01-03T11:08:00.000Z</time>
      </trkpt>
      <trkpt lat="47.5174" lon="6.77477">
        <ele>389</ele>
        <time>2016-01-03T11:08:01.000Z</time>
      </trkpt>
      <trkpt lat="47.51743" lon="6.77475">
        <ele>389</ele>
        <time>2016-01-03T11:08:02.000Z</time>
      </trkpt>
      <trkpt lat="47.51747" lon="6.77474">
        <ele>389</ele>
        <time>2016-01-03T11:08:03.000Z</time>
      </trkpt>
      <trkpt lat="47.51751" lon="6.77475">
        <ele>389</ele>
        <time>2016-01-03T11:08:04.000Z</time>
      </trkpt>
      <trkpt lat="47.51754" lon="6.77476">
        <ele>389</ele>
        <time>2016-01-03T11:08:05.000Z</time>
      </trkpt>
      <trkpt lat="47.51758" lon="6.77477">
        <ele>389</ele>
        <time>2016-01-03T11:08:06.000Z</time>
      </trkpt>
      <trkpt lat="47.51762" lon="6.77478">
        <ele>389</ele>
        <time>2016-01-03T11:08:07.000Z</time>
      </trkpt>
      <trkpt lat="47.51766" lon="6.77479">
        <ele>388</ele>
        <time>2016-01-03T11:08:08.000Z</time>
      </trkpt>
      <trkpt lat="47.51771" lon="6.77481">
        <ele>388</ele>
        <time>2016-01-03T11:08:09.000Z</time>
      </trkpt>
      <trkpt lat="47.51774" lon="6.77482">
        <ele>388</ele>
        <time>2016-01-03T11:08:10.000Z</time>
      </trkpt>
      <trkpt lat="47.51778" lon="6.77484">
        <ele>388</ele>
        <time>2016-01-03T11:08:11.000Z</time>
      </trkpt>
      <trkpt lat="47.51783" lon="6.77484">
        <ele>388</ele>
        <time>2016-01-03T11:08:12.000Z</time>
      </trkpt>
      <trkpt lat="47.51787" lon="6.77486">
        <ele>388</ele>
        <time>2016-01-03T11:08:13.000Z</time>
      </trkpt>
      <trkpt lat="47.51791" lon="6.77488">
        <ele>388</ele>
        <time>2016-01-03T11:08:14.000Z</time>
      </trkpt>
      <trkpt lat="47.51795" lon="6.7749">
        <ele>388</ele>
        <time>2016-01-03T11:08:15.000Z</time>
      </trkpt>
      <trkpt lat="47.51799" lon="6.77491">
        <ele>388</ele>
        <time>2016-01-03T11:08:16.000Z</time>
      </trkpt>
      <trkpt lat="47.51802" lon="6.7749">
        <ele>388</ele>
        <time>2016-01-03T11:08:17.000Z</time>
      </trkpt>
      <trkpt lat="47.51805" lon="6.77487">
        <ele>388</ele>
        <time>2016-01-03T11:08:18.000Z</time>
      </trkpt>
      <trkpt lat="47.51807" lon="6.77485">
        <ele>388</ele>
        <time>2016-01-03T11:08:19.000Z</time>
      </trkpt>
      <trkpt lat="47.51808" lon="6.77481">
        <ele>388</ele>
        <time>2016-01-03T11:08:21.000Z</time>
      </trkpt>
      <trkpt lat="47.51807" lon="6.77478">
        <ele>388</ele>
        <time>2016-01-03T11:08:22.000Z</time>
      </trkpt>
      <trkpt lat="47.51803" lon="6.77479">
        <ele>388</ele>
        <time>2016-01-03T11:08:35.000Z</time>
      </trkpt>
      <trkpt lat="47.51802" lon="6.77479">
        <ele>388</ele>
        <time>2016-01-03T11:08:36.000Z</time>
      </trkpt>
      <trkpt lat="47.51806" lon="6.77478">
        <ele>388</ele>
        <time>2016-01-03T11:09:44.000Z</time>
      </trkpt>
      <trkpt lat="47.51806" lon="6.77478">
        <ele>388</ele>
        <time>2016-01-03T11:09:45.000Z</time>
      </trkpt>
      <trkpt lat="47.51805" lon="6.77484">
        <ele>388</ele>
        <time>2016-01-03T11:23:33.000Z</time>
      </trkpt>
      <trkpt lat="47.51805" lon="6.77485">
        <ele>388</ele>
        <time>2016-01-03T11:23:34.000Z</time>
      </trkpt>
      <trkpt lat="47.51806" lon="6.7749">
        <ele>388</ele>
        <time>2016-01-03T11:26:07.000Z</time>
      </trkpt>
    </trkseg>
  </trk>
</gpx>